<?xml version="1.0" encoding="UTF-8" standalone="no" ?>
<gpx xmlns="http://www.topografix.com/GPX/1/1" xmlns:xsi="http://www.w3.org/2001/XMLSchema-instance" xsi:schemaLocation="http://www.topografix.com/GPX/1/1 http://www.topografix.com/GPX/1/1/gpx.xsd" version="1.1" creator="VisuGPX - https://www.visugpx.com">
  <metadata>
    <name>lundi 2015 07</name>
    <desc><![CDATA[cumul de juillet 2015]]></desc>
  </metadata>
  <trk>
    <name><![CDATA[06/07/2015 20:18]]></name>
    <extensions>
      <line xmlns="http://www.topografix.com/GPX/gpx_style/0/2">
        <color>000000</color>
      </line>
    </extensions>
    <trkseg>
      <trkpt lat="48.85739" lon="2.34733">
        <ele>86.6</ele>
        <time>2015-07-06T18:18:18.224Z</time>
      </trkpt>
      <trkpt lat="48.85743" lon="2.34727">
        <ele>87.3</ele>
        <time>2015-07-06T18:19:03.141Z</time>
      </trkpt>
      <trkpt lat="48.85743" lon="2.34727">
        <ele>87.4</ele>
        <time>2015-07-06T18:19:04.163Z</time>
      </trkpt>
      <trkpt lat="48.85743" lon="2.34727">
        <ele>87.4</ele>
        <time>2015-07-06T18:21:26.177Z</time>
      </trkpt>
      <trkpt lat="48.85739" lon="2.34732">
        <ele>89.7</ele>
        <time>2015-07-06T18:21:27.153Z</time>
      </trkpt>
      <trkpt lat="48.85739" lon="2.34733">
        <ele>89.1</ele>
        <time>2015-07-06T18:21:29.137Z</time>
      </trkpt>
      <trkpt lat="48.85739" lon="2.34734">
        <ele>88.9</ele>
        <time>2015-07-06T18:21:30.158Z</time>
      </trkpt>
      <trkpt lat="48.85739" lon="2.34734">
        <ele>88.6</ele>
        <time>2015-07-06T18:21:31.218Z</time>
      </trkpt>
      <trkpt lat="48.85738" lon="2.34734">
        <ele>88.6</ele>
        <time>2015-07-06T18:21:32.214Z</time>
      </trkpt>
      <trkpt lat="48.85737" lon="2.34722">
        <ele>88.4</ele>
        <time>2015-07-06T18:21:38.152Z</time>
      </trkpt>
      <trkpt lat="48.85737" lon="2.34719">
        <ele>88.2</ele>
        <time>2015-07-06T18:21:39.153Z</time>
      </trkpt>
      <trkpt lat="48.85738" lon="2.34708">
        <ele>87.4</ele>
        <time>2015-07-06T18:21:42.184Z</time>
      </trkpt>
      <trkpt lat="48.85737" lon="2.34705">
        <ele>87.5</ele>
        <time>2015-07-06T18:21:43.220Z</time>
      </trkpt>
      <trkpt lat="48.85731" lon="2.34698">
        <ele>87.5</ele>
        <time>2015-07-06T18:21:46.177Z</time>
      </trkpt>
      <trkpt lat="48.85728" lon="2.34696">
        <ele>87.5</ele>
        <time>2015-07-06T18:21:47.146Z</time>
      </trkpt>
      <trkpt lat="48.8572" lon="2.34693">
        <ele>86.9</ele>
        <time>2015-07-06T18:21:51.192Z</time>
      </trkpt>
      <trkpt lat="48.85717" lon="2.34691">
        <ele>86.8</ele>
        <time>2015-07-06T18:21:52.184Z</time>
      </trkpt>
      <trkpt lat="48.85711" lon="2.34687">
        <ele>86.3</ele>
        <time>2015-07-06T18:21:55.254Z</time>
      </trkpt>
      <trkpt lat="48.85709" lon="2.34686">
        <ele>86.4</ele>
        <time>2015-07-06T18:21:56.153Z</time>
      </trkpt>
      <trkpt lat="48.85701" lon="2.34681">
        <ele>85.8</ele>
        <time>2015-07-06T18:21:59.181Z</time>
      </trkpt>
      <trkpt lat="48.85699" lon="2.3468">
        <ele>85.7</ele>
        <time>2015-07-06T18:22:00.218Z</time>
      </trkpt>
      <trkpt lat="48.85691" lon="2.34674">
        <ele>85.5</ele>
        <time>2015-07-06T18:22:03.193Z</time>
      </trkpt>
      <trkpt lat="48.85688" lon="2.34672">
        <ele>85.5</ele>
        <time>2015-07-06T18:22:04.200Z</time>
      </trkpt>
      <trkpt lat="48.85682" lon="2.34668">
        <ele>85.5</ele>
        <time>2015-07-06T18:22:06.135Z</time>
      </trkpt>
      <trkpt lat="48.85679" lon="2.34667">
        <ele>85.3</ele>
        <time>2015-07-06T18:22:07.294Z</time>
      </trkpt>
      <trkpt lat="48.85673" lon="2.34663">
        <ele>85.2</ele>
        <time>2015-07-06T18:22:09.119Z</time>
      </trkpt>
      <trkpt lat="48.8567" lon="2.34662">
        <ele>85.2</ele>
        <time>2015-07-06T18:22:10.168Z</time>
      </trkpt>
      <trkpt lat="48.85663" lon="2.34658">
        <ele>85</ele>
        <time>2015-07-06T18:22:12.170Z</time>
      </trkpt>
      <trkpt lat="48.8566" lon="2.34655">
        <ele>84.9</ele>
        <time>2015-07-06T18:22:13.185Z</time>
      </trkpt>
      <trkpt lat="48.85653" lon="2.34651">
        <ele>84.6</ele>
        <time>2015-07-06T18:22:15.203Z</time>
      </trkpt>
      <trkpt lat="48.8565" lon="2.34648">
        <ele>84.8</ele>
        <time>2015-07-06T18:22:16.166Z</time>
      </trkpt>
      <trkpt lat="48.85643" lon="2.34644">
        <ele>85.1</ele>
        <time>2015-07-06T18:22:18.302Z</time>
      </trkpt>
      <trkpt lat="48.85641" lon="2.34643">
        <ele>85.1</ele>
        <time>2015-07-06T18:22:19.313Z</time>
      </trkpt>
      <trkpt lat="48.85633" lon="2.3464">
        <ele>85.1</ele>
        <time>2015-07-06T18:22:22.245Z</time>
      </trkpt>
      <trkpt lat="48.85631" lon="2.34638">
        <ele>85.1</ele>
        <time>2015-07-06T18:22:23.259Z</time>
      </trkpt>
      <trkpt lat="48.85627" lon="2.34627">
        <ele>84.4</ele>
        <time>2015-07-06T18:22:27.229Z</time>
      </trkpt>
      <trkpt lat="48.85627" lon="2.34624">
        <ele>84.3</ele>
        <time>2015-07-06T18:22:28.137Z</time>
      </trkpt>
      <trkpt lat="48.85629" lon="2.34613">
        <ele>84.2</ele>
        <time>2015-07-06T18:22:31.246Z</time>
      </trkpt>
      <trkpt lat="48.85631" lon="2.34608">
        <ele>83.9</ele>
        <time>2015-07-06T18:22:32.183Z</time>
      </trkpt>
      <trkpt lat="48.85635" lon="2.34599">
        <ele>83.8</ele>
        <time>2015-07-06T18:22:34.188Z</time>
      </trkpt>
      <trkpt lat="48.85637" lon="2.34594">
        <ele>83.8</ele>
        <time>2015-07-06T18:22:35.244Z</time>
      </trkpt>
      <trkpt lat="48.85641" lon="2.34584">
        <ele>83.8</ele>
        <time>2015-07-06T18:22:37.220Z</time>
      </trkpt>
      <trkpt lat="48.85644" lon="2.34579">
        <ele>83.9</ele>
        <time>2015-07-06T18:22:38.125Z</time>
      </trkpt>
      <trkpt lat="48.85648" lon="2.3457">
        <ele>84.1</ele>
        <time>2015-07-06T18:22:40.166Z</time>
      </trkpt>
      <trkpt lat="48.85651" lon="2.34566">
        <ele>84.2</ele>
        <time>2015-07-06T18:22:41.100Z</time>
      </trkpt>
      <trkpt lat="48.85656" lon="2.34555">
        <ele>84.1</ele>
        <time>2015-07-06T18:22:43.785Z</time>
      </trkpt>
      <trkpt lat="48.85658" lon="2.34549">
        <ele>83.9</ele>
        <time>2015-07-06T18:22:44.188Z</time>
      </trkpt>
      <trkpt lat="48.8566" lon="2.34536">
        <ele>83.9</ele>
        <time>2015-07-06T18:22:46.100Z</time>
      </trkpt>
      <trkpt lat="48.85661" lon="2.34529">
        <ele>83.9</ele>
        <time>2015-07-06T18:22:47.132Z</time>
      </trkpt>
      <trkpt lat="48.85663" lon="2.34523">
        <ele>83.8</ele>
        <time>2015-07-06T18:22:48.892Z</time>
      </trkpt>
      <trkpt lat="48.85664" lon="2.34516">
        <ele>83.7</ele>
        <time>2015-07-06T18:22:49.175Z</time>
      </trkpt>
      <trkpt lat="48.85665" lon="2.3451">
        <ele>83.6</ele>
        <time>2015-07-06T18:22:50.201Z</time>
      </trkpt>
      <trkpt lat="48.85667" lon="2.34503">
        <ele>83.6</ele>
        <time>2015-07-06T18:22:51.205Z</time>
      </trkpt>
      <trkpt lat="48.85669" lon="2.34496">
        <ele>83.4</ele>
        <time>2015-07-06T18:22:52.141Z</time>
      </trkpt>
      <trkpt lat="48.85671" lon="2.34489">
        <ele>83.2</ele>
        <time>2015-07-06T18:22:53.143Z</time>
      </trkpt>
      <trkpt lat="48.85672" lon="2.34482">
        <ele>83.2</ele>
        <time>2015-07-06T18:22:54.146Z</time>
      </trkpt>
      <trkpt lat="48.85674" lon="2.34475">
        <ele>83.3</ele>
        <time>2015-07-06T18:22:55.162Z</time>
      </trkpt>
      <trkpt lat="48.85676" lon="2.34468">
        <ele>83.1</ele>
        <time>2015-07-06T18:22:56.174Z</time>
      </trkpt>
      <trkpt lat="48.85677" lon="2.34461">
        <ele>82.8</ele>
        <time>2015-07-06T18:22:57.184Z</time>
      </trkpt>
      <trkpt lat="48.85679" lon="2.34454">
        <ele>82.8</ele>
        <time>2015-07-06T18:22:58.190Z</time>
      </trkpt>
      <trkpt lat="48.8568" lon="2.34446">
        <ele>82.7</ele>
        <time>2015-07-06T18:22:59.097Z</time>
      </trkpt>
      <trkpt lat="48.85681" lon="2.34439">
        <ele>82.6</ele>
        <time>2015-07-06T18:23:00.094Z</time>
      </trkpt>
      <trkpt lat="48.85682" lon="2.34431">
        <ele>82.7</ele>
        <time>2015-07-06T18:23:01.181Z</time>
      </trkpt>
      <trkpt lat="48.85683" lon="2.34423">
        <ele>82.7</ele>
        <time>2015-07-06T18:23:02.192Z</time>
      </trkpt>
      <trkpt lat="48.85685" lon="2.34416">
        <ele>82.6</ele>
        <time>2015-07-06T18:23:03.204Z</time>
      </trkpt>
      <trkpt lat="48.85686" lon="2.34409">
        <ele>82.4</ele>
        <time>2015-07-06T18:23:04.143Z</time>
      </trkpt>
      <trkpt lat="48.85688" lon="2.34401">
        <ele>82.4</ele>
        <time>2015-07-06T18:23:05.088Z</time>
      </trkpt>
      <trkpt lat="48.85689" lon="2.34394">
        <ele>82.4</ele>
        <time>2015-07-06T18:23:06.121Z</time>
      </trkpt>
      <trkpt lat="48.8569" lon="2.34386">
        <ele>82.2</ele>
        <time>2015-07-06T18:23:07.154Z</time>
      </trkpt>
      <trkpt lat="48.8569" lon="2.34379">
        <ele>82.2</ele>
        <time>2015-07-06T18:23:08.163Z</time>
      </trkpt>
      <trkpt lat="48.8569" lon="2.34372">
        <ele>82.3</ele>
        <time>2015-07-06T18:23:09.187Z</time>
      </trkpt>
      <trkpt lat="48.85691" lon="2.34359">
        <ele>82.1</ele>
        <time>2015-07-06T18:23:11.127Z</time>
      </trkpt>
      <trkpt lat="48.85689" lon="2.34352">
        <ele>81.2</ele>
        <time>2015-07-06T18:23:12.124Z</time>
      </trkpt>
      <trkpt lat="48.85684" lon="2.34342">
        <ele>80.2</ele>
        <time>2015-07-06T18:23:14.173Z</time>
      </trkpt>
      <trkpt lat="48.85681" lon="2.34339">
        <ele>80.2</ele>
        <time>2015-07-06T18:23:15.187Z</time>
      </trkpt>
      <trkpt lat="48.85672" lon="2.34334">
        <ele>79.8</ele>
        <time>2015-07-06T18:23:17.220Z</time>
      </trkpt>
      <trkpt lat="48.85668" lon="2.34332">
        <ele>79.6</ele>
        <time>2015-07-06T18:23:18.138Z</time>
      </trkpt>
      <trkpt lat="48.85663" lon="2.34329">
        <ele>79.5</ele>
        <time>2015-07-06T18:23:19.199Z</time>
      </trkpt>
      <trkpt lat="48.85659" lon="2.34326">
        <ele>79.7</ele>
        <time>2015-07-06T18:23:20.218Z</time>
      </trkpt>
      <trkpt lat="48.85655" lon="2.34323">
        <ele>79.7</ele>
        <time>2015-07-06T18:23:21.137Z</time>
      </trkpt>
      <trkpt lat="48.8565" lon="2.3432">
        <ele>79.5</ele>
        <time>2015-07-06T18:23:22.144Z</time>
      </trkpt>
      <trkpt lat="48.85645" lon="2.34318">
        <ele>79.3</ele>
        <time>2015-07-06T18:23:23.150Z</time>
      </trkpt>
      <trkpt lat="48.8564" lon="2.34315">
        <ele>79.3</ele>
        <time>2015-07-06T18:23:24.160Z</time>
      </trkpt>
      <trkpt lat="48.85636" lon="2.34313">
        <ele>79.2</ele>
        <time>2015-07-06T18:23:25.194Z</time>
      </trkpt>
      <trkpt lat="48.8563" lon="2.34311">
        <ele>79.2</ele>
        <time>2015-07-06T18:23:26.179Z</time>
      </trkpt>
      <trkpt lat="48.85625" lon="2.34309">
        <ele>79</ele>
        <time>2015-07-06T18:23:27.266Z</time>
      </trkpt>
      <trkpt lat="48.8562" lon="2.34307">
        <ele>79</ele>
        <time>2015-07-06T18:23:28.144Z</time>
      </trkpt>
      <trkpt lat="48.85615" lon="2.34305">
        <ele>79</ele>
        <time>2015-07-06T18:23:29.153Z</time>
      </trkpt>
      <trkpt lat="48.8561" lon="2.34302">
        <ele>79</ele>
        <time>2015-07-06T18:23:30.162Z</time>
      </trkpt>
      <trkpt lat="48.85605" lon="2.34299">
        <ele>79.1</ele>
        <time>2015-07-06T18:23:31.226Z</time>
      </trkpt>
      <trkpt lat="48.85601" lon="2.34296">
        <ele>79.3</ele>
        <time>2015-07-06T18:23:32.123Z</time>
      </trkpt>
      <trkpt lat="48.85596" lon="2.34293">
        <ele>79.4</ele>
        <time>2015-07-06T18:23:33.133Z</time>
      </trkpt>
      <trkpt lat="48.85592" lon="2.3429">
        <ele>79.6</ele>
        <time>2015-07-06T18:23:34.138Z</time>
      </trkpt>
      <trkpt lat="48.85587" lon="2.34287">
        <ele>79.7</ele>
        <time>2015-07-06T18:23:35.141Z</time>
      </trkpt>
      <trkpt lat="48.85583" lon="2.34285">
        <ele>79.6</ele>
        <time>2015-07-06T18:23:36.150Z</time>
      </trkpt>
      <trkpt lat="48.85577" lon="2.34278">
        <ele>80.2</ele>
        <time>2015-07-06T18:23:38.170Z</time>
      </trkpt>
      <trkpt lat="48.85576" lon="2.34272">
        <ele>80.6</ele>
        <time>2015-07-06T18:23:39.181Z</time>
      </trkpt>
      <trkpt lat="48.85576" lon="2.34264">
        <ele>80.8</ele>
        <time>2015-07-06T18:23:40.129Z</time>
      </trkpt>
      <trkpt lat="48.85576" lon="2.34258">
        <ele>80.9</ele>
        <time>2015-07-06T18:23:41.132Z</time>
      </trkpt>
      <trkpt lat="48.8558" lon="2.34248">
        <ele>80.8</ele>
        <time>2015-07-06T18:23:43.184Z</time>
      </trkpt>
      <trkpt lat="48.85582" lon="2.34244">
        <ele>80.8</ele>
        <time>2015-07-06T18:23:44.202Z</time>
      </trkpt>
      <trkpt lat="48.85587" lon="2.34235">
        <ele>80.5</ele>
        <time>2015-07-06T18:23:46.142Z</time>
      </trkpt>
      <trkpt lat="48.8559" lon="2.34231">
        <ele>80.5</ele>
        <time>2015-07-06T18:23:47.157Z</time>
      </trkpt>
      <trkpt lat="48.85596" lon="2.34222">
        <ele>80.3</ele>
        <time>2015-07-06T18:23:49.216Z</time>
      </trkpt>
      <trkpt lat="48.856" lon="2.34218">
        <ele>80.1</ele>
        <time>2015-07-06T18:23:50.216Z</time>
      </trkpt>
      <trkpt lat="48.85604" lon="2.34213">
        <ele>79.9</ele>
        <time>2015-07-06T18:23:51.150Z</time>
      </trkpt>
      <trkpt lat="48.85608" lon="2.3421">
        <ele>79.9</ele>
        <time>2015-07-06T18:23:52.172Z</time>
      </trkpt>
      <trkpt lat="48.85613" lon="2.34206">
        <ele>79.8</ele>
        <time>2015-07-06T18:23:53.183Z</time>
      </trkpt>
      <trkpt lat="48.85617" lon="2.34201">
        <ele>79.6</ele>
        <time>2015-07-06T18:23:54.198Z</time>
      </trkpt>
      <trkpt lat="48.85621" lon="2.34196">
        <ele>79.4</ele>
        <time>2015-07-06T18:23:55.222Z</time>
      </trkpt>
      <trkpt lat="48.85625" lon="2.34191">
        <ele>79.4</ele>
        <time>2015-07-06T18:23:56.128Z</time>
      </trkpt>
      <trkpt lat="48.85629" lon="2.34185">
        <ele>79.4</ele>
        <time>2015-07-06T18:23:57.169Z</time>
      </trkpt>
      <trkpt lat="48.85633" lon="2.34181">
        <ele>79.4</ele>
        <time>2015-07-06T18:23:58.179Z</time>
      </trkpt>
      <trkpt lat="48.85637" lon="2.34176">
        <ele>79.4</ele>
        <time>2015-07-06T18:23:59.190Z</time>
      </trkpt>
      <trkpt lat="48.85643" lon="2.34171">
        <ele>78.1</ele>
        <time>2015-07-06T18:24:00.235Z</time>
      </trkpt>
      <trkpt lat="48.85648" lon="2.34168">
        <ele>77.3</ele>
        <time>2015-07-06T18:24:01.256Z</time>
      </trkpt>
      <trkpt lat="48.85652" lon="2.34165">
        <ele>77.2</ele>
        <time>2015-07-06T18:24:02.168Z</time>
      </trkpt>
      <trkpt lat="48.85658" lon="2.34159">
        <ele>77.2</ele>
        <time>2015-07-06T18:24:04.116Z</time>
      </trkpt>
      <trkpt lat="48.8566" lon="2.34156">
        <ele>77.3</ele>
        <time>2015-07-06T18:24:05.132Z</time>
      </trkpt>
      <trkpt lat="48.85664" lon="2.3415">
        <ele>77</ele>
        <time>2015-07-06T18:24:07.190Z</time>
      </trkpt>
      <trkpt lat="48.85667" lon="2.34147">
        <ele>76.7</ele>
        <time>2015-07-06T18:24:08.193Z</time>
      </trkpt>
      <trkpt lat="48.8567" lon="2.34137">
        <ele>76.9</ele>
        <time>2015-07-06T18:24:10.125Z</time>
      </trkpt>
      <trkpt lat="48.85671" lon="2.34132">
        <ele>77.1</ele>
        <time>2015-07-06T18:24:11.220Z</time>
      </trkpt>
      <trkpt lat="48.85672" lon="2.3412">
        <ele>78.4</ele>
        <time>2015-07-06T18:24:14.185Z</time>
      </trkpt>
      <trkpt lat="48.85671" lon="2.34117">
        <ele>78.7</ele>
        <time>2015-07-06T18:24:15.159Z</time>
      </trkpt>
      <trkpt lat="48.85666" lon="2.34111">
        <ele>79</ele>
        <time>2015-07-06T18:24:18.228Z</time>
      </trkpt>
      <trkpt lat="48.85664" lon="2.34108">
        <ele>79.3</ele>
        <time>2015-07-06T18:24:19.300Z</time>
      </trkpt>
      <trkpt lat="48.85657" lon="2.34102">
        <ele>79.5</ele>
        <time>2015-07-06T18:24:22.220Z</time>
      </trkpt>
      <trkpt lat="48.85655" lon="2.34101">
        <ele>79.4</ele>
        <time>2015-07-06T18:24:23.239Z</time>
      </trkpt>
      <trkpt lat="48.85648" lon="2.34093">
        <ele>79.7</ele>
        <time>2015-07-06T18:24:27.232Z</time>
      </trkpt>
      <trkpt lat="48.85646" lon="2.34092">
        <ele>79.7</ele>
        <time>2015-07-06T18:24:28.213Z</time>
      </trkpt>
      <trkpt lat="48.85639" lon="2.34084">
        <ele>80.6</ele>
        <time>2015-07-06T18:24:31.260Z</time>
      </trkpt>
      <trkpt lat="48.85637" lon="2.34082">
        <ele>80.5</ele>
        <time>2015-07-06T18:24:32.198Z</time>
      </trkpt>
      <trkpt lat="48.85629" lon="2.34075">
        <ele>80.5</ele>
        <time>2015-07-06T18:24:35.195Z</time>
      </trkpt>
      <trkpt lat="48.85628" lon="2.34074">
        <ele>80.5</ele>
        <time>2015-07-06T18:24:36.208Z</time>
      </trkpt>
      <trkpt lat="48.85623" lon="2.34066">
        <ele>81.1</ele>
        <time>2015-07-06T18:24:39.200Z</time>
      </trkpt>
      <trkpt lat="48.85622" lon="2.34062">
        <ele>81.3</ele>
        <time>2015-07-06T18:24:40.215Z</time>
      </trkpt>
      <trkpt lat="48.85621" lon="2.34054">
        <ele>81.7</ele>
        <time>2015-07-06T18:24:42.280Z</time>
      </trkpt>
      <trkpt lat="48.8562" lon="2.34049">
        <ele>82.2</ele>
        <time>2015-07-06T18:24:43.266Z</time>
      </trkpt>
      <trkpt lat="48.8562" lon="2.34036">
        <ele>83.1</ele>
        <time>2015-07-06T18:24:46.188Z</time>
      </trkpt>
      <trkpt lat="48.85622" lon="2.34032">
        <ele>83.4</ele>
        <time>2015-07-06T18:24:47.201Z</time>
      </trkpt>
      <trkpt lat="48.85625" lon="2.34024">
        <ele>83.8</ele>
        <time>2015-07-06T18:24:49.219Z</time>
      </trkpt>
      <trkpt lat="48.85627" lon="2.34019">
        <ele>83.9</ele>
        <time>2015-07-06T18:24:50.122Z</time>
      </trkpt>
      <trkpt lat="48.85631" lon="2.3401">
        <ele>84.3</ele>
        <time>2015-07-06T18:24:52.268Z</time>
      </trkpt>
      <trkpt lat="48.85634" lon="2.34006">
        <ele>84.4</ele>
        <time>2015-07-06T18:24:53.172Z</time>
      </trkpt>
      <trkpt lat="48.85637" lon="2.34001">
        <ele>84.5</ele>
        <time>2015-07-06T18:24:54.197Z</time>
      </trkpt>
      <trkpt lat="48.8564" lon="2.33995">
        <ele>84.7</ele>
        <time>2015-07-06T18:24:55.269Z</time>
      </trkpt>
      <trkpt lat="48.85643" lon="2.33989">
        <ele>84.4</ele>
        <time>2015-07-06T18:24:56.130Z</time>
      </trkpt>
      <trkpt lat="48.85645" lon="2.33983">
        <ele>84.3</ele>
        <time>2015-07-06T18:24:57.171Z</time>
      </trkpt>
      <trkpt lat="48.85647" lon="2.33976">
        <ele>84.3</ele>
        <time>2015-07-06T18:24:58.170Z</time>
      </trkpt>
      <trkpt lat="48.85649" lon="2.33969">
        <ele>84.4</ele>
        <time>2015-07-06T18:24:59.172Z</time>
      </trkpt>
      <trkpt lat="48.85655" lon="2.33962">
        <ele>83.7</ele>
        <time>2015-07-06T18:25:00.188Z</time>
      </trkpt>
      <trkpt lat="48.85658" lon="2.33956">
        <ele>83.8</ele>
        <time>2015-07-06T18:25:01.189Z</time>
      </trkpt>
      <trkpt lat="48.85661" lon="2.3395">
        <ele>83.8</ele>
        <time>2015-07-06T18:25:02.205Z</time>
      </trkpt>
      <trkpt lat="48.85665" lon="2.33945">
        <ele>83.9</ele>
        <time>2015-07-06T18:25:03.124Z</time>
      </trkpt>
      <trkpt lat="48.85668" lon="2.33939">
        <ele>83.9</ele>
        <time>2015-07-06T18:25:04.143Z</time>
      </trkpt>
      <trkpt lat="48.85671" lon="2.33933">
        <ele>84</ele>
        <time>2015-07-06T18:25:05.392Z</time>
      </trkpt>
      <trkpt lat="48.85675" lon="2.33927">
        <ele>84</ele>
        <time>2015-07-06T18:25:06.177Z</time>
      </trkpt>
      <trkpt lat="48.85678" lon="2.3392">
        <ele>83.9</ele>
        <time>2015-07-06T18:25:07.185Z</time>
      </trkpt>
      <trkpt lat="48.85682" lon="2.33914">
        <ele>84</ele>
        <time>2015-07-06T18:25:08.123Z</time>
      </trkpt>
      <trkpt lat="48.85686" lon="2.33908">
        <ele>84</ele>
        <time>2015-07-06T18:25:09.150Z</time>
      </trkpt>
      <trkpt lat="48.85689" lon="2.33902">
        <ele>84</ele>
        <time>2015-07-06T18:25:10.223Z</time>
      </trkpt>
      <trkpt lat="48.85692" lon="2.33896">
        <ele>84</ele>
        <time>2015-07-06T18:25:11.167Z</time>
      </trkpt>
      <trkpt lat="48.85696" lon="2.33889">
        <ele>84</ele>
        <time>2015-07-06T18:25:12.149Z</time>
      </trkpt>
      <trkpt lat="48.85699" lon="2.33883">
        <ele>83.9</ele>
        <time>2015-07-06T18:25:13.168Z</time>
      </trkpt>
      <trkpt lat="48.85702" lon="2.33876">
        <ele>83.8</ele>
        <time>2015-07-06T18:25:14.178Z</time>
      </trkpt>
      <trkpt lat="48.85705" lon="2.3387">
        <ele>83.7</ele>
        <time>2015-07-06T18:25:15.178Z</time>
      </trkpt>
      <trkpt lat="48.85709" lon="2.33863">
        <ele>83.1</ele>
        <time>2015-07-06T18:25:16.195Z</time>
      </trkpt>
      <trkpt lat="48.85713" lon="2.33857">
        <ele>82.8</ele>
        <time>2015-07-06T18:25:17.239Z</time>
      </trkpt>
      <trkpt lat="48.85717" lon="2.33851">
        <ele>82.6</ele>
        <time>2015-07-06T18:25:18.110Z</time>
      </trkpt>
      <trkpt lat="48.8572" lon="2.33844">
        <ele>82.5</ele>
        <time>2015-07-06T18:25:19.180Z</time>
      </trkpt>
      <trkpt lat="48.85722" lon="2.33835">
        <ele>82.5</ele>
        <time>2015-07-06T18:25:20.186Z</time>
      </trkpt>
      <trkpt lat="48.85726" lon="2.33829">
        <ele>82.2</ele>
        <time>2015-07-06T18:25:21.188Z</time>
      </trkpt>
      <trkpt lat="48.85732" lon="2.33823">
        <ele>82.3</ele>
        <time>2015-07-06T18:25:22.198Z</time>
      </trkpt>
      <trkpt lat="48.85735" lon="2.33817">
        <ele>82.2</ele>
        <time>2015-07-06T18:25:23.215Z</time>
      </trkpt>
      <trkpt lat="48.85739" lon="2.33812">
        <ele>82.4</ele>
        <time>2015-07-06T18:25:24.144Z</time>
      </trkpt>
      <trkpt lat="48.85742" lon="2.33806">
        <ele>82.6</ele>
        <time>2015-07-06T18:25:25.278Z</time>
      </trkpt>
      <trkpt lat="48.85746" lon="2.338">
        <ele>82.7</ele>
        <time>2015-07-06T18:25:26.139Z</time>
      </trkpt>
      <trkpt lat="48.85748" lon="2.33793">
        <ele>82.8</ele>
        <time>2015-07-06T18:25:27.148Z</time>
      </trkpt>
      <trkpt lat="48.8575" lon="2.33786">
        <ele>82.7</ele>
        <time>2015-07-06T18:25:28.162Z</time>
      </trkpt>
      <trkpt lat="48.85752" lon="2.33779">
        <ele>82.6</ele>
        <time>2015-07-06T18:25:29.170Z</time>
      </trkpt>
      <trkpt lat="48.85754" lon="2.33772">
        <ele>82.6</ele>
        <time>2015-07-06T18:25:30.192Z</time>
      </trkpt>
      <trkpt lat="48.85755" lon="2.33765">
        <ele>82.6</ele>
        <time>2015-07-06T18:25:31.228Z</time>
      </trkpt>
      <trkpt lat="48.85757" lon="2.33758">
        <ele>82.8</ele>
        <time>2015-07-06T18:25:32.140Z</time>
      </trkpt>
      <trkpt lat="48.85759" lon="2.33752">
        <ele>83.2</ele>
        <time>2015-07-06T18:25:33.149Z</time>
      </trkpt>
      <trkpt lat="48.85762" lon="2.3374">
        <ele>83.5</ele>
        <time>2015-07-06T18:25:35.131Z</time>
      </trkpt>
      <trkpt lat="48.85763" lon="2.33734">
        <ele>83.7</ele>
        <time>2015-07-06T18:25:36.187Z</time>
      </trkpt>
      <trkpt lat="48.85765" lon="2.33722">
        <ele>83.9</ele>
        <time>2015-07-06T18:25:38.174Z</time>
      </trkpt>
      <trkpt lat="48.85767" lon="2.33716">
        <ele>84.2</ele>
        <time>2015-07-06T18:25:39.201Z</time>
      </trkpt>
      <trkpt lat="48.8577" lon="2.33705">
        <ele>84.4</ele>
        <time>2015-07-06T18:25:41.152Z</time>
      </trkpt>
      <trkpt lat="48.85771" lon="2.33699">
        <ele>84.3</ele>
        <time>2015-07-06T18:25:42.224Z</time>
      </trkpt>
      <trkpt lat="48.85773" lon="2.33693">
        <ele>84</ele>
        <time>2015-07-06T18:25:43.224Z</time>
      </trkpt>
      <trkpt lat="48.85775" lon="2.33686">
        <ele>84.1</ele>
        <time>2015-07-06T18:25:44.195Z</time>
      </trkpt>
      <trkpt lat="48.85777" lon="2.3368">
        <ele>83.9</ele>
        <time>2015-07-06T18:25:45.208Z</time>
      </trkpt>
      <trkpt lat="48.85779" lon="2.33674">
        <ele>83.6</ele>
        <time>2015-07-06T18:25:46.183Z</time>
      </trkpt>
      <trkpt lat="48.85781" lon="2.33667">
        <ele>83.6</ele>
        <time>2015-07-06T18:25:47.251Z</time>
      </trkpt>
      <trkpt lat="48.85782" lon="2.33661">
        <ele>83.3</ele>
        <time>2015-07-06T18:25:48.224Z</time>
      </trkpt>
      <trkpt lat="48.85783" lon="2.33654">
        <ele>83.2</ele>
        <time>2015-07-06T18:25:49.225Z</time>
      </trkpt>
      <trkpt lat="48.85785" lon="2.33647">
        <ele>83.2</ele>
        <time>2015-07-06T18:25:50.230Z</time>
      </trkpt>
      <trkpt lat="48.85787" lon="2.33635">
        <ele>83.1</ele>
        <time>2015-07-06T18:25:52.194Z</time>
      </trkpt>
      <trkpt lat="48.85787" lon="2.33629">
        <ele>82.9</ele>
        <time>2015-07-06T18:25:53.272Z</time>
      </trkpt>
      <trkpt lat="48.85788" lon="2.33617">
        <ele>82.6</ele>
        <time>2015-07-06T18:25:55.203Z</time>
      </trkpt>
      <trkpt lat="48.85788" lon="2.33612">
        <ele>82.4</ele>
        <time>2015-07-06T18:25:56.274Z</time>
      </trkpt>
      <trkpt lat="48.85788" lon="2.33602">
        <ele>82.1</ele>
        <time>2015-07-06T18:25:58.177Z</time>
      </trkpt>
      <trkpt lat="48.85788" lon="2.33597">
        <ele>81.9</ele>
        <time>2015-07-06T18:25:59.180Z</time>
      </trkpt>
      <trkpt lat="48.85787" lon="2.33587">
        <ele>81.7</ele>
        <time>2015-07-06T18:26:01.268Z</time>
      </trkpt>
      <trkpt lat="48.85787" lon="2.33582">
        <ele>81.6</ele>
        <time>2015-07-06T18:26:02.159Z</time>
      </trkpt>
      <trkpt lat="48.85786" lon="2.33571">
        <ele>82</ele>
        <time>2015-07-06T18:26:04.147Z</time>
      </trkpt>
      <trkpt lat="48.85786" lon="2.33565">
        <ele>82.2</ele>
        <time>2015-07-06T18:26:05.140Z</time>
      </trkpt>
      <trkpt lat="48.85785" lon="2.33553">
        <ele>82.4</ele>
        <time>2015-07-06T18:26:07.218Z</time>
      </trkpt>
      <trkpt lat="48.85784" lon="2.33547">
        <ele>82.4</ele>
        <time>2015-07-06T18:26:08.162Z</time>
      </trkpt>
      <trkpt lat="48.85784" lon="2.33535">
        <ele>82.4</ele>
        <time>2015-07-06T18:26:10.189Z</time>
      </trkpt>
      <trkpt lat="48.85783" lon="2.33528">
        <ele>82.5</ele>
        <time>2015-07-06T18:26:11.198Z</time>
      </trkpt>
      <trkpt lat="48.85782" lon="2.33521">
        <ele>82.7</ele>
        <time>2015-07-06T18:26:12.226Z</time>
      </trkpt>
      <trkpt lat="48.85782" lon="2.33514">
        <ele>82.9</ele>
        <time>2015-07-06T18:26:13.198Z</time>
      </trkpt>
      <trkpt lat="48.85781" lon="2.33502">
        <ele>83.4</ele>
        <time>2015-07-06T18:26:15.208Z</time>
      </trkpt>
      <trkpt lat="48.85782" lon="2.33495">
        <ele>83.6</ele>
        <time>2015-07-06T18:26:16.217Z</time>
      </trkpt>
      <trkpt lat="48.85782" lon="2.33489">
        <ele>83.7</ele>
        <time>2015-07-06T18:26:17.138Z</time>
      </trkpt>
      <trkpt lat="48.85783" lon="2.33482">
        <ele>83.9</ele>
        <time>2015-07-06T18:26:18.143Z</time>
      </trkpt>
      <trkpt lat="48.85786" lon="2.33469">
        <ele>83.9</ele>
        <time>2015-07-06T18:26:20.132Z</time>
      </trkpt>
      <trkpt lat="48.85786" lon="2.33463">
        <ele>83.9</ele>
        <time>2015-07-06T18:26:21.188Z</time>
      </trkpt>
      <trkpt lat="48.85788" lon="2.33456">
        <ele>83.8</ele>
        <time>2015-07-06T18:26:22.199Z</time>
      </trkpt>
      <trkpt lat="48.85789" lon="2.33449">
        <ele>84</ele>
        <time>2015-07-06T18:26:23.174Z</time>
      </trkpt>
      <trkpt lat="48.85792" lon="2.33437">
        <ele>83.9</ele>
        <time>2015-07-06T18:26:25.183Z</time>
      </trkpt>
      <trkpt lat="48.85793" lon="2.3343">
        <ele>83.6</ele>
        <time>2015-07-06T18:26:26.226Z</time>
      </trkpt>
      <trkpt lat="48.85796" lon="2.33418">
        <ele>83.5</ele>
        <time>2015-07-06T18:26:28.243Z</time>
      </trkpt>
      <trkpt lat="48.85798" lon="2.33412">
        <ele>83.5</ele>
        <time>2015-07-06T18:26:29.168Z</time>
      </trkpt>
      <trkpt lat="48.858" lon="2.33405">
        <ele>83.5</ele>
        <time>2015-07-06T18:26:30.164Z</time>
      </trkpt>
      <trkpt lat="48.85802" lon="2.33398">
        <ele>83.7</ele>
        <time>2015-07-06T18:26:31.196Z</time>
      </trkpt>
      <trkpt lat="48.85804" lon="2.33392">
        <ele>83.8</ele>
        <time>2015-07-06T18:26:32.232Z</time>
      </trkpt>
      <trkpt lat="48.85806" lon="2.33385">
        <ele>83.9</ele>
        <time>2015-07-06T18:26:33.238Z</time>
      </trkpt>
      <trkpt lat="48.85808" lon="2.33379">
        <ele>84</ele>
        <time>2015-07-06T18:26:34.156Z</time>
      </trkpt>
      <trkpt lat="48.8581" lon="2.33372">
        <ele>83.9</ele>
        <time>2015-07-06T18:26:35.191Z</time>
      </trkpt>
      <trkpt lat="48.85812" lon="2.33365">
        <ele>84</ele>
        <time>2015-07-06T18:26:36.205Z</time>
      </trkpt>
      <trkpt lat="48.85815" lon="2.33358">
        <ele>84.1</ele>
        <time>2015-07-06T18:26:37.214Z</time>
      </trkpt>
      <trkpt lat="48.85816" lon="2.33351">
        <ele>84</ele>
        <time>2015-07-06T18:26:38.242Z</time>
      </trkpt>
      <trkpt lat="48.85818" lon="2.33344">
        <ele>84</ele>
        <time>2015-07-06T18:26:39.183Z</time>
      </trkpt>
      <trkpt lat="48.8582" lon="2.33337">
        <ele>83.9</ele>
        <time>2015-07-06T18:26:39.021Z</time>
      </trkpt>
      <trkpt lat="48.85822" lon="2.33331">
        <ele>84</ele>
        <time>2015-07-06T18:26:40.145Z</time>
      </trkpt>
      <trkpt lat="48.85824" lon="2.33323">
        <ele>83.9</ele>
        <time>2015-07-06T18:26:41.064Z</time>
      </trkpt>
      <trkpt lat="48.85827" lon="2.33316">
        <ele>83.5</ele>
        <time>2015-07-06T18:26:42.072Z</time>
      </trkpt>
      <trkpt lat="48.85829" lon="2.3331">
        <ele>83.7</ele>
        <time>2015-07-06T18:26:42.985Z</time>
      </trkpt>
      <trkpt lat="48.85831" lon="2.33303">
        <ele>83.7</ele>
        <time>2015-07-06T18:26:44.046Z</time>
      </trkpt>
      <trkpt lat="48.85834" lon="2.33296">
        <ele>83.5</ele>
        <time>2015-07-06T18:26:45.068Z</time>
      </trkpt>
      <trkpt lat="48.85836" lon="2.3329">
        <ele>83.5</ele>
        <time>2015-07-06T18:26:46.079Z</time>
      </trkpt>
      <trkpt lat="48.85839" lon="2.33284">
        <ele>83.2</ele>
        <time>2015-07-06T18:26:46.985Z</time>
      </trkpt>
      <trkpt lat="48.85841" lon="2.33278">
        <ele>83.2</ele>
        <time>2015-07-06T18:26:48.024Z</time>
      </trkpt>
      <trkpt lat="48.85844" lon="2.33272">
        <ele>83</ele>
        <time>2015-07-06T18:26:49.019Z</time>
      </trkpt>
      <trkpt lat="48.85847" lon="2.33267">
        <ele>83</ele>
        <time>2015-07-06T18:26:50.052Z</time>
      </trkpt>
      <trkpt lat="48.85849" lon="2.33261">
        <ele>83.1</ele>
        <time>2015-07-06T18:26:51.049Z</time>
      </trkpt>
      <trkpt lat="48.85852" lon="2.33255">
        <ele>82.8</ele>
        <time>2015-07-06T18:26:52.055Z</time>
      </trkpt>
      <trkpt lat="48.85855" lon="2.33242">
        <ele>82.9</ele>
        <time>2015-07-06T18:26:54.022Z</time>
      </trkpt>
      <trkpt lat="48.85857" lon="2.33236">
        <ele>82.9</ele>
        <time>2015-07-06T18:26:55.025Z</time>
      </trkpt>
      <trkpt lat="48.85858" lon="2.3323">
        <ele>83</ele>
        <time>2015-07-06T18:26:55.980Z</time>
      </trkpt>
      <trkpt lat="48.8586" lon="2.33223">
        <ele>83.2</ele>
        <time>2015-07-06T18:26:57.005Z</time>
      </trkpt>
      <trkpt lat="48.85862" lon="2.33217">
        <ele>83.2</ele>
        <time>2015-07-06T18:26:58.016Z</time>
      </trkpt>
      <trkpt lat="48.85863" lon="2.3321">
        <ele>83.1</ele>
        <time>2015-07-06T18:26:59.035Z</time>
      </trkpt>
      <trkpt lat="48.85865" lon="2.33204">
        <ele>83.1</ele>
        <time>2015-07-06T18:27:00.080Z</time>
      </trkpt>
      <trkpt lat="48.85867" lon="2.33198">
        <ele>83.2</ele>
        <time>2015-07-06T18:27:00.987Z</time>
      </trkpt>
      <trkpt lat="48.85869" lon="2.33191">
        <ele>83.2</ele>
        <time>2015-07-06T18:27:02.001Z</time>
      </trkpt>
      <trkpt lat="48.85871" lon="2.33186">
        <ele>83.1</ele>
        <time>2015-07-06T18:27:03.006Z</time>
      </trkpt>
      <trkpt lat="48.85874" lon="2.3318">
        <ele>83.2</ele>
        <time>2015-07-06T18:27:04.027Z</time>
      </trkpt>
      <trkpt lat="48.85876" lon="2.33174">
        <ele>83.2</ele>
        <time>2015-07-06T18:27:05.039Z</time>
      </trkpt>
      <trkpt lat="48.85878" lon="2.33167">
        <ele>83.3</ele>
        <time>2015-07-06T18:27:06.049Z</time>
      </trkpt>
      <trkpt lat="48.8588" lon="2.3316">
        <ele>83.3</ele>
        <time>2015-07-06T18:27:06.971Z</time>
      </trkpt>
      <trkpt lat="48.85881" lon="2.33152">
        <ele>83.2</ele>
        <time>2015-07-06T18:27:07.969Z</time>
      </trkpt>
      <trkpt lat="48.85883" lon="2.33145">
        <ele>83.4</ele>
        <time>2015-07-06T18:27:08.976Z</time>
      </trkpt>
      <trkpt lat="48.85885" lon="2.33137">
        <ele>83.5</ele>
        <time>2015-07-06T18:27:10.024Z</time>
      </trkpt>
      <trkpt lat="48.85887" lon="2.3313">
        <ele>83.6</ele>
        <time>2015-07-06T18:27:10.988Z</time>
      </trkpt>
      <trkpt lat="48.85889" lon="2.33123">
        <ele>83.8</ele>
        <time>2015-07-06T18:27:12.014Z</time>
      </trkpt>
      <trkpt lat="48.85891" lon="2.33115">
        <ele>83.9</ele>
        <time>2015-07-06T18:27:13.032Z</time>
      </trkpt>
      <trkpt lat="48.85893" lon="2.33108">
        <ele>83.9</ele>
        <time>2015-07-06T18:27:13.982Z</time>
      </trkpt>
      <trkpt lat="48.85896" lon="2.331">
        <ele>83.8</ele>
        <time>2015-07-06T18:27:14.976Z</time>
      </trkpt>
      <trkpt lat="48.85898" lon="2.33093">
        <ele>83.9</ele>
        <time>2015-07-06T18:27:15.992Z</time>
      </trkpt>
      <trkpt lat="48.859" lon="2.33085">
        <ele>83.9</ele>
        <time>2015-07-06T18:27:17.016Z</time>
      </trkpt>
      <trkpt lat="48.85902" lon="2.33078">
        <ele>83.9</ele>
        <time>2015-07-06T18:27:18.042Z</time>
      </trkpt>
      <trkpt lat="48.85904" lon="2.3307">
        <ele>83.9</ele>
        <time>2015-07-06T18:27:18.974Z</time>
      </trkpt>
      <trkpt lat="48.85906" lon="2.33063">
        <ele>83.8</ele>
        <time>2015-07-06T18:27:19.972Z</time>
      </trkpt>
      <trkpt lat="48.85908" lon="2.33055">
        <ele>83.9</ele>
        <time>2015-07-06T18:27:20.974Z</time>
      </trkpt>
      <trkpt lat="48.85909" lon="2.33048">
        <ele>83.9</ele>
        <time>2015-07-06T18:27:21.984Z</time>
      </trkpt>
      <trkpt lat="48.85911" lon="2.33041">
        <ele>83.5</ele>
        <time>2015-07-06T18:27:22.990Z</time>
      </trkpt>
      <trkpt lat="48.85913" lon="2.33034">
        <ele>83.6</ele>
        <time>2015-07-06T18:27:24.017Z</time>
      </trkpt>
      <trkpt lat="48.85915" lon="2.33028">
        <ele>83.6</ele>
        <time>2015-07-06T18:27:25.035Z</time>
      </trkpt>
      <trkpt lat="48.85917" lon="2.33021">
        <ele>83.7</ele>
        <time>2015-07-06T18:27:26.040Z</time>
      </trkpt>
      <trkpt lat="48.85919" lon="2.33014">
        <ele>83.9</ele>
        <time>2015-07-06T18:27:27.051Z</time>
      </trkpt>
      <trkpt lat="48.85921" lon="2.33007">
        <ele>84.1</ele>
        <time>2015-07-06T18:27:28.062Z</time>
      </trkpt>
      <trkpt lat="48.85923" lon="2.33">
        <ele>84.1</ele>
        <time>2015-07-06T18:27:29.061Z</time>
      </trkpt>
      <trkpt lat="48.85925" lon="2.32994">
        <ele>84.1</ele>
        <time>2015-07-06T18:27:30.085Z</time>
      </trkpt>
      <trkpt lat="48.85927" lon="2.32987">
        <ele>84.2</ele>
        <time>2015-07-06T18:27:30.985Z</time>
      </trkpt>
      <trkpt lat="48.8593" lon="2.32975">
        <ele>84.1</ele>
        <time>2015-07-06T18:27:33.002Z</time>
      </trkpt>
      <trkpt lat="48.85931" lon="2.32968">
        <ele>84</ele>
        <time>2015-07-06T18:27:34.015Z</time>
      </trkpt>
      <trkpt lat="48.85933" lon="2.32963">
        <ele>84</ele>
        <time>2015-07-06T18:27:35.054Z</time>
      </trkpt>
      <trkpt lat="48.85937" lon="2.32958">
        <ele>84</ele>
        <time>2015-07-06T18:27:36.063Z</time>
      </trkpt>
      <trkpt lat="48.85942" lon="2.32947">
        <ele>84.1</ele>
        <time>2015-07-06T18:27:39.018Z</time>
      </trkpt>
      <trkpt lat="48.85943" lon="2.32944">
        <ele>84.2</ele>
        <time>2015-07-06T18:27:40.049Z</time>
      </trkpt>
      <trkpt lat="48.85949" lon="2.32934">
        <ele>84.2</ele>
        <time>2015-07-06T18:27:45.064Z</time>
      </trkpt>
      <trkpt lat="48.8595" lon="2.32934">
        <ele>84.3</ele>
        <time>2015-07-06T18:27:46.004Z</time>
      </trkpt>
      <trkpt lat="48.85956" lon="2.3293">
        <ele>84.8</ele>
        <time>2015-07-06T18:27:56.072Z</time>
      </trkpt>
      <trkpt lat="48.85958" lon="2.32927">
        <ele>84.9</ele>
        <time>2015-07-06T18:27:57.041Z</time>
      </trkpt>
      <trkpt lat="48.85963" lon="2.32918">
        <ele>84.9</ele>
        <time>2015-07-06T18:28:01.970Z</time>
      </trkpt>
      <trkpt lat="48.85964" lon="2.32916">
        <ele>85</ele>
        <time>2015-07-06T18:28:02.990Z</time>
      </trkpt>
      <trkpt lat="48.85968" lon="2.32915">
        <ele>84.3</ele>
        <time>2015-07-06T18:28:20.045Z</time>
      </trkpt>
      <trkpt lat="48.85968" lon="2.32915">
        <ele>84.3</ele>
        <time>2015-07-06T18:28:21.045Z</time>
      </trkpt>
      <trkpt lat="48.85968" lon="2.32915">
        <ele>84.4</ele>
        <time>2015-07-06T18:28:22.082Z</time>
      </trkpt>
      <trkpt lat="48.85968" lon="2.32915">
        <ele>84.3</ele>
        <time>2015-07-06T18:28:23.001Z</time>
      </trkpt>
      <trkpt lat="48.85968" lon="2.32915">
        <ele>84.3</ele>
        <time>2015-07-06T18:28:24.016Z</time>
      </trkpt>
      <trkpt lat="48.85969" lon="2.32916">
        <ele>84.5</ele>
        <time>2015-07-06T18:28:34.993Z</time>
      </trkpt>
      <trkpt lat="48.8597" lon="2.32916">
        <ele>84.4</ele>
        <time>2015-07-06T18:28:36.016Z</time>
      </trkpt>
      <trkpt lat="48.85971" lon="2.32905">
        <ele>83.7</ele>
        <time>2015-07-06T18:28:40.989Z</time>
      </trkpt>
      <trkpt lat="48.85972" lon="2.32901">
        <ele>83.6</ele>
        <time>2015-07-06T18:28:42.036Z</time>
      </trkpt>
      <trkpt lat="48.85974" lon="2.32892">
        <ele>83.2</ele>
        <time>2015-07-06T18:28:44.050Z</time>
      </trkpt>
      <trkpt lat="48.85975" lon="2.32888">
        <ele>83.2</ele>
        <time>2015-07-06T18:28:45.053Z</time>
      </trkpt>
      <trkpt lat="48.85978" lon="2.3288">
        <ele>83.3</ele>
        <time>2015-07-06T18:28:46.989Z</time>
      </trkpt>
      <trkpt lat="48.85979" lon="2.32875">
        <ele>83.3</ele>
        <time>2015-07-06T18:28:48.077Z</time>
      </trkpt>
      <trkpt lat="48.85982" lon="2.32865">
        <ele>83.4</ele>
        <time>2015-07-06T18:28:49.993Z</time>
      </trkpt>
      <trkpt lat="48.85983" lon="2.3286">
        <ele>83.4</ele>
        <time>2015-07-06T18:28:51.002Z</time>
      </trkpt>
      <trkpt lat="48.85986" lon="2.3285">
        <ele>83.5</ele>
        <time>2015-07-06T18:28:53.013Z</time>
      </trkpt>
      <trkpt lat="48.85987" lon="2.32846">
        <ele>83.5</ele>
        <time>2015-07-06T18:28:54.014Z</time>
      </trkpt>
      <trkpt lat="48.85991" lon="2.32837">
        <ele>83.4</ele>
        <time>2015-07-06T18:28:56.035Z</time>
      </trkpt>
      <trkpt lat="48.85993" lon="2.32832">
        <ele>83.5</ele>
        <time>2015-07-06T18:28:57.049Z</time>
      </trkpt>
      <trkpt lat="48.85996" lon="2.32823">
        <ele>83.3</ele>
        <time>2015-07-06T18:28:58.977Z</time>
      </trkpt>
      <trkpt lat="48.85997" lon="2.32819">
        <ele>83.5</ele>
        <time>2015-07-06T18:29:00.063Z</time>
      </trkpt>
      <trkpt lat="48.86001" lon="2.3281">
        <ele>83.5</ele>
        <time>2015-07-06T18:29:03.015Z</time>
      </trkpt>
      <trkpt lat="48.86001" lon="2.32806">
        <ele>83.6</ele>
        <time>2015-07-06T18:29:04.031Z</time>
      </trkpt>
      <trkpt lat="48.86003" lon="2.32793">
        <ele>84.1</ele>
        <time>2015-07-06T18:29:09.021Z</time>
      </trkpt>
      <trkpt lat="48.86005" lon="2.32791">
        <ele>84.1</ele>
        <time>2015-07-06T18:29:10.048Z</time>
      </trkpt>
      <trkpt lat="48.8601" lon="2.32782">
        <ele>82.8</ele>
        <time>2015-07-06T18:29:13.016Z</time>
      </trkpt>
      <trkpt lat="48.86012" lon="2.32777">
        <ele>82.6</ele>
        <time>2015-07-06T18:29:14.031Z</time>
      </trkpt>
      <trkpt lat="48.86017" lon="2.32767">
        <ele>82.4</ele>
        <time>2015-07-06T18:29:16.065Z</time>
      </trkpt>
      <trkpt lat="48.8602" lon="2.32761">
        <ele>82</ele>
        <time>2015-07-06T18:29:17.004Z</time>
      </trkpt>
      <trkpt lat="48.86023" lon="2.32755">
        <ele>81.8</ele>
        <time>2015-07-06T18:29:18.368Z</time>
      </trkpt>
      <trkpt lat="48.86027" lon="2.32749">
        <ele>81.6</ele>
        <time>2015-07-06T18:29:19.012Z</time>
      </trkpt>
      <trkpt lat="48.86031" lon="2.32742">
        <ele>81.4</ele>
        <time>2015-07-06T18:29:20.035Z</time>
      </trkpt>
      <trkpt lat="48.86034" lon="2.32734">
        <ele>80.8</ele>
        <time>2015-07-06T18:29:21.029Z</time>
      </trkpt>
      <trkpt lat="48.86038" lon="2.32725">
        <ele>80.6</ele>
        <time>2015-07-06T18:29:22.037Z</time>
      </trkpt>
      <trkpt lat="48.86042" lon="2.32717">
        <ele>80.4</ele>
        <time>2015-07-06T18:29:23.053Z</time>
      </trkpt>
      <trkpt lat="48.86045" lon="2.32709">
        <ele>80.3</ele>
        <time>2015-07-06T18:29:24.073Z</time>
      </trkpt>
      <trkpt lat="48.86049" lon="2.327">
        <ele>80.1</ele>
        <time>2015-07-06T18:29:24.969Z</time>
      </trkpt>
      <trkpt lat="48.86052" lon="2.32691">
        <ele>80</ele>
        <time>2015-07-06T18:29:25.972Z</time>
      </trkpt>
      <trkpt lat="48.86055" lon="2.32683">
        <ele>79.8</ele>
        <time>2015-07-06T18:29:26.972Z</time>
      </trkpt>
      <trkpt lat="48.86058" lon="2.32674">
        <ele>79.6</ele>
        <time>2015-07-06T18:29:27.981Z</time>
      </trkpt>
      <trkpt lat="48.86061" lon="2.32666">
        <ele>79.2</ele>
        <time>2015-07-06T18:29:28.995Z</time>
      </trkpt>
      <trkpt lat="48.86064" lon="2.32657">
        <ele>78.8</ele>
        <time>2015-07-06T18:29:30.034Z</time>
      </trkpt>
      <trkpt lat="48.86066" lon="2.32648">
        <ele>78.5</ele>
        <time>2015-07-06T18:29:31.020Z</time>
      </trkpt>
      <trkpt lat="48.86069" lon="2.32639">
        <ele>78.4</ele>
        <time>2015-07-06T18:29:32.035Z</time>
      </trkpt>
      <trkpt lat="48.86071" lon="2.32631">
        <ele>78.2</ele>
        <time>2015-07-06T18:29:33.044Z</time>
      </trkpt>
      <trkpt lat="48.86072" lon="2.32623">
        <ele>78</ele>
        <time>2015-07-06T18:29:33.968Z</time>
      </trkpt>
      <trkpt lat="48.86074" lon="2.32615">
        <ele>78.1</ele>
        <time>2015-07-06T18:29:34.973Z</time>
      </trkpt>
      <trkpt lat="48.86076" lon="2.32607">
        <ele>78.1</ele>
        <time>2015-07-06T18:29:36.017Z</time>
      </trkpt>
      <trkpt lat="48.86078" lon="2.326">
        <ele>78.1</ele>
        <time>2015-07-06T18:29:37.008Z</time>
      </trkpt>
      <trkpt lat="48.8608" lon="2.32588">
        <ele>78.3</ele>
        <time>2015-07-06T18:29:39.019Z</time>
      </trkpt>
      <trkpt lat="48.86083" lon="2.32582">
        <ele>78.3</ele>
        <time>2015-07-06T18:29:40.032Z</time>
      </trkpt>
      <trkpt lat="48.86088" lon="2.32573">
        <ele>77.9</ele>
        <time>2015-07-06T18:29:42.068Z</time>
      </trkpt>
      <trkpt lat="48.86093" lon="2.32567">
        <ele>77.8</ele>
        <time>2015-07-06T18:29:43Z</time>
      </trkpt>
      <trkpt lat="48.86096" lon="2.32561">
        <ele>77.6</ele>
        <time>2015-07-06T18:29:43.988Z</time>
      </trkpt>
      <trkpt lat="48.86098" lon="2.32552">
        <ele>77.5</ele>
        <time>2015-07-06T18:29:44.981Z</time>
      </trkpt>
      <trkpt lat="48.861" lon="2.32542">
        <ele>77.4</ele>
        <time>2015-07-06T18:29:45.993Z</time>
      </trkpt>
      <trkpt lat="48.86102" lon="2.32533">
        <ele>77</ele>
        <time>2015-07-06T18:29:47.009Z</time>
      </trkpt>
      <trkpt lat="48.86103" lon="2.32525">
        <ele>76.4</ele>
        <time>2015-07-06T18:29:48.040Z</time>
      </trkpt>
      <trkpt lat="48.86105" lon="2.32517">
        <ele>76.2</ele>
        <time>2015-07-06T18:29:49.043Z</time>
      </trkpt>
      <trkpt lat="48.86107" lon="2.32509">
        <ele>75.9</ele>
        <time>2015-07-06T18:29:49.961Z</time>
      </trkpt>
      <trkpt lat="48.86109" lon="2.32501">
        <ele>75.6</ele>
        <time>2015-07-06T18:29:50.971Z</time>
      </trkpt>
      <trkpt lat="48.86111" lon="2.32493">
        <ele>75.4</ele>
        <time>2015-07-06T18:29:51.998Z</time>
      </trkpt>
      <trkpt lat="48.86113" lon="2.32485">
        <ele>75.5</ele>
        <time>2015-07-06T18:29:53.040Z</time>
      </trkpt>
      <trkpt lat="48.86115" lon="2.32477">
        <ele>75.7</ele>
        <time>2015-07-06T18:29:54.058Z</time>
      </trkpt>
      <trkpt lat="48.86118" lon="2.32469">
        <ele>75.7</ele>
        <time>2015-07-06T18:29:54.942Z</time>
      </trkpt>
      <trkpt lat="48.86119" lon="2.32461">
        <ele>75.6</ele>
        <time>2015-07-06T18:29:56.047Z</time>
      </trkpt>
      <trkpt lat="48.86121" lon="2.32452">
        <ele>75.6</ele>
        <time>2015-07-06T18:29:57.006Z</time>
      </trkpt>
      <trkpt lat="48.86123" lon="2.32445">
        <ele>75.6</ele>
        <time>2015-07-06T18:29:57.986Z</time>
      </trkpt>
      <trkpt lat="48.86125" lon="2.32437">
        <ele>76.1</ele>
        <time>2015-07-06T18:29:58.993Z</time>
      </trkpt>
      <trkpt lat="48.86127" lon="2.3243">
        <ele>76.1</ele>
        <time>2015-07-06T18:30:00.057Z</time>
      </trkpt>
      <trkpt lat="48.86129" lon="2.32423">
        <ele>76.1</ele>
        <time>2015-07-06T18:30:00.982Z</time>
      </trkpt>
      <trkpt lat="48.86131" lon="2.32415">
        <ele>76</ele>
        <time>2015-07-06T18:30:01.969Z</time>
      </trkpt>
      <trkpt lat="48.86133" lon="2.32407">
        <ele>75.8</ele>
        <time>2015-07-06T18:30:02.980Z</time>
      </trkpt>
      <trkpt lat="48.86136" lon="2.32398">
        <ele>75.8</ele>
        <time>2015-07-06T18:30:03.989Z</time>
      </trkpt>
      <trkpt lat="48.86138" lon="2.3239">
        <ele>75.7</ele>
        <time>2015-07-06T18:30:04.995Z</time>
      </trkpt>
      <trkpt lat="48.8614" lon="2.32382">
        <ele>75.8</ele>
        <time>2015-07-06T18:30:06.037Z</time>
      </trkpt>
      <trkpt lat="48.86142" lon="2.32375">
        <ele>75.8</ele>
        <time>2015-07-06T18:30:07.062Z</time>
      </trkpt>
      <trkpt lat="48.86143" lon="2.32368">
        <ele>75.8</ele>
        <time>2015-07-06T18:30:07.976Z</time>
      </trkpt>
      <trkpt lat="48.86145" lon="2.3236">
        <ele>75.7</ele>
        <time>2015-07-06T18:30:08.980Z</time>
      </trkpt>
      <trkpt lat="48.86146" lon="2.32352">
        <ele>75.8</ele>
        <time>2015-07-06T18:30:10.009Z</time>
      </trkpt>
      <trkpt lat="48.86148" lon="2.32345">
        <ele>75.9</ele>
        <time>2015-07-06T18:30:11.021Z</time>
      </trkpt>
      <trkpt lat="48.86151" lon="2.32338">
        <ele>76</ele>
        <time>2015-07-06T18:30:12.048Z</time>
      </trkpt>
      <trkpt lat="48.86154" lon="2.32332">
        <ele>76.1</ele>
        <time>2015-07-06T18:30:13.061Z</time>
      </trkpt>
      <trkpt lat="48.86156" lon="2.32325">
        <ele>76.1</ele>
        <time>2015-07-06T18:30:13.979Z</time>
      </trkpt>
      <trkpt lat="48.86158" lon="2.32318">
        <ele>76</ele>
        <time>2015-07-06T18:30:14.980Z</time>
      </trkpt>
      <trkpt lat="48.8616" lon="2.32312">
        <ele>76</ele>
        <time>2015-07-06T18:30:15.991Z</time>
      </trkpt>
      <trkpt lat="48.86163" lon="2.32305">
        <ele>75.9</ele>
        <time>2015-07-06T18:30:17.001Z</time>
      </trkpt>
      <trkpt lat="48.86165" lon="2.32297">
        <ele>76</ele>
        <time>2015-07-06T18:30:18.041Z</time>
      </trkpt>
      <trkpt lat="48.86167" lon="2.3229">
        <ele>75.9</ele>
        <time>2015-07-06T18:30:19.038Z</time>
      </trkpt>
      <trkpt lat="48.86169" lon="2.32282">
        <ele>76.2</ele>
        <time>2015-07-06T18:30:20.066Z</time>
      </trkpt>
      <trkpt lat="48.86171" lon="2.32275">
        <ele>76.1</ele>
        <time>2015-07-06T18:30:20.982Z</time>
      </trkpt>
      <trkpt lat="48.86173" lon="2.32268">
        <ele>76.1</ele>
        <time>2015-07-06T18:30:21.980Z</time>
      </trkpt>
      <trkpt lat="48.86175" lon="2.32261">
        <ele>76.3</ele>
        <time>2015-07-06T18:30:22.984Z</time>
      </trkpt>
      <trkpt lat="48.86178" lon="2.32254">
        <ele>76.3</ele>
        <time>2015-07-06T18:30:24.017Z</time>
      </trkpt>
      <trkpt lat="48.86181" lon="2.32246">
        <ele>76.4</ele>
        <time>2015-07-06T18:30:25.032Z</time>
      </trkpt>
      <trkpt lat="48.86184" lon="2.32239">
        <ele>76.5</ele>
        <time>2015-07-06T18:30:26.043Z</time>
      </trkpt>
      <trkpt lat="48.86187" lon="2.32231">
        <ele>76.9</ele>
        <time>2015-07-06T18:30:27.051Z</time>
      </trkpt>
      <trkpt lat="48.8619" lon="2.32223">
        <ele>76.8</ele>
        <time>2015-07-06T18:30:27.984Z</time>
      </trkpt>
      <trkpt lat="48.86192" lon="2.32215">
        <ele>76.7</ele>
        <time>2015-07-06T18:30:28.985Z</time>
      </trkpt>
      <trkpt lat="48.86195" lon="2.32207">
        <ele>76.9</ele>
        <time>2015-07-06T18:30:30.079Z</time>
      </trkpt>
      <trkpt lat="48.86197" lon="2.32199">
        <ele>76.8</ele>
        <time>2015-07-06T18:30:31.211Z</time>
      </trkpt>
      <trkpt lat="48.86199" lon="2.3219">
        <ele>76.9</ele>
        <time>2015-07-06T18:30:31.981Z</time>
      </trkpt>
      <trkpt lat="48.86202" lon="2.32182">
        <ele>77</ele>
        <time>2015-07-06T18:30:32.985Z</time>
      </trkpt>
      <trkpt lat="48.86204" lon="2.32173">
        <ele>77.2</ele>
        <time>2015-07-06T18:30:33.996Z</time>
      </trkpt>
      <trkpt lat="48.86206" lon="2.32165">
        <ele>77.2</ele>
        <time>2015-07-06T18:30:35.006Z</time>
      </trkpt>
      <trkpt lat="48.86209" lon="2.32157">
        <ele>77.2</ele>
        <time>2015-07-06T18:30:36.015Z</time>
      </trkpt>
      <trkpt lat="48.86211" lon="2.32149">
        <ele>77.1</ele>
        <time>2015-07-06T18:30:37.026Z</time>
      </trkpt>
      <trkpt lat="48.86214" lon="2.32141">
        <ele>77.2</ele>
        <time>2015-07-06T18:30:37.956Z</time>
      </trkpt>
      <trkpt lat="48.86217" lon="2.32133">
        <ele>77.3</ele>
        <time>2015-07-06T18:30:39.021Z</time>
      </trkpt>
      <trkpt lat="48.86219" lon="2.32125">
        <ele>77.3</ele>
        <time>2015-07-06T18:30:40.045Z</time>
      </trkpt>
      <trkpt lat="48.86221" lon="2.32117">
        <ele>77.4</ele>
        <time>2015-07-06T18:30:41.048Z</time>
      </trkpt>
      <trkpt lat="48.86224" lon="2.32109">
        <ele>77.4</ele>
        <time>2015-07-06T18:30:42.101Z</time>
      </trkpt>
      <trkpt lat="48.86226" lon="2.321">
        <ele>77.4</ele>
        <time>2015-07-06T18:30:43.034Z</time>
      </trkpt>
      <trkpt lat="48.86228" lon="2.32092">
        <ele>77.6</ele>
        <time>2015-07-06T18:30:44.052Z</time>
      </trkpt>
      <trkpt lat="48.8623" lon="2.32084">
        <ele>77.6</ele>
        <time>2015-07-06T18:30:45.029Z</time>
      </trkpt>
      <trkpt lat="48.86233" lon="2.32076">
        <ele>77.7</ele>
        <time>2015-07-06T18:30:45.975Z</time>
      </trkpt>
      <trkpt lat="48.86235" lon="2.32068">
        <ele>77.7</ele>
        <time>2015-07-06T18:30:46.969Z</time>
      </trkpt>
      <trkpt lat="48.86238" lon="2.3206">
        <ele>77.7</ele>
        <time>2015-07-06T18:30:48.063Z</time>
      </trkpt>
      <trkpt lat="48.8624" lon="2.32052">
        <ele>77.7</ele>
        <time>2015-07-06T18:30:48.952Z</time>
      </trkpt>
      <trkpt lat="48.86243" lon="2.32044">
        <ele>77.6</ele>
        <time>2015-07-06T18:30:49.972Z</time>
      </trkpt>
      <trkpt lat="48.86245" lon="2.32037">
        <ele>77.5</ele>
        <time>2015-07-06T18:30:50.987Z</time>
      </trkpt>
      <trkpt lat="48.86247" lon="2.32029">
        <ele>77.1</ele>
        <time>2015-07-06T18:30:52.010Z</time>
      </trkpt>
      <trkpt lat="48.8625" lon="2.32021">
        <ele>77.1</ele>
        <time>2015-07-06T18:30:53.024Z</time>
      </trkpt>
      <trkpt lat="48.86252" lon="2.32013">
        <ele>77.2</ele>
        <time>2015-07-06T18:30:54.047Z</time>
      </trkpt>
      <trkpt lat="48.86255" lon="2.32005">
        <ele>77.2</ele>
        <time>2015-07-06T18:30:55.055Z</time>
      </trkpt>
      <trkpt lat="48.86257" lon="2.31997">
        <ele>76.8</ele>
        <time>2015-07-06T18:30:56.047Z</time>
      </trkpt>
      <trkpt lat="48.86259" lon="2.31988">
        <ele>76.3</ele>
        <time>2015-07-06T18:30:56.995Z</time>
      </trkpt>
      <trkpt lat="48.86261" lon="2.3198">
        <ele>76</ele>
        <time>2015-07-06T18:30:58.042Z</time>
      </trkpt>
      <trkpt lat="48.86264" lon="2.31972">
        <ele>75.9</ele>
        <time>2015-07-06T18:30:59.047Z</time>
      </trkpt>
      <trkpt lat="48.86266" lon="2.31963">
        <ele>76</ele>
        <time>2015-07-06T18:31:00.072Z</time>
      </trkpt>
      <trkpt lat="48.86269" lon="2.31955">
        <ele>75.9</ele>
        <time>2015-07-06T18:31:00.971Z</time>
      </trkpt>
      <trkpt lat="48.86272" lon="2.31947">
        <ele>75.8</ele>
        <time>2015-07-06T18:31:01.971Z</time>
      </trkpt>
      <trkpt lat="48.86275" lon="2.31939">
        <ele>75.7</ele>
        <time>2015-07-06T18:31:02.979Z</time>
      </trkpt>
      <trkpt lat="48.86297" lon="2.31868">
        <ele>75.7</ele>
        <time>2015-07-06T18:31:12.016Z</time>
      </trkpt>
      <trkpt lat="48.86299" lon="2.31862">
        <ele>75.5</ele>
        <time>2015-07-06T18:31:13.036Z</time>
      </trkpt>
      <trkpt lat="48.86301" lon="2.31856">
        <ele>75.7</ele>
        <time>2015-07-06T18:31:13.950Z</time>
      </trkpt>
      <trkpt lat="48.86303" lon="2.31848">
        <ele>75.2</ele>
        <time>2015-07-06T18:31:14.986Z</time>
      </trkpt>
      <trkpt lat="48.86306" lon="2.31839">
        <ele>76.2</ele>
        <time>2015-07-06T18:31:16.017Z</time>
      </trkpt>
      <trkpt lat="48.86308" lon="2.31831">
        <ele>77</ele>
        <time>2015-07-06T18:31:17.157Z</time>
      </trkpt>
      <trkpt lat="48.8631" lon="2.31825">
        <ele>77.2</ele>
        <time>2015-07-06T18:31:18.032Z</time>
      </trkpt>
      <trkpt lat="48.86312" lon="2.31818">
        <ele>77.3</ele>
        <time>2015-07-06T18:31:19.032Z</time>
      </trkpt>
      <trkpt lat="48.86314" lon="2.3181">
        <ele>76.6</ele>
        <time>2015-07-06T18:31:20.085Z</time>
      </trkpt>
      <trkpt lat="48.86315" lon="2.31802">
        <ele>76.8</ele>
        <time>2015-07-06T18:31:20.946Z</time>
      </trkpt>
      <trkpt lat="48.86316" lon="2.31794">
        <ele>76.4</ele>
        <time>2015-07-06T18:31:21.989Z</time>
      </trkpt>
      <trkpt lat="48.86318" lon="2.31786">
        <ele>76.5</ele>
        <time>2015-07-06T18:31:22.868Z</time>
      </trkpt>
      <trkpt lat="48.86319" lon="2.31779">
        <ele>76.6</ele>
        <time>2015-07-06T18:31:24.040Z</time>
      </trkpt>
      <trkpt lat="48.86319" lon="2.3177">
        <ele>77</ele>
        <time>2015-07-06T18:31:25.053Z</time>
      </trkpt>
      <trkpt lat="48.86319" lon="2.31762">
        <ele>77.8</ele>
        <time>2015-07-06T18:31:26.013Z</time>
      </trkpt>
      <trkpt lat="48.86318" lon="2.31753">
        <ele>77.9</ele>
        <time>2015-07-06T18:31:27.008Z</time>
      </trkpt>
      <trkpt lat="48.86317" lon="2.31745">
        <ele>78</ele>
        <time>2015-07-06T18:31:27.987Z</time>
      </trkpt>
      <trkpt lat="48.86317" lon="2.31737">
        <ele>77.9</ele>
        <time>2015-07-06T18:31:28.996Z</time>
      </trkpt>
      <trkpt lat="48.86317" lon="2.31729">
        <ele>77.7</ele>
        <time>2015-07-06T18:31:30.037Z</time>
      </trkpt>
      <trkpt lat="48.86317" lon="2.3172">
        <ele>77.5</ele>
        <time>2015-07-06T18:31:31.039Z</time>
      </trkpt>
      <trkpt lat="48.86317" lon="2.31712">
        <ele>77.2</ele>
        <time>2015-07-06T18:31:32.047Z</time>
      </trkpt>
      <trkpt lat="48.86317" lon="2.31704">
        <ele>77.1</ele>
        <time>2015-07-06T18:31:32.942Z</time>
      </trkpt>
      <trkpt lat="48.86317" lon="2.31697">
        <ele>76.8</ele>
        <time>2015-07-06T18:31:33.952Z</time>
      </trkpt>
      <trkpt lat="48.86316" lon="2.31689">
        <ele>76.5</ele>
        <time>2015-07-06T18:31:34.957Z</time>
      </trkpt>
      <trkpt lat="48.86316" lon="2.31682">
        <ele>76.2</ele>
        <time>2015-07-06T18:31:36.039Z</time>
      </trkpt>
      <trkpt lat="48.86316" lon="2.31675">
        <ele>76.2</ele>
        <time>2015-07-06T18:31:37.052Z</time>
      </trkpt>
      <trkpt lat="48.86316" lon="2.31668">
        <ele>76.1</ele>
        <time>2015-07-06T18:31:38.074Z</time>
      </trkpt>
      <trkpt lat="48.86315" lon="2.31661">
        <ele>76.2</ele>
        <time>2015-07-06T18:31:38.972Z</time>
      </trkpt>
      <trkpt lat="48.86315" lon="2.31654">
        <ele>76.1</ele>
        <time>2015-07-06T18:31:40Z</time>
      </trkpt>
      <trkpt lat="48.86314" lon="2.31647">
        <ele>76.5</ele>
        <time>2015-07-06T18:31:41.024Z</time>
      </trkpt>
      <trkpt lat="48.86313" lon="2.3164">
        <ele>77.2</ele>
        <time>2015-07-06T18:31:42.069Z</time>
      </trkpt>
      <trkpt lat="48.86312" lon="2.31633">
        <ele>78</ele>
        <time>2015-07-06T18:31:42.979Z</time>
      </trkpt>
      <trkpt lat="48.86312" lon="2.31626">
        <ele>78.7</ele>
        <time>2015-07-06T18:31:43.980Z</time>
      </trkpt>
      <trkpt lat="48.86312" lon="2.31612">
        <ele>79.1</ele>
        <time>2015-07-06T18:31:46.003Z</time>
      </trkpt>
      <trkpt lat="48.86312" lon="2.31606">
        <ele>79.1</ele>
        <time>2015-07-06T18:31:47.014Z</time>
      </trkpt>
      <trkpt lat="48.86311" lon="2.31594">
        <ele>79.6</ele>
        <time>2015-07-06T18:31:49.039Z</time>
      </trkpt>
      <trkpt lat="48.8631" lon="2.31587">
        <ele>80</ele>
        <time>2015-07-06T18:31:50.056Z</time>
      </trkpt>
      <trkpt lat="48.86309" lon="2.31575">
        <ele>80.6</ele>
        <time>2015-07-06T18:31:52.013Z</time>
      </trkpt>
      <trkpt lat="48.86309" lon="2.31569">
        <ele>80.6</ele>
        <time>2015-07-06T18:31:53.035Z</time>
      </trkpt>
      <trkpt lat="48.86309" lon="2.31555">
        <ele>80.6</ele>
        <time>2015-07-06T18:31:54.985Z</time>
      </trkpt>
      <trkpt lat="48.86309" lon="2.31548">
        <ele>80.7</ele>
        <time>2015-07-06T18:31:56.085Z</time>
      </trkpt>
      <trkpt lat="48.86309" lon="2.31541">
        <ele>80.5</ele>
        <time>2015-07-06T18:31:57.058Z</time>
      </trkpt>
      <trkpt lat="48.86309" lon="2.31534">
        <ele>80.4</ele>
        <time>2015-07-06T18:31:58.070Z</time>
      </trkpt>
      <trkpt lat="48.86309" lon="2.31522">
        <ele>79.5</ele>
        <time>2015-07-06T18:32:00.313Z</time>
      </trkpt>
      <trkpt lat="48.8631" lon="2.31515">
        <ele>79.1</ele>
        <time>2015-07-06T18:32:00.985Z</time>
      </trkpt>
      <trkpt lat="48.8631" lon="2.31508">
        <ele>78.9</ele>
        <time>2015-07-06T18:32:02Z</time>
      </trkpt>
      <trkpt lat="48.8631" lon="2.31501">
        <ele>79.1</ele>
        <time>2015-07-06T18:32:03.065Z</time>
      </trkpt>
      <trkpt lat="48.86309" lon="2.31487">
        <ele>79.1</ele>
        <time>2015-07-06T18:32:05.052Z</time>
      </trkpt>
      <trkpt lat="48.86309" lon="2.31481">
        <ele>79.1</ele>
        <time>2015-07-06T18:32:06.068Z</time>
      </trkpt>
      <trkpt lat="48.86309" lon="2.31468">
        <ele>78.9</ele>
        <time>2015-07-06T18:32:07.983Z</time>
      </trkpt>
      <trkpt lat="48.86309" lon="2.31462">
        <ele>79</ele>
        <time>2015-07-06T18:32:09.009Z</time>
      </trkpt>
      <trkpt lat="48.86309" lon="2.31448">
        <ele>80.1</ele>
        <time>2015-07-06T18:32:11.057Z</time>
      </trkpt>
      <trkpt lat="48.86309" lon="2.31441">
        <ele>80.6</ele>
        <time>2015-07-06T18:32:12.072Z</time>
      </trkpt>
      <trkpt lat="48.86309" lon="2.31429">
        <ele>80.6</ele>
        <time>2015-07-06T18:32:13.991Z</time>
      </trkpt>
      <trkpt lat="48.86309" lon="2.31422">
        <ele>80.8</ele>
        <time>2015-07-06T18:32:15.015Z</time>
      </trkpt>
      <trkpt lat="48.86309" lon="2.31409">
        <ele>80.7</ele>
        <time>2015-07-06T18:32:17.049Z</time>
      </trkpt>
      <trkpt lat="48.86308" lon="2.31403">
        <ele>80.7</ele>
        <time>2015-07-06T18:32:18.088Z</time>
      </trkpt>
      <trkpt lat="48.86307" lon="2.3139">
        <ele>80.9</ele>
        <time>2015-07-06T18:32:19.994Z</time>
      </trkpt>
      <trkpt lat="48.86308" lon="2.31384">
        <ele>80.9</ele>
        <time>2015-07-06T18:32:21.014Z</time>
      </trkpt>
      <trkpt lat="48.86308" lon="2.31378">
        <ele>80.8</ele>
        <time>2015-07-06T18:32:22.032Z</time>
      </trkpt>
      <trkpt lat="48.86311" lon="2.31313">
        <ele>80.2</ele>
        <time>2015-07-06T18:32:32.038Z</time>
      </trkpt>
      <trkpt lat="48.8631" lon="2.31305">
        <ele>80</ele>
        <time>2015-07-06T18:32:33.049Z</time>
      </trkpt>
      <trkpt lat="48.8631" lon="2.31298">
        <ele>79.1</ele>
        <time>2015-07-06T18:32:33.961Z</time>
      </trkpt>
      <trkpt lat="48.8631" lon="2.3129">
        <ele>78.7</ele>
        <time>2015-07-06T18:32:34.981Z</time>
      </trkpt>
      <trkpt lat="48.86309" lon="2.3128">
        <ele>78.8</ele>
        <time>2015-07-06T18:32:36.023Z</time>
      </trkpt>
      <trkpt lat="48.8631" lon="2.31272">
        <ele>78.7</ele>
        <time>2015-07-06T18:32:37.034Z</time>
      </trkpt>
      <trkpt lat="48.8631" lon="2.31264">
        <ele>78.4</ele>
        <time>2015-07-06T18:32:37.972Z</time>
      </trkpt>
      <trkpt lat="48.8631" lon="2.31256">
        <ele>78.6</ele>
        <time>2015-07-06T18:32:38.947Z</time>
      </trkpt>
      <trkpt lat="48.86309" lon="2.31249">
        <ele>78.1</ele>
        <time>2015-07-06T18:32:40.010Z</time>
      </trkpt>
      <trkpt lat="48.86306" lon="2.31239">
        <ele>79.7</ele>
        <time>2015-07-06T18:32:40.999Z</time>
      </trkpt>
      <trkpt lat="48.86306" lon="2.3123">
        <ele>79.2</ele>
        <time>2015-07-06T18:32:42.040Z</time>
      </trkpt>
      <trkpt lat="48.86305" lon="2.31222">
        <ele>78.5</ele>
        <time>2015-07-06T18:32:43.064Z</time>
      </trkpt>
      <trkpt lat="48.86305" lon="2.31213">
        <ele>78.3</ele>
        <time>2015-07-06T18:32:44.076Z</time>
      </trkpt>
      <trkpt lat="48.86304" lon="2.31205">
        <ele>78</ele>
        <time>2015-07-06T18:32:44.990Z</time>
      </trkpt>
      <trkpt lat="48.86304" lon="2.31197">
        <ele>77.8</ele>
        <time>2015-07-06T18:32:45.992Z</time>
      </trkpt>
      <trkpt lat="48.86304" lon="2.31189">
        <ele>77.5</ele>
        <time>2015-07-06T18:32:46.995Z</time>
      </trkpt>
      <trkpt lat="48.86303" lon="2.31181">
        <ele>77.2</ele>
        <time>2015-07-06T18:32:48.056Z</time>
      </trkpt>
      <trkpt lat="48.86303" lon="2.31175">
        <ele>77.1</ele>
        <time>2015-07-06T18:32:49.038Z</time>
      </trkpt>
      <trkpt lat="48.86303" lon="2.31168">
        <ele>76.9</ele>
        <time>2015-07-06T18:32:50.045Z</time>
      </trkpt>
      <trkpt lat="48.86303" lon="2.3116">
        <ele>76.7</ele>
        <time>2015-07-06T18:32:51.053Z</time>
      </trkpt>
      <trkpt lat="48.86303" lon="2.31153">
        <ele>76.8</ele>
        <time>2015-07-06T18:32:52.060Z</time>
      </trkpt>
      <trkpt lat="48.86303" lon="2.31145">
        <ele>76.8</ele>
        <time>2015-07-06T18:32:53.071Z</time>
      </trkpt>
      <trkpt lat="48.86302" lon="2.31137">
        <ele>76.9</ele>
        <time>2015-07-06T18:32:54.081Z</time>
      </trkpt>
      <trkpt lat="48.86302" lon="2.3113">
        <ele>76.7</ele>
        <time>2015-07-06T18:32:54.978Z</time>
      </trkpt>
      <trkpt lat="48.86302" lon="2.31123">
        <ele>76.9</ele>
        <time>2015-07-06T18:32:55.996Z</time>
      </trkpt>
      <trkpt lat="48.86301" lon="2.31116">
        <ele>77.4</ele>
        <time>2015-07-06T18:32:57.005Z</time>
      </trkpt>
      <trkpt lat="48.86301" lon="2.31109">
        <ele>77.2</ele>
        <time>2015-07-06T18:32:58.011Z</time>
      </trkpt>
      <trkpt lat="48.86301" lon="2.31095">
        <ele>76.7</ele>
        <time>2015-07-06T18:33:00.033Z</time>
      </trkpt>
      <trkpt lat="48.863" lon="2.31088">
        <ele>76.8</ele>
        <time>2015-07-06T18:33:01.033Z</time>
      </trkpt>
      <trkpt lat="48.863" lon="2.3108">
        <ele>76.3</ele>
        <time>2015-07-06T18:33:02.049Z</time>
      </trkpt>
      <trkpt lat="48.86299" lon="2.31072">
        <ele>76.3</ele>
        <time>2015-07-06T18:33:03.016Z</time>
      </trkpt>
      <trkpt lat="48.86299" lon="2.31064">
        <ele>76.4</ele>
        <time>2015-07-06T18:33:03.991Z</time>
      </trkpt>
      <trkpt lat="48.86299" lon="2.31056">
        <ele>76.5</ele>
        <time>2015-07-06T18:33:05.008Z</time>
      </trkpt>
      <trkpt lat="48.86298" lon="2.31047">
        <ele>76.5</ele>
        <time>2015-07-06T18:33:06.051Z</time>
      </trkpt>
      <trkpt lat="48.86297" lon="2.31039">
        <ele>76.5</ele>
        <time>2015-07-06T18:33:07.042Z</time>
      </trkpt>
      <trkpt lat="48.86296" lon="2.3103">
        <ele>76.5</ele>
        <time>2015-07-06T18:33:08.043Z</time>
      </trkpt>
      <trkpt lat="48.86296" lon="2.31021">
        <ele>76.8</ele>
        <time>2015-07-06T18:33:09.051Z</time>
      </trkpt>
      <trkpt lat="48.86297" lon="2.31011">
        <ele>77.2</ele>
        <time>2015-07-06T18:33:10.052Z</time>
      </trkpt>
      <trkpt lat="48.86297" lon="2.31001">
        <ele>77.7</ele>
        <time>2015-07-06T18:33:11.066Z</time>
      </trkpt>
      <trkpt lat="48.86297" lon="2.30992">
        <ele>77.9</ele>
        <time>2015-07-06T18:33:12.097Z</time>
      </trkpt>
      <trkpt lat="48.86297" lon="2.30983">
        <ele>78.2</ele>
        <time>2015-07-06T18:33:12.988Z</time>
      </trkpt>
      <trkpt lat="48.86296" lon="2.30974">
        <ele>78.8</ele>
        <time>2015-07-06T18:33:13.983Z</time>
      </trkpt>
      <trkpt lat="48.86296" lon="2.30966">
        <ele>79.1</ele>
        <time>2015-07-06T18:33:14.994Z</time>
      </trkpt>
      <trkpt lat="48.86295" lon="2.30958">
        <ele>79.2</ele>
        <time>2015-07-06T18:33:16.021Z</time>
      </trkpt>
      <trkpt lat="48.86295" lon="2.30949">
        <ele>79.1</ele>
        <time>2015-07-06T18:33:17.034Z</time>
      </trkpt>
      <trkpt lat="48.86295" lon="2.30941">
        <ele>79.2</ele>
        <time>2015-07-06T18:33:18.033Z</time>
      </trkpt>
      <trkpt lat="48.86294" lon="2.30933">
        <ele>79.8</ele>
        <time>2015-07-06T18:33:19.039Z</time>
      </trkpt>
      <trkpt lat="48.86294" lon="2.30924">
        <ele>79.9</ele>
        <time>2015-07-06T18:33:20.043Z</time>
      </trkpt>
      <trkpt lat="48.86293" lon="2.30916">
        <ele>79.8</ele>
        <time>2015-07-06T18:33:21.054Z</time>
      </trkpt>
      <trkpt lat="48.86293" lon="2.30908">
        <ele>79.9</ele>
        <time>2015-07-06T18:33:21.983Z</time>
      </trkpt>
      <trkpt lat="48.86293" lon="2.309">
        <ele>79.6</ele>
        <time>2015-07-06T18:33:22.978Z</time>
      </trkpt>
      <trkpt lat="48.86293" lon="2.30893">
        <ele>79.2</ele>
        <time>2015-07-06T18:33:24.014Z</time>
      </trkpt>
      <trkpt lat="48.86293" lon="2.30886">
        <ele>78.7</ele>
        <time>2015-07-06T18:33:25.018Z</time>
      </trkpt>
      <trkpt lat="48.86292" lon="2.30878">
        <ele>78.8</ele>
        <time>2015-07-06T18:33:26.039Z</time>
      </trkpt>
      <trkpt lat="48.86292" lon="2.30871">
        <ele>78.8</ele>
        <time>2015-07-06T18:33:27.047Z</time>
      </trkpt>
      <trkpt lat="48.86292" lon="2.30863">
        <ele>78.9</ele>
        <time>2015-07-06T18:33:28.067Z</time>
      </trkpt>
      <trkpt lat="48.86292" lon="2.30855">
        <ele>78.7</ele>
        <time>2015-07-06T18:33:28.989Z</time>
      </trkpt>
      <trkpt lat="48.86292" lon="2.30849">
        <ele>78.5</ele>
        <time>2015-07-06T18:33:30.011Z</time>
      </trkpt>
      <trkpt lat="48.86292" lon="2.30842">
        <ele>78.6</ele>
        <time>2015-07-06T18:33:31.021Z</time>
      </trkpt>
      <trkpt lat="48.86292" lon="2.30834">
        <ele>78.7</ele>
        <time>2015-07-06T18:33:32.046Z</time>
      </trkpt>
      <trkpt lat="48.86291" lon="2.30827">
        <ele>78.5</ele>
        <time>2015-07-06T18:33:33.051Z</time>
      </trkpt>
      <trkpt lat="48.86291" lon="2.30819">
        <ele>78.4</ele>
        <time>2015-07-06T18:33:33.969Z</time>
      </trkpt>
      <trkpt lat="48.86291" lon="2.30811">
        <ele>78.5</ele>
        <time>2015-07-06T18:33:35.068Z</time>
      </trkpt>
      <trkpt lat="48.86291" lon="2.30803">
        <ele>78.4</ele>
        <time>2015-07-06T18:33:36.077Z</time>
      </trkpt>
      <trkpt lat="48.86291" lon="2.30795">
        <ele>78.4</ele>
        <time>2015-07-06T18:33:36.976Z</time>
      </trkpt>
      <trkpt lat="48.8629" lon="2.30787">
        <ele>78.2</ele>
        <time>2015-07-06T18:33:37.986Z</time>
      </trkpt>
      <trkpt lat="48.8629" lon="2.30779">
        <ele>78.2</ele>
        <time>2015-07-06T18:33:38.993Z</time>
      </trkpt>
      <trkpt lat="48.86289" lon="2.3077">
        <ele>78.5</ele>
        <time>2015-07-06T18:33:40.001Z</time>
      </trkpt>
      <trkpt lat="48.86288" lon="2.30761">
        <ele>78.8</ele>
        <time>2015-07-06T18:33:41.014Z</time>
      </trkpt>
      <trkpt lat="48.86287" lon="2.30753">
        <ele>78.8</ele>
        <time>2015-07-06T18:33:42.059Z</time>
      </trkpt>
      <trkpt lat="48.86286" lon="2.30743">
        <ele>78.9</ele>
        <time>2015-07-06T18:33:43.004Z</time>
      </trkpt>
      <trkpt lat="48.86286" lon="2.30735">
        <ele>78.9</ele>
        <time>2015-07-06T18:33:44.024Z</time>
      </trkpt>
      <trkpt lat="48.86286" lon="2.30726">
        <ele>78.8</ele>
        <time>2015-07-06T18:33:45.027Z</time>
      </trkpt>
      <trkpt lat="48.86285" lon="2.30717">
        <ele>78.6</ele>
        <time>2015-07-06T18:33:46.038Z</time>
      </trkpt>
      <trkpt lat="48.86285" lon="2.30709">
        <ele>78.3</ele>
        <time>2015-07-06T18:33:46.971Z</time>
      </trkpt>
      <trkpt lat="48.86285" lon="2.307">
        <ele>78</ele>
        <time>2015-07-06T18:33:47.986Z</time>
      </trkpt>
      <trkpt lat="48.86284" lon="2.30692">
        <ele>77.8</ele>
        <time>2015-07-06T18:33:48.994Z</time>
      </trkpt>
      <trkpt lat="48.86284" lon="2.30684">
        <ele>77.6</ele>
        <time>2015-07-06T18:33:50.008Z</time>
      </trkpt>
      <trkpt lat="48.86284" lon="2.30675">
        <ele>77.4</ele>
        <time>2015-07-06T18:33:51.073Z</time>
      </trkpt>
      <trkpt lat="48.86284" lon="2.30667">
        <ele>77.5</ele>
        <time>2015-07-06T18:33:52.214Z</time>
      </trkpt>
      <trkpt lat="48.86284" lon="2.30659">
        <ele>77.4</ele>
        <time>2015-07-06T18:33:52.949Z</time>
      </trkpt>
      <trkpt lat="48.86283" lon="2.3065">
        <ele>77.4</ele>
        <time>2015-07-06T18:33:53.986Z</time>
      </trkpt>
      <trkpt lat="48.86283" lon="2.30642">
        <ele>77.3</ele>
        <time>2015-07-06T18:33:54.995Z</time>
      </trkpt>
      <trkpt lat="48.86282" lon="2.30634">
        <ele>77</ele>
        <time>2015-07-06T18:33:56.011Z</time>
      </trkpt>
      <trkpt lat="48.86282" lon="2.30625">
        <ele>76.9</ele>
        <time>2015-07-06T18:33:57.024Z</time>
      </trkpt>
      <trkpt lat="48.86282" lon="2.30616">
        <ele>76.8</ele>
        <time>2015-07-06T18:33:58.035Z</time>
      </trkpt>
      <trkpt lat="48.86282" lon="2.30607">
        <ele>76.8</ele>
        <time>2015-07-06T18:33:59.044Z</time>
      </trkpt>
      <trkpt lat="48.86282" lon="2.30598">
        <ele>77</ele>
        <time>2015-07-06T18:34:00.080Z</time>
      </trkpt>
      <trkpt lat="48.86282" lon="2.30589">
        <ele>77.1</ele>
        <time>2015-07-06T18:34:00.951Z</time>
      </trkpt>
      <trkpt lat="48.86283" lon="2.30581">
        <ele>77.2</ele>
        <time>2015-07-06T18:34:01.954Z</time>
      </trkpt>
      <trkpt lat="48.86284" lon="2.30572">
        <ele>77.1</ele>
        <time>2015-07-06T18:34:02.954Z</time>
      </trkpt>
      <trkpt lat="48.86284" lon="2.30564">
        <ele>77.2</ele>
        <time>2015-07-06T18:34:03.964Z</time>
      </trkpt>
      <trkpt lat="48.86284" lon="2.30556">
        <ele>77.3</ele>
        <time>2015-07-06T18:34:04.980Z</time>
      </trkpt>
      <trkpt lat="48.86285" lon="2.30547">
        <ele>77.3</ele>
        <time>2015-07-06T18:34:06.011Z</time>
      </trkpt>
      <trkpt lat="48.86285" lon="2.30539">
        <ele>77.2</ele>
        <time>2015-07-06T18:34:07.004Z</time>
      </trkpt>
      <trkpt lat="48.86285" lon="2.30531">
        <ele>77.2</ele>
        <time>2015-07-06T18:34:08.010Z</time>
      </trkpt>
      <trkpt lat="48.86285" lon="2.30523">
        <ele>77.2</ele>
        <time>2015-07-06T18:34:09.016Z</time>
      </trkpt>
      <trkpt lat="48.86284" lon="2.30514">
        <ele>77.4</ele>
        <time>2015-07-06T18:34:10.021Z</time>
      </trkpt>
      <trkpt lat="48.86284" lon="2.30507">
        <ele>77.6</ele>
        <time>2015-07-06T18:34:11.025Z</time>
      </trkpt>
      <trkpt lat="48.86284" lon="2.30499">
        <ele>77.5</ele>
        <time>2015-07-06T18:34:12.044Z</time>
      </trkpt>
      <trkpt lat="48.86284" lon="2.30491">
        <ele>77.5</ele>
        <time>2015-07-06T18:34:13.045Z</time>
      </trkpt>
      <trkpt lat="48.86285" lon="2.30483">
        <ele>77.2</ele>
        <time>2015-07-06T18:34:14.050Z</time>
      </trkpt>
      <trkpt lat="48.86285" lon="2.30475">
        <ele>77.1</ele>
        <time>2015-07-06T18:34:15.056Z</time>
      </trkpt>
      <trkpt lat="48.86285" lon="2.30466">
        <ele>77.2</ele>
        <time>2015-07-06T18:34:15.946Z</time>
      </trkpt>
      <trkpt lat="48.86285" lon="2.30458">
        <ele>77.1</ele>
        <time>2015-07-06T18:34:16.980Z</time>
      </trkpt>
      <trkpt lat="48.86285" lon="2.3045">
        <ele>77</ele>
        <time>2015-07-06T18:34:18.038Z</time>
      </trkpt>
      <trkpt lat="48.86285" lon="2.30442">
        <ele>77.1</ele>
        <time>2015-07-06T18:34:19.034Z</time>
      </trkpt>
      <trkpt lat="48.86284" lon="2.30434">
        <ele>77.1</ele>
        <time>2015-07-06T18:34:20.042Z</time>
      </trkpt>
      <trkpt lat="48.86284" lon="2.30426">
        <ele>77.1</ele>
        <time>2015-07-06T18:34:20.972Z</time>
      </trkpt>
      <trkpt lat="48.86284" lon="2.30418">
        <ele>77.1</ele>
        <time>2015-07-06T18:34:21.982Z</time>
      </trkpt>
      <trkpt lat="48.86284" lon="2.3041">
        <ele>77.1</ele>
        <time>2015-07-06T18:34:22.984Z</time>
      </trkpt>
      <trkpt lat="48.86284" lon="2.30402">
        <ele>77</ele>
        <time>2015-07-06T18:34:24.030Z</time>
      </trkpt>
      <trkpt lat="48.86283" lon="2.30394">
        <ele>76.9</ele>
        <time>2015-07-06T18:34:25.019Z</time>
      </trkpt>
      <trkpt lat="48.86283" lon="2.30387">
        <ele>77</ele>
        <time>2015-07-06T18:34:26.028Z</time>
      </trkpt>
      <trkpt lat="48.86282" lon="2.3038">
        <ele>77.1</ele>
        <time>2015-07-06T18:34:27.033Z</time>
      </trkpt>
      <trkpt lat="48.86282" lon="2.30366">
        <ele>76.9</ele>
        <time>2015-07-06T18:34:29.061Z</time>
      </trkpt>
      <trkpt lat="48.86282" lon="2.3036">
        <ele>76.9</ele>
        <time>2015-07-06T18:34:30.080Z</time>
      </trkpt>
      <trkpt lat="48.86283" lon="2.30347">
        <ele>76.8</ele>
        <time>2015-07-06T18:34:31.989Z</time>
      </trkpt>
      <trkpt lat="48.86283" lon="2.3034">
        <ele>77</ele>
        <time>2015-07-06T18:34:33.001Z</time>
      </trkpt>
      <trkpt lat="48.86284" lon="2.30327">
        <ele>77.1</ele>
        <time>2015-07-06T18:34:34.977Z</time>
      </trkpt>
      <trkpt lat="48.86284" lon="2.30321">
        <ele>77.1</ele>
        <time>2015-07-06T18:34:36.049Z</time>
      </trkpt>
      <trkpt lat="48.86284" lon="2.30308">
        <ele>77.1</ele>
        <time>2015-07-06T18:34:38.018Z</time>
      </trkpt>
      <trkpt lat="48.86283" lon="2.30301">
        <ele>77.2</ele>
        <time>2015-07-06T18:34:39.058Z</time>
      </trkpt>
      <trkpt lat="48.86283" lon="2.30294">
        <ele>77.2</ele>
        <time>2015-07-06T18:34:40.043Z</time>
      </trkpt>
      <trkpt lat="48.86283" lon="2.30287">
        <ele>77</ele>
        <time>2015-07-06T18:34:41.051Z</time>
      </trkpt>
      <trkpt lat="48.86282" lon="2.3028">
        <ele>76.9</ele>
        <time>2015-07-06T18:34:42.059Z</time>
      </trkpt>
      <trkpt lat="48.86282" lon="2.30272">
        <ele>76.7</ele>
        <time>2015-07-06T18:34:43.020Z</time>
      </trkpt>
      <trkpt lat="48.86282" lon="2.30265">
        <ele>76.5</ele>
        <time>2015-07-06T18:34:43.975Z</time>
      </trkpt>
      <trkpt lat="48.86282" lon="2.30258">
        <ele>76.3</ele>
        <time>2015-07-06T18:34:44.993Z</time>
      </trkpt>
      <trkpt lat="48.86282" lon="2.3025">
        <ele>76.1</ele>
        <time>2015-07-06T18:34:46.026Z</time>
      </trkpt>
      <trkpt lat="48.86282" lon="2.30242">
        <ele>76</ele>
        <time>2015-07-06T18:34:46.978Z</time>
      </trkpt>
      <trkpt lat="48.86282" lon="2.30234">
        <ele>76</ele>
        <time>2015-07-06T18:34:48.093Z</time>
      </trkpt>
      <trkpt lat="48.86282" lon="2.30226">
        <ele>76</ele>
        <time>2015-07-06T18:34:48.994Z</time>
      </trkpt>
      <trkpt lat="48.86281" lon="2.30219">
        <ele>76</ele>
        <time>2015-07-06T18:34:50.004Z</time>
      </trkpt>
      <trkpt lat="48.86281" lon="2.30212">
        <ele>76.1</ele>
        <time>2015-07-06T18:34:51.098Z</time>
      </trkpt>
      <trkpt lat="48.86284" lon="2.30201">
        <ele>76</ele>
        <time>2015-07-06T18:34:52.976Z</time>
      </trkpt>
      <trkpt lat="48.86287" lon="2.30176">
        <ele>76</ele>
        <time>2015-07-06T18:34:56.964Z</time>
      </trkpt>
      <trkpt lat="48.86287" lon="2.30169">
        <ele>76</ele>
        <time>2015-07-06T18:34:57.980Z</time>
      </trkpt>
      <trkpt lat="48.86286" lon="2.30159">
        <ele>76.3</ele>
        <time>2015-07-06T18:34:58.986Z</time>
      </trkpt>
      <trkpt lat="48.86287" lon="2.30146">
        <ele>76.5</ele>
        <time>2015-07-06T18:35:00.140Z</time>
      </trkpt>
      <trkpt lat="48.86287" lon="2.30136">
        <ele>76.5</ele>
        <time>2015-07-06T18:35:00.950Z</time>
      </trkpt>
      <trkpt lat="48.86286" lon="2.30128">
        <ele>76.7</ele>
        <time>2015-07-06T18:35:01.975Z</time>
      </trkpt>
      <trkpt lat="48.86285" lon="2.3012">
        <ele>76.8</ele>
        <time>2015-07-06T18:35:03.035Z</time>
      </trkpt>
      <trkpt lat="48.86285" lon="2.30107">
        <ele>77</ele>
        <time>2015-07-06T18:35:05.024Z</time>
      </trkpt>
      <trkpt lat="48.86284" lon="2.30101">
        <ele>77.1</ele>
        <time>2015-07-06T18:35:06.027Z</time>
      </trkpt>
      <trkpt lat="48.86284" lon="2.30088">
        <ele>77.9</ele>
        <time>2015-07-06T18:35:08.047Z</time>
      </trkpt>
      <trkpt lat="48.86285" lon="2.30082">
        <ele>78.2</ele>
        <time>2015-07-06T18:35:09.057Z</time>
      </trkpt>
      <trkpt lat="48.86286" lon="2.3007">
        <ele>78.2</ele>
        <time>2015-07-06T18:35:11.031Z</time>
      </trkpt>
      <trkpt lat="48.86285" lon="2.30065">
        <ele>78.3</ele>
        <time>2015-07-06T18:35:12.038Z</time>
      </trkpt>
      <trkpt lat="48.86285" lon="2.30053">
        <ele>78.5</ele>
        <time>2015-07-06T18:35:15.011Z</time>
      </trkpt>
      <trkpt lat="48.86284" lon="2.30049">
        <ele>78.5</ele>
        <time>2015-07-06T18:35:16.028Z</time>
      </trkpt>
      <trkpt lat="48.86282" lon="2.3004">
        <ele>78.1</ele>
        <time>2015-07-06T18:35:18.064Z</time>
      </trkpt>
      <trkpt lat="48.86282" lon="2.30035">
        <ele>78.1</ele>
        <time>2015-07-06T18:35:19.072Z</time>
      </trkpt>
      <trkpt lat="48.8628" lon="2.30023">
        <ele>78.1</ele>
        <time>2015-07-06T18:35:21.015Z</time>
      </trkpt>
      <trkpt lat="48.86279" lon="2.30017">
        <ele>78.1</ele>
        <time>2015-07-06T18:35:22.032Z</time>
      </trkpt>
      <trkpt lat="48.86278" lon="2.3001">
        <ele>78.1</ele>
        <time>2015-07-06T18:35:23.041Z</time>
      </trkpt>
      <trkpt lat="48.86277" lon="2.30004">
        <ele>78.2</ele>
        <time>2015-07-06T18:35:24.049Z</time>
      </trkpt>
      <trkpt lat="48.86276" lon="2.29993">
        <ele>78.4</ele>
        <time>2015-07-06T18:35:26.071Z</time>
      </trkpt>
      <trkpt lat="48.86275" lon="2.29987">
        <ele>78.4</ele>
        <time>2015-07-06T18:35:27.007Z</time>
      </trkpt>
      <trkpt lat="48.86272" lon="2.29976">
        <ele>78.4</ele>
        <time>2015-07-06T18:35:29.003Z</time>
      </trkpt>
      <trkpt lat="48.8627" lon="2.29971">
        <ele>78.3</ele>
        <time>2015-07-06T18:35:30.184Z</time>
      </trkpt>
      <trkpt lat="48.86266" lon="2.2996">
        <ele>78</ele>
        <time>2015-07-06T18:35:33.020Z</time>
      </trkpt>
      <trkpt lat="48.86264" lon="2.29957">
        <ele>77.9</ele>
        <time>2015-07-06T18:35:34.047Z</time>
      </trkpt>
      <trkpt lat="48.8626" lon="2.29945">
        <ele>78.3</ele>
        <time>2015-07-06T18:35:37.010Z</time>
      </trkpt>
      <trkpt lat="48.86258" lon="2.29942">
        <ele>78.7</ele>
        <time>2015-07-06T18:35:38.025Z</time>
      </trkpt>
      <trkpt lat="48.86255" lon="2.29931">
        <ele>79.5</ele>
        <time>2015-07-06T18:35:41.107Z</time>
      </trkpt>
      <trkpt lat="48.86254" lon="2.29927">
        <ele>79.6</ele>
        <time>2015-07-06T18:35:42.023Z</time>
      </trkpt>
      <trkpt lat="48.86251" lon="2.29916">
        <ele>79.5</ele>
        <time>2015-07-06T18:35:45.969Z</time>
      </trkpt>
      <trkpt lat="48.8625" lon="2.29914">
        <ele>79.4</ele>
        <time>2015-07-06T18:35:46.980Z</time>
      </trkpt>
      <trkpt lat="48.86246" lon="2.29903">
        <ele>79.1</ele>
        <time>2015-07-06T18:35:51.976Z</time>
      </trkpt>
      <trkpt lat="48.86246" lon="2.29901">
        <ele>79</ele>
        <time>2015-07-06T18:35:52.975Z</time>
      </trkpt>
      <trkpt lat="48.86243" lon="2.29889">
        <ele>78.6</ele>
        <time>2015-07-06T18:35:57.051Z</time>
      </trkpt>
      <trkpt lat="48.86243" lon="2.29886">
        <ele>78.6</ele>
        <time>2015-07-06T18:35:57.974Z</time>
      </trkpt>
      <trkpt lat="48.8624" lon="2.29874">
        <ele>78.7</ele>
        <time>2015-07-06T18:36:01.540Z</time>
      </trkpt>
      <trkpt lat="48.86239" lon="2.29869">
        <ele>78.7</ele>
        <time>2015-07-06T18:36:01.962Z</time>
      </trkpt>
      <trkpt lat="48.86237" lon="2.29857">
        <ele>78.6</ele>
        <time>2015-07-06T18:36:03.969Z</time>
      </trkpt>
      <trkpt lat="48.86236" lon="2.29851">
        <ele>78.6</ele>
        <time>2015-07-06T18:36:05.030Z</time>
      </trkpt>
      <trkpt lat="48.86234" lon="2.2984">
        <ele>78.9</ele>
        <time>2015-07-06T18:36:06.964Z</time>
      </trkpt>
      <trkpt lat="48.86233" lon="2.29834">
        <ele>78.9</ele>
        <time>2015-07-06T18:36:08.020Z</time>
      </trkpt>
      <trkpt lat="48.86232" lon="2.29823">
        <ele>79</ele>
        <time>2015-07-06T18:36:09.973Z</time>
      </trkpt>
      <trkpt lat="48.86231" lon="2.29819">
        <ele>79</ele>
        <time>2015-07-06T18:36:11.023Z</time>
      </trkpt>
      <trkpt lat="48.86229" lon="2.29811">
        <ele>79</ele>
        <time>2015-07-06T18:36:13.113Z</time>
      </trkpt>
      <trkpt lat="48.86228" lon="2.29806">
        <ele>79.1</ele>
        <time>2015-07-06T18:36:14.020Z</time>
      </trkpt>
      <trkpt lat="48.86226" lon="2.29797">
        <ele>79.1</ele>
        <time>2015-07-06T18:36:16.744Z</time>
      </trkpt>
      <trkpt lat="48.86226" lon="2.29792">
        <ele>79.3</ele>
        <time>2015-07-06T18:36:16.967Z</time>
      </trkpt>
      <trkpt lat="48.86224" lon="2.29782">
        <ele>79.3</ele>
        <time>2015-07-06T18:36:19.017Z</time>
      </trkpt>
      <trkpt lat="48.86223" lon="2.29778">
        <ele>79.2</ele>
        <time>2015-07-06T18:36:20.019Z</time>
      </trkpt>
      <trkpt lat="48.86219" lon="2.29768">
        <ele>79.3</ele>
        <time>2015-07-06T18:36:24.012Z</time>
      </trkpt>
      <trkpt lat="48.86217" lon="2.29767">
        <ele>79.4</ele>
        <time>2015-07-06T18:36:25.018Z</time>
      </trkpt>
      <trkpt lat="48.86212" lon="2.29761">
        <ele>79.8</ele>
        <time>2015-07-06T18:36:28.979Z</time>
      </trkpt>
      <trkpt lat="48.8621" lon="2.29758">
        <ele>79.8</ele>
        <time>2015-07-06T18:36:30.042Z</time>
      </trkpt>
      <trkpt lat="48.86207" lon="2.29748">
        <ele>80</ele>
        <time>2015-07-06T18:36:32.231Z</time>
      </trkpt>
      <trkpt lat="48.86205" lon="2.29743">
        <ele>80</ele>
        <time>2015-07-06T18:36:32.979Z</time>
      </trkpt>
      <trkpt lat="48.86202" lon="2.29734">
        <ele>80</ele>
        <time>2015-07-06T18:36:35.013Z</time>
      </trkpt>
      <trkpt lat="48.862" lon="2.29728">
        <ele>79.8</ele>
        <time>2015-07-06T18:36:36.055Z</time>
      </trkpt>
      <trkpt lat="48.86198" lon="2.29718">
        <ele>79.8</ele>
        <time>2015-07-06T18:36:37.931Z</time>
      </trkpt>
      <trkpt lat="48.86196" lon="2.29713">
        <ele>79.8</ele>
        <time>2015-07-06T18:36:38.967Z</time>
      </trkpt>
      <trkpt lat="48.86193" lon="2.29702">
        <ele>79.8</ele>
        <time>2015-07-06T18:36:41.035Z</time>
      </trkpt>
      <trkpt lat="48.86191" lon="2.29698">
        <ele>79.5</ele>
        <time>2015-07-06T18:36:42.063Z</time>
      </trkpt>
      <trkpt lat="48.86187" lon="2.29687">
        <ele>79.4</ele>
        <time>2015-07-06T18:36:43.992Z</time>
      </trkpt>
      <trkpt lat="48.86185" lon="2.29681">
        <ele>79.5</ele>
        <time>2015-07-06T18:36:44.997Z</time>
      </trkpt>
      <trkpt lat="48.8618" lon="2.2967">
        <ele>79.3</ele>
        <time>2015-07-06T18:36:47.487Z</time>
      </trkpt>
      <trkpt lat="48.86179" lon="2.29664">
        <ele>79.3</ele>
        <time>2015-07-06T18:36:48.028Z</time>
      </trkpt>
      <trkpt lat="48.86174" lon="2.29652">
        <ele>79.1</ele>
        <time>2015-07-06T18:36:50.039Z</time>
      </trkpt>
      <trkpt lat="48.86171" lon="2.29647">
        <ele>78.6</ele>
        <time>2015-07-06T18:36:51.044Z</time>
      </trkpt>
      <trkpt lat="48.86167" lon="2.29637">
        <ele>78.4</ele>
        <time>2015-07-06T18:36:52.978Z</time>
      </trkpt>
      <trkpt lat="48.86165" lon="2.29632">
        <ele>78.4</ele>
        <time>2015-07-06T18:36:53.994Z</time>
      </trkpt>
      <trkpt lat="48.86161" lon="2.29623">
        <ele>78.3</ele>
        <time>2015-07-06T18:36:56.007Z</time>
      </trkpt>
      <trkpt lat="48.86159" lon="2.29619">
        <ele>78.3</ele>
        <time>2015-07-06T18:36:57.014Z</time>
      </trkpt>
      <trkpt lat="48.86159" lon="2.29607">
        <ele>77.6</ele>
        <time>2015-07-06T18:36:59.992Z</time>
      </trkpt>
      <trkpt lat="48.86161" lon="2.29603">
        <ele>77.1</ele>
        <time>2015-07-06T18:37:00.998Z</time>
      </trkpt>
      <trkpt lat="48.86163" lon="2.29594">
        <ele>77.2</ele>
        <time>2015-07-06T18:37:03.012Z</time>
      </trkpt>
      <trkpt lat="48.8616" lon="2.29589">
        <ele>76.7</ele>
        <time>2015-07-06T18:37:04.179Z</time>
      </trkpt>
      <trkpt lat="48.86155" lon="2.2958">
        <ele>75.8</ele>
        <time>2015-07-06T18:37:06.030Z</time>
      </trkpt>
      <trkpt lat="48.86151" lon="2.29575">
        <ele>75.4</ele>
        <time>2015-07-06T18:37:06.966Z</time>
      </trkpt>
      <trkpt lat="48.86149" lon="2.29569">
        <ele>75.1</ele>
        <time>2015-07-06T18:37:07.929Z</time>
      </trkpt>
      <trkpt lat="48.86145" lon="2.29562">
        <ele>74.6</ele>
        <time>2015-07-06T18:37:09.023Z</time>
      </trkpt>
      <trkpt lat="48.86142" lon="2.29557">
        <ele>74.4</ele>
        <time>2015-07-06T18:37:09.941Z</time>
      </trkpt>
      <trkpt lat="48.86139" lon="2.29552">
        <ele>74.3</ele>
        <time>2015-07-06T18:37:10.997Z</time>
      </trkpt>
      <trkpt lat="48.86132" lon="2.29543">
        <ele>73.7</ele>
        <time>2015-07-06T18:37:12.940Z</time>
      </trkpt>
      <trkpt lat="48.8613" lon="2.29538">
        <ele>73.7</ele>
        <time>2015-07-06T18:37:14.053Z</time>
      </trkpt>
      <trkpt lat="48.86126" lon="2.29529">
        <ele>73.7</ele>
        <time>2015-07-06T18:37:15.982Z</time>
      </trkpt>
      <trkpt lat="48.86123" lon="2.29525">
        <ele>73.8</ele>
        <time>2015-07-06T18:37:16.958Z</time>
      </trkpt>
      <trkpt lat="48.86118" lon="2.29515">
        <ele>73.9</ele>
        <time>2015-07-06T18:37:19.072Z</time>
      </trkpt>
      <trkpt lat="48.86115" lon="2.2951">
        <ele>73.9</ele>
        <time>2015-07-06T18:37:19.944Z</time>
      </trkpt>
      <trkpt lat="48.86109" lon="2.29501">
        <ele>73.8</ele>
        <time>2015-07-06T18:37:21.998Z</time>
      </trkpt>
      <trkpt lat="48.86106" lon="2.29496">
        <ele>73.7</ele>
        <time>2015-07-06T18:37:23.010Z</time>
      </trkpt>
      <trkpt lat="48.86103" lon="2.29492">
        <ele>73.6</ele>
        <time>2015-07-06T18:37:22.388Z</time>
      </trkpt>
      <trkpt lat="48.86099" lon="2.29487">
        <ele>73.5</ele>
        <time>2015-07-06T18:37:25.037Z</time>
      </trkpt>
      <trkpt lat="48.86095" lon="2.29483">
        <ele>74.1</ele>
        <time>2015-07-06T18:37:26.047Z</time>
      </trkpt>
      <trkpt lat="48.86091" lon="2.29479">
        <ele>74.1</ele>
        <time>2015-07-06T18:37:27.049Z</time>
      </trkpt>
      <trkpt lat="48.86087" lon="2.29474">
        <ele>74</ele>
        <time>2015-07-06T18:37:27.988Z</time>
      </trkpt>
      <trkpt lat="48.86083" lon="2.2947">
        <ele>73.8</ele>
        <time>2015-07-06T18:37:28.995Z</time>
      </trkpt>
      <trkpt lat="48.8608" lon="2.29466">
        <ele>73.8</ele>
        <time>2015-07-06T18:37:30.025Z</time>
      </trkpt>
      <trkpt lat="48.86076" lon="2.29461">
        <ele>73.6</ele>
        <time>2015-07-06T18:37:31.244Z</time>
      </trkpt>
      <trkpt lat="48.86072" lon="2.29456">
        <ele>73.5</ele>
        <time>2015-07-06T18:37:32.535Z</time>
      </trkpt>
      <trkpt lat="48.86068" lon="2.29452">
        <ele>73.5</ele>
        <time>2015-07-06T18:37:33.039Z</time>
      </trkpt>
      <trkpt lat="48.86064" lon="2.29447">
        <ele>73.3</ele>
        <time>2015-07-06T18:37:34.046Z</time>
      </trkpt>
      <trkpt lat="48.8606" lon="2.29443">
        <ele>73.2</ele>
        <time>2015-07-06T18:37:34.976Z</time>
      </trkpt>
      <trkpt lat="48.86057" lon="2.29438">
        <ele>73.1</ele>
        <time>2015-07-06T18:37:36.072Z</time>
      </trkpt>
      <trkpt lat="48.86054" lon="2.29433">
        <ele>73.2</ele>
        <time>2015-07-06T18:37:36.962Z</time>
      </trkpt>
      <trkpt lat="48.8605" lon="2.29428">
        <ele>73.1</ele>
        <time>2015-07-06T18:37:37.982Z</time>
      </trkpt>
      <trkpt lat="48.86047" lon="2.29422">
        <ele>73</ele>
        <time>2015-07-06T18:37:38.986Z</time>
      </trkpt>
      <trkpt lat="48.86042" lon="2.29413">
        <ele>73</ele>
        <time>2015-07-06T18:37:41.004Z</time>
      </trkpt>
      <trkpt lat="48.86039" lon="2.29408">
        <ele>73.1</ele>
        <time>2015-07-06T18:37:42.038Z</time>
      </trkpt>
      <trkpt lat="48.86034" lon="2.29399">
        <ele>73.1</ele>
        <time>2015-07-06T18:37:43.970Z</time>
      </trkpt>
      <trkpt lat="48.86031" lon="2.29396">
        <ele>73</ele>
        <time>2015-07-06T18:37:45.037Z</time>
      </trkpt>
      <trkpt lat="48.86025" lon="2.29391">
        <ele>73.8</ele>
        <time>2015-07-06T18:37:46.980Z</time>
      </trkpt>
      <trkpt lat="48.86021" lon="2.29389">
        <ele>75</ele>
        <time>2015-07-06T18:37:48.073Z</time>
      </trkpt>
      <trkpt lat="48.86013" lon="2.29387">
        <ele>75.1</ele>
        <time>2015-07-06T18:37:52.020Z</time>
      </trkpt>
      <trkpt lat="48.86011" lon="2.29387">
        <ele>75</ele>
        <time>2015-07-06T18:37:53.038Z</time>
      </trkpt>
      <trkpt lat="48.86005" lon="2.29383">
        <ele>75</ele>
        <time>2015-07-06T18:37:55.991Z</time>
      </trkpt>
      <trkpt lat="48.86003" lon="2.29381">
        <ele>75.1</ele>
        <time>2015-07-06T18:37:57.019Z</time>
      </trkpt>
      <trkpt lat="48.85997" lon="2.29374">
        <ele>75.1</ele>
        <time>2015-07-06T18:38:00.203Z</time>
      </trkpt>
      <trkpt lat="48.85995" lon="2.29371">
        <ele>75.2</ele>
        <time>2015-07-06T18:38:00.971Z</time>
      </trkpt>
      <trkpt lat="48.85989" lon="2.29362">
        <ele>74.5</ele>
        <time>2015-07-06T18:38:04.004Z</time>
      </trkpt>
      <trkpt lat="48.85988" lon="2.29358">
        <ele>74.3</ele>
        <time>2015-07-06T18:38:05.017Z</time>
      </trkpt>
      <trkpt lat="48.85983" lon="2.29347">
        <ele>74.4</ele>
        <time>2015-07-06T18:38:07.977Z</time>
      </trkpt>
      <trkpt lat="48.85981" lon="2.29344">
        <ele>74.4</ele>
        <time>2015-07-06T18:38:08.987Z</time>
      </trkpt>
      <trkpt lat="48.85975" lon="2.29335">
        <ele>74.6</ele>
        <time>2015-07-06T18:38:12.018Z</time>
      </trkpt>
      <trkpt lat="48.85973" lon="2.29332">
        <ele>74.5</ele>
        <time>2015-07-06T18:38:13.029Z</time>
      </trkpt>
      <trkpt lat="48.85967" lon="2.29324">
        <ele>74.6</ele>
        <time>2015-07-06T18:38:15.983Z</time>
      </trkpt>
      <trkpt lat="48.85965" lon="2.29321">
        <ele>74.7</ele>
        <time>2015-07-06T18:38:17.006Z</time>
      </trkpt>
      <trkpt lat="48.8596" lon="2.29313">
        <ele>75.2</ele>
        <time>2015-07-06T18:38:20.979Z</time>
      </trkpt>
      <trkpt lat="48.85959" lon="2.2931">
        <ele>75.3</ele>
        <time>2015-07-06T18:38:21.982Z</time>
      </trkpt>
      <trkpt lat="48.85953" lon="2.29303">
        <ele>75.7</ele>
        <time>2015-07-06T18:38:24.955Z</time>
      </trkpt>
      <trkpt lat="48.85951" lon="2.29301">
        <ele>75.9</ele>
        <time>2015-07-06T18:38:25.980Z</time>
      </trkpt>
      <trkpt lat="48.85948" lon="2.29296">
        <ele>76</ele>
        <time>2015-07-06T18:38:28.001Z</time>
      </trkpt>
      <trkpt lat="48.85923" lon="2.2926">
        <ele>75.5</ele>
        <time>2015-07-06T18:38:40.960Z</time>
      </trkpt>
      <trkpt lat="48.8592" lon="2.2925">
        <ele>75.3</ele>
        <time>2015-07-06T18:38:42.966Z</time>
      </trkpt>
      <trkpt lat="48.85917" lon="2.29246">
        <ele>75.2</ele>
        <time>2015-07-06T18:38:43.916Z</time>
      </trkpt>
      <trkpt lat="48.85911" lon="2.29239">
        <ele>75.4</ele>
        <time>2015-07-06T18:38:45.952Z</time>
      </trkpt>
      <trkpt lat="48.85908" lon="2.29236">
        <ele>75.3</ele>
        <time>2015-07-06T18:38:47.004Z</time>
      </trkpt>
      <trkpt lat="48.85902" lon="2.29228">
        <ele>75.5</ele>
        <time>2015-07-06T18:38:49.896Z</time>
      </trkpt>
      <trkpt lat="48.85897" lon="2.29225">
        <ele>76.6</ele>
        <time>2015-07-06T18:38:49.976Z</time>
      </trkpt>
      <trkpt lat="48.8589" lon="2.29215">
        <ele>76.9</ele>
        <time>2015-07-06T18:38:53.030Z</time>
      </trkpt>
      <trkpt lat="48.85889" lon="2.29212">
        <ele>76.9</ele>
        <time>2015-07-06T18:38:54.059Z</time>
      </trkpt>
      <trkpt lat="48.85885" lon="2.29202">
        <ele>77.1</ele>
        <time>2015-07-06T18:38:57.033Z</time>
      </trkpt>
      <trkpt lat="48.85885" lon="2.292">
        <ele>77.2</ele>
        <time>2015-07-06T18:38:58.041Z</time>
      </trkpt>
      <trkpt lat="48.85888" lon="2.29189">
        <ele>77.4</ele>
        <time>2015-07-06T18:39:02.036Z</time>
      </trkpt>
      <trkpt lat="48.85888" lon="2.29185">
        <ele>77.5</ele>
        <time>2015-07-06T18:39:03.046Z</time>
      </trkpt>
      <trkpt lat="48.85883" lon="2.29177">
        <ele>77.2</ele>
        <time>2015-07-06T18:39:06.002Z</time>
      </trkpt>
      <trkpt lat="48.8588" lon="2.29174">
        <ele>77.2</ele>
        <time>2015-07-06T18:39:07.023Z</time>
      </trkpt>
      <trkpt lat="48.85876" lon="2.29167">
        <ele>77.1</ele>
        <time>2015-07-06T18:39:08.965Z</time>
      </trkpt>
      <trkpt lat="48.85873" lon="2.29164">
        <ele>76.9</ele>
        <time>2015-07-06T18:39:09.995Z</time>
      </trkpt>
      <trkpt lat="48.85868" lon="2.29156">
        <ele>76.2</ele>
        <time>2015-07-06T18:39:12.031Z</time>
      </trkpt>
      <trkpt lat="48.85865" lon="2.29153">
        <ele>76.3</ele>
        <time>2015-07-06T18:39:13.079Z</time>
      </trkpt>
      <trkpt lat="48.85859" lon="2.29146">
        <ele>76.3</ele>
        <time>2015-07-06T18:39:15.285Z</time>
      </trkpt>
      <trkpt lat="48.85856" lon="2.29142">
        <ele>76.2</ele>
        <time>2015-07-06T18:39:16.055Z</time>
      </trkpt>
      <trkpt lat="48.85849" lon="2.29134">
        <ele>76.2</ele>
        <time>2015-07-06T18:39:18.044Z</time>
      </trkpt>
      <trkpt lat="48.85846" lon="2.2913">
        <ele>76.1</ele>
        <time>2015-07-06T18:39:18.974Z</time>
      </trkpt>
      <trkpt lat="48.85839" lon="2.29122">
        <ele>76.2</ele>
        <time>2015-07-06T18:39:21.033Z</time>
      </trkpt>
      <trkpt lat="48.85835" lon="2.29119">
        <ele>76.4</ele>
        <time>2015-07-06T18:39:21.966Z</time>
      </trkpt>
      <trkpt lat="48.85829" lon="2.29111">
        <ele>76.6</ele>
        <time>2015-07-06T18:39:24.006Z</time>
      </trkpt>
      <trkpt lat="48.85826" lon="2.29106">
        <ele>76.6</ele>
        <time>2015-07-06T18:39:25.011Z</time>
      </trkpt>
      <trkpt lat="48.8582" lon="2.29096">
        <ele>76.2</ele>
        <time>2015-07-06T18:39:27.414Z</time>
      </trkpt>
      <trkpt lat="48.85817" lon="2.29091">
        <ele>76.2</ele>
        <time>2015-07-06T18:39:27.931Z</time>
      </trkpt>
      <trkpt lat="48.85811" lon="2.29082">
        <ele>75.7</ele>
        <time>2015-07-06T18:39:30.046Z</time>
      </trkpt>
      <trkpt lat="48.85808" lon="2.29078">
        <ele>75.6</ele>
        <time>2015-07-06T18:39:30.985Z</time>
      </trkpt>
      <trkpt lat="48.85802" lon="2.29068">
        <ele>75.5</ele>
        <time>2015-07-06T18:39:33.053Z</time>
      </trkpt>
      <trkpt lat="48.85798" lon="2.29063">
        <ele>75.5</ele>
        <time>2015-07-06T18:39:34.016Z</time>
      </trkpt>
      <trkpt lat="48.85794" lon="2.29059">
        <ele>75.3</ele>
        <time>2015-07-06T18:39:34.961Z</time>
      </trkpt>
      <trkpt lat="48.85791" lon="2.29054">
        <ele>75.3</ele>
        <time>2015-07-06T18:39:36Z</time>
      </trkpt>
      <trkpt lat="48.85788" lon="2.29049">
        <ele>75.2</ele>
        <time>2015-07-06T18:39:37.522Z</time>
      </trkpt>
      <trkpt lat="48.85785" lon="2.29045">
        <ele>74.9</ele>
        <time>2015-07-06T18:39:38.013Z</time>
      </trkpt>
      <trkpt lat="48.85778" lon="2.29036">
        <ele>74.3</ele>
        <time>2015-07-06T18:39:40.024Z</time>
      </trkpt>
      <trkpt lat="48.85774" lon="2.29033">
        <ele>74.1</ele>
        <time>2015-07-06T18:39:41.044Z</time>
      </trkpt>
      <trkpt lat="48.85766" lon="2.29026">
        <ele>73.8</ele>
        <time>2015-07-06T18:39:42.971Z</time>
      </trkpt>
      <trkpt lat="48.85763" lon="2.29022">
        <ele>73.9</ele>
        <time>2015-07-06T18:39:43.960Z</time>
      </trkpt>
      <trkpt lat="48.85756" lon="2.29015">
        <ele>74</ele>
        <time>2015-07-06T18:39:45.987Z</time>
      </trkpt>
      <trkpt lat="48.85752" lon="2.29012">
        <ele>74.1</ele>
        <time>2015-07-06T18:39:46.991Z</time>
      </trkpt>
      <trkpt lat="48.85748" lon="2.29009">
        <ele>74.1</ele>
        <time>2015-07-06T18:39:48.027Z</time>
      </trkpt>
      <trkpt lat="48.85744" lon="2.29006">
        <ele>74.1</ele>
        <time>2015-07-06T18:39:49.038Z</time>
      </trkpt>
      <trkpt lat="48.85737" lon="2.28998">
        <ele>74.1</ele>
        <time>2015-07-06T18:39:50.967Z</time>
      </trkpt>
      <trkpt lat="48.85733" lon="2.28996">
        <ele>74</ele>
        <time>2015-07-06T18:39:51.983Z</time>
      </trkpt>
      <trkpt lat="48.85726" lon="2.2899">
        <ele>74.1</ele>
        <time>2015-07-06T18:39:54.018Z</time>
      </trkpt>
      <trkpt lat="48.85722" lon="2.28987">
        <ele>74</ele>
        <time>2015-07-06T18:39:55.019Z</time>
      </trkpt>
      <trkpt lat="48.85718" lon="2.28984">
        <ele>73.9</ele>
        <time>2015-07-06T18:39:56.030Z</time>
      </trkpt>
      <trkpt lat="48.85714" lon="2.2898">
        <ele>74.1</ele>
        <time>2015-07-06T18:39:57.103Z</time>
      </trkpt>
      <trkpt lat="48.8571" lon="2.28977">
        <ele>74.1</ele>
        <time>2015-07-06T18:39:58.039Z</time>
      </trkpt>
      <trkpt lat="48.85706" lon="2.28974">
        <ele>74.1</ele>
        <time>2015-07-06T18:39:59.039Z</time>
      </trkpt>
      <trkpt lat="48.85702" lon="2.28971">
        <ele>74.2</ele>
        <time>2015-07-06T18:40:00.069Z</time>
      </trkpt>
      <trkpt lat="48.85698" lon="2.28968">
        <ele>74.2</ele>
        <time>2015-07-06T18:40:00.987Z</time>
      </trkpt>
      <trkpt lat="48.85693" lon="2.28965">
        <ele>74.1</ele>
        <time>2015-07-06T18:40:02.742Z</time>
      </trkpt>
      <trkpt lat="48.85689" lon="2.28962">
        <ele>74.1</ele>
        <time>2015-07-06T18:40:02.987Z</time>
      </trkpt>
      <trkpt lat="48.85684" lon="2.2896">
        <ele>74.3</ele>
        <time>2015-07-06T18:40:04.011Z</time>
      </trkpt>
      <trkpt lat="48.8568" lon="2.28958">
        <ele>74.2</ele>
        <time>2015-07-06T18:40:05.006Z</time>
      </trkpt>
      <trkpt lat="48.85675" lon="2.28956">
        <ele>74.2</ele>
        <time>2015-07-06T18:40:06.033Z</time>
      </trkpt>
      <trkpt lat="48.85671" lon="2.28954">
        <ele>74.3</ele>
        <time>2015-07-06T18:40:07.044Z</time>
      </trkpt>
      <trkpt lat="48.85667" lon="2.28953">
        <ele>74.5</ele>
        <time>2015-07-06T18:40:08.021Z</time>
      </trkpt>
      <trkpt lat="48.85662" lon="2.28951">
        <ele>74.6</ele>
        <time>2015-07-06T18:40:08.967Z</time>
      </trkpt>
      <trkpt lat="48.85654" lon="2.28947">
        <ele>74.7</ele>
        <time>2015-07-06T18:40:10.992Z</time>
      </trkpt>
      <trkpt lat="48.8565" lon="2.28946">
        <ele>74.8</ele>
        <time>2015-07-06T18:40:12.029Z</time>
      </trkpt>
      <trkpt lat="48.85642" lon="2.28943">
        <ele>75</ele>
        <time>2015-07-06T18:40:14.046Z</time>
      </trkpt>
      <trkpt lat="48.85638" lon="2.28942">
        <ele>75</ele>
        <time>2015-07-06T18:40:14.997Z</time>
      </trkpt>
      <trkpt lat="48.8563" lon="2.28939">
        <ele>75.2</ele>
        <time>2015-07-06T18:40:16.964Z</time>
      </trkpt>
      <trkpt lat="48.85627" lon="2.28938">
        <ele>75.4</ele>
        <time>2015-07-06T18:40:18.010Z</time>
      </trkpt>
      <trkpt lat="48.8562" lon="2.28934">
        <ele>75.2</ele>
        <time>2015-07-06T18:40:20.959Z</time>
      </trkpt>
      <trkpt lat="48.85618" lon="2.28933">
        <ele>75.2</ele>
        <time>2015-07-06T18:40:21.976Z</time>
      </trkpt>
      <trkpt lat="48.8561" lon="2.28931">
        <ele>75</ele>
        <time>2015-07-06T18:40:24.928Z</time>
      </trkpt>
      <trkpt lat="48.85608" lon="2.2893">
        <ele>75</ele>
        <time>2015-07-06T18:40:25.964Z</time>
      </trkpt>
      <trkpt lat="48.856" lon="2.28925">
        <ele>75.4</ele>
        <time>2015-07-06T18:40:37.975Z</time>
      </trkpt>
      <trkpt lat="48.856" lon="2.28924">
        <ele>75.9</ele>
        <time>2015-07-06T18:40:39.149Z</time>
      </trkpt>
      <trkpt lat="48.85591" lon="2.2892">
        <ele>76.5</ele>
        <time>2015-07-06T18:40:45.970Z</time>
      </trkpt>
      <trkpt lat="48.85589" lon="2.28919">
        <ele>76.4</ele>
        <time>2015-07-06T18:40:46.991Z</time>
      </trkpt>
      <trkpt lat="48.85584" lon="2.28916">
        <ele>76.5</ele>
        <time>2015-07-06T18:40:48.983Z</time>
      </trkpt>
      <trkpt lat="48.8558" lon="2.28914">
        <ele>76.8</ele>
        <time>2015-07-06T18:40:50.045Z</time>
      </trkpt>
      <trkpt lat="48.85572" lon="2.28911">
        <ele>77.1</ele>
        <time>2015-07-06T18:40:51.949Z</time>
      </trkpt>
      <trkpt lat="48.85568" lon="2.28909">
        <ele>77.1</ele>
        <time>2015-07-06T18:40:52.971Z</time>
      </trkpt>
      <trkpt lat="48.85561" lon="2.28906">
        <ele>76.8</ele>
        <time>2015-07-06T18:40:54.997Z</time>
      </trkpt>
      <trkpt lat="48.85557" lon="2.28905">
        <ele>76.7</ele>
        <time>2015-07-06T18:40:56.018Z</time>
      </trkpt>
      <trkpt lat="48.85551" lon="2.28902">
        <ele>76.7</ele>
        <time>2015-07-06T18:40:57.956Z</time>
      </trkpt>
      <trkpt lat="48.85548" lon="2.28901">
        <ele>76.8</ele>
        <time>2015-07-06T18:40:58.967Z</time>
      </trkpt>
      <trkpt lat="48.85542" lon="2.28898">
        <ele>77</ele>
        <time>2015-07-06T18:41:00.992Z</time>
      </trkpt>
      <trkpt lat="48.85538" lon="2.28896">
        <ele>77</ele>
        <time>2015-07-06T18:41:01.995Z</time>
      </trkpt>
      <trkpt lat="48.85531" lon="2.28891">
        <ele>77.5</ele>
        <time>2015-07-06T18:41:04.931Z</time>
      </trkpt>
      <trkpt lat="48.85529" lon="2.2889">
        <ele>77.7</ele>
        <time>2015-07-06T18:41:06.008Z</time>
      </trkpt>
      <trkpt lat="48.85523" lon="2.28885">
        <ele>77.9</ele>
        <time>2015-07-06T18:41:08.033Z</time>
      </trkpt>
      <trkpt lat="48.8552" lon="2.28883">
        <ele>78.1</ele>
        <time>2015-07-06T18:41:09.036Z</time>
      </trkpt>
      <trkpt lat="48.85512" lon="2.28878">
        <ele>78.4</ele>
        <time>2015-07-06T18:41:12.025Z</time>
      </trkpt>
      <trkpt lat="48.85509" lon="2.28876">
        <ele>78.5</ele>
        <time>2015-07-06T18:41:13.043Z</time>
      </trkpt>
      <trkpt lat="48.85502" lon="2.2887">
        <ele>78.4</ele>
        <time>2015-07-06T18:41:18.011Z</time>
      </trkpt>
      <trkpt lat="48.85501" lon="2.28869">
        <ele>78.4</ele>
        <time>2015-07-06T18:41:19.018Z</time>
      </trkpt>
      <trkpt lat="48.85496" lon="2.28864">
        <ele>78.8</ele>
        <time>2015-07-06T18:41:27.200Z</time>
      </trkpt>
      <trkpt lat="48.85495" lon="2.28864">
        <ele>79</ele>
        <time>2015-07-06T18:41:27.982Z</time>
      </trkpt>
      <trkpt lat="48.85495" lon="2.28863">
        <ele>79.2</ele>
        <time>2015-07-06T18:41:28.986Z</time>
      </trkpt>
      <trkpt lat="48.85494" lon="2.28851">
        <ele>80.7</ele>
        <time>2015-07-06T18:41:40.961Z</time>
      </trkpt>
      <trkpt lat="48.85495" lon="2.28848">
        <ele>80.4</ele>
        <time>2015-07-06T18:41:42.276Z</time>
      </trkpt>
      <trkpt lat="48.855" lon="2.28838">
        <ele>79.5</ele>
        <time>2015-07-06T18:41:44.972Z</time>
      </trkpt>
      <trkpt lat="48.85503" lon="2.28836">
        <ele>79.1</ele>
        <time>2015-07-06T18:41:45.982Z</time>
      </trkpt>
      <trkpt lat="48.8551" lon="2.2883">
        <ele>78.5</ele>
        <time>2015-07-06T18:41:48.087Z</time>
      </trkpt>
      <trkpt lat="48.85514" lon="2.28827">
        <ele>78.1</ele>
        <time>2015-07-06T18:41:48.981Z</time>
      </trkpt>
      <trkpt lat="48.85521" lon="2.28821">
        <ele>77.9</ele>
        <time>2015-07-06T18:41:51Z</time>
      </trkpt>
      <trkpt lat="48.85525" lon="2.28818">
        <ele>77.6</ele>
        <time>2015-07-06T18:41:52.018Z</time>
      </trkpt>
      <trkpt lat="48.85529" lon="2.28815">
        <ele>77.5</ele>
        <time>2015-07-06T18:41:53.038Z</time>
      </trkpt>
      <trkpt lat="48.85533" lon="2.28811">
        <ele>77.5</ele>
        <time>2015-07-06T18:41:54.076Z</time>
      </trkpt>
      <trkpt lat="48.85537" lon="2.28808">
        <ele>77.2</ele>
        <time>2015-07-06T18:41:54.981Z</time>
      </trkpt>
      <trkpt lat="48.85541" lon="2.28804">
        <ele>77.2</ele>
        <time>2015-07-06T18:41:56.037Z</time>
      </trkpt>
      <trkpt lat="48.85544" lon="2.28801">
        <ele>77</ele>
        <time>2015-07-06T18:41:57.621Z</time>
      </trkpt>
      <trkpt lat="48.85549" lon="2.28798">
        <ele>76.8</ele>
        <time>2015-07-06T18:41:57.988Z</time>
      </trkpt>
      <trkpt lat="48.85553" lon="2.28794">
        <ele>76.6</ele>
        <time>2015-07-06T18:41:58.999Z</time>
      </trkpt>
      <trkpt lat="48.85557" lon="2.28792">
        <ele>76.4</ele>
        <time>2015-07-06T18:42:00.112Z</time>
      </trkpt>
      <trkpt lat="48.85561" lon="2.28789">
        <ele>76.5</ele>
        <time>2015-07-06T18:42:00.982Z</time>
      </trkpt>
      <trkpt lat="48.85565" lon="2.28786">
        <ele>76.7</ele>
        <time>2015-07-06T18:42:01.978Z</time>
      </trkpt>
      <trkpt lat="48.85572" lon="2.28778">
        <ele>76.6</ele>
        <time>2015-07-06T18:42:03.975Z</time>
      </trkpt>
      <trkpt lat="48.85576" lon="2.28773">
        <ele>76.3</ele>
        <time>2015-07-06T18:42:04.990Z</time>
      </trkpt>
      <trkpt lat="48.85583" lon="2.28766">
        <ele>76.1</ele>
        <time>2015-07-06T18:42:07.796Z</time>
      </trkpt>
      <trkpt lat="48.85587" lon="2.28762">
        <ele>75.8</ele>
        <time>2015-07-06T18:42:07.936Z</time>
      </trkpt>
      <trkpt lat="48.85594" lon="2.28755">
        <ele>75.7</ele>
        <time>2015-07-06T18:42:10.024Z</time>
      </trkpt>
      <trkpt lat="48.85597" lon="2.28752">
        <ele>75.8</ele>
        <time>2015-07-06T18:42:11.051Z</time>
      </trkpt>
      <trkpt lat="48.85594" lon="2.28742">
        <ele>74.4</ele>
        <time>2015-07-06T18:42:18.992Z</time>
      </trkpt>
      <trkpt lat="48.85592" lon="2.2874">
        <ele>74.3</ele>
        <time>2015-07-06T18:42:20.011Z</time>
      </trkpt>
      <trkpt lat="48.85585" lon="2.2874">
        <ele>73.5</ele>
        <time>2015-07-06T18:42:22.999Z</time>
      </trkpt>
      <trkpt lat="48.85582" lon="2.28741">
        <ele>73.6</ele>
        <time>2015-07-06T18:42:24.037Z</time>
      </trkpt>
      <trkpt lat="48.85576" lon="2.28746">
        <ele>73.3</ele>
        <time>2015-07-06T18:42:27.277Z</time>
      </trkpt>
      <trkpt lat="48.85574" lon="2.28747">
        <ele>73.3</ele>
        <time>2015-07-06T18:42:28.009Z</time>
      </trkpt>
      <trkpt lat="48.85566" lon="2.28753">
        <ele>73.4</ele>
        <time>2015-07-06T18:42:32.353Z</time>
      </trkpt>
      <trkpt lat="48.85565" lon="2.28755">
        <ele>73.6</ele>
        <time>2015-07-06T18:42:33.049Z</time>
      </trkpt>
      <trkpt lat="48.85556" lon="2.28751">
        <ele>74.4</ele>
        <time>2015-07-06T18:42:40.018Z</time>
      </trkpt>
      <trkpt lat="48.85556" lon="2.2875">
        <ele>74.2</ele>
        <time>2015-07-06T18:42:40.989Z</time>
      </trkpt>
      <trkpt lat="48.85556" lon="2.28749">
        <ele>74.7</ele>
        <time>2015-07-06T18:42:42.114Z</time>
      </trkpt>
      <trkpt lat="48.85555" lon="2.28748">
        <ele>75.2</ele>
        <time>2015-07-06T18:42:48.956Z</time>
      </trkpt>
      <trkpt lat="48.85554" lon="2.28744">
        <ele>77.1</ele>
        <time>2015-07-06T18:42:50.024Z</time>
      </trkpt>
      <trkpt lat="48.85553" lon="2.28742">
        <ele>77.2</ele>
        <time>2015-07-06T18:42:52.025Z</time>
      </trkpt>
      <trkpt lat="48.85554" lon="2.28742">
        <ele>77</ele>
        <time>2015-07-06T18:42:53.046Z</time>
      </trkpt>
      <trkpt lat="48.85554" lon="2.28741">
        <ele>77.3</ele>
        <time>2015-07-06T18:43:06.092Z</time>
      </trkpt>
      <trkpt lat="48.8555" lon="2.28741">
        <ele>77.1</ele>
        <time>2015-07-06T18:43:06.998Z</time>
      </trkpt>
      <trkpt lat="48.85542" lon="2.28737">
        <ele>76.8</ele>
        <time>2015-07-06T18:43:12.937Z</time>
      </trkpt>
      <trkpt lat="48.85541" lon="2.28735">
        <ele>76.6</ele>
        <time>2015-07-06T18:43:14.030Z</time>
      </trkpt>
      <trkpt lat="48.85535" lon="2.28728">
        <ele>76.7</ele>
        <time>2015-07-06T18:43:18.041Z</time>
      </trkpt>
      <trkpt lat="48.85534" lon="2.28726">
        <ele>76.7</ele>
        <time>2015-07-06T18:43:18.987Z</time>
      </trkpt>
      <trkpt lat="48.85528" lon="2.28719">
        <ele>76.7</ele>
        <time>2015-07-06T18:43:24.952Z</time>
      </trkpt>
      <trkpt lat="48.85527" lon="2.28717">
        <ele>76.7</ele>
        <time>2015-07-06T18:43:25.960Z</time>
      </trkpt>
      <trkpt lat="48.85522" lon="2.28707">
        <ele>76.8</ele>
        <time>2015-07-06T18:43:30.084Z</time>
      </trkpt>
      <trkpt lat="48.8552" lon="2.28705">
        <ele>76.8</ele>
        <time>2015-07-06T18:43:30.960Z</time>
      </trkpt>
      <trkpt lat="48.85516" lon="2.28695">
        <ele>77</ele>
        <time>2015-07-06T18:43:34.974Z</time>
      </trkpt>
      <trkpt lat="48.85515" lon="2.28693">
        <ele>77</ele>
        <time>2015-07-06T18:43:36.173Z</time>
      </trkpt>
      <trkpt lat="48.85511" lon="2.28685">
        <ele>77.3</ele>
        <time>2015-07-06T18:43:40.090Z</time>
      </trkpt>
      <trkpt lat="48.85509" lon="2.28683">
        <ele>77.2</ele>
        <time>2015-07-06T18:43:41.017Z</time>
      </trkpt>
      <trkpt lat="48.85503" lon="2.28675">
        <ele>77.1</ele>
        <time>2015-07-06T18:43:44.046Z</time>
      </trkpt>
      <trkpt lat="48.855" lon="2.28672">
        <ele>76.7</ele>
        <time>2015-07-06T18:43:45.045Z</time>
      </trkpt>
      <trkpt lat="48.85494" lon="2.28666">
        <ele>76.2</ele>
        <time>2015-07-06T18:43:46.989Z</time>
      </trkpt>
      <trkpt lat="48.85491" lon="2.28662">
        <ele>76</ele>
        <time>2015-07-06T18:43:48.052Z</time>
      </trkpt>
      <trkpt lat="48.85486" lon="2.28654">
        <ele>75.8</ele>
        <time>2015-07-06T18:43:49.944Z</time>
      </trkpt>
      <trkpt lat="48.85483" lon="2.2865">
        <ele>75.5</ele>
        <time>2015-07-06T18:43:51.013Z</time>
      </trkpt>
      <trkpt lat="48.85477" lon="2.28641">
        <ele>75.4</ele>
        <time>2015-07-06T18:43:53.174Z</time>
      </trkpt>
      <trkpt lat="48.85474" lon="2.28636">
        <ele>75.2</ele>
        <time>2015-07-06T18:43:54.037Z</time>
      </trkpt>
      <trkpt lat="48.85467" lon="2.2863">
        <ele>74.8</ele>
        <time>2015-07-06T18:43:56.064Z</time>
      </trkpt>
      <trkpt lat="48.85464" lon="2.28627">
        <ele>74.8</ele>
        <time>2015-07-06T18:43:57.068Z</time>
      </trkpt>
      <trkpt lat="48.85458" lon="2.28619">
        <ele>74.5</ele>
        <time>2015-07-06T18:43:58.980Z</time>
      </trkpt>
      <trkpt lat="48.85455" lon="2.28614">
        <ele>74.5</ele>
        <time>2015-07-06T18:44:00.057Z</time>
      </trkpt>
      <trkpt lat="48.85452" lon="2.28609">
        <ele>74.5</ele>
        <time>2015-07-06T18:44:01.047Z</time>
      </trkpt>
      <trkpt lat="48.85448" lon="2.28605">
        <ele>74.6</ele>
        <time>2015-07-06T18:44:02.056Z</time>
      </trkpt>
      <trkpt lat="48.85442" lon="2.28596">
        <ele>74.8</ele>
        <time>2015-07-06T18:44:03.972Z</time>
      </trkpt>
      <trkpt lat="48.85439" lon="2.28592">
        <ele>74.7</ele>
        <time>2015-07-06T18:44:05.008Z</time>
      </trkpt>
      <trkpt lat="48.85433" lon="2.28583">
        <ele>74.4</ele>
        <time>2015-07-06T18:44:07.019Z</time>
      </trkpt>
      <trkpt lat="48.8543" lon="2.28578">
        <ele>74.3</ele>
        <time>2015-07-06T18:44:08.076Z</time>
      </trkpt>
      <trkpt lat="48.85423" lon="2.2857">
        <ele>74.3</ele>
        <time>2015-07-06T18:44:10.046Z</time>
      </trkpt>
      <trkpt lat="48.8542" lon="2.28565">
        <ele>74.4</ele>
        <time>2015-07-06T18:44:10.949Z</time>
      </trkpt>
      <trkpt lat="48.85415" lon="2.28558">
        <ele>74.5</ele>
        <time>2015-07-06T18:44:13.531Z</time>
      </trkpt>
      <trkpt lat="48.85413" lon="2.28554">
        <ele>74.8</ele>
        <time>2015-07-06T18:44:14.010Z</time>
      </trkpt>
      <trkpt lat="48.8541" lon="2.28545">
        <ele>75.2</ele>
        <time>2015-07-06T18:44:17.287Z</time>
      </trkpt>
      <trkpt lat="48.85408" lon="2.28542">
        <ele>75.4</ele>
        <time>2015-07-06T18:44:17.977Z</time>
      </trkpt>
      <trkpt lat="48.85404" lon="2.28533">
        <ele>75.7</ele>
        <time>2015-07-06T18:44:20.947Z</time>
      </trkpt>
      <trkpt lat="48.85402" lon="2.2853">
        <ele>75.7</ele>
        <time>2015-07-06T18:44:21.982Z</time>
      </trkpt>
      <trkpt lat="48.85397" lon="2.28523">
        <ele>75.5</ele>
        <time>2015-07-06T18:44:24.115Z</time>
      </trkpt>
      <trkpt lat="48.85394" lon="2.2852">
        <ele>75.3</ele>
        <time>2015-07-06T18:44:24.977Z</time>
      </trkpt>
      <trkpt lat="48.85391" lon="2.28516">
        <ele>75.1</ele>
        <time>2015-07-06T18:44:25.973Z</time>
      </trkpt>
      <trkpt lat="48.85387" lon="2.28511">
        <ele>74.7</ele>
        <time>2015-07-06T18:44:27.020Z</time>
      </trkpt>
      <trkpt lat="48.85383" lon="2.28507">
        <ele>74.2</ele>
        <time>2015-07-06T18:44:27.988Z</time>
      </trkpt>
      <trkpt lat="48.85378" lon="2.28502">
        <ele>73.8</ele>
        <time>2015-07-06T18:44:28.989Z</time>
      </trkpt>
      <trkpt lat="48.85375" lon="2.28497">
        <ele>73.5</ele>
        <time>2015-07-06T18:44:30.040Z</time>
      </trkpt>
      <trkpt lat="48.85371" lon="2.28492">
        <ele>73.2</ele>
        <time>2015-07-06T18:44:31.031Z</time>
      </trkpt>
      <trkpt lat="48.85364" lon="2.28483">
        <ele>73.1</ele>
        <time>2015-07-06T18:44:33.043Z</time>
      </trkpt>
      <trkpt lat="48.85361" lon="2.28479">
        <ele>73</ele>
        <time>2015-07-06T18:44:33.990Z</time>
      </trkpt>
      <trkpt lat="48.85354" lon="2.28469">
        <ele>73.1</ele>
        <time>2015-07-06T18:44:36.033Z</time>
      </trkpt>
      <trkpt lat="48.85349" lon="2.28464">
        <ele>72.8</ele>
        <time>2015-07-06T18:44:37.047Z</time>
      </trkpt>
      <trkpt lat="48.85345" lon="2.2846">
        <ele>72.5</ele>
        <time>2015-07-06T18:44:38.063Z</time>
      </trkpt>
      <trkpt lat="48.85341" lon="2.28455">
        <ele>72.4</ele>
        <time>2015-07-06T18:44:38.986Z</time>
      </trkpt>
      <trkpt lat="48.85338" lon="2.28449">
        <ele>72.4</ele>
        <time>2015-07-06T18:44:39.999Z</time>
      </trkpt>
      <trkpt lat="48.85335" lon="2.28444">
        <ele>72.5</ele>
        <time>2015-07-06T18:44:40.999Z</time>
      </trkpt>
      <trkpt lat="48.85329" lon="2.28435">
        <ele>72.8</ele>
        <time>2015-07-06T18:44:43.042Z</time>
      </trkpt>
      <trkpt lat="48.85327" lon="2.28431">
        <ele>73</ele>
        <time>2015-07-06T18:44:44.047Z</time>
      </trkpt>
      <trkpt lat="48.8532" lon="2.28422">
        <ele>73.7</ele>
        <time>2015-07-06T18:44:45.996Z</time>
      </trkpt>
      <trkpt lat="48.85317" lon="2.28418">
        <ele>73.8</ele>
        <time>2015-07-06T18:44:47.054Z</time>
      </trkpt>
      <trkpt lat="48.85312" lon="2.2841">
        <ele>73.9</ele>
        <time>2015-07-06T18:44:48.996Z</time>
      </trkpt>
      <trkpt lat="48.85309" lon="2.28406">
        <ele>73.8</ele>
        <time>2015-07-06T18:44:49.984Z</time>
      </trkpt>
      <trkpt lat="48.85304" lon="2.28399">
        <ele>73.9</ele>
        <time>2015-07-06T18:44:52.851Z</time>
      </trkpt>
      <trkpt lat="48.85301" lon="2.28394">
        <ele>74</ele>
        <time>2015-07-06T18:44:53.043Z</time>
      </trkpt>
      <trkpt lat="48.85296" lon="2.28385">
        <ele>74.2</ele>
        <time>2015-07-06T18:44:55.066Z</time>
      </trkpt>
      <trkpt lat="48.85294" lon="2.28382">
        <ele>74.2</ele>
        <time>2015-07-06T18:44:55.998Z</time>
      </trkpt>
      <trkpt lat="48.85289" lon="2.28375">
        <ele>74.2</ele>
        <time>2015-07-06T18:44:57.875Z</time>
      </trkpt>
      <trkpt lat="48.85286" lon="2.28372">
        <ele>74.3</ele>
        <time>2015-07-06T18:44:59.005Z</time>
      </trkpt>
      <trkpt lat="48.85281" lon="2.28365">
        <ele>74.5</ele>
        <time>2015-07-06T18:45:00.967Z</time>
      </trkpt>
      <trkpt lat="48.85279" lon="2.28361">
        <ele>74.6</ele>
        <time>2015-07-06T18:45:01.986Z</time>
      </trkpt>
      <trkpt lat="48.85273" lon="2.28355">
        <ele>74.9</ele>
        <time>2015-07-06T18:45:04.005Z</time>
      </trkpt>
      <trkpt lat="48.8527" lon="2.28351">
        <ele>75</ele>
        <time>2015-07-06T18:45:05.009Z</time>
      </trkpt>
      <trkpt lat="48.85263" lon="2.28343">
        <ele>75.3</ele>
        <time>2015-07-06T18:45:07.028Z</time>
      </trkpt>
      <trkpt lat="48.8526" lon="2.28339">
        <ele>75.6</ele>
        <time>2015-07-06T18:45:08.039Z</time>
      </trkpt>
      <trkpt lat="48.85255" lon="2.2833">
        <ele>76.2</ele>
        <time>2015-07-06T18:45:10.001Z</time>
      </trkpt>
      <trkpt lat="48.85252" lon="2.28326">
        <ele>76.3</ele>
        <time>2015-07-06T18:45:10.984Z</time>
      </trkpt>
      <trkpt lat="48.85248" lon="2.2832">
        <ele>76.2</ele>
        <time>2015-07-06T18:45:12.057Z</time>
      </trkpt>
      <trkpt lat="48.85245" lon="2.28317">
        <ele>76.4</ele>
        <time>2015-07-06T18:45:12.976Z</time>
      </trkpt>
      <trkpt lat="48.85239" lon="2.28308">
        <ele>76.6</ele>
        <time>2015-07-06T18:45:14.984Z</time>
      </trkpt>
      <trkpt lat="48.85237" lon="2.28304">
        <ele>76.7</ele>
        <time>2015-07-06T18:45:15.994Z</time>
      </trkpt>
      <trkpt lat="48.85231" lon="2.28295">
        <ele>76.7</ele>
        <time>2015-07-06T18:45:18.123Z</time>
      </trkpt>
      <trkpt lat="48.85227" lon="2.2829">
        <ele>76.8</ele>
        <time>2015-07-06T18:45:19.017Z</time>
      </trkpt>
      <trkpt lat="48.85224" lon="2.28286">
        <ele>76.7</ele>
        <time>2015-07-06T18:45:20.033Z</time>
      </trkpt>
      <trkpt lat="48.85221" lon="2.28281">
        <ele>76.7</ele>
        <time>2015-07-06T18:45:21.061Z</time>
      </trkpt>
      <trkpt lat="48.85215" lon="2.28273">
        <ele>76.8</ele>
        <time>2015-07-06T18:45:22.974Z</time>
      </trkpt>
      <trkpt lat="48.85212" lon="2.28269">
        <ele>77.3</ele>
        <time>2015-07-06T18:45:24.053Z</time>
      </trkpt>
      <trkpt lat="48.85207" lon="2.28261">
        <ele>77.8</ele>
        <time>2015-07-06T18:45:25.987Z</time>
      </trkpt>
      <trkpt lat="48.85205" lon="2.28256">
        <ele>78</ele>
        <time>2015-07-06T18:45:27.011Z</time>
      </trkpt>
      <trkpt lat="48.85199" lon="2.28248">
        <ele>78.2</ele>
        <time>2015-07-06T18:45:29.043Z</time>
      </trkpt>
      <trkpt lat="48.85197" lon="2.28245">
        <ele>78.3</ele>
        <time>2015-07-06T18:45:30.092Z</time>
      </trkpt>
      <trkpt lat="48.85191" lon="2.28238">
        <ele>78.6</ele>
        <time>2015-07-06T18:45:32.280Z</time>
      </trkpt>
      <trkpt lat="48.85189" lon="2.28235">
        <ele>78.9</ele>
        <time>2015-07-06T18:45:32.997Z</time>
      </trkpt>
      <trkpt lat="48.85184" lon="2.28228">
        <ele>79.3</ele>
        <time>2015-07-06T18:45:35.015Z</time>
      </trkpt>
      <trkpt lat="48.85182" lon="2.28225">
        <ele>79.5</ele>
        <time>2015-07-06T18:45:36.061Z</time>
      </trkpt>
      <trkpt lat="48.85176" lon="2.28216">
        <ele>79.8</ele>
        <time>2015-07-06T18:45:39.014Z</time>
      </trkpt>
      <trkpt lat="48.85174" lon="2.28213">
        <ele>80</ele>
        <time>2015-07-06T18:45:40.004Z</time>
      </trkpt>
      <trkpt lat="48.85168" lon="2.28204">
        <ele>80.2</ele>
        <time>2015-07-06T18:45:43.040Z</time>
      </trkpt>
      <trkpt lat="48.85166" lon="2.28201">
        <ele>80.3</ele>
        <time>2015-07-06T18:45:44.047Z</time>
      </trkpt>
      <trkpt lat="48.85161" lon="2.28194">
        <ele>80.2</ele>
        <time>2015-07-06T18:45:46.320Z</time>
      </trkpt>
      <trkpt lat="48.85158" lon="2.2819">
        <ele>80.2</ele>
        <time>2015-07-06T18:45:47.059Z</time>
      </trkpt>
      <trkpt lat="48.85153" lon="2.28182">
        <ele>80.4</ele>
        <time>2015-07-06T18:45:48.994Z</time>
      </trkpt>
      <trkpt lat="48.8515" lon="2.28178">
        <ele>80.4</ele>
        <time>2015-07-06T18:45:50.018Z</time>
      </trkpt>
      <trkpt lat="48.85144" lon="2.2817">
        <ele>80.3</ele>
        <time>2015-07-06T18:45:52.047Z</time>
      </trkpt>
      <trkpt lat="48.85141" lon="2.28166">
        <ele>80.3</ele>
        <time>2015-07-06T18:45:53.042Z</time>
      </trkpt>
      <trkpt lat="48.85136" lon="2.28158">
        <ele>80.3</ele>
        <time>2015-07-06T18:45:54.961Z</time>
      </trkpt>
      <trkpt lat="48.85133" lon="2.28154">
        <ele>80.5</ele>
        <time>2015-07-06T18:45:55.979Z</time>
      </trkpt>
      <trkpt lat="48.85128" lon="2.28146">
        <ele>80.4</ele>
        <time>2015-07-06T18:45:58.011Z</time>
      </trkpt>
      <trkpt lat="48.85125" lon="2.28143">
        <ele>80.6</ele>
        <time>2015-07-06T18:45:59.027Z</time>
      </trkpt>
      <trkpt lat="48.8512" lon="2.28136">
        <ele>81</ele>
        <time>2015-07-06T18:46:01.419Z</time>
      </trkpt>
      <trkpt lat="48.85118" lon="2.28133">
        <ele>81.1</ele>
        <time>2015-07-06T18:46:02.041Z</time>
      </trkpt>
      <trkpt lat="48.85114" lon="2.28127">
        <ele>81.1</ele>
        <time>2015-07-06T18:46:03.979Z</time>
      </trkpt>
      <trkpt lat="48.8511" lon="2.28124">
        <ele>81.1</ele>
        <time>2015-07-06T18:46:04.993Z</time>
      </trkpt>
      <trkpt lat="48.85105" lon="2.28117">
        <ele>81</ele>
        <time>2015-07-06T18:46:07.057Z</time>
      </trkpt>
      <trkpt lat="48.85103" lon="2.28113">
        <ele>80.7</ele>
        <time>2015-07-06T18:46:07.947Z</time>
      </trkpt>
      <trkpt lat="48.85098" lon="2.28106">
        <ele>80.4</ele>
        <time>2015-07-06T18:46:10.032Z</time>
      </trkpt>
      <trkpt lat="48.85095" lon="2.28103">
        <ele>80.6</ele>
        <time>2015-07-06T18:46:11.048Z</time>
      </trkpt>
      <trkpt lat="48.8509" lon="2.28096">
        <ele>81</ele>
        <time>2015-07-06T18:46:12.990Z</time>
      </trkpt>
      <trkpt lat="48.85088" lon="2.28093">
        <ele>81.3</ele>
        <time>2015-07-06T18:46:13.993Z</time>
      </trkpt>
      <trkpt lat="48.85084" lon="2.28086">
        <ele>81.3</ele>
        <time>2015-07-06T18:46:16.664Z</time>
      </trkpt>
      <trkpt lat="48.85082" lon="2.28083">
        <ele>81.5</ele>
        <time>2015-07-06T18:46:16.997Z</time>
      </trkpt>
      <trkpt lat="48.85075" lon="2.28073">
        <ele>82</ele>
        <time>2015-07-06T18:46:21.049Z</time>
      </trkpt>
      <trkpt lat="48.85073" lon="2.2807">
        <ele>82.2</ele>
        <time>2015-07-06T18:46:21.955Z</time>
      </trkpt>
      <trkpt lat="48.85068" lon="2.28064">
        <ele>82.4</ele>
        <time>2015-07-06T18:46:24.043Z</time>
      </trkpt>
      <trkpt lat="48.85065" lon="2.2806">
        <ele>82.4</ele>
        <time>2015-07-06T18:46:25.057Z</time>
      </trkpt>
      <trkpt lat="48.85059" lon="2.28053">
        <ele>82.7</ele>
        <time>2015-07-06T18:46:27.427Z</time>
      </trkpt>
      <trkpt lat="48.85057" lon="2.2805">
        <ele>82.7</ele>
        <time>2015-07-06T18:46:27.997Z</time>
      </trkpt>
      <trkpt lat="48.85051" lon="2.28041">
        <ele>83.1</ele>
        <time>2015-07-06T18:46:30.991Z</time>
      </trkpt>
      <trkpt lat="48.85049" lon="2.28038">
        <ele>83.2</ele>
        <time>2015-07-06T18:46:32.008Z</time>
      </trkpt>
      <trkpt lat="48.85043" lon="2.28029">
        <ele>83.5</ele>
        <time>2015-07-06T18:46:36.058Z</time>
      </trkpt>
      <trkpt lat="48.85042" lon="2.28028">
        <ele>83.4</ele>
        <time>2015-07-06T18:46:36.994Z</time>
      </trkpt>
      <trkpt lat="48.85035" lon="2.28023">
        <ele>83.4</ele>
        <time>2015-07-06T18:46:44.059Z</time>
      </trkpt>
      <trkpt lat="48.85035" lon="2.28023">
        <ele>83.3</ele>
        <time>2015-07-06T18:46:45.070Z</time>
      </trkpt>
      <trkpt lat="48.85035" lon="2.28023">
        <ele>83.4</ele>
        <time>2015-07-06T18:47:12.058Z</time>
      </trkpt>
      <trkpt lat="48.85036" lon="2.28022">
        <ele>83.1</ele>
        <time>2015-07-06T18:47:13.062Z</time>
      </trkpt>
      <trkpt lat="48.85038" lon="2.28016">
        <ele>82.6</ele>
        <time>2015-07-06T18:47:20.019Z</time>
      </trkpt>
      <trkpt lat="48.85038" lon="2.28016">
        <ele>82.7</ele>
        <time>2015-07-06T18:47:20.983Z</time>
      </trkpt>
      <trkpt lat="48.85038" lon="2.28016">
        <ele>82.7</ele>
        <time>2015-07-06T18:47:29.010Z</time>
      </trkpt>
      <trkpt lat="48.85038" lon="2.28012">
        <ele>82.9</ele>
        <time>2015-07-06T18:47:30.085Z</time>
      </trkpt>
      <trkpt lat="48.85044" lon="2.28004">
        <ele>83.1</ele>
        <time>2015-07-06T18:47:51.046Z</time>
      </trkpt>
      <trkpt lat="48.85045" lon="2.28002">
        <ele>83.3</ele>
        <time>2015-07-06T18:47:52.050Z</time>
      </trkpt>
      <trkpt lat="48.8505" lon="2.27994">
        <ele>83.1</ele>
        <time>2015-07-06T18:47:55.028Z</time>
      </trkpt>
      <trkpt lat="48.85052" lon="2.2799">
        <ele>83</ele>
        <time>2015-07-06T18:47:56.037Z</time>
      </trkpt>
      <trkpt lat="48.85056" lon="2.27983">
        <ele>82.8</ele>
        <time>2015-07-06T18:47:57.956Z</time>
      </trkpt>
      <trkpt lat="48.85058" lon="2.27979">
        <ele>82.7</ele>
        <time>2015-07-06T18:47:58.990Z</time>
      </trkpt>
      <trkpt lat="48.85063" lon="2.27971">
        <ele>82.7</ele>
        <time>2015-07-06T18:48:00.985Z</time>
      </trkpt>
      <trkpt lat="48.85066" lon="2.27967">
        <ele>82.8</ele>
        <time>2015-07-06T18:48:01.981Z</time>
      </trkpt>
      <trkpt lat="48.8507" lon="2.27957">
        <ele>82.9</ele>
        <time>2015-07-06T18:48:03.996Z</time>
      </trkpt>
      <trkpt lat="48.85073" lon="2.27953">
        <ele>82.9</ele>
        <time>2015-07-06T18:48:05.007Z</time>
      </trkpt>
      <trkpt lat="48.85077" lon="2.27943">
        <ele>82.7</ele>
        <time>2015-07-06T18:48:07.809Z</time>
      </trkpt>
      <trkpt lat="48.8508" lon="2.27938">
        <ele>82.7</ele>
        <time>2015-07-06T18:48:07.938Z</time>
      </trkpt>
      <trkpt lat="48.85085" lon="2.27928">
        <ele>82.7</ele>
        <time>2015-07-06T18:48:09.973Z</time>
      </trkpt>
      <trkpt lat="48.85088" lon="2.27924">
        <ele>82.7</ele>
        <time>2015-07-06T18:48:11.005Z</time>
      </trkpt>
      <trkpt lat="48.85094" lon="2.27914">
        <ele>82.7</ele>
        <time>2015-07-06T18:48:12.944Z</time>
      </trkpt>
      <trkpt lat="48.85097" lon="2.27909">
        <ele>82.7</ele>
        <time>2015-07-06T18:48:13.967Z</time>
      </trkpt>
      <trkpt lat="48.85101" lon="2.27904">
        <ele>82.7</ele>
        <time>2015-07-06T18:48:14.987Z</time>
      </trkpt>
      <trkpt lat="48.85105" lon="2.27899">
        <ele>82.8</ele>
        <time>2015-07-06T18:48:15.989Z</time>
      </trkpt>
      <trkpt lat="48.85108" lon="2.27894">
        <ele>82.9</ele>
        <time>2015-07-06T18:48:17.885Z</time>
      </trkpt>
      <trkpt lat="48.85112" lon="2.27889">
        <ele>82.9</ele>
        <time>2015-07-06T18:48:18.003Z</time>
      </trkpt>
      <trkpt lat="48.85119" lon="2.27881">
        <ele>83</ele>
        <time>2015-07-06T18:48:20.016Z</time>
      </trkpt>
      <trkpt lat="48.85122" lon="2.27877">
        <ele>82.9</ele>
        <time>2015-07-06T18:48:20.977Z</time>
      </trkpt>
      <trkpt lat="48.85127" lon="2.2787">
        <ele>82.9</ele>
        <time>2015-07-06T18:48:22.997Z</time>
      </trkpt>
      <trkpt lat="48.85128" lon="2.27867">
        <ele>82.9</ele>
        <time>2015-07-06T18:48:24.006Z</time>
      </trkpt>
      <trkpt lat="48.85128" lon="2.27855">
        <ele>82.9</ele>
        <time>2015-07-06T18:48:57.008Z</time>
      </trkpt>
      <trkpt lat="48.85129" lon="2.27853">
        <ele>82.7</ele>
        <time>2015-07-06T18:48:58.021Z</time>
      </trkpt>
      <trkpt lat="48.85132" lon="2.27841">
        <ele>83.5</ele>
        <time>2015-07-06T18:49:03.002Z</time>
      </trkpt>
      <trkpt lat="48.85132" lon="2.27839">
        <ele>83.5</ele>
        <time>2015-07-06T18:49:03.972Z</time>
      </trkpt>
      <trkpt lat="48.85134" lon="2.27836">
        <ele>83.8</ele>
        <time>2015-07-06T18:49:07.975Z</time>
      </trkpt>
      <trkpt lat="48.85134" lon="2.27836">
        <ele>83.8</ele>
        <time>2015-07-06T18:49:08.953Z</time>
      </trkpt>
      <trkpt lat="48.85135" lon="2.27835">
        <ele>84</ele>
        <time>2015-07-06T18:49:09.951Z</time>
      </trkpt>
      <trkpt lat="48.85127" lon="2.27828">
        <ele>83.5</ele>
        <time>2015-07-06T18:49:19.959Z</time>
      </trkpt>
      <trkpt lat="48.85125" lon="2.27826">
        <ele>83.4</ele>
        <time>2015-07-06T18:49:20.969Z</time>
      </trkpt>
      <trkpt lat="48.85119" lon="2.27819">
        <ele>83.3</ele>
        <time>2015-07-06T18:49:23.002Z</time>
      </trkpt>
      <trkpt lat="48.85116" lon="2.27815">
        <ele>83.2</ele>
        <time>2015-07-06T18:49:24.019Z</time>
      </trkpt>
      <trkpt lat="48.85109" lon="2.27807">
        <ele>83.3</ele>
        <time>2015-07-06T18:49:25.940Z</time>
      </trkpt>
      <trkpt lat="48.85106" lon="2.27802">
        <ele>83.3</ele>
        <time>2015-07-06T18:49:26.948Z</time>
      </trkpt>
      <trkpt lat="48.85102" lon="2.27797">
        <ele>83.4</ele>
        <time>2015-07-06T18:49:27.977Z</time>
      </trkpt>
      <trkpt lat="48.85098" lon="2.27791">
        <ele>83.4</ele>
        <time>2015-07-06T18:49:28.931Z</time>
      </trkpt>
      <trkpt lat="48.85094" lon="2.27786">
        <ele>83.3</ele>
        <time>2015-07-06T18:49:30.042Z</time>
      </trkpt>
      <trkpt lat="48.85091" lon="2.2778">
        <ele>83.4</ele>
        <time>2015-07-06T18:49:30.941Z</time>
      </trkpt>
      <trkpt lat="48.85088" lon="2.27775">
        <ele>83.4</ele>
        <time>2015-07-06T18:49:31.960Z</time>
      </trkpt>
      <trkpt lat="48.85084" lon="2.27769">
        <ele>83.5</ele>
        <time>2015-07-06T18:49:32.987Z</time>
      </trkpt>
      <trkpt lat="48.85081" lon="2.27763">
        <ele>83.5</ele>
        <time>2015-07-06T18:49:34.003Z</time>
      </trkpt>
      <trkpt lat="48.85078" lon="2.27758">
        <ele>83.6</ele>
        <time>2015-07-06T18:49:35.008Z</time>
      </trkpt>
      <trkpt lat="48.85074" lon="2.27753">
        <ele>83.6</ele>
        <time>2015-07-06T18:49:36.012Z</time>
      </trkpt>
      <trkpt lat="48.8507" lon="2.27748">
        <ele>83.5</ele>
        <time>2015-07-06T18:49:37.026Z</time>
      </trkpt>
      <trkpt lat="48.85066" lon="2.27743">
        <ele>83.4</ele>
        <time>2015-07-06T18:49:37.018Z</time>
      </trkpt>
      <trkpt lat="48.85062" lon="2.27739">
        <ele>83.4</ele>
        <time>2015-07-06T18:49:38.941Z</time>
      </trkpt>
      <trkpt lat="48.85059" lon="2.27733">
        <ele>83.5</ele>
        <time>2015-07-06T18:49:40.152Z</time>
      </trkpt>
      <trkpt lat="48.85055" lon="2.27727">
        <ele>83.6</ele>
        <time>2015-07-06T18:49:40.981Z</time>
      </trkpt>
      <trkpt lat="48.85051" lon="2.27721">
        <ele>83.8</ele>
        <time>2015-07-06T18:49:42.109Z</time>
      </trkpt>
      <trkpt lat="48.85048" lon="2.27714">
        <ele>83.9</ele>
        <time>2015-07-06T18:49:43.021Z</time>
      </trkpt>
      <trkpt lat="48.85044" lon="2.27709">
        <ele>84.1</ele>
        <time>2015-07-06T18:49:44.036Z</time>
      </trkpt>
      <trkpt lat="48.8504" lon="2.27704">
        <ele>84.2</ele>
        <time>2015-07-06T18:49:44.950Z</time>
      </trkpt>
      <trkpt lat="48.85036" lon="2.27698">
        <ele>84.4</ele>
        <time>2015-07-06T18:49:45.955Z</time>
      </trkpt>
      <trkpt lat="48.85032" lon="2.27692">
        <ele>84.3</ele>
        <time>2015-07-06T18:49:46.978Z</time>
      </trkpt>
      <trkpt lat="48.85028" lon="2.27687">
        <ele>84.3</ele>
        <time>2015-07-06T18:49:48.061Z</time>
      </trkpt>
      <trkpt lat="48.85024" lon="2.27681">
        <ele>84.3</ele>
        <time>2015-07-06T18:49:48.936Z</time>
      </trkpt>
      <trkpt lat="48.8502" lon="2.27675">
        <ele>84.4</ele>
        <time>2015-07-06T18:49:49.965Z</time>
      </trkpt>
      <trkpt lat="48.85016" lon="2.27668">
        <ele>84.6</ele>
        <time>2015-07-06T18:49:50.983Z</time>
      </trkpt>
      <trkpt lat="48.85012" lon="2.27661">
        <ele>84.7</ele>
        <time>2015-07-06T18:49:52.005Z</time>
      </trkpt>
      <trkpt lat="48.85005" lon="2.27657">
        <ele>84.6</ele>
        <time>2015-07-06T18:49:53.010Z</time>
      </trkpt>
      <trkpt lat="48.85001" lon="2.27652">
        <ele>84.5</ele>
        <time>2015-07-06T18:49:54.033Z</time>
      </trkpt>
      <trkpt lat="48.84995" lon="2.27648">
        <ele>84.5</ele>
        <time>2015-07-06T18:49:54.955Z</time>
      </trkpt>
      <trkpt lat="48.8499" lon="2.27644">
        <ele>84.8</ele>
        <time>2015-07-06T18:49:55.971Z</time>
      </trkpt>
      <trkpt lat="48.84985" lon="2.2764">
        <ele>84.8</ele>
        <time>2015-07-06T18:49:56.987Z</time>
      </trkpt>
      <trkpt lat="48.8498" lon="2.27635">
        <ele>84.8</ele>
        <time>2015-07-06T18:49:58.028Z</time>
      </trkpt>
      <trkpt lat="48.84975" lon="2.2763">
        <ele>84.9</ele>
        <time>2015-07-06T18:49:58.929Z</time>
      </trkpt>
      <trkpt lat="48.8497" lon="2.27625">
        <ele>84.9</ele>
        <time>2015-07-06T18:49:59.988Z</time>
      </trkpt>
      <trkpt lat="48.84965" lon="2.2762">
        <ele>85.2</ele>
        <time>2015-07-06T18:50:00.997Z</time>
      </trkpt>
      <trkpt lat="48.8496" lon="2.27615">
        <ele>85.2</ele>
        <time>2015-07-06T18:50:02.018Z</time>
      </trkpt>
      <trkpt lat="48.84955" lon="2.27609">
        <ele>85.3</ele>
        <time>2015-07-06T18:50:03.029Z</time>
      </trkpt>
      <trkpt lat="48.8495" lon="2.27604">
        <ele>85.3</ele>
        <time>2015-07-06T18:50:03.937Z</time>
      </trkpt>
      <trkpt lat="48.84945" lon="2.27598">
        <ele>85.3</ele>
        <time>2015-07-06T18:50:04.940Z</time>
      </trkpt>
      <trkpt lat="48.8494" lon="2.27593">
        <ele>85.5</ele>
        <time>2015-07-06T18:50:05.985Z</time>
      </trkpt>
      <trkpt lat="48.84935" lon="2.27587">
        <ele>85.7</ele>
        <time>2015-07-06T18:50:06.979Z</time>
      </trkpt>
      <trkpt lat="48.8493" lon="2.27581">
        <ele>85.7</ele>
        <time>2015-07-06T18:50:07.995Z</time>
      </trkpt>
      <trkpt lat="48.84925" lon="2.27576">
        <ele>85.7</ele>
        <time>2015-07-06T18:50:09.007Z</time>
      </trkpt>
      <trkpt lat="48.8492" lon="2.2757">
        <ele>85.8</ele>
        <time>2015-07-06T18:50:10.005Z</time>
      </trkpt>
      <trkpt lat="48.84914" lon="2.27564">
        <ele>85.6</ele>
        <time>2015-07-06T18:50:11.009Z</time>
      </trkpt>
      <trkpt lat="48.84908" lon="2.27558">
        <ele>85.6</ele>
        <time>2015-07-06T18:50:12.092Z</time>
      </trkpt>
      <trkpt lat="48.84902" lon="2.27552">
        <ele>85.6</ele>
        <time>2015-07-06T18:50:12.931Z</time>
      </trkpt>
      <trkpt lat="48.84896" lon="2.27546">
        <ele>85.6</ele>
        <time>2015-07-06T18:50:14.027Z</time>
      </trkpt>
      <trkpt lat="48.8489" lon="2.27541">
        <ele>85.6</ele>
        <time>2015-07-06T18:50:14.943Z</time>
      </trkpt>
      <trkpt lat="48.84884" lon="2.27536">
        <ele>85.5</ele>
        <time>2015-07-06T18:50:15.980Z</time>
      </trkpt>
      <trkpt lat="48.84879" lon="2.27531">
        <ele>85.6</ele>
        <time>2015-07-06T18:50:16.989Z</time>
      </trkpt>
      <trkpt lat="48.84874" lon="2.27525">
        <ele>85.7</ele>
        <time>2015-07-06T18:50:18.011Z</time>
      </trkpt>
      <trkpt lat="48.84869" lon="2.2752">
        <ele>85.5</ele>
        <time>2015-07-06T18:50:18.973Z</time>
      </trkpt>
      <trkpt lat="48.84865" lon="2.27513">
        <ele>85.1</ele>
        <time>2015-07-06T18:50:19.939Z</time>
      </trkpt>
      <trkpt lat="48.8486" lon="2.27508">
        <ele>85.1</ele>
        <time>2015-07-06T18:50:20.965Z</time>
      </trkpt>
      <trkpt lat="48.84856" lon="2.27505">
        <ele>85.2</ele>
        <time>2015-07-06T18:50:22.005Z</time>
      </trkpt>
      <trkpt lat="48.84851" lon="2.27501">
        <ele>85.2</ele>
        <time>2015-07-06T18:50:23.015Z</time>
      </trkpt>
      <trkpt lat="48.84846" lon="2.27497">
        <ele>85.3</ele>
        <time>2015-07-06T18:50:24.159Z</time>
      </trkpt>
      <trkpt lat="48.84841" lon="2.27493">
        <ele>85.3</ele>
        <time>2015-07-06T18:50:24.943Z</time>
      </trkpt>
      <trkpt lat="48.84835" lon="2.27488">
        <ele>85.3</ele>
        <time>2015-07-06T18:50:25.941Z</time>
      </trkpt>
      <trkpt lat="48.8483" lon="2.27483">
        <ele>85.5</ele>
        <time>2015-07-06T18:50:26.954Z</time>
      </trkpt>
      <trkpt lat="48.84824" lon="2.27477">
        <ele>85.4</ele>
        <time>2015-07-06T18:50:27.959Z</time>
      </trkpt>
      <trkpt lat="48.84819" lon="2.27471">
        <ele>85.4</ele>
        <time>2015-07-06T18:50:28.981Z</time>
      </trkpt>
      <trkpt lat="48.84813" lon="2.27466">
        <ele>85.5</ele>
        <time>2015-07-06T18:50:30.034Z</time>
      </trkpt>
      <trkpt lat="48.84808" lon="2.27461">
        <ele>85.5</ele>
        <time>2015-07-06T18:50:30.933Z</time>
      </trkpt>
      <trkpt lat="48.84802" lon="2.27456">
        <ele>85.6</ele>
        <time>2015-07-06T18:50:31.922Z</time>
      </trkpt>
      <trkpt lat="48.84796" lon="2.2745">
        <ele>85.9</ele>
        <time>2015-07-06T18:50:32.947Z</time>
      </trkpt>
      <trkpt lat="48.8479" lon="2.27445">
        <ele>86</ele>
        <time>2015-07-06T18:50:33.955Z</time>
      </trkpt>
      <trkpt lat="48.84784" lon="2.27439">
        <ele>86.2</ele>
        <time>2015-07-06T18:50:34.960Z</time>
      </trkpt>
      <trkpt lat="48.84778" lon="2.27433">
        <ele>86.6</ele>
        <time>2015-07-06T18:50:36Z</time>
      </trkpt>
      <trkpt lat="48.84773" lon="2.27427">
        <ele>87</ele>
        <time>2015-07-06T18:50:37.006Z</time>
      </trkpt>
      <trkpt lat="48.84767" lon="2.27421">
        <ele>87.2</ele>
        <time>2015-07-06T18:50:38.015Z</time>
      </trkpt>
      <trkpt lat="48.84762" lon="2.27415">
        <ele>87.3</ele>
        <time>2015-07-06T18:50:39.026Z</time>
      </trkpt>
      <trkpt lat="48.84757" lon="2.27409">
        <ele>88.3</ele>
        <time>2015-07-06T18:50:39.950Z</time>
      </trkpt>
      <trkpt lat="48.84752" lon="2.27403">
        <ele>88.3</ele>
        <time>2015-07-06T18:50:40.973Z</time>
      </trkpt>
      <trkpt lat="48.84748" lon="2.27397">
        <ele>88.2</ele>
        <time>2015-07-06T18:50:42.003Z</time>
      </trkpt>
      <trkpt lat="48.84744" lon="2.27391">
        <ele>88.2</ele>
        <time>2015-07-06T18:50:43.010Z</time>
      </trkpt>
      <trkpt lat="48.84741" lon="2.27384">
        <ele>88.5</ele>
        <time>2015-07-06T18:50:44.025Z</time>
      </trkpt>
      <trkpt lat="48.84738" lon="2.27378">
        <ele>88.6</ele>
        <time>2015-07-06T18:50:45.029Z</time>
      </trkpt>
      <trkpt lat="48.84735" lon="2.27374">
        <ele>89</ele>
        <time>2015-07-06T18:50:46.038Z</time>
      </trkpt>
      <trkpt lat="48.8473" lon="2.27371">
        <ele>90</ele>
        <time>2015-07-06T18:50:46.945Z</time>
      </trkpt>
      <trkpt lat="48.84723" lon="2.27365">
        <ele>89.9</ele>
        <time>2015-07-06T18:50:48.971Z</time>
      </trkpt>
      <trkpt lat="48.8472" lon="2.27363">
        <ele>89.9</ele>
        <time>2015-07-06T18:50:49.976Z</time>
      </trkpt>
      <trkpt lat="48.84713" lon="2.27357">
        <ele>89.1</ele>
        <time>2015-07-06T18:50:52.021Z</time>
      </trkpt>
      <trkpt lat="48.84709" lon="2.27353">
        <ele>88.9</ele>
        <time>2015-07-06T18:50:53.037Z</time>
      </trkpt>
      <trkpt lat="48.84702" lon="2.27347">
        <ele>88.7</ele>
        <time>2015-07-06T18:50:54.967Z</time>
      </trkpt>
      <trkpt lat="48.84698" lon="2.27345">
        <ele>88.5</ele>
        <time>2015-07-06T18:50:55.971Z</time>
      </trkpt>
      <trkpt lat="48.84692" lon="2.2734">
        <ele>87.9</ele>
        <time>2015-07-06T18:50:58.022Z</time>
      </trkpt>
      <trkpt lat="48.84689" lon="2.27339">
        <ele>87.8</ele>
        <time>2015-07-06T18:50:59.055Z</time>
      </trkpt>
      <trkpt lat="48.84693" lon="2.27349">
        <ele>83.8</ele>
        <time>2015-07-06T18:51:12.001Z</time>
      </trkpt>
      <trkpt lat="48.84695" lon="2.2735">
        <ele>82.2</ele>
        <time>2015-07-06T18:51:13.013Z</time>
      </trkpt>
      <trkpt lat="48.84703" lon="2.27352">
        <ele>80.5</ele>
        <time>2015-07-06T18:51:16.999Z</time>
      </trkpt>
      <trkpt lat="48.84706" lon="2.2735">
        <ele>80.6</ele>
        <time>2015-07-06T18:51:18.017Z</time>
      </trkpt>
      <trkpt lat="48.84712" lon="2.2735">
        <ele>79.5</ele>
        <time>2015-07-06T18:51:21.040Z</time>
      </trkpt>
      <trkpt lat="48.84715" lon="2.2735">
        <ele>78.7</ele>
        <time>2015-07-06T18:51:21.964Z</time>
      </trkpt>
      <trkpt lat="48.84723" lon="2.27353">
        <ele>77.7</ele>
        <time>2015-07-06T18:51:27.929Z</time>
      </trkpt>
      <trkpt lat="48.84723" lon="2.27353">
        <ele>77.5</ele>
        <time>2015-07-06T18:51:28.983Z</time>
      </trkpt>
      <trkpt lat="48.84724" lon="2.27353">
        <ele>77.1</ele>
        <time>2015-07-06T18:51:37.044Z</time>
      </trkpt>
      <trkpt lat="48.84727" lon="2.27352">
        <ele>76.9</ele>
        <time>2015-07-06T18:51:37.965Z</time>
      </trkpt>
      <trkpt lat="48.84729" lon="2.27349">
        <ele>77.5</ele>
        <time>2015-07-06T18:51:45.010Z</time>
      </trkpt>
      <trkpt lat="48.8473" lon="2.27348">
        <ele>77.6</ele>
        <time>2015-07-06T18:51:45.980Z</time>
      </trkpt>
      <trkpt lat="48.8473" lon="2.27347">
        <ele>77.6</ele>
        <time>2015-07-06T18:51:48.028Z</time>
      </trkpt>
      <trkpt lat="48.8473" lon="2.27346">
        <ele>77.2</ele>
        <time>2015-07-06T18:51:49.047Z</time>
      </trkpt>
      <trkpt lat="48.84727" lon="2.27333">
        <ele>76.1</ele>
        <time>2015-07-06T18:51:58.010Z</time>
      </trkpt>
      <trkpt lat="48.84727" lon="2.27332">
        <ele>76.3</ele>
        <time>2015-07-06T18:51:59.021Z</time>
      </trkpt>
      <trkpt lat="48.84727" lon="2.27331">
        <ele>76.4</ele>
        <time>2015-07-06T18:52:00.159Z</time>
      </trkpt>
      <trkpt lat="48.84728" lon="2.27331">
        <ele>76.6</ele>
        <time>2015-07-06T18:52:00.953Z</time>
      </trkpt>
      <trkpt lat="48.84728" lon="2.2733">
        <ele>76.6</ele>
        <time>2015-07-06T18:52:01.962Z</time>
      </trkpt>
      <trkpt lat="48.84728" lon="2.27329">
        <ele>76.7</ele>
        <time>2015-07-06T18:52:02.972Z</time>
      </trkpt>
      <trkpt lat="48.84729" lon="2.27328">
        <ele>76.8</ele>
        <time>2015-07-06T18:52:23.029Z</time>
      </trkpt>
      <trkpt lat="48.84734" lon="2.27325">
        <ele>78.5</ele>
        <time>2015-07-06T18:52:24.053Z</time>
      </trkpt>
      <trkpt lat="48.84738" lon="2.2732">
        <ele>81.4</ele>
        <time>2015-07-06T18:52:50.013Z</time>
      </trkpt>
      <trkpt lat="48.84739" lon="2.27319">
        <ele>81.1</ele>
        <time>2015-07-06T18:52:50.920Z</time>
      </trkpt>
      <trkpt lat="48.84739" lon="2.27318">
        <ele>81.1</ele>
        <time>2015-07-06T18:52:54.925Z</time>
      </trkpt>
      <trkpt lat="48.84741" lon="2.27317">
        <ele>81.2</ele>
        <time>2015-07-06T18:52:55.952Z</time>
      </trkpt>
      <trkpt lat="48.84737" lon="2.27329">
        <ele>82.1</ele>
        <time>2015-07-06T18:54:24.006Z</time>
      </trkpt>
      <trkpt lat="48.84737" lon="2.27329">
        <ele>82.2</ele>
        <time>2015-07-06T18:54:24.984Z</time>
      </trkpt>
      <trkpt lat="48.84737" lon="2.27329">
        <ele>82.1</ele>
        <time>2015-07-06T18:54:39.006Z</time>
      </trkpt>
      <trkpt lat="48.84738" lon="2.27328">
        <ele>82.4</ele>
        <time>2015-07-06T18:54:39.898Z</time>
      </trkpt>
      <trkpt lat="48.84741" lon="2.27327">
        <ele>83.4</ele>
        <time>2015-07-06T18:54:44.966Z</time>
      </trkpt>
      <trkpt lat="48.84741" lon="2.27327">
        <ele>83.6</ele>
        <time>2015-07-06T18:54:45.952Z</time>
      </trkpt>
      <trkpt lat="48.84741" lon="2.27327">
        <ele>83.6</ele>
        <time>2015-07-06T18:54:48.928Z</time>
      </trkpt>
      <trkpt lat="48.8474" lon="2.27328">
        <ele>83.8</ele>
        <time>2015-07-06T18:54:49.944Z</time>
      </trkpt>
      <trkpt lat="48.84741" lon="2.27328">
        <ele>84.6</ele>
        <time>2015-07-06T18:55:01.940Z</time>
      </trkpt>
      <trkpt lat="48.84741" lon="2.27327">
        <ele>84.8</ele>
        <time>2015-07-06T18:55:02.967Z</time>
      </trkpt>
      <trkpt lat="48.8474" lon="2.27327">
        <ele>84.5</ele>
        <time>2015-07-06T18:55:03.995Z</time>
      </trkpt>
      <trkpt lat="48.84735" lon="2.27333">
        <ele>94.5</ele>
        <time>2015-07-06T18:55:26.009Z</time>
      </trkpt>
      <trkpt lat="48.84735" lon="2.27333">
        <ele>94.9</ele>
        <time>2015-07-06T18:55:26.934Z</time>
      </trkpt>
      <trkpt lat="48.84735" lon="2.27333">
        <ele>95.3</ele>
        <time>2015-07-06T18:55:53.037Z</time>
      </trkpt>
      <trkpt lat="48.8473" lon="2.27338">
        <ele>96</ele>
        <time>2015-07-06T18:55:54.028Z</time>
      </trkpt>
      <trkpt lat="48.8473" lon="2.27338">
        <ele>96.1</ele>
        <time>2015-07-06T18:55:54.994Z</time>
      </trkpt>
      <trkpt lat="48.8473" lon="2.27338">
        <ele>96.2</ele>
        <time>2015-07-06T18:55:56.003Z</time>
      </trkpt>
      <trkpt lat="48.8473" lon="2.27339">
        <ele>96.2</ele>
        <time>2015-07-06T18:56:00.072Z</time>
      </trkpt>
      <trkpt lat="48.84729" lon="2.27337">
        <ele>96.3</ele>
        <time>2015-07-06T18:56:00.945Z</time>
      </trkpt>
      <trkpt lat="48.8473" lon="2.27325">
        <ele>96.2</ele>
        <time>2015-07-06T18:56:06.961Z</time>
      </trkpt>
      <trkpt lat="48.84731" lon="2.27322">
        <ele>96.1</ele>
        <time>2015-07-06T18:56:07.953Z</time>
      </trkpt>
      <trkpt lat="48.84732" lon="2.27311">
        <ele>95.9</ele>
        <time>2015-07-06T18:56:10.983Z</time>
      </trkpt>
      <trkpt lat="48.84732" lon="2.27307">
        <ele>95.9</ele>
        <time>2015-07-06T18:56:12.011Z</time>
      </trkpt>
      <trkpt lat="48.84732" lon="2.27294">
        <ele>95.8</ele>
        <time>2015-07-06T18:56:14.963Z</time>
      </trkpt>
      <trkpt lat="48.84731" lon="2.27288">
        <ele>95.6</ele>
        <time>2015-07-06T18:56:15.980Z</time>
      </trkpt>
      <trkpt lat="48.84728" lon="2.27279">
        <ele>95.5</ele>
        <time>2015-07-06T18:56:16.984Z</time>
      </trkpt>
      <trkpt lat="48.84726" lon="2.27271">
        <ele>95.4</ele>
        <time>2015-07-06T18:56:18.003Z</time>
      </trkpt>
      <trkpt lat="48.84721" lon="2.27261">
        <ele>93.7</ele>
        <time>2015-07-06T18:56:19.010Z</time>
      </trkpt>
      <trkpt lat="48.84715" lon="2.27253">
        <ele>91.9</ele>
        <time>2015-07-06T18:56:20.007Z</time>
      </trkpt>
      <trkpt lat="48.8471" lon="2.27245">
        <ele>91.3</ele>
        <time>2015-07-06T18:56:20.918Z</time>
      </trkpt>
      <trkpt lat="48.84708" lon="2.27237">
        <ele>91.3</ele>
        <time>2015-07-06T18:56:21.997Z</time>
      </trkpt>
      <trkpt lat="48.84705" lon="2.27228">
        <ele>91.4</ele>
        <time>2015-07-06T18:56:22.637Z</time>
      </trkpt>
      <trkpt lat="48.84701" lon="2.2722">
        <ele>91.5</ele>
        <time>2015-07-06T18:56:24.009Z</time>
      </trkpt>
      <trkpt lat="48.84698" lon="2.27212">
        <ele>91.5</ele>
        <time>2015-07-06T18:56:25.008Z</time>
      </trkpt>
      <trkpt lat="48.84695" lon="2.27204">
        <ele>91.4</ele>
        <time>2015-07-06T18:56:26.020Z</time>
      </trkpt>
      <trkpt lat="48.84693" lon="2.27198">
        <ele>91.4</ele>
        <time>2015-07-06T18:56:27.428Z</time>
      </trkpt>
      <trkpt lat="48.84689" lon="2.2719">
        <ele>91.3</ele>
        <time>2015-07-06T18:56:28.047Z</time>
      </trkpt>
      <trkpt lat="48.84686" lon="2.27182">
        <ele>91.4</ele>
        <time>2015-07-06T18:56:29.060Z</time>
      </trkpt>
      <trkpt lat="48.84684" lon="2.27176">
        <ele>91.3</ele>
        <time>2015-07-06T18:56:30.066Z</time>
      </trkpt>
      <trkpt lat="48.84678" lon="2.27167">
        <ele>91.7</ele>
        <time>2015-07-06T18:56:30.975Z</time>
      </trkpt>
      <trkpt lat="48.84675" lon="2.27161">
        <ele>91.9</ele>
        <time>2015-07-06T18:56:32.006Z</time>
      </trkpt>
      <trkpt lat="48.84672" lon="2.27155">
        <ele>92.1</ele>
        <time>2015-07-06T18:56:33.011Z</time>
      </trkpt>
      <trkpt lat="48.8467" lon="2.27149">
        <ele>92.3</ele>
        <time>2015-07-06T18:56:33.942Z</time>
      </trkpt>
      <trkpt lat="48.84669" lon="2.27142">
        <ele>92.6</ele>
        <time>2015-07-06T18:56:35.060Z</time>
      </trkpt>
      <trkpt lat="48.84667" lon="2.27134">
        <ele>92.2</ele>
        <time>2015-07-06T18:56:36.074Z</time>
      </trkpt>
      <trkpt lat="48.84666" lon="2.27126">
        <ele>91.8</ele>
        <time>2015-07-06T18:56:36.951Z</time>
      </trkpt>
      <trkpt lat="48.84665" lon="2.2712">
        <ele>91.3</ele>
        <time>2015-07-06T18:56:37.951Z</time>
      </trkpt>
      <trkpt lat="48.84663" lon="2.27113">
        <ele>90.9</ele>
        <time>2015-07-06T18:56:38.958Z</time>
      </trkpt>
      <trkpt lat="48.8466" lon="2.27106">
        <ele>90.5</ele>
        <time>2015-07-06T18:56:39.965Z</time>
      </trkpt>
      <trkpt lat="48.84658" lon="2.27098">
        <ele>90.6</ele>
        <time>2015-07-06T18:56:40.979Z</time>
      </trkpt>
      <trkpt lat="48.84656" lon="2.27092">
        <ele>90.3</ele>
        <time>2015-07-06T18:56:42Z</time>
      </trkpt>
      <trkpt lat="48.84652" lon="2.27082">
        <ele>89.7</ele>
        <time>2015-07-06T18:56:44.025Z</time>
      </trkpt>
      <trkpt lat="48.84651" lon="2.27077">
        <ele>89.4</ele>
        <time>2015-07-06T18:56:45.040Z</time>
      </trkpt>
      <trkpt lat="48.84646" lon="2.27067">
        <ele>88.9</ele>
        <time>2015-07-06T18:56:46.955Z</time>
      </trkpt>
      <trkpt lat="48.84643" lon="2.27061">
        <ele>88.7</ele>
        <time>2015-07-06T18:56:48.043Z</time>
      </trkpt>
      <trkpt lat="48.84641" lon="2.27054">
        <ele>88.6</ele>
        <time>2015-07-06T18:56:48.959Z</time>
      </trkpt>
      <trkpt lat="48.84639" lon="2.27047">
        <ele>88.6</ele>
        <time>2015-07-06T18:56:49.971Z</time>
      </trkpt>
      <trkpt lat="48.84637" lon="2.2704">
        <ele>88.6</ele>
        <time>2015-07-06T18:56:50.950Z</time>
      </trkpt>
      <trkpt lat="48.84635" lon="2.27032">
        <ele>88.8</ele>
        <time>2015-07-06T18:56:51.980Z</time>
      </trkpt>
      <trkpt lat="48.84632" lon="2.27025">
        <ele>88.8</ele>
        <time>2015-07-06T18:56:52.991Z</time>
      </trkpt>
      <trkpt lat="48.84629" lon="2.27017">
        <ele>88.8</ele>
        <time>2015-07-06T18:56:54.016Z</time>
      </trkpt>
      <trkpt lat="48.84627" lon="2.2701">
        <ele>88.6</ele>
        <time>2015-07-06T18:56:54.989Z</time>
      </trkpt>
      <trkpt lat="48.84625" lon="2.27004">
        <ele>88.5</ele>
        <time>2015-07-06T18:56:56.001Z</time>
      </trkpt>
      <trkpt lat="48.84623" lon="2.26998">
        <ele>88.5</ele>
        <time>2015-07-06T18:56:57.308Z</time>
      </trkpt>
      <trkpt lat="48.84621" lon="2.26989">
        <ele>89</ele>
        <time>2015-07-06T18:56:58.025Z</time>
      </trkpt>
      <trkpt lat="48.84621" lon="2.26978">
        <ele>89</ele>
        <time>2015-07-06T18:56:59.999Z</time>
      </trkpt>
      <trkpt lat="48.84619" lon="2.26971">
        <ele>88.9</ele>
        <time>2015-07-06T18:57:01.002Z</time>
      </trkpt>
      <trkpt lat="48.84617" lon="2.26963">
        <ele>88.7</ele>
        <time>2015-07-06T18:57:02.326Z</time>
      </trkpt>
      <trkpt lat="48.84615" lon="2.26955">
        <ele>88.6</ele>
        <time>2015-07-06T18:57:03.032Z</time>
      </trkpt>
      <trkpt lat="48.84611" lon="2.26947">
        <ele>88.6</ele>
        <time>2015-07-06T18:57:03.958Z</time>
      </trkpt>
      <trkpt lat="48.84607" lon="2.26939">
        <ele>88.3</ele>
        <time>2015-07-06T18:57:05.023Z</time>
      </trkpt>
      <trkpt lat="48.84605" lon="2.26932">
        <ele>88.1</ele>
        <time>2015-07-06T18:57:06.047Z</time>
      </trkpt>
      <trkpt lat="48.84602" lon="2.26923">
        <ele>87.8</ele>
        <time>2015-07-06T18:57:06.940Z</time>
      </trkpt>
      <trkpt lat="48.84599" lon="2.26917">
        <ele>87.6</ele>
        <time>2015-07-06T18:57:07.942Z</time>
      </trkpt>
      <trkpt lat="48.84594" lon="2.26909">
        <ele>87.3</ele>
        <time>2015-07-06T18:57:08.948Z</time>
      </trkpt>
      <trkpt lat="48.84588" lon="2.26897">
        <ele>87.3</ele>
        <time>2015-07-06T18:57:09.965Z</time>
      </trkpt>
      <trkpt lat="48.84585" lon="2.26888">
        <ele>87.3</ele>
        <time>2015-07-06T18:57:10.981Z</time>
      </trkpt>
      <trkpt lat="48.8458" lon="2.26874">
        <ele>88.4</ele>
        <time>2015-07-06T18:57:12.013Z</time>
      </trkpt>
      <trkpt lat="48.84578" lon="2.26864">
        <ele>88.4</ele>
        <time>2015-07-06T18:57:13.044Z</time>
      </trkpt>
      <trkpt lat="48.84576" lon="2.26855">
        <ele>88.4</ele>
        <time>2015-07-06T18:57:13.952Z</time>
      </trkpt>
      <trkpt lat="48.84575" lon="2.26846">
        <ele>88.6</ele>
        <time>2015-07-06T18:57:14.951Z</time>
      </trkpt>
      <trkpt lat="48.84572" lon="2.26838">
        <ele>88.6</ele>
        <time>2015-07-06T18:57:15.962Z</time>
      </trkpt>
      <trkpt lat="48.84569" lon="2.26828">
        <ele>88.2</ele>
        <time>2015-07-06T18:57:16.979Z</time>
      </trkpt>
      <trkpt lat="48.84567" lon="2.2682">
        <ele>88.3</ele>
        <time>2015-07-06T18:57:18.024Z</time>
      </trkpt>
      <trkpt lat="48.84564" lon="2.26811">
        <ele>88.6</ele>
        <time>2015-07-06T18:57:19.036Z</time>
      </trkpt>
      <trkpt lat="48.84561" lon="2.26803">
        <ele>88.8</ele>
        <time>2015-07-06T18:57:19.980Z</time>
      </trkpt>
      <trkpt lat="48.84559" lon="2.26794">
        <ele>88.9</ele>
        <time>2015-07-06T18:57:20.954Z</time>
      </trkpt>
      <trkpt lat="48.84556" lon="2.26787">
        <ele>88.7</ele>
        <time>2015-07-06T18:57:21.954Z</time>
      </trkpt>
      <trkpt lat="48.84552" lon="2.26779">
        <ele>88.5</ele>
        <time>2015-07-06T18:57:22.972Z</time>
      </trkpt>
      <trkpt lat="48.8455" lon="2.2677">
        <ele>88.3</ele>
        <time>2015-07-06T18:57:24.003Z</time>
      </trkpt>
      <trkpt lat="48.84547" lon="2.26761">
        <ele>88.4</ele>
        <time>2015-07-06T18:57:24.994Z</time>
      </trkpt>
      <trkpt lat="48.84546" lon="2.26752">
        <ele>88.3</ele>
        <time>2015-07-06T18:57:25.997Z</time>
      </trkpt>
      <trkpt lat="48.84545" lon="2.26743">
        <ele>88.2</ele>
        <time>2015-07-06T18:57:27.014Z</time>
      </trkpt>
      <trkpt lat="48.84544" lon="2.26735">
        <ele>88.4</ele>
        <time>2015-07-06T18:57:28.028Z</time>
      </trkpt>
      <trkpt lat="48.84542" lon="2.26722">
        <ele>88.3</ele>
        <time>2015-07-06T18:57:29.994Z</time>
      </trkpt>
      <trkpt lat="48.84539" lon="2.26716">
        <ele>88</ele>
        <time>2015-07-06T18:57:31.005Z</time>
      </trkpt>
      <trkpt lat="48.84532" lon="2.26708">
        <ele>87.9</ele>
        <time>2015-07-06T18:57:32.950Z</time>
      </trkpt>
      <trkpt lat="48.84529" lon="2.26704">
        <ele>87.9</ele>
        <time>2015-07-06T18:57:34.006Z</time>
      </trkpt>
      <trkpt lat="48.84522" lon="2.26696">
        <ele>88.2</ele>
        <time>2015-07-06T18:57:36.043Z</time>
      </trkpt>
      <trkpt lat="48.84518" lon="2.26692">
        <ele>88.2</ele>
        <time>2015-07-06T18:57:36.980Z</time>
      </trkpt>
      <trkpt lat="48.84511" lon="2.26685">
        <ele>87.9</ele>
        <time>2015-07-06T18:57:38.981Z</time>
      </trkpt>
      <trkpt lat="48.84508" lon="2.26682">
        <ele>88.1</ele>
        <time>2015-07-06T18:57:39.992Z</time>
      </trkpt>
      <trkpt lat="48.84501" lon="2.26676">
        <ele>88.5</ele>
        <time>2015-07-06T18:57:42.030Z</time>
      </trkpt>
      <trkpt lat="48.84497" lon="2.26673">
        <ele>88.6</ele>
        <time>2015-07-06T18:57:42.980Z</time>
      </trkpt>
      <trkpt lat="48.8449" lon="2.2667">
        <ele>88.4</ele>
        <time>2015-07-06T18:57:44.948Z</time>
      </trkpt>
      <trkpt lat="48.84488" lon="2.26667">
        <ele>88.5</ele>
        <time>2015-07-06T18:57:46.042Z</time>
      </trkpt>
      <trkpt lat="48.84481" lon="2.26662">
        <ele>89.1</ele>
        <time>2015-07-06T18:57:48Z</time>
      </trkpt>
      <trkpt lat="48.84478" lon="2.26659">
        <ele>89.4</ele>
        <time>2015-07-06T18:57:49.005Z</time>
      </trkpt>
      <trkpt lat="48.84472" lon="2.26654">
        <ele>89.7</ele>
        <time>2015-07-06T18:57:50.973Z</time>
      </trkpt>
      <trkpt lat="48.8447" lon="2.26652">
        <ele>89.8</ele>
        <time>2015-07-06T18:57:51.993Z</time>
      </trkpt>
      <trkpt lat="48.84465" lon="2.26647">
        <ele>90</ele>
        <time>2015-07-06T18:57:54.035Z</time>
      </trkpt>
      <trkpt lat="48.84461" lon="2.26643">
        <ele>90.1</ele>
        <time>2015-07-06T18:57:54.953Z</time>
      </trkpt>
      <trkpt lat="48.84456" lon="2.26636">
        <ele>90.1</ele>
        <time>2015-07-06T18:57:56.978Z</time>
      </trkpt>
      <trkpt lat="48.84453" lon="2.26633">
        <ele>90.1</ele>
        <time>2015-07-06T18:57:57.991Z</time>
      </trkpt>
      <trkpt lat="48.84446" lon="2.26628">
        <ele>90.1</ele>
        <time>2015-07-06T18:58:00.007Z</time>
      </trkpt>
      <trkpt lat="48.84443" lon="2.26625">
        <ele>90.2</ele>
        <time>2015-07-06T18:58:01.010Z</time>
      </trkpt>
      <trkpt lat="48.84437" lon="2.2662">
        <ele>90.2</ele>
        <time>2015-07-06T18:58:03.059Z</time>
      </trkpt>
      <trkpt lat="48.84433" lon="2.26617">
        <ele>90.1</ele>
        <time>2015-07-06T18:58:03.960Z</time>
      </trkpt>
      <trkpt lat="48.84427" lon="2.2661">
        <ele>90.3</ele>
        <time>2015-07-06T18:58:05.977Z</time>
      </trkpt>
      <trkpt lat="48.84423" lon="2.26607">
        <ele>90.6</ele>
        <time>2015-07-06T18:58:06.988Z</time>
      </trkpt>
      <trkpt lat="48.84419" lon="2.26604">
        <ele>90.7</ele>
        <time>2015-07-06T18:58:08.001Z</time>
      </trkpt>
      <trkpt lat="48.84415" lon="2.26601">
        <ele>90.6</ele>
        <time>2015-07-06T18:58:09.021Z</time>
      </trkpt>
      <trkpt lat="48.84407" lon="2.26594">
        <ele>90.6</ele>
        <time>2015-07-06T18:58:09.708Z</time>
      </trkpt>
      <trkpt lat="48.84404" lon="2.2659">
        <ele>90.4</ele>
        <time>2015-07-06T18:58:12.031Z</time>
      </trkpt>
      <trkpt lat="48.84397" lon="2.26584">
        <ele>90.2</ele>
        <time>2015-07-06T18:58:14.819Z</time>
      </trkpt>
      <trkpt lat="48.84395" lon="2.26581">
        <ele>90.2</ele>
        <time>2015-07-06T18:58:14.918Z</time>
      </trkpt>
      <trkpt lat="48.84388" lon="2.26574">
        <ele>90.4</ele>
        <time>2015-07-06T18:58:17.216Z</time>
      </trkpt>
      <trkpt lat="48.84385" lon="2.26571">
        <ele>90.2</ele>
        <time>2015-07-06T18:58:18.012Z</time>
      </trkpt>
      <trkpt lat="48.84381" lon="2.26568">
        <ele>90.1</ele>
        <time>2015-07-06T18:58:19.042Z</time>
      </trkpt>
      <trkpt lat="48.84377" lon="2.26565">
        <ele>90.1</ele>
        <time>2015-07-06T18:58:19.966Z</time>
      </trkpt>
      <trkpt lat="48.84373" lon="2.26561">
        <ele>89.8</ele>
        <time>2015-07-06T18:58:20.971Z</time>
      </trkpt>
      <trkpt lat="48.84369" lon="2.26557">
        <ele>89.5</ele>
        <time>2015-07-06T18:58:21.918Z</time>
      </trkpt>
      <trkpt lat="48.84362" lon="2.2655">
        <ele>89.5</ele>
        <time>2015-07-06T18:58:24.144Z</time>
      </trkpt>
      <trkpt lat="48.84358" lon="2.26547">
        <ele>89.5</ele>
        <time>2015-07-06T18:58:24.982Z</time>
      </trkpt>
      <trkpt lat="48.84351" lon="2.2654">
        <ele>89.4</ele>
        <time>2015-07-06T18:58:27.355Z</time>
      </trkpt>
      <trkpt lat="48.84347" lon="2.26536">
        <ele>89.3</ele>
        <time>2015-07-06T18:58:27.986Z</time>
      </trkpt>
      <trkpt lat="48.84341" lon="2.26529">
        <ele>89.3</ele>
        <time>2015-07-06T18:58:30.064Z</time>
      </trkpt>
      <trkpt lat="48.84337" lon="2.26524">
        <ele>89.2</ele>
        <time>2015-07-06T18:58:30.992Z</time>
      </trkpt>
      <trkpt lat="48.84334" lon="2.2652">
        <ele>89.1</ele>
        <time>2015-07-06T18:58:32.417Z</time>
      </trkpt>
      <trkpt lat="48.84331" lon="2.26514">
        <ele>88.9</ele>
        <time>2015-07-06T18:58:32.959Z</time>
      </trkpt>
      <trkpt lat="48.84324" lon="2.26506">
        <ele>88.9</ele>
        <time>2015-07-06T18:58:34.980Z</time>
      </trkpt>
      <trkpt lat="48.84321" lon="2.26501">
        <ele>88.8</ele>
        <time>2015-07-06T18:58:36.044Z</time>
      </trkpt>
      <trkpt lat="48.84316" lon="2.26494">
        <ele>88.7</ele>
        <time>2015-07-06T18:58:37.967Z</time>
      </trkpt>
      <trkpt lat="48.84314" lon="2.26491">
        <ele>88.7</ele>
        <time>2015-07-06T18:58:38.926Z</time>
      </trkpt>
      <trkpt lat="48.84316" lon="2.26479">
        <ele>88.8</ele>
        <time>2015-07-06T18:58:42.967Z</time>
      </trkpt>
      <trkpt lat="48.84316" lon="2.26478">
        <ele>89.2</ele>
        <time>2015-07-06T18:58:43.980Z</time>
      </trkpt>
      <trkpt lat="48.84309" lon="2.26481">
        <ele>89.4</ele>
        <time>2015-07-06T18:58:49.956Z</time>
      </trkpt>
      <trkpt lat="48.84305" lon="2.26478">
        <ele>89.2</ele>
        <time>2015-07-06T18:58:50.990Z</time>
      </trkpt>
      <trkpt lat="48.84297" lon="2.26475">
        <ele>89.1</ele>
        <time>2015-07-06T18:58:54.047Z</time>
      </trkpt>
      <trkpt lat="48.84295" lon="2.26474">
        <ele>89.1</ele>
        <time>2015-07-06T18:58:55.058Z</time>
      </trkpt>
      <trkpt lat="48.84288" lon="2.2647">
        <ele>88.8</ele>
        <time>2015-07-06T18:58:56.979Z</time>
      </trkpt>
      <trkpt lat="48.84284" lon="2.26468">
        <ele>88.8</ele>
        <time>2015-07-06T18:58:58.152Z</time>
      </trkpt>
      <trkpt lat="48.84277" lon="2.26464">
        <ele>89</ele>
        <time>2015-07-06T18:59:00.015Z</time>
      </trkpt>
      <trkpt lat="48.8427" lon="2.26462">
        <ele>88.9</ele>
        <time>2015-07-06T18:59:01.042Z</time>
      </trkpt>
      <trkpt lat="48.84265" lon="2.26459">
        <ele>88.8</ele>
        <time>2015-07-06T18:59:02.140Z</time>
      </trkpt>
      <trkpt lat="48.8426" lon="2.26457">
        <ele>88.9</ele>
        <time>2015-07-06T18:59:02.940Z</time>
      </trkpt>
      <trkpt lat="48.84254" lon="2.26454">
        <ele>88.8</ele>
        <time>2015-07-06T18:59:03.962Z</time>
      </trkpt>
      <trkpt lat="48.84248" lon="2.26452">
        <ele>89.2</ele>
        <time>2015-07-06T18:59:04.980Z</time>
      </trkpt>
      <trkpt lat="48.84242" lon="2.26449">
        <ele>89.5</ele>
        <time>2015-07-06T18:59:05.993Z</time>
      </trkpt>
      <trkpt lat="48.84236" lon="2.26447">
        <ele>89.7</ele>
        <time>2015-07-06T18:59:07Z</time>
      </trkpt>
      <trkpt lat="48.84231" lon="2.26446">
        <ele>90</ele>
        <time>2015-07-06T18:59:08.608Z</time>
      </trkpt>
      <trkpt lat="48.84226" lon="2.26444">
        <ele>90.1</ele>
        <time>2015-07-06T18:59:08.931Z</time>
      </trkpt>
      <trkpt lat="48.84221" lon="2.26441">
        <ele>90.3</ele>
        <time>2015-07-06T18:59:09.958Z</time>
      </trkpt>
      <trkpt lat="48.84216" lon="2.26438">
        <ele>90.3</ele>
        <time>2015-07-06T18:59:10.965Z</time>
      </trkpt>
      <trkpt lat="48.8421" lon="2.26434">
        <ele>90.4</ele>
        <time>2015-07-06T18:59:11.980Z</time>
      </trkpt>
      <trkpt lat="48.84204" lon="2.26429">
        <ele>91.3</ele>
        <time>2015-07-06T18:59:12.977Z</time>
      </trkpt>
      <trkpt lat="48.84198" lon="2.26427">
        <ele>91.7</ele>
        <time>2015-07-06T18:59:13.992Z</time>
      </trkpt>
      <trkpt lat="48.84193" lon="2.26424">
        <ele>91.8</ele>
        <time>2015-07-06T18:59:15.012Z</time>
      </trkpt>
      <trkpt lat="48.84185" lon="2.26418">
        <ele>90.6</ele>
        <time>2015-07-06T18:59:16.921Z</time>
      </trkpt>
      <trkpt lat="48.84181" lon="2.26415">
        <ele>90.6</ele>
        <time>2015-07-06T18:59:17.959Z</time>
      </trkpt>
      <trkpt lat="48.84177" lon="2.2641">
        <ele>90.6</ele>
        <time>2015-07-06T18:59:19.039Z</time>
      </trkpt>
      <trkpt lat="48.84173" lon="2.26406">
        <ele>90.6</ele>
        <time>2015-07-06T18:59:19.928Z</time>
      </trkpt>
      <trkpt lat="48.84169" lon="2.26402">
        <ele>90.7</ele>
        <time>2015-07-06T18:59:20.923Z</time>
      </trkpt>
      <trkpt lat="48.84165" lon="2.26399">
        <ele>90.9</ele>
        <time>2015-07-06T18:59:21.937Z</time>
      </trkpt>
      <trkpt lat="48.84158" lon="2.26396">
        <ele>90.9</ele>
        <time>2015-07-06T18:59:23.984Z</time>
      </trkpt>
      <trkpt lat="48.84155" lon="2.26394">
        <ele>91</ele>
        <time>2015-07-06T18:59:25.004Z</time>
      </trkpt>
      <trkpt lat="48.84149" lon="2.26385">
        <ele>90.7</ele>
        <time>2015-07-06T18:59:27.976Z</time>
      </trkpt>
      <trkpt lat="48.84147" lon="2.26384">
        <ele>90.7</ele>
        <time>2015-07-06T18:59:28.989Z</time>
      </trkpt>
      <trkpt lat="48.84139" lon="2.26389">
        <ele>91.9</ele>
        <time>2015-07-06T18:59:36.049Z</time>
      </trkpt>
      <trkpt lat="48.8414" lon="2.26389">
        <ele>92.2</ele>
        <time>2015-07-06T18:59:36.980Z</time>
      </trkpt>
      <trkpt lat="48.84141" lon="2.26389">
        <ele>92.3</ele>
        <time>2015-07-06T18:59:42.014Z</time>
      </trkpt>
      <trkpt lat="48.84143" lon="2.26387">
        <ele>93.5</ele>
        <time>2015-07-06T18:59:43.042Z</time>
      </trkpt>
      <trkpt lat="48.84138" lon="2.26378">
        <ele>93.6</ele>
        <time>2015-07-06T18:59:46.973Z</time>
      </trkpt>
      <trkpt lat="48.84137" lon="2.26376">
        <ele>93.8</ele>
        <time>2015-07-06T18:59:48.092Z</time>
      </trkpt>
      <trkpt lat="48.84131" lon="2.26373">
        <ele>93.8</ele>
        <time>2015-07-06T18:59:49.951Z</time>
      </trkpt>
      <trkpt lat="48.84127" lon="2.26371">
        <ele>93.1</ele>
        <time>2015-07-06T18:59:50.973Z</time>
      </trkpt>
      <trkpt lat="48.84119" lon="2.26367">
        <ele>92.4</ele>
        <time>2015-07-06T18:59:53.011Z</time>
      </trkpt>
      <trkpt lat="48.84114" lon="2.26364">
        <ele>92.2</ele>
        <time>2015-07-06T18:59:54.031Z</time>
      </trkpt>
      <trkpt lat="48.8411" lon="2.2636">
        <ele>92.2</ele>
        <time>2015-07-06T18:59:54.956Z</time>
      </trkpt>
      <trkpt lat="48.84105" lon="2.26357">
        <ele>92</ele>
        <time>2015-07-06T18:59:55.961Z</time>
      </trkpt>
      <trkpt lat="48.841" lon="2.26353">
        <ele>92</ele>
        <time>2015-07-06T18:59:56.972Z</time>
      </trkpt>
      <trkpt lat="48.84095" lon="2.26349">
        <ele>91.9</ele>
        <time>2015-07-06T18:59:57.979Z</time>
      </trkpt>
      <trkpt lat="48.8409" lon="2.26345">
        <ele>91.8</ele>
        <time>2015-07-06T18:59:58.985Z</time>
      </trkpt>
      <trkpt lat="48.84085" lon="2.26342">
        <ele>91.8</ele>
        <time>2015-07-06T19:00:00.039Z</time>
      </trkpt>
      <trkpt lat="48.84079" lon="2.26338">
        <ele>91.8</ele>
        <time>2015-07-06T19:00:01.021Z</time>
      </trkpt>
      <trkpt lat="48.84074" lon="2.26335">
        <ele>91.7</ele>
        <time>2015-07-06T19:00:01.914Z</time>
      </trkpt>
      <trkpt lat="48.84068" lon="2.26332">
        <ele>91.6</ele>
        <time>2015-07-06T19:00:02.967Z</time>
      </trkpt>
      <trkpt lat="48.84062" lon="2.26329">
        <ele>91.6</ele>
        <time>2015-07-06T19:00:03.987Z</time>
      </trkpt>
      <trkpt lat="48.84057" lon="2.26326">
        <ele>91.6</ele>
        <time>2015-07-06T19:00:04.919Z</time>
      </trkpt>
      <trkpt lat="48.84051" lon="2.26323">
        <ele>91.5</ele>
        <time>2015-07-06T19:00:05.946Z</time>
      </trkpt>
      <trkpt lat="48.84046" lon="2.2632">
        <ele>91.3</ele>
        <time>2015-07-06T19:00:06.954Z</time>
      </trkpt>
      <trkpt lat="48.8404" lon="2.26317">
        <ele>91.3</ele>
        <time>2015-07-06T19:00:08.052Z</time>
      </trkpt>
      <trkpt lat="48.84035" lon="2.26315">
        <ele>91.3</ele>
        <time>2015-07-06T19:00:08.976Z</time>
      </trkpt>
      <trkpt lat="48.8403" lon="2.26312">
        <ele>91.3</ele>
        <time>2015-07-06T19:00:09.980Z</time>
      </trkpt>
      <trkpt lat="48.84025" lon="2.2631">
        <ele>91.3</ele>
        <time>2015-07-06T19:00:10.985Z</time>
      </trkpt>
      <trkpt lat="48.8402" lon="2.26308">
        <ele>91.4</ele>
        <time>2015-07-06T19:00:12.010Z</time>
      </trkpt>
      <trkpt lat="48.84016" lon="2.26306">
        <ele>91.4</ele>
        <time>2015-07-06T19:00:12.894Z</time>
      </trkpt>
      <trkpt lat="48.84011" lon="2.26304">
        <ele>91.4</ele>
        <time>2015-07-06T19:00:13.918Z</time>
      </trkpt>
      <trkpt lat="48.84006" lon="2.26302">
        <ele>91.5</ele>
        <time>2015-07-06T19:00:14.922Z</time>
      </trkpt>
      <trkpt lat="48.84001" lon="2.263">
        <ele>91.6</ele>
        <time>2015-07-06T19:00:15.936Z</time>
      </trkpt>
      <trkpt lat="48.83996" lon="2.26298">
        <ele>91.5</ele>
        <time>2015-07-06T19:00:16.973Z</time>
      </trkpt>
      <trkpt lat="48.8399" lon="2.26297">
        <ele>91.5</ele>
        <time>2015-07-06T19:00:18.039Z</time>
      </trkpt>
      <trkpt lat="48.83986" lon="2.26296">
        <ele>91.6</ele>
        <time>2015-07-06T19:00:18.931Z</time>
      </trkpt>
      <trkpt lat="48.83981" lon="2.26294">
        <ele>91.6</ele>
        <time>2015-07-06T19:00:19.938Z</time>
      </trkpt>
      <trkpt lat="48.83975" lon="2.26292">
        <ele>91.3</ele>
        <time>2015-07-06T19:00:20.906Z</time>
      </trkpt>
      <trkpt lat="48.83968" lon="2.26288">
        <ele>91.6</ele>
        <time>2015-07-06T19:00:21.947Z</time>
      </trkpt>
      <trkpt lat="48.83963" lon="2.26282">
        <ele>92</ele>
        <time>2015-07-06T19:00:22.964Z</time>
      </trkpt>
      <trkpt lat="48.83956" lon="2.26274">
        <ele>92</ele>
        <time>2015-07-06T19:00:24.011Z</time>
      </trkpt>
      <trkpt lat="48.83951" lon="2.26267">
        <ele>91.6</ele>
        <time>2015-07-06T19:00:25.007Z</time>
      </trkpt>
      <trkpt lat="48.83947" lon="2.26258">
        <ele>91</ele>
        <time>2015-07-06T19:00:26.053Z</time>
      </trkpt>
      <trkpt lat="48.83943" lon="2.2625">
        <ele>90.6</ele>
        <time>2015-07-06T19:00:26.952Z</time>
      </trkpt>
      <trkpt lat="48.83939" lon="2.26241">
        <ele>90.4</ele>
        <time>2015-07-06T19:00:27.950Z</time>
      </trkpt>
      <trkpt lat="48.83937" lon="2.2623">
        <ele>90.1</ele>
        <time>2015-07-06T19:00:28.972Z</time>
      </trkpt>
      <trkpt lat="48.83934" lon="2.26219">
        <ele>89.9</ele>
        <time>2015-07-06T19:00:30.022Z</time>
      </trkpt>
      <trkpt lat="48.83932" lon="2.26207">
        <ele>90</ele>
        <time>2015-07-06T19:00:30.949Z</time>
      </trkpt>
      <trkpt lat="48.83928" lon="2.26196">
        <ele>90</ele>
        <time>2015-07-06T19:00:31.947Z</time>
      </trkpt>
      <trkpt lat="48.83924" lon="2.26183">
        <ele>90.2</ele>
        <time>2015-07-06T19:00:32.972Z</time>
      </trkpt>
      <trkpt lat="48.83921" lon="2.26171">
        <ele>89.7</ele>
        <time>2015-07-06T19:00:33.989Z</time>
      </trkpt>
      <trkpt lat="48.83918" lon="2.2616">
        <ele>89</ele>
        <time>2015-07-06T19:00:34.991Z</time>
      </trkpt>
      <trkpt lat="48.83915" lon="2.26149">
        <ele>88.6</ele>
        <time>2015-07-06T19:00:36.047Z</time>
      </trkpt>
      <trkpt lat="48.83911" lon="2.26137">
        <ele>88.7</ele>
        <time>2015-07-06T19:00:36.938Z</time>
      </trkpt>
      <trkpt lat="48.83908" lon="2.26126">
        <ele>89</ele>
        <time>2015-07-06T19:00:37.972Z</time>
      </trkpt>
      <trkpt lat="48.83906" lon="2.26115">
        <ele>89.4</ele>
        <time>2015-07-06T19:00:38.970Z</time>
      </trkpt>
      <trkpt lat="48.83903" lon="2.26103">
        <ele>90.2</ele>
        <time>2015-07-06T19:00:39.968Z</time>
      </trkpt>
      <trkpt lat="48.839" lon="2.26092">
        <ele>90.1</ele>
        <time>2015-07-06T19:00:40.980Z</time>
      </trkpt>
      <trkpt lat="48.83897" lon="2.26081">
        <ele>90.4</ele>
        <time>2015-07-06T19:00:42.016Z</time>
      </trkpt>
      <trkpt lat="48.83893" lon="2.26071">
        <ele>90.5</ele>
        <time>2015-07-06T19:00:43.028Z</time>
      </trkpt>
      <trkpt lat="48.8389" lon="2.26061">
        <ele>90.9</ele>
        <time>2015-07-06T19:00:43.945Z</time>
      </trkpt>
      <trkpt lat="48.83885" lon="2.2605">
        <ele>91.4</ele>
        <time>2015-07-06T19:00:44.950Z</time>
      </trkpt>
      <trkpt lat="48.8388" lon="2.2604">
        <ele>92.2</ele>
        <time>2015-07-06T19:00:45.971Z</time>
      </trkpt>
      <trkpt lat="48.83876" lon="2.26029">
        <ele>92.5</ele>
        <time>2015-07-06T19:00:46.986Z</time>
      </trkpt>
      <trkpt lat="48.83872" lon="2.26018">
        <ele>93.3</ele>
        <time>2015-07-06T19:00:48.013Z</time>
      </trkpt>
      <trkpt lat="48.83868" lon="2.26007">
        <ele>93.4</ele>
        <time>2015-07-06T19:00:49.022Z</time>
      </trkpt>
      <trkpt lat="48.83865" lon="2.25996">
        <ele>93.1</ele>
        <time>2015-07-06T19:00:50.030Z</time>
      </trkpt>
      <trkpt lat="48.83861" lon="2.25985">
        <ele>92.9</ele>
        <time>2015-07-06T19:00:50.952Z</time>
      </trkpt>
      <trkpt lat="48.83857" lon="2.25973">
        <ele>92.5</ele>
        <time>2015-07-06T19:00:51.944Z</time>
      </trkpt>
      <trkpt lat="48.83854" lon="2.25961">
        <ele>92.4</ele>
        <time>2015-07-06T19:00:52.952Z</time>
      </trkpt>
      <trkpt lat="48.83851" lon="2.25949">
        <ele>92.6</ele>
        <time>2015-07-06T19:00:53.994Z</time>
      </trkpt>
      <trkpt lat="48.83848" lon="2.25938">
        <ele>92.5</ele>
        <time>2015-07-06T19:00:54.995Z</time>
      </trkpt>
      <trkpt lat="48.83845" lon="2.25927">
        <ele>93</ele>
        <time>2015-07-06T19:00:55.999Z</time>
      </trkpt>
      <trkpt lat="48.83841" lon="2.25916">
        <ele>93.2</ele>
        <time>2015-07-06T19:00:57.010Z</time>
      </trkpt>
      <trkpt lat="48.83838" lon="2.25906">
        <ele>93.2</ele>
        <time>2015-07-06T19:00:58.024Z</time>
      </trkpt>
      <trkpt lat="48.83834" lon="2.25895">
        <ele>92.9</ele>
        <time>2015-07-06T19:00:58.947Z</time>
      </trkpt>
      <trkpt lat="48.83831" lon="2.25885">
        <ele>93.4</ele>
        <time>2015-07-06T19:01:00.163Z</time>
      </trkpt>
      <trkpt lat="48.83828" lon="2.25875">
        <ele>93.5</ele>
        <time>2015-07-06T19:01:00.981Z</time>
      </trkpt>
      <trkpt lat="48.83825" lon="2.25865">
        <ele>93.5</ele>
        <time>2015-07-06T19:01:02.216Z</time>
      </trkpt>
      <trkpt lat="48.83823" lon="2.25856">
        <ele>93.7</ele>
        <time>2015-07-06T19:01:02.927Z</time>
      </trkpt>
      <trkpt lat="48.8382" lon="2.25847">
        <ele>93.4</ele>
        <time>2015-07-06T19:01:03.927Z</time>
      </trkpt>
      <trkpt lat="48.83817" lon="2.2584">
        <ele>93.3</ele>
        <time>2015-07-06T19:01:04.919Z</time>
      </trkpt>
      <trkpt lat="48.83815" lon="2.25832">
        <ele>93.3</ele>
        <time>2015-07-06T19:01:05.970Z</time>
      </trkpt>
      <trkpt lat="48.83812" lon="2.25822">
        <ele>93.1</ele>
        <time>2015-07-06T19:01:06.979Z</time>
      </trkpt>
      <trkpt lat="48.8381" lon="2.25813">
        <ele>93</ele>
        <time>2015-07-06T19:01:07.996Z</time>
      </trkpt>
      <trkpt lat="48.83808" lon="2.25804">
        <ele>92.7</ele>
        <time>2015-07-06T19:01:09.008Z</time>
      </trkpt>
      <trkpt lat="48.83805" lon="2.25796">
        <ele>92.3</ele>
        <time>2015-07-06T19:01:09.920Z</time>
      </trkpt>
      <trkpt lat="48.83803" lon="2.25789">
        <ele>92.2</ele>
        <time>2015-07-06T19:01:10.967Z</time>
      </trkpt>
      <trkpt lat="48.838" lon="2.25776">
        <ele>92.3</ele>
        <time>2015-07-06T19:01:13.006Z</time>
      </trkpt>
      <trkpt lat="48.838" lon="2.2577">
        <ele>91.9</ele>
        <time>2015-07-06T19:01:14.011Z</time>
      </trkpt>
      <trkpt lat="48.83802" lon="2.25763">
        <ele>91.1</ele>
        <time>2015-07-06T19:01:14.956Z</time>
      </trkpt>
      <trkpt lat="48.83804" lon="2.25757">
        <ele>89.9</ele>
        <time>2015-07-06T19:01:15.948Z</time>
      </trkpt>
      <trkpt lat="48.83812" lon="2.2575">
        <ele>88.4</ele>
        <time>2015-07-06T19:01:17.999Z</time>
      </trkpt>
      <trkpt lat="48.83815" lon="2.25748">
        <ele>87.7</ele>
        <time>2015-07-06T19:01:19.024Z</time>
      </trkpt>
      <trkpt lat="48.83822" lon="2.25743">
        <ele>86.9</ele>
        <time>2015-07-06T19:01:21.946Z</time>
      </trkpt>
      <trkpt lat="48.83822" lon="2.25744">
        <ele>85.9</ele>
        <time>2015-07-06T19:01:22.985Z</time>
      </trkpt>
      <trkpt lat="48.83821" lon="2.25746">
        <ele>85.3</ele>
        <time>2015-07-06T19:02:37.991Z</time>
      </trkpt>
      <trkpt lat="48.83831" lon="2.25729">
        <ele>83.1</ele>
        <time>2015-07-06T19:02:39.017Z</time>
      </trkpt>
      <trkpt lat="48.83835" lon="2.25718">
        <ele>82.9</ele>
        <time>2015-07-06T19:02:42.006Z</time>
      </trkpt>
      <trkpt lat="48.83837" lon="2.25713">
        <ele>82.7</ele>
        <time>2015-07-06T19:02:43.008Z</time>
      </trkpt>
      <trkpt lat="48.83842" lon="2.25704">
        <ele>82.7</ele>
        <time>2015-07-06T19:02:45.030Z</time>
      </trkpt>
      <trkpt lat="48.83845" lon="2.25701">
        <ele>82.7</ele>
        <time>2015-07-06T19:02:46.031Z</time>
      </trkpt>
      <trkpt lat="48.83849" lon="2.25699">
        <ele>82.3</ele>
        <time>2015-07-06T19:02:46.945Z</time>
      </trkpt>
      <trkpt lat="48.83853" lon="2.25696">
        <ele>81.8</ele>
        <time>2015-07-06T19:02:47.998Z</time>
      </trkpt>
      <trkpt lat="48.83859" lon="2.25694">
        <ele>81.5</ele>
        <time>2015-07-06T19:02:49.015Z</time>
      </trkpt>
      <trkpt lat="48.83864" lon="2.25692">
        <ele>81.2</ele>
        <time>2015-07-06T19:02:50.019Z</time>
      </trkpt>
      <trkpt lat="48.83869" lon="2.25689">
        <ele>80.9</ele>
        <time>2015-07-06T19:02:50.946Z</time>
      </trkpt>
      <trkpt lat="48.83875" lon="2.25686">
        <ele>80.7</ele>
        <time>2015-07-06T19:02:51.952Z</time>
      </trkpt>
      <trkpt lat="48.8388" lon="2.25683">
        <ele>80.6</ele>
        <time>2015-07-06T19:02:52.974Z</time>
      </trkpt>
      <trkpt lat="48.83885" lon="2.2568">
        <ele>80.4</ele>
        <time>2015-07-06T19:02:54.013Z</time>
      </trkpt>
      <trkpt lat="48.83891" lon="2.25677">
        <ele>80.2</ele>
        <time>2015-07-06T19:02:55.026Z</time>
      </trkpt>
      <trkpt lat="48.83896" lon="2.25674">
        <ele>80.2</ele>
        <time>2015-07-06T19:02:56.029Z</time>
      </trkpt>
      <trkpt lat="48.83901" lon="2.25671">
        <ele>80.2</ele>
        <time>2015-07-06T19:02:56.946Z</time>
      </trkpt>
      <trkpt lat="48.83907" lon="2.25668">
        <ele>80.1</ele>
        <time>2015-07-06T19:02:57.949Z</time>
      </trkpt>
      <trkpt lat="48.83912" lon="2.25665">
        <ele>80.2</ele>
        <time>2015-07-06T19:02:58.947Z</time>
      </trkpt>
      <trkpt lat="48.83917" lon="2.25662">
        <ele>80.3</ele>
        <time>2015-07-06T19:03:00.046Z</time>
      </trkpt>
      <trkpt lat="48.83922" lon="2.25658">
        <ele>80.4</ele>
        <time>2015-07-06T19:03:00.917Z</time>
      </trkpt>
      <trkpt lat="48.83928" lon="2.25655">
        <ele>80.4</ele>
        <time>2015-07-06T19:03:01.946Z</time>
      </trkpt>
      <trkpt lat="48.83933" lon="2.25652">
        <ele>80.3</ele>
        <time>2015-07-06T19:03:02.941Z</time>
      </trkpt>
      <trkpt lat="48.83938" lon="2.2565">
        <ele>80.4</ele>
        <time>2015-07-06T19:03:03.953Z</time>
      </trkpt>
      <trkpt lat="48.83943" lon="2.25647">
        <ele>80.5</ele>
        <time>2015-07-06T19:03:04.971Z</time>
      </trkpt>
      <trkpt lat="48.83948" lon="2.25644">
        <ele>80.6</ele>
        <time>2015-07-06T19:03:05.969Z</time>
      </trkpt>
      <trkpt lat="48.83953" lon="2.25641">
        <ele>81</ele>
        <time>2015-07-06T19:03:07.009Z</time>
      </trkpt>
      <trkpt lat="48.83959" lon="2.25638">
        <ele>81.5</ele>
        <time>2015-07-06T19:03:07.982Z</time>
      </trkpt>
      <trkpt lat="48.83964" lon="2.25635">
        <ele>82</ele>
        <time>2015-07-06T19:03:08.920Z</time>
      </trkpt>
      <trkpt lat="48.83967" lon="2.25631">
        <ele>82.3</ele>
        <time>2015-07-06T19:03:09.950Z</time>
      </trkpt>
      <trkpt lat="48.83975" lon="2.25624">
        <ele>83.3</ele>
        <time>2015-07-06T19:03:11.981Z</time>
      </trkpt>
      <trkpt lat="48.83979" lon="2.25622">
        <ele>83.7</ele>
        <time>2015-07-06T19:03:12.987Z</time>
      </trkpt>
      <trkpt lat="48.83987" lon="2.25621">
        <ele>85.1</ele>
        <time>2015-07-06T19:03:14.946Z</time>
      </trkpt>
      <trkpt lat="48.83991" lon="2.25623">
        <ele>85.6</ele>
        <time>2015-07-06T19:03:15.954Z</time>
      </trkpt>
      <trkpt lat="48.83999" lon="2.25627">
        <ele>88.1</ele>
        <time>2015-07-06T19:03:25.969Z</time>
      </trkpt>
      <trkpt lat="48.84002" lon="2.25625">
        <ele>88.4</ele>
        <time>2015-07-06T19:03:26.993Z</time>
      </trkpt>
      <trkpt lat="48.8401" lon="2.25623">
        <ele>89.8</ele>
        <time>2015-07-06T19:03:29.018Z</time>
      </trkpt>
      <trkpt lat="48.84013" lon="2.25622">
        <ele>90.5</ele>
        <time>2015-07-06T19:03:30.100Z</time>
      </trkpt>
      <trkpt lat="48.84021" lon="2.25622">
        <ele>91</ele>
        <time>2015-07-06T19:03:31.959Z</time>
      </trkpt>
      <trkpt lat="48.84026" lon="2.25619">
        <ele>91.7</ele>
        <time>2015-07-06T19:03:32.968Z</time>
      </trkpt>
      <trkpt lat="48.8403" lon="2.25617">
        <ele>92.4</ele>
        <time>2015-07-06T19:03:33.959Z</time>
      </trkpt>
      <trkpt lat="48.84035" lon="2.25614">
        <ele>93.2</ele>
        <time>2015-07-06T19:03:34.920Z</time>
      </trkpt>
      <trkpt lat="48.8404" lon="2.25612">
        <ele>94.1</ele>
        <time>2015-07-06T19:03:36.049Z</time>
      </trkpt>
      <trkpt lat="48.84045" lon="2.2561">
        <ele>94.4</ele>
        <time>2015-07-06T19:03:37Z</time>
      </trkpt>
      <trkpt lat="48.84052" lon="2.25608">
        <ele>95.3</ele>
        <time>2015-07-06T19:03:38.941Z</time>
      </trkpt>
      <trkpt lat="48.84056" lon="2.25607">
        <ele>96</ele>
        <time>2015-07-06T19:03:39.946Z</time>
      </trkpt>
      <trkpt lat="48.84063" lon="2.25604">
        <ele>97.3</ele>
        <time>2015-07-06T19:03:41.979Z</time>
      </trkpt>
      <trkpt lat="48.84068" lon="2.25604">
        <ele>97.9</ele>
        <time>2015-07-06T19:03:43.213Z</time>
      </trkpt>
      <trkpt lat="48.84076" lon="2.25602">
        <ele>99.4</ele>
        <time>2015-07-06T19:03:44.920Z</time>
      </trkpt>
      <trkpt lat="48.8408" lon="2.25602">
        <ele>99.8</ele>
        <time>2015-07-06T19:03:45.945Z</time>
      </trkpt>
      <trkpt lat="48.84089" lon="2.25601">
        <ele>100.5</ele>
        <time>2015-07-06T19:03:48.004Z</time>
      </trkpt>
      <trkpt lat="48.84093" lon="2.25601">
        <ele>100.7</ele>
        <time>2015-07-06T19:03:48.918Z</time>
      </trkpt>
      <trkpt lat="48.84098" lon="2.25601">
        <ele>101</ele>
        <time>2015-07-06T19:03:49.995Z</time>
      </trkpt>
      <trkpt lat="48.84103" lon="2.256">
        <ele>101.2</ele>
        <time>2015-07-06T19:03:50.970Z</time>
      </trkpt>
      <trkpt lat="48.84109" lon="2.25601">
        <ele>101.4</ele>
        <time>2015-07-06T19:03:52.010Z</time>
      </trkpt>
      <trkpt lat="48.84115" lon="2.25602">
        <ele>101.5</ele>
        <time>2015-07-06T19:03:52.959Z</time>
      </trkpt>
      <trkpt lat="48.8412" lon="2.25604">
        <ele>101.1</ele>
        <time>2015-07-06T19:03:53.997Z</time>
      </trkpt>
      <trkpt lat="48.84125" lon="2.25604">
        <ele>100.9</ele>
        <time>2015-07-06T19:03:54.937Z</time>
      </trkpt>
      <trkpt lat="48.8413" lon="2.25604">
        <ele>101.2</ele>
        <time>2015-07-06T19:03:55.966Z</time>
      </trkpt>
      <trkpt lat="48.84135" lon="2.25604">
        <ele>101.2</ele>
        <time>2015-07-06T19:03:57.094Z</time>
      </trkpt>
      <trkpt lat="48.8414" lon="2.25604">
        <ele>101</ele>
        <time>2015-07-06T19:03:57.995Z</time>
      </trkpt>
      <trkpt lat="48.84145" lon="2.25605">
        <ele>100.7</ele>
        <time>2015-07-06T19:03:59.008Z</time>
      </trkpt>
      <trkpt lat="48.8415" lon="2.25605">
        <ele>100.6</ele>
        <time>2015-07-06T19:03:59.577Z</time>
      </trkpt>
      <trkpt lat="48.84154" lon="2.25604">
        <ele>100.5</ele>
        <time>2015-07-06T19:04:01.015Z</time>
      </trkpt>
      <trkpt lat="48.84159" lon="2.25603">
        <ele>100.4</ele>
        <time>2015-07-06T19:04:01.930Z</time>
      </trkpt>
      <trkpt lat="48.84164" lon="2.25603">
        <ele>100.3</ele>
        <time>2015-07-06T19:04:02.944Z</time>
      </trkpt>
      <trkpt lat="48.84169" lon="2.25603">
        <ele>100</ele>
        <time>2015-07-06T19:04:04.644Z</time>
      </trkpt>
      <trkpt lat="48.84174" lon="2.25603">
        <ele>99.7</ele>
        <time>2015-07-06T19:04:04.976Z</time>
      </trkpt>
      <trkpt lat="48.8418" lon="2.25603">
        <ele>99.4</ele>
        <time>2015-07-06T19:04:05.996Z</time>
      </trkpt>
      <trkpt lat="48.84186" lon="2.25603">
        <ele>99.1</ele>
        <time>2015-07-06T19:04:07.041Z</time>
      </trkpt>
      <trkpt lat="48.84191" lon="2.25602">
        <ele>99.2</ele>
        <time>2015-07-06T19:04:08.019Z</time>
      </trkpt>
      <trkpt lat="48.84197" lon="2.25601">
        <ele>98.5</ele>
        <time>2015-07-06T19:04:08.984Z</time>
      </trkpt>
      <trkpt lat="48.84202" lon="2.25601">
        <ele>98.2</ele>
        <time>2015-07-06T19:04:09.994Z</time>
      </trkpt>
      <trkpt lat="48.84207" lon="2.25601">
        <ele>98</ele>
        <time>2015-07-06T19:04:11.002Z</time>
      </trkpt>
      <trkpt lat="48.84212" lon="2.256">
        <ele>97.8</ele>
        <time>2015-07-06T19:04:12.018Z</time>
      </trkpt>
      <trkpt lat="48.84217" lon="2.25599">
        <ele>97.9</ele>
        <time>2015-07-06T19:04:13.444Z</time>
      </trkpt>
      <trkpt lat="48.84221" lon="2.25597">
        <ele>97.7</ele>
        <time>2015-07-06T19:04:13.932Z</time>
      </trkpt>
      <trkpt lat="48.84226" lon="2.25596">
        <ele>97.5</ele>
        <time>2015-07-06T19:04:14.978Z</time>
      </trkpt>
      <trkpt lat="48.84233" lon="2.25594">
        <ele>97.2</ele>
        <time>2015-07-06T19:04:16.981Z</time>
      </trkpt>
      <trkpt lat="48.84235" lon="2.25591">
        <ele>96.8</ele>
        <time>2015-07-06T19:04:18.057Z</time>
      </trkpt>
      <trkpt lat="48.84239" lon="2.25584">
        <ele>96.7</ele>
        <time>2015-07-06T19:04:19.940Z</time>
      </trkpt>
      <trkpt lat="48.84241" lon="2.2558">
        <ele>96.8</ele>
        <time>2015-07-06T19:04:20.971Z</time>
      </trkpt>
      <trkpt lat="48.84244" lon="2.25572">
        <ele>96.4</ele>
        <time>2015-07-06T19:04:22.990Z</time>
      </trkpt>
      <trkpt lat="48.84245" lon="2.25567">
        <ele>96.3</ele>
        <time>2015-07-06T19:04:24.011Z</time>
      </trkpt>
      <trkpt lat="48.84246" lon="2.25557">
        <ele>96.2</ele>
        <time>2015-07-06T19:04:25.938Z</time>
      </trkpt>
      <trkpt lat="48.84248" lon="2.25552">
        <ele>96.1</ele>
        <time>2015-07-06T19:04:26.946Z</time>
      </trkpt>
      <trkpt lat="48.8425" lon="2.2554">
        <ele>95.9</ele>
        <time>2015-07-06T19:04:28.975Z</time>
      </trkpt>
      <trkpt lat="48.84251" lon="2.25534">
        <ele>95.6</ele>
        <time>2015-07-06T19:04:30.008Z</time>
      </trkpt>
      <trkpt lat="48.84253" lon="2.25522">
        <ele>95.1</ele>
        <time>2015-07-06T19:04:31.933Z</time>
      </trkpt>
      <trkpt lat="48.84254" lon="2.25516">
        <ele>95.1</ele>
        <time>2015-07-06T19:04:32.910Z</time>
      </trkpt>
      <trkpt lat="48.84257" lon="2.25504">
        <ele>94.3</ele>
        <time>2015-07-06T19:04:34.942Z</time>
      </trkpt>
      <trkpt lat="48.84258" lon="2.25499">
        <ele>93.6</ele>
        <time>2015-07-06T19:04:36.015Z</time>
      </trkpt>
      <trkpt lat="48.84262" lon="2.2549">
        <ele>92.9</ele>
        <time>2015-07-06T19:04:37.950Z</time>
      </trkpt>
      <trkpt lat="48.84262" lon="2.25486">
        <ele>91.9</ele>
        <time>2015-07-06T19:04:39.013Z</time>
      </trkpt>
      <trkpt lat="48.84267" lon="2.25474">
        <ele>90.6</ele>
        <time>2015-07-06T19:04:42.020Z</time>
      </trkpt>
      <trkpt lat="48.84268" lon="2.2547">
        <ele>90.2</ele>
        <time>2015-07-06T19:04:43.043Z</time>
      </trkpt>
      <trkpt lat="48.84269" lon="2.25458">
        <ele>88.7</ele>
        <time>2015-07-06T19:04:45.946Z</time>
      </trkpt>
      <trkpt lat="48.84268" lon="2.25454">
        <ele>88.9</ele>
        <time>2015-07-06T19:04:46.964Z</time>
      </trkpt>
      <trkpt lat="48.84266" lon="2.25442">
        <ele>88.7</ele>
        <time>2015-07-06T19:04:50.020Z</time>
      </trkpt>
      <trkpt lat="48.84266" lon="2.25438">
        <ele>88.6</ele>
        <time>2015-07-06T19:04:50.920Z</time>
      </trkpt>
      <trkpt lat="48.84267" lon="2.25427">
        <ele>88.9</ele>
        <time>2015-07-06T19:04:54.241Z</time>
      </trkpt>
      <trkpt lat="48.84267" lon="2.25422">
        <ele>88.9</ele>
        <time>2015-07-06T19:04:54.953Z</time>
      </trkpt>
      <trkpt lat="48.84265" lon="2.25413">
        <ele>89.1</ele>
        <time>2015-07-06T19:04:56.966Z</time>
      </trkpt>
      <trkpt lat="48.84264" lon="2.25407">
        <ele>89</ele>
        <time>2015-07-06T19:04:58.006Z</time>
      </trkpt>
      <trkpt lat="48.84261" lon="2.25396">
        <ele>88.7</ele>
        <time>2015-07-06T19:05:00.009Z</time>
      </trkpt>
      <trkpt lat="48.8426" lon="2.25389">
        <ele>88.8</ele>
        <time>2015-07-06T19:05:00.982Z</time>
      </trkpt>
      <trkpt lat="48.84257" lon="2.25378">
        <ele>89.2</ele>
        <time>2015-07-06T19:05:02.968Z</time>
      </trkpt>
      <trkpt lat="48.84257" lon="2.25373">
        <ele>89.2</ele>
        <time>2015-07-06T19:05:03.977Z</time>
      </trkpt>
      <trkpt lat="48.84256" lon="2.25362">
        <ele>88.7</ele>
        <time>2015-07-06T19:05:06.104Z</time>
      </trkpt>
      <trkpt lat="48.84255" lon="2.25356">
        <ele>88.4</ele>
        <time>2015-07-06T19:05:07.004Z</time>
      </trkpt>
      <trkpt lat="48.84255" lon="2.25343">
        <ele>88.7</ele>
        <time>2015-07-06T19:05:08.991Z</time>
      </trkpt>
      <trkpt lat="48.84254" lon="2.25337">
        <ele>89</ele>
        <time>2015-07-06T19:05:09.997Z</time>
      </trkpt>
      <trkpt lat="48.84254" lon="2.25327">
        <ele>89.1</ele>
        <time>2015-07-06T19:05:11.984Z</time>
      </trkpt>
      <trkpt lat="48.84253" lon="2.25321">
        <ele>89.3</ele>
        <time>2015-07-06T19:05:12.937Z</time>
      </trkpt>
      <trkpt lat="48.84251" lon="2.2531">
        <ele>90</ele>
        <time>2015-07-06T19:05:14.945Z</time>
      </trkpt>
      <trkpt lat="48.8425" lon="2.25305">
        <ele>90.1</ele>
        <time>2015-07-06T19:05:15.982Z</time>
      </trkpt>
      <trkpt lat="48.8425" lon="2.25294">
        <ele>90.1</ele>
        <time>2015-07-06T19:05:18.032Z</time>
      </trkpt>
      <trkpt lat="48.84248" lon="2.25287">
        <ele>90.2</ele>
        <time>2015-07-06T19:05:19.042Z</time>
      </trkpt>
      <trkpt lat="48.84247" lon="2.25279">
        <ele>90.6</ele>
        <time>2015-07-06T19:05:19.948Z</time>
      </trkpt>
      <trkpt lat="48.84247" lon="2.25272">
        <ele>90.7</ele>
        <time>2015-07-06T19:05:20.943Z</time>
      </trkpt>
      <trkpt lat="48.84246" lon="2.25264">
        <ele>91</ele>
        <time>2015-07-06T19:05:21.974Z</time>
      </trkpt>
      <trkpt lat="48.84243" lon="2.25256">
        <ele>91.3</ele>
        <time>2015-07-06T19:05:23.035Z</time>
      </trkpt>
      <trkpt lat="48.8424" lon="2.25248">
        <ele>91.9</ele>
        <time>2015-07-06T19:05:24.189Z</time>
      </trkpt>
      <trkpt lat="48.84238" lon="2.25241">
        <ele>92</ele>
        <time>2015-07-06T19:05:24.957Z</time>
      </trkpt>
      <trkpt lat="48.84236" lon="2.25228">
        <ele>92.9</ele>
        <time>2015-07-06T19:05:26.961Z</time>
      </trkpt>
      <trkpt lat="48.84235" lon="2.25222">
        <ele>93</ele>
        <time>2015-07-06T19:05:27.952Z</time>
      </trkpt>
      <trkpt lat="48.84234" lon="2.25211">
        <ele>93.1</ele>
        <time>2015-07-06T19:05:30.031Z</time>
      </trkpt>
      <trkpt lat="48.84234" lon="2.25207">
        <ele>93.2</ele>
        <time>2015-07-06T19:05:30.951Z</time>
      </trkpt>
      <trkpt lat="48.84234" lon="2.25195">
        <ele>93.3</ele>
        <time>2015-07-06T19:05:34.003Z</time>
      </trkpt>
      <trkpt lat="48.84233" lon="2.2519">
        <ele>93.7</ele>
        <time>2015-07-06T19:05:35.035Z</time>
      </trkpt>
      <trkpt lat="48.84233" lon="2.2518">
        <ele>93.3</ele>
        <time>2015-07-06T19:05:37.021Z</time>
      </trkpt>
      <trkpt lat="48.84233" lon="2.25175">
        <ele>93.1</ele>
        <time>2015-07-06T19:05:37.970Z</time>
      </trkpt>
      <trkpt lat="48.84232" lon="2.25164">
        <ele>93.4</ele>
        <time>2015-07-06T19:05:40.020Z</time>
      </trkpt>
      <trkpt lat="48.84233" lon="2.25159">
        <ele>93.5</ele>
        <time>2015-07-06T19:05:41.043Z</time>
      </trkpt>
      <trkpt lat="48.84235" lon="2.25149">
        <ele>93.9</ele>
        <time>2015-07-06T19:05:43.332Z</time>
      </trkpt>
      <trkpt lat="48.84236" lon="2.25144">
        <ele>93.9</ele>
        <time>2015-07-06T19:05:43.963Z</time>
      </trkpt>
      <trkpt lat="48.84236" lon="2.25133">
        <ele>94.5</ele>
        <time>2015-07-06T19:05:45.990Z</time>
      </trkpt>
      <trkpt lat="48.84237" lon="2.25127">
        <ele>94.8</ele>
        <time>2015-07-06T19:05:47.017Z</time>
      </trkpt>
      <trkpt lat="48.8424" lon="2.25118">
        <ele>95.4</ele>
        <time>2015-07-06T19:05:48.920Z</time>
      </trkpt>
      <trkpt lat="48.8424" lon="2.25111">
        <ele>95.7</ele>
        <time>2015-07-06T19:05:49.965Z</time>
      </trkpt>
      <trkpt lat="48.8424" lon="2.251">
        <ele>95.8</ele>
        <time>2015-07-06T19:05:51.983Z</time>
      </trkpt>
      <trkpt lat="48.84239" lon="2.25094">
        <ele>95.7</ele>
        <time>2015-07-06T19:05:52.996Z</time>
      </trkpt>
      <trkpt lat="48.84237" lon="2.25082">
        <ele>95</ele>
        <time>2015-07-06T19:05:55.036Z</time>
      </trkpt>
      <trkpt lat="48.84236" lon="2.25077">
        <ele>95</ele>
        <time>2015-07-06T19:05:55.961Z</time>
      </trkpt>
      <trkpt lat="48.84233" lon="2.25068">
        <ele>94.4</ele>
        <time>2015-07-06T19:05:58.572Z</time>
      </trkpt>
      <trkpt lat="48.84231" lon="2.25064">
        <ele>94.1</ele>
        <time>2015-07-06T19:05:59.027Z</time>
      </trkpt>
      <trkpt lat="48.84228" lon="2.25055">
        <ele>93.4</ele>
        <time>2015-07-06T19:06:00.966Z</time>
      </trkpt>
      <trkpt lat="48.84227" lon="2.25049">
        <ele>93.4</ele>
        <time>2015-07-06T19:06:01.979Z</time>
      </trkpt>
      <trkpt lat="48.84228" lon="2.25038">
        <ele>93.5</ele>
        <time>2015-07-06T19:06:03.953Z</time>
      </trkpt>
      <trkpt lat="48.84229" lon="2.25033">
        <ele>93.6</ele>
        <time>2015-07-06T19:06:04.971Z</time>
      </trkpt>
      <trkpt lat="48.84231" lon="2.25022">
        <ele>93.7</ele>
        <time>2015-07-06T19:06:07.024Z</time>
      </trkpt>
      <trkpt lat="48.84232" lon="2.25018">
        <ele>93.6</ele>
        <time>2015-07-06T19:06:07.942Z</time>
      </trkpt>
      <trkpt lat="48.84236" lon="2.25008">
        <ele>93.3</ele>
        <time>2015-07-06T19:06:09.994Z</time>
      </trkpt>
      <trkpt lat="48.84237" lon="2.25002">
        <ele>93.2</ele>
        <time>2015-07-06T19:06:11.004Z</time>
      </trkpt>
      <trkpt lat="48.84241" lon="2.24992">
        <ele>92.7</ele>
        <time>2015-07-06T19:06:13.853Z</time>
      </trkpt>
      <trkpt lat="48.84242" lon="2.24987">
        <ele>92.3</ele>
        <time>2015-07-06T19:06:13.914Z</time>
      </trkpt>
      <trkpt lat="48.84245" lon="2.24976">
        <ele>91.3</ele>
        <time>2015-07-06T19:06:15.942Z</time>
      </trkpt>
      <trkpt lat="48.84246" lon="2.24971">
        <ele>91.2</ele>
        <time>2015-07-06T19:06:16.915Z</time>
      </trkpt>
      <trkpt lat="48.84249" lon="2.24962">
        <ele>91.2</ele>
        <time>2015-07-06T19:06:18.963Z</time>
      </trkpt>
      <trkpt lat="48.84251" lon="2.24957">
        <ele>91.5</ele>
        <time>2015-07-06T19:06:19.970Z</time>
      </trkpt>
      <trkpt lat="48.84252" lon="2.24945">
        <ele>91.4</ele>
        <time>2015-07-06T19:06:22.214Z</time>
      </trkpt>
      <trkpt lat="48.84254" lon="2.24939">
        <ele>91.9</ele>
        <time>2015-07-06T19:06:23.002Z</time>
      </trkpt>
      <trkpt lat="48.84257" lon="2.24928">
        <ele>91.7</ele>
        <time>2015-07-06T19:06:24.920Z</time>
      </trkpt>
      <trkpt lat="48.84258" lon="2.24923">
        <ele>91.5</ele>
        <time>2015-07-06T19:06:26.024Z</time>
      </trkpt>
      <trkpt lat="48.84261" lon="2.24915">
        <ele>91.4</ele>
        <time>2015-07-06T19:06:27.966Z</time>
      </trkpt>
      <trkpt lat="48.84263" lon="2.24911">
        <ele>91.2</ele>
        <time>2015-07-06T19:06:29.018Z</time>
      </trkpt>
      <trkpt lat="48.84268" lon="2.249">
        <ele>90.6</ele>
        <time>2015-07-06T19:06:32.645Z</time>
      </trkpt>
      <trkpt lat="48.84269" lon="2.24897">
        <ele>90.8</ele>
        <time>2015-07-06T19:06:32.928Z</time>
      </trkpt>
      <trkpt lat="48.84266" lon="2.24885">
        <ele>89.9</ele>
        <time>2015-07-06T19:06:37.705Z</time>
      </trkpt>
      <trkpt lat="48.84263" lon="2.24884">
        <ele>90</ele>
        <time>2015-07-06T19:06:37.924Z</time>
      </trkpt>
      <trkpt lat="48.84255" lon="2.24881">
        <ele>89.4</ele>
        <time>2015-07-06T19:06:41.062Z</time>
      </trkpt>
      <trkpt lat="48.84252" lon="2.24879">
        <ele>89.4</ele>
        <time>2015-07-06T19:06:42.054Z</time>
      </trkpt>
      <trkpt lat="48.84246" lon="2.24878">
        <ele>89.2</ele>
        <time>2015-07-06T19:06:44.020Z</time>
      </trkpt>
      <trkpt lat="48.84242" lon="2.24877">
        <ele>89.1</ele>
        <time>2015-07-06T19:06:45.020Z</time>
      </trkpt>
      <trkpt lat="48.84236" lon="2.24874">
        <ele>88.9</ele>
        <time>2015-07-06T19:06:46.945Z</time>
      </trkpt>
      <trkpt lat="48.84231" lon="2.24873">
        <ele>89</ele>
        <time>2015-07-06T19:06:48.065Z</time>
      </trkpt>
      <trkpt lat="48.84227" lon="2.2487">
        <ele>88.8</ele>
        <time>2015-07-06T19:06:48.994Z</time>
      </trkpt>
      <trkpt lat="48.84222" lon="2.24868">
        <ele>88.7</ele>
        <time>2015-07-06T19:06:50.005Z</time>
      </trkpt>
      <trkpt lat="48.84214" lon="2.24864">
        <ele>89</ele>
        <time>2015-07-06T19:06:51.946Z</time>
      </trkpt>
      <trkpt lat="48.84209" lon="2.24863">
        <ele>89.3</ele>
        <time>2015-07-06T19:06:52.977Z</time>
      </trkpt>
      <trkpt lat="48.84204" lon="2.24861">
        <ele>89.6</ele>
        <time>2015-07-06T19:06:54.009Z</time>
      </trkpt>
      <trkpt lat="48.842" lon="2.24859">
        <ele>89.4</ele>
        <time>2015-07-06T19:06:55.019Z</time>
      </trkpt>
      <trkpt lat="48.84195" lon="2.24857">
        <ele>89.8</ele>
        <time>2015-07-06T19:06:55.919Z</time>
      </trkpt>
      <trkpt lat="48.84191" lon="2.24854">
        <ele>89.6</ele>
        <time>2015-07-06T19:06:56.948Z</time>
      </trkpt>
      <trkpt lat="48.84187" lon="2.24852">
        <ele>89.9</ele>
        <time>2015-07-06T19:06:57.948Z</time>
      </trkpt>
      <trkpt lat="48.84182" lon="2.24849">
        <ele>89.8</ele>
        <time>2015-07-06T19:06:58.968Z</time>
      </trkpt>
      <trkpt lat="48.84178" lon="2.24846">
        <ele>89.8</ele>
        <time>2015-07-06T19:07:00.058Z</time>
      </trkpt>
      <trkpt lat="48.84172" lon="2.24842">
        <ele>90</ele>
        <time>2015-07-06T19:07:00.951Z</time>
      </trkpt>
      <trkpt lat="48.84167" lon="2.24838">
        <ele>90</ele>
        <time>2015-07-06T19:07:02.268Z</time>
      </trkpt>
      <trkpt lat="48.84161" lon="2.24834">
        <ele>89.9</ele>
        <time>2015-07-06T19:07:03.074Z</time>
      </trkpt>
      <trkpt lat="48.84155" lon="2.2483">
        <ele>89.9</ele>
        <time>2015-07-06T19:07:03.954Z</time>
      </trkpt>
      <trkpt lat="48.84149" lon="2.24825">
        <ele>89.7</ele>
        <time>2015-07-06T19:07:04.965Z</time>
      </trkpt>
      <trkpt lat="48.84143" lon="2.2482">
        <ele>89.7</ele>
        <time>2015-07-06T19:07:05.990Z</time>
      </trkpt>
      <trkpt lat="48.84137" lon="2.24816">
        <ele>89.8</ele>
        <time>2015-07-06T19:07:07.002Z</time>
      </trkpt>
      <trkpt lat="48.84131" lon="2.24813">
        <ele>89.3</ele>
        <time>2015-07-06T19:07:08.010Z</time>
      </trkpt>
      <trkpt lat="48.84124" lon="2.2481">
        <ele>89.1</ele>
        <time>2015-07-06T19:07:08.935Z</time>
      </trkpt>
      <trkpt lat="48.84117" lon="2.24807">
        <ele>89.1</ele>
        <time>2015-07-06T19:07:09.935Z</time>
      </trkpt>
      <trkpt lat="48.8411" lon="2.24806">
        <ele>89</ele>
        <time>2015-07-06T19:07:10.966Z</time>
      </trkpt>
      <trkpt lat="48.84103" lon="2.24803">
        <ele>88.9</ele>
        <time>2015-07-06T19:07:12.005Z</time>
      </trkpt>
      <trkpt lat="48.84096" lon="2.24801">
        <ele>89</ele>
        <time>2015-07-06T19:07:13.004Z</time>
      </trkpt>
      <trkpt lat="48.8409" lon="2.24799">
        <ele>89.1</ele>
        <time>2015-07-06T19:07:14.018Z</time>
      </trkpt>
      <trkpt lat="48.84083" lon="2.24796">
        <ele>89.4</ele>
        <time>2015-07-06T19:07:14.939Z</time>
      </trkpt>
      <trkpt lat="48.84077" lon="2.24794">
        <ele>89.7</ele>
        <time>2015-07-06T19:07:15.969Z</time>
      </trkpt>
      <trkpt lat="48.8407" lon="2.24791">
        <ele>89.8</ele>
        <time>2015-07-06T19:07:16.965Z</time>
      </trkpt>
      <trkpt lat="48.84065" lon="2.24788">
        <ele>89.6</ele>
        <time>2015-07-06T19:07:18.003Z</time>
      </trkpt>
      <trkpt lat="48.8406" lon="2.24784">
        <ele>89.3</ele>
        <time>2015-07-06T19:07:19.021Z</time>
      </trkpt>
      <trkpt lat="48.84054" lon="2.2478">
        <ele>89</ele>
        <time>2015-07-06T19:07:19.936Z</time>
      </trkpt>
      <trkpt lat="48.8405" lon="2.24776">
        <ele>89.1</ele>
        <time>2015-07-06T19:07:20.942Z</time>
      </trkpt>
      <trkpt lat="48.84046" lon="2.24773">
        <ele>89.1</ele>
        <time>2015-07-06T19:07:21.959Z</time>
      </trkpt>
      <trkpt lat="48.84042" lon="2.2477">
        <ele>89</ele>
        <time>2015-07-06T19:07:22.972Z</time>
      </trkpt>
      <trkpt lat="48.84034" lon="2.24763">
        <ele>88.9</ele>
        <time>2015-07-06T19:07:24.996Z</time>
      </trkpt>
      <trkpt lat="48.8403" lon="2.24759">
        <ele>88.7</ele>
        <time>2015-07-06T19:07:26.007Z</time>
      </trkpt>
      <trkpt lat="48.84025" lon="2.24756">
        <ele>88.7</ele>
        <time>2015-07-06T19:07:26.964Z</time>
      </trkpt>
      <trkpt lat="48.84021" lon="2.24754">
        <ele>88.7</ele>
        <time>2015-07-06T19:07:27.976Z</time>
      </trkpt>
      <trkpt lat="48.84016" lon="2.24752">
        <ele>88.7</ele>
        <time>2015-07-06T19:07:28.980Z</time>
      </trkpt>
      <trkpt lat="48.8401" lon="2.24749">
        <ele>88.6</ele>
        <time>2015-07-06T19:07:29.994Z</time>
      </trkpt>
      <trkpt lat="48.84005" lon="2.24747">
        <ele>88.6</ele>
        <time>2015-07-06T19:07:31.003Z</time>
      </trkpt>
      <trkpt lat="48.84" lon="2.24745">
        <ele>89</ele>
        <time>2015-07-06T19:07:32.019Z</time>
      </trkpt>
      <trkpt lat="48.83996" lon="2.24743">
        <ele>89.8</ele>
        <time>2015-07-06T19:07:33.033Z</time>
      </trkpt>
      <trkpt lat="48.83991" lon="2.24741">
        <ele>89.8</ele>
        <time>2015-07-06T19:07:33.968Z</time>
      </trkpt>
      <trkpt lat="48.83987" lon="2.24737">
        <ele>89.6</ele>
        <time>2015-07-06T19:07:34.962Z</time>
      </trkpt>
      <trkpt lat="48.83983" lon="2.24735">
        <ele>89.8</ele>
        <time>2015-07-06T19:07:35.997Z</time>
      </trkpt>
      <trkpt lat="48.83975" lon="2.24729">
        <ele>90</ele>
        <time>2015-07-06T19:07:38.020Z</time>
      </trkpt>
      <trkpt lat="48.83972" lon="2.24724">
        <ele>89.9</ele>
        <time>2015-07-06T19:07:39.030Z</time>
      </trkpt>
      <trkpt lat="48.83965" lon="2.24716">
        <ele>90.6</ele>
        <time>2015-07-06T19:07:40.950Z</time>
      </trkpt>
      <trkpt lat="48.83962" lon="2.24712">
        <ele>90.5</ele>
        <time>2015-07-06T19:07:42.022Z</time>
      </trkpt>
      <trkpt lat="48.83958" lon="2.24709">
        <ele>90.2</ele>
        <time>2015-07-06T19:07:42.949Z</time>
      </trkpt>
      <trkpt lat="48.83953" lon="2.24707">
        <ele>90.2</ele>
        <time>2015-07-06T19:07:43.952Z</time>
      </trkpt>
      <trkpt lat="48.83948" lon="2.24705">
        <ele>90.1</ele>
        <time>2015-07-06T19:07:44.961Z</time>
      </trkpt>
      <trkpt lat="48.83944" lon="2.24704">
        <ele>89.9</ele>
        <time>2015-07-06T19:07:45.973Z</time>
      </trkpt>
      <trkpt lat="48.83936" lon="2.24702">
        <ele>90.1</ele>
        <time>2015-07-06T19:07:48.071Z</time>
      </trkpt>
      <trkpt lat="48.83932" lon="2.24702">
        <ele>90.2</ele>
        <time>2015-07-06T19:07:48.922Z</time>
      </trkpt>
      <trkpt lat="48.83925" lon="2.24698">
        <ele>89.8</ele>
        <time>2015-07-06T19:07:50.972Z</time>
      </trkpt>
      <trkpt lat="48.83922" lon="2.24697">
        <ele>89.6</ele>
        <time>2015-07-06T19:07:51.928Z</time>
      </trkpt>
      <trkpt lat="48.83917" lon="2.24694">
        <ele>89.3</ele>
        <time>2015-07-06T19:07:54.989Z</time>
      </trkpt>
      <trkpt lat="48.83917" lon="2.24693">
        <ele>89.7</ele>
        <time>2015-07-06T19:07:56.001Z</time>
      </trkpt>
      <trkpt lat="48.83917" lon="2.24693">
        <ele>90.6</ele>
        <time>2015-07-06T19:08:24.005Z</time>
      </trkpt>
      <trkpt lat="48.8391" lon="2.24682">
        <ele>92.5</ele>
        <time>2015-07-06T19:08:24.989Z</time>
      </trkpt>
      <trkpt lat="48.8391" lon="2.24669">
        <ele>92.5</ele>
        <time>2015-07-06T19:08:28.036Z</time>
      </trkpt>
      <trkpt lat="48.8391" lon="2.24663">
        <ele>92.4</ele>
        <time>2015-07-06T19:08:28.950Z</time>
      </trkpt>
      <trkpt lat="48.83912" lon="2.2465">
        <ele>92.6</ele>
        <time>2015-07-06T19:08:31.029Z</time>
      </trkpt>
      <trkpt lat="48.83912" lon="2.24644">
        <ele>92.5</ele>
        <time>2015-07-06T19:08:31.921Z</time>
      </trkpt>
      <trkpt lat="48.83914" lon="2.24632">
        <ele>92.7</ele>
        <time>2015-07-06T19:08:33.969Z</time>
      </trkpt>
      <trkpt lat="48.83914" lon="2.24625">
        <ele>93.3</ele>
        <time>2015-07-06T19:08:34.976Z</time>
      </trkpt>
      <trkpt lat="48.83914" lon="2.24618">
        <ele>93.7</ele>
        <time>2015-07-06T19:08:35.984Z</time>
      </trkpt>
      <trkpt lat="48.83913" lon="2.2461">
        <ele>93.6</ele>
        <time>2015-07-06T19:08:36.993Z</time>
      </trkpt>
      <trkpt lat="48.83912" lon="2.24601">
        <ele>93.2</ele>
        <time>2015-07-06T19:08:37.993Z</time>
      </trkpt>
      <trkpt lat="48.83911" lon="2.24592">
        <ele>93.1</ele>
        <time>2015-07-06T19:08:39.006Z</time>
      </trkpt>
      <trkpt lat="48.83911" lon="2.24583">
        <ele>93.2</ele>
        <time>2015-07-06T19:08:39.941Z</time>
      </trkpt>
      <trkpt lat="48.83912" lon="2.24575">
        <ele>92.8</ele>
        <time>2015-07-06T19:08:40.967Z</time>
      </trkpt>
      <trkpt lat="48.83918" lon="2.24566">
        <ele>92.3</ele>
        <time>2015-07-06T19:08:42.006Z</time>
      </trkpt>
      <trkpt lat="48.83921" lon="2.24558">
        <ele>92</ele>
        <time>2015-07-06T19:08:43Z</time>
      </trkpt>
      <trkpt lat="48.83923" lon="2.2455">
        <ele>92</ele>
        <time>2015-07-06T19:08:44.017Z</time>
      </trkpt>
      <trkpt lat="48.83923" lon="2.2454">
        <ele>92.1</ele>
        <time>2015-07-06T19:08:44.918Z</time>
      </trkpt>
      <trkpt lat="48.83922" lon="2.24531">
        <ele>91.7</ele>
        <time>2015-07-06T19:08:45.944Z</time>
      </trkpt>
      <trkpt lat="48.83922" lon="2.24522">
        <ele>91.5</ele>
        <time>2015-07-06T19:08:46.958Z</time>
      </trkpt>
      <trkpt lat="48.83923" lon="2.24513">
        <ele>91.2</ele>
        <time>2015-07-06T19:08:47.982Z</time>
      </trkpt>
      <trkpt lat="48.83923" lon="2.24504">
        <ele>90.8</ele>
        <time>2015-07-06T19:08:48.969Z</time>
      </trkpt>
      <trkpt lat="48.83923" lon="2.24494">
        <ele>90.7</ele>
        <time>2015-07-06T19:08:49.979Z</time>
      </trkpt>
      <trkpt lat="48.83924" lon="2.24485">
        <ele>90.8</ele>
        <time>2015-07-06T19:08:50.994Z</time>
      </trkpt>
      <trkpt lat="48.83924" lon="2.24474">
        <ele>90.7</ele>
        <time>2015-07-06T19:08:51.994Z</time>
      </trkpt>
      <trkpt lat="48.83925" lon="2.24464">
        <ele>90.9</ele>
        <time>2015-07-06T19:08:53.007Z</time>
      </trkpt>
      <trkpt lat="48.83926" lon="2.24454">
        <ele>90.9</ele>
        <time>2015-07-06T19:08:54.018Z</time>
      </trkpt>
      <trkpt lat="48.83927" lon="2.24443">
        <ele>90</ele>
        <time>2015-07-06T19:08:55.024Z</time>
      </trkpt>
      <trkpt lat="48.83928" lon="2.24433">
        <ele>90</ele>
        <time>2015-07-06T19:08:55.940Z</time>
      </trkpt>
      <trkpt lat="48.83928" lon="2.24424">
        <ele>89.9</ele>
        <time>2015-07-06T19:08:56.948Z</time>
      </trkpt>
      <trkpt lat="48.83929" lon="2.24414">
        <ele>90</ele>
        <time>2015-07-06T19:08:57.953Z</time>
      </trkpt>
      <trkpt lat="48.8393" lon="2.24404">
        <ele>89.8</ele>
        <time>2015-07-06T19:08:58.958Z</time>
      </trkpt>
      <trkpt lat="48.83931" lon="2.24395">
        <ele>89.7</ele>
        <time>2015-07-06T19:09:00.020Z</time>
      </trkpt>
      <trkpt lat="48.83932" lon="2.24385">
        <ele>90</ele>
        <time>2015-07-06T19:09:01.017Z</time>
      </trkpt>
      <trkpt lat="48.83934" lon="2.24376">
        <ele>89.9</ele>
        <time>2015-07-06T19:09:01.938Z</time>
      </trkpt>
      <trkpt lat="48.83935" lon="2.24366">
        <ele>90.3</ele>
        <time>2015-07-06T19:09:02.969Z</time>
      </trkpt>
      <trkpt lat="48.83936" lon="2.24355">
        <ele>90.8</ele>
        <time>2015-07-06T19:09:03.981Z</time>
      </trkpt>
      <trkpt lat="48.83935" lon="2.24344">
        <ele>90.8</ele>
        <time>2015-07-06T19:09:04.989Z</time>
      </trkpt>
      <trkpt lat="48.83935" lon="2.24332">
        <ele>91.6</ele>
        <time>2015-07-06T19:09:06.061Z</time>
      </trkpt>
      <trkpt lat="48.83935" lon="2.2432">
        <ele>92.2</ele>
        <time>2015-07-06T19:09:06.935Z</time>
      </trkpt>
      <trkpt lat="48.83936" lon="2.24307">
        <ele>92.1</ele>
        <time>2015-07-06T19:09:07.964Z</time>
      </trkpt>
      <trkpt lat="48.83937" lon="2.24294">
        <ele>92.1</ele>
        <time>2015-07-06T19:09:08.994Z</time>
      </trkpt>
      <trkpt lat="48.83938" lon="2.24283">
        <ele>92.1</ele>
        <time>2015-07-06T19:09:09.907Z</time>
      </trkpt>
      <trkpt lat="48.83938" lon="2.2427">
        <ele>92.4</ele>
        <time>2015-07-06T19:09:10.930Z</time>
      </trkpt>
      <trkpt lat="48.8394" lon="2.24258">
        <ele>92.9</ele>
        <time>2015-07-06T19:09:11.975Z</time>
      </trkpt>
      <trkpt lat="48.83942" lon="2.24246">
        <ele>92.8</ele>
        <time>2015-07-06T19:09:12.978Z</time>
      </trkpt>
      <trkpt lat="48.83944" lon="2.24234">
        <ele>92.9</ele>
        <time>2015-07-06T19:09:13.932Z</time>
      </trkpt>
      <trkpt lat="48.83946" lon="2.24222">
        <ele>92.9</ele>
        <time>2015-07-06T19:09:14.922Z</time>
      </trkpt>
      <trkpt lat="48.83946" lon="2.2421">
        <ele>92.7</ele>
        <time>2015-07-06T19:09:15.936Z</time>
      </trkpt>
      <trkpt lat="48.83947" lon="2.24197">
        <ele>92.7</ele>
        <time>2015-07-06T19:09:16.944Z</time>
      </trkpt>
      <trkpt lat="48.83949" lon="2.24185">
        <ele>93.1</ele>
        <time>2015-07-06T19:09:17.973Z</time>
      </trkpt>
      <trkpt lat="48.8395" lon="2.24172">
        <ele>93.3</ele>
        <time>2015-07-06T19:09:18.988Z</time>
      </trkpt>
      <trkpt lat="48.83951" lon="2.24159">
        <ele>93</ele>
        <time>2015-07-06T19:09:20.005Z</time>
      </trkpt>
      <trkpt lat="48.83952" lon="2.24146">
        <ele>93.2</ele>
        <time>2015-07-06T19:09:20.933Z</time>
      </trkpt>
      <trkpt lat="48.83953" lon="2.24133">
        <ele>93.1</ele>
        <time>2015-07-06T19:09:21.901Z</time>
      </trkpt>
      <trkpt lat="48.83954" lon="2.2412">
        <ele>92.8</ele>
        <time>2015-07-06T19:09:22.942Z</time>
      </trkpt>
      <trkpt lat="48.83955" lon="2.24107">
        <ele>92.7</ele>
        <time>2015-07-06T19:09:23.980Z</time>
      </trkpt>
      <trkpt lat="48.83957" lon="2.24094">
        <ele>93.3</ele>
        <time>2015-07-06T19:09:24.981Z</time>
      </trkpt>
      <trkpt lat="48.83958" lon="2.24082">
        <ele>93.7</ele>
        <time>2015-07-06T19:09:25.985Z</time>
      </trkpt>
      <trkpt lat="48.83959" lon="2.24069">
        <ele>93.7</ele>
        <time>2015-07-06T19:09:26.996Z</time>
      </trkpt>
      <trkpt lat="48.83959" lon="2.24057">
        <ele>93.7</ele>
        <time>2015-07-06T19:09:28.019Z</time>
      </trkpt>
      <trkpt lat="48.83961" lon="2.24046">
        <ele>93.5</ele>
        <time>2015-07-06T19:09:29.019Z</time>
      </trkpt>
      <trkpt lat="48.83962" lon="2.24035">
        <ele>93.3</ele>
        <time>2015-07-06T19:09:30.022Z</time>
      </trkpt>
      <trkpt lat="48.83963" lon="2.24025">
        <ele>93.4</ele>
        <time>2015-07-06T19:09:30.949Z</time>
      </trkpt>
      <trkpt lat="48.83963" lon="2.24016">
        <ele>94.2</ele>
        <time>2015-07-06T19:09:31.938Z</time>
      </trkpt>
      <trkpt lat="48.83965" lon="2.24009">
        <ele>94.2</ele>
        <time>2015-07-06T19:09:32.941Z</time>
      </trkpt>
      <trkpt lat="48.83968" lon="2.23997">
        <ele>85.9</ele>
        <time>2015-07-06T19:09:56.958Z</time>
      </trkpt>
      <trkpt lat="48.83969" lon="2.23993">
        <ele>85.1</ele>
        <time>2015-07-06T19:09:57.980Z</time>
      </trkpt>
      <trkpt lat="48.83969" lon="2.23981">
        <ele>84.7</ele>
        <time>2015-07-06T19:10:00.029Z</time>
      </trkpt>
      <trkpt lat="48.8397" lon="2.23975">
        <ele>84.6</ele>
        <time>2015-07-06T19:10:00.958Z</time>
      </trkpt>
      <trkpt lat="48.8397" lon="2.23968">
        <ele>84.9</ele>
        <time>2015-07-06T19:10:01.952Z</time>
      </trkpt>
      <trkpt lat="48.8397" lon="2.23961">
        <ele>85.1</ele>
        <time>2015-07-06T19:10:02.955Z</time>
      </trkpt>
      <trkpt lat="48.83969" lon="2.23954">
        <ele>85.1</ele>
        <time>2015-07-06T19:10:03.973Z</time>
      </trkpt>
      <trkpt lat="48.83969" lon="2.23946">
        <ele>85.1</ele>
        <time>2015-07-06T19:10:05.161Z</time>
      </trkpt>
      <trkpt lat="48.83968" lon="2.23938">
        <ele>85.1</ele>
        <time>2015-07-06T19:10:06.012Z</time>
      </trkpt>
      <trkpt lat="48.83967" lon="2.2393">
        <ele>85.3</ele>
        <time>2015-07-06T19:10:07.021Z</time>
      </trkpt>
      <trkpt lat="48.83967" lon="2.23921">
        <ele>85.4</ele>
        <time>2015-07-06T19:10:08.028Z</time>
      </trkpt>
      <trkpt lat="48.83967" lon="2.23912">
        <ele>85.5</ele>
        <time>2015-07-06T19:10:08.941Z</time>
      </trkpt>
      <trkpt lat="48.8397" lon="2.23904">
        <ele>85.9</ele>
        <time>2015-07-06T19:10:09.937Z</time>
      </trkpt>
      <trkpt lat="48.83971" lon="2.23895">
        <ele>85.9</ele>
        <time>2015-07-06T19:10:10.947Z</time>
      </trkpt>
      <trkpt lat="48.83973" lon="2.23886">
        <ele>86.1</ele>
        <time>2015-07-06T19:10:12.012Z</time>
      </trkpt>
      <trkpt lat="48.83975" lon="2.23875">
        <ele>86.3</ele>
        <time>2015-07-06T19:10:12.991Z</time>
      </trkpt>
      <trkpt lat="48.83975" lon="2.23862">
        <ele>85.9</ele>
        <time>2015-07-06T19:10:13.949Z</time>
      </trkpt>
      <trkpt lat="48.83976" lon="2.23851">
        <ele>86.3</ele>
        <time>2015-07-06T19:10:14.945Z</time>
      </trkpt>
      <trkpt lat="48.83976" lon="2.23838">
        <ele>87</ele>
        <time>2015-07-06T19:10:15.985Z</time>
      </trkpt>
      <trkpt lat="48.83977" lon="2.23826">
        <ele>87.2</ele>
        <time>2015-07-06T19:10:16.964Z</time>
      </trkpt>
      <trkpt lat="48.83977" lon="2.23814">
        <ele>87.7</ele>
        <time>2015-07-06T19:10:18.016Z</time>
      </trkpt>
      <trkpt lat="48.83979" lon="2.23802">
        <ele>88.1</ele>
        <time>2015-07-06T19:10:18.964Z</time>
      </trkpt>
      <trkpt lat="48.8398" lon="2.23788">
        <ele>88.5</ele>
        <time>2015-07-06T19:10:19.927Z</time>
      </trkpt>
      <trkpt lat="48.83981" lon="2.23776">
        <ele>88.8</ele>
        <time>2015-07-06T19:10:20.937Z</time>
      </trkpt>
      <trkpt lat="48.83984" lon="2.23764">
        <ele>88.8</ele>
        <time>2015-07-06T19:10:21.948Z</time>
      </trkpt>
      <trkpt lat="48.83986" lon="2.23752">
        <ele>88.7</ele>
        <time>2015-07-06T19:10:22.964Z</time>
      </trkpt>
      <trkpt lat="48.83988" lon="2.2374">
        <ele>88.7</ele>
        <time>2015-07-06T19:10:25.542Z</time>
      </trkpt>
      <trkpt lat="48.83989" lon="2.23727">
        <ele>88.8</ele>
        <time>2015-07-06T19:10:26.564Z</time>
      </trkpt>
      <trkpt lat="48.8399" lon="2.23713">
        <ele>88.9</ele>
        <time>2015-07-06T19:10:27.604Z</time>
      </trkpt>
      <trkpt lat="48.83991" lon="2.237">
        <ele>89</ele>
        <time>2015-07-06T19:10:28.592Z</time>
      </trkpt>
      <trkpt lat="48.83993" lon="2.23688">
        <ele>89</ele>
        <time>2015-07-06T19:10:29.496Z</time>
      </trkpt>
      <trkpt lat="48.83994" lon="2.23676">
        <ele>89</ele>
        <time>2015-07-06T19:10:30.509Z</time>
      </trkpt>
      <trkpt lat="48.83995" lon="2.23662">
        <ele>88.7</ele>
        <time>2015-07-06T19:10:31.584Z</time>
      </trkpt>
      <trkpt lat="48.83996" lon="2.23649">
        <ele>88.4</ele>
        <time>2015-07-06T19:10:32.603Z</time>
      </trkpt>
      <trkpt lat="48.83997" lon="2.23636">
        <ele>88.5</ele>
        <time>2015-07-06T19:10:33.523Z</time>
      </trkpt>
      <trkpt lat="48.83998" lon="2.23624">
        <ele>88.8</ele>
        <time>2015-07-06T19:10:34.549Z</time>
      </trkpt>
      <trkpt lat="48.83999" lon="2.23611">
        <ele>89</ele>
        <time>2015-07-06T19:10:35.557Z</time>
      </trkpt>
      <trkpt lat="48.84001" lon="2.23598">
        <ele>88.8</ele>
        <time>2015-07-06T19:10:36.556Z</time>
      </trkpt>
      <trkpt lat="48.84002" lon="2.23586">
        <ele>88.8</ele>
        <time>2015-07-06T19:10:37.569Z</time>
      </trkpt>
      <trkpt lat="48.84003" lon="2.23573">
        <ele>89</ele>
        <time>2015-07-06T19:10:38.580Z</time>
      </trkpt>
      <trkpt lat="48.84005" lon="2.23562">
        <ele>88.3</ele>
        <time>2015-07-06T19:10:39.586Z</time>
      </trkpt>
      <trkpt lat="48.84007" lon="2.23551">
        <ele>88.1</ele>
        <time>2015-07-06T19:10:40.591Z</time>
      </trkpt>
      <trkpt lat="48.84008" lon="2.23539">
        <ele>88.3</ele>
        <time>2015-07-06T19:10:41.502Z</time>
      </trkpt>
      <trkpt lat="48.84008" lon="2.23526">
        <ele>88.2</ele>
        <time>2015-07-06T19:10:42.534Z</time>
      </trkpt>
      <trkpt lat="48.84009" lon="2.23514">
        <ele>88.5</ele>
        <time>2015-07-06T19:10:43.538Z</time>
      </trkpt>
      <trkpt lat="48.8401" lon="2.23502">
        <ele>88.8</ele>
        <time>2015-07-06T19:10:44.572Z</time>
      </trkpt>
      <trkpt lat="48.84012" lon="2.2349">
        <ele>88.8</ele>
        <time>2015-07-06T19:10:45.560Z</time>
      </trkpt>
      <trkpt lat="48.84014" lon="2.23478">
        <ele>88.4</ele>
        <time>2015-07-06T19:10:46.566Z</time>
      </trkpt>
      <trkpt lat="48.84015" lon="2.23466">
        <ele>87.9</ele>
        <time>2015-07-06T19:10:47.575Z</time>
      </trkpt>
      <trkpt lat="48.84016" lon="2.23454">
        <ele>87.5</ele>
        <time>2015-07-06T19:10:48.581Z</time>
      </trkpt>
      <trkpt lat="48.84017" lon="2.23441">
        <ele>87.3</ele>
        <time>2015-07-06T19:10:49.594Z</time>
      </trkpt>
      <trkpt lat="48.84018" lon="2.23428">
        <ele>87.4</ele>
        <time>2015-07-06T19:10:50.606Z</time>
      </trkpt>
      <trkpt lat="48.84019" lon="2.23415">
        <ele>87.4</ele>
        <time>2015-07-06T19:10:51.522Z</time>
      </trkpt>
      <trkpt lat="48.8402" lon="2.23403">
        <ele>87.5</ele>
        <time>2015-07-06T19:10:52.525Z</time>
      </trkpt>
      <trkpt lat="48.84021" lon="2.2339">
        <ele>87.6</ele>
        <time>2015-07-06T19:10:53.539Z</time>
      </trkpt>
      <trkpt lat="48.84021" lon="2.23377">
        <ele>87.6</ele>
        <time>2015-07-06T19:10:54.560Z</time>
      </trkpt>
      <trkpt lat="48.84021" lon="2.23364">
        <ele>88</ele>
        <time>2015-07-06T19:10:55.555Z</time>
      </trkpt>
      <trkpt lat="48.84021" lon="2.23351">
        <ele>88.4</ele>
        <time>2015-07-06T19:10:56.561Z</time>
      </trkpt>
      <trkpt lat="48.84022" lon="2.23339">
        <ele>88.3</ele>
        <time>2015-07-06T19:10:57.514Z</time>
      </trkpt>
      <trkpt lat="48.84022" lon="2.23326">
        <ele>88.8</ele>
        <time>2015-07-06T19:10:58.545Z</time>
      </trkpt>
      <trkpt lat="48.84023" lon="2.23314">
        <ele>88.8</ele>
        <time>2015-07-06T19:10:59.554Z</time>
      </trkpt>
      <trkpt lat="48.84024" lon="2.23301">
        <ele>89</ele>
        <time>2015-07-06T19:11:00.494Z</time>
      </trkpt>
      <trkpt lat="48.84025" lon="2.23289">
        <ele>89.1</ele>
        <time>2015-07-06T19:11:01.524Z</time>
      </trkpt>
      <trkpt lat="48.84026" lon="2.23277">
        <ele>89.1</ele>
        <time>2015-07-06T19:11:02.537Z</time>
      </trkpt>
      <trkpt lat="48.84027" lon="2.23266">
        <ele>89.2</ele>
        <time>2015-07-06T19:11:03.555Z</time>
      </trkpt>
      <trkpt lat="48.84027" lon="2.23254">
        <ele>89</ele>
        <time>2015-07-06T19:11:04.605Z</time>
      </trkpt>
      <trkpt lat="48.84027" lon="2.23242">
        <ele>88.7</ele>
        <time>2015-07-06T19:11:05.518Z</time>
      </trkpt>
      <trkpt lat="48.84028" lon="2.23231">
        <ele>88.2</ele>
        <time>2015-07-06T19:11:06.529Z</time>
      </trkpt>
      <trkpt lat="48.84029" lon="2.2322">
        <ele>88.8</ele>
        <time>2015-07-06T19:11:07.562Z</time>
      </trkpt>
      <trkpt lat="48.84031" lon="2.23208">
        <ele>88.9</ele>
        <time>2015-07-06T19:11:08.553Z</time>
      </trkpt>
      <trkpt lat="48.84032" lon="2.23196">
        <ele>88.8</ele>
        <time>2015-07-06T19:11:09.566Z</time>
      </trkpt>
      <trkpt lat="48.84033" lon="2.23185">
        <ele>88.8</ele>
        <time>2015-07-06T19:11:10.575Z</time>
      </trkpt>
      <trkpt lat="48.84035" lon="2.23173">
        <ele>88.9</ele>
        <time>2015-07-06T19:11:11.592Z</time>
      </trkpt>
      <trkpt lat="48.84037" lon="2.23162">
        <ele>88.9</ele>
        <time>2015-07-06T19:11:12.591Z</time>
      </trkpt>
      <trkpt lat="48.84039" lon="2.2315">
        <ele>88.8</ele>
        <time>2015-07-06T19:11:13.621Z</time>
      </trkpt>
      <trkpt lat="48.84041" lon="2.23139">
        <ele>88.8</ele>
        <time>2015-07-06T19:11:14.523Z</time>
      </trkpt>
      <trkpt lat="48.84043" lon="2.23129">
        <ele>88.7</ele>
        <time>2015-07-06T19:11:15.547Z</time>
      </trkpt>
      <trkpt lat="48.84045" lon="2.23117">
        <ele>88.5</ele>
        <time>2015-07-06T19:11:16.545Z</time>
      </trkpt>
      <trkpt lat="48.84046" lon="2.23106">
        <ele>88.1</ele>
        <time>2015-07-06T19:11:17.558Z</time>
      </trkpt>
      <trkpt lat="48.84048" lon="2.23094">
        <ele>88.5</ele>
        <time>2015-07-06T19:11:18.570Z</time>
      </trkpt>
      <trkpt lat="48.84048" lon="2.23082">
        <ele>88.8</ele>
        <time>2015-07-06T19:11:19.579Z</time>
      </trkpt>
      <trkpt lat="48.84049" lon="2.23071">
        <ele>88.1</ele>
        <time>2015-07-06T19:11:20.589Z</time>
      </trkpt>
      <trkpt lat="48.8405" lon="2.23059">
        <ele>88.7</ele>
        <time>2015-07-06T19:11:21.511Z</time>
      </trkpt>
      <trkpt lat="48.84051" lon="2.23049">
        <ele>88.3</ele>
        <time>2015-07-06T19:11:22.527Z</time>
      </trkpt>
      <trkpt lat="48.84052" lon="2.23038">
        <ele>88.5</ele>
        <time>2015-07-06T19:11:23.559Z</time>
      </trkpt>
      <trkpt lat="48.84053" lon="2.23027">
        <ele>88.5</ele>
        <time>2015-07-06T19:11:24.552Z</time>
      </trkpt>
      <trkpt lat="48.84054" lon="2.23016">
        <ele>88.3</ele>
        <time>2015-07-06T19:11:25.566Z</time>
      </trkpt>
      <trkpt lat="48.84055" lon="2.23004">
        <ele>88.4</ele>
        <time>2015-07-06T19:11:26.580Z</time>
      </trkpt>
      <trkpt lat="48.84055" lon="2.22993">
        <ele>88</ele>
        <time>2015-07-06T19:11:27.598Z</time>
      </trkpt>
      <trkpt lat="48.84054" lon="2.22982">
        <ele>88.1</ele>
        <time>2015-07-06T19:11:28.480Z</time>
      </trkpt>
      <trkpt lat="48.84054" lon="2.22971">
        <ele>88.3</ele>
        <time>2015-07-06T19:11:29.513Z</time>
      </trkpt>
      <trkpt lat="48.84055" lon="2.22961">
        <ele>88.7</ele>
        <time>2015-07-06T19:11:30.513Z</time>
      </trkpt>
      <trkpt lat="48.84056" lon="2.22952">
        <ele>88.8</ele>
        <time>2015-07-06T19:11:31.594Z</time>
      </trkpt>
      <trkpt lat="48.84057" lon="2.22943">
        <ele>88.9</ele>
        <time>2015-07-06T19:11:32.587Z</time>
      </trkpt>
      <trkpt lat="48.84058" lon="2.22933">
        <ele>88.6</ele>
        <time>2015-07-06T19:11:33.491Z</time>
      </trkpt>
      <trkpt lat="48.84058" lon="2.22924">
        <ele>88.7</ele>
        <time>2015-07-06T19:11:34.503Z</time>
      </trkpt>
      <trkpt lat="48.8406" lon="2.22916">
        <ele>88.5</ele>
        <time>2015-07-06T19:11:35.525Z</time>
      </trkpt>
      <trkpt lat="48.84061" lon="2.22909">
        <ele>88.5</ele>
        <time>2015-07-06T19:11:37.056Z</time>
      </trkpt>
      <trkpt lat="48.84063" lon="2.22896">
        <ele>87.3</ele>
        <time>2015-07-06T19:11:39.140Z</time>
      </trkpt>
      <trkpt lat="48.84063" lon="2.22893">
        <ele>86.4</ele>
        <time>2015-07-06T19:11:40.041Z</time>
      </trkpt>
      <trkpt lat="48.84071" lon="2.22894">
        <ele>83.3</ele>
        <time>2015-07-06T19:12:21.047Z</time>
      </trkpt>
      <trkpt lat="48.84077" lon="2.22895">
        <ele>78.4</ele>
        <time>2015-07-06T19:12:22.046Z</time>
      </trkpt>
      <trkpt lat="48.84084" lon="2.22889">
        <ele>78.1</ele>
        <time>2015-07-06T19:12:25.105Z</time>
      </trkpt>
      <trkpt lat="48.84087" lon="2.22886">
        <ele>77.8</ele>
        <time>2015-07-06T19:12:26.154Z</time>
      </trkpt>
      <trkpt lat="48.84093" lon="2.22879">
        <ele>77.9</ele>
        <time>2015-07-06T19:12:28.047Z</time>
      </trkpt>
      <trkpt lat="48.84095" lon="2.22875">
        <ele>78.1</ele>
        <time>2015-07-06T19:12:29.069Z</time>
      </trkpt>
      <trkpt lat="48.841" lon="2.22864">
        <ele>78</ele>
        <time>2015-07-06T19:12:32.170Z</time>
      </trkpt>
      <trkpt lat="48.841" lon="2.2286">
        <ele>78</ele>
        <time>2015-07-06T19:12:33.076Z</time>
      </trkpt>
      <trkpt lat="48.84102" lon="2.22848">
        <ele>78.6</ele>
        <time>2015-07-06T19:12:36.073Z</time>
      </trkpt>
      <trkpt lat="48.84102" lon="2.22843">
        <ele>78.6</ele>
        <time>2015-07-06T19:12:37.087Z</time>
      </trkpt>
      <trkpt lat="48.84102" lon="2.22831">
        <ele>78.6</ele>
        <time>2015-07-06T19:12:40.080Z</time>
      </trkpt>
      <trkpt lat="48.84101" lon="2.22827">
        <ele>78.6</ele>
        <time>2015-07-06T19:12:41.137Z</time>
      </trkpt>
      <trkpt lat="48.84097" lon="2.22817">
        <ele>78.6</ele>
        <time>2015-07-06T19:12:44.114Z</time>
      </trkpt>
      <trkpt lat="48.84095" lon="2.22814">
        <ele>78.4</ele>
        <time>2015-07-06T19:12:45.069Z</time>
      </trkpt>
      <trkpt lat="48.84091" lon="2.22805">
        <ele>78.6</ele>
        <time>2015-07-06T19:16:18.078Z</time>
      </trkpt>
      <trkpt lat="48.84091" lon="2.22796">
        <ele>70.7</ele>
        <time>2015-07-06T19:16:19.092Z</time>
      </trkpt>
      <trkpt lat="48.8409" lon="2.22784">
        <ele>72.3</ele>
        <time>2015-07-06T19:16:24.171Z</time>
      </trkpt>
      <trkpt lat="48.8409" lon="2.22781">
        <ele>72.6</ele>
        <time>2015-07-06T19:16:25.036Z</time>
      </trkpt>
      <trkpt lat="48.84092" lon="2.22768">
        <ele>74.3</ele>
        <time>2015-07-06T19:16:29.075Z</time>
      </trkpt>
      <trkpt lat="48.84092" lon="2.22764">
        <ele>74.6</ele>
        <time>2015-07-06T19:16:30.089Z</time>
      </trkpt>
      <trkpt lat="48.84093" lon="2.22755">
        <ele>75.5</ele>
        <time>2015-07-06T19:16:32.106Z</time>
      </trkpt>
      <trkpt lat="48.84093" lon="2.2275">
        <ele>76</ele>
        <time>2015-07-06T19:16:33.041Z</time>
      </trkpt>
      <trkpt lat="48.84094" lon="2.2274">
        <ele>76</ele>
        <time>2015-07-06T19:16:35.071Z</time>
      </trkpt>
      <trkpt lat="48.84094" lon="2.22735">
        <ele>76.3</ele>
        <time>2015-07-06T19:16:36.086Z</time>
      </trkpt>
      <trkpt lat="48.84095" lon="2.22725">
        <ele>76.6</ele>
        <time>2015-07-06T19:16:38.049Z</time>
      </trkpt>
      <trkpt lat="48.84096" lon="2.22721">
        <ele>76.9</ele>
        <time>2015-07-06T19:16:39.069Z</time>
      </trkpt>
      <trkpt lat="48.84097" lon="2.22709">
        <ele>77.2</ele>
        <time>2015-07-06T19:16:41.091Z</time>
      </trkpt>
      <trkpt lat="48.84097" lon="2.22703">
        <ele>77.1</ele>
        <time>2015-07-06T19:16:42.106Z</time>
      </trkpt>
      <trkpt lat="48.84099" lon="2.22691">
        <ele>78.3</ele>
        <time>2015-07-06T19:16:44.123Z</time>
      </trkpt>
      <trkpt lat="48.84099" lon="2.22686">
        <ele>78.6</ele>
        <time>2015-07-06T19:16:45.032Z</time>
      </trkpt>
      <trkpt lat="48.841" lon="2.22674">
        <ele>79</ele>
        <time>2015-07-06T19:16:47.057Z</time>
      </trkpt>
      <trkpt lat="48.84101" lon="2.22669">
        <ele>79.3</ele>
        <time>2015-07-06T19:16:48.077Z</time>
      </trkpt>
      <trkpt lat="48.84101" lon="2.22656">
        <ele>79.6</ele>
        <time>2015-07-06T19:16:50.080Z</time>
      </trkpt>
      <trkpt lat="48.84101" lon="2.22648">
        <ele>79.5</ele>
        <time>2015-07-06T19:16:51.091Z</time>
      </trkpt>
      <trkpt lat="48.84102" lon="2.22641">
        <ele>79.6</ele>
        <time>2015-07-06T19:16:52.046Z</time>
      </trkpt>
      <trkpt lat="48.84103" lon="2.22633">
        <ele>79.5</ele>
        <time>2015-07-06T19:16:53.040Z</time>
      </trkpt>
      <trkpt lat="48.84103" lon="2.22626">
        <ele>79.5</ele>
        <time>2015-07-06T19:16:54.060Z</time>
      </trkpt>
      <trkpt lat="48.84103" lon="2.2262">
        <ele>79.3</ele>
        <time>2015-07-06T19:16:55.069Z</time>
      </trkpt>
      <trkpt lat="48.84106" lon="2.22607">
        <ele>79</ele>
        <time>2015-07-06T19:16:57.095Z</time>
      </trkpt>
      <trkpt lat="48.84108" lon="2.22602">
        <ele>78.1</ele>
        <time>2015-07-06T19:16:58.101Z</time>
      </trkpt>
      <trkpt lat="48.84111" lon="2.22592">
        <ele>77</ele>
        <time>2015-07-06T19:17:00.066Z</time>
      </trkpt>
      <trkpt lat="48.84112" lon="2.22588">
        <ele>77.1</ele>
        <time>2015-07-06T19:17:01.262Z</time>
      </trkpt>
      <trkpt lat="48.84114" lon="2.22577">
        <ele>76.6</ele>
        <time>2015-07-06T19:17:04.115Z</time>
      </trkpt>
      <trkpt lat="48.84115" lon="2.22574">
        <ele>76.8</ele>
        <time>2015-07-06T19:17:05.034Z</time>
      </trkpt>
      <trkpt lat="48.84118" lon="2.22562">
        <ele>76.6</ele>
        <time>2015-07-06T19:17:08.120Z</time>
      </trkpt>
      <trkpt lat="48.84119" lon="2.22557">
        <ele>76.3</ele>
        <time>2015-07-06T19:17:09.133Z</time>
      </trkpt>
      <trkpt lat="48.84121" lon="2.22546">
        <ele>76.4</ele>
        <time>2015-07-06T19:17:11.025Z</time>
      </trkpt>
      <trkpt lat="48.84122" lon="2.22541">
        <ele>76.6</ele>
        <time>2015-07-06T19:17:12.081Z</time>
      </trkpt>
      <trkpt lat="48.84122" lon="2.2253">
        <ele>76.3</ele>
        <time>2015-07-06T19:17:14.135Z</time>
      </trkpt>
      <trkpt lat="48.84123" lon="2.22525">
        <ele>76.2</ele>
        <time>2015-07-06T19:17:15.104Z</time>
      </trkpt>
      <trkpt lat="48.84124" lon="2.22514">
        <ele>76.4</ele>
        <time>2015-07-06T19:17:17.383Z</time>
      </trkpt>
      <trkpt lat="48.84124" lon="2.22508">
        <ele>76.1</ele>
        <time>2015-07-06T19:17:18.104Z</time>
      </trkpt>
      <trkpt lat="48.84125" lon="2.22498">
        <ele>76.1</ele>
        <time>2015-07-06T19:17:20.106Z</time>
      </trkpt>
      <trkpt lat="48.84125" lon="2.22493">
        <ele>76.1</ele>
        <time>2015-07-06T19:17:21.106Z</time>
      </trkpt>
      <trkpt lat="48.84126" lon="2.22481">
        <ele>76.8</ele>
        <time>2015-07-06T19:17:23.062Z</time>
      </trkpt>
      <trkpt lat="48.84126" lon="2.22475">
        <ele>76.9</ele>
        <time>2015-07-06T19:17:24.050Z</time>
      </trkpt>
      <trkpt lat="48.84127" lon="2.22462">
        <ele>76.5</ele>
        <time>2015-07-06T19:17:26.113Z</time>
      </trkpt>
      <trkpt lat="48.84127" lon="2.22456">
        <ele>76.4</ele>
        <time>2015-07-06T19:17:27.105Z</time>
      </trkpt>
      <trkpt lat="48.84129" lon="2.22443">
        <ele>76.6</ele>
        <time>2015-07-06T19:17:29.773Z</time>
      </trkpt>
      <trkpt lat="48.8413" lon="2.22437">
        <ele>76.8</ele>
        <time>2015-07-06T19:17:30.084Z</time>
      </trkpt>
      <trkpt lat="48.84131" lon="2.22426">
        <ele>76.8</ele>
        <time>2015-07-06T19:17:32.191Z</time>
      </trkpt>
      <trkpt lat="48.84132" lon="2.2242">
        <ele>77.3</ele>
        <time>2015-07-06T19:17:33.104Z</time>
      </trkpt>
      <trkpt lat="48.84132" lon="2.22408">
        <ele>78.1</ele>
        <time>2015-07-06T19:17:35.025Z</time>
      </trkpt>
      <trkpt lat="48.84132" lon="2.22402">
        <ele>78.6</ele>
        <time>2015-07-06T19:17:36.029Z</time>
      </trkpt>
      <trkpt lat="48.84132" lon="2.22389">
        <ele>78.8</ele>
        <time>2015-07-06T19:17:38.174Z</time>
      </trkpt>
      <trkpt lat="48.84132" lon="2.22382">
        <ele>79</ele>
        <time>2015-07-06T19:17:39.028Z</time>
      </trkpt>
      <trkpt lat="48.84133" lon="2.2237">
        <ele>79.4</ele>
        <time>2015-07-06T19:17:41.048Z</time>
      </trkpt>
      <trkpt lat="48.84134" lon="2.22364">
        <ele>79.4</ele>
        <time>2015-07-06T19:17:42.063Z</time>
      </trkpt>
      <trkpt lat="48.84135" lon="2.22352">
        <ele>80.1</ele>
        <time>2015-07-06T19:17:44.249Z</time>
      </trkpt>
      <trkpt lat="48.84135" lon="2.22346">
        <ele>79.9</ele>
        <time>2015-07-06T19:17:45.177Z</time>
      </trkpt>
      <trkpt lat="48.84136" lon="2.22333">
        <ele>80.1</ele>
        <time>2015-07-06T19:17:47.105Z</time>
      </trkpt>
      <trkpt lat="48.84137" lon="2.22327">
        <ele>80.2</ele>
        <time>2015-07-06T19:17:48.158Z</time>
      </trkpt>
      <trkpt lat="48.84138" lon="2.22316">
        <ele>80.2</ele>
        <time>2015-07-06T19:17:50.263Z</time>
      </trkpt>
      <trkpt lat="48.84138" lon="2.2231">
        <ele>80.3</ele>
        <time>2015-07-06T19:17:51.117Z</time>
      </trkpt>
      <trkpt lat="48.8414" lon="2.22298">
        <ele>80</ele>
        <time>2015-07-06T19:17:53.125Z</time>
      </trkpt>
      <trkpt lat="48.8414" lon="2.22292">
        <ele>79.9</ele>
        <time>2015-07-06T19:17:54.049Z</time>
      </trkpt>
      <trkpt lat="48.8414" lon="2.22279">
        <ele>80.1</ele>
        <time>2015-07-06T19:17:56.106Z</time>
      </trkpt>
      <trkpt lat="48.84141" lon="2.22274">
        <ele>80.2</ele>
        <time>2015-07-06T19:17:57.012Z</time>
      </trkpt>
      <trkpt lat="48.84142" lon="2.22264">
        <ele>80</ele>
        <time>2015-07-06T19:17:59.075Z</time>
      </trkpt>
      <trkpt lat="48.84143" lon="2.2226">
        <ele>80.2</ele>
        <time>2015-07-06T19:18:00.066Z</time>
      </trkpt>
      <trkpt lat="48.84145" lon="2.22247">
        <ele>80.2</ele>
        <time>2015-07-06T19:18:03.101Z</time>
      </trkpt>
      <trkpt lat="48.84146" lon="2.22244">
        <ele>80.4</ele>
        <time>2015-07-06T19:18:04.120Z</time>
      </trkpt>
      <trkpt lat="48.8415" lon="2.22235">
        <ele>81.2</ele>
        <time>2015-07-06T19:18:07.039Z</time>
      </trkpt>
      <trkpt lat="48.84151" lon="2.22232">
        <ele>81.1</ele>
        <time>2015-07-06T19:18:08.088Z</time>
      </trkpt>
      <trkpt lat="48.84156" lon="2.22223">
        <ele>81.2</ele>
        <time>2015-07-06T19:18:11.059Z</time>
      </trkpt>
      <trkpt lat="48.84157" lon="2.2222">
        <ele>81.4</ele>
        <time>2015-07-06T19:18:12.061Z</time>
      </trkpt>
      <trkpt lat="48.84159" lon="2.22208">
        <ele>81.7</ele>
        <time>2015-07-06T19:18:15.106Z</time>
      </trkpt>
      <trkpt lat="48.84161" lon="2.22204">
        <ele>81.5</ele>
        <time>2015-07-06T19:18:16.197Z</time>
      </trkpt>
      <trkpt lat="48.84163" lon="2.22195">
        <ele>81.8</ele>
        <time>2015-07-06T19:18:18.049Z</time>
      </trkpt>
      <trkpt lat="48.84165" lon="2.22191">
        <ele>82.4</ele>
        <time>2015-07-06T19:18:19.074Z</time>
      </trkpt>
      <trkpt lat="48.84169" lon="2.22184">
        <ele>83.2</ele>
        <time>2015-07-06T19:18:22.107Z</time>
      </trkpt>
      <trkpt lat="48.84172" lon="2.22182">
        <ele>83.5</ele>
        <time>2015-07-06T19:18:23.055Z</time>
      </trkpt>
      <trkpt lat="48.84175" lon="2.22171">
        <ele>84.3</ele>
        <time>2015-07-06T19:18:26.203Z</time>
      </trkpt>
      <trkpt lat="48.84176" lon="2.22168">
        <ele>84.4</ele>
        <time>2015-07-06T19:18:27.055Z</time>
      </trkpt>
      <trkpt lat="48.84181" lon="2.22158">
        <ele>84</ele>
        <time>2015-07-06T19:18:30.079Z</time>
      </trkpt>
      <trkpt lat="48.84183" lon="2.22154">
        <ele>84.1</ele>
        <time>2015-07-06T19:18:31.102Z</time>
      </trkpt>
      <trkpt lat="48.84188" lon="2.22144">
        <ele>85</ele>
        <time>2015-07-06T19:18:34.033Z</time>
      </trkpt>
      <trkpt lat="48.84189" lon="2.2214">
        <ele>85.1</ele>
        <time>2015-07-06T19:18:35.062Z</time>
      </trkpt>
      <trkpt lat="48.84193" lon="2.2213">
        <ele>84.9</ele>
        <time>2015-07-06T19:18:39.073Z</time>
      </trkpt>
      <trkpt lat="48.84194" lon="2.22126">
        <ele>85</ele>
        <time>2015-07-06T19:18:40.043Z</time>
      </trkpt>
      <trkpt lat="48.84202" lon="2.2212">
        <ele>90</ele>
        <time>2015-07-06T19:18:47.041Z</time>
      </trkpt>
      <trkpt lat="48.84204" lon="2.2212">
        <ele>90.2</ele>
        <time>2015-07-06T19:18:48.039Z</time>
      </trkpt>
      <trkpt lat="48.84211" lon="2.22114">
        <ele>90.4</ele>
        <time>2015-07-06T19:18:52.122Z</time>
      </trkpt>
      <trkpt lat="48.84213" lon="2.22112">
        <ele>91</ele>
        <time>2015-07-06T19:18:53.071Z</time>
      </trkpt>
      <trkpt lat="48.84219" lon="2.22109">
        <ele>92</ele>
        <time>2015-07-06T19:18:55.050Z</time>
      </trkpt>
      <trkpt lat="48.84223" lon="2.22107">
        <ele>92.1</ele>
        <time>2015-07-06T19:18:56.178Z</time>
      </trkpt>
      <trkpt lat="48.84231" lon="2.22105">
        <ele>92.7</ele>
        <time>2015-07-06T19:18:58.050Z</time>
      </trkpt>
      <trkpt lat="48.84234" lon="2.22103">
        <ele>93.1</ele>
        <time>2015-07-06T19:18:59.067Z</time>
      </trkpt>
      <trkpt lat="48.84241" lon="2.22101">
        <ele>93.5</ele>
        <time>2015-07-06T19:19:01.055Z</time>
      </trkpt>
      <trkpt lat="48.84245" lon="2.221">
        <ele>93.9</ele>
        <time>2015-07-06T19:19:02.181Z</time>
      </trkpt>
      <trkpt lat="48.84252" lon="2.22097">
        <ele>94.2</ele>
        <time>2015-07-06T19:19:04.043Z</time>
      </trkpt>
      <trkpt lat="48.84255" lon="2.22095">
        <ele>94.2</ele>
        <time>2015-07-06T19:19:05.105Z</time>
      </trkpt>
      <trkpt lat="48.84261" lon="2.22091">
        <ele>94.5</ele>
        <time>2015-07-06T19:19:07.089Z</time>
      </trkpt>
      <trkpt lat="48.84265" lon="2.22089">
        <ele>94.3</ele>
        <time>2015-07-06T19:19:08.123Z</time>
      </trkpt>
      <trkpt lat="48.8427" lon="2.22085">
        <ele>94.3</ele>
        <time>2015-07-06T19:19:10.590Z</time>
      </trkpt>
      <trkpt lat="48.84273" lon="2.22083">
        <ele>94.7</ele>
        <time>2015-07-06T19:19:11.132Z</time>
      </trkpt>
      <trkpt lat="48.8428" lon="2.22081">
        <ele>95.2</ele>
        <time>2015-07-06T19:19:13.078Z</time>
      </trkpt>
      <trkpt lat="48.84283" lon="2.2208">
        <ele>95.4</ele>
        <time>2015-07-06T19:19:14.100Z</time>
      </trkpt>
      <trkpt lat="48.84291" lon="2.22081">
        <ele>95.5</ele>
        <time>2015-07-06T19:19:16.046Z</time>
      </trkpt>
      <trkpt lat="48.84294" lon="2.22081">
        <ele>95.6</ele>
        <time>2015-07-06T19:19:17.042Z</time>
      </trkpt>
      <trkpt lat="48.84301" lon="2.22079">
        <ele>96.4</ele>
        <time>2015-07-06T19:19:19.384Z</time>
      </trkpt>
      <trkpt lat="48.84305" lon="2.22079">
        <ele>96.4</ele>
        <time>2015-07-06T19:19:20.088Z</time>
      </trkpt>
      <trkpt lat="48.84313" lon="2.22079">
        <ele>97.6</ele>
        <time>2015-07-06T19:19:22.119Z</time>
      </trkpt>
      <trkpt lat="48.84316" lon="2.22078">
        <ele>97.9</ele>
        <time>2015-07-06T19:19:23.098Z</time>
      </trkpt>
      <trkpt lat="48.84322" lon="2.22075">
        <ele>97.9</ele>
        <time>2015-07-06T19:19:25.119Z</time>
      </trkpt>
      <trkpt lat="48.84325" lon="2.22074">
        <ele>97.8</ele>
        <time>2015-07-06T19:19:26.138Z</time>
      </trkpt>
      <trkpt lat="48.84331" lon="2.2207">
        <ele>98.1</ele>
        <time>2015-07-06T19:19:28.075Z</time>
      </trkpt>
      <trkpt lat="48.84334" lon="2.22068">
        <ele>98.2</ele>
        <time>2015-07-06T19:19:29.080Z</time>
      </trkpt>
      <trkpt lat="48.84341" lon="2.22061">
        <ele>99.8</ele>
        <time>2015-07-06T19:19:32.127Z</time>
      </trkpt>
      <trkpt lat="48.84344" lon="2.2206">
        <ele>100.2</ele>
        <time>2015-07-06T19:19:33.037Z</time>
      </trkpt>
      <trkpt lat="48.8435" lon="2.22056">
        <ele>101.2</ele>
        <time>2015-07-06T19:19:35.026Z</time>
      </trkpt>
      <trkpt lat="48.84353" lon="2.22055">
        <ele>101.5</ele>
        <time>2015-07-06T19:19:36.032Z</time>
      </trkpt>
      <trkpt lat="48.84359" lon="2.22053">
        <ele>102.6</ele>
        <time>2015-07-06T19:19:38.077Z</time>
      </trkpt>
      <trkpt lat="48.84363" lon="2.22052">
        <ele>102.7</ele>
        <time>2015-07-06T19:19:39.090Z</time>
      </trkpt>
      <trkpt lat="48.84369" lon="2.22048">
        <ele>102.6</ele>
        <time>2015-07-06T19:19:41.109Z</time>
      </trkpt>
      <trkpt lat="48.84372" lon="2.22046">
        <ele>102.6</ele>
        <time>2015-07-06T19:19:42.038Z</time>
      </trkpt>
      <trkpt lat="48.84379" lon="2.22041">
        <ele>102.5</ele>
        <time>2015-07-06T19:19:45.079Z</time>
      </trkpt>
      <trkpt lat="48.84382" lon="2.22038">
        <ele>102.5</ele>
        <time>2015-07-06T19:19:46.098Z</time>
      </trkpt>
      <trkpt lat="48.84379" lon="2.22028">
        <ele>103.3</ele>
        <time>2015-07-06T19:20:37.043Z</time>
      </trkpt>
      <trkpt lat="48.84388" lon="2.22002">
        <ele>103.6</ele>
        <time>2015-07-06T19:20:38.083Z</time>
      </trkpt>
      <trkpt lat="48.84388" lon="2.21989">
        <ele>103.8</ele>
        <time>2015-07-06T19:20:42.049Z</time>
      </trkpt>
      <trkpt lat="48.84388" lon="2.21987">
        <ele>103.9</ele>
        <time>2015-07-06T19:20:43.020Z</time>
      </trkpt>
      <trkpt lat="48.84389" lon="2.21975">
        <ele>103.5</ele>
        <time>2015-07-06T19:20:46.997Z</time>
      </trkpt>
      <trkpt lat="48.8439" lon="2.21972">
        <ele>104</ele>
        <time>2015-07-06T19:20:48.143Z</time>
      </trkpt>
      <trkpt lat="48.84392" lon="2.2196">
        <ele>104.5</ele>
        <time>2015-07-06T19:20:52.054Z</time>
      </trkpt>
      <trkpt lat="48.84392" lon="2.21958">
        <ele>105.1</ele>
        <time>2015-07-06T19:20:53.108Z</time>
      </trkpt>
      <trkpt lat="48.84386" lon="2.21949">
        <ele>108.3</ele>
        <time>2015-07-06T19:21:39.711Z</time>
      </trkpt>
      <trkpt lat="48.84384" lon="2.21949">
        <ele>108.2</ele>
        <time>2015-07-06T19:21:40.091Z</time>
      </trkpt>
      <trkpt lat="48.84377" lon="2.21949">
        <ele>108.7</ele>
        <time>2015-07-06T19:22:06.051Z</time>
      </trkpt>
      <trkpt lat="48.84367" lon="2.21943">
        <ele>112.4</ele>
        <time>2015-07-06T19:22:07.069Z</time>
      </trkpt>
      <trkpt lat="48.84361" lon="2.2195">
        <ele>112.3</ele>
        <time>2015-07-06T19:22:10.067Z</time>
      </trkpt>
      <trkpt lat="48.84359" lon="2.21951">
        <ele>112.2</ele>
        <time>2015-07-06T19:22:11.056Z</time>
      </trkpt>
      <trkpt lat="48.84354" lon="2.21956">
        <ele>112.2</ele>
        <time>2015-07-06T19:22:13.085Z</time>
      </trkpt>
      <trkpt lat="48.84351" lon="2.21958">
        <ele>112</ele>
        <time>2015-07-06T19:22:14.097Z</time>
      </trkpt>
      <trkpt lat="48.84345" lon="2.21964">
        <ele>111.4</ele>
        <time>2015-07-06T19:22:16.049Z</time>
      </trkpt>
      <trkpt lat="48.84342" lon="2.21967">
        <ele>111.4</ele>
        <time>2015-07-06T19:22:17.077Z</time>
      </trkpt>
      <trkpt lat="48.84335" lon="2.21969">
        <ele>112.1</ele>
        <time>2015-07-06T19:22:20.112Z</time>
      </trkpt>
      <trkpt lat="48.84332" lon="2.21966">
        <ele>112.1</ele>
        <time>2015-07-06T19:22:21.192Z</time>
      </trkpt>
      <trkpt lat="48.84326" lon="2.21957">
        <ele>112.2</ele>
        <time>2015-07-06T19:22:23.037Z</time>
      </trkpt>
      <trkpt lat="48.84323" lon="2.21953">
        <ele>112.3</ele>
        <time>2015-07-06T19:22:24.046Z</time>
      </trkpt>
      <trkpt lat="48.84318" lon="2.21944">
        <ele>112.8</ele>
        <time>2015-07-06T19:22:26.135Z</time>
      </trkpt>
      <trkpt lat="48.84318" lon="2.21938">
        <ele>112.9</ele>
        <time>2015-07-06T19:22:27.055Z</time>
      </trkpt>
      <trkpt lat="48.84317" lon="2.21926">
        <ele>112.8</ele>
        <time>2015-07-06T19:22:29.068Z</time>
      </trkpt>
      <trkpt lat="48.84317" lon="2.21919">
        <ele>112.7</ele>
        <time>2015-07-06T19:22:30.122Z</time>
      </trkpt>
      <trkpt lat="48.84319" lon="2.21909">
        <ele>112.8</ele>
        <time>2015-07-06T19:22:32.079Z</time>
      </trkpt>
      <trkpt lat="48.84319" lon="2.21905">
        <ele>112.9</ele>
        <time>2015-07-06T19:22:33.094Z</time>
      </trkpt>
      <trkpt lat="48.84319" lon="2.21893">
        <ele>111.6</ele>
        <time>2015-07-06T19:22:39.108Z</time>
      </trkpt>
      <trkpt lat="48.8432" lon="2.2189">
        <ele>111.9</ele>
        <time>2015-07-06T19:22:40.026Z</time>
      </trkpt>
      <trkpt lat="48.84324" lon="2.21879">
        <ele>112.8</ele>
        <time>2015-07-06T19:22:47.096Z</time>
      </trkpt>
      <trkpt lat="48.84326" lon="2.21878">
        <ele>113</ele>
        <time>2015-07-06T19:22:48.120Z</time>
      </trkpt>
      <trkpt lat="48.84331" lon="2.21873">
        <ele>113</ele>
        <time>2015-07-06T19:23:07.181Z</time>
      </trkpt>
      <trkpt lat="48.84328" lon="2.21851">
        <ele>115</ele>
        <time>2015-07-06T19:23:08.047Z</time>
      </trkpt>
      <trkpt lat="48.84333" lon="2.21843">
        <ele>116.7</ele>
        <time>2015-07-06T19:23:11.026Z</time>
      </trkpt>
      <trkpt lat="48.84335" lon="2.21841">
        <ele>117.1</ele>
        <time>2015-07-06T19:23:12.023Z</time>
      </trkpt>
      <trkpt lat="48.84342" lon="2.21839">
        <ele>117.8</ele>
        <time>2015-07-06T19:23:15.163Z</time>
      </trkpt>
      <trkpt lat="48.84344" lon="2.21838">
        <ele>118.4</ele>
        <time>2015-07-06T19:23:16.002Z</time>
      </trkpt>
      <trkpt lat="48.84352" lon="2.21835">
        <ele>118.5</ele>
        <time>2015-07-06T19:23:19.725Z</time>
      </trkpt>
      <trkpt lat="48.84353" lon="2.21831">
        <ele>118.5</ele>
        <time>2015-07-06T19:23:20.088Z</time>
      </trkpt>
      <trkpt lat="48.84357" lon="2.21822">
        <ele>117.3</ele>
        <time>2015-07-06T19:23:23.044Z</time>
      </trkpt>
      <trkpt lat="48.84358" lon="2.21819">
        <ele>117.6</ele>
        <time>2015-07-06T19:23:24.028Z</time>
      </trkpt>
      <trkpt lat="48.84356" lon="2.21808">
        <ele>119.9</ele>
        <time>2015-07-06T19:23:28.037Z</time>
      </trkpt>
      <trkpt lat="48.84355" lon="2.21805">
        <ele>120.2</ele>
        <time>2015-07-06T19:23:29.296Z</time>
      </trkpt>
      <trkpt lat="48.8435" lon="2.21806">
        <ele>119.8</ele>
        <time>2015-07-06T19:24:46.139Z</time>
      </trkpt>
      <trkpt lat="48.84356" lon="2.21753">
        <ele>128.2</ele>
        <time>2015-07-06T19:24:47.020Z</time>
      </trkpt>
      <trkpt lat="48.84356" lon="2.2175">
        <ele>128.4</ele>
        <time>2015-07-06T19:28:26.087Z</time>
      </trkpt>
      <trkpt lat="48.84364" lon="2.21744">
        <ele>133.8</ele>
        <time>2015-07-06T19:28:27.088Z</time>
      </trkpt>
      <trkpt lat="48.84371" lon="2.21751">
        <ele>134.6</ele>
        <time>2015-07-06T19:28:32.200Z</time>
      </trkpt>
      <trkpt lat="48.84373" lon="2.2175">
        <ele>134.6</ele>
        <time>2015-07-06T19:28:33.121Z</time>
      </trkpt>
      <trkpt lat="48.84381" lon="2.21747">
        <ele>135.3</ele>
        <time>2015-07-06T19:28:37.065Z</time>
      </trkpt>
      <trkpt lat="48.84384" lon="2.21746">
        <ele>135.1</ele>
        <time>2015-07-06T19:28:38.099Z</time>
      </trkpt>
      <trkpt lat="48.84389" lon="2.21743">
        <ele>135.4</ele>
        <time>2015-07-06T19:28:40.003Z</time>
      </trkpt>
      <trkpt lat="48.84394" lon="2.21741">
        <ele>135.5</ele>
        <time>2015-07-06T19:28:41.010Z</time>
      </trkpt>
      <trkpt lat="48.84399" lon="2.21739">
        <ele>135.1</ele>
        <time>2015-07-06T19:28:42.028Z</time>
      </trkpt>
      <trkpt lat="48.84404" lon="2.21737">
        <ele>135</ele>
        <time>2015-07-06T19:28:43.058Z</time>
      </trkpt>
      <trkpt lat="48.84409" lon="2.21736">
        <ele>134.9</ele>
        <time>2015-07-06T19:28:44.368Z</time>
      </trkpt>
      <trkpt lat="48.84414" lon="2.21734">
        <ele>134.9</ele>
        <time>2015-07-06T19:28:45.074Z</time>
      </trkpt>
      <trkpt lat="48.8442" lon="2.21733">
        <ele>134.6</ele>
        <time>2015-07-06T19:28:46.090Z</time>
      </trkpt>
      <trkpt lat="48.84424" lon="2.21731">
        <ele>133.9</ele>
        <time>2015-07-06T19:28:47.016Z</time>
      </trkpt>
      <trkpt lat="48.8443" lon="2.21731">
        <ele>133.5</ele>
        <time>2015-07-06T19:28:48.030Z</time>
      </trkpt>
      <trkpt lat="48.84436" lon="2.2173">
        <ele>133.5</ele>
        <time>2015-07-06T19:28:49.032Z</time>
      </trkpt>
      <trkpt lat="48.84441" lon="2.2173">
        <ele>133.7</ele>
        <time>2015-07-06T19:28:50.067Z</time>
      </trkpt>
      <trkpt lat="48.84447" lon="2.21731">
        <ele>133.8</ele>
        <time>2015-07-06T19:28:51.059Z</time>
      </trkpt>
      <trkpt lat="48.84453" lon="2.21733">
        <ele>134</ele>
        <time>2015-07-06T19:28:52.095Z</time>
      </trkpt>
      <trkpt lat="48.84459" lon="2.21736">
        <ele>133.7</ele>
        <time>2015-07-06T19:28:53.100Z</time>
      </trkpt>
      <trkpt lat="48.84464" lon="2.21738">
        <ele>133.4</ele>
        <time>2015-07-06T19:28:54.052Z</time>
      </trkpt>
      <trkpt lat="48.8447" lon="2.2174">
        <ele>132.9</ele>
        <time>2015-07-06T19:28:55.053Z</time>
      </trkpt>
      <trkpt lat="48.84476" lon="2.21742">
        <ele>133</ele>
        <time>2015-07-06T19:28:56.056Z</time>
      </trkpt>
      <trkpt lat="48.84483" lon="2.21743">
        <ele>132.4</ele>
        <time>2015-07-06T19:28:57.071Z</time>
      </trkpt>
      <trkpt lat="48.8449" lon="2.21746">
        <ele>131.8</ele>
        <time>2015-07-06T19:28:58.074Z</time>
      </trkpt>
      <trkpt lat="48.84498" lon="2.21748">
        <ele>131.6</ele>
        <time>2015-07-06T19:28:59.100Z</time>
      </trkpt>
      <trkpt lat="48.84505" lon="2.21751">
        <ele>131.7</ele>
        <time>2015-07-06T19:29:00.041Z</time>
      </trkpt>
      <trkpt lat="48.84512" lon="2.21754">
        <ele>131.5</ele>
        <time>2015-07-06T19:29:01.028Z</time>
      </trkpt>
      <trkpt lat="48.8452" lon="2.21756">
        <ele>131.3</ele>
        <time>2015-07-06T19:29:02.070Z</time>
      </trkpt>
      <trkpt lat="48.84527" lon="2.21758">
        <ele>130.7</ele>
        <time>2015-07-06T19:29:03.084Z</time>
      </trkpt>
      <trkpt lat="48.84533" lon="2.2176">
        <ele>130.4</ele>
        <time>2015-07-06T19:29:04.116Z</time>
      </trkpt>
      <trkpt lat="48.84539" lon="2.21759">
        <ele>130.7</ele>
        <time>2015-07-06T19:29:05.017Z</time>
      </trkpt>
      <trkpt lat="48.84544" lon="2.21761">
        <ele>131.1</ele>
        <time>2015-07-06T19:29:06.027Z</time>
      </trkpt>
      <trkpt lat="48.8455" lon="2.21763">
        <ele>131.3</ele>
        <time>2015-07-06T19:29:07.024Z</time>
      </trkpt>
      <trkpt lat="48.84554" lon="2.21764">
        <ele>131.5</ele>
        <time>2015-07-06T19:29:08.070Z</time>
      </trkpt>
      <trkpt lat="48.84559" lon="2.21765">
        <ele>131.6</ele>
        <time>2015-07-06T19:29:09.071Z</time>
      </trkpt>
      <trkpt lat="48.84563" lon="2.21769">
        <ele>131.7</ele>
        <time>2015-07-06T19:29:10.082Z</time>
      </trkpt>
      <trkpt lat="48.84568" lon="2.21771">
        <ele>132.1</ele>
        <time>2015-07-06T19:29:11.088Z</time>
      </trkpt>
      <trkpt lat="48.84572" lon="2.21777">
        <ele>132.3</ele>
        <time>2015-07-06T19:29:12.092Z</time>
      </trkpt>
      <trkpt lat="48.84577" lon="2.21783">
        <ele>133.2</ele>
        <time>2015-07-06T19:29:13.102Z</time>
      </trkpt>
      <trkpt lat="48.84581" lon="2.21789">
        <ele>134.1</ele>
        <time>2015-07-06T19:29:14.114Z</time>
      </trkpt>
      <trkpt lat="48.84585" lon="2.21795">
        <ele>134.9</ele>
        <time>2015-07-06T19:29:15.023Z</time>
      </trkpt>
      <trkpt lat="48.84589" lon="2.21803">
        <ele>135.3</ele>
        <time>2015-07-06T19:29:16.029Z</time>
      </trkpt>
      <trkpt lat="48.84592" lon="2.2181">
        <ele>135.8</ele>
        <time>2015-07-06T19:29:17.036Z</time>
      </trkpt>
      <trkpt lat="48.84596" lon="2.21818">
        <ele>136.2</ele>
        <time>2015-07-06T19:29:18.051Z</time>
      </trkpt>
      <trkpt lat="48.84597" lon="2.21825">
        <ele>136.5</ele>
        <time>2015-07-06T19:29:19.059Z</time>
      </trkpt>
      <trkpt lat="48.84599" lon="2.21837">
        <ele>136.1</ele>
        <time>2015-07-06T19:29:21.097Z</time>
      </trkpt>
      <trkpt lat="48.846" lon="2.21843">
        <ele>135.9</ele>
        <time>2015-07-06T19:29:22.113Z</time>
      </trkpt>
      <trkpt lat="48.846" lon="2.21854">
        <ele>135.3</ele>
        <time>2015-07-06T19:29:24.054Z</time>
      </trkpt>
      <trkpt lat="48.846" lon="2.21861">
        <ele>135.1</ele>
        <time>2015-07-06T19:29:25.063Z</time>
      </trkpt>
      <trkpt lat="48.84601" lon="2.21872">
        <ele>134.4</ele>
        <time>2015-07-06T19:29:27.080Z</time>
      </trkpt>
      <trkpt lat="48.84602" lon="2.21877">
        <ele>133.9</ele>
        <time>2015-07-06T19:29:28.094Z</time>
      </trkpt>
      <trkpt lat="48.84609" lon="2.21877">
        <ele>132.9</ele>
        <time>2015-07-06T19:29:58.119Z</time>
      </trkpt>
      <trkpt lat="48.84612" lon="2.21877">
        <ele>133.4</ele>
        <time>2015-07-06T19:29:59.122Z</time>
      </trkpt>
      <trkpt lat="48.84618" lon="2.21877">
        <ele>133.4</ele>
        <time>2015-07-06T19:30:01.062Z</time>
      </trkpt>
      <trkpt lat="48.84622" lon="2.21876">
        <ele>133.3</ele>
        <time>2015-07-06T19:30:02.165Z</time>
      </trkpt>
      <trkpt lat="48.84628" lon="2.21875">
        <ele>132.6</ele>
        <time>2015-07-06T19:30:03.997Z</time>
      </trkpt>
      <trkpt lat="48.84631" lon="2.21873">
        <ele>132.5</ele>
        <time>2015-07-06T19:30:05.004Z</time>
      </trkpt>
      <trkpt lat="48.84639" lon="2.21872">
        <ele>132.8</ele>
        <time>2015-07-06T19:30:08.084Z</time>
      </trkpt>
      <trkpt lat="48.84642" lon="2.21871">
        <ele>132.7</ele>
        <time>2015-07-06T19:30:09.087Z</time>
      </trkpt>
      <trkpt lat="48.84649" lon="2.21867">
        <ele>133</ele>
        <time>2015-07-06T19:30:12.125Z</time>
      </trkpt>
      <trkpt lat="48.8465" lon="2.21866">
        <ele>132.9</ele>
        <time>2015-07-06T19:30:13.143Z</time>
      </trkpt>
      <trkpt lat="48.84658" lon="2.21863">
        <ele>132.5</ele>
        <time>2015-07-06T19:30:15.849Z</time>
      </trkpt>
      <trkpt lat="48.84661" lon="2.21863">
        <ele>132.5</ele>
        <time>2015-07-06T19:30:17.063Z</time>
      </trkpt>
      <trkpt lat="48.84669" lon="2.21862">
        <ele>132.5</ele>
        <time>2015-07-06T19:30:19.419Z</time>
      </trkpt>
      <trkpt lat="48.84673" lon="2.21862">
        <ele>132.4</ele>
        <time>2015-07-06T19:30:20.037Z</time>
      </trkpt>
      <trkpt lat="48.84678" lon="2.21862">
        <ele>132.5</ele>
        <time>2015-07-06T19:30:21.062Z</time>
      </trkpt>
      <trkpt lat="48.84683" lon="2.21862">
        <ele>132.3</ele>
        <time>2015-07-06T19:30:22.059Z</time>
      </trkpt>
      <trkpt lat="48.84689" lon="2.21864">
        <ele>132.3</ele>
        <time>2015-07-06T19:30:23.087Z</time>
      </trkpt>
      <trkpt lat="48.84696" lon="2.21864">
        <ele>132.5</ele>
        <time>2015-07-06T19:30:24.102Z</time>
      </trkpt>
      <trkpt lat="48.84703" lon="2.21865">
        <ele>132.6</ele>
        <time>2015-07-06T19:30:25.080Z</time>
      </trkpt>
      <trkpt lat="48.84712" lon="2.21865">
        <ele>132.3</ele>
        <time>2015-07-06T19:30:26.133Z</time>
      </trkpt>
      <trkpt lat="48.8472" lon="2.21864">
        <ele>132.1</ele>
        <time>2015-07-06T19:30:27.011Z</time>
      </trkpt>
      <trkpt lat="48.84729" lon="2.21865">
        <ele>132.1</ele>
        <time>2015-07-06T19:30:28.027Z</time>
      </trkpt>
      <trkpt lat="48.84738" lon="2.21865">
        <ele>132.2</ele>
        <time>2015-07-06T19:30:29.038Z</time>
      </trkpt>
      <trkpt lat="48.84746" lon="2.21865">
        <ele>132.3</ele>
        <time>2015-07-06T19:30:30.107Z</time>
      </trkpt>
      <trkpt lat="48.84755" lon="2.21868">
        <ele>132</ele>
        <time>2015-07-06T19:30:31.018Z</time>
      </trkpt>
      <trkpt lat="48.84763" lon="2.21868">
        <ele>132.2</ele>
        <time>2015-07-06T19:30:32.157Z</time>
      </trkpt>
      <trkpt lat="48.8477" lon="2.21868">
        <ele>132.1</ele>
        <time>2015-07-06T19:30:33.032Z</time>
      </trkpt>
      <trkpt lat="48.84776" lon="2.2187">
        <ele>131.3</ele>
        <time>2015-07-06T19:30:34.050Z</time>
      </trkpt>
      <trkpt lat="48.84782" lon="2.21871">
        <ele>131.2</ele>
        <time>2015-07-06T19:30:35.055Z</time>
      </trkpt>
      <trkpt lat="48.84789" lon="2.21872">
        <ele>130.9</ele>
        <time>2015-07-06T19:30:36.067Z</time>
      </trkpt>
      <trkpt lat="48.84795" lon="2.21874">
        <ele>130.2</ele>
        <time>2015-07-06T19:30:37.073Z</time>
      </trkpt>
      <trkpt lat="48.84802" lon="2.21874">
        <ele>129.4</ele>
        <time>2015-07-06T19:30:38.100Z</time>
      </trkpt>
      <trkpt lat="48.84808" lon="2.21875">
        <ele>129.4</ele>
        <time>2015-07-06T19:30:39.111Z</time>
      </trkpt>
      <trkpt lat="48.84814" lon="2.21876">
        <ele>129.4</ele>
        <time>2015-07-06T19:30:39.981Z</time>
      </trkpt>
      <trkpt lat="48.84818" lon="2.21876">
        <ele>128.8</ele>
        <time>2015-07-06T19:30:41.016Z</time>
      </trkpt>
      <trkpt lat="48.84823" lon="2.21876">
        <ele>128.3</ele>
        <time>2015-07-06T19:30:42.132Z</time>
      </trkpt>
      <trkpt lat="48.84828" lon="2.21876">
        <ele>128.3</ele>
        <time>2015-07-06T19:30:43.080Z</time>
      </trkpt>
      <trkpt lat="48.84833" lon="2.21876">
        <ele>128.2</ele>
        <time>2015-07-06T19:30:44.091Z</time>
      </trkpt>
      <trkpt lat="48.84837" lon="2.21875">
        <ele>127.9</ele>
        <time>2015-07-06T19:30:45.037Z</time>
      </trkpt>
      <trkpt lat="48.84841" lon="2.21874">
        <ele>127.5</ele>
        <time>2015-07-06T19:30:46.082Z</time>
      </trkpt>
      <trkpt lat="48.84847" lon="2.21873">
        <ele>127.2</ele>
        <time>2015-07-06T19:30:47.092Z</time>
      </trkpt>
      <trkpt lat="48.84853" lon="2.21871">
        <ele>126.1</ele>
        <time>2015-07-06T19:30:48.010Z</time>
      </trkpt>
      <trkpt lat="48.84858" lon="2.21869">
        <ele>125.4</ele>
        <time>2015-07-06T19:30:49.015Z</time>
      </trkpt>
      <trkpt lat="48.84863" lon="2.21866">
        <ele>124.4</ele>
        <time>2015-07-06T19:30:50.057Z</time>
      </trkpt>
      <trkpt lat="48.84867" lon="2.21864">
        <ele>124.4</ele>
        <time>2015-07-06T19:30:51.051Z</time>
      </trkpt>
      <trkpt lat="48.84871" lon="2.21861">
        <ele>124.2</ele>
        <time>2015-07-06T19:30:52.011Z</time>
      </trkpt>
      <trkpt lat="48.84875" lon="2.21857">
        <ele>123.9</ele>
        <time>2015-07-06T19:30:53.023Z</time>
      </trkpt>
      <trkpt lat="48.84882" lon="2.21849">
        <ele>123.3</ele>
        <time>2015-07-06T19:30:55.073Z</time>
      </trkpt>
      <trkpt lat="48.84884" lon="2.21845">
        <ele>123.4</ele>
        <time>2015-07-06T19:30:56.100Z</time>
      </trkpt>
      <trkpt lat="48.84888" lon="2.21837">
        <ele>123</ele>
        <time>2015-07-06T19:30:58.033Z</time>
      </trkpt>
      <trkpt lat="48.84891" lon="2.21834">
        <ele>122.7</ele>
        <time>2015-07-06T19:30:59.053Z</time>
      </trkpt>
      <trkpt lat="48.84897" lon="2.2183">
        <ele>122.9</ele>
        <time>2015-07-06T19:31:01.033Z</time>
      </trkpt>
      <trkpt lat="48.849" lon="2.21828">
        <ele>122.5</ele>
        <time>2015-07-06T19:31:02.082Z</time>
      </trkpt>
      <trkpt lat="48.84907" lon="2.21822">
        <ele>122.4</ele>
        <time>2015-07-06T19:31:04.109Z</time>
      </trkpt>
      <trkpt lat="48.84911" lon="2.2182">
        <ele>122.3</ele>
        <time>2015-07-06T19:31:05.096Z</time>
      </trkpt>
      <trkpt lat="48.84917" lon="2.21816">
        <ele>122.5</ele>
        <time>2015-07-06T19:31:07.037Z</time>
      </trkpt>
      <trkpt lat="48.8492" lon="2.21814">
        <ele>122.7</ele>
        <time>2015-07-06T19:31:08.086Z</time>
      </trkpt>
      <trkpt lat="48.84929" lon="2.21812">
        <ele>123.2</ele>
        <time>2015-07-06T19:31:10.042Z</time>
      </trkpt>
      <trkpt lat="48.84933" lon="2.2181">
        <ele>123.4</ele>
        <time>2015-07-06T19:31:11.038Z</time>
      </trkpt>
      <trkpt lat="48.84941" lon="2.21806">
        <ele>124.2</ele>
        <time>2015-07-06T19:31:13.060Z</time>
      </trkpt>
      <trkpt lat="48.84946" lon="2.21804">
        <ele>124.2</ele>
        <time>2015-07-06T19:31:14.126Z</time>
      </trkpt>
      <trkpt lat="48.84949" lon="2.21802">
        <ele>124.4</ele>
        <time>2015-07-06T19:31:15.037Z</time>
      </trkpt>
      <trkpt lat="48.84954" lon="2.21799">
        <ele>124.5</ele>
        <time>2015-07-06T19:31:15.993Z</time>
      </trkpt>
      <trkpt lat="48.84959" lon="2.21797">
        <ele>124.4</ele>
        <time>2015-07-06T19:31:17.005Z</time>
      </trkpt>
      <trkpt lat="48.84965" lon="2.21796">
        <ele>124.6</ele>
        <time>2015-07-06T19:31:18.024Z</time>
      </trkpt>
      <trkpt lat="48.8497" lon="2.21795">
        <ele>124.8</ele>
        <time>2015-07-06T19:31:19.035Z</time>
      </trkpt>
      <trkpt lat="48.84974" lon="2.21794">
        <ele>125.6</ele>
        <time>2015-07-06T19:31:20.052Z</time>
      </trkpt>
      <trkpt lat="48.84978" lon="2.21792">
        <ele>125.9</ele>
        <time>2015-07-06T19:31:21.735Z</time>
      </trkpt>
      <trkpt lat="48.84983" lon="2.21791">
        <ele>126.2</ele>
        <time>2015-07-06T19:31:22.062Z</time>
      </trkpt>
      <trkpt lat="48.84988" lon="2.21789">
        <ele>126.7</ele>
        <time>2015-07-06T19:31:23.076Z</time>
      </trkpt>
      <trkpt lat="48.84993" lon="2.21787">
        <ele>127.3</ele>
        <time>2015-07-06T19:31:23.979Z</time>
      </trkpt>
      <trkpt lat="48.84998" lon="2.21785">
        <ele>127.7</ele>
        <time>2015-07-06T19:31:25.014Z</time>
      </trkpt>
      <trkpt lat="48.85003" lon="2.21784">
        <ele>128.1</ele>
        <time>2015-07-06T19:31:26.054Z</time>
      </trkpt>
      <trkpt lat="48.8501" lon="2.21778">
        <ele>128.1</ele>
        <time>2015-07-06T19:31:28.096Z</time>
      </trkpt>
      <trkpt lat="48.85013" lon="2.21776">
        <ele>128.4</ele>
        <time>2015-07-06T19:31:29.104Z</time>
      </trkpt>
      <trkpt lat="48.85019" lon="2.21773">
        <ele>128.5</ele>
        <time>2015-07-06T19:31:29.995Z</time>
      </trkpt>
      <trkpt lat="48.85023" lon="2.21771">
        <ele>128.6</ele>
        <time>2015-07-06T19:31:31.038Z</time>
      </trkpt>
      <trkpt lat="48.85032" lon="2.21767">
        <ele>128.2</ele>
        <time>2015-07-06T19:31:33.026Z</time>
      </trkpt>
      <trkpt lat="48.85035" lon="2.21765">
        <ele>128.3</ele>
        <time>2015-07-06T19:31:34.111Z</time>
      </trkpt>
      <trkpt lat="48.85041" lon="2.21761">
        <ele>128.6</ele>
        <time>2015-07-06T19:31:36.043Z</time>
      </trkpt>
      <trkpt lat="48.85044" lon="2.21758">
        <ele>128.8</ele>
        <time>2015-07-06T19:31:37.124Z</time>
      </trkpt>
      <trkpt lat="48.8505" lon="2.21753">
        <ele>128.8</ele>
        <time>2015-07-06T19:31:39.022Z</time>
      </trkpt>
      <trkpt lat="48.85052" lon="2.21751">
        <ele>129</ele>
        <time>2015-07-06T19:31:40.115Z</time>
      </trkpt>
      <trkpt lat="48.85058" lon="2.21744">
        <ele>129.3</ele>
        <time>2015-07-06T19:31:43.048Z</time>
      </trkpt>
      <trkpt lat="48.85059" lon="2.21741">
        <ele>129.3</ele>
        <time>2015-07-06T19:31:44.101Z</time>
      </trkpt>
      <trkpt lat="48.8506" lon="2.2173">
        <ele>129.4</ele>
        <time>2015-07-06T19:31:48.064Z</time>
      </trkpt>
      <trkpt lat="48.85059" lon="2.21727">
        <ele>129.1</ele>
        <time>2015-07-06T19:31:49.070Z</time>
      </trkpt>
      <trkpt lat="48.85058" lon="2.21715">
        <ele>129.7</ele>
        <time>2015-07-06T19:31:53.010Z</time>
      </trkpt>
      <trkpt lat="48.85059" lon="2.21713">
        <ele>129.9</ele>
        <time>2015-07-06T19:31:54.049Z</time>
      </trkpt>
      <trkpt lat="48.85058" lon="2.21699">
        <ele>129.9</ele>
        <time>2015-07-06T19:31:59.047Z</time>
      </trkpt>
      <trkpt lat="48.85059" lon="2.21697">
        <ele>130.4</ele>
        <time>2015-07-06T19:32:00.180Z</time>
      </trkpt>
      <trkpt lat="48.85059" lon="2.21696">
        <ele>130.7</ele>
        <time>2015-07-06T19:33:04.072Z</time>
      </trkpt>
      <trkpt lat="48.85075" lon="2.21704">
        <ele>133.4</ele>
        <time>2015-07-06T19:33:05.087Z</time>
      </trkpt>
      <trkpt lat="48.85083" lon="2.21698">
        <ele>133.2</ele>
        <time>2015-07-06T19:33:08.040Z</time>
      </trkpt>
      <trkpt lat="48.85085" lon="2.21696">
        <ele>133.3</ele>
        <time>2015-07-06T19:33:09.147Z</time>
      </trkpt>
      <trkpt lat="48.85093" lon="2.2169">
        <ele>133.5</ele>
        <time>2015-07-06T19:33:12.040Z</time>
      </trkpt>
      <trkpt lat="48.85096" lon="2.21689">
        <ele>133.5</ele>
        <time>2015-07-06T19:33:13.055Z</time>
      </trkpt>
      <trkpt lat="48.85101" lon="2.21685">
        <ele>133.7</ele>
        <time>2015-07-06T19:33:15.089Z</time>
      </trkpt>
      <trkpt lat="48.85105" lon="2.21682">
        <ele>134</ele>
        <time>2015-07-06T19:33:16.106Z</time>
      </trkpt>
      <trkpt lat="48.85109" lon="2.21681">
        <ele>134</ele>
        <time>2015-07-06T19:33:17.021Z</time>
      </trkpt>
      <trkpt lat="48.85113" lon="2.21678">
        <ele>133.9</ele>
        <time>2015-07-06T19:33:18.042Z</time>
      </trkpt>
      <trkpt lat="48.85122" lon="2.21674">
        <ele>134.1</ele>
        <time>2015-07-06T19:33:20.066Z</time>
      </trkpt>
      <trkpt lat="48.85126" lon="2.21672">
        <ele>134.1</ele>
        <time>2015-07-06T19:33:21.068Z</time>
      </trkpt>
      <trkpt lat="48.85132" lon="2.21667">
        <ele>134.8</ele>
        <time>2015-07-06T19:33:23.105Z</time>
      </trkpt>
      <trkpt lat="48.85136" lon="2.21664">
        <ele>134.9</ele>
        <time>2015-07-06T19:33:24.006Z</time>
      </trkpt>
      <trkpt lat="48.85141" lon="2.21662">
        <ele>134.9</ele>
        <time>2015-07-06T19:33:25.027Z</time>
      </trkpt>
      <trkpt lat="48.85146" lon="2.21659">
        <ele>135.1</ele>
        <time>2015-07-06T19:33:26.098Z</time>
      </trkpt>
      <trkpt lat="48.85151" lon="2.21657">
        <ele>135.1</ele>
        <time>2015-07-06T19:33:27.031Z</time>
      </trkpt>
      <trkpt lat="48.85157" lon="2.21655">
        <ele>134.9</ele>
        <time>2015-07-06T19:33:28.057Z</time>
      </trkpt>
      <trkpt lat="48.85163" lon="2.21652">
        <ele>134.9</ele>
        <time>2015-07-06T19:33:29.022Z</time>
      </trkpt>
      <trkpt lat="48.85169" lon="2.2165">
        <ele>134.6</ele>
        <time>2015-07-06T19:33:30.035Z</time>
      </trkpt>
      <trkpt lat="48.85175" lon="2.21648">
        <ele>134.7</ele>
        <time>2015-07-06T19:33:30.991Z</time>
      </trkpt>
      <trkpt lat="48.85181" lon="2.21646">
        <ele>134.8</ele>
        <time>2015-07-06T19:33:32.109Z</time>
      </trkpt>
      <trkpt lat="48.85186" lon="2.21643">
        <ele>135</ele>
        <time>2015-07-06T19:33:32.998Z</time>
      </trkpt>
      <trkpt lat="48.85191" lon="2.21639">
        <ele>135.1</ele>
        <time>2015-07-06T19:33:34.067Z</time>
      </trkpt>
      <trkpt lat="48.85197" lon="2.21636">
        <ele>135.7</ele>
        <time>2015-07-06T19:33:34.974Z</time>
      </trkpt>
      <trkpt lat="48.85204" lon="2.21634">
        <ele>135.7</ele>
        <time>2015-07-06T19:33:35.993Z</time>
      </trkpt>
      <trkpt lat="48.85212" lon="2.2163">
        <ele>134.6</ele>
        <time>2015-07-06T19:33:37.025Z</time>
      </trkpt>
      <trkpt lat="48.85218" lon="2.21628">
        <ele>134.4</ele>
        <time>2015-07-06T19:33:38.159Z</time>
      </trkpt>
      <trkpt lat="48.85225" lon="2.21626">
        <ele>134.2</ele>
        <time>2015-07-06T19:33:39.017Z</time>
      </trkpt>
      <trkpt lat="48.8523" lon="2.21624">
        <ele>133.5</ele>
        <time>2015-07-06T19:33:40.026Z</time>
      </trkpt>
      <trkpt lat="48.85236" lon="2.21621">
        <ele>133.7</ele>
        <time>2015-07-06T19:33:41.038Z</time>
      </trkpt>
      <trkpt lat="48.85242" lon="2.21618">
        <ele>133.8</ele>
        <time>2015-07-06T19:33:42.050Z</time>
      </trkpt>
      <trkpt lat="48.85248" lon="2.21615">
        <ele>133.7</ele>
        <time>2015-07-06T19:33:43.109Z</time>
      </trkpt>
      <trkpt lat="48.85254" lon="2.21612">
        <ele>133.7</ele>
        <time>2015-07-06T19:33:44.139Z</time>
      </trkpt>
      <trkpt lat="48.85259" lon="2.21609">
        <ele>134.2</ele>
        <time>2015-07-06T19:33:45.005Z</time>
      </trkpt>
      <trkpt lat="48.85265" lon="2.21606">
        <ele>134.7</ele>
        <time>2015-07-06T19:33:46.015Z</time>
      </trkpt>
      <trkpt lat="48.8527" lon="2.21604">
        <ele>134.9</ele>
        <time>2015-07-06T19:33:47.034Z</time>
      </trkpt>
      <trkpt lat="48.85275" lon="2.21601">
        <ele>135.3</ele>
        <time>2015-07-06T19:33:48.136Z</time>
      </trkpt>
      <trkpt lat="48.85281" lon="2.21599">
        <ele>135.7</ele>
        <time>2015-07-06T19:33:49.008Z</time>
      </trkpt>
      <trkpt lat="48.85286" lon="2.21596">
        <ele>135.7</ele>
        <time>2015-07-06T19:33:50.070Z</time>
      </trkpt>
      <trkpt lat="48.85291" lon="2.21593">
        <ele>136.1</ele>
        <time>2015-07-06T19:33:51.045Z</time>
      </trkpt>
      <trkpt lat="48.85297" lon="2.21591">
        <ele>136.1</ele>
        <time>2015-07-06T19:33:52.047Z</time>
      </trkpt>
      <trkpt lat="48.85302" lon="2.21588">
        <ele>136</ele>
        <time>2015-07-06T19:33:53.095Z</time>
      </trkpt>
      <trkpt lat="48.85308" lon="2.21586">
        <ele>136.1</ele>
        <time>2015-07-06T19:33:54.006Z</time>
      </trkpt>
      <trkpt lat="48.85313" lon="2.21583">
        <ele>136.2</ele>
        <time>2015-07-06T19:33:55.028Z</time>
      </trkpt>
      <trkpt lat="48.85319" lon="2.21581">
        <ele>136.3</ele>
        <time>2015-07-06T19:33:56.255Z</time>
      </trkpt>
      <trkpt lat="48.85325" lon="2.2158">
        <ele>136.1</ele>
        <time>2015-07-06T19:33:57.008Z</time>
      </trkpt>
      <trkpt lat="48.85331" lon="2.2158">
        <ele>135.8</ele>
        <time>2015-07-06T19:33:58.005Z</time>
      </trkpt>
      <trkpt lat="48.85336" lon="2.21579">
        <ele>136</ele>
        <time>2015-07-06T19:33:59.096Z</time>
      </trkpt>
      <trkpt lat="48.85341" lon="2.21579">
        <ele>136.2</ele>
        <time>2015-07-06T19:34:00.111Z</time>
      </trkpt>
      <trkpt lat="48.85346" lon="2.21578">
        <ele>136.4</ele>
        <time>2015-07-06T19:34:01.042Z</time>
      </trkpt>
      <trkpt lat="48.85351" lon="2.21577">
        <ele>136.8</ele>
        <time>2015-07-06T19:34:02.096Z</time>
      </trkpt>
      <trkpt lat="48.85357" lon="2.21575">
        <ele>137</ele>
        <time>2015-07-06T19:34:03.035Z</time>
      </trkpt>
      <trkpt lat="48.85363" lon="2.21573">
        <ele>137.2</ele>
        <time>2015-07-06T19:34:04.145Z</time>
      </trkpt>
      <trkpt lat="48.85368" lon="2.2157">
        <ele>137.7</ele>
        <time>2015-07-06T19:34:05.055Z</time>
      </trkpt>
      <trkpt lat="48.85374" lon="2.21567">
        <ele>137.5</ele>
        <time>2015-07-06T19:34:06.055Z</time>
      </trkpt>
      <trkpt lat="48.8538" lon="2.21566">
        <ele>137.7</ele>
        <time>2015-07-06T19:34:07.062Z</time>
      </trkpt>
      <trkpt lat="48.85386" lon="2.21564">
        <ele>138.1</ele>
        <time>2015-07-06T19:34:08.173Z</time>
      </trkpt>
      <trkpt lat="48.85392" lon="2.21562">
        <ele>138.3</ele>
        <time>2015-07-06T19:34:09.007Z</time>
      </trkpt>
      <trkpt lat="48.85397" lon="2.21559">
        <ele>138.2</ele>
        <time>2015-07-06T19:34:10.011Z</time>
      </trkpt>
      <trkpt lat="48.85403" lon="2.21557">
        <ele>138</ele>
        <time>2015-07-06T19:34:11.015Z</time>
      </trkpt>
      <trkpt lat="48.85408" lon="2.21556">
        <ele>137.7</ele>
        <time>2015-07-06T19:34:12.030Z</time>
      </trkpt>
      <trkpt lat="48.85414" lon="2.21554">
        <ele>137.5</ele>
        <time>2015-07-06T19:34:13.050Z</time>
      </trkpt>
      <trkpt lat="48.8542" lon="2.21551">
        <ele>137.6</ele>
        <time>2015-07-06T19:34:14.061Z</time>
      </trkpt>
      <trkpt lat="48.85427" lon="2.2155">
        <ele>138</ele>
        <time>2015-07-06T19:34:15.074Z</time>
      </trkpt>
      <trkpt lat="48.85435" lon="2.21549">
        <ele>138.2</ele>
        <time>2015-07-06T19:34:16.078Z</time>
      </trkpt>
      <trkpt lat="48.85442" lon="2.21548">
        <ele>138.4</ele>
        <time>2015-07-06T19:34:17.015Z</time>
      </trkpt>
      <trkpt lat="48.8545" lon="2.21547">
        <ele>138.7</ele>
        <time>2015-07-06T19:34:18.027Z</time>
      </trkpt>
      <trkpt lat="48.85457" lon="2.21546">
        <ele>138.7</ele>
        <time>2015-07-06T19:34:19.023Z</time>
      </trkpt>
      <trkpt lat="48.85464" lon="2.21545">
        <ele>138.7</ele>
        <time>2015-07-06T19:34:20.066Z</time>
      </trkpt>
      <trkpt lat="48.85471" lon="2.21544">
        <ele>138.6</ele>
        <time>2015-07-06T19:34:21.066Z</time>
      </trkpt>
      <trkpt lat="48.85479" lon="2.21544">
        <ele>138.4</ele>
        <time>2015-07-06T19:34:21.985Z</time>
      </trkpt>
      <trkpt lat="48.85486" lon="2.21542">
        <ele>138.3</ele>
        <time>2015-07-06T19:34:23.015Z</time>
      </trkpt>
      <trkpt lat="48.85493" lon="2.2154">
        <ele>138.2</ele>
        <time>2015-07-06T19:34:24.024Z</time>
      </trkpt>
      <trkpt lat="48.85501" lon="2.21539">
        <ele>138.2</ele>
        <time>2015-07-06T19:34:25.030Z</time>
      </trkpt>
      <trkpt lat="48.85509" lon="2.21537">
        <ele>138.4</ele>
        <time>2015-07-06T19:34:26.064Z</time>
      </trkpt>
      <trkpt lat="48.85518" lon="2.21536">
        <ele>138.8</ele>
        <time>2015-07-06T19:34:27.065Z</time>
      </trkpt>
      <trkpt lat="48.85526" lon="2.21535">
        <ele>138.8</ele>
        <time>2015-07-06T19:34:28.069Z</time>
      </trkpt>
      <trkpt lat="48.85535" lon="2.21533">
        <ele>138.7</ele>
        <time>2015-07-06T19:34:29.075Z</time>
      </trkpt>
      <trkpt lat="48.85544" lon="2.21534">
        <ele>138.7</ele>
        <time>2015-07-06T19:34:30.024Z</time>
      </trkpt>
      <trkpt lat="48.85553" lon="2.21534">
        <ele>139.1</ele>
        <time>2015-07-06T19:34:31.032Z</time>
      </trkpt>
      <trkpt lat="48.85561" lon="2.21534">
        <ele>139.1</ele>
        <time>2015-07-06T19:34:32.075Z</time>
      </trkpt>
      <trkpt lat="48.8557" lon="2.21533">
        <ele>138.8</ele>
        <time>2015-07-06T19:34:32.999Z</time>
      </trkpt>
      <trkpt lat="48.85578" lon="2.21531">
        <ele>138.8</ele>
        <time>2015-07-06T19:34:34.004Z</time>
      </trkpt>
      <trkpt lat="48.85586" lon="2.21529">
        <ele>138.8</ele>
        <time>2015-07-06T19:34:35.013Z</time>
      </trkpt>
      <trkpt lat="48.85592" lon="2.21528">
        <ele>138.7</ele>
        <time>2015-07-06T19:34:36.018Z</time>
      </trkpt>
      <trkpt lat="48.85599" lon="2.21528">
        <ele>138.6</ele>
        <time>2015-07-06T19:34:37.026Z</time>
      </trkpt>
      <trkpt lat="48.85606" lon="2.21526">
        <ele>138.8</ele>
        <time>2015-07-06T19:34:38.059Z</time>
      </trkpt>
      <trkpt lat="48.85613" lon="2.21525">
        <ele>139</ele>
        <time>2015-07-06T19:34:39.069Z</time>
      </trkpt>
      <trkpt lat="48.85619" lon="2.21523">
        <ele>139.2</ele>
        <time>2015-07-06T19:34:40.158Z</time>
      </trkpt>
      <trkpt lat="48.85625" lon="2.21522">
        <ele>139.2</ele>
        <time>2015-07-06T19:34:41.014Z</time>
      </trkpt>
      <trkpt lat="48.8563" lon="2.21521">
        <ele>138.7</ele>
        <time>2015-07-06T19:34:42.020Z</time>
      </trkpt>
      <trkpt lat="48.85636" lon="2.21519">
        <ele>137.9</ele>
        <time>2015-07-06T19:34:43.041Z</time>
      </trkpt>
      <trkpt lat="48.8564" lon="2.21518">
        <ele>137.9</ele>
        <time>2015-07-06T19:34:44.064Z</time>
      </trkpt>
      <trkpt lat="48.85649" lon="2.21516">
        <ele>137.4</ele>
        <time>2015-07-06T19:34:46.069Z</time>
      </trkpt>
      <trkpt lat="48.85653" lon="2.21514">
        <ele>136.8</ele>
        <time>2015-07-06T19:34:47.085Z</time>
      </trkpt>
      <trkpt lat="48.85658" lon="2.21513">
        <ele>136.3</ele>
        <time>2015-07-06T19:34:48.019Z</time>
      </trkpt>
      <trkpt lat="48.85662" lon="2.21511">
        <ele>136.2</ele>
        <time>2015-07-06T19:34:49.015Z</time>
      </trkpt>
      <trkpt lat="48.85665" lon="2.21507">
        <ele>135.9</ele>
        <time>2015-07-06T19:34:50.070Z</time>
      </trkpt>
      <trkpt lat="48.8567" lon="2.21505">
        <ele>136.1</ele>
        <time>2015-07-06T19:34:51.074Z</time>
      </trkpt>
      <trkpt lat="48.85679" lon="2.21502">
        <ele>136.3</ele>
        <time>2015-07-06T19:34:53.019Z</time>
      </trkpt>
      <trkpt lat="48.85684" lon="2.21501">
        <ele>136.2</ele>
        <time>2015-07-06T19:34:54.039Z</time>
      </trkpt>
      <trkpt lat="48.85689" lon="2.215">
        <ele>136.5</ele>
        <time>2015-07-06T19:34:55.054Z</time>
      </trkpt>
      <trkpt lat="48.85694" lon="2.21499">
        <ele>137.1</ele>
        <time>2015-07-06T19:34:56.069Z</time>
      </trkpt>
      <trkpt lat="48.85701" lon="2.21497">
        <ele>137.7</ele>
        <time>2015-07-06T19:34:58.092Z</time>
      </trkpt>
      <trkpt lat="48.85704" lon="2.21493">
        <ele>138</ele>
        <time>2015-07-06T19:34:59.110Z</time>
      </trkpt>
      <trkpt lat="48.8571" lon="2.21491">
        <ele>138.4</ele>
        <time>2015-07-06T19:35:00.011Z</time>
      </trkpt>
      <trkpt lat="48.85714" lon="2.21489">
        <ele>138.7</ele>
        <time>2015-07-06T19:35:01.010Z</time>
      </trkpt>
      <trkpt lat="48.85718" lon="2.21486">
        <ele>139.3</ele>
        <time>2015-07-06T19:35:02.046Z</time>
      </trkpt>
      <trkpt lat="48.85722" lon="2.21483">
        <ele>139.6</ele>
        <time>2015-07-06T19:35:03.047Z</time>
      </trkpt>
      <trkpt lat="48.85728" lon="2.2148">
        <ele>139.7</ele>
        <time>2015-07-06T19:35:04.063Z</time>
      </trkpt>
      <trkpt lat="48.85734" lon="2.21475">
        <ele>139.7</ele>
        <time>2015-07-06T19:35:05.072Z</time>
      </trkpt>
      <trkpt lat="48.8574" lon="2.21471">
        <ele>139.5</ele>
        <time>2015-07-06T19:35:06.083Z</time>
      </trkpt>
      <trkpt lat="48.85745" lon="2.21467">
        <ele>140</ele>
        <time>2015-07-06T19:35:07.010Z</time>
      </trkpt>
      <trkpt lat="48.85751" lon="2.21464">
        <ele>139.9</ele>
        <time>2015-07-06T19:35:08.107Z</time>
      </trkpt>
      <trkpt lat="48.85756" lon="2.2146">
        <ele>139.8</ele>
        <time>2015-07-06T19:35:09.012Z</time>
      </trkpt>
      <trkpt lat="48.85764" lon="2.21454">
        <ele>140.4</ele>
        <time>2015-07-06T19:35:11.031Z</time>
      </trkpt>
      <trkpt lat="48.85768" lon="2.21451">
        <ele>140.3</ele>
        <time>2015-07-06T19:35:12.038Z</time>
      </trkpt>
      <trkpt lat="48.85772" lon="2.21448">
        <ele>139.9</ele>
        <time>2015-07-06T19:35:13.060Z</time>
      </trkpt>
      <trkpt lat="48.85777" lon="2.21445">
        <ele>139.8</ele>
        <time>2015-07-06T19:35:14.067Z</time>
      </trkpt>
      <trkpt lat="48.85781" lon="2.21442">
        <ele>139.9</ele>
        <time>2015-07-06T19:35:15.087Z</time>
      </trkpt>
      <trkpt lat="48.85785" lon="2.21439">
        <ele>140</ele>
        <time>2015-07-06T19:35:16.006Z</time>
      </trkpt>
      <trkpt lat="48.85791" lon="2.21434">
        <ele>140.1</ele>
        <time>2015-07-06T19:35:17.031Z</time>
      </trkpt>
      <trkpt lat="48.85796" lon="2.2143">
        <ele>140.1</ele>
        <time>2015-07-06T19:35:18.039Z</time>
      </trkpt>
      <trkpt lat="48.85803" lon="2.21427">
        <ele>140.2</ele>
        <time>2015-07-06T19:35:19.053Z</time>
      </trkpt>
      <trkpt lat="48.85809" lon="2.21424">
        <ele>140.4</ele>
        <time>2015-07-06T19:35:20.066Z</time>
      </trkpt>
      <trkpt lat="48.85814" lon="2.21419">
        <ele>139.8</ele>
        <time>2015-07-06T19:35:21.071Z</time>
      </trkpt>
      <trkpt lat="48.85819" lon="2.21416">
        <ele>139.7</ele>
        <time>2015-07-06T19:35:22.078Z</time>
      </trkpt>
      <trkpt lat="48.85825" lon="2.21414">
        <ele>139.5</ele>
        <time>2015-07-06T19:35:23.086Z</time>
      </trkpt>
      <trkpt lat="48.85832" lon="2.21411">
        <ele>139.3</ele>
        <time>2015-07-06T19:35:24.096Z</time>
      </trkpt>
      <trkpt lat="48.85838" lon="2.21407">
        <ele>138.9</ele>
        <time>2015-07-06T19:35:25.007Z</time>
      </trkpt>
      <trkpt lat="48.85844" lon="2.21403">
        <ele>138.9</ele>
        <time>2015-07-06T19:35:26.075Z</time>
      </trkpt>
      <trkpt lat="48.85849" lon="2.21399">
        <ele>138.6</ele>
        <time>2015-07-06T19:35:27.054Z</time>
      </trkpt>
      <trkpt lat="48.85855" lon="2.21396">
        <ele>138.8</ele>
        <time>2015-07-06T19:35:28.076Z</time>
      </trkpt>
      <trkpt lat="48.8586" lon="2.21392">
        <ele>138.9</ele>
        <time>2015-07-06T19:35:29.108Z</time>
      </trkpt>
      <trkpt lat="48.85864" lon="2.21386">
        <ele>139</ele>
        <time>2015-07-06T19:35:30.019Z</time>
      </trkpt>
      <trkpt lat="48.8587" lon="2.21381">
        <ele>138.3</ele>
        <time>2015-07-06T19:35:31.004Z</time>
      </trkpt>
      <trkpt lat="48.85876" lon="2.21377">
        <ele>137.7</ele>
        <time>2015-07-06T19:35:32.045Z</time>
      </trkpt>
      <trkpt lat="48.85881" lon="2.2137">
        <ele>137.7</ele>
        <time>2015-07-06T19:35:33.049Z</time>
      </trkpt>
      <trkpt lat="48.85886" lon="2.21365">
        <ele>137.7</ele>
        <time>2015-07-06T19:35:34.052Z</time>
      </trkpt>
      <trkpt lat="48.85892" lon="2.2136">
        <ele>138</ele>
        <time>2015-07-06T19:35:35.052Z</time>
      </trkpt>
      <trkpt lat="48.85896" lon="2.21357">
        <ele>137.8</ele>
        <time>2015-07-06T19:35:36.057Z</time>
      </trkpt>
      <trkpt lat="48.85902" lon="2.21349">
        <ele>137.8</ele>
        <time>2015-07-06T19:35:38.088Z</time>
      </trkpt>
      <trkpt lat="48.85905" lon="2.21346">
        <ele>137.8</ele>
        <time>2015-07-06T19:35:39.023Z</time>
      </trkpt>
      <trkpt lat="48.85911" lon="2.21347">
        <ele>137.3</ele>
        <time>2015-07-06T19:35:41.089Z</time>
      </trkpt>
      <trkpt lat="48.85914" lon="2.21349">
        <ele>137.5</ele>
        <time>2015-07-06T19:35:41.980Z</time>
      </trkpt>
      <trkpt lat="48.85921" lon="2.21344">
        <ele>136.3</ele>
        <time>2015-07-06T19:35:46.017Z</time>
      </trkpt>
      <trkpt lat="48.85923" lon="2.21343">
        <ele>136.5</ele>
        <time>2015-07-06T19:35:47.020Z</time>
      </trkpt>
      <trkpt lat="48.85925" lon="2.21343">
        <ele>136.3</ele>
        <time>2015-07-06T19:36:27.053Z</time>
      </trkpt>
      <trkpt lat="48.85936" lon="2.21374">
        <ele>132.6</ele>
        <time>2015-07-06T19:36:28.254Z</time>
      </trkpt>
      <trkpt lat="48.85942" lon="2.21383">
        <ele>130.8</ele>
        <time>2015-07-06T19:36:32.115Z</time>
      </trkpt>
      <trkpt lat="48.85944" lon="2.21381">
        <ele>130.3</ele>
        <time>2015-07-06T19:36:33.041Z</time>
      </trkpt>
      <trkpt lat="48.8595" lon="2.21373">
        <ele>129.8</ele>
        <time>2015-07-06T19:36:42.040Z</time>
      </trkpt>
      <trkpt lat="48.85953" lon="2.21368">
        <ele>129.8</ele>
        <time>2015-07-06T19:36:43.061Z</time>
      </trkpt>
      <trkpt lat="48.85958" lon="2.21362">
        <ele>129.7</ele>
        <time>2015-07-06T19:36:46.034Z</time>
      </trkpt>
      <trkpt lat="48.8596" lon="2.2136">
        <ele>129.6</ele>
        <time>2015-07-06T19:36:47.009Z</time>
      </trkpt>
      <trkpt lat="48.85966" lon="2.21356">
        <ele>129.2</ele>
        <time>2015-07-06T19:36:49.031Z</time>
      </trkpt>
      <trkpt lat="48.85969" lon="2.21354">
        <ele>129.1</ele>
        <time>2015-07-06T19:36:50.090Z</time>
      </trkpt>
      <trkpt lat="48.85976" lon="2.21351">
        <ele>129.1</ele>
        <time>2015-07-06T19:36:52.011Z</time>
      </trkpt>
      <trkpt lat="48.85979" lon="2.21348">
        <ele>129.2</ele>
        <time>2015-07-06T19:36:53.042Z</time>
      </trkpt>
      <trkpt lat="48.85988" lon="2.21343">
        <ele>129.9</ele>
        <time>2015-07-06T19:36:55.029Z</time>
      </trkpt>
      <trkpt lat="48.85991" lon="2.2134">
        <ele>130.2</ele>
        <time>2015-07-06T19:36:56.119Z</time>
      </trkpt>
      <trkpt lat="48.85996" lon="2.21337">
        <ele>130.2</ele>
        <time>2015-07-06T19:36:57.037Z</time>
      </trkpt>
      <trkpt lat="48.86" lon="2.21333">
        <ele>130.3</ele>
        <time>2015-07-06T19:36:58.021Z</time>
      </trkpt>
      <trkpt lat="48.86005" lon="2.2133">
        <ele>130.4</ele>
        <time>2015-07-06T19:36:59.050Z</time>
      </trkpt>
      <trkpt lat="48.8601" lon="2.21328">
        <ele>130.5</ele>
        <time>2015-07-06T19:37:00.066Z</time>
      </trkpt>
      <trkpt lat="48.86014" lon="2.21326">
        <ele>130.7</ele>
        <time>2015-07-06T19:37:00.994Z</time>
      </trkpt>
      <trkpt lat="48.86019" lon="2.21324">
        <ele>130.6</ele>
        <time>2015-07-06T19:37:02.059Z</time>
      </trkpt>
      <trkpt lat="48.86023" lon="2.2132">
        <ele>130.7</ele>
        <time>2015-07-06T19:37:03.059Z</time>
      </trkpt>
      <trkpt lat="48.86027" lon="2.21316">
        <ele>130.5</ele>
        <time>2015-07-06T19:37:04.074Z</time>
      </trkpt>
      <trkpt lat="48.86031" lon="2.21313">
        <ele>130.8</ele>
        <time>2015-07-06T19:37:05.091Z</time>
      </trkpt>
      <trkpt lat="48.86036" lon="2.21311">
        <ele>130.8</ele>
        <time>2015-07-06T19:37:06.100Z</time>
      </trkpt>
      <trkpt lat="48.8604" lon="2.21309">
        <ele>130.8</ele>
        <time>2015-07-06T19:37:07.018Z</time>
      </trkpt>
      <trkpt lat="48.86045" lon="2.21306">
        <ele>130.8</ele>
        <time>2015-07-06T19:37:08.089Z</time>
      </trkpt>
      <trkpt lat="48.8605" lon="2.21304">
        <ele>130.9</ele>
        <time>2015-07-06T19:37:08.982Z</time>
      </trkpt>
      <trkpt lat="48.86055" lon="2.21301">
        <ele>130.8</ele>
        <time>2015-07-06T19:37:10.018Z</time>
      </trkpt>
      <trkpt lat="48.8606" lon="2.21298">
        <ele>130.5</ele>
        <time>2015-07-06T19:37:11.022Z</time>
      </trkpt>
      <trkpt lat="48.86065" lon="2.21295">
        <ele>130.9</ele>
        <time>2015-07-06T19:37:12.035Z</time>
      </trkpt>
      <trkpt lat="48.8607" lon="2.21292">
        <ele>131.6</ele>
        <time>2015-07-06T19:37:13.038Z</time>
      </trkpt>
      <trkpt lat="48.86075" lon="2.21288">
        <ele>131.9</ele>
        <time>2015-07-06T19:37:14.045Z</time>
      </trkpt>
      <trkpt lat="48.86079" lon="2.21286">
        <ele>132.2</ele>
        <time>2015-07-06T19:37:15.063Z</time>
      </trkpt>
      <trkpt lat="48.86084" lon="2.21284">
        <ele>132.3</ele>
        <time>2015-07-06T19:37:16.076Z</time>
      </trkpt>
      <trkpt lat="48.86089" lon="2.21282">
        <ele>132.4</ele>
        <time>2015-07-06T19:37:17.013Z</time>
      </trkpt>
      <trkpt lat="48.86094" lon="2.2128">
        <ele>132.5</ele>
        <time>2015-07-06T19:37:18.013Z</time>
      </trkpt>
      <trkpt lat="48.86099" lon="2.21277">
        <ele>132.7</ele>
        <time>2015-07-06T19:37:19.030Z</time>
      </trkpt>
      <trkpt lat="48.86104" lon="2.21276">
        <ele>132.8</ele>
        <time>2015-07-06T19:37:20.060Z</time>
      </trkpt>
      <trkpt lat="48.86113" lon="2.21272">
        <ele>133.1</ele>
        <time>2015-07-06T19:37:22.076Z</time>
      </trkpt>
      <trkpt lat="48.86117" lon="2.21271">
        <ele>133.4</ele>
        <time>2015-07-06T19:37:23.093Z</time>
      </trkpt>
      <trkpt lat="48.86122" lon="2.21269">
        <ele>133.8</ele>
        <time>2015-07-06T19:37:24.015Z</time>
      </trkpt>
      <trkpt lat="48.86126" lon="2.21267">
        <ele>134</ele>
        <time>2015-07-06T19:37:25.031Z</time>
      </trkpt>
      <trkpt lat="48.86131" lon="2.21266">
        <ele>134.5</ele>
        <time>2015-07-06T19:37:26.058Z</time>
      </trkpt>
      <trkpt lat="48.86135" lon="2.21264">
        <ele>134.9</ele>
        <time>2015-07-06T19:37:27.077Z</time>
      </trkpt>
      <trkpt lat="48.86143" lon="2.21263">
        <ele>135.4</ele>
        <time>2015-07-06T19:37:29.087Z</time>
      </trkpt>
      <trkpt lat="48.86148" lon="2.21263">
        <ele>135.4</ele>
        <time>2015-07-06T19:37:30.011Z</time>
      </trkpt>
      <trkpt lat="48.86155" lon="2.21263">
        <ele>135</ele>
        <time>2015-07-06T19:37:32.052Z</time>
      </trkpt>
      <trkpt lat="48.86158" lon="2.21263">
        <ele>135</ele>
        <time>2015-07-06T19:37:33.052Z</time>
      </trkpt>
      <trkpt lat="48.86165" lon="2.21261">
        <ele>134.8</ele>
        <time>2015-07-06T19:37:35.063Z</time>
      </trkpt>
      <trkpt lat="48.86167" lon="2.21259">
        <ele>134.7</ele>
        <time>2015-07-06T19:37:36.074Z</time>
      </trkpt>
      <trkpt lat="48.86173" lon="2.21251">
        <ele>135.2</ele>
        <time>2015-07-06T19:37:39.100Z</time>
      </trkpt>
      <trkpt lat="48.86174" lon="2.21248">
        <ele>135.3</ele>
        <time>2015-07-06T19:37:40.136Z</time>
      </trkpt>
      <trkpt lat="48.86174" lon="2.21247">
        <ele>133.6</ele>
        <time>2015-07-06T19:37:47.035Z</time>
      </trkpt>
      <trkpt lat="48.86178" lon="2.21265">
        <ele>133.4</ele>
        <time>2015-07-06T19:37:48.054Z</time>
      </trkpt>
      <trkpt lat="48.8618" lon="2.21276">
        <ele>133.3</ele>
        <time>2015-07-06T19:37:51.117Z</time>
      </trkpt>
      <trkpt lat="48.86182" lon="2.21278">
        <ele>133.4</ele>
        <time>2015-07-06T19:37:52.054Z</time>
      </trkpt>
      <trkpt lat="48.86191" lon="2.21276">
        <ele>134.3</ele>
        <time>2015-07-06T19:37:56.094Z</time>
      </trkpt>
      <trkpt lat="48.86193" lon="2.21276">
        <ele>134.7</ele>
        <time>2015-07-06T19:37:57.038Z</time>
      </trkpt>
      <trkpt lat="48.862" lon="2.21276">
        <ele>134.9</ele>
        <time>2015-07-06T19:37:59.020Z</time>
      </trkpt>
      <trkpt lat="48.86204" lon="2.21277">
        <ele>135.2</ele>
        <time>2015-07-06T19:38:00.256Z</time>
      </trkpt>
      <trkpt lat="48.8621" lon="2.21278">
        <ele>135.9</ele>
        <time>2015-07-06T19:38:02.060Z</time>
      </trkpt>
      <trkpt lat="48.86215" lon="2.21277">
        <ele>136.3</ele>
        <time>2015-07-06T19:38:03.062Z</time>
      </trkpt>
      <trkpt lat="48.8622" lon="2.21278">
        <ele>136.6</ele>
        <time>2015-07-06T19:38:04.096Z</time>
      </trkpt>
      <trkpt lat="48.86226" lon="2.2128">
        <ele>136.6</ele>
        <time>2015-07-06T19:38:05.012Z</time>
      </trkpt>
      <trkpt lat="48.86231" lon="2.21281">
        <ele>136.7</ele>
        <time>2015-07-06T19:38:06.003Z</time>
      </trkpt>
      <trkpt lat="48.86237" lon="2.21281">
        <ele>136.6</ele>
        <time>2015-07-06T19:38:07.023Z</time>
      </trkpt>
      <trkpt lat="48.86242" lon="2.21281">
        <ele>136.7</ele>
        <time>2015-07-06T19:38:08.072Z</time>
      </trkpt>
      <trkpt lat="48.86247" lon="2.2128">
        <ele>137</ele>
        <time>2015-07-06T19:38:09.068Z</time>
      </trkpt>
      <trkpt lat="48.86251" lon="2.21279">
        <ele>137.2</ele>
        <time>2015-07-06T19:38:10.078Z</time>
      </trkpt>
      <trkpt lat="48.86256" lon="2.21277">
        <ele>137.3</ele>
        <time>2015-07-06T19:38:11.011Z</time>
      </trkpt>
      <trkpt lat="48.86262" lon="2.21275">
        <ele>137.4</ele>
        <time>2015-07-06T19:38:12.013Z</time>
      </trkpt>
      <trkpt lat="48.86268" lon="2.21272">
        <ele>137.3</ele>
        <time>2015-07-06T19:38:13.015Z</time>
      </trkpt>
      <trkpt lat="48.86273" lon="2.21268">
        <ele>136.9</ele>
        <time>2015-07-06T19:38:14.059Z</time>
      </trkpt>
      <trkpt lat="48.86279" lon="2.21263">
        <ele>136.5</ele>
        <time>2015-07-06T19:38:15.046Z</time>
      </trkpt>
      <trkpt lat="48.86284" lon="2.21259">
        <ele>135.9</ele>
        <time>2015-07-06T19:38:16.499Z</time>
      </trkpt>
      <trkpt lat="48.86289" lon="2.21255">
        <ele>136.2</ele>
        <time>2015-07-06T19:38:17.069Z</time>
      </trkpt>
      <trkpt lat="48.86292" lon="2.21249">
        <ele>136.4</ele>
        <time>2015-07-06T19:38:18.001Z</time>
      </trkpt>
      <trkpt lat="48.86295" lon="2.21244">
        <ele>136.5</ele>
        <time>2015-07-06T19:38:19.094Z</time>
      </trkpt>
      <trkpt lat="48.86298" lon="2.21239">
        <ele>137</ele>
        <time>2015-07-06T19:38:20.106Z</time>
      </trkpt>
      <trkpt lat="48.86301" lon="2.21233">
        <ele>136.7</ele>
        <time>2015-07-06T19:38:21.008Z</time>
      </trkpt>
      <trkpt lat="48.86306" lon="2.21225">
        <ele>136.3</ele>
        <time>2015-07-06T19:38:23.050Z</time>
      </trkpt>
      <trkpt lat="48.86309" lon="2.21221">
        <ele>136.3</ele>
        <time>2015-07-06T19:38:24.117Z</time>
      </trkpt>
      <trkpt lat="48.86316" lon="2.21217">
        <ele>135.8</ele>
        <time>2015-07-06T19:38:27.066Z</time>
      </trkpt>
      <trkpt lat="48.86318" lon="2.21216">
        <ele>135.7</ele>
        <time>2015-07-06T19:38:28.086Z</time>
      </trkpt>
      <trkpt lat="48.86325" lon="2.21214">
        <ele>135.8</ele>
        <time>2015-07-06T19:38:31.033Z</time>
      </trkpt>
      <trkpt lat="48.86328" lon="2.21214">
        <ele>135.8</ele>
        <time>2015-07-06T19:38:32.099Z</time>
      </trkpt>
      <trkpt lat="48.86336" lon="2.21222">
        <ele>136.3</ele>
        <time>2015-07-06T19:38:34.012Z</time>
      </trkpt>
      <trkpt lat="48.86339" lon="2.21227">
        <ele>136.8</ele>
        <time>2015-07-06T19:38:35.127Z</time>
      </trkpt>
      <trkpt lat="48.86343" lon="2.21231">
        <ele>136.9</ele>
        <time>2015-07-06T19:38:36.016Z</time>
      </trkpt>
      <trkpt lat="48.86346" lon="2.21235">
        <ele>137.2</ele>
        <time>2015-07-06T19:38:37.020Z</time>
      </trkpt>
      <trkpt lat="48.8635" lon="2.21239">
        <ele>137.5</ele>
        <time>2015-07-06T19:38:38.071Z</time>
      </trkpt>
      <trkpt lat="48.86355" lon="2.21244">
        <ele>138.3</ele>
        <time>2015-07-06T19:38:39.051Z</time>
      </trkpt>
      <trkpt lat="48.8636" lon="2.21249">
        <ele>138.7</ele>
        <time>2015-07-06T19:38:40.080Z</time>
      </trkpt>
      <trkpt lat="48.86364" lon="2.21255">
        <ele>139</ele>
        <time>2015-07-06T19:38:41.105Z</time>
      </trkpt>
      <trkpt lat="48.86369" lon="2.2126">
        <ele>139.4</ele>
        <time>2015-07-06T19:38:41.979Z</time>
      </trkpt>
      <trkpt lat="48.86373" lon="2.21267">
        <ele>139.4</ele>
        <time>2015-07-06T19:38:43.007Z</time>
      </trkpt>
      <trkpt lat="48.86379" lon="2.21273">
        <ele>140</ele>
        <time>2015-07-06T19:38:44.058Z</time>
      </trkpt>
      <trkpt lat="48.86384" lon="2.21279">
        <ele>140.6</ele>
        <time>2015-07-06T19:38:45.057Z</time>
      </trkpt>
      <trkpt lat="48.86389" lon="2.21285">
        <ele>140.8</ele>
        <time>2015-07-06T19:38:46.100Z</time>
      </trkpt>
      <trkpt lat="48.86394" lon="2.21291">
        <ele>140.7</ele>
        <time>2015-07-06T19:38:46.978Z</time>
      </trkpt>
      <trkpt lat="48.86399" lon="2.21296">
        <ele>140.3</ele>
        <time>2015-07-06T19:38:48.013Z</time>
      </trkpt>
      <trkpt lat="48.86403" lon="2.21302">
        <ele>140.1</ele>
        <time>2015-07-06T19:38:48.995Z</time>
      </trkpt>
      <trkpt lat="48.86407" lon="2.21307">
        <ele>139.7</ele>
        <time>2015-07-06T19:38:50.059Z</time>
      </trkpt>
      <trkpt lat="48.8641" lon="2.21311">
        <ele>139.3</ele>
        <time>2015-07-06T19:38:51.081Z</time>
      </trkpt>
      <trkpt lat="48.86413" lon="2.21316">
        <ele>140.1</ele>
        <time>2015-07-06T19:38:52.095Z</time>
      </trkpt>
      <trkpt lat="48.86416" lon="2.21321">
        <ele>140.1</ele>
        <time>2015-07-06T19:38:53.034Z</time>
      </trkpt>
      <trkpt lat="48.86421" lon="2.21325">
        <ele>140.1</ele>
        <time>2015-07-06T19:38:54.012Z</time>
      </trkpt>
      <trkpt lat="48.86424" lon="2.2133">
        <ele>140.1</ele>
        <time>2015-07-06T19:38:55.015Z</time>
      </trkpt>
      <trkpt lat="48.86427" lon="2.21335">
        <ele>140.1</ele>
        <time>2015-07-06T19:38:56.056Z</time>
      </trkpt>
      <trkpt lat="48.86431" lon="2.2134">
        <ele>140.3</ele>
        <time>2015-07-06T19:38:57.060Z</time>
      </trkpt>
      <trkpt lat="48.86434" lon="2.21344">
        <ele>140.2</ele>
        <time>2015-07-06T19:38:58.072Z</time>
      </trkpt>
      <trkpt lat="48.86438" lon="2.21348">
        <ele>140</ele>
        <time>2015-07-06T19:38:59.081Z</time>
      </trkpt>
      <trkpt lat="48.86442" lon="2.21352">
        <ele>139.7</ele>
        <time>2015-07-06T19:39:00.021Z</time>
      </trkpt>
      <trkpt lat="48.86446" lon="2.21356">
        <ele>139.6</ele>
        <time>2015-07-06T19:39:01.018Z</time>
      </trkpt>
      <trkpt lat="48.86452" lon="2.21364">
        <ele>139.6</ele>
        <time>2015-07-06T19:39:03.062Z</time>
      </trkpt>
      <trkpt lat="48.86454" lon="2.21368">
        <ele>139.6</ele>
        <time>2015-07-06T19:39:04.070Z</time>
      </trkpt>
      <trkpt lat="48.86458" lon="2.21376">
        <ele>139.2</ele>
        <time>2015-07-06T19:39:06.009Z</time>
      </trkpt>
      <trkpt lat="48.8646" lon="2.2138">
        <ele>139.4</ele>
        <time>2015-07-06T19:39:07.034Z</time>
      </trkpt>
      <trkpt lat="48.86467" lon="2.21388">
        <ele>139.7</ele>
        <time>2015-07-06T19:39:09.064Z</time>
      </trkpt>
      <trkpt lat="48.86471" lon="2.21392">
        <ele>139.3</ele>
        <time>2015-07-06T19:39:10.078Z</time>
      </trkpt>
      <trkpt lat="48.86476" lon="2.21399">
        <ele>139.6</ele>
        <time>2015-07-06T19:39:12.009Z</time>
      </trkpt>
      <trkpt lat="48.86481" lon="2.21404">
        <ele>139.6</ele>
        <time>2015-07-06T19:39:13.035Z</time>
      </trkpt>
      <trkpt lat="48.86485" lon="2.2141">
        <ele>139.9</ele>
        <time>2015-07-06T19:39:14.087Z</time>
      </trkpt>
      <trkpt lat="48.86488" lon="2.21415">
        <ele>139.6</ele>
        <time>2015-07-06T19:39:15.094Z</time>
      </trkpt>
      <trkpt lat="48.86492" lon="2.21419">
        <ele>139</ele>
        <time>2015-07-06T19:39:16.002Z</time>
      </trkpt>
      <trkpt lat="48.86496" lon="2.21425">
        <ele>139.2</ele>
        <time>2015-07-06T19:39:17.005Z</time>
      </trkpt>
      <trkpt lat="48.865" lon="2.21431">
        <ele>139.3</ele>
        <time>2015-07-06T19:39:18.002Z</time>
      </trkpt>
      <trkpt lat="48.86505" lon="2.21437">
        <ele>139.9</ele>
        <time>2015-07-06T19:39:19.012Z</time>
      </trkpt>
      <trkpt lat="48.86509" lon="2.21443">
        <ele>140.2</ele>
        <time>2015-07-06T19:39:20.059Z</time>
      </trkpt>
      <trkpt lat="48.86515" lon="2.21448">
        <ele>140.3</ele>
        <time>2015-07-06T19:39:21.061Z</time>
      </trkpt>
      <trkpt lat="48.86521" lon="2.21453">
        <ele>140.5</ele>
        <time>2015-07-06T19:39:22.064Z</time>
      </trkpt>
      <trkpt lat="48.86527" lon="2.21459">
        <ele>140.9</ele>
        <time>2015-07-06T19:39:23.070Z</time>
      </trkpt>
      <trkpt lat="48.86534" lon="2.21464">
        <ele>141.6</ele>
        <time>2015-07-06T19:39:24.075Z</time>
      </trkpt>
      <trkpt lat="48.86541" lon="2.2147">
        <ele>142.5</ele>
        <time>2015-07-06T19:39:25.141Z</time>
      </trkpt>
      <trkpt lat="48.86549" lon="2.21476">
        <ele>143.4</ele>
        <time>2015-07-06T19:39:26.093Z</time>
      </trkpt>
      <trkpt lat="48.86554" lon="2.21483">
        <ele>143.8</ele>
        <time>2015-07-06T19:39:27.104Z</time>
      </trkpt>
      <trkpt lat="48.86559" lon="2.21491">
        <ele>144.4</ele>
        <time>2015-07-06T19:39:28.032Z</time>
      </trkpt>
      <trkpt lat="48.86564" lon="2.21498">
        <ele>144.9</ele>
        <time>2015-07-06T19:39:29.006Z</time>
      </trkpt>
      <trkpt lat="48.8657" lon="2.21505">
        <ele>145.1</ele>
        <time>2015-07-06T19:39:30.026Z</time>
      </trkpt>
      <trkpt lat="48.86576" lon="2.21513">
        <ele>145.1</ele>
        <time>2015-07-06T19:39:31.040Z</time>
      </trkpt>
      <trkpt lat="48.86582" lon="2.21519">
        <ele>144.9</ele>
        <time>2015-07-06T19:39:32.051Z</time>
      </trkpt>
      <trkpt lat="48.86587" lon="2.21525">
        <ele>144.9</ele>
        <time>2015-07-06T19:39:33.062Z</time>
      </trkpt>
      <trkpt lat="48.86591" lon="2.21531">
        <ele>144.7</ele>
        <time>2015-07-06T19:39:34.068Z</time>
      </trkpt>
      <trkpt lat="48.86595" lon="2.21536">
        <ele>144.8</ele>
        <time>2015-07-06T19:39:35.084Z</time>
      </trkpt>
      <trkpt lat="48.866" lon="2.21541">
        <ele>145.1</ele>
        <time>2015-07-06T19:39:36.086Z</time>
      </trkpt>
      <trkpt lat="48.86604" lon="2.21546">
        <ele>144.9</ele>
        <time>2015-07-06T19:39:37.167Z</time>
      </trkpt>
      <trkpt lat="48.86607" lon="2.21552">
        <ele>144.8</ele>
        <time>2015-07-06T19:39:38.111Z</time>
      </trkpt>
      <trkpt lat="48.8661" lon="2.21557">
        <ele>144.6</ele>
        <time>2015-07-06T19:39:39.011Z</time>
      </trkpt>
      <trkpt lat="48.86615" lon="2.21562">
        <ele>144.8</ele>
        <time>2015-07-06T19:39:40.016Z</time>
      </trkpt>
      <trkpt lat="48.86618" lon="2.21566">
        <ele>144.2</ele>
        <time>2015-07-06T19:39:41.029Z</time>
      </trkpt>
      <trkpt lat="48.86622" lon="2.21571">
        <ele>144.2</ele>
        <time>2015-07-06T19:39:42.035Z</time>
      </trkpt>
      <trkpt lat="48.86628" lon="2.2158">
        <ele>144.4</ele>
        <time>2015-07-06T19:39:44.096Z</time>
      </trkpt>
      <trkpt lat="48.86632" lon="2.21585">
        <ele>144.6</ele>
        <time>2015-07-06T19:39:45.086Z</time>
      </trkpt>
      <trkpt lat="48.86636" lon="2.2159">
        <ele>144.9</ele>
        <time>2015-07-06T19:39:45.863Z</time>
      </trkpt>
      <trkpt lat="48.8664" lon="2.21595">
        <ele>145.3</ele>
        <time>2015-07-06T19:39:47.016Z</time>
      </trkpt>
      <trkpt lat="48.86644" lon="2.21601">
        <ele>146</ele>
        <time>2015-07-06T19:39:48.006Z</time>
      </trkpt>
      <trkpt lat="48.86647" lon="2.21606">
        <ele>146.2</ele>
        <time>2015-07-06T19:39:49.047Z</time>
      </trkpt>
      <trkpt lat="48.86653" lon="2.2161">
        <ele>147.2</ele>
        <time>2015-07-06T19:39:50.057Z</time>
      </trkpt>
      <trkpt lat="48.86659" lon="2.21615">
        <ele>147.8</ele>
        <time>2015-07-06T19:39:51.057Z</time>
      </trkpt>
      <trkpt lat="48.86664" lon="2.2162">
        <ele>148.3</ele>
        <time>2015-07-06T19:39:50.928Z</time>
      </trkpt>
      <trkpt lat="48.86669" lon="2.21625">
        <ele>149.1</ele>
        <time>2015-07-06T19:39:53.064Z</time>
      </trkpt>
      <trkpt lat="48.86674" lon="2.2163">
        <ele>149.2</ele>
        <time>2015-07-06T19:39:54.072Z</time>
      </trkpt>
      <trkpt lat="48.86678" lon="2.21635">
        <ele>149.1</ele>
        <time>2015-07-06T19:39:54.977Z</time>
      </trkpt>
      <trkpt lat="48.86683" lon="2.21639">
        <ele>149.3</ele>
        <time>2015-07-06T19:39:56.056Z</time>
      </trkpt>
      <trkpt lat="48.86686" lon="2.21644">
        <ele>149.4</ele>
        <time>2015-07-06T19:39:57.062Z</time>
      </trkpt>
      <trkpt lat="48.8669" lon="2.21649">
        <ele>149.3</ele>
        <time>2015-07-06T19:39:58.070Z</time>
      </trkpt>
      <trkpt lat="48.86693" lon="2.21653">
        <ele>149.4</ele>
        <time>2015-07-06T19:39:59.075Z</time>
      </trkpt>
      <trkpt lat="48.86698" lon="2.21657">
        <ele>149.8</ele>
        <time>2015-07-06T19:40:00.110Z</time>
      </trkpt>
      <trkpt lat="48.86706" lon="2.2166">
        <ele>150.6</ele>
        <time>2015-07-06T19:40:00.979Z</time>
      </trkpt>
      <trkpt lat="48.86711" lon="2.21664">
        <ele>150.8</ele>
        <time>2015-07-06T19:40:02.023Z</time>
      </trkpt>
      <trkpt lat="48.86714" lon="2.21668">
        <ele>151.4</ele>
        <time>2015-07-06T19:40:03.037Z</time>
      </trkpt>
      <trkpt lat="48.86718" lon="2.21672">
        <ele>151.6</ele>
        <time>2015-07-06T19:40:04.062Z</time>
      </trkpt>
      <trkpt lat="48.86723" lon="2.21675">
        <ele>152.2</ele>
        <time>2015-07-06T19:40:05.093Z</time>
      </trkpt>
      <trkpt lat="48.86728" lon="2.21678">
        <ele>152.3</ele>
        <time>2015-07-06T19:40:06.009Z</time>
      </trkpt>
      <trkpt lat="48.86732" lon="2.21681">
        <ele>152.4</ele>
        <time>2015-07-06T19:40:07.008Z</time>
      </trkpt>
      <trkpt lat="48.86738" lon="2.21688">
        <ele>152.8</ele>
        <time>2015-07-06T19:40:09.054Z</time>
      </trkpt>
      <trkpt lat="48.86742" lon="2.21692">
        <ele>153</ele>
        <time>2015-07-06T19:40:10.066Z</time>
      </trkpt>
      <trkpt lat="48.86746" lon="2.21696">
        <ele>152.9</ele>
        <time>2015-07-06T19:40:11.037Z</time>
      </trkpt>
      <trkpt lat="48.86752" lon="2.21701">
        <ele>152.4</ele>
        <time>2015-07-06T19:40:12.050Z</time>
      </trkpt>
      <trkpt lat="48.86758" lon="2.21705">
        <ele>151.9</ele>
        <time>2015-07-06T19:40:13.053Z</time>
      </trkpt>
      <trkpt lat="48.86765" lon="2.21709">
        <ele>151.2</ele>
        <time>2015-07-06T19:40:14.075Z</time>
      </trkpt>
      <trkpt lat="48.86772" lon="2.21714">
        <ele>150.6</ele>
        <time>2015-07-06T19:40:15.007Z</time>
      </trkpt>
      <trkpt lat="48.8678" lon="2.21718">
        <ele>150.3</ele>
        <time>2015-07-06T19:40:16.008Z</time>
      </trkpt>
      <trkpt lat="48.86787" lon="2.21723">
        <ele>149.8</ele>
        <time>2015-07-06T19:40:17.021Z</time>
      </trkpt>
      <trkpt lat="48.86793" lon="2.21727">
        <ele>149.4</ele>
        <time>2015-07-06T19:40:18.035Z</time>
      </trkpt>
      <trkpt lat="48.86799" lon="2.21732">
        <ele>148.9</ele>
        <time>2015-07-06T19:40:19.075Z</time>
      </trkpt>
      <trkpt lat="48.86804" lon="2.21737">
        <ele>148.4</ele>
        <time>2015-07-06T19:40:20.084Z</time>
      </trkpt>
      <trkpt lat="48.8681" lon="2.21741">
        <ele>148.4</ele>
        <time>2015-07-06T19:40:21.090Z</time>
      </trkpt>
      <trkpt lat="48.86818" lon="2.21745">
        <ele>148.6</ele>
        <time>2015-07-06T19:40:22.001Z</time>
      </trkpt>
      <trkpt lat="48.86825" lon="2.21749">
        <ele>148.6</ele>
        <time>2015-07-06T19:40:23.101Z</time>
      </trkpt>
      <trkpt lat="48.86833" lon="2.21751">
        <ele>148.4</ele>
        <time>2015-07-06T19:40:24.036Z</time>
      </trkpt>
      <trkpt lat="48.86838" lon="2.21753">
        <ele>148</ele>
        <time>2015-07-06T19:40:25.019Z</time>
      </trkpt>
      <trkpt lat="48.86846" lon="2.21752">
        <ele>147.9</ele>
        <time>2015-07-06T19:40:26.056Z</time>
      </trkpt>
      <trkpt lat="48.86854" lon="2.21752">
        <ele>148</ele>
        <time>2015-07-06T19:40:27.067Z</time>
      </trkpt>
      <trkpt lat="48.86862" lon="2.21752">
        <ele>147.9</ele>
        <time>2015-07-06T19:40:28.089Z</time>
      </trkpt>
      <trkpt lat="48.86869" lon="2.21751">
        <ele>148</ele>
        <time>2015-07-06T19:40:29.011Z</time>
      </trkpt>
      <trkpt lat="48.86876" lon="2.21751">
        <ele>148.5</ele>
        <time>2015-07-06T19:40:30.003Z</time>
      </trkpt>
      <trkpt lat="48.86883" lon="2.2175">
        <ele>149.2</ele>
        <time>2015-07-06T19:40:31.009Z</time>
      </trkpt>
      <trkpt lat="48.8689" lon="2.21748">
        <ele>150</ele>
        <time>2015-07-06T19:40:32.073Z</time>
      </trkpt>
      <trkpt lat="48.86896" lon="2.21747">
        <ele>150.4</ele>
        <time>2015-07-06T19:40:32.997Z</time>
      </trkpt>
      <trkpt lat="48.86901" lon="2.21747">
        <ele>150.4</ele>
        <time>2015-07-06T19:40:33.992Z</time>
      </trkpt>
      <trkpt lat="48.86907" lon="2.21746">
        <ele>150.8</ele>
        <time>2015-07-06T19:40:35.021Z</time>
      </trkpt>
      <trkpt lat="48.86912" lon="2.21746">
        <ele>150.9</ele>
        <time>2015-07-06T19:40:36.042Z</time>
      </trkpt>
      <trkpt lat="48.86918" lon="2.21745">
        <ele>151.5</ele>
        <time>2015-07-06T19:40:37.011Z</time>
      </trkpt>
      <trkpt lat="48.86924" lon="2.21744">
        <ele>151.9</ele>
        <time>2015-07-06T19:40:38.036Z</time>
      </trkpt>
      <trkpt lat="48.86929" lon="2.21743">
        <ele>152</ele>
        <time>2015-07-06T19:40:39.032Z</time>
      </trkpt>
      <trkpt lat="48.86934" lon="2.21742">
        <ele>152.2</ele>
        <time>2015-07-06T19:40:40.039Z</time>
      </trkpt>
      <trkpt lat="48.8694" lon="2.21742">
        <ele>152.4</ele>
        <time>2015-07-06T19:40:41.060Z</time>
      </trkpt>
      <trkpt lat="48.86948" lon="2.21742">
        <ele>152.5</ele>
        <time>2015-07-06T19:40:42.086Z</time>
      </trkpt>
      <trkpt lat="48.86957" lon="2.21742">
        <ele>152.1</ele>
        <time>2015-07-06T19:40:43.035Z</time>
      </trkpt>
      <trkpt lat="48.86965" lon="2.21743">
        <ele>151.3</ele>
        <time>2015-07-06T19:40:44.029Z</time>
      </trkpt>
      <trkpt lat="48.86973" lon="2.21745">
        <ele>150.5</ele>
        <time>2015-07-06T19:40:45.045Z</time>
      </trkpt>
      <trkpt lat="48.8698" lon="2.21749">
        <ele>149.9</ele>
        <time>2015-07-06T19:40:46.017Z</time>
      </trkpt>
      <trkpt lat="48.86986" lon="2.21752">
        <ele>149.8</ele>
        <time>2015-07-06T19:40:47.001Z</time>
      </trkpt>
      <trkpt lat="48.86991" lon="2.21757">
        <ele>149.3</ele>
        <time>2015-07-06T19:40:48.040Z</time>
      </trkpt>
      <trkpt lat="48.86995" lon="2.21761">
        <ele>149.1</ele>
        <time>2015-07-06T19:40:49.063Z</time>
      </trkpt>
      <trkpt lat="48.86999" lon="2.21765">
        <ele>149.2</ele>
        <time>2015-07-06T19:40:50.091Z</time>
      </trkpt>
      <trkpt lat="48.87006" lon="2.21771">
        <ele>149.1</ele>
        <time>2015-07-06T19:40:52.038Z</time>
      </trkpt>
      <trkpt lat="48.87009" lon="2.21774">
        <ele>149</ele>
        <time>2015-07-06T19:40:53.048Z</time>
      </trkpt>
      <trkpt lat="48.87016" lon="2.21782">
        <ele>148.5</ele>
        <time>2015-07-06T19:40:56.040Z</time>
      </trkpt>
      <trkpt lat="48.87019" lon="2.21784">
        <ele>148.1</ele>
        <time>2015-07-06T19:40:57.063Z</time>
      </trkpt>
      <trkpt lat="48.87025" lon="2.21788">
        <ele>148.4</ele>
        <time>2015-07-06T19:40:59.048Z</time>
      </trkpt>
      <trkpt lat="48.87028" lon="2.21791">
        <ele>148.6</ele>
        <time>2015-07-06T19:41:00.139Z</time>
      </trkpt>
      <trkpt lat="48.87034" lon="2.21796">
        <ele>149.2</ele>
        <time>2015-07-06T19:41:02.113Z</time>
      </trkpt>
      <trkpt lat="48.87036" lon="2.21798">
        <ele>148.9</ele>
        <time>2015-07-06T19:41:03.001Z</time>
      </trkpt>
      <trkpt lat="48.87042" lon="2.21809">
        <ele>148.8</ele>
        <time>2015-07-06T19:41:07.014Z</time>
      </trkpt>
      <trkpt lat="48.87043" lon="2.21811">
        <ele>149</ele>
        <time>2015-07-06T19:41:08.111Z</time>
      </trkpt>
      <trkpt lat="48.8705" lon="2.21817">
        <ele>149.4</ele>
        <time>2015-07-06T19:41:11.116Z</time>
      </trkpt>
      <trkpt lat="48.87052" lon="2.21818">
        <ele>149.3</ele>
        <time>2015-07-06T19:41:12.031Z</time>
      </trkpt>
      <trkpt lat="48.87059" lon="2.21822">
        <ele>149.5</ele>
        <time>2015-07-06T19:41:14.997Z</time>
      </trkpt>
      <trkpt lat="48.87061" lon="2.21824">
        <ele>149.4</ele>
        <time>2015-07-06T19:41:16.089Z</time>
      </trkpt>
      <trkpt lat="48.87069" lon="2.21827">
        <ele>148.8</ele>
        <time>2015-07-06T19:41:19.460Z</time>
      </trkpt>
      <trkpt lat="48.87071" lon="2.21829">
        <ele>148.9</ele>
        <time>2015-07-06T19:41:20.038Z</time>
      </trkpt>
      <trkpt lat="48.87078" lon="2.21832">
        <ele>149.4</ele>
        <time>2015-07-06T19:41:22.017Z</time>
      </trkpt>
      <trkpt lat="48.87081" lon="2.21835">
        <ele>149.6</ele>
        <time>2015-07-06T19:41:23.088Z</time>
      </trkpt>
      <trkpt lat="48.87087" lon="2.21838">
        <ele>150.1</ele>
        <time>2015-07-06T19:41:25.025Z</time>
      </trkpt>
      <trkpt lat="48.8709" lon="2.21841">
        <ele>150.1</ele>
        <time>2015-07-06T19:41:26.040Z</time>
      </trkpt>
      <trkpt lat="48.87095" lon="2.21844">
        <ele>149.7</ele>
        <time>2015-07-06T19:41:28.140Z</time>
      </trkpt>
      <trkpt lat="48.87099" lon="2.21844">
        <ele>149.7</ele>
        <time>2015-07-06T19:41:29.012Z</time>
      </trkpt>
      <trkpt lat="48.87104" lon="2.21845">
        <ele>149.9</ele>
        <time>2015-07-06T19:41:30.023Z</time>
      </trkpt>
      <trkpt lat="48.87109" lon="2.21847">
        <ele>150.2</ele>
        <time>2015-07-06T19:41:31.057Z</time>
      </trkpt>
      <trkpt lat="48.87114" lon="2.21851">
        <ele>150.3</ele>
        <time>2015-07-06T19:41:32.062Z</time>
      </trkpt>
      <trkpt lat="48.87119" lon="2.21855">
        <ele>149.9</ele>
        <time>2015-07-06T19:41:33.078Z</time>
      </trkpt>
      <trkpt lat="48.87125" lon="2.21861">
        <ele>149.5</ele>
        <time>2015-07-06T19:41:34.622Z</time>
      </trkpt>
      <trkpt lat="48.87131" lon="2.21864">
        <ele>149.5</ele>
        <time>2015-07-06T19:41:35.079Z</time>
      </trkpt>
      <trkpt lat="48.87137" lon="2.21867">
        <ele>149.4</ele>
        <time>2015-07-06T19:41:36.085Z</time>
      </trkpt>
      <trkpt lat="48.87143" lon="2.21871">
        <ele>149</ele>
        <time>2015-07-06T19:41:37.032Z</time>
      </trkpt>
      <trkpt lat="48.87148" lon="2.21874">
        <ele>149</ele>
        <time>2015-07-06T19:41:38.119Z</time>
      </trkpt>
      <trkpt lat="48.87154" lon="2.21879">
        <ele>149.1</ele>
        <time>2015-07-06T19:41:39.006Z</time>
      </trkpt>
      <trkpt lat="48.8716" lon="2.21884">
        <ele>149.1</ele>
        <time>2015-07-06T19:41:40.009Z</time>
      </trkpt>
      <trkpt lat="48.87166" lon="2.21888">
        <ele>148.9</ele>
        <time>2015-07-06T19:41:41.026Z</time>
      </trkpt>
      <trkpt lat="48.87172" lon="2.21891">
        <ele>149.1</ele>
        <time>2015-07-06T19:41:42.086Z</time>
      </trkpt>
      <trkpt lat="48.87178" lon="2.21894">
        <ele>149</ele>
        <time>2015-07-06T19:41:43.184Z</time>
      </trkpt>
      <trkpt lat="48.87183" lon="2.21897">
        <ele>148.4</ele>
        <time>2015-07-06T19:41:44.056Z</time>
      </trkpt>
      <trkpt lat="48.87189" lon="2.219">
        <ele>148.3</ele>
        <time>2015-07-06T19:41:45.061Z</time>
      </trkpt>
      <trkpt lat="48.87198" lon="2.21901">
        <ele>147.3</ele>
        <time>2015-07-06T19:41:47.098Z</time>
      </trkpt>
      <trkpt lat="48.87203" lon="2.21899">
        <ele>146.9</ele>
        <time>2015-07-06T19:41:48.031Z</time>
      </trkpt>
      <trkpt lat="48.87208" lon="2.21897">
        <ele>146.7</ele>
        <time>2015-07-06T19:41:49.075Z</time>
      </trkpt>
      <trkpt lat="48.87213" lon="2.21896">
        <ele>146.5</ele>
        <time>2015-07-06T19:41:50.077Z</time>
      </trkpt>
      <trkpt lat="48.87218" lon="2.21892">
        <ele>146.2</ele>
        <time>2015-07-06T19:41:51.006Z</time>
      </trkpt>
      <trkpt lat="48.87222" lon="2.21888">
        <ele>146.3</ele>
        <time>2015-07-06T19:41:52.005Z</time>
      </trkpt>
      <trkpt lat="48.87229" lon="2.2188">
        <ele>145.9</ele>
        <time>2015-07-06T19:41:54.050Z</time>
      </trkpt>
      <trkpt lat="48.87231" lon="2.21875">
        <ele>145.5</ele>
        <time>2015-07-06T19:41:55.084Z</time>
      </trkpt>
      <trkpt lat="48.87238" lon="2.21869">
        <ele>146.1</ele>
        <time>2015-07-06T19:41:59.048Z</time>
      </trkpt>
      <trkpt lat="48.87241" lon="2.21874">
        <ele>146</ele>
        <time>2015-07-06T19:42:00.066Z</time>
      </trkpt>
      <trkpt lat="48.87245" lon="2.21884">
        <ele>146</ele>
        <time>2015-07-06T19:42:02.975Z</time>
      </trkpt>
      <trkpt lat="48.87244" lon="2.21888">
        <ele>145.5</ele>
        <time>2015-07-06T19:42:04.028Z</time>
      </trkpt>
      <trkpt lat="48.87246" lon="2.21899">
        <ele>145.2</ele>
        <time>2015-07-06T19:42:07.054Z</time>
      </trkpt>
      <trkpt lat="48.87248" lon="2.21902">
        <ele>145.3</ele>
        <time>2015-07-06T19:42:08.115Z</time>
      </trkpt>
      <trkpt lat="48.87255" lon="2.21909">
        <ele>146.1</ele>
        <time>2015-07-06T19:42:11.043Z</time>
      </trkpt>
      <trkpt lat="48.87257" lon="2.21912">
        <ele>146</ele>
        <time>2015-07-06T19:42:12.061Z</time>
      </trkpt>
      <trkpt lat="48.87263" lon="2.21916">
        <ele>146.5</ele>
        <time>2015-07-06T19:42:14.099Z</time>
      </trkpt>
      <trkpt lat="48.87265" lon="2.21917">
        <ele>146.7</ele>
        <time>2015-07-06T19:42:15.007Z</time>
      </trkpt>
      <trkpt lat="48.87273" lon="2.21923">
        <ele>146.6</ele>
        <time>2015-07-06T19:42:18.110Z</time>
      </trkpt>
      <trkpt lat="48.87275" lon="2.21925">
        <ele>146.3</ele>
        <time>2015-07-06T19:42:19.031Z</time>
      </trkpt>
      <trkpt lat="48.87281" lon="2.21931">
        <ele>146.7</ele>
        <time>2015-07-06T19:42:22.069Z</time>
      </trkpt>
      <trkpt lat="48.87283" lon="2.21933">
        <ele>146.9</ele>
        <time>2015-07-06T19:42:23.086Z</time>
      </trkpt>
      <trkpt lat="48.8729" lon="2.21941">
        <ele>146.7</ele>
        <time>2015-07-06T19:42:27.071Z</time>
      </trkpt>
      <trkpt lat="48.87293" lon="2.21943">
        <ele>146.8</ele>
        <time>2015-07-06T19:42:28.077Z</time>
      </trkpt>
      <trkpt lat="48.87301" lon="2.2195">
        <ele>145.8</ele>
        <time>2015-07-06T19:42:34.117Z</time>
      </trkpt>
      <trkpt lat="48.87301" lon="2.21951">
        <ele>145.9</ele>
        <time>2015-07-06T19:42:35.043Z</time>
      </trkpt>
      <trkpt lat="48.87305" lon="2.21941">
        <ele>145.3</ele>
        <time>2015-07-06T19:48:11.748Z</time>
      </trkpt>
      <trkpt lat="48.87306" lon="2.21939">
        <ele>145.2</ele>
        <time>2015-07-06T19:48:12.784Z</time>
      </trkpt>
      <trkpt lat="48.8731" lon="2.21927">
        <ele>144.6</ele>
        <time>2015-07-06T19:48:16.801Z</time>
      </trkpt>
      <trkpt lat="48.87311" lon="2.21924">
        <ele>144.6</ele>
        <time>2015-07-06T19:48:17.809Z</time>
      </trkpt>
      <trkpt lat="48.87315" lon="2.21914">
        <ele>144.9</ele>
        <time>2015-07-06T19:48:20.790Z</time>
      </trkpt>
      <trkpt lat="48.87316" lon="2.2191">
        <ele>145</ele>
        <time>2015-07-06T19:48:21.802Z</time>
      </trkpt>
      <trkpt lat="48.87319" lon="2.21902">
        <ele>145.2</ele>
        <time>2015-07-06T19:48:23.746Z</time>
      </trkpt>
      <trkpt lat="48.8732" lon="2.21898">
        <ele>145.4</ele>
        <time>2015-07-06T19:48:24.818Z</time>
      </trkpt>
      <trkpt lat="48.87322" lon="2.21888">
        <ele>145.5</ele>
        <time>2015-07-06T19:48:26.825Z</time>
      </trkpt>
      <trkpt lat="48.87322" lon="2.21883">
        <ele>145.7</ele>
        <time>2015-07-06T19:48:27.832Z</time>
      </trkpt>
      <trkpt lat="48.87322" lon="2.21872">
        <ele>146.3</ele>
        <time>2015-07-06T19:48:29.758Z</time>
      </trkpt>
      <trkpt lat="48.87322" lon="2.21866">
        <ele>146.5</ele>
        <time>2015-07-06T19:48:30.754Z</time>
      </trkpt>
      <trkpt lat="48.87323" lon="2.21853">
        <ele>146.6</ele>
        <time>2015-07-06T19:48:33.715Z</time>
      </trkpt>
      <trkpt lat="48.87324" lon="2.2185">
        <ele>146.6</ele>
        <time>2015-07-06T19:48:34.990Z</time>
      </trkpt>
      <trkpt lat="48.87327" lon="2.2184">
        <ele>147</ele>
        <time>2015-07-06T19:48:37.797Z</time>
      </trkpt>
      <trkpt lat="48.87327" lon="2.21836">
        <ele>147.4</ele>
        <time>2015-07-06T19:48:38.810Z</time>
      </trkpt>
      <trkpt lat="48.8733" lon="2.21825">
        <ele>148.6</ele>
        <time>2015-07-06T19:48:41.724Z</time>
      </trkpt>
      <trkpt lat="48.87331" lon="2.21822">
        <ele>148.8</ele>
        <time>2015-07-06T19:48:42.771Z</time>
      </trkpt>
      <trkpt lat="48.87335" lon="2.21813">
        <ele>149.5</ele>
        <time>2015-07-06T19:48:46.777Z</time>
      </trkpt>
      <trkpt lat="48.87336" lon="2.21809">
        <ele>149.5</ele>
        <time>2015-07-06T19:48:47.785Z</time>
      </trkpt>
      <trkpt lat="48.87345" lon="2.21809">
        <ele>149.1</ele>
        <time>2015-07-06T19:48:50.747Z</time>
      </trkpt>
      <trkpt lat="48.87347" lon="2.2181">
        <ele>149.2</ele>
        <time>2015-07-06T19:48:51.725Z</time>
      </trkpt>
      <trkpt lat="48.87355" lon="2.21814">
        <ele>149.4</ele>
        <time>2015-07-06T19:48:54.965Z</time>
      </trkpt>
      <trkpt lat="48.87357" lon="2.21814">
        <ele>149.8</ele>
        <time>2015-07-06T19:48:55.842Z</time>
      </trkpt>
      <trkpt lat="48.87365" lon="2.21814">
        <ele>150.8</ele>
        <time>2015-07-06T19:49:00.748Z</time>
      </trkpt>
      <trkpt lat="48.87367" lon="2.21814">
        <ele>151</ele>
        <time>2015-07-06T19:49:01.801Z</time>
      </trkpt>
      <trkpt lat="48.87374" lon="2.2182">
        <ele>149.5</ele>
        <time>2015-07-06T19:52:44.691Z</time>
      </trkpt>
      <trkpt lat="48.87376" lon="2.2182">
        <ele>149.4</ele>
        <time>2015-07-06T19:52:45.707Z</time>
      </trkpt>
      <trkpt lat="48.87385" lon="2.21822">
        <ele>149.2</ele>
        <time>2015-07-06T19:52:48.658Z</time>
      </trkpt>
      <trkpt lat="48.87387" lon="2.21822">
        <ele>148.9</ele>
        <time>2015-07-06T19:52:49.679Z</time>
      </trkpt>
      <trkpt lat="48.87396" lon="2.21823">
        <ele>148.5</ele>
        <time>2015-07-06T19:52:53.544Z</time>
      </trkpt>
      <trkpt lat="48.87399" lon="2.21822">
        <ele>148.4</ele>
        <time>2015-07-06T19:52:53.620Z</time>
      </trkpt>
      <trkpt lat="48.87406" lon="2.21822">
        <ele>148.6</ele>
        <time>2015-07-06T19:52:55.676Z</time>
      </trkpt>
      <trkpt lat="48.87409" lon="2.21822">
        <ele>148.7</ele>
        <time>2015-07-06T19:52:56.688Z</time>
      </trkpt>
      <trkpt lat="48.87416" lon="2.21823">
        <ele>149.6</ele>
        <time>2015-07-06T19:52:58.617Z</time>
      </trkpt>
      <trkpt lat="48.8742" lon="2.21823">
        <ele>150</ele>
        <time>2015-07-06T19:52:59.640Z</time>
      </trkpt>
      <trkpt lat="48.87427" lon="2.21823">
        <ele>150.4</ele>
        <time>2015-07-06T19:53:01.594Z</time>
      </trkpt>
      <trkpt lat="48.8743" lon="2.21823">
        <ele>150.8</ele>
        <time>2015-07-06T19:53:02.631Z</time>
      </trkpt>
      <trkpt lat="48.87436" lon="2.21819">
        <ele>151.5</ele>
        <time>2015-07-06T19:53:04.649Z</time>
      </trkpt>
      <trkpt lat="48.87439" lon="2.21817">
        <ele>151.7</ele>
        <time>2015-07-06T19:53:05.656Z</time>
      </trkpt>
      <trkpt lat="48.87445" lon="2.21812">
        <ele>151.4</ele>
        <time>2015-07-06T19:53:07.705Z</time>
      </trkpt>
      <trkpt lat="48.87449" lon="2.21808">
        <ele>151.1</ele>
        <time>2015-07-06T19:53:08.605Z</time>
      </trkpt>
      <trkpt lat="48.87456" lon="2.21803">
        <ele>150.7</ele>
        <time>2015-07-06T19:53:11.669Z</time>
      </trkpt>
      <trkpt lat="48.87458" lon="2.218">
        <ele>150.5</ele>
        <time>2015-07-06T19:53:12.658Z</time>
      </trkpt>
      <trkpt lat="48.87462" lon="2.21795">
        <ele>150.6</ele>
        <time>2015-07-06T19:53:14.642Z</time>
      </trkpt>
      <trkpt lat="48.87465" lon="2.21791">
        <ele>150.4</ele>
        <time>2015-07-06T19:53:15.600Z</time>
      </trkpt>
      <trkpt lat="48.87471" lon="2.21783">
        <ele>150.8</ele>
        <time>2015-07-06T19:53:18.757Z</time>
      </trkpt>
      <trkpt lat="48.87472" lon="2.21781">
        <ele>151.1</ele>
        <time>2015-07-06T19:53:19.640Z</time>
      </trkpt>
      <trkpt lat="48.8748" lon="2.21781">
        <ele>153.4</ele>
        <time>2015-07-06T19:53:24.728Z</time>
      </trkpt>
      <trkpt lat="48.87483" lon="2.2178">
        <ele>153.7</ele>
        <time>2015-07-06T19:53:25.595Z</time>
      </trkpt>
      <trkpt lat="48.8749" lon="2.21778">
        <ele>154</ele>
        <time>2015-07-06T19:53:27.690Z</time>
      </trkpt>
      <trkpt lat="48.87493" lon="2.21777">
        <ele>154.2</ele>
        <time>2015-07-06T19:53:28.696Z</time>
      </trkpt>
      <trkpt lat="48.87501" lon="2.21774">
        <ele>155.6</ele>
        <time>2015-07-06T19:53:31.630Z</time>
      </trkpt>
      <trkpt lat="48.87505" lon="2.21774">
        <ele>156.1</ele>
        <time>2015-07-06T19:53:32.627Z</time>
      </trkpt>
      <trkpt lat="48.87509" lon="2.21776">
        <ele>156.3</ele>
        <time>2015-07-06T19:53:33.657Z</time>
      </trkpt>
      <trkpt lat="48.87514" lon="2.21777">
        <ele>156.6</ele>
        <time>2015-07-06T19:53:35.483Z</time>
      </trkpt>
      <trkpt lat="48.87523" lon="2.21777">
        <ele>157.3</ele>
        <time>2015-07-06T19:53:37.454Z</time>
      </trkpt>
      <trkpt lat="48.87525" lon="2.21778">
        <ele>157.6</ele>
        <time>2015-07-06T19:53:38.484Z</time>
      </trkpt>
      <trkpt lat="48.87534" lon="2.2178">
        <ele>158</ele>
        <time>2015-07-06T19:53:41.433Z</time>
      </trkpt>
      <trkpt lat="48.87536" lon="2.21781">
        <ele>158</ele>
        <time>2015-07-06T19:53:42.476Z</time>
      </trkpt>
      <trkpt lat="48.87543" lon="2.21788">
        <ele>157.9</ele>
        <time>2015-07-06T19:53:45.622Z</time>
      </trkpt>
      <trkpt lat="48.87544" lon="2.2179">
        <ele>157.8</ele>
        <time>2015-07-06T19:53:46.478Z</time>
      </trkpt>
      <trkpt lat="48.87552" lon="2.21789">
        <ele>158.8</ele>
        <time>2015-07-06T19:53:56.487Z</time>
      </trkpt>
      <trkpt lat="48.87555" lon="2.21788">
        <ele>158.8</ele>
        <time>2015-07-06T19:53:57.490Z</time>
      </trkpt>
      <trkpt lat="48.87562" lon="2.21784">
        <ele>158.6</ele>
        <time>2015-07-06T19:54:00.402Z</time>
      </trkpt>
      <trkpt lat="48.87564" lon="2.21783">
        <ele>158.6</ele>
        <time>2015-07-06T19:54:01.502Z</time>
      </trkpt>
      <trkpt lat="48.8757" lon="2.21778">
        <ele>158.1</ele>
        <time>2015-07-06T19:54:03.505Z</time>
      </trkpt>
      <trkpt lat="48.87573" lon="2.21776">
        <ele>158.2</ele>
        <time>2015-07-06T19:54:04.409Z</time>
      </trkpt>
      <trkpt lat="48.87578" lon="2.21772">
        <ele>158.3</ele>
        <time>2015-07-06T19:54:06.471Z</time>
      </trkpt>
      <trkpt lat="48.87581" lon="2.2177">
        <ele>158</ele>
        <time>2015-07-06T19:54:07.481Z</time>
      </trkpt>
      <trkpt lat="48.87587" lon="2.21765">
        <ele>157.8</ele>
        <time>2015-07-06T19:54:09.765Z</time>
      </trkpt>
      <trkpt lat="48.87591" lon="2.21763">
        <ele>157.6</ele>
        <time>2015-07-06T19:54:10.440Z</time>
      </trkpt>
      <trkpt lat="48.87597" lon="2.2176">
        <ele>158.5</ele>
        <time>2015-07-06T19:54:12.458Z</time>
      </trkpt>
      <trkpt lat="48.876" lon="2.21757">
        <ele>158.6</ele>
        <time>2015-07-06T19:54:13.466Z</time>
      </trkpt>
      <trkpt lat="48.87606" lon="2.21752">
        <ele>159.3</ele>
        <time>2015-07-06T19:54:15.493Z</time>
      </trkpt>
      <trkpt lat="48.87609" lon="2.2175">
        <ele>159.6</ele>
        <time>2015-07-06T19:54:16.509Z</time>
      </trkpt>
      <trkpt lat="48.87617" lon="2.21746">
        <ele>160.4</ele>
        <time>2015-07-06T19:54:18.910Z</time>
      </trkpt>
      <trkpt lat="48.87619" lon="2.21744">
        <ele>160.5</ele>
        <time>2015-07-06T19:54:19.518Z</time>
      </trkpt>
      <trkpt lat="48.87626" lon="2.2174">
        <ele>161</ele>
        <time>2015-07-06T19:54:21.500Z</time>
      </trkpt>
      <trkpt lat="48.8763" lon="2.21737">
        <ele>161.3</ele>
        <time>2015-07-06T19:54:22.409Z</time>
      </trkpt>
      <trkpt lat="48.87636" lon="2.21731">
        <ele>161.4</ele>
        <time>2015-07-06T19:54:24.443Z</time>
      </trkpt>
      <trkpt lat="48.8764" lon="2.21729">
        <ele>161.6</ele>
        <time>2015-07-06T19:54:25.456Z</time>
      </trkpt>
      <trkpt lat="48.87647" lon="2.21727">
        <ele>162.1</ele>
        <time>2015-07-06T19:54:27.421Z</time>
      </trkpt>
      <trkpt lat="48.8765" lon="2.21725">
        <ele>162.2</ele>
        <time>2015-07-06T19:54:28.479Z</time>
      </trkpt>
      <trkpt lat="48.87657" lon="2.21719">
        <ele>162.5</ele>
        <time>2015-07-06T19:54:30.422Z</time>
      </trkpt>
      <trkpt lat="48.87661" lon="2.21716">
        <ele>162.3</ele>
        <time>2015-07-06T19:54:31.530Z</time>
      </trkpt>
      <trkpt lat="48.87664" lon="2.21712">
        <ele>162.3</ele>
        <time>2015-07-06T19:54:32.443Z</time>
      </trkpt>
      <trkpt lat="48.87669" lon="2.21709">
        <ele>162.3</ele>
        <time>2015-07-06T19:54:33.453Z</time>
      </trkpt>
      <trkpt lat="48.87673" lon="2.21705">
        <ele>162.2</ele>
        <time>2015-07-06T19:54:34.459Z</time>
      </trkpt>
      <trkpt lat="48.87677" lon="2.217">
        <ele>162</ele>
        <time>2015-07-06T19:54:35.524Z</time>
      </trkpt>
      <trkpt lat="48.87681" lon="2.21695">
        <ele>161.8</ele>
        <time>2015-07-06T19:54:36.413Z</time>
      </trkpt>
      <trkpt lat="48.87685" lon="2.21691">
        <ele>162.1</ele>
        <time>2015-07-06T19:54:37.449Z</time>
      </trkpt>
      <trkpt lat="48.87689" lon="2.21686">
        <ele>162.2</ele>
        <time>2015-07-06T19:54:38.482Z</time>
      </trkpt>
      <trkpt lat="48.87694" lon="2.21683">
        <ele>162.1</ele>
        <time>2015-07-06T19:54:39.504Z</time>
      </trkpt>
      <trkpt lat="48.87698" lon="2.21678">
        <ele>161.9</ele>
        <time>2015-07-06T19:54:40.522Z</time>
      </trkpt>
      <trkpt lat="48.87704" lon="2.21674">
        <ele>161.8</ele>
        <time>2015-07-06T19:54:41.528Z</time>
      </trkpt>
      <trkpt lat="48.87709" lon="2.21669">
        <ele>161.9</ele>
        <time>2015-07-06T19:54:42.469Z</time>
      </trkpt>
      <trkpt lat="48.87714" lon="2.21664">
        <ele>161.8</ele>
        <time>2015-07-06T19:54:43.469Z</time>
      </trkpt>
      <trkpt lat="48.87719" lon="2.21659">
        <ele>161.8</ele>
        <time>2015-07-06T19:54:44.497Z</time>
      </trkpt>
      <trkpt lat="48.87724" lon="2.21654">
        <ele>161.6</ele>
        <time>2015-07-06T19:54:45.406Z</time>
      </trkpt>
      <trkpt lat="48.87728" lon="2.21647">
        <ele>161.6</ele>
        <time>2015-07-06T19:54:46.426Z</time>
      </trkpt>
      <trkpt lat="48.87732" lon="2.21641">
        <ele>161.4</ele>
        <time>2015-07-06T19:54:47.429Z</time>
      </trkpt>
      <trkpt lat="48.87736" lon="2.21634">
        <ele>161.3</ele>
        <time>2015-07-06T19:54:48.442Z</time>
      </trkpt>
      <trkpt lat="48.8774" lon="2.21628">
        <ele>161</ele>
        <time>2015-07-06T19:54:49.484Z</time>
      </trkpt>
      <trkpt lat="48.87745" lon="2.21623">
        <ele>160.9</ele>
        <time>2015-07-06T19:54:50.489Z</time>
      </trkpt>
      <trkpt lat="48.87749" lon="2.21619">
        <ele>160.9</ele>
        <time>2015-07-06T19:54:51.489Z</time>
      </trkpt>
      <trkpt lat="48.87755" lon="2.21616">
        <ele>160.8</ele>
        <time>2015-07-06T19:54:52.417Z</time>
      </trkpt>
      <trkpt lat="48.8776" lon="2.21612">
        <ele>160.7</ele>
        <time>2015-07-06T19:54:53.447Z</time>
      </trkpt>
      <trkpt lat="48.87764" lon="2.21611">
        <ele>160.3</ele>
        <time>2015-07-06T19:54:54.435Z</time>
      </trkpt>
      <trkpt lat="48.87769" lon="2.2161">
        <ele>160.1</ele>
        <time>2015-07-06T19:54:55.470Z</time>
      </trkpt>
      <trkpt lat="48.87774" lon="2.21611">
        <ele>160.1</ele>
        <time>2015-07-06T19:54:56.599Z</time>
      </trkpt>
      <trkpt lat="48.87781" lon="2.21616">
        <ele>159</ele>
        <time>2015-07-06T19:54:57.987Z</time>
      </trkpt>
      <trkpt lat="48.87785" lon="2.21618">
        <ele>158.9</ele>
        <time>2015-07-06T19:54:58.982Z</time>
      </trkpt>
      <trkpt lat="48.8779" lon="2.2162">
        <ele>158.9</ele>
        <time>2015-07-06T19:55:00.034Z</time>
      </trkpt>
      <trkpt lat="48.87797" lon="2.21626">
        <ele>158.2</ele>
        <time>2015-07-06T19:55:02.066Z</time>
      </trkpt>
      <trkpt lat="48.878" lon="2.21629">
        <ele>157.7</ele>
        <time>2015-07-06T19:55:03.079Z</time>
      </trkpt>
      <trkpt lat="48.87806" lon="2.21637">
        <ele>156.4</ele>
        <time>2015-07-06T19:55:05.048Z</time>
      </trkpt>
      <trkpt lat="48.87808" lon="2.21641">
        <ele>156</ele>
        <time>2015-07-06T19:55:06.150Z</time>
      </trkpt>
      <trkpt lat="48.87814" lon="2.21648">
        <ele>154.4</ele>
        <time>2015-07-06T19:55:08.124Z</time>
      </trkpt>
      <trkpt lat="48.87816" lon="2.21652">
        <ele>154</ele>
        <time>2015-07-06T19:55:09.003Z</time>
      </trkpt>
      <trkpt lat="48.87822" lon="2.2166">
        <ele>153.4</ele>
        <time>2015-07-06T19:55:11.024Z</time>
      </trkpt>
      <trkpt lat="48.87824" lon="2.21664">
        <ele>152.8</ele>
        <time>2015-07-06T19:55:12.046Z</time>
      </trkpt>
      <trkpt lat="48.8783" lon="2.21671">
        <ele>152.5</ele>
        <time>2015-07-06T19:55:14.123Z</time>
      </trkpt>
      <trkpt lat="48.87832" lon="2.21675">
        <ele>152.1</ele>
        <time>2015-07-06T19:55:15.478Z</time>
      </trkpt>
      <trkpt lat="48.87836" lon="2.21682">
        <ele>151.4</ele>
        <time>2015-07-06T19:55:17.026Z</time>
      </trkpt>
      <trkpt lat="48.87838" lon="2.21685">
        <ele>151.4</ele>
        <time>2015-07-06T19:55:18.033Z</time>
      </trkpt>
      <trkpt lat="48.87842" lon="2.21689">
        <ele>150.9</ele>
        <time>2015-07-06T19:55:20.090Z</time>
      </trkpt>
      <trkpt lat="48.87841" lon="2.21689">
        <ele>150.5</ele>
        <time>2015-07-06T19:55:21.078Z</time>
      </trkpt>
      <trkpt lat="48.87841" lon="2.21689">
        <ele>150.1</ele>
        <time>2015-07-06T19:56:00.195Z</time>
      </trkpt>
      <trkpt lat="48.8784" lon="2.21692">
        <ele>148.8</ele>
        <time>2015-07-06T19:56:01.004Z</time>
      </trkpt>
      <trkpt lat="48.87844" lon="2.21701">
        <ele>148.3</ele>
        <time>2015-07-06T19:56:04.072Z</time>
      </trkpt>
      <trkpt lat="48.87846" lon="2.21704">
        <ele>147.9</ele>
        <time>2015-07-06T19:56:05.041Z</time>
      </trkpt>
      <trkpt lat="48.87851" lon="2.21714">
        <ele>147.2</ele>
        <time>2015-07-06T19:56:07.016Z</time>
      </trkpt>
      <trkpt lat="48.87854" lon="2.2172">
        <ele>147.2</ele>
        <time>2015-07-06T19:56:08.083Z</time>
      </trkpt>
      <trkpt lat="48.87857" lon="2.21725">
        <ele>146.7</ele>
        <time>2015-07-06T19:56:09.004Z</time>
      </trkpt>
      <trkpt lat="48.8786" lon="2.21731">
        <ele>146.4</ele>
        <time>2015-07-06T19:56:10.006Z</time>
      </trkpt>
      <trkpt lat="48.87864" lon="2.21737">
        <ele>146.1</ele>
        <time>2015-07-06T19:56:11.020Z</time>
      </trkpt>
      <trkpt lat="48.87868" lon="2.21744">
        <ele>146</ele>
        <time>2015-07-06T19:56:12.030Z</time>
      </trkpt>
      <trkpt lat="48.87872" lon="2.21751">
        <ele>145.6</ele>
        <time>2015-07-06T19:56:13.065Z</time>
      </trkpt>
      <trkpt lat="48.87878" lon="2.21758">
        <ele>145</ele>
        <time>2015-07-06T19:56:14.075Z</time>
      </trkpt>
      <trkpt lat="48.87883" lon="2.21765">
        <ele>144.9</ele>
        <time>2015-07-06T19:56:15.003Z</time>
      </trkpt>
      <trkpt lat="48.87888" lon="2.21772">
        <ele>145</ele>
        <time>2015-07-06T19:56:16.006Z</time>
      </trkpt>
      <trkpt lat="48.87893" lon="2.21779">
        <ele>144.7</ele>
        <time>2015-07-06T19:56:17.011Z</time>
      </trkpt>
      <trkpt lat="48.87898" lon="2.21785">
        <ele>144.8</ele>
        <time>2015-07-06T19:56:18.032Z</time>
      </trkpt>
      <trkpt lat="48.87902" lon="2.21792">
        <ele>145.1</ele>
        <time>2015-07-06T19:56:19.034Z</time>
      </trkpt>
      <trkpt lat="48.87907" lon="2.21799">
        <ele>144.9</ele>
        <time>2015-07-06T19:56:20.098Z</time>
      </trkpt>
      <trkpt lat="48.87912" lon="2.21807">
        <ele>144.8</ele>
        <time>2015-07-06T19:56:21.058Z</time>
      </trkpt>
      <trkpt lat="48.87917" lon="2.21813">
        <ele>144.7</ele>
        <time>2015-07-06T19:56:22.070Z</time>
      </trkpt>
      <trkpt lat="48.87922" lon="2.2182">
        <ele>144.7</ele>
        <time>2015-07-06T19:56:23.131Z</time>
      </trkpt>
      <trkpt lat="48.87927" lon="2.21826">
        <ele>144.7</ele>
        <time>2015-07-06T19:56:24.005Z</time>
      </trkpt>
      <trkpt lat="48.87933" lon="2.21831">
        <ele>144.9</ele>
        <time>2015-07-06T19:56:25.012Z</time>
      </trkpt>
      <trkpt lat="48.87939" lon="2.21837">
        <ele>144.8</ele>
        <time>2015-07-06T19:56:26.165Z</time>
      </trkpt>
      <trkpt lat="48.87944" lon="2.21842">
        <ele>144.6</ele>
        <time>2015-07-06T19:56:27.037Z</time>
      </trkpt>
      <trkpt lat="48.87948" lon="2.21848">
        <ele>144.3</ele>
        <time>2015-07-06T19:56:28.047Z</time>
      </trkpt>
      <trkpt lat="48.87951" lon="2.21854">
        <ele>144.1</ele>
        <time>2015-07-06T19:56:29.060Z</time>
      </trkpt>
      <trkpt lat="48.87955" lon="2.21859">
        <ele>144.1</ele>
        <time>2015-07-06T19:56:30.072Z</time>
      </trkpt>
      <trkpt lat="48.87959" lon="2.21864">
        <ele>144</ele>
        <time>2015-07-06T19:56:31.088Z</time>
      </trkpt>
      <trkpt lat="48.87963" lon="2.21869">
        <ele>143.9</ele>
        <time>2015-07-06T19:56:32.089Z</time>
      </trkpt>
      <trkpt lat="48.87968" lon="2.21874">
        <ele>143.1</ele>
        <time>2015-07-06T19:56:33.003Z</time>
      </trkpt>
      <trkpt lat="48.87971" lon="2.21878">
        <ele>143.2</ele>
        <time>2015-07-06T19:56:34.022Z</time>
      </trkpt>
      <trkpt lat="48.87976" lon="2.21888">
        <ele>143.2</ele>
        <time>2015-07-06T19:56:36.028Z</time>
      </trkpt>
      <trkpt lat="48.87977" lon="2.21894">
        <ele>143.1</ele>
        <time>2015-07-06T19:56:37.042Z</time>
      </trkpt>
      <trkpt lat="48.87978" lon="2.21906">
        <ele>143.5</ele>
        <time>2015-07-06T19:56:39.009Z</time>
      </trkpt>
      <trkpt lat="48.87979" lon="2.21912">
        <ele>143.6</ele>
        <time>2015-07-06T19:56:40.035Z</time>
      </trkpt>
      <trkpt lat="48.87979" lon="2.21919">
        <ele>143.8</ele>
        <time>2015-07-06T19:56:41.086Z</time>
      </trkpt>
      <trkpt lat="48.87979" lon="2.21927">
        <ele>144.2</ele>
        <time>2015-07-06T19:56:42.002Z</time>
      </trkpt>
      <trkpt lat="48.8798" lon="2.21934">
        <ele>144.1</ele>
        <time>2015-07-06T19:56:43.004Z</time>
      </trkpt>
      <trkpt lat="48.8798" lon="2.21942">
        <ele>144.2</ele>
        <time>2015-07-06T19:56:44.048Z</time>
      </trkpt>
      <trkpt lat="48.8798" lon="2.2195">
        <ele>144.5</ele>
        <time>2015-07-06T19:56:45.051Z</time>
      </trkpt>
      <trkpt lat="48.8798" lon="2.21958">
        <ele>144.4</ele>
        <time>2015-07-06T19:56:46.060Z</time>
      </trkpt>
      <trkpt lat="48.8798" lon="2.21967">
        <ele>144.6</ele>
        <time>2015-07-06T19:56:47.076Z</time>
      </trkpt>
      <trkpt lat="48.8798" lon="2.21975">
        <ele>144.7</ele>
        <time>2015-07-06T19:56:48.085Z</time>
      </trkpt>
      <trkpt lat="48.8798" lon="2.21984">
        <ele>144.6</ele>
        <time>2015-07-06T19:56:49.010Z</time>
      </trkpt>
      <trkpt lat="48.87981" lon="2.21992">
        <ele>144.7</ele>
        <time>2015-07-06T19:56:50.022Z</time>
      </trkpt>
      <trkpt lat="48.87982" lon="2.22001">
        <ele>144.7</ele>
        <time>2015-07-06T19:56:50.972Z</time>
      </trkpt>
      <trkpt lat="48.87982" lon="2.22008">
        <ele>144.7</ele>
        <time>2015-07-06T19:56:52.004Z</time>
      </trkpt>
      <trkpt lat="48.87983" lon="2.22016">
        <ele>144.6</ele>
        <time>2015-07-06T19:56:53.025Z</time>
      </trkpt>
      <trkpt lat="48.87983" lon="2.22025">
        <ele>144.5</ele>
        <time>2015-07-06T19:56:54.038Z</time>
      </trkpt>
      <trkpt lat="48.87983" lon="2.22034">
        <ele>144.1</ele>
        <time>2015-07-06T19:56:55.045Z</time>
      </trkpt>
      <trkpt lat="48.87983" lon="2.22043">
        <ele>144.1</ele>
        <time>2015-07-06T19:56:56.054Z</time>
      </trkpt>
      <trkpt lat="48.87985" lon="2.22051">
        <ele>144</ele>
        <time>2015-07-06T19:56:57.055Z</time>
      </trkpt>
      <trkpt lat="48.87986" lon="2.22059">
        <ele>144.1</ele>
        <time>2015-07-06T19:56:58.062Z</time>
      </trkpt>
      <trkpt lat="48.87987" lon="2.22067">
        <ele>144.2</ele>
        <time>2015-07-06T19:56:59.086Z</time>
      </trkpt>
      <trkpt lat="48.87989" lon="2.22075">
        <ele>143.9</ele>
        <time>2015-07-06T19:57:00.106Z</time>
      </trkpt>
      <trkpt lat="48.8799" lon="2.22084">
        <ele>143.8</ele>
        <time>2015-07-06T19:57:00.997Z</time>
      </trkpt>
      <trkpt lat="48.87991" lon="2.22093">
        <ele>143.4</ele>
        <time>2015-07-06T19:57:02.084Z</time>
      </trkpt>
      <trkpt lat="48.87992" lon="2.22101">
        <ele>143.2</ele>
        <time>2015-07-06T19:57:02.990Z</time>
      </trkpt>
      <trkpt lat="48.87994" lon="2.22109">
        <ele>143.3</ele>
        <time>2015-07-06T19:57:03.998Z</time>
      </trkpt>
      <trkpt lat="48.87995" lon="2.22116">
        <ele>143.1</ele>
        <time>2015-07-06T19:57:05.008Z</time>
      </trkpt>
      <trkpt lat="48.87996" lon="2.22124">
        <ele>142.6</ele>
        <time>2015-07-06T19:57:06.018Z</time>
      </trkpt>
      <trkpt lat="48.87997" lon="2.22132">
        <ele>142.3</ele>
        <time>2015-07-06T19:57:07.029Z</time>
      </trkpt>
      <trkpt lat="48.87999" lon="2.2214">
        <ele>141.9</ele>
        <time>2015-07-06T19:57:08.051Z</time>
      </trkpt>
      <trkpt lat="48.88" lon="2.22149">
        <ele>142.1</ele>
        <time>2015-07-06T19:57:09.045Z</time>
      </trkpt>
      <trkpt lat="48.88003" lon="2.22159">
        <ele>142.2</ele>
        <time>2015-07-06T19:57:10.049Z</time>
      </trkpt>
      <trkpt lat="48.88005" lon="2.22168">
        <ele>142.1</ele>
        <time>2015-07-06T19:57:11.055Z</time>
      </trkpt>
      <trkpt lat="48.88006" lon="2.22177">
        <ele>142</ele>
        <time>2015-07-06T19:57:12.059Z</time>
      </trkpt>
      <trkpt lat="48.88007" lon="2.22186">
        <ele>141.8</ele>
        <time>2015-07-06T19:57:13.107Z</time>
      </trkpt>
      <trkpt lat="48.88009" lon="2.22195">
        <ele>142.3</ele>
        <time>2015-07-06T19:57:14.111Z</time>
      </trkpt>
      <trkpt lat="48.88011" lon="2.22205">
        <ele>142.5</ele>
        <time>2015-07-06T19:57:14.989Z</time>
      </trkpt>
      <trkpt lat="48.88014" lon="2.22214">
        <ele>142.7</ele>
        <time>2015-07-06T19:57:16.001Z</time>
      </trkpt>
      <trkpt lat="48.88017" lon="2.22224">
        <ele>142.6</ele>
        <time>2015-07-06T19:57:17.008Z</time>
      </trkpt>
      <trkpt lat="48.88019" lon="2.22232">
        <ele>142.4</ele>
        <time>2015-07-06T19:57:18.025Z</time>
      </trkpt>
      <trkpt lat="48.88021" lon="2.2224">
        <ele>142.5</ele>
        <time>2015-07-06T19:57:19.026Z</time>
      </trkpt>
      <trkpt lat="48.88023" lon="2.22247">
        <ele>142.6</ele>
        <time>2015-07-06T19:57:20.057Z</time>
      </trkpt>
      <trkpt lat="48.88025" lon="2.2226">
        <ele>141.8</ele>
        <time>2015-07-06T19:57:22.066Z</time>
      </trkpt>
      <trkpt lat="48.88025" lon="2.22266">
        <ele>141.8</ele>
        <time>2015-07-06T19:57:23.075Z</time>
      </trkpt>
      <trkpt lat="48.88025" lon="2.22273">
        <ele>141.3</ele>
        <time>2015-07-06T19:57:24.018Z</time>
      </trkpt>
      <trkpt lat="48.88026" lon="2.2228">
        <ele>141.1</ele>
        <time>2015-07-06T19:57:25.011Z</time>
      </trkpt>
      <trkpt lat="48.88026" lon="2.22287">
        <ele>140.5</ele>
        <time>2015-07-06T19:57:26.077Z</time>
      </trkpt>
      <trkpt lat="48.88026" lon="2.22295">
        <ele>140.4</ele>
        <time>2015-07-06T19:57:27.152Z</time>
      </trkpt>
      <trkpt lat="48.88025" lon="2.22303">
        <ele>140</ele>
        <time>2015-07-06T19:57:28.008Z</time>
      </trkpt>
      <trkpt lat="48.88025" lon="2.22311">
        <ele>139.8</ele>
        <time>2015-07-06T19:57:29.016Z</time>
      </trkpt>
      <trkpt lat="48.88025" lon="2.2232">
        <ele>140.2</ele>
        <time>2015-07-06T19:57:30.027Z</time>
      </trkpt>
      <trkpt lat="48.88025" lon="2.22327">
        <ele>140.5</ele>
        <time>2015-07-06T19:57:31.041Z</time>
      </trkpt>
      <trkpt lat="48.88025" lon="2.22341">
        <ele>140.5</ele>
        <time>2015-07-06T19:57:33.007Z</time>
      </trkpt>
      <trkpt lat="48.88026" lon="2.22347">
        <ele>140.6</ele>
        <time>2015-07-06T19:57:34.025Z</time>
      </trkpt>
      <trkpt lat="48.88027" lon="2.22355">
        <ele>140.4</ele>
        <time>2015-07-06T19:57:35.053Z</time>
      </trkpt>
      <trkpt lat="48.88028" lon="2.22362">
        <ele>140.4</ele>
        <time>2015-07-06T19:57:36.062Z</time>
      </trkpt>
      <trkpt lat="48.88028" lon="2.2237">
        <ele>140.6</ele>
        <time>2015-07-06T19:57:37.070Z</time>
      </trkpt>
      <trkpt lat="48.8803" lon="2.22379">
        <ele>140.7</ele>
        <time>2015-07-06T19:57:38.084Z</time>
      </trkpt>
      <trkpt lat="48.88031" lon="2.22387">
        <ele>141.1</ele>
        <time>2015-07-06T19:57:38.999Z</time>
      </trkpt>
      <trkpt lat="48.88033" lon="2.22395">
        <ele>141.3</ele>
        <time>2015-07-06T19:57:40.006Z</time>
      </trkpt>
      <trkpt lat="48.88034" lon="2.22403">
        <ele>141.6</ele>
        <time>2015-07-06T19:57:41.026Z</time>
      </trkpt>
      <trkpt lat="48.88035" lon="2.22411">
        <ele>141.7</ele>
        <time>2015-07-06T19:57:42.068Z</time>
      </trkpt>
      <trkpt lat="48.88036" lon="2.22419">
        <ele>141.5</ele>
        <time>2015-07-06T19:57:43.016Z</time>
      </trkpt>
      <trkpt lat="48.88036" lon="2.22427">
        <ele>141</ele>
        <time>2015-07-06T19:57:44.046Z</time>
      </trkpt>
      <trkpt lat="48.88036" lon="2.22435">
        <ele>140.9</ele>
        <time>2015-07-06T19:57:45.062Z</time>
      </trkpt>
      <trkpt lat="48.88037" lon="2.22442">
        <ele>140.7</ele>
        <time>2015-07-06T19:57:46.074Z</time>
      </trkpt>
      <trkpt lat="48.88037" lon="2.2245">
        <ele>140.1</ele>
        <time>2015-07-06T19:57:47.095Z</time>
      </trkpt>
      <trkpt lat="48.88038" lon="2.22458">
        <ele>139.8</ele>
        <time>2015-07-06T19:57:47.999Z</time>
      </trkpt>
      <trkpt lat="48.8804" lon="2.22466">
        <ele>139.8</ele>
        <time>2015-07-06T19:57:49.180Z</time>
      </trkpt>
      <trkpt lat="48.88042" lon="2.22474">
        <ele>139.7</ele>
        <time>2015-07-06T19:57:50.073Z</time>
      </trkpt>
      <trkpt lat="48.88045" lon="2.22482">
        <ele>139.6</ele>
        <time>2015-07-06T19:57:51.091Z</time>
      </trkpt>
      <trkpt lat="48.88047" lon="2.2249">
        <ele>139.4</ele>
        <time>2015-07-06T19:57:51.973Z</time>
      </trkpt>
      <trkpt lat="48.8805" lon="2.225">
        <ele>139.6</ele>
        <time>2015-07-06T19:57:53.034Z</time>
      </trkpt>
      <trkpt lat="48.88052" lon="2.22508">
        <ele>139.4</ele>
        <time>2015-07-06T19:57:54.038Z</time>
      </trkpt>
      <trkpt lat="48.88055" lon="2.22516">
        <ele>138.4</ele>
        <time>2015-07-06T19:57:55.051Z</time>
      </trkpt>
      <trkpt lat="48.88058" lon="2.22524">
        <ele>138.2</ele>
        <time>2015-07-06T19:57:56.056Z</time>
      </trkpt>
      <trkpt lat="48.8806" lon="2.22532">
        <ele>138.3</ele>
        <time>2015-07-06T19:57:57.079Z</time>
      </trkpt>
      <trkpt lat="48.88062" lon="2.22539">
        <ele>138.3</ele>
        <time>2015-07-06T19:57:57.976Z</time>
      </trkpt>
      <trkpt lat="48.88064" lon="2.22546">
        <ele>138.2</ele>
        <time>2015-07-06T19:57:59.076Z</time>
      </trkpt>
      <trkpt lat="48.88066" lon="2.22552">
        <ele>138.1</ele>
        <time>2015-07-06T19:57:59.972Z</time>
      </trkpt>
      <trkpt lat="48.8807" lon="2.22563">
        <ele>137.4</ele>
        <time>2015-07-06T19:58:02.049Z</time>
      </trkpt>
      <trkpt lat="48.88071" lon="2.22569">
        <ele>137</ele>
        <time>2015-07-06T19:58:03.043Z</time>
      </trkpt>
      <trkpt lat="48.88075" lon="2.22581">
        <ele>136.7</ele>
        <time>2015-07-06T19:58:05.059Z</time>
      </trkpt>
      <trkpt lat="48.88077" lon="2.22585">
        <ele>136.4</ele>
        <time>2015-07-06T19:58:06.060Z</time>
      </trkpt>
      <trkpt lat="48.88082" lon="2.22594">
        <ele>135.8</ele>
        <time>2015-07-06T19:58:08.025Z</time>
      </trkpt>
      <trkpt lat="48.88083" lon="2.226">
        <ele>135.8</ele>
        <time>2015-07-06T19:58:09.041Z</time>
      </trkpt>
      <trkpt lat="48.88084" lon="2.22607">
        <ele>136</ele>
        <time>2015-07-06T19:58:10.043Z</time>
      </trkpt>
      <trkpt lat="48.88084" lon="2.22614">
        <ele>136.3</ele>
        <time>2015-07-06T19:58:11.060Z</time>
      </trkpt>
      <trkpt lat="48.88085" lon="2.22623">
        <ele>137.7</ele>
        <time>2015-07-06T19:58:12.046Z</time>
      </trkpt>
      <trkpt lat="48.88084" lon="2.22631">
        <ele>138.3</ele>
        <time>2015-07-06T19:58:13.055Z</time>
      </trkpt>
      <trkpt lat="48.88084" lon="2.22638">
        <ele>138.5</ele>
        <time>2015-07-06T19:58:14.063Z</time>
      </trkpt>
      <trkpt lat="48.88084" lon="2.22645">
        <ele>138.3</ele>
        <time>2015-07-06T19:58:15.074Z</time>
      </trkpt>
      <trkpt lat="48.88085" lon="2.22656">
        <ele>136.9</ele>
        <time>2015-07-06T19:58:17.121Z</time>
      </trkpt>
      <trkpt lat="48.88086" lon="2.22662">
        <ele>136.4</ele>
        <time>2015-07-06T19:58:18.003Z</time>
      </trkpt>
      <trkpt lat="48.88089" lon="2.22673">
        <ele>135.6</ele>
        <time>2015-07-06T19:58:20.025Z</time>
      </trkpt>
      <trkpt lat="48.8809" lon="2.22678">
        <ele>135.3</ele>
        <time>2015-07-06T19:58:21.051Z</time>
      </trkpt>
      <trkpt lat="48.88092" lon="2.22689">
        <ele>134.7</ele>
        <time>2015-07-06T19:58:23.001Z</time>
      </trkpt>
      <trkpt lat="48.88093" lon="2.22695">
        <ele>134.1</ele>
        <time>2015-07-06T19:58:24.030Z</time>
      </trkpt>
      <trkpt lat="48.88097" lon="2.22704">
        <ele>133</ele>
        <time>2015-07-06T19:58:26.046Z</time>
      </trkpt>
      <trkpt lat="48.88099" lon="2.22708">
        <ele>132.4</ele>
        <time>2015-07-06T19:58:27.038Z</time>
      </trkpt>
      <trkpt lat="48.88098" lon="2.22719">
        <ele>130.4</ele>
        <time>2015-07-06T20:00:26.100Z</time>
      </trkpt>
      <trkpt lat="48.88102" lon="2.22723">
        <ele>123.5</ele>
        <time>2015-07-06T20:00:27.033Z</time>
      </trkpt>
      <trkpt lat="48.88098" lon="2.22734">
        <ele>122.2</ele>
        <time>2015-07-06T20:00:30.030Z</time>
      </trkpt>
      <trkpt lat="48.88098" lon="2.22738">
        <ele>121.9</ele>
        <time>2015-07-06T20:00:31.134Z</time>
      </trkpt>
      <trkpt lat="48.88094" lon="2.22749">
        <ele>120.8</ele>
        <time>2015-07-06T20:00:34.297Z</time>
      </trkpt>
      <trkpt lat="48.88093" lon="2.22753">
        <ele>120.4</ele>
        <time>2015-07-06T20:00:35.009Z</time>
      </trkpt>
      <trkpt lat="48.88089" lon="2.22763">
        <ele>119.9</ele>
        <time>2015-07-06T20:00:37.033Z</time>
      </trkpt>
      <trkpt lat="48.88088" lon="2.22769">
        <ele>119.7</ele>
        <time>2015-07-06T20:00:38.047Z</time>
      </trkpt>
      <trkpt lat="48.88085" lon="2.22779">
        <ele>119.5</ele>
        <time>2015-07-06T20:00:40.077Z</time>
      </trkpt>
      <trkpt lat="48.88084" lon="2.22784">
        <ele>119.3</ele>
        <time>2015-07-06T20:00:41Z</time>
      </trkpt>
      <trkpt lat="48.88081" lon="2.22794">
        <ele>119</ele>
        <time>2015-07-06T20:00:43.048Z</time>
      </trkpt>
      <trkpt lat="48.88079" lon="2.22799">
        <ele>118.9</ele>
        <time>2015-07-06T20:00:44.069Z</time>
      </trkpt>
      <trkpt lat="48.88077" lon="2.22808">
        <ele>118.5</ele>
        <time>2015-07-06T20:00:46.024Z</time>
      </trkpt>
      <trkpt lat="48.88076" lon="2.22813">
        <ele>118.3</ele>
        <time>2015-07-06T20:00:47.128Z</time>
      </trkpt>
      <trkpt lat="48.88074" lon="2.22822">
        <ele>118.1</ele>
        <time>2015-07-06T20:00:48.998Z</time>
      </trkpt>
      <trkpt lat="48.88073" lon="2.22827">
        <ele>118</ele>
        <time>2015-07-06T20:00:50.015Z</time>
      </trkpt>
      <trkpt lat="48.8807" lon="2.22838">
        <ele>117.8</ele>
        <time>2015-07-06T20:00:52.037Z</time>
      </trkpt>
      <trkpt lat="48.88068" lon="2.22844">
        <ele>117.6</ele>
        <time>2015-07-06T20:00:53.042Z</time>
      </trkpt>
      <trkpt lat="48.88065" lon="2.22856">
        <ele>116.8</ele>
        <time>2015-07-06T20:00:55.084Z</time>
      </trkpt>
      <trkpt lat="48.88064" lon="2.22861">
        <ele>116.5</ele>
        <time>2015-07-06T20:00:56.093Z</time>
      </trkpt>
      <trkpt lat="48.88062" lon="2.22872">
        <ele>115.8</ele>
        <time>2015-07-06T20:00:58.166Z</time>
      </trkpt>
      <trkpt lat="48.88061" lon="2.22877">
        <ele>115.4</ele>
        <time>2015-07-06T20:00:59.042Z</time>
      </trkpt>
      <trkpt lat="48.88058" lon="2.22886">
        <ele>115</ele>
        <time>2015-07-06T20:01:01.042Z</time>
      </trkpt>
      <trkpt lat="48.88057" lon="2.22891">
        <ele>114.8</ele>
        <time>2015-07-06T20:01:02.056Z</time>
      </trkpt>
      <trkpt lat="48.88055" lon="2.229">
        <ele>114.5</ele>
        <time>2015-07-06T20:01:04.076Z</time>
      </trkpt>
      <trkpt lat="48.88054" lon="2.22906">
        <ele>114.5</ele>
        <time>2015-07-06T20:01:05.090Z</time>
      </trkpt>
      <trkpt lat="48.88051" lon="2.22917">
        <ele>114.5</ele>
        <time>2015-07-06T20:01:07.032Z</time>
      </trkpt>
      <trkpt lat="48.88049" lon="2.22922">
        <ele>114.5</ele>
        <time>2015-07-06T20:01:08.141Z</time>
      </trkpt>
      <trkpt lat="48.88046" lon="2.22934">
        <ele>114.1</ele>
        <time>2015-07-06T20:01:11.128Z</time>
      </trkpt>
      <trkpt lat="48.88044" lon="2.2294">
        <ele>114.2</ele>
        <time>2015-07-06T20:01:12.030Z</time>
      </trkpt>
      <trkpt lat="48.8804" lon="2.22951">
        <ele>114.1</ele>
        <time>2015-07-06T20:01:14.068Z</time>
      </trkpt>
      <trkpt lat="48.88039" lon="2.22957">
        <ele>114.1</ele>
        <time>2015-07-06T20:01:15.080Z</time>
      </trkpt>
      <trkpt lat="48.88036" lon="2.22967">
        <ele>113.4</ele>
        <time>2015-07-06T20:01:17.013Z</time>
      </trkpt>
      <trkpt lat="48.88035" lon="2.22971">
        <ele>113.1</ele>
        <time>2015-07-06T20:01:18.027Z</time>
      </trkpt>
      <trkpt lat="48.88032" lon="2.2298">
        <ele>112.9</ele>
        <time>2015-07-06T20:01:20.066Z</time>
      </trkpt>
      <trkpt lat="48.88029" lon="2.22985">
        <ele>112.3</ele>
        <time>2015-07-06T20:01:20.971Z</time>
      </trkpt>
      <trkpt lat="48.88026" lon="2.2299">
        <ele>111.9</ele>
        <time>2015-07-06T20:01:22Z</time>
      </trkpt>
      <trkpt lat="48.88023" lon="2.22994">
        <ele>111</ele>
        <time>2015-07-06T20:01:23.030Z</time>
      </trkpt>
      <trkpt lat="48.88018" lon="2.22998">
        <ele>110.7</ele>
        <time>2015-07-06T20:01:25.054Z</time>
      </trkpt>
      <trkpt lat="48.88014" lon="2.23001">
        <ele>110.8</ele>
        <time>2015-07-06T20:01:26.065Z</time>
      </trkpt>
      <trkpt lat="48.88011" lon="2.23007">
        <ele>110.8</ele>
        <time>2015-07-06T20:01:27.008Z</time>
      </trkpt>
      <trkpt lat="48.88008" lon="2.23012">
        <ele>110.8</ele>
        <time>2015-07-06T20:01:28.006Z</time>
      </trkpt>
      <trkpt lat="48.88006" lon="2.23018">
        <ele>110.8</ele>
        <time>2015-07-06T20:01:29.021Z</time>
      </trkpt>
      <trkpt lat="48.88005" lon="2.23026">
        <ele>110.6</ele>
        <time>2015-07-06T20:01:30.032Z</time>
      </trkpt>
      <trkpt lat="48.88003" lon="2.23032">
        <ele>110.7</ele>
        <time>2015-07-06T20:01:31.034Z</time>
      </trkpt>
      <trkpt lat="48.88002" lon="2.2304">
        <ele>110.9</ele>
        <time>2015-07-06T20:01:32.056Z</time>
      </trkpt>
      <trkpt lat="48.88" lon="2.23047">
        <ele>111</ele>
        <time>2015-07-06T20:01:33.060Z</time>
      </trkpt>
      <trkpt lat="48.87999" lon="2.23056">
        <ele>111.1</ele>
        <time>2015-07-06T20:01:34.072Z</time>
      </trkpt>
      <trkpt lat="48.87998" lon="2.23064">
        <ele>111.3</ele>
        <time>2015-07-06T20:01:35.093Z</time>
      </trkpt>
      <trkpt lat="48.87998" lon="2.23072">
        <ele>111.3</ele>
        <time>2015-07-06T20:01:36.007Z</time>
      </trkpt>
      <trkpt lat="48.87998" lon="2.23079">
        <ele>111.1</ele>
        <time>2015-07-06T20:01:36.991Z</time>
      </trkpt>
      <trkpt lat="48.87999" lon="2.23086">
        <ele>111.1</ele>
        <time>2015-07-06T20:01:38.036Z</time>
      </trkpt>
      <trkpt lat="48.88" lon="2.23099">
        <ele>110.7</ele>
        <time>2015-07-06T20:01:40.028Z</time>
      </trkpt>
      <trkpt lat="48.88" lon="2.23106">
        <ele>110.7</ele>
        <time>2015-07-06T20:01:41.241Z</time>
      </trkpt>
      <trkpt lat="48.88" lon="2.23118">
        <ele>110.7</ele>
        <time>2015-07-06T20:01:43.084Z</time>
      </trkpt>
      <trkpt lat="48.88001" lon="2.23123">
        <ele>110.7</ele>
        <time>2015-07-06T20:01:44.140Z</time>
      </trkpt>
      <trkpt lat="48.88002" lon="2.23133">
        <ele>111</ele>
        <time>2015-07-06T20:01:46Z</time>
      </trkpt>
      <trkpt lat="48.88002" lon="2.23137">
        <ele>111</ele>
        <time>2015-07-06T20:01:47.054Z</time>
      </trkpt>
      <trkpt lat="48.88001" lon="2.23148">
        <ele>110</ele>
        <time>2015-07-06T20:01:50.085Z</time>
      </trkpt>
      <trkpt lat="48.88" lon="2.23151">
        <ele>110.1</ele>
        <time>2015-07-06T20:01:51.091Z</time>
      </trkpt>
      <trkpt lat="48.87997" lon="2.23162">
        <ele>105.2</ele>
        <time>2015-07-06T20:04:40.026Z</time>
      </trkpt>
      <trkpt lat="48.87997" lon="2.23166">
        <ele>105.2</ele>
        <time>2015-07-06T20:04:41.113Z</time>
      </trkpt>
      <trkpt lat="48.87996" lon="2.23176">
        <ele>104.7</ele>
        <time>2015-07-06T20:04:42.995Z</time>
      </trkpt>
      <trkpt lat="48.87994" lon="2.23182">
        <ele>104.5</ele>
        <time>2015-07-06T20:04:44.077Z</time>
      </trkpt>
      <trkpt lat="48.87992" lon="2.23195">
        <ele>103.8</ele>
        <time>2015-07-06T20:04:46.006Z</time>
      </trkpt>
      <trkpt lat="48.87991" lon="2.23203">
        <ele>103.3</ele>
        <time>2015-07-06T20:04:47.030Z</time>
      </trkpt>
      <trkpt lat="48.87991" lon="2.2321">
        <ele>103.1</ele>
        <time>2015-07-06T20:04:48.049Z</time>
      </trkpt>
      <trkpt lat="48.8799" lon="2.23219">
        <ele>102.6</ele>
        <time>2015-07-06T20:04:49.055Z</time>
      </trkpt>
      <trkpt lat="48.87989" lon="2.23226">
        <ele>102.4</ele>
        <time>2015-07-06T20:04:50.067Z</time>
      </trkpt>
      <trkpt lat="48.8799" lon="2.23234">
        <ele>102</ele>
        <time>2015-07-06T20:04:51.075Z</time>
      </trkpt>
      <trkpt lat="48.8799" lon="2.23242">
        <ele>101.6</ele>
        <time>2015-07-06T20:04:52.013Z</time>
      </trkpt>
      <trkpt lat="48.87991" lon="2.2325">
        <ele>101.4</ele>
        <time>2015-07-06T20:04:53.014Z</time>
      </trkpt>
      <trkpt lat="48.87992" lon="2.23263">
        <ele>101.2</ele>
        <time>2015-07-06T20:04:55.062Z</time>
      </trkpt>
      <trkpt lat="48.87992" lon="2.2327">
        <ele>101.2</ele>
        <time>2015-07-06T20:04:56.082Z</time>
      </trkpt>
      <trkpt lat="48.87994" lon="2.23282">
        <ele>101</ele>
        <time>2015-07-06T20:04:58.008Z</time>
      </trkpt>
      <trkpt lat="48.87994" lon="2.23288">
        <ele>101</ele>
        <time>2015-07-06T20:04:59.087Z</time>
      </trkpt>
      <trkpt lat="48.87993" lon="2.23299">
        <ele>100.6</ele>
        <time>2015-07-06T20:05:01.066Z</time>
      </trkpt>
      <trkpt lat="48.87993" lon="2.23307">
        <ele>100</ele>
        <time>2015-07-06T20:05:02.116Z</time>
      </trkpt>
      <trkpt lat="48.87992" lon="2.23315">
        <ele>99.6</ele>
        <time>2015-07-06T20:05:03.017Z</time>
      </trkpt>
      <trkpt lat="48.87991" lon="2.23322">
        <ele>99.4</ele>
        <time>2015-07-06T20:05:04.035Z</time>
      </trkpt>
      <trkpt lat="48.87991" lon="2.23334">
        <ele>99.3</ele>
        <time>2015-07-06T20:05:06.048Z</time>
      </trkpt>
      <trkpt lat="48.87991" lon="2.23337">
        <ele>99.1</ele>
        <time>2015-07-06T20:05:07.051Z</time>
      </trkpt>
      <trkpt lat="48.87994" lon="2.23346">
        <ele>98.7</ele>
        <time>2015-07-06T20:05:09.993Z</time>
      </trkpt>
      <trkpt lat="48.87995" lon="2.2335">
        <ele>98.4</ele>
        <time>2015-07-06T20:05:11.019Z</time>
      </trkpt>
      <trkpt lat="48.88" lon="2.23361">
        <ele>98.6</ele>
        <time>2015-07-06T20:05:14.054Z</time>
      </trkpt>
      <trkpt lat="48.88002" lon="2.23363">
        <ele>98.5</ele>
        <time>2015-07-06T20:05:15.005Z</time>
      </trkpt>
      <trkpt lat="48.88005" lon="2.23367">
        <ele>98.1</ele>
        <time>2015-07-06T20:05:16Z</time>
      </trkpt>
      <trkpt lat="48.88009" lon="2.23372">
        <ele>97</ele>
        <time>2015-07-06T20:05:17.012Z</time>
      </trkpt>
      <trkpt lat="48.88015" lon="2.2338">
        <ele>95.5</ele>
        <time>2015-07-06T20:05:19.030Z</time>
      </trkpt>
      <trkpt lat="48.88017" lon="2.23384">
        <ele>95.7</ele>
        <time>2015-07-06T20:05:20.038Z</time>
      </trkpt>
      <trkpt lat="48.88021" lon="2.23387">
        <ele>95.6</ele>
        <time>2015-07-06T20:05:21.113Z</time>
      </trkpt>
      <trkpt lat="48.88027" lon="2.23389">
        <ele>96.4</ele>
        <time>2015-07-06T20:05:21.978Z</time>
      </trkpt>
      <trkpt lat="48.88033" lon="2.23392">
        <ele>96.6</ele>
        <time>2015-07-06T20:05:23.016Z</time>
      </trkpt>
      <trkpt lat="48.88038" lon="2.23395">
        <ele>96.4</ele>
        <time>2015-07-06T20:05:24.029Z</time>
      </trkpt>
      <trkpt lat="48.88046" lon="2.23403">
        <ele>97.1</ele>
        <time>2015-07-06T20:05:26.965Z</time>
      </trkpt>
      <trkpt lat="48.88048" lon="2.23407">
        <ele>97.6</ele>
        <time>2015-07-06T20:05:27.992Z</time>
      </trkpt>
      <trkpt lat="48.88052" lon="2.23418">
        <ele>97.5</ele>
        <time>2015-07-06T20:05:31.050Z</time>
      </trkpt>
      <trkpt lat="48.88053" lon="2.2342">
        <ele>97.5</ele>
        <time>2015-07-06T20:05:32.063Z</time>
      </trkpt>
      <trkpt lat="48.8806" lon="2.23424">
        <ele>97.8</ele>
        <time>2015-07-06T20:05:35.095Z</time>
      </trkpt>
      <trkpt lat="48.88062" lon="2.23426">
        <ele>97.7</ele>
        <time>2015-07-06T20:05:35.959Z</time>
      </trkpt>
      <trkpt lat="48.88067" lon="2.23431">
        <ele>97.6</ele>
        <time>2015-07-06T20:05:38.053Z</time>
      </trkpt>
      <trkpt lat="48.8807" lon="2.23434">
        <ele>97.8</ele>
        <time>2015-07-06T20:05:39.003Z</time>
      </trkpt>
      <trkpt lat="48.88076" lon="2.23441">
        <ele>97.9</ele>
        <time>2015-07-06T20:05:41.011Z</time>
      </trkpt>
      <trkpt lat="48.88078" lon="2.23445">
        <ele>97.9</ele>
        <time>2015-07-06T20:05:42.018Z</time>
      </trkpt>
      <trkpt lat="48.88084" lon="2.2345">
        <ele>98.3</ele>
        <time>2015-07-06T20:05:43.024Z</time>
      </trkpt>
      <trkpt lat="48.88087" lon="2.23455">
        <ele>98</ele>
        <time>2015-07-06T20:05:44.033Z</time>
      </trkpt>
      <trkpt lat="48.88093" lon="2.2346">
        <ele>98.3</ele>
        <time>2015-07-06T20:05:45.036Z</time>
      </trkpt>
      <trkpt lat="48.88096" lon="2.23464">
        <ele>97.8</ele>
        <time>2015-07-06T20:05:46.057Z</time>
      </trkpt>
      <trkpt lat="48.88101" lon="2.23475">
        <ele>97.4</ele>
        <time>2015-07-06T20:05:48.072Z</time>
      </trkpt>
      <trkpt lat="48.88104" lon="2.23478">
        <ele>97.2</ele>
        <time>2015-07-06T20:05:48.991Z</time>
      </trkpt>
      <trkpt lat="48.88111" lon="2.23483">
        <ele>96.8</ele>
        <time>2015-07-06T20:05:50.963Z</time>
      </trkpt>
      <trkpt lat="48.88114" lon="2.23484">
        <ele>96.3</ele>
        <time>2015-07-06T20:05:52.164Z</time>
      </trkpt>
      <trkpt lat="48.88119" lon="2.23488">
        <ele>95.7</ele>
        <time>2015-07-06T20:05:54.052Z</time>
      </trkpt>
      <trkpt lat="48.88122" lon="2.23492">
        <ele>95.4</ele>
        <time>2015-07-06T20:05:54.958Z</time>
      </trkpt>
      <trkpt lat="48.88129" lon="2.235">
        <ele>95.2</ele>
        <time>2015-07-06T20:05:57.007Z</time>
      </trkpt>
      <trkpt lat="48.88131" lon="2.23504">
        <ele>95.2</ele>
        <time>2015-07-06T20:05:58.030Z</time>
      </trkpt>
      <trkpt lat="48.88136" lon="2.23513">
        <ele>95</ele>
        <time>2015-07-06T20:05:59.958Z</time>
      </trkpt>
      <trkpt lat="48.88141" lon="2.23517">
        <ele>94.5</ele>
        <time>2015-07-06T20:06:00.970Z</time>
      </trkpt>
      <trkpt lat="48.88143" lon="2.23523">
        <ele>94.1</ele>
        <time>2015-07-06T20:06:02.047Z</time>
      </trkpt>
      <trkpt lat="48.88145" lon="2.23529">
        <ele>94</ele>
        <time>2015-07-06T20:06:03.056Z</time>
      </trkpt>
      <trkpt lat="48.88149" lon="2.23535">
        <ele>93.8</ele>
        <time>2015-07-06T20:06:03.955Z</time>
      </trkpt>
      <trkpt lat="48.88152" lon="2.23541">
        <ele>93.8</ele>
        <time>2015-07-06T20:06:04.958Z</time>
      </trkpt>
      <trkpt lat="48.88156" lon="2.23545">
        <ele>93.9</ele>
        <time>2015-07-06T20:06:05.969Z</time>
      </trkpt>
      <trkpt lat="48.88162" lon="2.23548">
        <ele>93.8</ele>
        <time>2015-07-06T20:06:06.982Z</time>
      </trkpt>
      <trkpt lat="48.88167" lon="2.23553">
        <ele>93.4</ele>
        <time>2015-07-06T20:06:08.007Z</time>
      </trkpt>
      <trkpt lat="48.88171" lon="2.23556">
        <ele>93.3</ele>
        <time>2015-07-06T20:06:09.034Z</time>
      </trkpt>
      <trkpt lat="48.88173" lon="2.23558">
        <ele>93.5</ele>
        <time>2015-07-06T20:06:09.946Z</time>
      </trkpt>
      <trkpt lat="48.88174" lon="2.23559">
        <ele>93.7</ele>
        <time>2015-07-06T20:06:10.959Z</time>
      </trkpt>
      <trkpt lat="48.88176" lon="2.2356">
        <ele>93.8</ele>
        <time>2015-07-06T20:06:20.065Z</time>
      </trkpt>
      <trkpt lat="48.88188" lon="2.23575">
        <ele>94.4</ele>
        <time>2015-07-06T20:06:20.969Z</time>
      </trkpt>
      <trkpt lat="48.88193" lon="2.23584">
        <ele>93.3</ele>
        <time>2015-07-06T20:06:24.008Z</time>
      </trkpt>
      <trkpt lat="48.88195" lon="2.23589">
        <ele>92.7</ele>
        <time>2015-07-06T20:06:25.016Z</time>
      </trkpt>
      <trkpt lat="48.88198" lon="2.23597">
        <ele>92.4</ele>
        <time>2015-07-06T20:06:27.062Z</time>
      </trkpt>
      <trkpt lat="48.88201" lon="2.23602">
        <ele>92.2</ele>
        <time>2015-07-06T20:06:28.073Z</time>
      </trkpt>
      <trkpt lat="48.88206" lon="2.23611">
        <ele>92.3</ele>
        <time>2015-07-06T20:06:29.990Z</time>
      </trkpt>
      <trkpt lat="48.88211" lon="2.23616">
        <ele>90.7</ele>
        <time>2015-07-06T20:06:31.026Z</time>
      </trkpt>
      <trkpt lat="48.88216" lon="2.23624">
        <ele>90.7</ele>
        <time>2015-07-06T20:06:33.047Z</time>
      </trkpt>
      <trkpt lat="48.88218" lon="2.23629">
        <ele>90.7</ele>
        <time>2015-07-06T20:06:34.062Z</time>
      </trkpt>
      <trkpt lat="48.88224" lon="2.23637">
        <ele>91</ele>
        <time>2015-07-06T20:06:35.992Z</time>
      </trkpt>
      <trkpt lat="48.88227" lon="2.23641">
        <ele>90.9</ele>
        <time>2015-07-06T20:06:37.014Z</time>
      </trkpt>
      <trkpt lat="48.88231" lon="2.23643">
        <ele>91.2</ele>
        <time>2015-07-06T20:06:38.038Z</time>
      </trkpt>
      <trkpt lat="48.88236" lon="2.23646">
        <ele>91.1</ele>
        <time>2015-07-06T20:06:39.105Z</time>
      </trkpt>
      <trkpt lat="48.8824" lon="2.23649">
        <ele>90.9</ele>
        <time>2015-07-06T20:06:39.995Z</time>
      </trkpt>
      <trkpt lat="48.88245" lon="2.23652">
        <ele>89.7</ele>
        <time>2015-07-06T20:06:41.011Z</time>
      </trkpt>
      <trkpt lat="48.88248" lon="2.23659">
        <ele>89.1</ele>
        <time>2015-07-06T20:06:42.015Z</time>
      </trkpt>
      <trkpt lat="48.88252" lon="2.23665">
        <ele>88.5</ele>
        <time>2015-07-06T20:06:43.032Z</time>
      </trkpt>
      <trkpt lat="48.88256" lon="2.23669">
        <ele>88.6</ele>
        <time>2015-07-06T20:06:44.034Z</time>
      </trkpt>
      <trkpt lat="48.8826" lon="2.23672">
        <ele>88.6</ele>
        <time>2015-07-06T20:06:45.044Z</time>
      </trkpt>
      <trkpt lat="48.88265" lon="2.23682">
        <ele>88.2</ele>
        <time>2015-07-06T20:06:46.992Z</time>
      </trkpt>
      <trkpt lat="48.88268" lon="2.23687">
        <ele>87.9</ele>
        <time>2015-07-06T20:06:48.015Z</time>
      </trkpt>
      <trkpt lat="48.88272" lon="2.23691">
        <ele>87.8</ele>
        <time>2015-07-06T20:06:49.001Z</time>
      </trkpt>
      <trkpt lat="48.88276" lon="2.23694">
        <ele>87.5</ele>
        <time>2015-07-06T20:06:50.032Z</time>
      </trkpt>
      <trkpt lat="48.88284" lon="2.23701">
        <ele>87.7</ele>
        <time>2015-07-06T20:06:52.028Z</time>
      </trkpt>
      <trkpt lat="48.88287" lon="2.23704">
        <ele>87.7</ele>
        <time>2015-07-06T20:06:53.069Z</time>
      </trkpt>
      <trkpt lat="48.88292" lon="2.23713">
        <ele>87.9</ele>
        <time>2015-07-06T20:06:54.999Z</time>
      </trkpt>
      <trkpt lat="48.88293" lon="2.23718">
        <ele>88.1</ele>
        <time>2015-07-06T20:06:56.075Z</time>
      </trkpt>
      <trkpt lat="48.88298" lon="2.23727">
        <ele>88.3</ele>
        <time>2015-07-06T20:06:59.136Z</time>
      </trkpt>
      <trkpt lat="48.88301" lon="2.23729">
        <ele>88.4</ele>
        <time>2015-07-06T20:07:00.094Z</time>
      </trkpt>
      <trkpt lat="48.88306" lon="2.23735">
        <ele>88.5</ele>
        <time>2015-07-06T20:07:01.041Z</time>
      </trkpt>
      <trkpt lat="48.88313" lon="2.23739">
        <ele>87.9</ele>
        <time>2015-07-06T20:07:02.088Z</time>
      </trkpt>
      <trkpt lat="48.88319" lon="2.23747">
        <ele>87.6</ele>
        <time>2015-07-06T20:07:03.986Z</time>
      </trkpt>
      <trkpt lat="48.88322" lon="2.2375">
        <ele>87.6</ele>
        <time>2015-07-06T20:07:05.019Z</time>
      </trkpt>
      <trkpt lat="48.88328" lon="2.23755">
        <ele>86.3</ele>
        <time>2015-07-06T20:07:12.028Z</time>
      </trkpt>
      <trkpt lat="48.88326" lon="2.23765">
        <ele>86.5</ele>
        <time>2015-07-06T20:07:13.057Z</time>
      </trkpt>
      <trkpt lat="48.88334" lon="2.23766">
        <ele>85.8</ele>
        <time>2015-07-06T20:07:21.036Z</time>
      </trkpt>
      <trkpt lat="48.88336" lon="2.23768">
        <ele>84.9</ele>
        <time>2015-07-06T20:07:22.027Z</time>
      </trkpt>
      <trkpt lat="48.88343" lon="2.23776">
        <ele>83.4</ele>
        <time>2015-07-06T20:07:25.071Z</time>
      </trkpt>
      <trkpt lat="48.88346" lon="2.23779">
        <ele>83.1</ele>
        <time>2015-07-06T20:07:26.082Z</time>
      </trkpt>
      <trkpt lat="48.88349" lon="2.23784">
        <ele>83.2</ele>
        <time>2015-07-06T20:07:27Z</time>
      </trkpt>
      <trkpt lat="48.88353" lon="2.23788">
        <ele>83.2</ele>
        <time>2015-07-06T20:07:27.998Z</time>
      </trkpt>
      <trkpt lat="48.88357" lon="2.23793">
        <ele>83.3</ele>
        <time>2015-07-06T20:07:29.029Z</time>
      </trkpt>
      <trkpt lat="48.8836" lon="2.23798">
        <ele>83.4</ele>
        <time>2015-07-06T20:07:30.049Z</time>
      </trkpt>
      <trkpt lat="48.88366" lon="2.23805">
        <ele>83.2</ele>
        <time>2015-07-06T20:07:32.068Z</time>
      </trkpt>
      <trkpt lat="48.88367" lon="2.23809">
        <ele>82.8</ele>
        <time>2015-07-06T20:07:33.087Z</time>
      </trkpt>
      <trkpt lat="48.88368" lon="2.23822">
        <ele>80.7</ele>
        <time>2015-07-06T20:07:56.058Z</time>
      </trkpt>
      <trkpt lat="48.88368" lon="2.23826">
        <ele>80.8</ele>
        <time>2015-07-06T20:07:57.013Z</time>
      </trkpt>
      <trkpt lat="48.88372" lon="2.23836">
        <ele>80.7</ele>
        <time>2015-07-06T20:08:00.212Z</time>
      </trkpt>
      <trkpt lat="48.88374" lon="2.23838">
        <ele>80.9</ele>
        <time>2015-07-06T20:08:01.025Z</time>
      </trkpt>
      <trkpt lat="48.88378" lon="2.23847">
        <ele>81.4</ele>
        <time>2015-07-06T20:08:04.065Z</time>
      </trkpt>
      <trkpt lat="48.88381" lon="2.23851">
        <ele>81.6</ele>
        <time>2015-07-06T20:08:05.107Z</time>
      </trkpt>
      <trkpt lat="48.88385" lon="2.23858">
        <ele>81.7</ele>
        <time>2015-07-06T20:08:07.004Z</time>
      </trkpt>
      <trkpt lat="48.88388" lon="2.23861">
        <ele>81.7</ele>
        <time>2015-07-06T20:08:08.070Z</time>
      </trkpt>
      <trkpt lat="48.88393" lon="2.23869">
        <ele>81.6</ele>
        <time>2015-07-06T20:08:10.008Z</time>
      </trkpt>
      <trkpt lat="48.88395" lon="2.23873">
        <ele>81.3</ele>
        <time>2015-07-06T20:08:11.039Z</time>
      </trkpt>
      <trkpt lat="48.88402" lon="2.23881">
        <ele>80.1</ele>
        <time>2015-07-06T20:08:14.074Z</time>
      </trkpt>
      <trkpt lat="48.88403" lon="2.23884">
        <ele>80.3</ele>
        <time>2015-07-06T20:08:15.029Z</time>
      </trkpt>
      <trkpt lat="48.88409" lon="2.23888">
        <ele>80.7</ele>
        <time>2015-07-06T20:08:18.051Z</time>
      </trkpt>
      <trkpt lat="48.88412" lon="2.23889">
        <ele>80.7</ele>
        <time>2015-07-06T20:08:18.997Z</time>
      </trkpt>
      <trkpt lat="48.8842" lon="2.23893">
        <ele>80.6</ele>
        <time>2015-07-06T20:08:22.057Z</time>
      </trkpt>
      <trkpt lat="48.88423" lon="2.23897">
        <ele>80.5</ele>
        <time>2015-07-06T20:08:22.984Z</time>
      </trkpt>
      <trkpt lat="48.88427" lon="2.23907">
        <ele>81.3</ele>
        <time>2015-07-06T20:08:26.047Z</time>
      </trkpt>
      <trkpt lat="48.88428" lon="2.2391">
        <ele>81.5</ele>
        <time>2015-07-06T20:08:27.013Z</time>
      </trkpt>
      <trkpt lat="48.88433" lon="2.23917">
        <ele>84.3</ele>
        <time>2015-07-06T20:09:10.117Z</time>
      </trkpt>
      <trkpt lat="48.88438" lon="2.23919">
        <ele>85.4</ele>
        <time>2015-07-06T20:09:10.983Z</time>
      </trkpt>
      <trkpt lat="48.88445" lon="2.23925">
        <ele>85.7</ele>
        <time>2015-07-06T20:09:14.315Z</time>
      </trkpt>
      <trkpt lat="48.88446" lon="2.23925">
        <ele>85.6</ele>
        <time>2015-07-06T20:09:15.048Z</time>
      </trkpt>
      <trkpt lat="48.88445" lon="2.23925">
        <ele>85.6</ele>
        <time>2015-07-06T20:09:16.085Z</time>
      </trkpt>
      <trkpt lat="48.88445" lon="2.23928">
        <ele>85.7</ele>
        <time>2015-07-06T20:09:16.986Z</time>
      </trkpt>
      <trkpt lat="48.88445" lon="2.2393">
        <ele>85.6</ele>
        <time>2015-07-06T20:09:32.110Z</time>
      </trkpt>
      <trkpt lat="48.88442" lon="2.23926">
        <ele>85.9</ele>
        <time>2015-07-06T20:09:33.037Z</time>
      </trkpt>
      <trkpt lat="48.88449" lon="2.23922">
        <ele>89.5</ele>
        <time>2015-07-06T20:09:36.987Z</time>
      </trkpt>
      <trkpt lat="48.88452" lon="2.23921">
        <ele>90.3</ele>
        <time>2015-07-06T20:09:38.004Z</time>
      </trkpt>
      <trkpt lat="48.88458" lon="2.23924">
        <ele>89.6</ele>
        <time>2015-07-06T20:09:41.012Z</time>
      </trkpt>
      <trkpt lat="48.8846" lon="2.23926">
        <ele>88.6</ele>
        <time>2015-07-06T20:09:42.030Z</time>
      </trkpt>
      <trkpt lat="48.88465" lon="2.23932">
        <ele>88.5</ele>
        <time>2015-07-06T20:10:20.076Z</time>
      </trkpt>
      <trkpt lat="48.88461" lon="2.23949">
        <ele>96.1</ele>
        <time>2015-07-06T20:10:21.040Z</time>
      </trkpt>
      <trkpt lat="48.88463" lon="2.2396">
        <ele>95.4</ele>
        <time>2015-07-06T20:10:23.012Z</time>
      </trkpt>
      <trkpt lat="48.88466" lon="2.23966">
        <ele>95.1</ele>
        <time>2015-07-06T20:10:24.025Z</time>
      </trkpt>
      <trkpt lat="48.88468" lon="2.23972">
        <ele>95</ele>
        <time>2015-07-06T20:10:25.077Z</time>
      </trkpt>
      <trkpt lat="48.88471" lon="2.23978">
        <ele>95</ele>
        <time>2015-07-06T20:10:26.110Z</time>
      </trkpt>
      <trkpt lat="48.88473" lon="2.23986">
        <ele>94.5</ele>
        <time>2015-07-06T20:10:26.993Z</time>
      </trkpt>
      <trkpt lat="48.88475" lon="2.23992">
        <ele>94</ele>
        <time>2015-07-06T20:10:28.013Z</time>
      </trkpt>
      <trkpt lat="48.88477" lon="2.23999">
        <ele>93.6</ele>
        <time>2015-07-06T20:10:29.024Z</time>
      </trkpt>
      <trkpt lat="48.88479" lon="2.24005">
        <ele>93.2</ele>
        <time>2015-07-06T20:10:30.035Z</time>
      </trkpt>
      <trkpt lat="48.88481" lon="2.24011">
        <ele>92.7</ele>
        <time>2015-07-06T20:10:31.041Z</time>
      </trkpt>
      <trkpt lat="48.88483" lon="2.24017">
        <ele>92.4</ele>
        <time>2015-07-06T20:10:32.048Z</time>
      </trkpt>
      <trkpt lat="48.88486" lon="2.24024">
        <ele>91.9</ele>
        <time>2015-07-06T20:10:33.050Z</time>
      </trkpt>
      <trkpt lat="48.88488" lon="2.24031">
        <ele>91.6</ele>
        <time>2015-07-06T20:10:33.991Z</time>
      </trkpt>
      <trkpt lat="48.88492" lon="2.24037">
        <ele>91.4</ele>
        <time>2015-07-06T20:10:34.973Z</time>
      </trkpt>
      <trkpt lat="48.88495" lon="2.24044">
        <ele>91.1</ele>
        <time>2015-07-06T20:10:35.982Z</time>
      </trkpt>
      <trkpt lat="48.88497" lon="2.24051">
        <ele>91</ele>
        <time>2015-07-06T20:10:36.997Z</time>
      </trkpt>
      <trkpt lat="48.88499" lon="2.24058">
        <ele>90.8</ele>
        <time>2015-07-06T20:10:37.995Z</time>
      </trkpt>
      <trkpt lat="48.88502" lon="2.24065">
        <ele>90.5</ele>
        <time>2015-07-06T20:10:39.024Z</time>
      </trkpt>
      <trkpt lat="48.88504" lon="2.24072">
        <ele>90.4</ele>
        <time>2015-07-06T20:10:40.042Z</time>
      </trkpt>
      <trkpt lat="48.88508" lon="2.24078">
        <ele>90.5</ele>
        <time>2015-07-06T20:10:41.067Z</time>
      </trkpt>
      <trkpt lat="48.88512" lon="2.24084">
        <ele>90.6</ele>
        <time>2015-07-06T20:10:41.973Z</time>
      </trkpt>
      <trkpt lat="48.88516" lon="2.2409">
        <ele>90.4</ele>
        <time>2015-07-06T20:10:43.026Z</time>
      </trkpt>
      <trkpt lat="48.88518" lon="2.24097">
        <ele>90.2</ele>
        <time>2015-07-06T20:10:44.019Z</time>
      </trkpt>
      <trkpt lat="48.8852" lon="2.24103">
        <ele>90.1</ele>
        <time>2015-07-06T20:10:45.033Z</time>
      </trkpt>
      <trkpt lat="48.88522" lon="2.2411">
        <ele>89.8</ele>
        <time>2015-07-06T20:10:46.042Z</time>
      </trkpt>
      <trkpt lat="48.88525" lon="2.24116">
        <ele>89.4</ele>
        <time>2015-07-06T20:10:47.041Z</time>
      </trkpt>
      <trkpt lat="48.88527" lon="2.24122">
        <ele>89.4</ele>
        <time>2015-07-06T20:10:48.087Z</time>
      </trkpt>
      <trkpt lat="48.88529" lon="2.24129">
        <ele>89.1</ele>
        <time>2015-07-06T20:10:48.983Z</time>
      </trkpt>
      <trkpt lat="48.8853" lon="2.24136">
        <ele>88.7</ele>
        <time>2015-07-06T20:10:50.052Z</time>
      </trkpt>
      <trkpt lat="48.88532" lon="2.24142">
        <ele>88.6</ele>
        <time>2015-07-06T20:10:50.987Z</time>
      </trkpt>
      <trkpt lat="48.88534" lon="2.24149">
        <ele>88.3</ele>
        <time>2015-07-06T20:10:51.980Z</time>
      </trkpt>
      <trkpt lat="48.88537" lon="2.24155">
        <ele>88.2</ele>
        <time>2015-07-06T20:10:52.986Z</time>
      </trkpt>
      <trkpt lat="48.88539" lon="2.24161">
        <ele>87.8</ele>
        <time>2015-07-06T20:10:53.990Z</time>
      </trkpt>
      <trkpt lat="48.88542" lon="2.24168">
        <ele>87.6</ele>
        <time>2015-07-06T20:10:55.003Z</time>
      </trkpt>
      <trkpt lat="48.88544" lon="2.24174">
        <ele>87.6</ele>
        <time>2015-07-06T20:10:56.031Z</time>
      </trkpt>
      <trkpt lat="48.88546" lon="2.24181">
        <ele>87.6</ele>
        <time>2015-07-06T20:10:57.038Z</time>
      </trkpt>
      <trkpt lat="48.88548" lon="2.24188">
        <ele>87.3</ele>
        <time>2015-07-06T20:10:58.050Z</time>
      </trkpt>
      <trkpt lat="48.8855" lon="2.24195">
        <ele>87.4</ele>
        <time>2015-07-06T20:10:59.091Z</time>
      </trkpt>
      <trkpt lat="48.88552" lon="2.24201">
        <ele>87.1</ele>
        <time>2015-07-06T20:11:00.011Z</time>
      </trkpt>
      <trkpt lat="48.88554" lon="2.24208">
        <ele>87</ele>
        <time>2015-07-06T20:11:01.020Z</time>
      </trkpt>
      <trkpt lat="48.88556" lon="2.24215">
        <ele>87.1</ele>
        <time>2015-07-06T20:11:02.081Z</time>
      </trkpt>
      <trkpt lat="48.88558" lon="2.24222">
        <ele>87.2</ele>
        <time>2015-07-06T20:11:02.995Z</time>
      </trkpt>
      <trkpt lat="48.88561" lon="2.24229">
        <ele>87.5</ele>
        <time>2015-07-06T20:11:04.008Z</time>
      </trkpt>
      <trkpt lat="48.88563" lon="2.24236">
        <ele>87.2</ele>
        <time>2015-07-06T20:11:05.025Z</time>
      </trkpt>
      <trkpt lat="48.88566" lon="2.24242">
        <ele>87.2</ele>
        <time>2015-07-06T20:11:06.033Z</time>
      </trkpt>
      <trkpt lat="48.8857" lon="2.24248">
        <ele>86.9</ele>
        <time>2015-07-06T20:11:06.975Z</time>
      </trkpt>
      <trkpt lat="48.88573" lon="2.24253">
        <ele>86.6</ele>
        <time>2015-07-06T20:11:07.988Z</time>
      </trkpt>
      <trkpt lat="48.88576" lon="2.24266">
        <ele>86.2</ele>
        <time>2015-07-06T20:11:10.032Z</time>
      </trkpt>
      <trkpt lat="48.88577" lon="2.24272">
        <ele>86</ele>
        <time>2015-07-06T20:11:11.042Z</time>
      </trkpt>
      <trkpt lat="48.88581" lon="2.24282">
        <ele>86.5</ele>
        <time>2015-07-06T20:11:13.076Z</time>
      </trkpt>
      <trkpt lat="48.88583" lon="2.24286">
        <ele>86.6</ele>
        <time>2015-07-06T20:11:14.074Z</time>
      </trkpt>
      <trkpt lat="48.88587" lon="2.24293">
        <ele>86.7</ele>
        <time>2015-07-06T20:11:15.973Z</time>
      </trkpt>
      <trkpt lat="48.88589" lon="2.24297">
        <ele>86.9</ele>
        <time>2015-07-06T20:11:16.970Z</time>
      </trkpt>
      <trkpt lat="48.88593" lon="2.24306">
        <ele>86.9</ele>
        <time>2015-07-06T20:11:19.004Z</time>
      </trkpt>
      <trkpt lat="48.88595" lon="2.2431">
        <ele>87</ele>
        <time>2015-07-06T20:11:20.001Z</time>
      </trkpt>
      <trkpt lat="48.88596" lon="2.24322">
        <ele>86.8</ele>
        <time>2015-07-06T20:11:21.988Z</time>
      </trkpt>
      <trkpt lat="48.88597" lon="2.24327">
        <ele>86.6</ele>
        <time>2015-07-06T20:11:23.103Z</time>
      </trkpt>
      <trkpt lat="48.886" lon="2.24336">
        <ele>86</ele>
        <time>2015-07-06T20:11:24.987Z</time>
      </trkpt>
      <trkpt lat="48.88603" lon="2.24341">
        <ele>86</ele>
        <time>2015-07-06T20:11:26.147Z</time>
      </trkpt>
      <trkpt lat="48.88607" lon="2.24351">
        <ele>85.6</ele>
        <time>2015-07-06T20:11:28.002Z</time>
      </trkpt>
      <trkpt lat="48.88611" lon="2.24356">
        <ele>85.6</ele>
        <time>2015-07-06T20:11:29.035Z</time>
      </trkpt>
      <trkpt lat="48.88614" lon="2.24362">
        <ele>85.5</ele>
        <time>2015-07-06T20:11:30Z</time>
      </trkpt>
      <trkpt lat="48.88617" lon="2.24367">
        <ele>85.1</ele>
        <time>2015-07-06T20:11:31.008Z</time>
      </trkpt>
      <trkpt lat="48.8862" lon="2.24372">
        <ele>85.1</ele>
        <time>2015-07-06T20:11:32.099Z</time>
      </trkpt>
      <trkpt lat="48.88623" lon="2.24378">
        <ele>85.1</ele>
        <time>2015-07-06T20:11:33.076Z</time>
      </trkpt>
      <trkpt lat="48.88625" lon="2.24384">
        <ele>84.9</ele>
        <time>2015-07-06T20:11:33.984Z</time>
      </trkpt>
      <trkpt lat="48.88627" lon="2.2439">
        <ele>84.7</ele>
        <time>2015-07-06T20:11:34.986Z</time>
      </trkpt>
      <trkpt lat="48.88629" lon="2.24396">
        <ele>84.8</ele>
        <time>2015-07-06T20:11:35.992Z</time>
      </trkpt>
      <trkpt lat="48.88632" lon="2.24403">
        <ele>85</ele>
        <time>2015-07-06T20:11:37.014Z</time>
      </trkpt>
      <trkpt lat="48.88635" lon="2.24409">
        <ele>85.2</ele>
        <time>2015-07-06T20:11:38.037Z</time>
      </trkpt>
      <trkpt lat="48.88639" lon="2.24415">
        <ele>85.5</ele>
        <time>2015-07-06T20:11:39.035Z</time>
      </trkpt>
      <trkpt lat="48.88643" lon="2.2442">
        <ele>86</ele>
        <time>2015-07-06T20:11:40.045Z</time>
      </trkpt>
      <trkpt lat="48.88647" lon="2.24426">
        <ele>86</ele>
        <time>2015-07-06T20:11:41.064Z</time>
      </trkpt>
      <trkpt lat="48.88653" lon="2.24429">
        <ele>86.1</ele>
        <time>2015-07-06T20:11:41.991Z</time>
      </trkpt>
      <trkpt lat="48.88657" lon="2.24433">
        <ele>86</ele>
        <time>2015-07-06T20:11:42.992Z</time>
      </trkpt>
      <trkpt lat="48.88661" lon="2.24441">
        <ele>85.8</ele>
        <time>2015-07-06T20:11:45.051Z</time>
      </trkpt>
      <trkpt lat="48.88663" lon="2.24445">
        <ele>85.3</ele>
        <time>2015-07-06T20:11:45.984Z</time>
      </trkpt>
      <trkpt lat="48.88663" lon="2.24454">
        <ele>85.4</ele>
        <time>2015-07-06T20:11:48.017Z</time>
      </trkpt>
      <trkpt lat="48.88663" lon="2.2446">
        <ele>85.2</ele>
        <time>2015-07-06T20:11:49.037Z</time>
      </trkpt>
      <trkpt lat="48.88664" lon="2.24471">
        <ele>84.9</ele>
        <time>2015-07-06T20:11:50.992Z</time>
      </trkpt>
      <trkpt lat="48.88665" lon="2.24478">
        <ele>84.9</ele>
        <time>2015-07-06T20:11:52.026Z</time>
      </trkpt>
      <trkpt lat="48.88668" lon="2.2449">
        <ele>84.9</ele>
        <time>2015-07-06T20:11:54.054Z</time>
      </trkpt>
      <trkpt lat="48.8867" lon="2.24495">
        <ele>84.9</ele>
        <time>2015-07-06T20:11:55.079Z</time>
      </trkpt>
      <trkpt lat="48.88671" lon="2.24501">
        <ele>84.8</ele>
        <time>2015-07-06T20:11:56.101Z</time>
      </trkpt>
      <trkpt lat="48.8867" lon="2.24509">
        <ele>85.1</ele>
        <time>2015-07-06T20:11:56.990Z</time>
      </trkpt>
      <trkpt lat="48.88669" lon="2.24516">
        <ele>85</ele>
        <time>2015-07-06T20:11:57.993Z</time>
      </trkpt>
      <trkpt lat="48.88667" lon="2.24522">
        <ele>85.2</ele>
        <time>2015-07-06T20:11:59.004Z</time>
      </trkpt>
      <trkpt lat="48.88662" lon="2.2453">
        <ele>85.3</ele>
        <time>2015-07-06T20:12:01.027Z</time>
      </trkpt>
      <trkpt lat="48.88657" lon="2.24533">
        <ele>86.1</ele>
        <time>2015-07-06T20:12:02.078Z</time>
      </trkpt>
      <trkpt lat="48.8865" lon="2.24537">
        <ele>87.4</ele>
        <time>2015-07-06T20:12:04.026Z</time>
      </trkpt>
      <trkpt lat="48.88647" lon="2.24539">
        <ele>87.8</ele>
        <time>2015-07-06T20:12:05.015Z</time>
      </trkpt>
      <trkpt lat="48.88639" lon="2.24545">
        <ele>88.7</ele>
        <time>2015-07-06T20:12:07.064Z</time>
      </trkpt>
      <trkpt lat="48.88636" lon="2.24549">
        <ele>89.3</ele>
        <time>2015-07-06T20:12:08.079Z</time>
      </trkpt>
      <trkpt lat="48.88632" lon="2.24555">
        <ele>89.7</ele>
        <time>2015-07-06T20:12:08.992Z</time>
      </trkpt>
      <trkpt lat="48.88629" lon="2.2456">
        <ele>90.1</ele>
        <time>2015-07-06T20:12:09.993Z</time>
      </trkpt>
      <trkpt lat="48.88625" lon="2.24565">
        <ele>90.5</ele>
        <time>2015-07-06T20:12:10.999Z</time>
      </trkpt>
      <trkpt lat="48.88622" lon="2.24571">
        <ele>90.9</ele>
        <time>2015-07-06T20:12:12.013Z</time>
      </trkpt>
      <trkpt lat="48.88618" lon="2.24576">
        <ele>91</ele>
        <time>2015-07-06T20:12:13.025Z</time>
      </trkpt>
      <trkpt lat="48.88615" lon="2.2458">
        <ele>90.9</ele>
        <time>2015-07-06T20:12:14.037Z</time>
      </trkpt>
      <trkpt lat="48.8861" lon="2.24592">
        <ele>91</ele>
        <time>2015-07-06T20:12:16.069Z</time>
      </trkpt>
      <trkpt lat="48.88607" lon="2.24599">
        <ele>91.5</ele>
        <time>2015-07-06T20:12:16.992Z</time>
      </trkpt>
      <trkpt lat="48.88601" lon="2.24606">
        <ele>91.3</ele>
        <time>2015-07-06T20:12:18.966Z</time>
      </trkpt>
      <trkpt lat="48.88598" lon="2.24609">
        <ele>91.3</ele>
        <time>2015-07-06T20:12:20.084Z</time>
      </trkpt>
      <trkpt lat="48.88591" lon="2.24615">
        <ele>91.4</ele>
        <time>2015-07-06T20:12:22.026Z</time>
      </trkpt>
      <trkpt lat="48.88587" lon="2.24618">
        <ele>91.4</ele>
        <time>2015-07-06T20:12:23.027Z</time>
      </trkpt>
      <trkpt lat="48.88583" lon="2.24624">
        <ele>91.5</ele>
        <time>2015-07-06T20:12:24.047Z</time>
      </trkpt>
      <trkpt lat="48.8858" lon="2.2463">
        <ele>91.6</ele>
        <time>2015-07-06T20:12:25.061Z</time>
      </trkpt>
      <trkpt lat="48.88575" lon="2.24634">
        <ele>91.6</ele>
        <time>2015-07-06T20:12:26.040Z</time>
      </trkpt>
      <trkpt lat="48.88572" lon="2.2464">
        <ele>91.7</ele>
        <time>2015-07-06T20:12:27.046Z</time>
      </trkpt>
      <trkpt lat="48.88567" lon="2.24644">
        <ele>91.9</ele>
        <time>2015-07-06T20:12:28.086Z</time>
      </trkpt>
      <trkpt lat="48.88564" lon="2.24649">
        <ele>92.1</ele>
        <time>2015-07-06T20:12:28.987Z</time>
      </trkpt>
      <trkpt lat="48.88559" lon="2.24652">
        <ele>92.4</ele>
        <time>2015-07-06T20:12:30.018Z</time>
      </trkpt>
      <trkpt lat="48.88555" lon="2.24656">
        <ele>92.4</ele>
        <time>2015-07-06T20:12:31.033Z</time>
      </trkpt>
      <trkpt lat="48.88551" lon="2.24661">
        <ele>92.1</ele>
        <time>2015-07-06T20:12:32.041Z</time>
      </trkpt>
      <trkpt lat="48.88547" lon="2.24666">
        <ele>91.9</ele>
        <time>2015-07-06T20:12:33.048Z</time>
      </trkpt>
      <trkpt lat="48.88543" lon="2.24672">
        <ele>91.6</ele>
        <time>2015-07-06T20:12:34.064Z</time>
      </trkpt>
      <trkpt lat="48.88538" lon="2.24677">
        <ele>91.6</ele>
        <time>2015-07-06T20:12:35.026Z</time>
      </trkpt>
      <trkpt lat="48.88534" lon="2.24683">
        <ele>92.2</ele>
        <time>2015-07-06T20:12:35.992Z</time>
      </trkpt>
      <trkpt lat="48.88531" lon="2.24687">
        <ele>92</ele>
        <time>2015-07-06T20:12:36.993Z</time>
      </trkpt>
      <trkpt lat="48.88527" lon="2.24693">
        <ele>92.2</ele>
        <time>2015-07-06T20:12:38.033Z</time>
      </trkpt>
      <trkpt lat="48.88523" lon="2.247">
        <ele>92.4</ele>
        <time>2015-07-06T20:12:39.025Z</time>
      </trkpt>
      <trkpt lat="48.88519" lon="2.24705">
        <ele>92.6</ele>
        <time>2015-07-06T20:12:40.039Z</time>
      </trkpt>
      <trkpt lat="48.88515" lon="2.24711">
        <ele>92.9</ele>
        <time>2015-07-06T20:12:41.049Z</time>
      </trkpt>
      <trkpt lat="48.88511" lon="2.24717">
        <ele>93.4</ele>
        <time>2015-07-06T20:12:42.059Z</time>
      </trkpt>
      <trkpt lat="48.88507" lon="2.24723">
        <ele>93.6</ele>
        <time>2015-07-06T20:12:43.068Z</time>
      </trkpt>
      <trkpt lat="48.88503" lon="2.2473">
        <ele>94.6</ele>
        <time>2015-07-06T20:12:44.066Z</time>
      </trkpt>
      <trkpt lat="48.88499" lon="2.24736">
        <ele>95.6</ele>
        <time>2015-07-06T20:12:44.986Z</time>
      </trkpt>
      <trkpt lat="48.88496" lon="2.24742">
        <ele>96.7</ele>
        <time>2015-07-06T20:12:45.987Z</time>
      </trkpt>
      <trkpt lat="48.88492" lon="2.24748">
        <ele>97.4</ele>
        <time>2015-07-06T20:12:46.999Z</time>
      </trkpt>
      <trkpt lat="48.88488" lon="2.24754">
        <ele>98.2</ele>
        <time>2015-07-06T20:12:47.996Z</time>
      </trkpt>
      <trkpt lat="48.88485" lon="2.24762">
        <ele>99</ele>
        <time>2015-07-06T20:12:49Z</time>
      </trkpt>
      <trkpt lat="48.88481" lon="2.24767">
        <ele>99.2</ele>
        <time>2015-07-06T20:12:50.039Z</time>
      </trkpt>
      <trkpt lat="48.88478" lon="2.24771">
        <ele>99.3</ele>
        <time>2015-07-06T20:12:51.031Z</time>
      </trkpt>
      <trkpt lat="48.88474" lon="2.24781">
        <ele>99</ele>
        <time>2015-07-06T20:12:53.050Z</time>
      </trkpt>
      <trkpt lat="48.88472" lon="2.24785">
        <ele>99.5</ele>
        <time>2015-07-06T20:12:53.961Z</time>
      </trkpt>
      <trkpt lat="48.8847" lon="2.24796">
        <ele>99.6</ele>
        <time>2015-07-06T20:12:56.009Z</time>
      </trkpt>
      <trkpt lat="48.8847" lon="2.248">
        <ele>99</ele>
        <time>2015-07-06T20:12:57.026Z</time>
      </trkpt>
      <trkpt lat="48.88475" lon="2.24795">
        <ele>95.3</ele>
        <time>2015-07-06T20:13:04.980Z</time>
      </trkpt>
      <trkpt lat="48.88479" lon="2.24794">
        <ele>93.9</ele>
        <time>2015-07-06T20:13:06Z</time>
      </trkpt>
      <trkpt lat="48.88481" lon="2.24801">
        <ele>92.9</ele>
        <time>2015-07-06T20:13:08.022Z</time>
      </trkpt>
      <trkpt lat="48.88484" lon="2.24805">
        <ele>92.1</ele>
        <time>2015-07-06T20:13:09.022Z</time>
      </trkpt>
      <trkpt lat="48.88488" lon="2.2481">
        <ele>92.1</ele>
        <time>2015-07-06T20:13:10.041Z</time>
      </trkpt>
      <trkpt lat="48.8849" lon="2.24816">
        <ele>91.9</ele>
        <time>2015-07-06T20:13:11.053Z</time>
      </trkpt>
      <trkpt lat="48.88493" lon="2.24823">
        <ele>91.8</ele>
        <time>2015-07-06T20:13:11.974Z</time>
      </trkpt>
      <trkpt lat="48.88495" lon="2.2483">
        <ele>91.6</ele>
        <time>2015-07-06T20:13:12.972Z</time>
      </trkpt>
      <trkpt lat="48.88497" lon="2.24837">
        <ele>91.3</ele>
        <time>2015-07-06T20:13:14.022Z</time>
      </trkpt>
      <trkpt lat="48.885" lon="2.24844">
        <ele>91.2</ele>
        <time>2015-07-06T20:13:15.031Z</time>
      </trkpt>
      <trkpt lat="48.88503" lon="2.24852">
        <ele>91</ele>
        <time>2015-07-06T20:13:15.978Z</time>
      </trkpt>
      <trkpt lat="48.88505" lon="2.24859">
        <ele>90.7</ele>
        <time>2015-07-06T20:13:16.981Z</time>
      </trkpt>
      <trkpt lat="48.88508" lon="2.24867">
        <ele>90.7</ele>
        <time>2015-07-06T20:13:17.986Z</time>
      </trkpt>
      <trkpt lat="48.8851" lon="2.24875">
        <ele>91</ele>
        <time>2015-07-06T20:13:18.991Z</time>
      </trkpt>
      <trkpt lat="48.88513" lon="2.24882">
        <ele>91</ele>
        <time>2015-07-06T20:13:20.012Z</time>
      </trkpt>
      <trkpt lat="48.88516" lon="2.24889">
        <ele>91.1</ele>
        <time>2015-07-06T20:13:21.011Z</time>
      </trkpt>
      <trkpt lat="48.88518" lon="2.24897">
        <ele>91</ele>
        <time>2015-07-06T20:13:22.021Z</time>
      </trkpt>
      <trkpt lat="48.8852" lon="2.24906">
        <ele>91.2</ele>
        <time>2015-07-06T20:13:23.029Z</time>
      </trkpt>
      <trkpt lat="48.88522" lon="2.24914">
        <ele>91.2</ele>
        <time>2015-07-06T20:13:24.036Z</time>
      </trkpt>
      <trkpt lat="48.88524" lon="2.24921">
        <ele>91.2</ele>
        <time>2015-07-06T20:13:25.040Z</time>
      </trkpt>
      <trkpt lat="48.88527" lon="2.24928">
        <ele>91.2</ele>
        <time>2015-07-06T20:13:26.045Z</time>
      </trkpt>
      <trkpt lat="48.88529" lon="2.24936">
        <ele>91.2</ele>
        <time>2015-07-06T20:13:26.964Z</time>
      </trkpt>
      <trkpt lat="48.88533" lon="2.24943">
        <ele>91.7</ele>
        <time>2015-07-06T20:13:27.965Z</time>
      </trkpt>
      <trkpt lat="48.88536" lon="2.24951">
        <ele>92.1</ele>
        <time>2015-07-06T20:13:28.975Z</time>
      </trkpt>
      <trkpt lat="48.88539" lon="2.24958">
        <ele>92.2</ele>
        <time>2015-07-06T20:13:30.004Z</time>
      </trkpt>
      <trkpt lat="48.88541" lon="2.24965">
        <ele>92.6</ele>
        <time>2015-07-06T20:13:31.007Z</time>
      </trkpt>
      <trkpt lat="48.88543" lon="2.24973">
        <ele>93</ele>
        <time>2015-07-06T20:13:32.024Z</time>
      </trkpt>
      <trkpt lat="48.88546" lon="2.2498">
        <ele>93.6</ele>
        <time>2015-07-06T20:13:33.025Z</time>
      </trkpt>
      <trkpt lat="48.88549" lon="2.24987">
        <ele>94.4</ele>
        <time>2015-07-06T20:13:33.999Z</time>
      </trkpt>
      <trkpt lat="48.88552" lon="2.24993">
        <ele>94.2</ele>
        <time>2015-07-06T20:13:35Z</time>
      </trkpt>
      <trkpt lat="48.88553" lon="2.25">
        <ele>94</ele>
        <time>2015-07-06T20:13:36.025Z</time>
      </trkpt>
      <trkpt lat="48.88556" lon="2.25008">
        <ele>94.4</ele>
        <time>2015-07-06T20:13:37.032Z</time>
      </trkpt>
      <trkpt lat="48.88558" lon="2.25015">
        <ele>94.5</ele>
        <time>2015-07-06T20:13:38.040Z</time>
      </trkpt>
      <trkpt lat="48.8856" lon="2.25022">
        <ele>94.6</ele>
        <time>2015-07-06T20:13:39.053Z</time>
      </trkpt>
      <trkpt lat="48.88562" lon="2.25029">
        <ele>94.9</ele>
        <time>2015-07-06T20:13:40.246Z</time>
      </trkpt>
      <trkpt lat="48.88565" lon="2.25036">
        <ele>96.2</ele>
        <time>2015-07-06T20:13:40.974Z</time>
      </trkpt>
      <trkpt lat="48.88568" lon="2.25042">
        <ele>96.8</ele>
        <time>2015-07-06T20:13:41.986Z</time>
      </trkpt>
      <trkpt lat="48.88571" lon="2.25047">
        <ele>97.2</ele>
        <time>2015-07-06T20:13:42.988Z</time>
      </trkpt>
      <trkpt lat="48.88577" lon="2.25057">
        <ele>97.1</ele>
        <time>2015-07-06T20:13:45.024Z</time>
      </trkpt>
      <trkpt lat="48.8858" lon="2.2506">
        <ele>97.4</ele>
        <time>2015-07-06T20:13:46.039Z</time>
      </trkpt>
      <trkpt lat="48.88588" lon="2.25066">
        <ele>99.1</ele>
        <time>2015-07-06T20:13:48.058Z</time>
      </trkpt>
      <trkpt lat="48.8859" lon="2.2507">
        <ele>99.9</ele>
        <time>2015-07-06T20:13:49.066Z</time>
      </trkpt>
      <trkpt lat="48.88595" lon="2.2508">
        <ele>99.8</ele>
        <time>2015-07-06T20:13:52.014Z</time>
      </trkpt>
      <trkpt lat="48.88596" lon="2.25082">
        <ele>99.9</ele>
        <time>2015-07-06T20:13:52.986Z</time>
      </trkpt>
      <trkpt lat="48.88593" lon="2.25092">
        <ele>94.8</ele>
        <time>2015-07-06T20:14:16.022Z</time>
      </trkpt>
      <trkpt lat="48.88593" lon="2.25096">
        <ele>94.2</ele>
        <time>2015-07-06T20:14:17.068Z</time>
      </trkpt>
      <trkpt lat="48.88595" lon="2.25107">
        <ele>92</ele>
        <time>2015-07-06T20:14:20.124Z</time>
      </trkpt>
      <trkpt lat="48.88597" lon="2.25111">
        <ele>91.2</ele>
        <time>2015-07-06T20:14:21.011Z</time>
      </trkpt>
      <trkpt lat="48.88599" lon="2.25118">
        <ele>90.4</ele>
        <time>2015-07-06T20:14:23.010Z</time>
      </trkpt>
      <trkpt lat="48.88601" lon="2.25123">
        <ele>90.5</ele>
        <time>2015-07-06T20:14:24.018Z</time>
      </trkpt>
      <trkpt lat="48.88605" lon="2.25133">
        <ele>89.8</ele>
        <time>2015-07-06T20:14:27.057Z</time>
      </trkpt>
      <trkpt lat="48.88608" lon="2.25136">
        <ele>89.3</ele>
        <time>2015-07-06T20:14:27.997Z</time>
      </trkpt>
      <trkpt lat="48.88613" lon="2.25145">
        <ele>90.1</ele>
        <time>2015-07-06T20:14:29.996Z</time>
      </trkpt>
      <trkpt lat="48.88616" lon="2.25149">
        <ele>90</ele>
        <time>2015-07-06T20:14:31.017Z</time>
      </trkpt>
      <trkpt lat="48.88624" lon="2.25153">
        <ele>89.1</ele>
        <time>2015-07-06T20:14:34.189Z</time>
      </trkpt>
      <trkpt lat="48.88625" lon="2.25151">
        <ele>88.3</ele>
        <time>2015-07-06T20:14:34.991Z</time>
      </trkpt>
      <trkpt lat="48.88627" lon="2.25149">
        <ele>87</ele>
        <time>2015-07-06T20:14:57.982Z</time>
      </trkpt>
      <trkpt lat="48.88639" lon="2.25157">
        <ele>82.6</ele>
        <time>2015-07-06T20:14:59.026Z</time>
      </trkpt>
      <trkpt lat="48.88641" lon="2.25169">
        <ele>82.3</ele>
        <time>2015-07-06T20:15:02.716Z</time>
      </trkpt>
      <trkpt lat="48.88641" lon="2.25174">
        <ele>82.3</ele>
        <time>2015-07-06T20:15:04.004Z</time>
      </trkpt>
      <trkpt lat="48.88641" lon="2.25188">
        <ele>82</ele>
        <time>2015-07-06T20:15:06.021Z</time>
      </trkpt>
      <trkpt lat="48.88642" lon="2.25194">
        <ele>81.9</ele>
        <time>2015-07-06T20:15:07.231Z</time>
      </trkpt>
      <trkpt lat="48.88649" lon="2.25192">
        <ele>81.8</ele>
        <time>2015-07-06T20:15:10.301Z</time>
      </trkpt>
      <trkpt lat="48.88654" lon="2.25182">
        <ele>82.1</ele>
        <time>2015-07-06T20:15:11.027Z</time>
      </trkpt>
      <trkpt lat="48.8866" lon="2.25174">
        <ele>82.1</ele>
        <time>2015-07-06T20:15:13.005Z</time>
      </trkpt>
      <trkpt lat="48.88662" lon="2.25175">
        <ele>81.9</ele>
        <time>2015-07-06T20:15:14.112Z</time>
      </trkpt>
      <trkpt lat="48.88668" lon="2.25185">
        <ele>80.9</ele>
        <time>2015-07-06T20:15:18.009Z</time>
      </trkpt>
      <trkpt lat="48.88669" lon="2.25185">
        <ele>81</ele>
        <time>2015-07-06T20:15:19.042Z</time>
      </trkpt>
      <trkpt lat="48.88674" lon="2.25193">
        <ele>81.2</ele>
        <time>2015-07-06T20:15:23.072Z</time>
      </trkpt>
      <trkpt lat="48.88676" lon="2.25195">
        <ele>81.3</ele>
        <time>2015-07-06T20:15:24.091Z</time>
      </trkpt>
      <trkpt lat="48.88682" lon="2.25201">
        <ele>81.8</ele>
        <time>2015-07-06T20:15:26.987Z</time>
      </trkpt>
      <trkpt lat="48.88685" lon="2.25203">
        <ele>82.2</ele>
        <time>2015-07-06T20:15:27.974Z</time>
      </trkpt>
      <trkpt lat="48.88693" lon="2.25207">
        <ele>87.5</ele>
        <time>2015-07-06T20:15:39.020Z</time>
      </trkpt>
      <trkpt lat="48.88705" lon="2.25216">
        <ele>90.4</ele>
        <time>2015-07-06T20:15:40.007Z</time>
      </trkpt>
      <trkpt lat="48.88702" lon="2.25224">
        <ele>90.2</ele>
        <time>2015-07-06T20:15:42.042Z</time>
      </trkpt>
      <trkpt lat="48.887" lon="2.25227">
        <ele>90.2</ele>
        <time>2015-07-06T20:15:43.116Z</time>
      </trkpt>
      <trkpt lat="48.88697" lon="2.2524">
        <ele>90.7</ele>
        <time>2015-07-06T20:15:48.001Z</time>
      </trkpt>
      <trkpt lat="48.88698" lon="2.25243">
        <ele>90.8</ele>
        <time>2015-07-06T20:15:49.012Z</time>
      </trkpt>
      <trkpt lat="48.88701" lon="2.25242">
        <ele>90.2</ele>
        <time>2015-07-06T20:16:30.038Z</time>
      </trkpt>
      <trkpt lat="48.88712" lon="2.2524">
        <ele>88.9</ele>
        <time>2015-07-06T20:16:31.054Z</time>
      </trkpt>
      <trkpt lat="48.8871" lon="2.25252">
        <ele>88.2</ele>
        <time>2015-07-06T20:16:34.954Z</time>
      </trkpt>
      <trkpt lat="48.88709" lon="2.25255">
        <ele>88.2</ele>
        <time>2015-07-06T20:16:36.065Z</time>
      </trkpt>
      <trkpt lat="48.88705" lon="2.25267">
        <ele>87.4</ele>
        <time>2015-07-06T20:16:39.005Z</time>
      </trkpt>
      <trkpt lat="48.88703" lon="2.25271">
        <ele>87.6</ele>
        <time>2015-07-06T20:16:39.993Z</time>
      </trkpt>
      <trkpt lat="48.88701" lon="2.25281">
        <ele>87.3</ele>
        <time>2015-07-06T20:16:42.003Z</time>
      </trkpt>
      <trkpt lat="48.88699" lon="2.25286">
        <ele>86.9</ele>
        <time>2015-07-06T20:16:43.023Z</time>
      </trkpt>
      <trkpt lat="48.88696" lon="2.25295">
        <ele>86.8</ele>
        <time>2015-07-06T20:16:45.068Z</time>
      </trkpt>
      <trkpt lat="48.88695" lon="2.253">
        <ele>86.6</ele>
        <time>2015-07-06T20:16:46.008Z</time>
      </trkpt>
      <trkpt lat="48.88692" lon="2.25311">
        <ele>86</ele>
        <time>2015-07-06T20:16:49.020Z</time>
      </trkpt>
      <trkpt lat="48.8869" lon="2.25314">
        <ele>85.8</ele>
        <time>2015-07-06T20:16:50.075Z</time>
      </trkpt>
      <trkpt lat="48.88686" lon="2.25324">
        <ele>86.2</ele>
        <time>2015-07-06T20:16:53.108Z</time>
      </trkpt>
      <trkpt lat="48.88685" lon="2.25329">
        <ele>85.9</ele>
        <time>2015-07-06T20:16:54.021Z</time>
      </trkpt>
      <trkpt lat="48.88681" lon="2.2534">
        <ele>85.4</ele>
        <time>2015-07-06T20:16:56.975Z</time>
      </trkpt>
      <trkpt lat="48.8868" lon="2.25345">
        <ele>85.4</ele>
        <time>2015-07-06T20:16:58.020Z</time>
      </trkpt>
      <trkpt lat="48.88677" lon="2.25353">
        <ele>85.2</ele>
        <time>2015-07-06T20:17:00.127Z</time>
      </trkpt>
      <trkpt lat="48.88675" lon="2.25357">
        <ele>85.2</ele>
        <time>2015-07-06T20:17:01.018Z</time>
      </trkpt>
      <trkpt lat="48.88672" lon="2.25366">
        <ele>85.1</ele>
        <time>2015-07-06T20:17:03.060Z</time>
      </trkpt>
      <trkpt lat="48.88671" lon="2.25371">
        <ele>85.3</ele>
        <time>2015-07-06T20:17:04.013Z</time>
      </trkpt>
      <trkpt lat="48.88668" lon="2.2538">
        <ele>85</ele>
        <time>2015-07-06T20:17:06.032Z</time>
      </trkpt>
      <trkpt lat="48.88666" lon="2.25385">
        <ele>84.6</ele>
        <time>2015-07-06T20:17:07.090Z</time>
      </trkpt>
      <trkpt lat="48.88664" lon="2.25394">
        <ele>84.4</ele>
        <time>2015-07-06T20:17:09.013Z</time>
      </trkpt>
      <trkpt lat="48.88663" lon="2.25398">
        <ele>84.4</ele>
        <time>2015-07-06T20:17:10.014Z</time>
      </trkpt>
      <trkpt lat="48.8866" lon="2.25407">
        <ele>84.1</ele>
        <time>2015-07-06T20:17:12.023Z</time>
      </trkpt>
      <trkpt lat="48.88659" lon="2.25411">
        <ele>84</ele>
        <time>2015-07-06T20:17:13.050Z</time>
      </trkpt>
      <trkpt lat="48.88655" lon="2.2542">
        <ele>83.9</ele>
        <time>2015-07-06T20:17:14.992Z</time>
      </trkpt>
      <trkpt lat="48.88654" lon="2.25424">
        <ele>83.9</ele>
        <time>2015-07-06T20:17:16.023Z</time>
      </trkpt>
      <trkpt lat="48.8865" lon="2.25435">
        <ele>84.1</ele>
        <time>2015-07-06T20:17:17.992Z</time>
      </trkpt>
      <trkpt lat="48.88649" lon="2.25441">
        <ele>84.2</ele>
        <time>2015-07-06T20:17:19.021Z</time>
      </trkpt>
      <trkpt lat="48.88646" lon="2.25451">
        <ele>84.6</ele>
        <time>2015-07-06T20:17:21.052Z</time>
      </trkpt>
      <trkpt lat="48.88646" lon="2.25455">
        <ele>84.6</ele>
        <time>2015-07-06T20:17:22.092Z</time>
      </trkpt>
      <trkpt lat="48.88641" lon="2.25466">
        <ele>84.4</ele>
        <time>2015-07-06T20:17:25.018Z</time>
      </trkpt>
      <trkpt lat="48.8864" lon="2.2547">
        <ele>84.3</ele>
        <time>2015-07-06T20:17:26.130Z</time>
      </trkpt>
      <trkpt lat="48.88637" lon="2.25478">
        <ele>84.3</ele>
        <time>2015-07-06T20:17:27.996Z</time>
      </trkpt>
      <trkpt lat="48.88636" lon="2.25483">
        <ele>84.1</ele>
        <time>2015-07-06T20:17:29.025Z</time>
      </trkpt>
      <trkpt lat="48.88632" lon="2.25492">
        <ele>84.2</ele>
        <time>2015-07-06T20:17:30.989Z</time>
      </trkpt>
      <trkpt lat="48.88631" lon="2.25497">
        <ele>84.3</ele>
        <time>2015-07-06T20:17:32.086Z</time>
      </trkpt>
      <trkpt lat="48.88627" lon="2.25506">
        <ele>84.2</ele>
        <time>2015-07-06T20:17:34.023Z</time>
      </trkpt>
      <trkpt lat="48.88626" lon="2.25511">
        <ele>84.1</ele>
        <time>2015-07-06T20:17:35.141Z</time>
      </trkpt>
      <trkpt lat="48.88622" lon="2.25521">
        <ele>83.9</ele>
        <time>2015-07-06T20:17:36.996Z</time>
      </trkpt>
      <trkpt lat="48.88621" lon="2.25527">
        <ele>83.9</ele>
        <time>2015-07-06T20:17:38.071Z</time>
      </trkpt>
      <trkpt lat="48.88617" lon="2.25537">
        <ele>84.3</ele>
        <time>2015-07-06T20:17:39.993Z</time>
      </trkpt>
      <trkpt lat="48.88616" lon="2.25541">
        <ele>84.5</ele>
        <time>2015-07-06T20:17:41.025Z</time>
      </trkpt>
      <trkpt lat="48.88613" lon="2.25551">
        <ele>84.8</ele>
        <time>2015-07-06T20:17:43.045Z</time>
      </trkpt>
      <trkpt lat="48.88612" lon="2.25557">
        <ele>84.7</ele>
        <time>2015-07-06T20:17:44.080Z</time>
      </trkpt>
      <trkpt lat="48.8861" lon="2.25567">
        <ele>84.5</ele>
        <time>2015-07-06T20:17:45.994Z</time>
      </trkpt>
      <trkpt lat="48.88608" lon="2.25571">
        <ele>84.5</ele>
        <time>2015-07-06T20:17:47.014Z</time>
      </trkpt>
      <trkpt lat="48.88605" lon="2.2558">
        <ele>84.5</ele>
        <time>2015-07-06T20:17:49.041Z</time>
      </trkpt>
      <trkpt lat="48.88603" lon="2.25584">
        <ele>84.3</ele>
        <time>2015-07-06T20:17:50.087Z</time>
      </trkpt>
      <trkpt lat="48.886" lon="2.25594">
        <ele>84.8</ele>
        <time>2015-07-06T20:17:52.014Z</time>
      </trkpt>
      <trkpt lat="48.88598" lon="2.25599">
        <ele>84.9</ele>
        <time>2015-07-06T20:17:53.021Z</time>
      </trkpt>
      <trkpt lat="48.88595" lon="2.25607">
        <ele>85.1</ele>
        <time>2015-07-06T20:17:55.080Z</time>
      </trkpt>
      <trkpt lat="48.88593" lon="2.2561">
        <ele>85.2</ele>
        <time>2015-07-06T20:17:56.085Z</time>
      </trkpt>
      <trkpt lat="48.88587" lon="2.25617">
        <ele>85.4</ele>
        <time>2015-07-06T20:17:59.034Z</time>
      </trkpt>
      <trkpt lat="48.88585" lon="2.2562">
        <ele>85.5</ele>
        <time>2015-07-06T20:18:00.019Z</time>
      </trkpt>
      <trkpt lat="48.88583" lon="2.2563">
        <ele>85.4</ele>
        <time>2015-07-06T20:18:03.015Z</time>
      </trkpt>
      <trkpt lat="48.88583" lon="2.25633">
        <ele>85.5</ele>
        <time>2015-07-06T20:18:04.108Z</time>
      </trkpt>
      <trkpt lat="48.88579" lon="2.25646">
        <ele>85.6</ele>
        <time>2015-07-06T20:18:07.091Z</time>
      </trkpt>
      <trkpt lat="48.88577" lon="2.25651">
        <ele>85.5</ele>
        <time>2015-07-06T20:18:08.103Z</time>
      </trkpt>
      <trkpt lat="48.88573" lon="2.25662">
        <ele>85.2</ele>
        <time>2015-07-06T20:18:10.032Z</time>
      </trkpt>
      <trkpt lat="48.88571" lon="2.25668">
        <ele>85.3</ele>
        <time>2015-07-06T20:18:11.049Z</time>
      </trkpt>
      <trkpt lat="48.88569" lon="2.25674">
        <ele>85</ele>
        <time>2015-07-06T20:18:12.081Z</time>
      </trkpt>
      <trkpt lat="48.88566" lon="2.2568">
        <ele>84.9</ele>
        <time>2015-07-06T20:18:13.097Z</time>
      </trkpt>
      <trkpt lat="48.88563" lon="2.25689">
        <ele>84.9</ele>
        <time>2015-07-06T20:18:14.988Z</time>
      </trkpt>
      <trkpt lat="48.88562" lon="2.25693">
        <ele>85</ele>
        <time>2015-07-06T20:18:16.008Z</time>
      </trkpt>
      <trkpt lat="48.88554" lon="2.25694">
        <ele>85.5</ele>
        <time>2015-07-06T20:18:22.022Z</time>
      </trkpt>
      <trkpt lat="48.88549" lon="2.2569">
        <ele>84</ele>
        <time>2015-07-06T20:18:23.004Z</time>
      </trkpt>
      <trkpt lat="48.88545" lon="2.25685">
        <ele>83.4</ele>
        <time>2015-07-06T20:18:23.997Z</time>
      </trkpt>
      <trkpt lat="48.88543" lon="2.25679">
        <ele>83.6</ele>
        <time>2015-07-06T20:18:25.033Z</time>
      </trkpt>
      <trkpt lat="48.88538" lon="2.25668">
        <ele>83.5</ele>
        <time>2015-07-06T20:18:27.072Z</time>
      </trkpt>
      <trkpt lat="48.88537" lon="2.25662">
        <ele>83.4</ele>
        <time>2015-07-06T20:18:28.083Z</time>
      </trkpt>
      <trkpt lat="48.88534" lon="2.25656">
        <ele>83.1</ele>
        <time>2015-07-06T20:18:28.999Z</time>
      </trkpt>
      <trkpt lat="48.88531" lon="2.25649">
        <ele>82.7</ele>
        <time>2015-07-06T20:18:30.001Z</time>
      </trkpt>
      <trkpt lat="48.88525" lon="2.25643">
        <ele>83</ele>
        <time>2015-07-06T20:18:32.073Z</time>
      </trkpt>
      <trkpt lat="48.88522" lon="2.25642">
        <ele>83.5</ele>
        <time>2015-07-06T20:18:32.999Z</time>
      </trkpt>
      <trkpt lat="48.88516" lon="2.25643">
        <ele>84.3</ele>
        <time>2015-07-06T20:18:35.996Z</time>
      </trkpt>
      <trkpt lat="48.88513" lon="2.25647">
        <ele>84.5</ele>
        <time>2015-07-06T20:18:36.976Z</time>
      </trkpt>
      <trkpt lat="48.88507" lon="2.25653">
        <ele>85.1</ele>
        <time>2015-07-06T20:18:39.013Z</time>
      </trkpt>
      <trkpt lat="48.88505" lon="2.25657">
        <ele>85.4</ele>
        <time>2015-07-06T20:18:40.030Z</time>
      </trkpt>
      <trkpt lat="48.88501" lon="2.25668">
        <ele>86.2</ele>
        <time>2015-07-06T20:18:41.977Z</time>
      </trkpt>
      <trkpt lat="48.885" lon="2.25678">
        <ele>86.4</ele>
        <time>2015-07-06T20:18:43.045Z</time>
      </trkpt>
      <trkpt lat="48.88498" lon="2.25686">
        <ele>86.7</ele>
        <time>2015-07-06T20:18:44.021Z</time>
      </trkpt>
      <trkpt lat="48.88495" lon="2.25694">
        <ele>86.6</ele>
        <time>2015-07-06T20:18:45.040Z</time>
      </trkpt>
      <trkpt lat="48.88492" lon="2.25702">
        <ele>86.4</ele>
        <time>2015-07-06T20:18:46.051Z</time>
      </trkpt>
      <trkpt lat="48.8849" lon="2.25711">
        <ele>86.4</ele>
        <time>2015-07-06T20:18:46.963Z</time>
      </trkpt>
      <trkpt lat="48.88482" lon="2.25706">
        <ele>86.6</ele>
        <time>2015-07-06T20:18:51.042Z</time>
      </trkpt>
      <trkpt lat="48.88478" lon="2.25703">
        <ele>86.6</ele>
        <time>2015-07-06T20:18:51.984Z</time>
      </trkpt>
      <trkpt lat="48.88474" lon="2.25699">
        <ele>86.4</ele>
        <time>2015-07-06T20:18:52.967Z</time>
      </trkpt>
      <trkpt lat="48.88468" lon="2.25693">
        <ele>86.3</ele>
        <time>2015-07-06T20:18:53.958Z</time>
      </trkpt>
      <trkpt lat="48.88464" lon="2.25688">
        <ele>86.1</ele>
        <time>2015-07-06T20:18:54.991Z</time>
      </trkpt>
      <trkpt lat="48.8846" lon="2.25684">
        <ele>86.1</ele>
        <time>2015-07-06T20:18:56.004Z</time>
      </trkpt>
      <trkpt lat="48.88453" lon="2.2568">
        <ele>86.6</ele>
        <time>2015-07-06T20:18:58.039Z</time>
      </trkpt>
      <trkpt lat="48.88449" lon="2.25678">
        <ele>86.6</ele>
        <time>2015-07-06T20:18:58.986Z</time>
      </trkpt>
      <trkpt lat="48.88443" lon="2.2568">
        <ele>87.2</ele>
        <time>2015-07-06T20:19:00.967Z</time>
      </trkpt>
      <trkpt lat="48.88439" lon="2.25683">
        <ele>87.3</ele>
        <time>2015-07-06T20:19:01.998Z</time>
      </trkpt>
      <trkpt lat="48.88433" lon="2.25692">
        <ele>87.8</ele>
        <time>2015-07-06T20:19:04.023Z</time>
      </trkpt>
      <trkpt lat="48.8843" lon="2.25696">
        <ele>88</ele>
        <time>2015-07-06T20:19:04.945Z</time>
      </trkpt>
      <trkpt lat="48.88427" lon="2.257">
        <ele>88.3</ele>
        <time>2015-07-06T20:19:05.971Z</time>
      </trkpt>
      <trkpt lat="48.88422" lon="2.25707">
        <ele>88.4</ele>
        <time>2015-07-06T20:19:06.986Z</time>
      </trkpt>
      <trkpt lat="48.88418" lon="2.25714">
        <ele>88.6</ele>
        <time>2015-07-06T20:19:08.005Z</time>
      </trkpt>
      <trkpt lat="48.88414" lon="2.2572">
        <ele>88.8</ele>
        <time>2015-07-06T20:19:09.013Z</time>
      </trkpt>
      <trkpt lat="48.88411" lon="2.25725">
        <ele>88.8</ele>
        <time>2015-07-06T20:19:10.022Z</time>
      </trkpt>
      <trkpt lat="48.88408" lon="2.25732">
        <ele>88.9</ele>
        <time>2015-07-06T20:19:11.025Z</time>
      </trkpt>
      <trkpt lat="48.88409" lon="2.25742">
        <ele>87.4</ele>
        <time>2015-07-06T20:19:12.032Z</time>
      </trkpt>
      <trkpt lat="48.88407" lon="2.25747">
        <ele>86.9</ele>
        <time>2015-07-06T20:19:13.045Z</time>
      </trkpt>
      <trkpt lat="48.884" lon="2.25755">
        <ele>86.7</ele>
        <time>2015-07-06T20:19:16.026Z</time>
      </trkpt>
      <trkpt lat="48.88398" lon="2.25759">
        <ele>86.8</ele>
        <time>2015-07-06T20:19:17.039Z</time>
      </trkpt>
      <trkpt lat="48.88394" lon="2.25767">
        <ele>86.9</ele>
        <time>2015-07-06T20:19:18.943Z</time>
      </trkpt>
      <trkpt lat="48.8839" lon="2.25771">
        <ele>87</ele>
        <time>2015-07-06T20:19:20.013Z</time>
      </trkpt>
      <trkpt lat="48.88385" lon="2.25781">
        <ele>88</ele>
        <time>2015-07-06T20:19:22.047Z</time>
      </trkpt>
      <trkpt lat="48.88384" lon="2.25786">
        <ele>88.2</ele>
        <time>2015-07-06T20:19:23.058Z</time>
      </trkpt>
      <trkpt lat="48.88383" lon="2.25796">
        <ele>89.7</ele>
        <time>2015-07-06T20:19:24.987Z</time>
      </trkpt>
      <trkpt lat="48.88383" lon="2.25802">
        <ele>89.9</ele>
        <time>2015-07-06T20:19:26.105Z</time>
      </trkpt>
      <trkpt lat="48.88376" lon="2.25808">
        <ele>89.8</ele>
        <time>2015-07-06T20:19:29.053Z</time>
      </trkpt>
      <trkpt lat="48.88373" lon="2.25812">
        <ele>90</ele>
        <time>2015-07-06T20:19:29.985Z</time>
      </trkpt>
      <trkpt lat="48.88369" lon="2.25819">
        <ele>89.8</ele>
        <time>2015-07-06T20:19:32.064Z</time>
      </trkpt>
      <trkpt lat="48.88367" lon="2.25823">
        <ele>89.8</ele>
        <time>2015-07-06T20:19:33.046Z</time>
      </trkpt>
      <trkpt lat="48.88362" lon="2.25833">
        <ele>90.3</ele>
        <time>2015-07-06T20:19:35.008Z</time>
      </trkpt>
      <trkpt lat="48.88361" lon="2.25839">
        <ele>90.5</ele>
        <time>2015-07-06T20:19:35.933Z</time>
      </trkpt>
      <trkpt lat="48.88356" lon="2.25847">
        <ele>90.6</ele>
        <time>2015-07-06T20:19:37.995Z</time>
      </trkpt>
      <trkpt lat="48.88353" lon="2.25852">
        <ele>90.4</ele>
        <time>2015-07-06T20:19:39.007Z</time>
      </trkpt>
      <trkpt lat="48.88351" lon="2.25858">
        <ele>90.4</ele>
        <time>2015-07-06T20:19:39.934Z</time>
      </trkpt>
      <trkpt lat="48.8835" lon="2.25866">
        <ele>90.6</ele>
        <time>2015-07-06T20:19:41.007Z</time>
      </trkpt>
      <trkpt lat="48.88349" lon="2.25873">
        <ele>90.7</ele>
        <time>2015-07-06T20:19:41.971Z</time>
      </trkpt>
      <trkpt lat="48.88347" lon="2.25881">
        <ele>90.9</ele>
        <time>2015-07-06T20:19:42.999Z</time>
      </trkpt>
      <trkpt lat="48.88346" lon="2.25887">
        <ele>90.9</ele>
        <time>2015-07-06T20:19:44.776Z</time>
      </trkpt>
      <trkpt lat="48.88345" lon="2.25894">
        <ele>90.6</ele>
        <time>2015-07-06T20:19:44.937Z</time>
      </trkpt>
      <trkpt lat="48.88344" lon="2.25904">
        <ele>90.5</ele>
        <time>2015-07-06T20:19:45.993Z</time>
      </trkpt>
      <trkpt lat="48.88342" lon="2.25913">
        <ele>90.7</ele>
        <time>2015-07-06T20:19:47.007Z</time>
      </trkpt>
      <trkpt lat="48.88341" lon="2.25921">
        <ele>90.9</ele>
        <time>2015-07-06T20:19:48.032Z</time>
      </trkpt>
      <trkpt lat="48.88341" lon="2.2593">
        <ele>91</ele>
        <time>2015-07-06T20:19:49.043Z</time>
      </trkpt>
      <trkpt lat="48.8834" lon="2.25936">
        <ele>91.2</ele>
        <time>2015-07-06T20:19:50.079Z</time>
      </trkpt>
      <trkpt lat="48.88339" lon="2.25944">
        <ele>91.3</ele>
        <time>2015-07-06T20:19:50.962Z</time>
      </trkpt>
      <trkpt lat="48.88336" lon="2.25953">
        <ele>90.8</ele>
        <time>2015-07-06T20:19:52.974Z</time>
      </trkpt>
      <trkpt lat="48.88334" lon="2.25957">
        <ele>90.9</ele>
        <time>2015-07-06T20:19:54.035Z</time>
      </trkpt>
      <trkpt lat="48.88332" lon="2.25968">
        <ele>91.6</ele>
        <time>2015-07-06T20:19:55.998Z</time>
      </trkpt>
      <trkpt lat="48.88331" lon="2.25975">
        <ele>92.4</ele>
        <time>2015-07-06T20:19:57.006Z</time>
      </trkpt>
      <trkpt lat="48.88329" lon="2.25985">
        <ele>93</ele>
        <time>2015-07-06T20:19:59.031Z</time>
      </trkpt>
      <trkpt lat="48.88328" lon="2.25988">
        <ele>93.3</ele>
        <time>2015-07-06T20:20:00.073Z</time>
      </trkpt>
      <trkpt lat="48.88322" lon="2.25995">
        <ele>92.9</ele>
        <time>2015-07-06T20:20:03.019Z</time>
      </trkpt>
      <trkpt lat="48.88319" lon="2.25997">
        <ele>92.8</ele>
        <time>2015-07-06T20:20:04.038Z</time>
      </trkpt>
      <trkpt lat="48.88312" lon="2.26007">
        <ele>92.4</ele>
        <time>2015-07-06T20:20:05.989Z</time>
      </trkpt>
      <trkpt lat="48.88309" lon="2.26011">
        <ele>92.4</ele>
        <time>2015-07-06T20:20:06.999Z</time>
      </trkpt>
      <trkpt lat="48.88304" lon="2.26016">
        <ele>92.3</ele>
        <time>2015-07-06T20:20:08.234Z</time>
      </trkpt>
      <trkpt lat="48.88301" lon="2.2602">
        <ele>92.3</ele>
        <time>2015-07-06T20:20:08.975Z</time>
      </trkpt>
      <trkpt lat="48.88294" lon="2.26028">
        <ele>91.9</ele>
        <time>2015-07-06T20:20:10.976Z</time>
      </trkpt>
      <trkpt lat="48.8829" lon="2.26033">
        <ele>91.8</ele>
        <time>2015-07-06T20:20:11.979Z</time>
      </trkpt>
      <trkpt lat="48.88284" lon="2.26041">
        <ele>91.8</ele>
        <time>2015-07-06T20:20:14.452Z</time>
      </trkpt>
      <trkpt lat="48.8828" lon="2.26045">
        <ele>91.8</ele>
        <time>2015-07-06T20:20:15.040Z</time>
      </trkpt>
      <trkpt lat="48.88273" lon="2.26054">
        <ele>91.7</ele>
        <time>2015-07-06T20:20:17.006Z</time>
      </trkpt>
      <trkpt lat="48.8827" lon="2.26059">
        <ele>91.4</ele>
        <time>2015-07-06T20:20:18.065Z</time>
      </trkpt>
      <trkpt lat="48.88266" lon="2.26063">
        <ele>91.5</ele>
        <time>2015-07-06T20:20:19.657Z</time>
      </trkpt>
      <trkpt lat="48.88262" lon="2.26067">
        <ele>91.4</ele>
        <time>2015-07-06T20:20:20.069Z</time>
      </trkpt>
      <trkpt lat="48.88256" lon="2.26076">
        <ele>91.2</ele>
        <time>2015-07-06T20:20:21.997Z</time>
      </trkpt>
      <trkpt lat="48.88251" lon="2.26077">
        <ele>92.4</ele>
        <time>2015-07-06T20:20:23.071Z</time>
      </trkpt>
      <trkpt lat="48.88244" lon="2.26081">
        <ele>93.3</ele>
        <time>2015-07-06T20:20:24.966Z</time>
      </trkpt>
      <trkpt lat="48.88239" lon="2.26083">
        <ele>93.9</ele>
        <time>2015-07-06T20:20:26.028Z</time>
      </trkpt>
      <trkpt lat="48.88231" lon="2.26088">
        <ele>94.3</ele>
        <time>2015-07-06T20:20:28.033Z</time>
      </trkpt>
      <trkpt lat="48.88227" lon="2.26091">
        <ele>94.7</ele>
        <time>2015-07-06T20:20:29.059Z</time>
      </trkpt>
      <trkpt lat="48.8822" lon="2.26098">
        <ele>95.3</ele>
        <time>2015-07-06T20:20:30.995Z</time>
      </trkpt>
      <trkpt lat="48.88216" lon="2.26101">
        <ele>95.6</ele>
        <time>2015-07-06T20:20:32.113Z</time>
      </trkpt>
      <trkpt lat="48.88213" lon="2.26107">
        <ele>96.2</ele>
        <time>2015-07-06T20:20:32.999Z</time>
      </trkpt>
      <trkpt lat="48.88209" lon="2.2611">
        <ele>95.9</ele>
        <time>2015-07-06T20:20:33.996Z</time>
      </trkpt>
      <trkpt lat="48.88205" lon="2.26114">
        <ele>95.1</ele>
        <time>2015-07-06T20:20:35.720Z</time>
      </trkpt>
      <trkpt lat="48.88201" lon="2.26118">
        <ele>94.8</ele>
        <time>2015-07-06T20:20:36.005Z</time>
      </trkpt>
      <trkpt lat="48.88196" lon="2.26121">
        <ele>95.2</ele>
        <time>2015-07-06T20:20:37.019Z</time>
      </trkpt>
      <trkpt lat="48.88192" lon="2.26125">
        <ele>94.7</ele>
        <time>2015-07-06T20:20:38.065Z</time>
      </trkpt>
      <trkpt lat="48.88188" lon="2.2613">
        <ele>94.1</ele>
        <time>2015-07-06T20:20:39.074Z</time>
      </trkpt>
      <trkpt lat="48.88183" lon="2.26133">
        <ele>94</ele>
        <time>2015-07-06T20:20:39.993Z</time>
      </trkpt>
      <trkpt lat="48.88179" lon="2.26138">
        <ele>93.6</ele>
        <time>2015-07-06T20:20:40.980Z</time>
      </trkpt>
      <trkpt lat="48.88175" lon="2.26143">
        <ele>93.6</ele>
        <time>2015-07-06T20:20:41.995Z</time>
      </trkpt>
      <trkpt lat="48.8817" lon="2.26148">
        <ele>92.5</ele>
        <time>2015-07-06T20:20:43.014Z</time>
      </trkpt>
      <trkpt lat="48.88166" lon="2.26153">
        <ele>91.8</ele>
        <time>2015-07-06T20:20:44.110Z</time>
      </trkpt>
      <trkpt lat="48.88161" lon="2.26157">
        <ele>91.1</ele>
        <time>2015-07-06T20:20:45.778Z</time>
      </trkpt>
      <trkpt lat="48.88157" lon="2.26162">
        <ele>90.7</ele>
        <time>2015-07-06T20:20:45.984Z</time>
      </trkpt>
      <trkpt lat="48.88152" lon="2.26166">
        <ele>90.4</ele>
        <time>2015-07-06T20:20:47.019Z</time>
      </trkpt>
      <trkpt lat="48.88148" lon="2.26169">
        <ele>90.4</ele>
        <time>2015-07-06T20:20:48.046Z</time>
      </trkpt>
      <trkpt lat="48.88144" lon="2.26174">
        <ele>91</ele>
        <time>2015-07-06T20:20:49.062Z</time>
      </trkpt>
      <trkpt lat="48.8814" lon="2.26179">
        <ele>91.6</ele>
        <time>2015-07-06T20:20:50.068Z</time>
      </trkpt>
      <trkpt lat="48.88138" lon="2.26187">
        <ele>91.2</ele>
        <time>2015-07-06T20:20:51.002Z</time>
      </trkpt>
      <trkpt lat="48.88139" lon="2.26196">
        <ele>90.2</ele>
        <time>2015-07-06T20:20:51.980Z</time>
      </trkpt>
      <trkpt lat="48.88139" lon="2.26205">
        <ele>89.6</ele>
        <time>2015-07-06T20:20:52.980Z</time>
      </trkpt>
      <trkpt lat="48.88138" lon="2.26211">
        <ele>89.5</ele>
        <time>2015-07-06T20:20:54.078Z</time>
      </trkpt>
      <trkpt lat="48.88138" lon="2.26218">
        <ele>89.6</ele>
        <time>2015-07-06T20:20:54.992Z</time>
      </trkpt>
      <trkpt lat="48.88137" lon="2.26225">
        <ele>89.7</ele>
        <time>2015-07-06T20:20:56.068Z</time>
      </trkpt>
      <trkpt lat="48.88137" lon="2.26239">
        <ele>89.5</ele>
        <time>2015-07-06T20:20:58.024Z</time>
      </trkpt>
      <trkpt lat="48.88136" lon="2.26246">
        <ele>89</ele>
        <time>2015-07-06T20:20:59.052Z</time>
      </trkpt>
      <trkpt lat="48.88136" lon="2.26259">
        <ele>89.5</ele>
        <time>2015-07-06T20:21:00.984Z</time>
      </trkpt>
      <trkpt lat="48.88135" lon="2.26266">
        <ele>89.7</ele>
        <time>2015-07-06T20:21:01.995Z</time>
      </trkpt>
      <trkpt lat="48.88134" lon="2.26273">
        <ele>89.9</ele>
        <time>2015-07-06T20:21:03.005Z</time>
      </trkpt>
      <trkpt lat="48.88133" lon="2.26281">
        <ele>90.1</ele>
        <time>2015-07-06T20:21:04.009Z</time>
      </trkpt>
      <trkpt lat="48.88132" lon="2.26289">
        <ele>90</ele>
        <time>2015-07-06T20:21:05.021Z</time>
      </trkpt>
      <trkpt lat="48.88131" lon="2.26296">
        <ele>89.7</ele>
        <time>2015-07-06T20:21:06.017Z</time>
      </trkpt>
      <trkpt lat="48.88131" lon="2.26303">
        <ele>89.7</ele>
        <time>2015-07-06T20:21:07.032Z</time>
      </trkpt>
      <trkpt lat="48.8813" lon="2.26311">
        <ele>89.6</ele>
        <time>2015-07-06T20:21:08.045Z</time>
      </trkpt>
      <trkpt lat="48.8813" lon="2.26318">
        <ele>89.6</ele>
        <time>2015-07-06T20:21:08.960Z</time>
      </trkpt>
      <trkpt lat="48.8813" lon="2.26326">
        <ele>89.6</ele>
        <time>2015-07-06T20:21:10.010Z</time>
      </trkpt>
      <trkpt lat="48.8813" lon="2.26333">
        <ele>89.8</ele>
        <time>2015-07-06T20:21:11.029Z</time>
      </trkpt>
      <trkpt lat="48.88131" lon="2.26341">
        <ele>89.5</ele>
        <time>2015-07-06T20:21:12.070Z</time>
      </trkpt>
      <trkpt lat="48.88132" lon="2.26348">
        <ele>89.5</ele>
        <time>2015-07-06T20:21:13.106Z</time>
      </trkpt>
      <trkpt lat="48.8813" lon="2.26357">
        <ele>89.7</ele>
        <time>2015-07-06T20:21:14.033Z</time>
      </trkpt>
      <trkpt lat="48.88128" lon="2.26368">
        <ele>89.8</ele>
        <time>2015-07-06T20:21:15.021Z</time>
      </trkpt>
      <trkpt lat="48.88126" lon="2.26379">
        <ele>89.8</ele>
        <time>2015-07-06T20:21:16.029Z</time>
      </trkpt>
      <trkpt lat="48.88125" lon="2.26388">
        <ele>89.8</ele>
        <time>2015-07-06T20:21:16.955Z</time>
      </trkpt>
      <trkpt lat="48.88124" lon="2.26398">
        <ele>89.8</ele>
        <time>2015-07-06T20:21:17.978Z</time>
      </trkpt>
      <trkpt lat="48.88122" lon="2.26409">
        <ele>89.6</ele>
        <time>2015-07-06T20:21:19.016Z</time>
      </trkpt>
      <trkpt lat="48.8812" lon="2.26419">
        <ele>89.4</ele>
        <time>2015-07-06T20:21:20.053Z</time>
      </trkpt>
      <trkpt lat="48.88119" lon="2.26428">
        <ele>89</ele>
        <time>2015-07-06T20:21:20.982Z</time>
      </trkpt>
      <trkpt lat="48.88117" lon="2.26438">
        <ele>88.5</ele>
        <time>2015-07-06T20:21:21.975Z</time>
      </trkpt>
      <trkpt lat="48.88115" lon="2.26448">
        <ele>87.9</ele>
        <time>2015-07-06T20:21:22.986Z</time>
      </trkpt>
      <trkpt lat="48.88114" lon="2.26457">
        <ele>87.7</ele>
        <time>2015-07-06T20:21:23.994Z</time>
      </trkpt>
      <trkpt lat="48.88112" lon="2.26465">
        <ele>87.7</ele>
        <time>2015-07-06T20:21:25.008Z</time>
      </trkpt>
      <trkpt lat="48.8811" lon="2.26473">
        <ele>87.5</ele>
        <time>2015-07-06T20:21:26.024Z</time>
      </trkpt>
      <trkpt lat="48.88109" lon="2.26483">
        <ele>87.4</ele>
        <time>2015-07-06T20:21:27.036Z</time>
      </trkpt>
      <trkpt lat="48.88108" lon="2.26491">
        <ele>87</ele>
        <time>2015-07-06T20:21:27.945Z</time>
      </trkpt>
      <trkpt lat="48.88108" lon="2.26498">
        <ele>87.5</ele>
        <time>2015-07-06T20:21:29.054Z</time>
      </trkpt>
      <trkpt lat="48.88106" lon="2.26506">
        <ele>87.7</ele>
        <time>2015-07-06T20:21:30.066Z</time>
      </trkpt>
      <trkpt lat="48.88104" lon="2.26515">
        <ele>87.8</ele>
        <time>2015-07-06T20:21:30.983Z</time>
      </trkpt>
      <trkpt lat="48.88103" lon="2.26523">
        <ele>87.9</ele>
        <time>2015-07-06T20:21:32.028Z</time>
      </trkpt>
      <trkpt lat="48.88103" lon="2.26536">
        <ele>87.9</ele>
        <time>2015-07-06T20:21:34.041Z</time>
      </trkpt>
      <trkpt lat="48.88102" lon="2.26543">
        <ele>87.5</ele>
        <time>2015-07-06T20:21:35.046Z</time>
      </trkpt>
      <trkpt lat="48.88101" lon="2.26551">
        <ele>86.9</ele>
        <time>2015-07-06T20:21:35.984Z</time>
      </trkpt>
      <trkpt lat="48.881" lon="2.26558">
        <ele>86.7</ele>
        <time>2015-07-06T20:21:36.986Z</time>
      </trkpt>
      <trkpt lat="48.881" lon="2.26566">
        <ele>86.8</ele>
        <time>2015-07-06T20:21:38.029Z</time>
      </trkpt>
      <trkpt lat="48.88099" lon="2.26574">
        <ele>86.7</ele>
        <time>2015-07-06T20:21:39.039Z</time>
      </trkpt>
      <trkpt lat="48.88098" lon="2.26582">
        <ele>86.4</ele>
        <time>2015-07-06T20:21:40.050Z</time>
      </trkpt>
      <trkpt lat="48.88098" lon="2.26588">
        <ele>86.4</ele>
        <time>2015-07-06T20:21:41.051Z</time>
      </trkpt>
      <trkpt lat="48.88094" lon="2.26599">
        <ele>86.8</ele>
        <time>2015-07-06T20:21:42.981Z</time>
      </trkpt>
      <trkpt lat="48.88094" lon="2.26605">
        <ele>87.2</ele>
        <time>2015-07-06T20:21:44.083Z</time>
      </trkpt>
      <trkpt lat="48.88092" lon="2.26613">
        <ele>87.4</ele>
        <time>2015-07-06T20:21:44.989Z</time>
      </trkpt>
      <trkpt lat="48.88091" lon="2.26619">
        <ele>87.6</ele>
        <time>2015-07-06T20:21:45.997Z</time>
      </trkpt>
      <trkpt lat="48.88091" lon="2.26628">
        <ele>88.1</ele>
        <time>2015-07-06T20:21:47.008Z</time>
      </trkpt>
      <trkpt lat="48.88091" lon="2.26638">
        <ele>88.7</ele>
        <time>2015-07-06T20:21:48.014Z</time>
      </trkpt>
      <trkpt lat="48.8809" lon="2.26647">
        <ele>88.8</ele>
        <time>2015-07-06T20:21:49.020Z</time>
      </trkpt>
      <trkpt lat="48.88089" lon="2.26655">
        <ele>88.7</ele>
        <time>2015-07-06T20:21:50.028Z</time>
      </trkpt>
      <trkpt lat="48.88088" lon="2.26663">
        <ele>89</ele>
        <time>2015-07-06T20:21:51.031Z</time>
      </trkpt>
      <trkpt lat="48.88088" lon="2.26672">
        <ele>89.4</ele>
        <time>2015-07-06T20:21:52.035Z</time>
      </trkpt>
      <trkpt lat="48.88088" lon="2.26681">
        <ele>89.7</ele>
        <time>2015-07-06T20:21:53.050Z</time>
      </trkpt>
      <trkpt lat="48.88088" lon="2.2669">
        <ele>90.1</ele>
        <time>2015-07-06T20:21:53.978Z</time>
      </trkpt>
      <trkpt lat="48.88089" lon="2.267">
        <ele>90.5</ele>
        <time>2015-07-06T20:21:54.971Z</time>
      </trkpt>
      <trkpt lat="48.88089" lon="2.2671">
        <ele>90.9</ele>
        <time>2015-07-06T20:21:56.020Z</time>
      </trkpt>
      <trkpt lat="48.88088" lon="2.26718">
        <ele>91.1</ele>
        <time>2015-07-06T20:21:57.018Z</time>
      </trkpt>
      <trkpt lat="48.88088" lon="2.26726">
        <ele>91.3</ele>
        <time>2015-07-06T20:21:58.022Z</time>
      </trkpt>
      <trkpt lat="48.88087" lon="2.26735">
        <ele>91.7</ele>
        <time>2015-07-06T20:21:59.029Z</time>
      </trkpt>
      <trkpt lat="48.88086" lon="2.26742">
        <ele>92.1</ele>
        <time>2015-07-06T20:22:00.066Z</time>
      </trkpt>
      <trkpt lat="48.88085" lon="2.26749">
        <ele>92.6</ele>
        <time>2015-07-06T20:22:00.987Z</time>
      </trkpt>
      <trkpt lat="48.88084" lon="2.26757">
        <ele>92.8</ele>
        <time>2015-07-06T20:22:02.073Z</time>
      </trkpt>
      <trkpt lat="48.88083" lon="2.26766">
        <ele>92.8</ele>
        <time>2015-07-06T20:22:02.974Z</time>
      </trkpt>
      <trkpt lat="48.88083" lon="2.26775">
        <ele>92.8</ele>
        <time>2015-07-06T20:22:03.983Z</time>
      </trkpt>
      <trkpt lat="48.88082" lon="2.26784">
        <ele>93.1</ele>
        <time>2015-07-06T20:22:04.995Z</time>
      </trkpt>
      <trkpt lat="48.88081" lon="2.26793">
        <ele>93.4</ele>
        <time>2015-07-06T20:22:05.997Z</time>
      </trkpt>
      <trkpt lat="48.88078" lon="2.26802">
        <ele>93.2</ele>
        <time>2015-07-06T20:22:07.010Z</time>
      </trkpt>
      <trkpt lat="48.88076" lon="2.26811">
        <ele>93.6</ele>
        <time>2015-07-06T20:22:08.022Z</time>
      </trkpt>
      <trkpt lat="48.88074" lon="2.26819">
        <ele>94.1</ele>
        <time>2015-07-06T20:22:09.022Z</time>
      </trkpt>
      <trkpt lat="48.88072" lon="2.26827">
        <ele>94.7</ele>
        <time>2015-07-06T20:22:10.028Z</time>
      </trkpt>
      <trkpt lat="48.8807" lon="2.26835">
        <ele>94.9</ele>
        <time>2015-07-06T20:22:11.038Z</time>
      </trkpt>
      <trkpt lat="48.88069" lon="2.26843">
        <ele>95.4</ele>
        <time>2015-07-06T20:22:12.040Z</time>
      </trkpt>
      <trkpt lat="48.88068" lon="2.2685">
        <ele>95.8</ele>
        <time>2015-07-06T20:22:13.078Z</time>
      </trkpt>
      <trkpt lat="48.88066" lon="2.26858">
        <ele>96.1</ele>
        <time>2015-07-06T20:22:14.079Z</time>
      </trkpt>
      <trkpt lat="48.88065" lon="2.26865">
        <ele>96.5</ele>
        <time>2015-07-06T20:22:14.947Z</time>
      </trkpt>
      <trkpt lat="48.88063" lon="2.26871">
        <ele>96.5</ele>
        <time>2015-07-06T20:22:16.004Z</time>
      </trkpt>
      <trkpt lat="48.88062" lon="2.26877">
        <ele>96.6</ele>
        <time>2015-07-06T20:22:16.984Z</time>
      </trkpt>
      <trkpt lat="48.88062" lon="2.26888">
        <ele>96.5</ele>
        <time>2015-07-06T20:22:18.008Z</time>
      </trkpt>
      <trkpt lat="48.88063" lon="2.26898">
        <ele>96.2</ele>
        <time>2015-07-06T20:22:19.016Z</time>
      </trkpt>
      <trkpt lat="48.88062" lon="2.26906">
        <ele>96.4</ele>
        <time>2015-07-06T20:22:20.027Z</time>
      </trkpt>
      <trkpt lat="48.8806" lon="2.26918">
        <ele>96.4</ele>
        <time>2015-07-06T20:22:22.038Z</time>
      </trkpt>
      <trkpt lat="48.8806" lon="2.26925">
        <ele>96.6</ele>
        <time>2015-07-06T20:22:23.108Z</time>
      </trkpt>
      <trkpt lat="48.88059" lon="2.26933">
        <ele>96.4</ele>
        <time>2015-07-06T20:22:23.978Z</time>
      </trkpt>
      <trkpt lat="48.88059" lon="2.2694">
        <ele>96.7</ele>
        <time>2015-07-06T20:22:24.988Z</time>
      </trkpt>
      <trkpt lat="48.88059" lon="2.26948">
        <ele>96.7</ele>
        <time>2015-07-06T20:22:26.077Z</time>
      </trkpt>
      <trkpt lat="48.88057" lon="2.26956">
        <ele>96.9</ele>
        <time>2015-07-06T20:22:26.980Z</time>
      </trkpt>
      <trkpt lat="48.88057" lon="2.26966">
        <ele>96.9</ele>
        <time>2015-07-06T20:22:27.994Z</time>
      </trkpt>
      <trkpt lat="48.88057" lon="2.26976">
        <ele>96.4</ele>
        <time>2015-07-06T20:22:29.005Z</time>
      </trkpt>
      <trkpt lat="48.88056" lon="2.26985">
        <ele>96.9</ele>
        <time>2015-07-06T20:22:30.048Z</time>
      </trkpt>
      <trkpt lat="48.88055" lon="2.26993">
        <ele>97</ele>
        <time>2015-07-06T20:22:30.965Z</time>
      </trkpt>
      <trkpt lat="48.88053" lon="2.27002">
        <ele>97.6</ele>
        <time>2015-07-06T20:22:32.011Z</time>
      </trkpt>
      <trkpt lat="48.88051" lon="2.27012">
        <ele>98</ele>
        <time>2015-07-06T20:22:33.024Z</time>
      </trkpt>
      <trkpt lat="48.8805" lon="2.27023">
        <ele>98.8</ele>
        <time>2015-07-06T20:22:34.033Z</time>
      </trkpt>
      <trkpt lat="48.8805" lon="2.27032">
        <ele>99.3</ele>
        <time>2015-07-06T20:22:35.040Z</time>
      </trkpt>
      <trkpt lat="48.88051" lon="2.2704">
        <ele>99.5</ele>
        <time>2015-07-06T20:22:36.043Z</time>
      </trkpt>
      <trkpt lat="48.8805" lon="2.27048">
        <ele>99.2</ele>
        <time>2015-07-06T20:22:37.051Z</time>
      </trkpt>
      <trkpt lat="48.88052" lon="2.27059">
        <ele>97.9</ele>
        <time>2015-07-06T20:22:38.068Z</time>
      </trkpt>
      <trkpt lat="48.88051" lon="2.27065">
        <ele>98.2</ele>
        <time>2015-07-06T20:22:39.002Z</time>
      </trkpt>
      <trkpt lat="48.88049" lon="2.27078">
        <ele>98.6</ele>
        <time>2015-07-06T20:22:41.011Z</time>
      </trkpt>
      <trkpt lat="48.88046" lon="2.27084">
        <ele>98.9</ele>
        <time>2015-07-06T20:22:41.952Z</time>
      </trkpt>
      <trkpt lat="48.88043" lon="2.27089">
        <ele>98.8</ele>
        <time>2015-07-06T20:22:42.974Z</time>
      </trkpt>
      <trkpt lat="48.8804" lon="2.27096">
        <ele>98.6</ele>
        <time>2015-07-06T20:22:44.020Z</time>
      </trkpt>
      <trkpt lat="48.88038" lon="2.27103">
        <ele>98.8</ele>
        <time>2015-07-06T20:22:45.014Z</time>
      </trkpt>
      <trkpt lat="48.88037" lon="2.27111">
        <ele>99.4</ele>
        <time>2015-07-06T20:22:46.026Z</time>
      </trkpt>
      <trkpt lat="48.88036" lon="2.27119">
        <ele>99.4</ele>
        <time>2015-07-06T20:22:46.977Z</time>
      </trkpt>
      <trkpt lat="48.88035" lon="2.2713">
        <ele>100.2</ele>
        <time>2015-07-06T20:22:47.990Z</time>
      </trkpt>
      <trkpt lat="48.88033" lon="2.27139">
        <ele>100.5</ele>
        <time>2015-07-06T20:22:49.011Z</time>
      </trkpt>
      <trkpt lat="48.88032" lon="2.27146">
        <ele>100.3</ele>
        <time>2015-07-06T20:22:50.058Z</time>
      </trkpt>
      <trkpt lat="48.88029" lon="2.27157">
        <ele>100.1</ele>
        <time>2015-07-06T20:22:52.069Z</time>
      </trkpt>
      <trkpt lat="48.88026" lon="2.27159">
        <ele>100.4</ele>
        <time>2015-07-06T20:22:53.086Z</time>
      </trkpt>
      <trkpt lat="48.88025" lon="2.27156">
        <ele>99.7</ele>
        <time>2015-07-06T20:22:53.987Z</time>
      </trkpt>
      <trkpt lat="48.88025" lon="2.27153">
        <ele>99</ele>
        <time>2015-07-06T20:22:55.003Z</time>
      </trkpt>
      <trkpt lat="48.88025" lon="2.27151">
        <ele>98.7</ele>
        <time>2015-07-06T20:23:10.950Z</time>
      </trkpt>
      <trkpt lat="48.88026" lon="2.2715">
        <ele>97.6</ele>
        <time>2015-07-06T20:23:11.956Z</time>
      </trkpt>
      <trkpt lat="48.88029" lon="2.27161">
        <ele>98.2</ele>
        <time>2015-07-06T20:23:14.045Z</time>
      </trkpt>
      <trkpt lat="48.88031" lon="2.27168">
        <ele>97.2</ele>
        <time>2015-07-06T20:23:14.952Z</time>
      </trkpt>
      <trkpt lat="48.88033" lon="2.27175">
        <ele>96.8</ele>
        <time>2015-07-06T20:23:15.981Z</time>
      </trkpt>
      <trkpt lat="48.88035" lon="2.27183">
        <ele>95.4</ele>
        <time>2015-07-06T20:23:16.973Z</time>
      </trkpt>
      <trkpt lat="48.88038" lon="2.27195">
        <ele>95</ele>
        <time>2015-07-06T20:23:18.981Z</time>
      </trkpt>
      <trkpt lat="48.88038" lon="2.27201">
        <ele>95.4</ele>
        <time>2015-07-06T20:23:20.110Z</time>
      </trkpt>
      <trkpt lat="48.88038" lon="2.27207">
        <ele>95.6</ele>
        <time>2015-07-06T20:23:20.981Z</time>
      </trkpt>
      <trkpt lat="48.88036" lon="2.27215">
        <ele>95.9</ele>
        <time>2015-07-06T20:23:22Z</time>
      </trkpt>
      <trkpt lat="48.88036" lon="2.27224">
        <ele>95.8</ele>
        <time>2015-07-06T20:23:23.023Z</time>
      </trkpt>
      <trkpt lat="48.88032" lon="2.27233">
        <ele>95.5</ele>
        <time>2015-07-06T20:23:24.032Z</time>
      </trkpt>
      <trkpt lat="48.88031" lon="2.27243">
        <ele>95.6</ele>
        <time>2015-07-06T20:23:24.969Z</time>
      </trkpt>
      <trkpt lat="48.8803" lon="2.27251">
        <ele>95.9</ele>
        <time>2015-07-06T20:23:26.077Z</time>
      </trkpt>
      <trkpt lat="48.88027" lon="2.27259">
        <ele>96.3</ele>
        <time>2015-07-06T20:23:26.965Z</time>
      </trkpt>
      <trkpt lat="48.88024" lon="2.27269">
        <ele>96.6</ele>
        <time>2015-07-06T20:23:27.975Z</time>
      </trkpt>
      <trkpt lat="48.88023" lon="2.27278">
        <ele>96.8</ele>
        <time>2015-07-06T20:23:28.977Z</time>
      </trkpt>
      <trkpt lat="48.88021" lon="2.27287">
        <ele>96.7</ele>
        <time>2015-07-06T20:23:29.976Z</time>
      </trkpt>
      <trkpt lat="48.8802" lon="2.27296">
        <ele>96.6</ele>
        <time>2015-07-06T20:23:30.987Z</time>
      </trkpt>
      <trkpt lat="48.88018" lon="2.27306">
        <ele>96.3</ele>
        <time>2015-07-06T20:23:32.016Z</time>
      </trkpt>
      <trkpt lat="48.88018" lon="2.27317">
        <ele>96.4</ele>
        <time>2015-07-06T20:23:33.049Z</time>
      </trkpt>
      <trkpt lat="48.88017" lon="2.27326">
        <ele>96.3</ele>
        <time>2015-07-06T20:23:34.055Z</time>
      </trkpt>
      <trkpt lat="48.88016" lon="2.27337">
        <ele>96.3</ele>
        <time>2015-07-06T20:23:35.003Z</time>
      </trkpt>
      <trkpt lat="48.88015" lon="2.27348">
        <ele>96</ele>
        <time>2015-07-06T20:23:36.009Z</time>
      </trkpt>
      <trkpt lat="48.88015" lon="2.27358">
        <ele>95.3</ele>
        <time>2015-07-06T20:23:37.091Z</time>
      </trkpt>
      <trkpt lat="48.88015" lon="2.27369">
        <ele>94.6</ele>
        <time>2015-07-06T20:23:38.084Z</time>
      </trkpt>
      <trkpt lat="48.88014" lon="2.27379">
        <ele>94.3</ele>
        <time>2015-07-06T20:23:39.033Z</time>
      </trkpt>
      <trkpt lat="48.88013" lon="2.27388">
        <ele>93.7</ele>
        <time>2015-07-06T20:23:40.042Z</time>
      </trkpt>
      <trkpt lat="48.88014" lon="2.27398">
        <ele>93.7</ele>
        <time>2015-07-06T20:23:40.960Z</time>
      </trkpt>
      <trkpt lat="48.88015" lon="2.27406">
        <ele>93.7</ele>
        <time>2015-07-06T20:23:41.969Z</time>
      </trkpt>
      <trkpt lat="48.88017" lon="2.27413">
        <ele>93.8</ele>
        <time>2015-07-06T20:23:43.002Z</time>
      </trkpt>
      <trkpt lat="48.88018" lon="2.2742">
        <ele>94.1</ele>
        <time>2015-07-06T20:23:44.015Z</time>
      </trkpt>
      <trkpt lat="48.88019" lon="2.27428">
        <ele>94.7</ele>
        <time>2015-07-06T20:23:45.034Z</time>
      </trkpt>
      <trkpt lat="48.88019" lon="2.27435">
        <ele>95.1</ele>
        <time>2015-07-06T20:23:46.093Z</time>
      </trkpt>
      <trkpt lat="48.88019" lon="2.27448">
        <ele>95.4</ele>
        <time>2015-07-06T20:23:47.979Z</time>
      </trkpt>
      <trkpt lat="48.88016" lon="2.27454">
        <ele>95.4</ele>
        <time>2015-07-06T20:23:49.010Z</time>
      </trkpt>
      <trkpt lat="48.88012" lon="2.27461">
        <ele>94.8</ele>
        <time>2015-07-06T20:23:50.045Z</time>
      </trkpt>
      <trkpt lat="48.88008" lon="2.27468">
        <ele>94.4</ele>
        <time>2015-07-06T20:23:51.058Z</time>
      </trkpt>
      <trkpt lat="48.88005" lon="2.27475">
        <ele>93.9</ele>
        <time>2015-07-06T20:23:52.067Z</time>
      </trkpt>
      <trkpt lat="48.88003" lon="2.27482">
        <ele>93.5</ele>
        <time>2015-07-06T20:23:52.987Z</time>
      </trkpt>
      <trkpt lat="48.88001" lon="2.27489">
        <ele>93.6</ele>
        <time>2015-07-06T20:23:53.986Z</time>
      </trkpt>
      <trkpt lat="48.88" lon="2.27495">
        <ele>93.5</ele>
        <time>2015-07-06T20:23:54.996Z</time>
      </trkpt>
      <trkpt lat="48.87998" lon="2.27506">
        <ele>94.4</ele>
        <time>2015-07-06T20:23:57.039Z</time>
      </trkpt>
      <trkpt lat="48.87999" lon="2.2751">
        <ele>95</ele>
        <time>2015-07-06T20:23:58.057Z</time>
      </trkpt>
      <trkpt lat="48.87997" lon="2.2752">
        <ele>96.2</ele>
        <time>2015-07-06T20:23:59.992Z</time>
      </trkpt>
      <trkpt lat="48.87996" lon="2.27526">
        <ele>96.6</ele>
        <time>2015-07-06T20:24:01.015Z</time>
      </trkpt>
      <trkpt lat="48.87993" lon="2.27535">
        <ele>97.5</ele>
        <time>2015-07-06T20:24:03.004Z</time>
      </trkpt>
      <trkpt lat="48.87992" lon="2.27541">
        <ele>97.5</ele>
        <time>2015-07-06T20:24:04.265Z</time>
      </trkpt>
      <trkpt lat="48.87988" lon="2.27552">
        <ele>97.6</ele>
        <time>2015-07-06T20:24:05.980Z</time>
      </trkpt>
      <trkpt lat="48.87986" lon="2.27557">
        <ele>97.8</ele>
        <time>2015-07-06T20:24:07.042Z</time>
      </trkpt>
      <trkpt lat="48.87984" lon="2.27568">
        <ele>98</ele>
        <time>2015-07-06T20:24:09.071Z</time>
      </trkpt>
      <trkpt lat="48.87984" lon="2.27572">
        <ele>98.2</ele>
        <time>2015-07-06T20:24:10.079Z</time>
      </trkpt>
      <trkpt lat="48.87984" lon="2.27582">
        <ele>98.2</ele>
        <time>2015-07-06T20:24:12.015Z</time>
      </trkpt>
      <trkpt lat="48.87983" lon="2.27588">
        <ele>98.1</ele>
        <time>2015-07-06T20:24:13.036Z</time>
      </trkpt>
      <trkpt lat="48.8798" lon="2.27596">
        <ele>98.5</ele>
        <time>2015-07-06T20:24:14.078Z</time>
      </trkpt>
      <trkpt lat="48.87976" lon="2.27603">
        <ele>99</ele>
        <time>2015-07-06T20:24:14.960Z</time>
      </trkpt>
      <trkpt lat="48.87973" lon="2.27612">
        <ele>99.6</ele>
        <time>2015-07-06T20:24:16.005Z</time>
      </trkpt>
      <trkpt lat="48.87969" lon="2.2762">
        <ele>100</ele>
        <time>2015-07-06T20:24:16.987Z</time>
      </trkpt>
      <trkpt lat="48.87966" lon="2.27628">
        <ele>100.1</ele>
        <time>2015-07-06T20:24:17.986Z</time>
      </trkpt>
      <trkpt lat="48.87964" lon="2.27634">
        <ele>100.4</ele>
        <time>2015-07-06T20:24:19.016Z</time>
      </trkpt>
      <trkpt lat="48.8796" lon="2.27646">
        <ele>100.9</ele>
        <time>2015-07-06T20:24:21.079Z</time>
      </trkpt>
      <trkpt lat="48.87958" lon="2.27653">
        <ele>101.1</ele>
        <time>2015-07-06T20:24:21.961Z</time>
      </trkpt>
      <trkpt lat="48.87957" lon="2.27664">
        <ele>101.6</ele>
        <time>2015-07-06T20:24:23.987Z</time>
      </trkpt>
      <trkpt lat="48.87956" lon="2.2767">
        <ele>102</ele>
        <time>2015-07-06T20:24:25Z</time>
      </trkpt>
      <trkpt lat="48.87953" lon="2.27683">
        <ele>102.8</ele>
        <time>2015-07-06T20:24:27.051Z</time>
      </trkpt>
      <trkpt lat="48.87952" lon="2.27688">
        <ele>103</ele>
        <time>2015-07-06T20:24:27.964Z</time>
      </trkpt>
      <trkpt lat="48.8795" lon="2.27695">
        <ele>103.3</ele>
        <time>2015-07-06T20:24:28.995Z</time>
      </trkpt>
      <trkpt lat="48.87947" lon="2.27702">
        <ele>103.4</ele>
        <time>2015-07-06T20:24:30.020Z</time>
      </trkpt>
      <trkpt lat="48.87944" lon="2.27714">
        <ele>103.5</ele>
        <time>2015-07-06T20:24:32.054Z</time>
      </trkpt>
      <trkpt lat="48.87942" lon="2.2772">
        <ele>104</ele>
        <time>2015-07-06T20:24:33.067Z</time>
      </trkpt>
      <trkpt lat="48.87938" lon="2.27732">
        <ele>104.3</ele>
        <time>2015-07-06T20:24:35.001Z</time>
      </trkpt>
      <trkpt lat="48.87936" lon="2.27738">
        <ele>104.4</ele>
        <time>2015-07-06T20:24:36.013Z</time>
      </trkpt>
      <trkpt lat="48.87932" lon="2.27749">
        <ele>104.6</ele>
        <time>2015-07-06T20:24:38.051Z</time>
      </trkpt>
      <trkpt lat="48.87931" lon="2.27754">
        <ele>104.5</ele>
        <time>2015-07-06T20:24:39.038Z</time>
      </trkpt>
      <trkpt lat="48.87927" lon="2.27761">
        <ele>103.9</ele>
        <time>2015-07-06T20:24:40.052Z</time>
      </trkpt>
      <trkpt lat="48.87923" lon="2.27769">
        <ele>103.3</ele>
        <time>2015-07-06T20:24:41.064Z</time>
      </trkpt>
      <trkpt lat="48.87919" lon="2.27777">
        <ele>102.8</ele>
        <time>2015-07-06T20:24:42.072Z</time>
      </trkpt>
      <trkpt lat="48.87915" lon="2.27785">
        <ele>102.3</ele>
        <time>2015-07-06T20:24:42.998Z</time>
      </trkpt>
      <trkpt lat="48.87912" lon="2.27791">
        <ele>101.8</ele>
        <time>2015-07-06T20:24:44.052Z</time>
      </trkpt>
      <trkpt lat="48.8791" lon="2.27798">
        <ele>101.7</ele>
        <time>2015-07-06T20:24:45.064Z</time>
      </trkpt>
      <trkpt lat="48.87907" lon="2.2781">
        <ele>101.7</ele>
        <time>2015-07-06T20:24:47.014Z</time>
      </trkpt>
      <trkpt lat="48.87905" lon="2.27816">
        <ele>102</ele>
        <time>2015-07-06T20:24:48.021Z</time>
      </trkpt>
      <trkpt lat="48.87904" lon="2.27828">
        <ele>102.8</ele>
        <time>2015-07-06T20:24:50.055Z</time>
      </trkpt>
      <trkpt lat="48.87903" lon="2.27833">
        <ele>103.2</ele>
        <time>2015-07-06T20:24:51.064Z</time>
      </trkpt>
      <trkpt lat="48.87902" lon="2.27845">
        <ele>104.8</ele>
        <time>2015-07-06T20:24:53.003Z</time>
      </trkpt>
      <trkpt lat="48.87901" lon="2.2785">
        <ele>105.4</ele>
        <time>2015-07-06T20:24:54.049Z</time>
      </trkpt>
      <trkpt lat="48.87899" lon="2.27862">
        <ele>106.2</ele>
        <time>2015-07-06T20:24:56.084Z</time>
      </trkpt>
      <trkpt lat="48.87899" lon="2.27868">
        <ele>106.6</ele>
        <time>2015-07-06T20:24:57.018Z</time>
      </trkpt>
      <trkpt lat="48.87897" lon="2.2788">
        <ele>107.3</ele>
        <time>2015-07-06T20:24:59.009Z</time>
      </trkpt>
      <trkpt lat="48.87895" lon="2.27886">
        <ele>107.6</ele>
        <time>2015-07-06T20:25:00.047Z</time>
      </trkpt>
      <trkpt lat="48.87894" lon="2.27897">
        <ele>108.5</ele>
        <time>2015-07-06T20:25:02.111Z</time>
      </trkpt>
      <trkpt lat="48.87893" lon="2.27903">
        <ele>108.6</ele>
        <time>2015-07-06T20:25:03.027Z</time>
      </trkpt>
      <trkpt lat="48.87892" lon="2.27914">
        <ele>108.4</ele>
        <time>2015-07-06T20:25:05.036Z</time>
      </trkpt>
      <trkpt lat="48.8789" lon="2.27921">
        <ele>108.6</ele>
        <time>2015-07-06T20:25:06.057Z</time>
      </trkpt>
      <trkpt lat="48.87885" lon="2.27928">
        <ele>107.7</ele>
        <time>2015-07-06T20:25:07.068Z</time>
      </trkpt>
      <trkpt lat="48.87879" lon="2.27936">
        <ele>106.8</ele>
        <time>2015-07-06T20:25:08.076Z</time>
      </trkpt>
      <trkpt lat="48.87873" lon="2.27944">
        <ele>105.9</ele>
        <time>2015-07-06T20:25:09.001Z</time>
      </trkpt>
      <trkpt lat="48.87866" lon="2.27952">
        <ele>103.8</ele>
        <time>2015-07-06T20:25:10.005Z</time>
      </trkpt>
      <trkpt lat="48.8786" lon="2.2796">
        <ele>102.1</ele>
        <time>2015-07-06T20:25:11.009Z</time>
      </trkpt>
      <trkpt lat="48.87855" lon="2.27967">
        <ele>100.6</ele>
        <time>2015-07-06T20:25:12.008Z</time>
      </trkpt>
      <trkpt lat="48.87851" lon="2.27977">
        <ele>100.9</ele>
        <time>2015-07-06T20:25:14.058Z</time>
      </trkpt>
      <trkpt lat="48.87849" lon="2.27982">
        <ele>100.8</ele>
        <time>2015-07-06T20:25:15.057Z</time>
      </trkpt>
      <trkpt lat="48.87849" lon="2.27995">
        <ele>100.3</ele>
        <time>2015-07-06T20:25:18.023Z</time>
      </trkpt>
      <trkpt lat="48.87849" lon="2.27999">
        <ele>99.7</ele>
        <time>2015-07-06T20:25:19.031Z</time>
      </trkpt>
      <trkpt lat="48.87845" lon="2.28011">
        <ele>98.4</ele>
        <time>2015-07-06T20:25:22.069Z</time>
      </trkpt>
      <trkpt lat="48.87843" lon="2.28015">
        <ele>97.9</ele>
        <time>2015-07-06T20:25:23.066Z</time>
      </trkpt>
      <trkpt lat="48.8784" lon="2.28026">
        <ele>97</ele>
        <time>2015-07-06T20:25:25.009Z</time>
      </trkpt>
      <trkpt lat="48.87839" lon="2.28031">
        <ele>96.8</ele>
        <time>2015-07-06T20:25:26.043Z</time>
      </trkpt>
      <trkpt lat="48.87835" lon="2.2804">
        <ele>96.6</ele>
        <time>2015-07-06T20:25:28.091Z</time>
      </trkpt>
      <trkpt lat="48.87834" lon="2.28045">
        <ele>96.3</ele>
        <time>2015-07-06T20:25:29.007Z</time>
      </trkpt>
      <trkpt lat="48.87828" lon="2.28054">
        <ele>95.1</ele>
        <time>2015-07-06T20:25:31.020Z</time>
      </trkpt>
      <trkpt lat="48.87825" lon="2.28059">
        <ele>94.8</ele>
        <time>2015-07-06T20:25:32.054Z</time>
      </trkpt>
      <trkpt lat="48.8782" lon="2.28069">
        <ele>94.6</ele>
        <time>2015-07-06T20:25:35.049Z</time>
      </trkpt>
      <trkpt lat="48.87817" lon="2.28073">
        <ele>94.5</ele>
        <time>2015-07-06T20:25:35.205Z</time>
      </trkpt>
      <trkpt lat="48.87814" lon="2.28077">
        <ele>94.3</ele>
        <time>2015-07-06T20:25:35.977Z</time>
      </trkpt>
      <trkpt lat="48.8781" lon="2.28082">
        <ele>93.4</ele>
        <time>2015-07-06T20:25:36.974Z</time>
      </trkpt>
      <trkpt lat="48.87802" lon="2.28089">
        <ele>92.7</ele>
        <time>2015-07-06T20:25:39.046Z</time>
      </trkpt>
      <trkpt lat="48.87798" lon="2.28091">
        <ele>92.9</ele>
        <time>2015-07-06T20:25:39.960Z</time>
      </trkpt>
      <trkpt lat="48.8779" lon="2.28097">
        <ele>92.7</ele>
        <time>2015-07-06T20:25:41.957Z</time>
      </trkpt>
      <trkpt lat="48.87787" lon="2.281">
        <ele>92.8</ele>
        <time>2015-07-06T20:25:42.961Z</time>
      </trkpt>
      <trkpt lat="48.87779" lon="2.28102">
        <ele>92.6</ele>
        <time>2015-07-06T20:25:45.093Z</time>
      </trkpt>
      <trkpt lat="48.87775" lon="2.28103">
        <ele>92.4</ele>
        <time>2015-07-06T20:25:46.047Z</time>
      </trkpt>
      <trkpt lat="48.87766" lon="2.28106">
        <ele>92</ele>
        <time>2015-07-06T20:25:48.017Z</time>
      </trkpt>
      <trkpt lat="48.87762" lon="2.28109">
        <ele>91.9</ele>
        <time>2015-07-06T20:25:49.003Z</time>
      </trkpt>
      <trkpt lat="48.87754" lon="2.28115">
        <ele>91.6</ele>
        <time>2015-07-06T20:25:51.045Z</time>
      </trkpt>
      <trkpt lat="48.8775" lon="2.28119">
        <ele>91.6</ele>
        <time>2015-07-06T20:25:52.113Z</time>
      </trkpt>
      <trkpt lat="48.87743" lon="2.28126">
        <ele>91.3</ele>
        <time>2015-07-06T20:25:53.985Z</time>
      </trkpt>
      <trkpt lat="48.87739" lon="2.2813">
        <ele>91.3</ele>
        <time>2015-07-06T20:25:54.989Z</time>
      </trkpt>
      <trkpt lat="48.87735" lon="2.28134">
        <ele>91.3</ele>
        <time>2015-07-06T20:25:56.037Z</time>
      </trkpt>
      <trkpt lat="48.87732" lon="2.2814">
        <ele>91.2</ele>
        <time>2015-07-06T20:25:57.025Z</time>
      </trkpt>
      <trkpt lat="48.87728" lon="2.28145">
        <ele>91.4</ele>
        <time>2015-07-06T20:25:57.958Z</time>
      </trkpt>
      <trkpt lat="48.87725" lon="2.2815">
        <ele>91.1</ele>
        <time>2015-07-06T20:25:59.076Z</time>
      </trkpt>
      <trkpt lat="48.87719" lon="2.28159">
        <ele>90.5</ele>
        <time>2015-07-06T20:26:01.005Z</time>
      </trkpt>
      <trkpt lat="48.87717" lon="2.28163">
        <ele>90.2</ele>
        <time>2015-07-06T20:26:02.029Z</time>
      </trkpt>
      <trkpt lat="48.87713" lon="2.28175">
        <ele>90</ele>
        <time>2015-07-06T20:26:03.987Z</time>
      </trkpt>
      <trkpt lat="48.87711" lon="2.28181">
        <ele>89.9</ele>
        <time>2015-07-06T20:26:05.014Z</time>
      </trkpt>
      <trkpt lat="48.87707" lon="2.28193">
        <ele>89.7</ele>
        <time>2015-07-06T20:26:07.041Z</time>
      </trkpt>
      <trkpt lat="48.87705" lon="2.28198">
        <ele>89.5</ele>
        <time>2015-07-06T20:26:08.040Z</time>
      </trkpt>
      <trkpt lat="48.87703" lon="2.2821">
        <ele>89.1</ele>
        <time>2015-07-06T20:26:10.077Z</time>
      </trkpt>
      <trkpt lat="48.87702" lon="2.28216">
        <ele>89.3</ele>
        <time>2015-07-06T20:26:11.018Z</time>
      </trkpt>
      <trkpt lat="48.87701" lon="2.28227">
        <ele>89.2</ele>
        <time>2015-07-06T20:26:13.019Z</time>
      </trkpt>
      <trkpt lat="48.877" lon="2.28233">
        <ele>89.3</ele>
        <time>2015-07-06T20:26:14.111Z</time>
      </trkpt>
      <trkpt lat="48.87699" lon="2.28245">
        <ele>89.4</ele>
        <time>2015-07-06T20:26:16.017Z</time>
      </trkpt>
      <trkpt lat="48.87699" lon="2.28251">
        <ele>89.3</ele>
        <time>2015-07-06T20:26:17.045Z</time>
      </trkpt>
      <trkpt lat="48.87699" lon="2.28263">
        <ele>89</ele>
        <time>2015-07-06T20:26:19.103Z</time>
      </trkpt>
      <trkpt lat="48.87699" lon="2.2827">
        <ele>88.9</ele>
        <time>2015-07-06T20:26:20.119Z</time>
      </trkpt>
      <trkpt lat="48.87701" lon="2.2828">
        <ele>89.1</ele>
        <time>2015-07-06T20:26:19.539Z</time>
      </trkpt>
      <trkpt lat="48.87702" lon="2.28285">
        <ele>89.3</ele>
        <time>2015-07-06T20:26:22.958Z</time>
      </trkpt>
      <trkpt lat="48.87701" lon="2.28296">
        <ele>89.3</ele>
        <time>2015-07-06T20:26:25.188Z</time>
      </trkpt>
      <trkpt lat="48.87702" lon="2.283">
        <ele>89.2</ele>
        <time>2015-07-06T20:26:26.050Z</time>
      </trkpt>
      <trkpt lat="48.87703" lon="2.28311">
        <ele>89.6</ele>
        <time>2015-07-06T20:26:27.959Z</time>
      </trkpt>
      <trkpt lat="48.87704" lon="2.28316">
        <ele>90.1</ele>
        <time>2015-07-06T20:26:28.958Z</time>
      </trkpt>
      <trkpt lat="48.87706" lon="2.28326">
        <ele>90.6</ele>
        <time>2015-07-06T20:26:30.963Z</time>
      </trkpt>
      <trkpt lat="48.87708" lon="2.2833">
        <ele>90.7</ele>
        <time>2015-07-06T20:26:32.063Z</time>
      </trkpt>
      <trkpt lat="48.87712" lon="2.28338">
        <ele>91.2</ele>
        <time>2015-07-06T20:26:33.983Z</time>
      </trkpt>
      <trkpt lat="48.87713" lon="2.28343">
        <ele>91.7</ele>
        <time>2015-07-06T20:26:35.157Z</time>
      </trkpt>
      <trkpt lat="48.87716" lon="2.28352">
        <ele>92.4</ele>
        <time>2015-07-06T20:26:37.053Z</time>
      </trkpt>
      <trkpt lat="48.87717" lon="2.28358">
        <ele>92.9</ele>
        <time>2015-07-06T20:26:38.064Z</time>
      </trkpt>
      <trkpt lat="48.87721" lon="2.28369">
        <ele>93.9</ele>
        <time>2015-07-06T20:26:39.983Z</time>
      </trkpt>
      <trkpt lat="48.87723" lon="2.28374">
        <ele>94.6</ele>
        <time>2015-07-06T20:26:40.999Z</time>
      </trkpt>
      <trkpt lat="48.87723" lon="2.28385">
        <ele>95.5</ele>
        <time>2015-07-06T20:26:42.998Z</time>
      </trkpt>
      <trkpt lat="48.87723" lon="2.2839">
        <ele>95.8</ele>
        <time>2015-07-06T20:26:44.008Z</time>
      </trkpt>
      <trkpt lat="48.87721" lon="2.28402">
        <ele>98.2</ele>
        <time>2015-07-06T20:26:52.029Z</time>
      </trkpt>
      <trkpt lat="48.87721" lon="2.28404">
        <ele>98.6</ele>
        <time>2015-07-06T20:26:53.064Z</time>
      </trkpt>
      <trkpt lat="48.87723" lon="2.28417">
        <ele>101.3</ele>
        <time>2015-07-06T20:26:57.042Z</time>
      </trkpt>
      <trkpt lat="48.87721" lon="2.28421">
        <ele>102</ele>
        <time>2015-07-06T20:26:58.039Z</time>
      </trkpt>
      <trkpt lat="48.87718" lon="2.28427">
        <ele>102.6</ele>
        <time>2015-07-06T20:26:59.063Z</time>
      </trkpt>
      <trkpt lat="48.87715" lon="2.28433">
        <ele>103.3</ele>
        <time>2015-07-06T20:27:00.079Z</time>
      </trkpt>
      <trkpt lat="48.87712" lon="2.28444">
        <ele>103.8</ele>
        <time>2015-07-06T20:27:02.046Z</time>
      </trkpt>
      <trkpt lat="48.8771" lon="2.2845">
        <ele>104.2</ele>
        <time>2015-07-06T20:27:03.080Z</time>
      </trkpt>
      <trkpt lat="48.87709" lon="2.28462">
        <ele>105.2</ele>
        <time>2015-07-06T20:27:05.754Z</time>
      </trkpt>
      <trkpt lat="48.87707" lon="2.28469">
        <ele>105.9</ele>
        <time>2015-07-06T20:27:05.953Z</time>
      </trkpt>
      <trkpt lat="48.87705" lon="2.28482">
        <ele>106.8</ele>
        <time>2015-07-06T20:27:08.030Z</time>
      </trkpt>
      <trkpt lat="48.87704" lon="2.28488">
        <ele>107.2</ele>
        <time>2015-07-06T20:27:08.991Z</time>
      </trkpt>
      <trkpt lat="48.87703" lon="2.28494">
        <ele>107.8</ele>
        <time>2015-07-06T20:27:10.871Z</time>
      </trkpt>
      <trkpt lat="48.87702" lon="2.28501">
        <ele>108.3</ele>
        <time>2015-07-06T20:27:11.020Z</time>
      </trkpt>
      <trkpt lat="48.877" lon="2.28514">
        <ele>109.3</ele>
        <time>2015-07-06T20:27:13.026Z</time>
      </trkpt>
      <trkpt lat="48.87699" lon="2.28521">
        <ele>109.8</ele>
        <time>2015-07-06T20:27:14.053Z</time>
      </trkpt>
      <trkpt lat="48.87697" lon="2.28529">
        <ele>110.1</ele>
        <time>2015-07-06T20:27:14.973Z</time>
      </trkpt>
      <trkpt lat="48.87695" lon="2.28535">
        <ele>110.6</ele>
        <time>2015-07-06T20:27:15.961Z</time>
      </trkpt>
      <trkpt lat="48.87693" lon="2.28542">
        <ele>110.9</ele>
        <time>2015-07-06T20:27:16.977Z</time>
      </trkpt>
      <trkpt lat="48.87692" lon="2.28549">
        <ele>110.7</ele>
        <time>2015-07-06T20:27:18.049Z</time>
      </trkpt>
      <trkpt lat="48.8769" lon="2.28561">
        <ele>110.7</ele>
        <time>2015-07-06T20:27:20.143Z</time>
      </trkpt>
      <trkpt lat="48.87686" lon="2.28569">
        <ele>110.8</ele>
        <time>2015-07-06T20:27:21.028Z</time>
      </trkpt>
      <trkpt lat="48.87687" lon="2.28575">
        <ele>110.9</ele>
        <time>2015-07-06T20:27:22.031Z</time>
      </trkpt>
      <trkpt lat="48.87685" lon="2.28582">
        <ele>110.9</ele>
        <time>2015-07-06T20:27:23.042Z</time>
      </trkpt>
      <trkpt lat="48.87683" lon="2.2859">
        <ele>111</ele>
        <time>2015-07-06T20:27:24.630Z</time>
      </trkpt>
      <trkpt lat="48.87681" lon="2.28598">
        <ele>111.4</ele>
        <time>2015-07-06T20:27:25.075Z</time>
      </trkpt>
      <trkpt lat="48.87679" lon="2.28606">
        <ele>111.4</ele>
        <time>2015-07-06T20:27:26.068Z</time>
      </trkpt>
      <trkpt lat="48.87676" lon="2.28612">
        <ele>111.6</ele>
        <time>2015-07-06T20:27:27.028Z</time>
      </trkpt>
      <trkpt lat="48.87674" lon="2.28617">
        <ele>112.1</ele>
        <time>2015-07-06T20:27:28.065Z</time>
      </trkpt>
      <trkpt lat="48.87671" lon="2.28624">
        <ele>112.6</ele>
        <time>2015-07-06T20:27:29.067Z</time>
      </trkpt>
      <trkpt lat="48.87668" lon="2.28632">
        <ele>112.9</ele>
        <time>2015-07-06T20:27:30.118Z</time>
      </trkpt>
      <trkpt lat="48.87665" lon="2.28641">
        <ele>113.3</ele>
        <time>2015-07-06T20:27:30.993Z</time>
      </trkpt>
      <trkpt lat="48.87661" lon="2.2865">
        <ele>113.3</ele>
        <time>2015-07-06T20:27:32.043Z</time>
      </trkpt>
      <trkpt lat="48.87658" lon="2.28657">
        <ele>113.7</ele>
        <time>2015-07-06T20:27:33.053Z</time>
      </trkpt>
      <trkpt lat="48.87652" lon="2.28666">
        <ele>113.4</ele>
        <time>2015-07-06T20:27:33.977Z</time>
      </trkpt>
      <trkpt lat="48.87648" lon="2.28672">
        <ele>113.1</ele>
        <time>2015-07-06T20:27:34.994Z</time>
      </trkpt>
      <trkpt lat="48.87643" lon="2.28679">
        <ele>112.9</ele>
        <time>2015-07-06T20:27:35.984Z</time>
      </trkpt>
      <trkpt lat="48.87639" lon="2.28685">
        <ele>112.6</ele>
        <time>2015-07-06T20:27:36.976Z</time>
      </trkpt>
      <trkpt lat="48.87635" lon="2.28691">
        <ele>111.9</ele>
        <time>2015-07-06T20:27:38.038Z</time>
      </trkpt>
      <trkpt lat="48.8763" lon="2.28697">
        <ele>111.6</ele>
        <time>2015-07-06T20:27:39.023Z</time>
      </trkpt>
      <trkpt lat="48.87629" lon="2.28709">
        <ele>111.8</ele>
        <time>2015-07-06T20:27:41.046Z</time>
      </trkpt>
      <trkpt lat="48.87629" lon="2.28716">
        <ele>111.9</ele>
        <time>2015-07-06T20:27:42.058Z</time>
      </trkpt>
      <trkpt lat="48.87628" lon="2.28726">
        <ele>112.6</ele>
        <time>2015-07-06T20:27:44.032Z</time>
      </trkpt>
      <trkpt lat="48.87627" lon="2.2873">
        <ele>113</ele>
        <time>2015-07-06T20:27:45.004Z</time>
      </trkpt>
      <trkpt lat="48.87622" lon="2.28741">
        <ele>113.2</ele>
        <time>2015-07-06T20:27:47.064Z</time>
      </trkpt>
      <trkpt lat="48.87619" lon="2.28747">
        <ele>113.5</ele>
        <time>2015-07-06T20:27:47.971Z</time>
      </trkpt>
      <trkpt lat="48.87616" lon="2.28754">
        <ele>113.7</ele>
        <time>2015-07-06T20:27:49.072Z</time>
      </trkpt>
      <trkpt lat="48.87612" lon="2.28762">
        <ele>114.3</ele>
        <time>2015-07-06T20:27:50.012Z</time>
      </trkpt>
      <trkpt lat="48.87609" lon="2.2877">
        <ele>114.5</ele>
        <time>2015-07-06T20:27:51.021Z</time>
      </trkpt>
      <trkpt lat="48.87606" lon="2.2878">
        <ele>114.8</ele>
        <time>2015-07-06T20:27:52.092Z</time>
      </trkpt>
      <trkpt lat="48.87603" lon="2.28789">
        <ele>115.2</ele>
        <time>2015-07-06T20:27:52.985Z</time>
      </trkpt>
      <trkpt lat="48.87601" lon="2.28798">
        <ele>115.3</ele>
        <time>2015-07-06T20:27:54.012Z</time>
      </trkpt>
      <trkpt lat="48.87596" lon="2.28808">
        <ele>115.5</ele>
        <time>2015-07-06T20:27:55.018Z</time>
      </trkpt>
      <trkpt lat="48.87592" lon="2.28817">
        <ele>115.5</ele>
        <time>2015-07-06T20:27:56.076Z</time>
      </trkpt>
      <trkpt lat="48.87588" lon="2.28826">
        <ele>115.5</ele>
        <time>2015-07-06T20:27:56.971Z</time>
      </trkpt>
      <trkpt lat="48.87586" lon="2.28835">
        <ele>115.5</ele>
        <time>2015-07-06T20:27:57.982Z</time>
      </trkpt>
      <trkpt lat="48.87584" lon="2.28843">
        <ele>115.8</ele>
        <time>2015-07-06T20:27:58.997Z</time>
      </trkpt>
      <trkpt lat="48.87582" lon="2.28852">
        <ele>115.4</ele>
        <time>2015-07-06T20:28:00.025Z</time>
      </trkpt>
      <trkpt lat="48.87579" lon="2.28865">
        <ele>115.7</ele>
        <time>2015-07-06T20:28:02.041Z</time>
      </trkpt>
      <trkpt lat="48.87579" lon="2.2887">
        <ele>116.2</ele>
        <time>2015-07-06T20:28:03.051Z</time>
      </trkpt>
      <trkpt lat="48.87577" lon="2.28883">
        <ele>117.1</ele>
        <time>2015-07-06T20:28:05.002Z</time>
      </trkpt>
      <trkpt lat="48.87575" lon="2.28888">
        <ele>117.6</ele>
        <time>2015-07-06T20:28:06.018Z</time>
      </trkpt>
      <trkpt lat="48.87573" lon="2.28901">
        <ele>118.9</ele>
        <time>2015-07-06T20:28:08.058Z</time>
      </trkpt>
      <trkpt lat="48.87572" lon="2.28906">
        <ele>119.8</ele>
        <time>2015-07-06T20:28:09.069Z</time>
      </trkpt>
      <trkpt lat="48.87571" lon="2.28916">
        <ele>120.3</ele>
        <time>2015-07-06T20:28:11.005Z</time>
      </trkpt>
      <trkpt lat="48.87571" lon="2.28921">
        <ele>120.6</ele>
        <time>2015-07-06T20:28:12.022Z</time>
      </trkpt>
      <trkpt lat="48.87569" lon="2.28932">
        <ele>121.5</ele>
        <time>2015-07-06T20:28:14.054Z</time>
      </trkpt>
      <trkpt lat="48.87569" lon="2.28936">
        <ele>122</ele>
        <time>2015-07-06T20:28:15.061Z</time>
      </trkpt>
      <trkpt lat="48.87568" lon="2.28949">
        <ele>122.5</ele>
        <time>2015-07-06T20:28:17.007Z</time>
      </trkpt>
      <trkpt lat="48.87564" lon="2.28957">
        <ele>123</ele>
        <time>2015-07-06T20:28:18.047Z</time>
      </trkpt>
      <trkpt lat="48.87561" lon="2.28966">
        <ele>123.6</ele>
        <time>2015-07-06T20:28:18.989Z</time>
      </trkpt>
      <trkpt lat="48.87558" lon="2.28973">
        <ele>124.1</ele>
        <time>2015-07-06T20:28:20.035Z</time>
      </trkpt>
      <trkpt lat="48.87557" lon="2.28981">
        <ele>124.3</ele>
        <time>2015-07-06T20:28:21.021Z</time>
      </trkpt>
      <trkpt lat="48.87553" lon="2.28989">
        <ele>124.5</ele>
        <time>2015-07-06T20:28:22.036Z</time>
      </trkpt>
      <trkpt lat="48.87549" lon="2.28997">
        <ele>124.7</ele>
        <time>2015-07-06T20:28:23.045Z</time>
      </trkpt>
      <trkpt lat="48.87546" lon="2.29006">
        <ele>124.6</ele>
        <time>2015-07-06T20:28:24.054Z</time>
      </trkpt>
      <trkpt lat="48.87542" lon="2.29014">
        <ele>124.6</ele>
        <time>2015-07-06T20:28:24.986Z</time>
      </trkpt>
      <trkpt lat="48.8754" lon="2.2902">
        <ele>124.7</ele>
        <time>2015-07-06T20:28:26.032Z</time>
      </trkpt>
      <trkpt lat="48.87539" lon="2.29027">
        <ele>125</ele>
        <time>2015-07-06T20:28:27.027Z</time>
      </trkpt>
      <trkpt lat="48.87537" lon="2.29034">
        <ele>125.5</ele>
        <time>2015-07-06T20:28:28.057Z</time>
      </trkpt>
      <trkpt lat="48.87535" lon="2.29042">
        <ele>125.9</ele>
        <time>2015-07-06T20:28:28.956Z</time>
      </trkpt>
      <trkpt lat="48.87533" lon="2.29048">
        <ele>126.4</ele>
        <time>2015-07-06T20:28:29.981Z</time>
      </trkpt>
      <trkpt lat="48.8753" lon="2.2906">
        <ele>127.2</ele>
        <time>2015-07-06T20:28:32.044Z</time>
      </trkpt>
      <trkpt lat="48.87527" lon="2.29064">
        <ele>127.3</ele>
        <time>2015-07-06T20:28:33.044Z</time>
      </trkpt>
      <trkpt lat="48.87523" lon="2.29072">
        <ele>127.5</ele>
        <time>2015-07-06T20:28:34.069Z</time>
      </trkpt>
      <trkpt lat="48.87519" lon="2.29084">
        <ele>127.9</ele>
        <time>2015-07-06T20:28:34.981Z</time>
      </trkpt>
      <trkpt lat="48.87516" lon="2.29093">
        <ele>128.5</ele>
        <time>2015-07-06T20:28:36.051Z</time>
      </trkpt>
      <trkpt lat="48.87513" lon="2.29103">
        <ele>129</ele>
        <time>2015-07-06T20:28:37.046Z</time>
      </trkpt>
      <trkpt lat="48.8751" lon="2.29112">
        <ele>129.6</ele>
        <time>2015-07-06T20:28:38.062Z</time>
      </trkpt>
      <trkpt lat="48.87507" lon="2.29121">
        <ele>129.6</ele>
        <time>2015-07-06T20:28:39.064Z</time>
      </trkpt>
      <trkpt lat="48.87504" lon="2.29129">
        <ele>129.9</ele>
        <time>2015-07-06T20:28:39.981Z</time>
      </trkpt>
      <trkpt lat="48.87503" lon="2.29136">
        <ele>129.9</ele>
        <time>2015-07-06T20:28:41.011Z</time>
      </trkpt>
      <trkpt lat="48.875" lon="2.29143">
        <ele>129.9</ele>
        <time>2015-07-06T20:28:42.170Z</time>
      </trkpt>
      <trkpt lat="48.87493" lon="2.29153">
        <ele>129.5</ele>
        <time>2015-07-06T20:28:43.052Z</time>
      </trkpt>
      <trkpt lat="48.87491" lon="2.29164">
        <ele>130.1</ele>
        <time>2015-07-06T20:28:45.041Z</time>
      </trkpt>
      <trkpt lat="48.87489" lon="2.29171">
        <ele>130.3</ele>
        <time>2015-07-06T20:28:46.053Z</time>
      </trkpt>
      <trkpt lat="48.87485" lon="2.29183">
        <ele>130.9</ele>
        <time>2015-07-06T20:28:48.026Z</time>
      </trkpt>
      <trkpt lat="48.87482" lon="2.29189">
        <ele>130.5</ele>
        <time>2015-07-06T20:28:49.131Z</time>
      </trkpt>
      <trkpt lat="48.87478" lon="2.29201">
        <ele>130.5</ele>
        <time>2015-07-06T20:28:50.979Z</time>
      </trkpt>
      <trkpt lat="48.87475" lon="2.29208">
        <ele>130.3</ele>
        <time>2015-07-06T20:28:52.046Z</time>
      </trkpt>
      <trkpt lat="48.87473" lon="2.29221">
        <ele>130.5</ele>
        <time>2015-07-06T20:28:54.089Z</time>
      </trkpt>
      <trkpt lat="48.87471" lon="2.29227">
        <ele>130.8</ele>
        <time>2015-07-06T20:28:55.086Z</time>
      </trkpt>
      <trkpt lat="48.87469" lon="2.29233">
        <ele>131</ele>
        <time>2015-07-06T20:28:56.113Z</time>
      </trkpt>
      <trkpt lat="48.87466" lon="2.29239">
        <ele>130.8</ele>
        <time>2015-07-06T20:28:56.999Z</time>
      </trkpt>
      <trkpt lat="48.87463" lon="2.29244">
        <ele>130.8</ele>
        <time>2015-07-06T20:28:58.062Z</time>
      </trkpt>
      <trkpt lat="48.87461" lon="2.29251">
        <ele>130.5</ele>
        <time>2015-07-06T20:28:59.007Z</time>
      </trkpt>
      <trkpt lat="48.87457" lon="2.29259">
        <ele>130.1</ele>
        <time>2015-07-06T20:29:00.019Z</time>
      </trkpt>
      <trkpt lat="48.87456" lon="2.29267">
        <ele>129.6</ele>
        <time>2015-07-06T20:29:01.036Z</time>
      </trkpt>
      <trkpt lat="48.87454" lon="2.29277">
        <ele>129.6</ele>
        <time>2015-07-06T20:29:03.130Z</time>
      </trkpt>
      <trkpt lat="48.87449" lon="2.29282">
        <ele>129.7</ele>
        <time>2015-07-06T20:29:04.031Z</time>
      </trkpt>
      <trkpt lat="48.87444" lon="2.29285">
        <ele>130.2</ele>
        <time>2015-07-06T20:29:11.072Z</time>
      </trkpt>
      <trkpt lat="48.87429" lon="2.29288">
        <ele>129.8</ele>
        <time>2015-07-06T20:29:12.039Z</time>
      </trkpt>
      <trkpt lat="48.87421" lon="2.2929">
        <ele>128.1</ele>
        <time>2015-07-06T20:29:14.060Z</time>
      </trkpt>
      <trkpt lat="48.8742" lon="2.2929">
        <ele>128.1</ele>
        <time>2015-07-06T20:29:15.046Z</time>
      </trkpt>
      <trkpt lat="48.8742" lon="2.29291">
        <ele>128.2</ele>
        <time>2015-07-06T20:30:02.089Z</time>
      </trkpt>
      <trkpt lat="48.87432" lon="2.29284">
        <ele>117.7</ele>
        <time>2015-07-06T20:30:02.968Z</time>
      </trkpt>
      <trkpt lat="48.87435" lon="2.29289">
        <ele>118</ele>
        <time>2015-07-06T20:30:17.068Z</time>
      </trkpt>
      <trkpt lat="48.87437" lon="2.29308">
        <ele>117.7</ele>
        <time>2015-07-06T20:30:17.992Z</time>
      </trkpt>
      <trkpt lat="48.8743" lon="2.29315">
        <ele>116.1</ele>
        <time>2015-07-06T20:30:20.104Z</time>
      </trkpt>
      <trkpt lat="48.87428" lon="2.29318">
        <ele>116.4</ele>
        <time>2015-07-06T20:30:21.070Z</time>
      </trkpt>
      <trkpt lat="48.87424" lon="2.29327">
        <ele>115.6</ele>
        <time>2015-07-06T20:30:22.996Z</time>
      </trkpt>
      <trkpt lat="48.87422" lon="2.29331">
        <ele>115.2</ele>
        <time>2015-07-06T20:30:24.009Z</time>
      </trkpt>
      <trkpt lat="48.87419" lon="2.29342">
        <ele>115</ele>
        <time>2015-07-06T20:30:26.989Z</time>
      </trkpt>
      <trkpt lat="48.87418" lon="2.29345">
        <ele>115</ele>
        <time>2015-07-06T20:30:28.005Z</time>
      </trkpt>
      <trkpt lat="48.87415" lon="2.29353">
        <ele>114.4</ele>
        <time>2015-07-06T20:31:01.022Z</time>
      </trkpt>
      <trkpt lat="48.87425" lon="2.29358">
        <ele>107.5</ele>
        <time>2015-07-06T20:31:02.055Z</time>
      </trkpt>
      <trkpt lat="48.87434" lon="2.29361">
        <ele>106.8</ele>
        <time>2015-07-06T20:31:05.587Z</time>
      </trkpt>
      <trkpt lat="48.87436" lon="2.29361">
        <ele>107</ele>
        <time>2015-07-06T20:31:05.991Z</time>
      </trkpt>
      <trkpt lat="48.87443" lon="2.29371">
        <ele>107.2</ele>
        <time>2015-07-06T20:31:10.616Z</time>
      </trkpt>
      <trkpt lat="48.87442" lon="2.29374">
        <ele>107.2</ele>
        <time>2015-07-06T20:31:10.978Z</time>
      </trkpt>
      <trkpt lat="48.87438" lon="2.29383">
        <ele>107</ele>
        <time>2015-07-06T20:31:14.046Z</time>
      </trkpt>
      <trkpt lat="48.87437" lon="2.29386">
        <ele>106.6</ele>
        <time>2015-07-06T20:31:15.055Z</time>
      </trkpt>
      <trkpt lat="48.87431" lon="2.29395">
        <ele>105.5</ele>
        <time>2015-07-06T20:31:19.941Z</time>
      </trkpt>
      <trkpt lat="48.8743" lon="2.29396">
        <ele>105.6</ele>
        <time>2015-07-06T20:31:20.041Z</time>
      </trkpt>
      <trkpt lat="48.8743" lon="2.29396">
        <ele>105.6</ele>
        <time>2015-07-06T20:31:33.998Z</time>
      </trkpt>
      <trkpt lat="48.87364" lon="2.29633">
        <ele>106.3</ele>
        <time>2015-07-06T20:32:34.950Z</time>
      </trkpt>
      <trkpt lat="48.87364" lon="2.29633">
        <ele>106.3</ele>
        <time>2015-07-06T20:33:28.046Z</time>
      </trkpt>
      <trkpt lat="48.87341" lon="2.29651">
        <ele>110</ele>
        <time>2015-07-06T20:33:28.990Z</time>
      </trkpt>
      <trkpt lat="48.87333" lon="2.29654">
        <ele>109.8</ele>
        <time>2015-07-06T20:33:32.065Z</time>
      </trkpt>
      <trkpt lat="48.87331" lon="2.29655">
        <ele>109.6</ele>
        <time>2015-07-06T20:33:33.074Z</time>
      </trkpt>
      <trkpt lat="48.87326" lon="2.29662">
        <ele>110.5</ele>
        <time>2015-07-06T20:33:35.016Z</time>
      </trkpt>
      <trkpt lat="48.87324" lon="2.29664">
        <ele>111</ele>
        <time>2015-07-06T20:33:36.043Z</time>
      </trkpt>
      <trkpt lat="48.8732" lon="2.29674">
        <ele>111.5</ele>
        <time>2015-07-06T20:33:39.910Z</time>
      </trkpt>
      <trkpt lat="48.87319" lon="2.29678">
        <ele>111.7</ele>
        <time>2015-07-06T20:33:40.020Z</time>
      </trkpt>
      <trkpt lat="48.87317" lon="2.29687">
        <ele>112.6</ele>
        <time>2015-07-06T20:33:42.041Z</time>
      </trkpt>
      <trkpt lat="48.87315" lon="2.29692">
        <ele>112.8</ele>
        <time>2015-07-06T20:33:43.051Z</time>
      </trkpt>
      <trkpt lat="48.8731" lon="2.29699">
        <ele>113</ele>
        <time>2015-07-06T20:33:45.072Z</time>
      </trkpt>
      <trkpt lat="48.87308" lon="2.29702">
        <ele>113.3</ele>
        <time>2015-07-06T20:33:46.015Z</time>
      </trkpt>
      <trkpt lat="48.87304" lon="2.29711">
        <ele>119.6</ele>
        <time>2015-07-06T20:34:14.031Z</time>
      </trkpt>
      <trkpt lat="48.87304" lon="2.29715">
        <ele>120</ele>
        <time>2015-07-06T20:34:15.020Z</time>
      </trkpt>
      <trkpt lat="48.87302" lon="2.29727">
        <ele>122</ele>
        <time>2015-07-06T20:34:20.061Z</time>
      </trkpt>
      <trkpt lat="48.87302" lon="2.2973">
        <ele>122.3</ele>
        <time>2015-07-06T20:34:20.974Z</time>
      </trkpt>
      <trkpt lat="48.87299" lon="2.29742">
        <ele>124</ele>
        <time>2015-07-06T20:34:24.043Z</time>
      </trkpt>
      <trkpt lat="48.87299" lon="2.29746">
        <ele>124.4</ele>
        <time>2015-07-06T20:34:25.050Z</time>
      </trkpt>
      <trkpt lat="48.87299" lon="2.29756">
        <ele>125.6</ele>
        <time>2015-07-06T20:34:26.972Z</time>
      </trkpt>
      <trkpt lat="48.87299" lon="2.2976">
        <ele>126.1</ele>
        <time>2015-07-06T20:34:27.992Z</time>
      </trkpt>
      <trkpt lat="48.87299" lon="2.29769">
        <ele>127.3</ele>
        <time>2015-07-06T20:34:31.005Z</time>
      </trkpt>
      <trkpt lat="48.87299" lon="2.29774">
        <ele>127.5</ele>
        <time>2015-07-06T20:34:32.126Z</time>
      </trkpt>
      <trkpt lat="48.87296" lon="2.29785">
        <ele>128.5</ele>
        <time>2015-07-06T20:34:33.993Z</time>
      </trkpt>
      <trkpt lat="48.87296" lon="2.29789">
        <ele>129</ele>
        <time>2015-07-06T20:34:34.995Z</time>
      </trkpt>
      <trkpt lat="48.87296" lon="2.29795">
        <ele>129.1</ele>
        <time>2015-07-06T20:34:36Z</time>
      </trkpt>
      <trkpt lat="48.87295" lon="2.29803">
        <ele>129.6</ele>
        <time>2015-07-06T20:34:37.070Z</time>
      </trkpt>
      <trkpt lat="48.87295" lon="2.29811">
        <ele>130</ele>
        <time>2015-07-06T20:34:38.010Z</time>
      </trkpt>
      <trkpt lat="48.87293" lon="2.29818">
        <ele>130.2</ele>
        <time>2015-07-06T20:34:39.002Z</time>
      </trkpt>
      <trkpt lat="48.87291" lon="2.29825">
        <ele>130.5</ele>
        <time>2015-07-06T20:34:40.014Z</time>
      </trkpt>
      <trkpt lat="48.87287" lon="2.29832">
        <ele>131.2</ele>
        <time>2015-07-06T20:34:41.023Z</time>
      </trkpt>
      <trkpt lat="48.87284" lon="2.2984">
        <ele>131.3</ele>
        <time>2015-07-06T20:34:42.036Z</time>
      </trkpt>
      <trkpt lat="48.87281" lon="2.29847">
        <ele>131.4</ele>
        <time>2015-07-06T20:34:43.041Z</time>
      </trkpt>
      <trkpt lat="48.87278" lon="2.29855">
        <ele>131.6</ele>
        <time>2015-07-06T20:34:44.054Z</time>
      </trkpt>
      <trkpt lat="48.87276" lon="2.29861">
        <ele>131.7</ele>
        <time>2015-07-06T20:34:44.958Z</time>
      </trkpt>
      <trkpt lat="48.87273" lon="2.29867">
        <ele>131.6</ele>
        <time>2015-07-06T20:34:46.234Z</time>
      </trkpt>
      <trkpt lat="48.87269" lon="2.29874">
        <ele>131.4</ele>
        <time>2015-07-06T20:34:46.980Z</time>
      </trkpt>
      <trkpt lat="48.87264" lon="2.29881">
        <ele>131.5</ele>
        <time>2015-07-06T20:34:47.987Z</time>
      </trkpt>
      <trkpt lat="48.87262" lon="2.29886">
        <ele>131.7</ele>
        <time>2015-07-06T20:34:49.033Z</time>
      </trkpt>
      <trkpt lat="48.87259" lon="2.29892">
        <ele>131.7</ele>
        <time>2015-07-06T20:34:50.068Z</time>
      </trkpt>
      <trkpt lat="48.87255" lon="2.29898">
        <ele>131.7</ele>
        <time>2015-07-06T20:34:50.968Z</time>
      </trkpt>
      <trkpt lat="48.87251" lon="2.29909">
        <ele>131.6</ele>
        <time>2015-07-06T20:34:52.990Z</time>
      </trkpt>
      <trkpt lat="48.87251" lon="2.29914">
        <ele>131.6</ele>
        <time>2015-07-06T20:34:53.990Z</time>
      </trkpt>
      <trkpt lat="48.87253" lon="2.29923">
        <ele>133</ele>
        <time>2015-07-06T20:34:56.052Z</time>
      </trkpt>
      <trkpt lat="48.87251" lon="2.29928">
        <ele>133.3</ele>
        <time>2015-07-06T20:34:57.063Z</time>
      </trkpt>
      <trkpt lat="48.87247" lon="2.29936">
        <ele>133.9</ele>
        <time>2015-07-06T20:34:58.979Z</time>
      </trkpt>
      <trkpt lat="48.87246" lon="2.2994">
        <ele>134.6</ele>
        <time>2015-07-06T20:35:00.140Z</time>
      </trkpt>
      <trkpt lat="48.87243" lon="2.2995">
        <ele>135.6</ele>
        <time>2015-07-06T20:35:02.026Z</time>
      </trkpt>
      <trkpt lat="48.87242" lon="2.29955">
        <ele>136.2</ele>
        <time>2015-07-06T20:35:03.035Z</time>
      </trkpt>
      <trkpt lat="48.87241" lon="2.29962">
        <ele>136.7</ele>
        <time>2015-07-06T20:35:04.046Z</time>
      </trkpt>
      <trkpt lat="48.8724" lon="2.29969">
        <ele>137.4</ele>
        <time>2015-07-06T20:35:05.056Z</time>
      </trkpt>
      <trkpt lat="48.87239" lon="2.29977">
        <ele>137.5</ele>
        <time>2015-07-06T20:35:05.970Z</time>
      </trkpt>
      <trkpt lat="48.87235" lon="2.29988">
        <ele>137.1</ele>
        <time>2015-07-06T20:35:06.963Z</time>
      </trkpt>
      <trkpt lat="48.87231" lon="2.29997">
        <ele>136.7</ele>
        <time>2015-07-06T20:35:07.988Z</time>
      </trkpt>
      <trkpt lat="48.87228" lon="2.30004">
        <ele>136</ele>
        <time>2015-07-06T20:35:09.006Z</time>
      </trkpt>
      <trkpt lat="48.87226" lon="2.30009">
        <ele>135.8</ele>
        <time>2015-07-06T20:35:09.945Z</time>
      </trkpt>
      <trkpt lat="48.87221" lon="2.30016">
        <ele>134.7</ele>
        <time>2015-07-06T20:35:10.983Z</time>
      </trkpt>
      <trkpt lat="48.8722" lon="2.30029">
        <ele>134.9</ele>
        <time>2015-07-06T20:35:13.025Z</time>
      </trkpt>
      <trkpt lat="48.87218" lon="2.30034">
        <ele>135</ele>
        <time>2015-07-06T20:35:14.034Z</time>
      </trkpt>
      <trkpt lat="48.87214" lon="2.30044">
        <ele>134.6</ele>
        <time>2015-07-06T20:35:16.012Z</time>
      </trkpt>
      <trkpt lat="48.87213" lon="2.30048">
        <ele>134.7</ele>
        <time>2015-07-06T20:35:17.033Z</time>
      </trkpt>
      <trkpt lat="48.87212" lon="2.30053">
        <ele>134.7</ele>
        <time>2015-07-06T20:35:17.986Z</time>
      </trkpt>
      <trkpt lat="48.87206" lon="2.30061">
        <ele>133.5</ele>
        <time>2015-07-06T20:35:18.983Z</time>
      </trkpt>
      <trkpt lat="48.87203" lon="2.30071">
        <ele>132.7</ele>
        <time>2015-07-06T20:35:21.021Z</time>
      </trkpt>
      <trkpt lat="48.87203" lon="2.30073">
        <ele>132.3</ele>
        <time>2015-07-06T20:35:22.028Z</time>
      </trkpt>
      <trkpt lat="48.872" lon="2.30085">
        <ele>130.1</ele>
        <time>2015-07-06T20:35:31.013Z</time>
      </trkpt>
      <trkpt lat="48.87179" lon="2.30102">
        <ele>120.7</ele>
        <time>2015-07-06T20:35:32.065Z</time>
      </trkpt>
      <trkpt lat="48.87174" lon="2.30112">
        <ele>119.5</ele>
        <time>2015-07-06T20:35:34Z</time>
      </trkpt>
      <trkpt lat="48.87172" lon="2.30115">
        <ele>119.1</ele>
        <time>2015-07-06T20:35:35.014Z</time>
      </trkpt>
      <trkpt lat="48.87167" lon="2.30125">
        <ele>118.3</ele>
        <time>2015-07-06T20:35:38.124Z</time>
      </trkpt>
      <trkpt lat="48.87166" lon="2.30127">
        <ele>118.2</ele>
        <time>2015-07-06T20:35:39.015Z</time>
      </trkpt>
      <trkpt lat="48.8717" lon="2.30135">
        <ele>117.6</ele>
        <time>2015-07-06T20:35:42.977Z</time>
      </trkpt>
      <trkpt lat="48.87171" lon="2.30139">
        <ele>117.5</ele>
        <time>2015-07-06T20:35:44.055Z</time>
      </trkpt>
      <trkpt lat="48.8717" lon="2.30148">
        <ele>117.7</ele>
        <time>2015-07-06T20:35:45.970Z</time>
      </trkpt>
      <trkpt lat="48.87168" lon="2.30155">
        <ele>117.8</ele>
        <time>2015-07-06T20:35:47.048Z</time>
      </trkpt>
      <trkpt lat="48.87166" lon="2.30161">
        <ele>117.4</ele>
        <time>2015-07-06T20:35:48.064Z</time>
      </trkpt>
      <trkpt lat="48.87164" lon="2.30167">
        <ele>117</ele>
        <time>2015-07-06T20:35:49Z</time>
      </trkpt>
      <trkpt lat="48.87161" lon="2.30176">
        <ele>117.1</ele>
        <time>2015-07-06T20:35:51.030Z</time>
      </trkpt>
      <trkpt lat="48.8716" lon="2.30181">
        <ele>117</ele>
        <time>2015-07-06T20:35:52.038Z</time>
      </trkpt>
      <trkpt lat="48.87159" lon="2.3019">
        <ele>117.4</ele>
        <time>2015-07-06T20:35:53.987Z</time>
      </trkpt>
      <trkpt lat="48.87158" lon="2.30195">
        <ele>117.9</ele>
        <time>2015-07-06T20:35:55.027Z</time>
      </trkpt>
      <trkpt lat="48.87155" lon="2.30205">
        <ele>119.1</ele>
        <time>2015-07-06T20:35:57.011Z</time>
      </trkpt>
      <trkpt lat="48.87153" lon="2.30211">
        <ele>120</ele>
        <time>2015-07-06T20:35:57.998Z</time>
      </trkpt>
      <trkpt lat="48.8715" lon="2.30222">
        <ele>121.4</ele>
        <time>2015-07-06T20:36:00.067Z</time>
      </trkpt>
      <trkpt lat="48.87149" lon="2.30228">
        <ele>121.8</ele>
        <time>2015-07-06T20:36:00.982Z</time>
      </trkpt>
      <trkpt lat="48.87148" lon="2.30239">
        <ele>123.3</ele>
        <time>2015-07-06T20:36:03.005Z</time>
      </trkpt>
      <trkpt lat="48.87148" lon="2.30243">
        <ele>123.8</ele>
        <time>2015-07-06T20:36:03.989Z</time>
      </trkpt>
      <trkpt lat="48.87147" lon="2.30254">
        <ele>124.5</ele>
        <time>2015-07-06T20:36:06.012Z</time>
      </trkpt>
      <trkpt lat="48.87145" lon="2.30261">
        <ele>124.8</ele>
        <time>2015-07-06T20:36:07.031Z</time>
      </trkpt>
      <trkpt lat="48.87145" lon="2.30271">
        <ele>125.9</ele>
        <time>2015-07-06T20:36:09.048Z</time>
      </trkpt>
      <trkpt lat="48.87143" lon="2.30276">
        <ele>126.5</ele>
        <time>2015-07-06T20:36:09.981Z</time>
      </trkpt>
      <trkpt lat="48.87139" lon="2.30287">
        <ele>126.7</ele>
        <time>2015-07-06T20:36:11.954Z</time>
      </trkpt>
      <trkpt lat="48.87136" lon="2.30292">
        <ele>127.1</ele>
        <time>2015-07-06T20:36:13.077Z</time>
      </trkpt>
      <trkpt lat="48.87133" lon="2.30304">
        <ele>127.5</ele>
        <time>2015-07-06T20:36:15.945Z</time>
      </trkpt>
      <trkpt lat="48.87132" lon="2.30307">
        <ele>127.6</ele>
        <time>2015-07-06T20:36:17.036Z</time>
      </trkpt>
      <trkpt lat="48.87129" lon="2.30319">
        <ele>128.2</ele>
        <time>2015-07-06T20:36:20.118Z</time>
      </trkpt>
      <trkpt lat="48.87128" lon="2.30321">
        <ele>128.2</ele>
        <time>2015-07-06T20:36:21.086Z</time>
      </trkpt>
      <trkpt lat="48.87126" lon="2.30332">
        <ele>129.1</ele>
        <time>2015-07-06T20:36:24.043Z</time>
      </trkpt>
      <trkpt lat="48.87125" lon="2.30337">
        <ele>129.5</ele>
        <time>2015-07-06T20:36:25.057Z</time>
      </trkpt>
      <trkpt lat="48.87123" lon="2.30346">
        <ele>130.7</ele>
        <time>2015-07-06T20:36:26.959Z</time>
      </trkpt>
      <trkpt lat="48.87122" lon="2.3035">
        <ele>131.3</ele>
        <time>2015-07-06T20:36:27.999Z</time>
      </trkpt>
      <trkpt lat="48.87119" lon="2.30356">
        <ele>131.8</ele>
        <time>2015-07-06T20:36:29.041Z</time>
      </trkpt>
      <trkpt lat="48.87117" lon="2.30362">
        <ele>131.9</ele>
        <time>2015-07-06T20:36:29.933Z</time>
      </trkpt>
      <trkpt lat="48.87115" lon="2.30374">
        <ele>132</ele>
        <time>2015-07-06T20:36:32.043Z</time>
      </trkpt>
      <trkpt lat="48.87114" lon="2.3038">
        <ele>131.8</ele>
        <time>2015-07-06T20:36:33.024Z</time>
      </trkpt>
      <trkpt lat="48.87113" lon="2.30387">
        <ele>132</ele>
        <time>2015-07-06T20:36:33.955Z</time>
      </trkpt>
      <trkpt lat="48.87112" lon="2.30395">
        <ele>132.2</ele>
        <time>2015-07-06T20:36:34.956Z</time>
      </trkpt>
      <trkpt lat="48.87111" lon="2.30402">
        <ele>132.5</ele>
        <time>2015-07-06T20:36:35.960Z</time>
      </trkpt>
      <trkpt lat="48.87109" lon="2.30411">
        <ele>132.6</ele>
        <time>2015-07-06T20:36:36.971Z</time>
      </trkpt>
      <trkpt lat="48.87108" lon="2.30419">
        <ele>132.4</ele>
        <time>2015-07-06T20:36:38.014Z</time>
      </trkpt>
      <trkpt lat="48.87109" lon="2.30425">
        <ele>132.6</ele>
        <time>2015-07-06T20:36:39.034Z</time>
      </trkpt>
      <trkpt lat="48.87108" lon="2.30438">
        <ele>132.8</ele>
        <time>2015-07-06T20:36:40.961Z</time>
      </trkpt>
      <trkpt lat="48.87107" lon="2.30443">
        <ele>132.6</ele>
        <time>2015-07-06T20:36:41.972Z</time>
      </trkpt>
      <trkpt lat="48.87105" lon="2.30456">
        <ele>133.4</ele>
        <time>2015-07-06T20:36:45.958Z</time>
      </trkpt>
      <trkpt lat="48.87104" lon="2.3046">
        <ele>133.1</ele>
        <time>2015-07-06T20:36:46.970Z</time>
      </trkpt>
      <trkpt lat="48.87102" lon="2.3047">
        <ele>133.1</ele>
        <time>2015-07-06T20:36:49.008Z</time>
      </trkpt>
      <trkpt lat="48.871" lon="2.30475">
        <ele>133</ele>
        <time>2015-07-06T20:36:50.139Z</time>
      </trkpt>
      <trkpt lat="48.87096" lon="2.30485">
        <ele>131.6</ele>
        <time>2015-07-06T20:36:51.989Z</time>
      </trkpt>
      <trkpt lat="48.87094" lon="2.30488">
        <ele>130.6</ele>
        <time>2015-07-06T20:36:53.001Z</time>
      </trkpt>
      <trkpt lat="48.87089" lon="2.30495">
        <ele>130.1</ele>
        <time>2015-07-06T20:37:01.001Z</time>
      </trkpt>
      <trkpt lat="48.87081" lon="2.30511">
        <ele>130.9</ele>
        <time>2015-07-06T20:37:02.082Z</time>
      </trkpt>
      <trkpt lat="48.87079" lon="2.30519">
        <ele>130.3</ele>
        <time>2015-07-06T20:37:03.967Z</time>
      </trkpt>
      <trkpt lat="48.87078" lon="2.30524">
        <ele>130</ele>
        <time>2015-07-06T20:37:04.959Z</time>
      </trkpt>
      <trkpt lat="48.87076" lon="2.30535">
        <ele>129.3</ele>
        <time>2015-07-06T20:37:06.967Z</time>
      </trkpt>
      <trkpt lat="48.87073" lon="2.30541">
        <ele>129.1</ele>
        <time>2015-07-06T20:37:07.986Z</time>
      </trkpt>
      <trkpt lat="48.8707" lon="2.30548">
        <ele>128.4</ele>
        <time>2015-07-06T20:37:10.049Z</time>
      </trkpt>
      <trkpt lat="48.87068" lon="2.30553">
        <ele>127.8</ele>
        <time>2015-07-06T20:37:11.050Z</time>
      </trkpt>
      <trkpt lat="48.87063" lon="2.30563">
        <ele>126.8</ele>
        <time>2015-07-06T20:37:12.959Z</time>
      </trkpt>
      <trkpt lat="48.8706" lon="2.30569">
        <ele>126</ele>
        <time>2015-07-06T20:37:14.040Z</time>
      </trkpt>
      <trkpt lat="48.87058" lon="2.30581">
        <ele>126.4</ele>
        <time>2015-07-06T20:37:15.960Z</time>
      </trkpt>
      <trkpt lat="48.87057" lon="2.30585">
        <ele>126.4</ele>
        <time>2015-07-06T20:37:16.999Z</time>
      </trkpt>
      <trkpt lat="48.87055" lon="2.30595">
        <ele>126.7</ele>
        <time>2015-07-06T20:37:19.044Z</time>
      </trkpt>
      <trkpt lat="48.87055" lon="2.30599">
        <ele>126.8</ele>
        <time>2015-07-06T20:37:20.051Z</time>
      </trkpt>
      <trkpt lat="48.87052" lon="2.30608">
        <ele>126</ele>
        <time>2015-07-06T20:37:22.009Z</time>
      </trkpt>
      <trkpt lat="48.8705" lon="2.30613">
        <ele>125.3</ele>
        <time>2015-07-06T20:37:22.985Z</time>
      </trkpt>
      <trkpt lat="48.87047" lon="2.30618">
        <ele>124.1</ele>
        <time>2015-07-06T20:37:23.997Z</time>
      </trkpt>
      <trkpt lat="48.87042" lon="2.30626">
        <ele>122.3</ele>
        <time>2015-07-06T20:37:25.012Z</time>
      </trkpt>
      <trkpt lat="48.87036" lon="2.30636">
        <ele>118.8</ele>
        <time>2015-07-06T20:37:27.046Z</time>
      </trkpt>
      <trkpt lat="48.87032" lon="2.3064">
        <ele>116.9</ele>
        <time>2015-07-06T20:37:28.026Z</time>
      </trkpt>
      <trkpt lat="48.87028" lon="2.3065">
        <ele>116.4</ele>
        <time>2015-07-06T20:37:40.037Z</time>
      </trkpt>
      <trkpt lat="48.87018" lon="2.30675">
        <ele>114.8</ele>
        <time>2015-07-06T20:37:41.060Z</time>
      </trkpt>
      <trkpt lat="48.87016" lon="2.30681">
        <ele>114.7</ele>
        <time>2015-07-06T20:37:41.983Z</time>
      </trkpt>
      <trkpt lat="48.87014" lon="2.30688">
        <ele>114.6</ele>
        <time>2015-07-06T20:37:43.073Z</time>
      </trkpt>
      <trkpt lat="48.87012" lon="2.30695">
        <ele>114.6</ele>
        <time>2015-07-06T20:37:44.081Z</time>
      </trkpt>
      <trkpt lat="48.8701" lon="2.30703">
        <ele>114.3</ele>
        <time>2015-07-06T20:37:44.997Z</time>
      </trkpt>
      <trkpt lat="48.87006" lon="2.30711">
        <ele>114.5</ele>
        <time>2015-07-06T20:37:46.009Z</time>
      </trkpt>
      <trkpt lat="48.87004" lon="2.30719">
        <ele>114.5</ele>
        <time>2015-07-06T20:37:47.014Z</time>
      </trkpt>
      <trkpt lat="48.87003" lon="2.30728">
        <ele>114.6</ele>
        <time>2015-07-06T20:37:48.042Z</time>
      </trkpt>
      <trkpt lat="48.87001" lon="2.30736">
        <ele>114.8</ele>
        <time>2015-07-06T20:37:49.068Z</time>
      </trkpt>
      <trkpt lat="48.86998" lon="2.30745">
        <ele>115.1</ele>
        <time>2015-07-06T20:37:50.091Z</time>
      </trkpt>
      <trkpt lat="48.86996" lon="2.30755">
        <ele>115.1</ele>
        <time>2015-07-06T20:37:50.984Z</time>
      </trkpt>
      <trkpt lat="48.86993" lon="2.30764">
        <ele>114.8</ele>
        <time>2015-07-06T20:37:51.998Z</time>
      </trkpt>
      <trkpt lat="48.86991" lon="2.30772">
        <ele>114.4</ele>
        <time>2015-07-06T20:37:53.004Z</time>
      </trkpt>
      <trkpt lat="48.86989" lon="2.30779">
        <ele>114.4</ele>
        <time>2015-07-06T20:37:54.032Z</time>
      </trkpt>
      <trkpt lat="48.86988" lon="2.30786">
        <ele>114</ele>
        <time>2015-07-06T20:37:55.039Z</time>
      </trkpt>
      <trkpt lat="48.86986" lon="2.30791">
        <ele>113.8</ele>
        <time>2015-07-06T20:37:56.053Z</time>
      </trkpt>
      <trkpt lat="48.8698" lon="2.30797">
        <ele>112.6</ele>
        <time>2015-07-06T20:37:57.065Z</time>
      </trkpt>
      <trkpt lat="48.86973" lon="2.30804">
        <ele>111.3</ele>
        <time>2015-07-06T20:37:57.995Z</time>
      </trkpt>
      <trkpt lat="48.86968" lon="2.30811">
        <ele>110.1</ele>
        <time>2015-07-06T20:37:58.988Z</time>
      </trkpt>
      <trkpt lat="48.86964" lon="2.30817">
        <ele>109.1</ele>
        <time>2015-07-06T20:37:59.986Z</time>
      </trkpt>
      <trkpt lat="48.86961" lon="2.30822">
        <ele>109</ele>
        <time>2015-07-06T20:38:00.992Z</time>
      </trkpt>
      <trkpt lat="48.86959" lon="2.30829">
        <ele>108.5</ele>
        <time>2015-07-06T20:38:02.044Z</time>
      </trkpt>
      <trkpt lat="48.86957" lon="2.30836">
        <ele>108.4</ele>
        <time>2015-07-06T20:38:02.980Z</time>
      </trkpt>
      <trkpt lat="48.86955" lon="2.30843">
        <ele>108</ele>
        <time>2015-07-06T20:38:03.970Z</time>
      </trkpt>
      <trkpt lat="48.86953" lon="2.3085">
        <ele>107.5</ele>
        <time>2015-07-06T20:38:04.974Z</time>
      </trkpt>
      <trkpt lat="48.8695" lon="2.30856">
        <ele>107.6</ele>
        <time>2015-07-06T20:38:05.983Z</time>
      </trkpt>
      <trkpt lat="48.86948" lon="2.30862">
        <ele>107.5</ele>
        <time>2015-07-06T20:38:06.987Z</time>
      </trkpt>
      <trkpt lat="48.86941" lon="2.30862">
        <ele>103.4</ele>
        <time>2015-07-06T20:43:17.971Z</time>
      </trkpt>
      <trkpt lat="48.86933" lon="2.30889">
        <ele>108.1</ele>
        <time>2015-07-06T20:43:19.025Z</time>
      </trkpt>
      <trkpt lat="48.8693" lon="2.30894">
        <ele>107.9</ele>
        <time>2015-07-06T20:43:21.047Z</time>
      </trkpt>
      <trkpt lat="48.86924" lon="2.309">
        <ele>106.1</ele>
        <time>2015-07-06T20:43:22.009Z</time>
      </trkpt>
      <trkpt lat="48.86914" lon="2.30908">
        <ele>102.4</ele>
        <time>2015-07-06T20:43:22.967Z</time>
      </trkpt>
      <trkpt lat="48.86908" lon="2.30911">
        <ele>100.4</ele>
        <time>2015-07-06T20:43:23.961Z</time>
      </trkpt>
      <trkpt lat="48.86902" lon="2.30913">
        <ele>98.2</ele>
        <time>2015-07-06T20:43:24.978Z</time>
      </trkpt>
      <trkpt lat="48.86895" lon="2.30917">
        <ele>96.7</ele>
        <time>2015-07-06T20:43:26.995Z</time>
      </trkpt>
      <trkpt lat="48.86892" lon="2.30919">
        <ele>96.4</ele>
        <time>2015-07-06T20:43:28.003Z</time>
      </trkpt>
      <trkpt lat="48.86887" lon="2.30922">
        <ele>95.9</ele>
        <time>2015-07-06T20:43:29.937Z</time>
      </trkpt>
      <trkpt lat="48.86883" lon="2.30923">
        <ele>95.1</ele>
        <time>2015-07-06T20:43:30.949Z</time>
      </trkpt>
      <trkpt lat="48.86877" lon="2.30925">
        <ele>93.7</ele>
        <time>2015-07-06T20:43:32.967Z</time>
      </trkpt>
      <trkpt lat="48.86873" lon="2.30926">
        <ele>93.3</ele>
        <time>2015-07-06T20:43:34.009Z</time>
      </trkpt>
      <trkpt lat="48.86866" lon="2.3093">
        <ele>93</ele>
        <time>2015-07-06T20:43:35.963Z</time>
      </trkpt>
      <trkpt lat="48.86863" lon="2.30932">
        <ele>92.9</ele>
        <time>2015-07-06T20:43:36.997Z</time>
      </trkpt>
      <trkpt lat="48.86857" lon="2.30941">
        <ele>94.1</ele>
        <time>2015-07-06T20:43:39.984Z</time>
      </trkpt>
      <trkpt lat="48.86855" lon="2.30943">
        <ele>94.4</ele>
        <time>2015-07-06T20:43:41.019Z</time>
      </trkpt>
      <trkpt lat="48.8685" lon="2.30953">
        <ele>94.6</ele>
        <time>2015-07-06T20:43:47.009Z</time>
      </trkpt>
      <trkpt lat="48.86849" lon="2.30957">
        <ele>95</ele>
        <time>2015-07-06T20:43:47.944Z</time>
      </trkpt>
      <trkpt lat="48.8685" lon="2.3097">
        <ele>93.5</ele>
        <time>2015-07-06T20:43:51.001Z</time>
      </trkpt>
      <trkpt lat="48.86849" lon="2.30973">
        <ele>93.6</ele>
        <time>2015-07-06T20:43:52.011Z</time>
      </trkpt>
      <trkpt lat="48.86846" lon="2.3098">
        <ele>93.3</ele>
        <time>2015-07-06T20:43:53.964Z</time>
      </trkpt>
      <trkpt lat="48.86841" lon="2.30986">
        <ele>92.4</ele>
        <time>2015-07-06T20:43:54.969Z</time>
      </trkpt>
      <trkpt lat="48.86839" lon="2.30999">
        <ele>92.4</ele>
        <time>2015-07-06T20:43:57.999Z</time>
      </trkpt>
      <trkpt lat="48.86834" lon="2.31004">
        <ele>91.1</ele>
        <time>2015-07-06T20:43:58.963Z</time>
      </trkpt>
      <trkpt lat="48.86829" lon="2.31008">
        <ele>90.4</ele>
        <time>2015-07-06T20:43:59.963Z</time>
      </trkpt>
      <trkpt lat="48.86824" lon="2.3101">
        <ele>89.9</ele>
        <time>2015-07-06T20:44:00.963Z</time>
      </trkpt>
      <trkpt lat="48.8682" lon="2.31012">
        <ele>89.3</ele>
        <time>2015-07-06T20:44:01.994Z</time>
      </trkpt>
      <trkpt lat="48.86814" lon="2.31013">
        <ele>89.1</ele>
        <time>2015-07-06T20:44:02.999Z</time>
      </trkpt>
      <trkpt lat="48.86808" lon="2.31014">
        <ele>88.6</ele>
        <time>2015-07-06T20:44:04.042Z</time>
      </trkpt>
      <trkpt lat="48.86803" lon="2.31015">
        <ele>88.3</ele>
        <time>2015-07-06T20:44:04.955Z</time>
      </trkpt>
      <trkpt lat="48.86798" lon="2.31016">
        <ele>88.1</ele>
        <time>2015-07-06T20:44:05.995Z</time>
      </trkpt>
      <trkpt lat="48.86792" lon="2.31016">
        <ele>88</ele>
        <time>2015-07-06T20:44:07.045Z</time>
      </trkpt>
      <trkpt lat="48.86786" lon="2.31015">
        <ele>87.9</ele>
        <time>2015-07-06T20:44:08.060Z</time>
      </trkpt>
      <trkpt lat="48.8678" lon="2.31015">
        <ele>87.7</ele>
        <time>2015-07-06T20:44:08.962Z</time>
      </trkpt>
      <trkpt lat="48.86775" lon="2.31014">
        <ele>87.7</ele>
        <time>2015-07-06T20:44:09.973Z</time>
      </trkpt>
      <trkpt lat="48.86768" lon="2.31014">
        <ele>87.4</ele>
        <time>2015-07-06T20:44:10.980Z</time>
      </trkpt>
      <trkpt lat="48.86762" lon="2.31015">
        <ele>87.3</ele>
        <time>2015-07-06T20:44:11.957Z</time>
      </trkpt>
      <trkpt lat="48.86757" lon="2.31015">
        <ele>87.2</ele>
        <time>2015-07-06T20:44:12.961Z</time>
      </trkpt>
      <trkpt lat="48.86751" lon="2.31014">
        <ele>87.5</ele>
        <time>2015-07-06T20:44:14.010Z</time>
      </trkpt>
      <trkpt lat="48.86745" lon="2.31014">
        <ele>87.7</ele>
        <time>2015-07-06T20:44:15.016Z</time>
      </trkpt>
      <trkpt lat="48.8674" lon="2.31012">
        <ele>87.8</ele>
        <time>2015-07-06T20:44:16.028Z</time>
      </trkpt>
      <trkpt lat="48.86734" lon="2.3101">
        <ele>87.4</ele>
        <time>2015-07-06T20:44:17.047Z</time>
      </trkpt>
      <trkpt lat="48.86728" lon="2.31008">
        <ele>87.2</ele>
        <time>2015-07-06T20:44:18.032Z</time>
      </trkpt>
      <trkpt lat="48.86723" lon="2.31007">
        <ele>86.9</ele>
        <time>2015-07-06T20:44:18.989Z</time>
      </trkpt>
      <trkpt lat="48.86718" lon="2.31006">
        <ele>86.6</ele>
        <time>2015-07-06T20:44:20.029Z</time>
      </trkpt>
      <trkpt lat="48.86713" lon="2.31005">
        <ele>86.5</ele>
        <time>2015-07-06T20:44:21.029Z</time>
      </trkpt>
      <trkpt lat="48.86707" lon="2.31004">
        <ele>86</ele>
        <time>2015-07-06T20:44:22.038Z</time>
      </trkpt>
      <trkpt lat="48.86702" lon="2.31003">
        <ele>85.8</ele>
        <time>2015-07-06T20:44:22.960Z</time>
      </trkpt>
      <trkpt lat="48.86697" lon="2.31002">
        <ele>85.5</ele>
        <time>2015-07-06T20:44:23.947Z</time>
      </trkpt>
      <trkpt lat="48.86691" lon="2.31003">
        <ele>85.3</ele>
        <time>2015-07-06T20:44:24.957Z</time>
      </trkpt>
      <trkpt lat="48.86686" lon="2.31005">
        <ele>85.3</ele>
        <time>2015-07-06T20:44:25.992Z</time>
      </trkpt>
      <trkpt lat="48.86681" lon="2.31011">
        <ele>85.5</ele>
        <time>2015-07-06T20:44:26.986Z</time>
      </trkpt>
      <trkpt lat="48.86677" lon="2.31016">
        <ele>85.4</ele>
        <time>2015-07-06T20:44:27.992Z</time>
      </trkpt>
      <trkpt lat="48.86672" lon="2.31021">
        <ele>85.8</ele>
        <time>2015-07-06T20:44:28.994Z</time>
      </trkpt>
      <trkpt lat="48.86667" lon="2.31022">
        <ele>85.9</ele>
        <time>2015-07-06T20:44:30.008Z</time>
      </trkpt>
      <trkpt lat="48.86663" lon="2.31022">
        <ele>86.2</ele>
        <time>2015-07-06T20:44:31.012Z</time>
      </trkpt>
      <trkpt lat="48.86658" lon="2.31024">
        <ele>86.8</ele>
        <time>2015-07-06T20:44:32.060Z</time>
      </trkpt>
      <trkpt lat="48.86652" lon="2.31026">
        <ele>87.5</ele>
        <time>2015-07-06T20:44:32.930Z</time>
      </trkpt>
      <trkpt lat="48.86647" lon="2.31028">
        <ele>88.4</ele>
        <time>2015-07-06T20:44:33.946Z</time>
      </trkpt>
      <trkpt lat="48.86642" lon="2.3103">
        <ele>89.3</ele>
        <time>2015-07-06T20:44:34.959Z</time>
      </trkpt>
      <trkpt lat="48.86638" lon="2.31032">
        <ele>90.1</ele>
        <time>2015-07-06T20:44:35.973Z</time>
      </trkpt>
      <trkpt lat="48.86633" lon="2.31034">
        <ele>90.9</ele>
        <time>2015-07-06T20:44:36.996Z</time>
      </trkpt>
      <trkpt lat="48.86628" lon="2.31036">
        <ele>91.5</ele>
        <time>2015-07-06T20:44:38.050Z</time>
      </trkpt>
      <trkpt lat="48.86622" lon="2.31037">
        <ele>92.1</ele>
        <time>2015-07-06T20:44:39.010Z</time>
      </trkpt>
      <trkpt lat="48.86617" lon="2.31038">
        <ele>92.9</ele>
        <time>2015-07-06T20:44:40.021Z</time>
      </trkpt>
      <trkpt lat="48.86612" lon="2.31038">
        <ele>93.3</ele>
        <time>2015-07-06T20:44:40.968Z</time>
      </trkpt>
      <trkpt lat="48.86606" lon="2.31038">
        <ele>93.8</ele>
        <time>2015-07-06T20:44:41.955Z</time>
      </trkpt>
      <trkpt lat="48.86601" lon="2.31039">
        <ele>94.4</ele>
        <time>2015-07-06T20:44:42.974Z</time>
      </trkpt>
      <trkpt lat="48.86596" lon="2.3104">
        <ele>94.9</ele>
        <time>2015-07-06T20:44:44.022Z</time>
      </trkpt>
      <trkpt lat="48.86591" lon="2.3104">
        <ele>95.5</ele>
        <time>2015-07-06T20:44:45.103Z</time>
      </trkpt>
      <trkpt lat="48.86587" lon="2.31039">
        <ele>96.1</ele>
        <time>2015-07-06T20:44:45.961Z</time>
      </trkpt>
      <trkpt lat="48.86582" lon="2.31038">
        <ele>96.6</ele>
        <time>2015-07-06T20:44:46.957Z</time>
      </trkpt>
      <trkpt lat="48.86578" lon="2.31038">
        <ele>96.8</ele>
        <time>2015-07-06T20:44:47.959Z</time>
      </trkpt>
      <trkpt lat="48.86573" lon="2.31037">
        <ele>97</ele>
        <time>2015-07-06T20:44:48.966Z</time>
      </trkpt>
      <trkpt lat="48.86568" lon="2.31037">
        <ele>97</ele>
        <time>2015-07-06T20:44:50.010Z</time>
      </trkpt>
      <trkpt lat="48.86564" lon="2.31036">
        <ele>97.1</ele>
        <time>2015-07-06T20:44:51.017Z</time>
      </trkpt>
      <trkpt lat="48.86559" lon="2.31035">
        <ele>97.3</ele>
        <time>2015-07-06T20:44:52.028Z</time>
      </trkpt>
      <trkpt lat="48.86554" lon="2.31035">
        <ele>97.6</ele>
        <time>2015-07-06T20:44:53.039Z</time>
      </trkpt>
      <trkpt lat="48.8655" lon="2.31036">
        <ele>97.7</ele>
        <time>2015-07-06T20:44:53.959Z</time>
      </trkpt>
      <trkpt lat="48.86545" lon="2.31036">
        <ele>97.4</ele>
        <time>2015-07-06T20:44:54.960Z</time>
      </trkpt>
      <trkpt lat="48.8654" lon="2.31036">
        <ele>97.4</ele>
        <time>2015-07-06T20:44:56.010Z</time>
      </trkpt>
      <trkpt lat="48.86535" lon="2.31036">
        <ele>97.1</ele>
        <time>2015-07-06T20:44:57.013Z</time>
      </trkpt>
      <trkpt lat="48.8653" lon="2.31037">
        <ele>97.2</ele>
        <time>2015-07-06T20:44:58.025Z</time>
      </trkpt>
      <trkpt lat="48.86526" lon="2.31038">
        <ele>97</ele>
        <time>2015-07-06T20:44:59.032Z</time>
      </trkpt>
      <trkpt lat="48.86517" lon="2.31041">
        <ele>96.4</ele>
        <time>2015-07-06T20:45:00.961Z</time>
      </trkpt>
      <trkpt lat="48.86514" lon="2.31042">
        <ele>95.9</ele>
        <time>2015-07-06T20:45:02.036Z</time>
      </trkpt>
      <trkpt lat="48.86508" lon="2.31045">
        <ele>95.5</ele>
        <time>2015-07-06T20:45:03.957Z</time>
      </trkpt>
      <trkpt lat="48.86505" lon="2.31045">
        <ele>95.2</ele>
        <time>2015-07-06T20:45:04.982Z</time>
      </trkpt>
      <trkpt lat="48.86497" lon="2.31048">
        <ele>94.3</ele>
        <time>2015-07-06T20:45:08.037Z</time>
      </trkpt>
      <trkpt lat="48.86495" lon="2.31049">
        <ele>93.2</ele>
        <time>2015-07-06T20:45:09.053Z</time>
      </trkpt>
      <trkpt lat="48.86487" lon="2.31053">
        <ele>92</ele>
        <time>2015-07-06T20:45:11.986Z</time>
      </trkpt>
      <trkpt lat="48.86485" lon="2.31052">
        <ele>91.5</ele>
        <time>2015-07-06T20:45:13.068Z</time>
      </trkpt>
      <trkpt lat="48.86478" lon="2.31052">
        <ele>91.3</ele>
        <time>2015-07-06T20:45:17.048Z</time>
      </trkpt>
      <trkpt lat="48.86476" lon="2.31052">
        <ele>91.8</ele>
        <time>2015-07-06T20:45:18.055Z</time>
      </trkpt>
      <trkpt lat="48.86468" lon="2.31051">
        <ele>90.8</ele>
        <time>2015-07-06T20:45:23.001Z</time>
      </trkpt>
      <trkpt lat="48.86467" lon="2.31051">
        <ele>90.4</ele>
        <time>2015-07-06T20:45:24.059Z</time>
      </trkpt>
      <trkpt lat="48.86459" lon="2.31055">
        <ele>87.6</ele>
        <time>2015-07-06T20:45:31.008Z</time>
      </trkpt>
      <trkpt lat="48.86458" lon="2.31057">
        <ele>87.1</ele>
        <time>2015-07-06T20:45:32.041Z</time>
      </trkpt>
      <trkpt lat="48.86453" lon="2.31068">
        <ele>84.6</ele>
        <time>2015-07-06T20:45:37.009Z</time>
      </trkpt>
      <trkpt lat="48.86453" lon="2.31071">
        <ele>84.1</ele>
        <time>2015-07-06T20:45:38.031Z</time>
      </trkpt>
      <trkpt lat="48.86456" lon="2.31083">
        <ele>82.2</ele>
        <time>2015-07-06T20:45:42.043Z</time>
      </trkpt>
      <trkpt lat="48.86456" lon="2.31089">
        <ele>81.7</ele>
        <time>2015-07-06T20:45:42.989Z</time>
      </trkpt>
      <trkpt lat="48.86457" lon="2.311">
        <ele>81.6</ele>
        <time>2015-07-06T20:45:44.997Z</time>
      </trkpt>
      <trkpt lat="48.86457" lon="2.31106">
        <ele>81.7</ele>
        <time>2015-07-06T20:45:46.042Z</time>
      </trkpt>
      <trkpt lat="48.86457" lon="2.31113">
        <ele>81.6</ele>
        <time>2015-07-06T20:45:46.964Z</time>
      </trkpt>
      <trkpt lat="48.86457" lon="2.31121">
        <ele>81.5</ele>
        <time>2015-07-06T20:45:47.960Z</time>
      </trkpt>
      <trkpt lat="48.86456" lon="2.31129">
        <ele>81.3</ele>
        <time>2015-07-06T20:45:48.965Z</time>
      </trkpt>
      <trkpt lat="48.86455" lon="2.31135">
        <ele>81.3</ele>
        <time>2015-07-06T20:45:50.005Z</time>
      </trkpt>
      <trkpt lat="48.86456" lon="2.31144">
        <ele>81.3</ele>
        <time>2015-07-06T20:45:51.990Z</time>
      </trkpt>
      <trkpt lat="48.86457" lon="2.31149">
        <ele>81.2</ele>
        <time>2015-07-06T20:45:53.010Z</time>
      </trkpt>
      <trkpt lat="48.86459" lon="2.31161">
        <ele>81.1</ele>
        <time>2015-07-06T20:45:55.040Z</time>
      </trkpt>
      <trkpt lat="48.86459" lon="2.31168">
        <ele>81.2</ele>
        <time>2015-07-06T20:45:56.081Z</time>
      </trkpt>
      <trkpt lat="48.86459" lon="2.31176">
        <ele>81.2</ele>
        <time>2015-07-06T20:45:56.961Z</time>
      </trkpt>
      <trkpt lat="48.86458" lon="2.31185">
        <ele>81.2</ele>
        <time>2015-07-06T20:45:57.991Z</time>
      </trkpt>
      <trkpt lat="48.86457" lon="2.31194">
        <ele>81.1</ele>
        <time>2015-07-06T20:45:59.007Z</time>
      </trkpt>
      <trkpt lat="48.86455" lon="2.31204">
        <ele>81</ele>
        <time>2015-07-06T20:46:00.022Z</time>
      </trkpt>
      <trkpt lat="48.86454" lon="2.31213">
        <ele>81</ele>
        <time>2015-07-06T20:46:01.031Z</time>
      </trkpt>
      <trkpt lat="48.86453" lon="2.31223">
        <ele>80.9</ele>
        <time>2015-07-06T20:46:02.039Z</time>
      </trkpt>
      <trkpt lat="48.86452" lon="2.31232">
        <ele>80.9</ele>
        <time>2015-07-06T20:46:02.953Z</time>
      </trkpt>
      <trkpt lat="48.86452" lon="2.3124">
        <ele>80.7</ele>
        <time>2015-07-06T20:46:03.974Z</time>
      </trkpt>
      <trkpt lat="48.86451" lon="2.31249">
        <ele>80.5</ele>
        <time>2015-07-06T20:46:04.980Z</time>
      </trkpt>
      <trkpt lat="48.8645" lon="2.31257">
        <ele>80.4</ele>
        <time>2015-07-06T20:46:05.984Z</time>
      </trkpt>
      <trkpt lat="48.86449" lon="2.3127">
        <ele>80.1</ele>
        <time>2015-07-06T20:46:08.009Z</time>
      </trkpt>
      <trkpt lat="48.8645" lon="2.31276">
        <ele>80.2</ele>
        <time>2015-07-06T20:46:09.025Z</time>
      </trkpt>
      <trkpt lat="48.86452" lon="2.31283">
        <ele>80.6</ele>
        <time>2015-07-06T20:46:09.966Z</time>
      </trkpt>
      <trkpt lat="48.86453" lon="2.31294">
        <ele>80.8</ele>
        <time>2015-07-06T20:46:10.967Z</time>
      </trkpt>
      <trkpt lat="48.86455" lon="2.31301">
        <ele>80.8</ele>
        <time>2015-07-06T20:46:11.976Z</time>
      </trkpt>
      <trkpt lat="48.86455" lon="2.31308">
        <ele>81</ele>
        <time>2015-07-06T20:46:12.977Z</time>
      </trkpt>
      <trkpt lat="48.86455" lon="2.31318">
        <ele>80.9</ele>
        <time>2015-07-06T20:46:14.027Z</time>
      </trkpt>
      <trkpt lat="48.86455" lon="2.31325">
        <ele>81.1</ele>
        <time>2015-07-06T20:46:15.027Z</time>
      </trkpt>
      <trkpt lat="48.86457" lon="2.31338">
        <ele>81.8</ele>
        <time>2015-07-06T20:46:17.941Z</time>
      </trkpt>
      <trkpt lat="48.86458" lon="2.31339">
        <ele>81.6</ele>
        <time>2015-07-06T20:46:19.001Z</time>
      </trkpt>
      <trkpt lat="48.86457" lon="2.31343">
        <ele>80.6</ele>
        <time>2015-07-06T20:46:46.001Z</time>
      </trkpt>
      <trkpt lat="48.86456" lon="2.31355">
        <ele>82.2</ele>
        <time>2015-07-06T20:46:47.027Z</time>
      </trkpt>
      <trkpt lat="48.86458" lon="2.31366">
        <ele>81.5</ele>
        <time>2015-07-06T20:46:50.048Z</time>
      </trkpt>
      <trkpt lat="48.86458" lon="2.3137">
        <ele>81.6</ele>
        <time>2015-07-06T20:46:50.987Z</time>
      </trkpt>
      <trkpt lat="48.86458" lon="2.3138">
        <ele>81.8</ele>
        <time>2015-07-06T20:46:54.036Z</time>
      </trkpt>
      <trkpt lat="48.86458" lon="2.31384">
        <ele>81.9</ele>
        <time>2015-07-06T20:46:55.052Z</time>
      </trkpt>
      <trkpt lat="48.86459" lon="2.31392">
        <ele>81.4</ele>
        <time>2015-07-06T20:46:56.964Z</time>
      </trkpt>
      <trkpt lat="48.8646" lon="2.31397">
        <ele>81.1</ele>
        <time>2015-07-06T20:46:57.986Z</time>
      </trkpt>
      <trkpt lat="48.86462" lon="2.31409">
        <ele>81.1</ele>
        <time>2015-07-06T20:47:00.018Z</time>
      </trkpt>
      <trkpt lat="48.86463" lon="2.31415">
        <ele>81.2</ele>
        <time>2015-07-06T20:47:00.937Z</time>
      </trkpt>
      <trkpt lat="48.86464" lon="2.31428">
        <ele>81.1</ele>
        <time>2015-07-06T20:47:02.963Z</time>
      </trkpt>
      <trkpt lat="48.86464" lon="2.31434">
        <ele>80.9</ele>
        <time>2015-07-06T20:47:03.990Z</time>
      </trkpt>
      <trkpt lat="48.86466" lon="2.31446">
        <ele>81.2</ele>
        <time>2015-07-06T20:47:05.932Z</time>
      </trkpt>
      <trkpt lat="48.86466" lon="2.31453">
        <ele>81.2</ele>
        <time>2015-07-06T20:47:07.003Z</time>
      </trkpt>
      <trkpt lat="48.86467" lon="2.31459">
        <ele>81.1</ele>
        <time>2015-07-06T20:47:08.043Z</time>
      </trkpt>
      <trkpt lat="48.86466" lon="2.31467">
        <ele>81.2</ele>
        <time>2015-07-06T20:47:09.052Z</time>
      </trkpt>
      <trkpt lat="48.86466" lon="2.3148">
        <ele>81.7</ele>
        <time>2015-07-06T20:47:10.971Z</time>
      </trkpt>
      <trkpt lat="48.86466" lon="2.31488">
        <ele>81.7</ele>
        <time>2015-07-06T20:47:12.014Z</time>
      </trkpt>
      <trkpt lat="48.86466" lon="2.31496">
        <ele>81.5</ele>
        <time>2015-07-06T20:47:13.046Z</time>
      </trkpt>
      <trkpt lat="48.86466" lon="2.31503">
        <ele>81.6</ele>
        <time>2015-07-06T20:47:14.051Z</time>
      </trkpt>
      <trkpt lat="48.86466" lon="2.31511">
        <ele>81.9</ele>
        <time>2015-07-06T20:47:14.977Z</time>
      </trkpt>
      <trkpt lat="48.86467" lon="2.31519">
        <ele>82.3</ele>
        <time>2015-07-06T20:47:15.985Z</time>
      </trkpt>
      <trkpt lat="48.86468" lon="2.31527">
        <ele>82.4</ele>
        <time>2015-07-06T20:47:17.006Z</time>
      </trkpt>
      <trkpt lat="48.86468" lon="2.31534">
        <ele>82.4</ele>
        <time>2015-07-06T20:47:18.120Z</time>
      </trkpt>
      <trkpt lat="48.86469" lon="2.31543">
        <ele>82.4</ele>
        <time>2015-07-06T20:47:18.975Z</time>
      </trkpt>
      <trkpt lat="48.86469" lon="2.31551">
        <ele>82.4</ele>
        <time>2015-07-06T20:47:20.026Z</time>
      </trkpt>
      <trkpt lat="48.8647" lon="2.31558">
        <ele>82.6</ele>
        <time>2015-07-06T20:47:21.026Z</time>
      </trkpt>
      <trkpt lat="48.86471" lon="2.31566">
        <ele>82.7</ele>
        <time>2015-07-06T20:47:22.032Z</time>
      </trkpt>
      <trkpt lat="48.86471" lon="2.31574">
        <ele>82.7</ele>
        <time>2015-07-06T20:47:22.973Z</time>
      </trkpt>
      <trkpt lat="48.8647" lon="2.31584">
        <ele>82.7</ele>
        <time>2015-07-06T20:47:24.056Z</time>
      </trkpt>
      <trkpt lat="48.86469" lon="2.31595">
        <ele>82.8</ele>
        <time>2015-07-06T20:47:24.971Z</time>
      </trkpt>
      <trkpt lat="48.86467" lon="2.31607">
        <ele>83</ele>
        <time>2015-07-06T20:47:26.034Z</time>
      </trkpt>
      <trkpt lat="48.86465" lon="2.31618">
        <ele>83.3</ele>
        <time>2015-07-06T20:47:27.020Z</time>
      </trkpt>
      <trkpt lat="48.86464" lon="2.31628">
        <ele>83.2</ele>
        <time>2015-07-06T20:47:28.041Z</time>
      </trkpt>
      <trkpt lat="48.86464" lon="2.31638">
        <ele>83.2</ele>
        <time>2015-07-06T20:47:28.965Z</time>
      </trkpt>
      <trkpt lat="48.86465" lon="2.31648">
        <ele>83.1</ele>
        <time>2015-07-06T20:47:30.066Z</time>
      </trkpt>
      <trkpt lat="48.86464" lon="2.31657">
        <ele>83.1</ele>
        <time>2015-07-06T20:47:31.045Z</time>
      </trkpt>
      <trkpt lat="48.86465" lon="2.31665">
        <ele>83.1</ele>
        <time>2015-07-06T20:47:32.049Z</time>
      </trkpt>
      <trkpt lat="48.86465" lon="2.31674">
        <ele>83.1</ele>
        <time>2015-07-06T20:47:32.963Z</time>
      </trkpt>
      <trkpt lat="48.86465" lon="2.31682">
        <ele>83</ele>
        <time>2015-07-06T20:47:33.967Z</time>
      </trkpt>
      <trkpt lat="48.86465" lon="2.31689">
        <ele>83.2</ele>
        <time>2015-07-06T20:47:34.992Z</time>
      </trkpt>
      <trkpt lat="48.86466" lon="2.31698">
        <ele>83.2</ele>
        <time>2015-07-06T20:47:36.018Z</time>
      </trkpt>
      <trkpt lat="48.86468" lon="2.31706">
        <ele>82.9</ele>
        <time>2015-07-06T20:47:36.977Z</time>
      </trkpt>
      <trkpt lat="48.86469" lon="2.31713">
        <ele>82.8</ele>
        <time>2015-07-06T20:47:38.018Z</time>
      </trkpt>
      <trkpt lat="48.86471" lon="2.31721">
        <ele>82.9</ele>
        <time>2015-07-06T20:47:39.011Z</time>
      </trkpt>
      <trkpt lat="48.86471" lon="2.3173">
        <ele>83</ele>
        <time>2015-07-06T20:47:40.025Z</time>
      </trkpt>
      <trkpt lat="48.8647" lon="2.31741">
        <ele>83.2</ele>
        <time>2015-07-06T20:47:41.047Z</time>
      </trkpt>
      <trkpt lat="48.86471" lon="2.31749">
        <ele>82.9</ele>
        <time>2015-07-06T20:47:41.973Z</time>
      </trkpt>
      <trkpt lat="48.86471" lon="2.31758">
        <ele>82.6</ele>
        <time>2015-07-06T20:47:42.966Z</time>
      </trkpt>
      <trkpt lat="48.86471" lon="2.31766">
        <ele>82.5</ele>
        <time>2015-07-06T20:47:44.046Z</time>
      </trkpt>
      <trkpt lat="48.86471" lon="2.31774">
        <ele>82.4</ele>
        <time>2015-07-06T20:47:44.968Z</time>
      </trkpt>
      <trkpt lat="48.86471" lon="2.31781">
        <ele>82.4</ele>
        <time>2015-07-06T20:47:45.973Z</time>
      </trkpt>
      <trkpt lat="48.86471" lon="2.31789">
        <ele>82.2</ele>
        <time>2015-07-06T20:47:46.988Z</time>
      </trkpt>
      <trkpt lat="48.86472" lon="2.31798">
        <ele>80.9</ele>
        <time>2015-07-06T20:47:47.992Z</time>
      </trkpt>
      <trkpt lat="48.86472" lon="2.31807">
        <ele>80.8</ele>
        <time>2015-07-06T20:47:49.001Z</time>
      </trkpt>
      <trkpt lat="48.86471" lon="2.31815">
        <ele>81</ele>
        <time>2015-07-06T20:47:50.018Z</time>
      </trkpt>
      <trkpt lat="48.8647" lon="2.31823">
        <ele>80.9</ele>
        <time>2015-07-06T20:47:51.027Z</time>
      </trkpt>
      <trkpt lat="48.86468" lon="2.31831">
        <ele>80.8</ele>
        <time>2015-07-06T20:47:52.041Z</time>
      </trkpt>
      <trkpt lat="48.86464" lon="2.31839">
        <ele>80.2</ele>
        <time>2015-07-06T20:47:53.038Z</time>
      </trkpt>
      <trkpt lat="48.86461" lon="2.31846">
        <ele>79.1</ele>
        <time>2015-07-06T20:47:54.046Z</time>
      </trkpt>
      <trkpt lat="48.86456" lon="2.31854">
        <ele>79.3</ele>
        <time>2015-07-06T20:47:54.965Z</time>
      </trkpt>
      <trkpt lat="48.86451" lon="2.31859">
        <ele>78.9</ele>
        <time>2015-07-06T20:47:56.018Z</time>
      </trkpt>
      <trkpt lat="48.86446" lon="2.31869">
        <ele>78.8</ele>
        <time>2015-07-06T20:47:58.010Z</time>
      </trkpt>
      <trkpt lat="48.86444" lon="2.31873">
        <ele>78.9</ele>
        <time>2015-07-06T20:47:59.020Z</time>
      </trkpt>
      <trkpt lat="48.86442" lon="2.31881">
        <ele>78.8</ele>
        <time>2015-07-06T20:48:00.967Z</time>
      </trkpt>
      <trkpt lat="48.86441" lon="2.31886">
        <ele>78.7</ele>
        <time>2015-07-06T20:48:02.105Z</time>
      </trkpt>
      <trkpt lat="48.86438" lon="2.31897">
        <ele>78.8</ele>
        <time>2015-07-06T20:48:03.981Z</time>
      </trkpt>
      <trkpt lat="48.86436" lon="2.31904">
        <ele>78.8</ele>
        <time>2015-07-06T20:48:04.989Z</time>
      </trkpt>
      <trkpt lat="48.86434" lon="2.31911">
        <ele>78.9</ele>
        <time>2015-07-06T20:48:06.030Z</time>
      </trkpt>
      <trkpt lat="48.86432" lon="2.31918">
        <ele>78.8</ele>
        <time>2015-07-06T20:48:07.038Z</time>
      </trkpt>
      <trkpt lat="48.8643" lon="2.31925">
        <ele>79.3</ele>
        <time>2015-07-06T20:48:08.042Z</time>
      </trkpt>
      <trkpt lat="48.86428" lon="2.31931">
        <ele>79.6</ele>
        <time>2015-07-06T20:48:08.967Z</time>
      </trkpt>
      <trkpt lat="48.86424" lon="2.31941">
        <ele>80.2</ele>
        <time>2015-07-06T20:48:10.970Z</time>
      </trkpt>
      <trkpt lat="48.86422" lon="2.31947">
        <ele>80.2</ele>
        <time>2015-07-06T20:48:12.002Z</time>
      </trkpt>
      <trkpt lat="48.86419" lon="2.31957">
        <ele>79.9</ele>
        <time>2015-07-06T20:48:14.039Z</time>
      </trkpt>
      <trkpt lat="48.86418" lon="2.3196">
        <ele>80.2</ele>
        <time>2015-07-06T20:48:14.992Z</time>
      </trkpt>
      <trkpt lat="48.86415" lon="2.31969">
        <ele>80.4</ele>
        <time>2015-07-06T20:48:16.971Z</time>
      </trkpt>
      <trkpt lat="48.86414" lon="2.31973">
        <ele>80.5</ele>
        <time>2015-07-06T20:48:17.998Z</time>
      </trkpt>
      <trkpt lat="48.86411" lon="2.31986">
        <ele>81.4</ele>
        <time>2015-07-06T20:49:15.043Z</time>
      </trkpt>
      <trkpt lat="48.86406" lon="2.32008">
        <ele>83.3</ele>
        <time>2015-07-06T20:49:15.998Z</time>
      </trkpt>
      <trkpt lat="48.86402" lon="2.32019">
        <ele>82.8</ele>
        <time>2015-07-06T20:49:21.033Z</time>
      </trkpt>
      <trkpt lat="48.86402" lon="2.32022">
        <ele>82.8</ele>
        <time>2015-07-06T20:49:22.048Z</time>
      </trkpt>
      <trkpt lat="48.86399" lon="2.32033">
        <ele>82.2</ele>
        <time>2015-07-06T20:49:26.022Z</time>
      </trkpt>
      <trkpt lat="48.86398" lon="2.32037">
        <ele>82.1</ele>
        <time>2015-07-06T20:49:27.012Z</time>
      </trkpt>
      <trkpt lat="48.86395" lon="2.32046">
        <ele>82.2</ele>
        <time>2015-07-06T20:49:29.036Z</time>
      </trkpt>
      <trkpt lat="48.86394" lon="2.3205">
        <ele>81.9</ele>
        <time>2015-07-06T20:49:30.045Z</time>
      </trkpt>
      <trkpt lat="48.86391" lon="2.32061">
        <ele>82.7</ele>
        <time>2015-07-06T20:49:32.134Z</time>
      </trkpt>
      <trkpt lat="48.8639" lon="2.32066">
        <ele>83</ele>
        <time>2015-07-06T20:49:32.999Z</time>
      </trkpt>
      <trkpt lat="48.86387" lon="2.32077">
        <ele>82.8</ele>
        <time>2015-07-06T20:49:35.022Z</time>
      </trkpt>
      <trkpt lat="48.86385" lon="2.32082">
        <ele>82.6</ele>
        <time>2015-07-06T20:49:36.028Z</time>
      </trkpt>
      <trkpt lat="48.8638" lon="2.32092">
        <ele>82.5</ele>
        <time>2015-07-06T20:49:38.073Z</time>
      </trkpt>
      <trkpt lat="48.86379" lon="2.32097">
        <ele>82.4</ele>
        <time>2015-07-06T20:49:38.976Z</time>
      </trkpt>
      <trkpt lat="48.86375" lon="2.32108">
        <ele>82.5</ele>
        <time>2015-07-06T20:49:41.372Z</time>
      </trkpt>
      <trkpt lat="48.86373" lon="2.32114">
        <ele>82.4</ele>
        <time>2015-07-06T20:49:42.058Z</time>
      </trkpt>
      <trkpt lat="48.8637" lon="2.32126">
        <ele>82.4</ele>
        <time>2015-07-06T20:49:44.099Z</time>
      </trkpt>
      <trkpt lat="48.86368" lon="2.32133">
        <ele>82.2</ele>
        <time>2015-07-06T20:49:45.017Z</time>
      </trkpt>
      <trkpt lat="48.86366" lon="2.3214">
        <ele>82.5</ele>
        <time>2015-07-06T20:49:46.413Z</time>
      </trkpt>
      <trkpt lat="48.86364" lon="2.32147">
        <ele>82.6</ele>
        <time>2015-07-06T20:49:47.035Z</time>
      </trkpt>
      <trkpt lat="48.86362" lon="2.32155">
        <ele>82.5</ele>
        <time>2015-07-06T20:49:47.969Z</time>
      </trkpt>
      <trkpt lat="48.8636" lon="2.32163">
        <ele>82.9</ele>
        <time>2015-07-06T20:49:49.011Z</time>
      </trkpt>
      <trkpt lat="48.86358" lon="2.32172">
        <ele>82.8</ele>
        <time>2015-07-06T20:49:50.214Z</time>
      </trkpt>
      <trkpt lat="48.86355" lon="2.3218">
        <ele>83.3</ele>
        <time>2015-07-06T20:49:50.994Z</time>
      </trkpt>
      <trkpt lat="48.86352" lon="2.32189">
        <ele>83.7</ele>
        <time>2015-07-06T20:49:51.966Z</time>
      </trkpt>
      <trkpt lat="48.86349" lon="2.322">
        <ele>84.3</ele>
        <time>2015-07-06T20:49:53.002Z</time>
      </trkpt>
      <trkpt lat="48.86346" lon="2.3221">
        <ele>84.7</ele>
        <time>2015-07-06T20:49:53.987Z</time>
      </trkpt>
      <trkpt lat="48.86343" lon="2.32221">
        <ele>84.9</ele>
        <time>2015-07-06T20:49:54.989Z</time>
      </trkpt>
      <trkpt lat="48.86339" lon="2.32233">
        <ele>85.1</ele>
        <time>2015-07-06T20:49:55.987Z</time>
      </trkpt>
      <trkpt lat="48.86335" lon="2.32244">
        <ele>85</ele>
        <time>2015-07-06T20:49:56.993Z</time>
      </trkpt>
      <trkpt lat="48.86331" lon="2.32256">
        <ele>84.7</ele>
        <time>2015-07-06T20:49:57.999Z</time>
      </trkpt>
      <trkpt lat="48.86327" lon="2.32268">
        <ele>84.5</ele>
        <time>2015-07-06T20:49:59.011Z</time>
      </trkpt>
      <trkpt lat="48.86323" lon="2.3228">
        <ele>84.5</ele>
        <time>2015-07-06T20:50:00.028Z</time>
      </trkpt>
      <trkpt lat="48.86319" lon="2.32293">
        <ele>84.4</ele>
        <time>2015-07-06T20:50:00.943Z</time>
      </trkpt>
      <trkpt lat="48.86315" lon="2.32305">
        <ele>83.9</ele>
        <time>2015-07-06T20:50:01.987Z</time>
      </trkpt>
      <trkpt lat="48.86311" lon="2.32316">
        <ele>84</ele>
        <time>2015-07-06T20:50:02.999Z</time>
      </trkpt>
      <trkpt lat="48.86307" lon="2.32328">
        <ele>83.9</ele>
        <time>2015-07-06T20:50:04.024Z</time>
      </trkpt>
      <trkpt lat="48.86304" lon="2.3234">
        <ele>84.2</ele>
        <time>2015-07-06T20:50:04.967Z</time>
      </trkpt>
      <trkpt lat="48.863" lon="2.32352">
        <ele>84.2</ele>
        <time>2015-07-06T20:50:05.987Z</time>
      </trkpt>
      <trkpt lat="48.86296" lon="2.32363">
        <ele>84</ele>
        <time>2015-07-06T20:50:06.994Z</time>
      </trkpt>
      <trkpt lat="48.86292" lon="2.32374">
        <ele>84</ele>
        <time>2015-07-06T20:50:08.011Z</time>
      </trkpt>
      <trkpt lat="48.86289" lon="2.32386">
        <ele>84.3</ele>
        <time>2015-07-06T20:50:09.016Z</time>
      </trkpt>
      <trkpt lat="48.86285" lon="2.32397">
        <ele>84.3</ele>
        <time>2015-07-06T20:50:10.026Z</time>
      </trkpt>
      <trkpt lat="48.86282" lon="2.32409">
        <ele>84.4</ele>
        <time>2015-07-06T20:50:11.054Z</time>
      </trkpt>
      <trkpt lat="48.86278" lon="2.32421">
        <ele>84.5</ele>
        <time>2015-07-06T20:50:11.964Z</time>
      </trkpt>
      <trkpt lat="48.86275" lon="2.32432">
        <ele>84.9</ele>
        <time>2015-07-06T20:50:12.964Z</time>
      </trkpt>
      <trkpt lat="48.86271" lon="2.32443">
        <ele>85</ele>
        <time>2015-07-06T20:50:13.988Z</time>
      </trkpt>
      <trkpt lat="48.86268" lon="2.32454">
        <ele>85.2</ele>
        <time>2015-07-06T20:50:15.006Z</time>
      </trkpt>
      <trkpt lat="48.86264" lon="2.32466">
        <ele>84.8</ele>
        <time>2015-07-06T20:50:16.010Z</time>
      </trkpt>
      <trkpt lat="48.8626" lon="2.32478">
        <ele>84.5</ele>
        <time>2015-07-06T20:50:17.025Z</time>
      </trkpt>
      <trkpt lat="48.86256" lon="2.3249">
        <ele>84.1</ele>
        <time>2015-07-06T20:50:18.027Z</time>
      </trkpt>
      <trkpt lat="48.86251" lon="2.32501">
        <ele>83.7</ele>
        <time>2015-07-06T20:50:19.049Z</time>
      </trkpt>
      <trkpt lat="48.86248" lon="2.32512">
        <ele>83.6</ele>
        <time>2015-07-06T20:50:20.059Z</time>
      </trkpt>
      <trkpt lat="48.86244" lon="2.32522">
        <ele>83.2</ele>
        <time>2015-07-06T20:50:20.994Z</time>
      </trkpt>
      <trkpt lat="48.8624" lon="2.32533">
        <ele>83.6</ele>
        <time>2015-07-06T20:50:22.008Z</time>
      </trkpt>
      <trkpt lat="48.86237" lon="2.32544">
        <ele>83.4</ele>
        <time>2015-07-06T20:50:23.018Z</time>
      </trkpt>
      <trkpt lat="48.86234" lon="2.32554">
        <ele>83.3</ele>
        <time>2015-07-06T20:50:24.033Z</time>
      </trkpt>
      <trkpt lat="48.8623" lon="2.32565">
        <ele>83.3</ele>
        <time>2015-07-06T20:50:25.037Z</time>
      </trkpt>
      <trkpt lat="48.86227" lon="2.32575">
        <ele>83.6</ele>
        <time>2015-07-06T20:50:26.049Z</time>
      </trkpt>
      <trkpt lat="48.86224" lon="2.32586">
        <ele>83.4</ele>
        <time>2015-07-06T20:50:26.961Z</time>
      </trkpt>
      <trkpt lat="48.86221" lon="2.32596">
        <ele>83.5</ele>
        <time>2015-07-06T20:50:27.956Z</time>
      </trkpt>
      <trkpt lat="48.86218" lon="2.32607">
        <ele>83.9</ele>
        <time>2015-07-06T20:50:28.969Z</time>
      </trkpt>
      <trkpt lat="48.86215" lon="2.32618">
        <ele>83.9</ele>
        <time>2015-07-06T20:50:29.983Z</time>
      </trkpt>
      <trkpt lat="48.86212" lon="2.3263">
        <ele>84</ele>
        <time>2015-07-06T20:50:30.991Z</time>
      </trkpt>
      <trkpt lat="48.86208" lon="2.3264">
        <ele>84.4</ele>
        <time>2015-07-06T20:50:32.018Z</time>
      </trkpt>
      <trkpt lat="48.86205" lon="2.3265">
        <ele>84.9</ele>
        <time>2015-07-06T20:50:33.018Z</time>
      </trkpt>
      <trkpt lat="48.86201" lon="2.3266">
        <ele>85.1</ele>
        <time>2015-07-06T20:50:34.022Z</time>
      </trkpt>
      <trkpt lat="48.86198" lon="2.3267">
        <ele>84.9</ele>
        <time>2015-07-06T20:50:35.118Z</time>
      </trkpt>
      <trkpt lat="48.86194" lon="2.3268">
        <ele>84.4</ele>
        <time>2015-07-06T20:50:35.930Z</time>
      </trkpt>
      <trkpt lat="48.86191" lon="2.32691">
        <ele>84.6</ele>
        <time>2015-07-06T20:50:36.959Z</time>
      </trkpt>
      <trkpt lat="48.86187" lon="2.327">
        <ele>84.8</ele>
        <time>2015-07-06T20:50:38.013Z</time>
      </trkpt>
      <trkpt lat="48.86184" lon="2.3271">
        <ele>85</ele>
        <time>2015-07-06T20:50:39.025Z</time>
      </trkpt>
      <trkpt lat="48.86181" lon="2.3272">
        <ele>84.6</ele>
        <time>2015-07-06T20:50:40.033Z</time>
      </trkpt>
      <trkpt lat="48.86178" lon="2.3273">
        <ele>84.2</ele>
        <time>2015-07-06T20:50:40.951Z</time>
      </trkpt>
      <trkpt lat="48.86174" lon="2.3274">
        <ele>84.1</ele>
        <time>2015-07-06T20:50:41.952Z</time>
      </trkpt>
      <trkpt lat="48.86171" lon="2.3275">
        <ele>83.9</ele>
        <time>2015-07-06T20:50:42.996Z</time>
      </trkpt>
      <trkpt lat="48.86167" lon="2.3276">
        <ele>83.7</ele>
        <time>2015-07-06T20:50:43.983Z</time>
      </trkpt>
      <trkpt lat="48.86164" lon="2.3277">
        <ele>83.5</ele>
        <time>2015-07-06T20:50:44.999Z</time>
      </trkpt>
      <trkpt lat="48.8616" lon="2.3278">
        <ele>83.3</ele>
        <time>2015-07-06T20:50:46.023Z</time>
      </trkpt>
      <trkpt lat="48.86157" lon="2.3279">
        <ele>83.4</ele>
        <time>2015-07-06T20:50:47.034Z</time>
      </trkpt>
      <trkpt lat="48.86154" lon="2.328">
        <ele>83.4</ele>
        <time>2015-07-06T20:50:47.963Z</time>
      </trkpt>
      <trkpt lat="48.86151" lon="2.32809">
        <ele>83.3</ele>
        <time>2015-07-06T20:50:48.967Z</time>
      </trkpt>
      <trkpt lat="48.86148" lon="2.32819">
        <ele>83.2</ele>
        <time>2015-07-06T20:50:50.069Z</time>
      </trkpt>
      <trkpt lat="48.86144" lon="2.32828">
        <ele>83.2</ele>
        <time>2015-07-06T20:50:50.935Z</time>
      </trkpt>
      <trkpt lat="48.8614" lon="2.32838">
        <ele>83.1</ele>
        <time>2015-07-06T20:50:51.961Z</time>
      </trkpt>
      <trkpt lat="48.86137" lon="2.32848">
        <ele>83.3</ele>
        <time>2015-07-06T20:50:52.957Z</time>
      </trkpt>
      <trkpt lat="48.86134" lon="2.32857">
        <ele>83.4</ele>
        <time>2015-07-06T20:50:53.968Z</time>
      </trkpt>
      <trkpt lat="48.86131" lon="2.32867">
        <ele>83.4</ele>
        <time>2015-07-06T20:50:54.978Z</time>
      </trkpt>
      <trkpt lat="48.86128" lon="2.32877">
        <ele>83.8</ele>
        <time>2015-07-06T20:50:56.013Z</time>
      </trkpt>
      <trkpt lat="48.86124" lon="2.32887">
        <ele>84</ele>
        <time>2015-07-06T20:50:57.036Z</time>
      </trkpt>
      <trkpt lat="48.86121" lon="2.32896">
        <ele>84.3</ele>
        <time>2015-07-06T20:50:58.045Z</time>
      </trkpt>
      <trkpt lat="48.86118" lon="2.32905">
        <ele>84.4</ele>
        <time>2015-07-06T20:50:58.961Z</time>
      </trkpt>
      <trkpt lat="48.86116" lon="2.32913">
        <ele>84.4</ele>
        <time>2015-07-06T20:50:59.955Z</time>
      </trkpt>
      <trkpt lat="48.86113" lon="2.3292">
        <ele>84.4</ele>
        <time>2015-07-06T20:51:00.965Z</time>
      </trkpt>
      <trkpt lat="48.86111" lon="2.32926">
        <ele>84.5</ele>
        <time>2015-07-06T20:51:02.019Z</time>
      </trkpt>
      <trkpt lat="48.86109" lon="2.32932">
        <ele>84.7</ele>
        <time>2015-07-06T20:51:03.047Z</time>
      </trkpt>
      <trkpt lat="48.86107" lon="2.32939">
        <ele>84.8</ele>
        <time>2015-07-06T20:51:04.036Z</time>
      </trkpt>
      <trkpt lat="48.86104" lon="2.32946">
        <ele>84.8</ele>
        <time>2015-07-06T20:51:04.939Z</time>
      </trkpt>
      <trkpt lat="48.86102" lon="2.32952">
        <ele>84.9</ele>
        <time>2015-07-06T20:51:05.941Z</time>
      </trkpt>
      <trkpt lat="48.861" lon="2.3296">
        <ele>85</ele>
        <time>2015-07-06T20:51:06.950Z</time>
      </trkpt>
      <trkpt lat="48.86098" lon="2.32966">
        <ele>84.9</ele>
        <time>2015-07-06T20:51:07.982Z</time>
      </trkpt>
      <trkpt lat="48.86096" lon="2.32971">
        <ele>85.3</ele>
        <time>2015-07-06T20:51:08.992Z</time>
      </trkpt>
      <trkpt lat="48.86093" lon="2.32978">
        <ele>85.3</ele>
        <time>2015-07-06T20:51:09.989Z</time>
      </trkpt>
      <trkpt lat="48.86091" lon="2.32986">
        <ele>85.2</ele>
        <time>2015-07-06T20:51:11.011Z</time>
      </trkpt>
      <trkpt lat="48.86089" lon="2.32992">
        <ele>85.3</ele>
        <time>2015-07-06T20:51:12.015Z</time>
      </trkpt>
      <trkpt lat="48.86083" lon="2.33002">
        <ele>85.4</ele>
        <time>2015-07-06T20:51:14.033Z</time>
      </trkpt>
      <trkpt lat="48.86081" lon="2.33005">
        <ele>85.3</ele>
        <time>2015-07-06T20:51:14.977Z</time>
      </trkpt>
      <trkpt lat="48.86078" lon="2.33005">
        <ele>85.4</ele>
        <time>2015-07-06T20:51:17.074Z</time>
      </trkpt>
      <trkpt lat="48.86078" lon="2.33003">
        <ele>85.1</ele>
        <time>2015-07-06T20:51:18.058Z</time>
      </trkpt>
      <trkpt lat="48.86078" lon="2.33001">
        <ele>84.6</ele>
        <time>2015-07-06T20:51:30.962Z</time>
      </trkpt>
      <trkpt lat="48.86086" lon="2.32989">
        <ele>84.5</ele>
        <time>2015-07-06T20:51:32.030Z</time>
      </trkpt>
      <trkpt lat="48.86095" lon="2.32992">
        <ele>84.4</ele>
        <time>2015-07-06T20:51:35.991Z</time>
      </trkpt>
      <trkpt lat="48.86097" lon="2.32993">
        <ele>84.4</ele>
        <time>2015-07-06T20:51:36.998Z</time>
      </trkpt>
      <trkpt lat="48.861" lon="2.33001">
        <ele>83.5</ele>
        <time>2015-07-06T20:52:29.004Z</time>
      </trkpt>
      <trkpt lat="48.86103" lon="2.33007">
        <ele>83.7</ele>
        <time>2015-07-06T20:52:29.986Z</time>
      </trkpt>
      <trkpt lat="48.86111" lon="2.33013">
        <ele>83.6</ele>
        <time>2015-07-06T20:52:33.038Z</time>
      </trkpt>
      <trkpt lat="48.86115" lon="2.33017">
        <ele>83.4</ele>
        <time>2015-07-06T20:52:33.993Z</time>
      </trkpt>
      <trkpt lat="48.8612" lon="2.33021">
        <ele>83.3</ele>
        <time>2015-07-06T20:52:34.965Z</time>
      </trkpt>
      <trkpt lat="48.86125" lon="2.33025">
        <ele>83.4</ele>
        <time>2015-07-06T20:52:35.962Z</time>
      </trkpt>
      <trkpt lat="48.8613" lon="2.33029">
        <ele>83.4</ele>
        <time>2015-07-06T20:52:36.975Z</time>
      </trkpt>
      <trkpt lat="48.86136" lon="2.33033">
        <ele>83.3</ele>
        <time>2015-07-06T20:52:38.012Z</time>
      </trkpt>
      <trkpt lat="48.86143" lon="2.33037">
        <ele>83.3</ele>
        <time>2015-07-06T20:52:39.015Z</time>
      </trkpt>
      <trkpt lat="48.8615" lon="2.33043">
        <ele>83.3</ele>
        <time>2015-07-06T20:52:40.024Z</time>
      </trkpt>
      <trkpt lat="48.86157" lon="2.33049">
        <ele>83.2</ele>
        <time>2015-07-06T20:52:41.040Z</time>
      </trkpt>
      <trkpt lat="48.86164" lon="2.33055">
        <ele>83</ele>
        <time>2015-07-06T20:52:42.053Z</time>
      </trkpt>
      <trkpt lat="48.86172" lon="2.3306">
        <ele>83.1</ele>
        <time>2015-07-06T20:52:42.930Z</time>
      </trkpt>
      <trkpt lat="48.86309" lon="2.33174">
        <ele>82.9</ele>
        <time>2015-07-06T20:53:00.962Z</time>
      </trkpt>
      <trkpt lat="48.86318" lon="2.33177">
        <ele>82.8</ele>
        <time>2015-07-06T20:53:01.971Z</time>
      </trkpt>
      <trkpt lat="48.86327" lon="2.33178">
        <ele>84.9</ele>
        <time>2015-07-06T20:53:04.009Z</time>
      </trkpt>
      <trkpt lat="48.8633" lon="2.33178">
        <ele>85.8</ele>
        <time>2015-07-06T20:53:05.024Z</time>
      </trkpt>
      <trkpt lat="48.86338" lon="2.33178">
        <ele>85.2</ele>
        <time>2015-07-06T20:53:06.989Z</time>
      </trkpt>
      <trkpt lat="48.86343" lon="2.33184">
        <ele>81.9</ele>
        <time>2015-07-06T20:53:08.011Z</time>
      </trkpt>
      <trkpt lat="48.86347" lon="2.33189">
        <ele>79.9</ele>
        <time>2015-07-06T20:53:09.040Z</time>
      </trkpt>
      <trkpt lat="48.86351" lon="2.33192">
        <ele>80.2</ele>
        <time>2015-07-06T20:53:09.976Z</time>
      </trkpt>
      <trkpt lat="48.86358" lon="2.33197">
        <ele>79.1</ele>
        <time>2015-07-06T20:53:12.020Z</time>
      </trkpt>
      <trkpt lat="48.86361" lon="2.33199">
        <ele>78.5</ele>
        <time>2015-07-06T20:53:13.148Z</time>
      </trkpt>
      <trkpt lat="48.86367" lon="2.33207">
        <ele>78.7</ele>
        <time>2015-07-06T20:53:16.946Z</time>
      </trkpt>
      <trkpt lat="48.86368" lon="2.33209">
        <ele>80.7</ele>
        <time>2015-07-06T20:53:17.997Z</time>
      </trkpt>
      <trkpt lat="48.86368" lon="2.33209">
        <ele>81.6</ele>
        <time>2015-07-06T20:53:41.914Z</time>
      </trkpt>
      <trkpt lat="48.8638" lon="2.33209">
        <ele>91.8</ele>
        <time>2015-07-06T20:53:42.913Z</time>
      </trkpt>
      <trkpt lat="48.86388" lon="2.33215">
        <ele>94.1</ele>
        <time>2015-07-06T20:53:47.024Z</time>
      </trkpt>
      <trkpt lat="48.86389" lon="2.33217">
        <ele>94.7</ele>
        <time>2015-07-06T20:53:48.051Z</time>
      </trkpt>
      <trkpt lat="48.86396" lon="2.3322">
        <ele>97.8</ele>
        <time>2015-07-06T20:53:52.988Z</time>
      </trkpt>
      <trkpt lat="48.86397" lon="2.33222">
        <ele>98.4</ele>
        <time>2015-07-06T20:53:54.006Z</time>
      </trkpt>
      <trkpt lat="48.86402" lon="2.33227">
        <ele>98.7</ele>
        <time>2015-07-06T20:53:56.027Z</time>
      </trkpt>
      <trkpt lat="48.86404" lon="2.33231">
        <ele>98.5</ele>
        <time>2015-07-06T20:53:56.968Z</time>
      </trkpt>
      <trkpt lat="48.8641" lon="2.33237">
        <ele>97.9</ele>
        <time>2015-07-06T20:53:58.993Z</time>
      </trkpt>
      <trkpt lat="48.86413" lon="2.33241">
        <ele>97.8</ele>
        <time>2015-07-06T20:54:00.046Z</time>
      </trkpt>
      <trkpt lat="48.86417" lon="2.3325">
        <ele>97.5</ele>
        <time>2015-07-06T20:54:02.080Z</time>
      </trkpt>
      <trkpt lat="48.8642" lon="2.33253">
        <ele>97.1</ele>
        <time>2015-07-06T20:54:02.993Z</time>
      </trkpt>
      <trkpt lat="48.86427" lon="2.33259">
        <ele>97</ele>
        <time>2015-07-06T20:54:05.087Z</time>
      </trkpt>
      <trkpt lat="48.8643" lon="2.33263">
        <ele>96.8</ele>
        <time>2015-07-06T20:54:05.948Z</time>
      </trkpt>
      <trkpt lat="48.86434" lon="2.33268">
        <ele>96.8</ele>
        <time>2015-07-06T20:54:06.941Z</time>
      </trkpt>
      <trkpt lat="48.8644" lon="2.33269">
        <ele>96.6</ele>
        <time>2015-07-06T20:54:08.069Z</time>
      </trkpt>
      <trkpt lat="48.86447" lon="2.33273">
        <ele>96.2</ele>
        <time>2015-07-06T20:54:10.109Z</time>
      </trkpt>
      <trkpt lat="48.86448" lon="2.33275">
        <ele>96.9</ele>
        <time>2015-07-06T20:54:10.961Z</time>
      </trkpt>
      <trkpt lat="48.86445" lon="2.33283">
        <ele>98.2</ele>
        <time>2015-07-06T20:54:13.012Z</time>
      </trkpt>
      <trkpt lat="48.86444" lon="2.33289">
        <ele>98.3</ele>
        <time>2015-07-06T20:54:14.036Z</time>
      </trkpt>
      <trkpt lat="48.86439" lon="2.33295">
        <ele>98.2</ele>
        <time>2015-07-06T20:54:15.122Z</time>
      </trkpt>
      <trkpt lat="48.86436" lon="2.33301">
        <ele>98.1</ele>
        <time>2015-07-06T20:54:15.931Z</time>
      </trkpt>
      <trkpt lat="48.86432" lon="2.33311">
        <ele>98</ele>
        <time>2015-07-06T20:54:17.961Z</time>
      </trkpt>
      <trkpt lat="48.8643" lon="2.33317">
        <ele>97.7</ele>
        <time>2015-07-06T20:54:18.977Z</time>
      </trkpt>
      <trkpt lat="48.86428" lon="2.33324">
        <ele>97.4</ele>
        <time>2015-07-06T20:54:20.084Z</time>
      </trkpt>
      <trkpt lat="48.86425" lon="2.3333">
        <ele>97.3</ele>
        <time>2015-07-06T20:54:20.955Z</time>
      </trkpt>
      <trkpt lat="48.86423" lon="2.33336">
        <ele>97.5</ele>
        <time>2015-07-06T20:54:21.935Z</time>
      </trkpt>
      <trkpt lat="48.86419" lon="2.33343">
        <ele>97.3</ele>
        <time>2015-07-06T20:54:22.948Z</time>
      </trkpt>
      <trkpt lat="48.86416" lon="2.3335">
        <ele>97.3</ele>
        <time>2015-07-06T20:54:23.946Z</time>
      </trkpt>
      <trkpt lat="48.86413" lon="2.33355">
        <ele>97.2</ele>
        <time>2015-07-06T20:54:24.963Z</time>
      </trkpt>
      <trkpt lat="48.86408" lon="2.33361">
        <ele>97.3</ele>
        <time>2015-07-06T20:54:25.975Z</time>
      </trkpt>
      <trkpt lat="48.86405" lon="2.33366">
        <ele>97.1</ele>
        <time>2015-07-06T20:54:26.994Z</time>
      </trkpt>
      <trkpt lat="48.86401" lon="2.3337">
        <ele>96.9</ele>
        <time>2015-07-06T20:54:27.927Z</time>
      </trkpt>
      <trkpt lat="48.86397" lon="2.33374">
        <ele>96.9</ele>
        <time>2015-07-06T20:54:28.936Z</time>
      </trkpt>
      <trkpt lat="48.86393" lon="2.3338">
        <ele>97</ele>
        <time>2015-07-06T20:54:29.950Z</time>
      </trkpt>
      <trkpt lat="48.8639" lon="2.33386">
        <ele>97</ele>
        <time>2015-07-06T20:54:30.988Z</time>
      </trkpt>
      <trkpt lat="48.86385" lon="2.33396">
        <ele>97.8</ele>
        <time>2015-07-06T20:54:33.178Z</time>
      </trkpt>
      <trkpt lat="48.8638" lon="2.33401">
        <ele>98.2</ele>
        <time>2015-07-06T20:54:33.947Z</time>
      </trkpt>
      <trkpt lat="48.86378" lon="2.33407">
        <ele>98.7</ele>
        <time>2015-07-06T20:54:34.956Z</time>
      </trkpt>
      <trkpt lat="48.86376" lon="2.33413">
        <ele>99</ele>
        <time>2015-07-06T20:54:35.956Z</time>
      </trkpt>
      <trkpt lat="48.86375" lon="2.3342">
        <ele>99.5</ele>
        <time>2015-07-06T20:54:36.983Z</time>
      </trkpt>
      <trkpt lat="48.86374" lon="2.33427">
        <ele>99.9</ele>
        <time>2015-07-06T20:54:37.998Z</time>
      </trkpt>
      <trkpt lat="48.86374" lon="2.33437">
        <ele>99.9</ele>
        <time>2015-07-06T20:54:38.937Z</time>
      </trkpt>
      <trkpt lat="48.86375" lon="2.33446">
        <ele>99.9</ele>
        <time>2015-07-06T20:54:39.970Z</time>
      </trkpt>
      <trkpt lat="48.86373" lon="2.33453">
        <ele>100.5</ele>
        <time>2015-07-06T20:54:40.963Z</time>
      </trkpt>
      <trkpt lat="48.86371" lon="2.33461">
        <ele>100.5</ele>
        <time>2015-07-06T20:54:41.968Z</time>
      </trkpt>
      <trkpt lat="48.86372" lon="2.33469">
        <ele>100.7</ele>
        <time>2015-07-06T20:54:42.891Z</time>
      </trkpt>
      <trkpt lat="48.86374" lon="2.33478">
        <ele>100.9</ele>
        <time>2015-07-06T20:54:43.941Z</time>
      </trkpt>
      <trkpt lat="48.86372" lon="2.33488">
        <ele>101.2</ele>
        <time>2015-07-06T20:54:45.957Z</time>
      </trkpt>
      <trkpt lat="48.8637" lon="2.33494">
        <ele>101.7</ele>
        <time>2015-07-06T20:54:46.919Z</time>
      </trkpt>
      <trkpt lat="48.86369" lon="2.33506">
        <ele>103</ele>
        <time>2015-07-06T20:54:48.951Z</time>
      </trkpt>
      <trkpt lat="48.86365" lon="2.3351">
        <ele>103.9</ele>
        <time>2015-07-06T20:54:49.989Z</time>
      </trkpt>
      <trkpt lat="48.86361" lon="2.33517">
        <ele>103.9</ele>
        <time>2015-07-06T20:54:50.999Z</time>
      </trkpt>
      <trkpt lat="48.86357" lon="2.33524">
        <ele>103.6</ele>
        <time>2015-07-06T20:54:52.002Z</time>
      </trkpt>
      <trkpt lat="48.86353" lon="2.3353">
        <ele>103.5</ele>
        <time>2015-07-06T20:54:52.919Z</time>
      </trkpt>
      <trkpt lat="48.86346" lon="2.33537">
        <ele>101.1</ele>
        <time>2015-07-06T20:54:53.980Z</time>
      </trkpt>
      <trkpt lat="48.86343" lon="2.33541">
        <ele>101.2</ele>
        <time>2015-07-06T20:54:55.020Z</time>
      </trkpt>
      <trkpt lat="48.86339" lon="2.33547">
        <ele>101.8</ele>
        <time>2015-07-06T20:54:56.024Z</time>
      </trkpt>
      <trkpt lat="48.86333" lon="2.33555">
        <ele>103</ele>
        <time>2015-07-06T20:54:57.952Z</time>
      </trkpt>
      <trkpt lat="48.86331" lon="2.33559">
        <ele>103.3</ele>
        <time>2015-07-06T20:54:58.960Z</time>
      </trkpt>
      <trkpt lat="48.86327" lon="2.33567">
        <ele>104.4</ele>
        <time>2015-07-06T20:55:00.979Z</time>
      </trkpt>
      <trkpt lat="48.86326" lon="2.33571">
        <ele>104.7</ele>
        <time>2015-07-06T20:55:02.006Z</time>
      </trkpt>
      <trkpt lat="48.86322" lon="2.33582">
        <ele>106.3</ele>
        <time>2015-07-06T20:55:03.934Z</time>
      </trkpt>
      <trkpt lat="48.8632" lon="2.33586">
        <ele>106.8</ele>
        <time>2015-07-06T20:55:04.944Z</time>
      </trkpt>
      <trkpt lat="48.86318" lon="2.33595">
        <ele>107</ele>
        <time>2015-07-06T20:55:06.966Z</time>
      </trkpt>
      <trkpt lat="48.86319" lon="2.33601">
        <ele>106.9</ele>
        <time>2015-07-06T20:55:08.009Z</time>
      </trkpt>
      <trkpt lat="48.86319" lon="2.33609">
        <ele>107.1</ele>
        <time>2015-07-06T20:55:09.122Z</time>
      </trkpt>
      <trkpt lat="48.86319" lon="2.33617">
        <ele>106.9</ele>
        <time>2015-07-06T20:55:09.936Z</time>
      </trkpt>
      <trkpt lat="48.86316" lon="2.33625">
        <ele>106.8</ele>
        <time>2015-07-06T20:55:10.949Z</time>
      </trkpt>
      <trkpt lat="48.86313" lon="2.33633">
        <ele>106</ele>
        <time>2015-07-06T20:55:11.957Z</time>
      </trkpt>
      <trkpt lat="48.86309" lon="2.33642">
        <ele>104.7</ele>
        <time>2015-07-06T20:55:12.960Z</time>
      </trkpt>
      <trkpt lat="48.86306" lon="2.3365">
        <ele>104.5</ele>
        <time>2015-07-06T20:55:13.967Z</time>
      </trkpt>
      <trkpt lat="48.86303" lon="2.33657">
        <ele>103.3</ele>
        <time>2015-07-06T20:55:14.969Z</time>
      </trkpt>
      <trkpt lat="48.863" lon="2.33663">
        <ele>102.4</ele>
        <time>2015-07-06T20:55:15.974Z</time>
      </trkpt>
      <trkpt lat="48.86296" lon="2.33671">
        <ele>101.3</ele>
        <time>2015-07-06T20:55:16.981Z</time>
      </trkpt>
      <trkpt lat="48.86294" lon="2.33679">
        <ele>100.6</ele>
        <time>2015-07-06T20:55:17.992Z</time>
      </trkpt>
      <trkpt lat="48.8629" lon="2.33688">
        <ele>100</ele>
        <time>2015-07-06T20:55:19Z</time>
      </trkpt>
      <trkpt lat="48.86287" lon="2.33697">
        <ele>99.6</ele>
        <time>2015-07-06T20:55:20.012Z</time>
      </trkpt>
      <trkpt lat="48.86285" lon="2.33707">
        <ele>99.4</ele>
        <time>2015-07-06T20:55:21.013Z</time>
      </trkpt>
      <trkpt lat="48.86284" lon="2.33716">
        <ele>99.3</ele>
        <time>2015-07-06T20:55:21.921Z</time>
      </trkpt>
      <trkpt lat="48.86281" lon="2.33724">
        <ele>99.4</ele>
        <time>2015-07-06T20:55:22.945Z</time>
      </trkpt>
      <trkpt lat="48.86276" lon="2.33731">
        <ele>99.3</ele>
        <time>2015-07-06T20:55:23.953Z</time>
      </trkpt>
      <trkpt lat="48.86273" lon="2.3374">
        <ele>99.3</ele>
        <time>2015-07-06T20:55:24.963Z</time>
      </trkpt>
      <trkpt lat="48.86273" lon="2.33752">
        <ele>99.6</ele>
        <time>2015-07-06T20:55:25.978Z</time>
      </trkpt>
      <trkpt lat="48.86271" lon="2.33761">
        <ele>99.9</ele>
        <time>2015-07-06T20:55:26.983Z</time>
      </trkpt>
      <trkpt lat="48.86267" lon="2.33769">
        <ele>99.9</ele>
        <time>2015-07-06T20:55:27.988Z</time>
      </trkpt>
      <trkpt lat="48.86264" lon="2.33777">
        <ele>100</ele>
        <time>2015-07-06T20:55:29.002Z</time>
      </trkpt>
      <trkpt lat="48.86261" lon="2.33785">
        <ele>100.2</ele>
        <time>2015-07-06T20:55:30Z</time>
      </trkpt>
      <trkpt lat="48.86258" lon="2.33794">
        <ele>100.3</ele>
        <time>2015-07-06T20:55:31.015Z</time>
      </trkpt>
      <trkpt lat="48.86257" lon="2.33803">
        <ele>100.4</ele>
        <time>2015-07-06T20:55:32.025Z</time>
      </trkpt>
      <trkpt lat="48.86254" lon="2.33814">
        <ele>100.6</ele>
        <time>2015-07-06T20:55:32.923Z</time>
      </trkpt>
      <trkpt lat="48.86251" lon="2.33827">
        <ele>100.7</ele>
        <time>2015-07-06T20:55:33.937Z</time>
      </trkpt>
      <trkpt lat="48.8625" lon="2.33838">
        <ele>100.6</ele>
        <time>2015-07-06T20:55:34.944Z</time>
      </trkpt>
      <trkpt lat="48.86247" lon="2.33844">
        <ele>100.4</ele>
        <time>2015-07-06T20:55:35.954Z</time>
      </trkpt>
      <trkpt lat="48.86246" lon="2.33852">
        <ele>100</ele>
        <time>2015-07-06T20:55:36.958Z</time>
      </trkpt>
      <trkpt lat="48.86244" lon="2.33861">
        <ele>100.1</ele>
        <time>2015-07-06T20:55:37.965Z</time>
      </trkpt>
      <trkpt lat="48.86241" lon="2.33871">
        <ele>100.1</ele>
        <time>2015-07-06T20:55:38.982Z</time>
      </trkpt>
      <trkpt lat="48.86237" lon="2.3388">
        <ele>100.4</ele>
        <time>2015-07-06T20:55:39.994Z</time>
      </trkpt>
      <trkpt lat="48.86236" lon="2.33892">
        <ele>99.9</ele>
        <time>2015-07-06T20:55:41.012Z</time>
      </trkpt>
      <trkpt lat="48.86232" lon="2.33901">
        <ele>100.4</ele>
        <time>2015-07-06T20:55:41.915Z</time>
      </trkpt>
      <trkpt lat="48.86227" lon="2.33909">
        <ele>101</ele>
        <time>2015-07-06T20:55:42.949Z</time>
      </trkpt>
      <trkpt lat="48.86219" lon="2.33917">
        <ele>100.8</ele>
        <time>2015-07-06T20:55:43.970Z</time>
      </trkpt>
      <trkpt lat="48.86215" lon="2.33925">
        <ele>101.6</ele>
        <time>2015-07-06T20:55:44.975Z</time>
      </trkpt>
      <trkpt lat="48.86213" lon="2.33933">
        <ele>102.3</ele>
        <time>2015-07-06T20:55:45.981Z</time>
      </trkpt>
      <trkpt lat="48.86209" lon="2.33941">
        <ele>103.1</ele>
        <time>2015-07-06T20:55:47.005Z</time>
      </trkpt>
      <trkpt lat="48.86206" lon="2.33949">
        <ele>103.5</ele>
        <time>2015-07-06T20:55:47.932Z</time>
      </trkpt>
      <trkpt lat="48.86204" lon="2.33959">
        <ele>103.9</ele>
        <time>2015-07-06T20:55:48.938Z</time>
      </trkpt>
      <trkpt lat="48.86201" lon="2.33968">
        <ele>104</ele>
        <time>2015-07-06T20:55:49.979Z</time>
      </trkpt>
      <trkpt lat="48.86199" lon="2.33977">
        <ele>104.2</ele>
        <time>2015-07-06T20:55:50.978Z</time>
      </trkpt>
      <trkpt lat="48.86194" lon="2.33986">
        <ele>104</ele>
        <time>2015-07-06T20:55:51.980Z</time>
      </trkpt>
      <trkpt lat="48.86194" lon="2.33994">
        <ele>104.3</ele>
        <time>2015-07-06T20:55:52.999Z</time>
      </trkpt>
      <trkpt lat="48.86192" lon="2.34001">
        <ele>104.3</ele>
        <time>2015-07-06T20:55:54.054Z</time>
      </trkpt>
      <trkpt lat="48.86189" lon="2.34008">
        <ele>104.3</ele>
        <time>2015-07-06T20:55:54.930Z</time>
      </trkpt>
      <trkpt lat="48.86186" lon="2.34015">
        <ele>104</ele>
        <time>2015-07-06T20:55:55.977Z</time>
      </trkpt>
      <trkpt lat="48.86184" lon="2.34023">
        <ele>103.5</ele>
        <time>2015-07-06T20:55:56.988Z</time>
      </trkpt>
      <trkpt lat="48.86182" lon="2.34031">
        <ele>103.3</ele>
        <time>2015-07-06T20:55:57.995Z</time>
      </trkpt>
      <trkpt lat="48.86183" lon="2.34041">
        <ele>103.2</ele>
        <time>2015-07-06T20:55:59.005Z</time>
      </trkpt>
      <trkpt lat="48.86183" lon="2.3405">
        <ele>102.9</ele>
        <time>2015-07-06T20:55:59.901Z</time>
      </trkpt>
      <trkpt lat="48.86181" lon="2.34057">
        <ele>102.4</ele>
        <time>2015-07-06T20:56:00.940Z</time>
      </trkpt>
      <trkpt lat="48.86181" lon="2.34065">
        <ele>102.1</ele>
        <time>2015-07-06T20:56:02.031Z</time>
      </trkpt>
      <trkpt lat="48.86181" lon="2.34072">
        <ele>101.7</ele>
        <time>2015-07-06T20:56:02.904Z</time>
      </trkpt>
      <trkpt lat="48.86181" lon="2.34079">
        <ele>101.5</ele>
        <time>2015-07-06T20:56:03.904Z</time>
      </trkpt>
      <trkpt lat="48.8618" lon="2.34087">
        <ele>101.3</ele>
        <time>2015-07-06T20:56:04.919Z</time>
      </trkpt>
      <trkpt lat="48.8618" lon="2.34096">
        <ele>101.2</ele>
        <time>2015-07-06T20:56:05.917Z</time>
      </trkpt>
      <trkpt lat="48.86183" lon="2.34106">
        <ele>101.8</ele>
        <time>2015-07-06T20:56:06.936Z</time>
      </trkpt>
      <trkpt lat="48.86187" lon="2.34114">
        <ele>102.4</ele>
        <time>2015-07-06T20:56:07.963Z</time>
      </trkpt>
      <trkpt lat="48.86188" lon="2.3412">
        <ele>104.9</ele>
        <time>2015-07-06T20:56:20.960Z</time>
      </trkpt>
      <trkpt lat="48.86181" lon="2.34126">
        <ele>107.4</ele>
        <time>2015-07-06T20:56:21.970Z</time>
      </trkpt>
      <trkpt lat="48.86174" lon="2.34132">
        <ele>108.5</ele>
        <time>2015-07-06T20:56:23.933Z</time>
      </trkpt>
      <trkpt lat="48.86171" lon="2.34136">
        <ele>108.8</ele>
        <time>2015-07-06T20:56:24.954Z</time>
      </trkpt>
      <trkpt lat="48.86165" lon="2.34145">
        <ele>109.7</ele>
        <time>2015-07-06T20:56:26.928Z</time>
      </trkpt>
      <trkpt lat="48.86161" lon="2.3415">
        <ele>110.1</ele>
        <time>2015-07-06T20:56:27.959Z</time>
      </trkpt>
      <trkpt lat="48.86158" lon="2.34161">
        <ele>110.8</ele>
        <time>2015-07-06T20:56:29.990Z</time>
      </trkpt>
      <trkpt lat="48.86158" lon="2.34166">
        <ele>111</ele>
        <time>2015-07-06T20:56:30.999Z</time>
      </trkpt>
      <trkpt lat="48.86157" lon="2.34177">
        <ele>110.9</ele>
        <time>2015-07-06T20:56:32.928Z</time>
      </trkpt>
      <trkpt lat="48.86156" lon="2.34184">
        <ele>110.9</ele>
        <time>2015-07-06T20:56:33.961Z</time>
      </trkpt>
      <trkpt lat="48.86153" lon="2.34192">
        <ele>110.9</ele>
        <time>2015-07-06T20:56:34.930Z</time>
      </trkpt>
      <trkpt lat="48.86152" lon="2.342">
        <ele>110.9</ele>
        <time>2015-07-06T20:56:35.918Z</time>
      </trkpt>
      <trkpt lat="48.86151" lon="2.34208">
        <ele>111.1</ele>
        <time>2015-07-06T20:56:36.943Z</time>
      </trkpt>
      <trkpt lat="48.8615" lon="2.34215">
        <ele>111.1</ele>
        <time>2015-07-06T20:56:37.985Z</time>
      </trkpt>
      <trkpt lat="48.86148" lon="2.34222">
        <ele>111</ele>
        <time>2015-07-06T20:56:38.920Z</time>
      </trkpt>
      <trkpt lat="48.86146" lon="2.34229">
        <ele>110.9</ele>
        <time>2015-07-06T20:56:39.920Z</time>
      </trkpt>
      <trkpt lat="48.86143" lon="2.34238">
        <ele>110.4</ele>
        <time>2015-07-06T20:56:40.955Z</time>
      </trkpt>
      <trkpt lat="48.86141" lon="2.34246">
        <ele>110.2</ele>
        <time>2015-07-06T20:56:41.967Z</time>
      </trkpt>
      <trkpt lat="48.8614" lon="2.34254">
        <ele>110.1</ele>
        <time>2015-07-06T20:56:42.983Z</time>
      </trkpt>
      <trkpt lat="48.86138" lon="2.34263">
        <ele>110</ele>
        <time>2015-07-06T20:56:43.997Z</time>
      </trkpt>
      <trkpt lat="48.86135" lon="2.34269">
        <ele>110.1</ele>
        <time>2015-07-06T20:56:45.010Z</time>
      </trkpt>
      <trkpt lat="48.86134" lon="2.34277">
        <ele>110.4</ele>
        <time>2015-07-06T20:56:45.935Z</time>
      </trkpt>
      <trkpt lat="48.86132" lon="2.34288">
        <ele>110.4</ele>
        <time>2015-07-06T20:56:46.931Z</time>
      </trkpt>
      <trkpt lat="48.86131" lon="2.34298">
        <ele>110.4</ele>
        <time>2015-07-06T20:56:47.947Z</time>
      </trkpt>
      <trkpt lat="48.86131" lon="2.34308">
        <ele>110.2</ele>
        <time>2015-07-06T20:56:48.969Z</time>
      </trkpt>
      <trkpt lat="48.86132" lon="2.34315">
        <ele>109.9</ele>
        <time>2015-07-06T20:56:49.982Z</time>
      </trkpt>
      <trkpt lat="48.86128" lon="2.34326">
        <ele>109.5</ele>
        <time>2015-07-06T20:56:51.927Z</time>
      </trkpt>
      <trkpt lat="48.86125" lon="2.34332">
        <ele>109.3</ele>
        <time>2015-07-06T20:56:52.933Z</time>
      </trkpt>
      <trkpt lat="48.8612" lon="2.34337">
        <ele>109</ele>
        <time>2015-07-06T20:56:53.959Z</time>
      </trkpt>
      <trkpt lat="48.86117" lon="2.34342">
        <ele>108.4</ele>
        <time>2015-07-06T20:56:54.968Z</time>
      </trkpt>
      <trkpt lat="48.86114" lon="2.34347">
        <ele>108</ele>
        <time>2015-07-06T20:56:55.975Z</time>
      </trkpt>
      <trkpt lat="48.8611" lon="2.34353">
        <ele>107.5</ele>
        <time>2015-07-06T20:56:56.955Z</time>
      </trkpt>
      <trkpt lat="48.86108" lon="2.34358">
        <ele>107</ele>
        <time>2015-07-06T20:56:57.973Z</time>
      </trkpt>
      <trkpt lat="48.86106" lon="2.34365">
        <ele>106.7</ele>
        <time>2015-07-06T20:56:58.990Z</time>
      </trkpt>
      <trkpt lat="48.86102" lon="2.34375">
        <ele>106</ele>
        <time>2015-07-06T20:57:00.919Z</time>
      </trkpt>
      <trkpt lat="48.861" lon="2.34383">
        <ele>105.7</ele>
        <time>2015-07-06T20:57:02.002Z</time>
      </trkpt>
      <trkpt lat="48.86096" lon="2.34389">
        <ele>105.3</ele>
        <time>2015-07-06T20:57:02.898Z</time>
      </trkpt>
      <trkpt lat="48.86094" lon="2.34397">
        <ele>104.9</ele>
        <time>2015-07-06T20:57:03.916Z</time>
      </trkpt>
      <trkpt lat="48.86092" lon="2.34405">
        <ele>104.7</ele>
        <time>2015-07-06T20:57:04.928Z</time>
      </trkpt>
      <trkpt lat="48.86088" lon="2.34412">
        <ele>104.5</ele>
        <time>2015-07-06T20:57:05.938Z</time>
      </trkpt>
      <trkpt lat="48.86087" lon="2.3442">
        <ele>104.6</ele>
        <time>2015-07-06T20:57:06.964Z</time>
      </trkpt>
      <trkpt lat="48.86095" lon="2.34433">
        <ele>105.5</ele>
        <time>2015-07-06T20:57:08.006Z</time>
      </trkpt>
      <trkpt lat="48.86097" lon="2.34447">
        <ele>106.3</ele>
        <time>2015-07-06T20:57:08.918Z</time>
      </trkpt>
      <trkpt lat="48.86098" lon="2.3446">
        <ele>107.1</ele>
        <time>2015-07-06T20:57:09.921Z</time>
      </trkpt>
      <trkpt lat="48.86101" lon="2.34474">
        <ele>106.1</ele>
        <time>2015-07-06T20:57:10.935Z</time>
      </trkpt>
      <trkpt lat="48.86101" lon="2.34483">
        <ele>106.1</ele>
        <time>2015-07-06T20:57:11.996Z</time>
      </trkpt>
      <trkpt lat="48.86101" lon="2.34491">
        <ele>106.4</ele>
        <time>2015-07-06T20:57:13.004Z</time>
      </trkpt>
      <trkpt lat="48.861" lon="2.34499">
        <ele>106.8</ele>
        <time>2015-07-06T20:57:14.013Z</time>
      </trkpt>
      <trkpt lat="48.86099" lon="2.34506">
        <ele>107.3</ele>
        <time>2015-07-06T20:57:14.944Z</time>
      </trkpt>
      <trkpt lat="48.86098" lon="2.34516">
        <ele>107.4</ele>
        <time>2015-07-06T20:57:15.932Z</time>
      </trkpt>
      <trkpt lat="48.86096" lon="2.34523">
        <ele>107.6</ele>
        <time>2015-07-06T20:57:16.936Z</time>
      </trkpt>
      <trkpt lat="48.86093" lon="2.34529">
        <ele>107.9</ele>
        <time>2015-07-06T20:57:17.954Z</time>
      </trkpt>
      <trkpt lat="48.8609" lon="2.34534">
        <ele>108.4</ele>
        <time>2015-07-06T20:57:18.967Z</time>
      </trkpt>
      <trkpt lat="48.86086" lon="2.3454">
        <ele>109.4</ele>
        <time>2015-07-06T20:57:19.992Z</time>
      </trkpt>
      <trkpt lat="48.86083" lon="2.34546">
        <ele>110.3</ele>
        <time>2015-07-06T20:57:20.918Z</time>
      </trkpt>
      <trkpt lat="48.86083" lon="2.34554">
        <ele>111.4</ele>
        <time>2015-07-06T20:57:21.917Z</time>
      </trkpt>
      <trkpt lat="48.86081" lon="2.34561">
        <ele>111.8</ele>
        <time>2015-07-06T20:57:22.942Z</time>
      </trkpt>
      <trkpt lat="48.8608" lon="2.34569">
        <ele>112.3</ele>
        <time>2015-07-06T20:57:23.980Z</time>
      </trkpt>
      <trkpt lat="48.8608" lon="2.34576">
        <ele>112.5</ele>
        <time>2015-07-06T20:57:24.980Z</time>
      </trkpt>
      <trkpt lat="48.86078" lon="2.34588">
        <ele>113.2</ele>
        <time>2015-07-06T20:57:26.995Z</time>
      </trkpt>
      <trkpt lat="48.86078" lon="2.34594">
        <ele>113.9</ele>
        <time>2015-07-06T20:57:28.005Z</time>
      </trkpt>
      <trkpt lat="48.86077" lon="2.34605">
        <ele>114.5</ele>
        <time>2015-07-06T20:57:29.934Z</time>
      </trkpt>
      <trkpt lat="48.86075" lon="2.3461">
        <ele>114.7</ele>
        <time>2015-07-06T20:57:30.953Z</time>
      </trkpt>
      <trkpt lat="48.86069" lon="2.34619">
        <ele>115</ele>
        <time>2015-07-06T20:57:32.929Z</time>
      </trkpt>
      <trkpt lat="48.86064" lon="2.34623">
        <ele>115.7</ele>
        <time>2015-07-06T20:57:33.958Z</time>
      </trkpt>
      <trkpt lat="48.86059" lon="2.34627">
        <ele>115.9</ele>
        <time>2015-07-06T20:57:34.948Z</time>
      </trkpt>
      <trkpt lat="48.86054" lon="2.34628">
        <ele>116.7</ele>
        <time>2015-07-06T20:57:35.944Z</time>
      </trkpt>
      <trkpt lat="48.8605" lon="2.34632">
        <ele>117.1</ele>
        <time>2015-07-06T20:57:36.953Z</time>
      </trkpt>
      <trkpt lat="48.86046" lon="2.34636">
        <ele>117.6</ele>
        <time>2015-07-06T20:57:37.975Z</time>
      </trkpt>
      <trkpt lat="48.86041" lon="2.34639">
        <ele>118.3</ele>
        <time>2015-07-06T20:57:38.982Z</time>
      </trkpt>
      <trkpt lat="48.86037" lon="2.34643">
        <ele>119.1</ele>
        <time>2015-07-06T20:57:39.988Z</time>
      </trkpt>
      <trkpt lat="48.86031" lon="2.34649">
        <ele>120.6</ele>
        <time>2015-07-06T20:57:41.901Z</time>
      </trkpt>
      <trkpt lat="48.86026" lon="2.34652">
        <ele>121.7</ele>
        <time>2015-07-06T20:57:42.955Z</time>
      </trkpt>
      <trkpt lat="48.86019" lon="2.34659">
        <ele>122.3</ele>
        <time>2015-07-06T20:57:44.977Z</time>
      </trkpt>
      <trkpt lat="48.86016" lon="2.34661">
        <ele>122.3</ele>
        <time>2015-07-06T20:57:45.983Z</time>
      </trkpt>
      <trkpt lat="48.86009" lon="2.34667">
        <ele>122.4</ele>
        <time>2015-07-06T20:57:47.932Z</time>
      </trkpt>
      <trkpt lat="48.86005" lon="2.3467">
        <ele>122.4</ele>
        <time>2015-07-06T20:57:48.954Z</time>
      </trkpt>
      <trkpt lat="48.86002" lon="2.34672">
        <ele>122.3</ele>
        <time>2015-07-06T20:57:49.991Z</time>
      </trkpt>
      <trkpt lat="48.85996" lon="2.34675">
        <ele>121.3</ele>
        <time>2015-07-06T20:57:50.997Z</time>
      </trkpt>
      <trkpt lat="48.85989" lon="2.34678">
        <ele>120.5</ele>
        <time>2015-07-06T20:57:52.021Z</time>
      </trkpt>
      <trkpt lat="48.85983" lon="2.34681">
        <ele>119.6</ele>
        <time>2015-07-06T20:57:52.929Z</time>
      </trkpt>
      <trkpt lat="48.85977" lon="2.34684">
        <ele>118.5</ele>
        <time>2015-07-06T20:57:53.990Z</time>
      </trkpt>
      <trkpt lat="48.85972" lon="2.34688">
        <ele>117.7</ele>
        <time>2015-07-06T20:57:54.970Z</time>
      </trkpt>
      <trkpt lat="48.85967" lon="2.3469">
        <ele>117.2</ele>
        <time>2015-07-06T20:57:55.977Z</time>
      </trkpt>
      <trkpt lat="48.85964" lon="2.34693">
        <ele>117.2</ele>
        <time>2015-07-06T20:57:56.976Z</time>
      </trkpt>
      <trkpt lat="48.8596" lon="2.34703">
        <ele>114.9</ele>
        <time>2015-07-06T20:58:03.008Z</time>
      </trkpt>
      <trkpt lat="48.85959" lon="2.34706">
        <ele>115.1</ele>
        <time>2015-07-06T20:58:03.933Z</time>
      </trkpt>
      <trkpt lat="48.85958" lon="2.34717">
        <ele>115.8</ele>
        <time>2015-07-06T20:58:06.945Z</time>
      </trkpt>
      <trkpt lat="48.85959" lon="2.34722">
        <ele>115.9</ele>
        <time>2015-07-06T20:58:08.076Z</time>
      </trkpt>
      <trkpt lat="48.85953" lon="2.34732">
        <ele>117.3</ele>
        <time>2015-07-06T20:58:14.017Z</time>
      </trkpt>
      <trkpt lat="48.85952" lon="2.34733">
        <ele>117.4</ele>
        <time>2015-07-06T20:58:14.959Z</time>
      </trkpt>
      <trkpt lat="48.85953" lon="2.34732">
        <ele>117.7</ele>
        <time>2015-07-06T20:59:16.932Z</time>
      </trkpt>
      <trkpt lat="48.85975" lon="2.34726">
        <ele>115.7</ele>
        <time>2015-07-06T20:59:17.943Z</time>
      </trkpt>
      <trkpt lat="48.8597" lon="2.34727">
        <ele>115.8</ele>
        <time>2015-07-06T20:59:26.265Z</time>
      </trkpt>
    </trkseg>
  </trk>
  <trk>
    <name><![CDATA[2 Place du Châtelet]]></name>
    <extensions>
      <line xmlns="http://www.topografix.com/GPX/gpx_style/0/2">
        <color>000000</color>
      </line>
    </extensions>
    <trkseg>
      <trkpt lat="48.85742" lon="2.34733">
        <ele>91.5</ele>
        <time>2015-07-13T18:19:13.146Z</time>
      </trkpt>
      <trkpt lat="48.85742" lon="2.34731">
        <ele>90.7</ele>
        <time>2015-07-13T18:19:58.891Z</time>
      </trkpt>
      <trkpt lat="48.85742" lon="2.34731">
        <ele>90.8</ele>
        <time>2015-07-13T18:19:59.938Z</time>
      </trkpt>
      <trkpt lat="48.85741" lon="2.3473">
        <ele>90.7</ele>
        <time>2015-07-13T18:20:01.856Z</time>
      </trkpt>
      <trkpt lat="48.85742" lon="2.3473">
        <ele>90.8</ele>
        <time>2015-07-13T18:20:02.869Z</time>
      </trkpt>
      <trkpt lat="48.85742" lon="2.34729">
        <ele>90.8</ele>
        <time>2015-07-13T18:20:04.888Z</time>
      </trkpt>
      <trkpt lat="48.85742" lon="2.3473">
        <ele>90.9</ele>
        <time>2015-07-13T18:20:05.958Z</time>
      </trkpt>
      <trkpt lat="48.85742" lon="2.3473">
        <ele>90.9</ele>
        <time>2015-07-13T18:20:09.873Z</time>
      </trkpt>
      <trkpt lat="48.85743" lon="2.34729">
        <ele>90.8</ele>
        <time>2015-07-13T18:20:10.951Z</time>
      </trkpt>
      <trkpt lat="48.85744" lon="2.34729">
        <ele>90.6</ele>
        <time>2015-07-13T18:20:18.371Z</time>
      </trkpt>
      <trkpt lat="48.85743" lon="2.34731">
        <ele>90.6</ele>
        <time>2015-07-13T18:20:18.950Z</time>
      </trkpt>
      <trkpt lat="48.85743" lon="2.34732">
        <ele>90.7</ele>
        <time>2015-07-13T18:20:27.905Z</time>
      </trkpt>
      <trkpt lat="48.8574" lon="2.34739">
        <ele>91.3</ele>
        <time>2015-07-13T18:20:28.911Z</time>
      </trkpt>
      <trkpt lat="48.8574" lon="2.34738">
        <ele>91.4</ele>
        <time>2015-07-13T18:20:29.939Z</time>
      </trkpt>
      <trkpt lat="48.8574" lon="2.34737">
        <ele>91.5</ele>
        <time>2015-07-13T18:20:30.940Z</time>
      </trkpt>
      <trkpt lat="48.85741" lon="2.34738">
        <ele>91.6</ele>
        <time>2015-07-13T18:20:31.947Z</time>
      </trkpt>
      <trkpt lat="48.85741" lon="2.34737">
        <ele>91.6</ele>
        <time>2015-07-13T18:20:32.869Z</time>
      </trkpt>
      <trkpt lat="48.85742" lon="2.34737">
        <ele>91.5</ele>
        <time>2015-07-13T18:20:33.895Z</time>
      </trkpt>
      <trkpt lat="48.85741" lon="2.34738">
        <ele>91.4</ele>
        <time>2015-07-13T18:21:14.894Z</time>
      </trkpt>
      <trkpt lat="48.8574" lon="2.34735">
        <ele>88</ele>
        <time>2015-07-13T18:21:15.914Z</time>
      </trkpt>
      <trkpt lat="48.85744" lon="2.34744">
        <ele>88.3</ele>
        <time>2015-07-13T18:21:23.924Z</time>
      </trkpt>
      <trkpt lat="48.85746" lon="2.34745">
        <ele>87.6</ele>
        <time>2015-07-13T18:21:24.926Z</time>
      </trkpt>
      <trkpt lat="48.85754" lon="2.34749">
        <ele>86.4</ele>
        <time>2015-07-13T18:21:30.883Z</time>
      </trkpt>
      <trkpt lat="48.85756" lon="2.3475">
        <ele>86.2</ele>
        <time>2015-07-13T18:21:31.882Z</time>
      </trkpt>
      <trkpt lat="48.85764" lon="2.34753">
        <ele>86.3</ele>
        <time>2015-07-13T18:21:37.854Z</time>
      </trkpt>
      <trkpt lat="48.85765" lon="2.34753">
        <ele>86.5</ele>
        <time>2015-07-13T18:21:38.925Z</time>
      </trkpt>
      <trkpt lat="48.85768" lon="2.34764">
        <ele>89.2</ele>
        <time>2015-07-13T18:21:49.862Z</time>
      </trkpt>
      <trkpt lat="48.85768" lon="2.34766">
        <ele>89.2</ele>
        <time>2015-07-13T18:21:50.862Z</time>
      </trkpt>
      <trkpt lat="48.85774" lon="2.3477">
        <ele>89.6</ele>
        <time>2015-07-13T18:21:53.958Z</time>
      </trkpt>
      <trkpt lat="48.85776" lon="2.34772">
        <ele>89.8</ele>
        <time>2015-07-13T18:21:54.973Z</time>
      </trkpt>
      <trkpt lat="48.85782" lon="2.34776">
        <ele>89.9</ele>
        <time>2015-07-13T18:21:56.908Z</time>
      </trkpt>
      <trkpt lat="48.85785" lon="2.34779">
        <ele>90</ele>
        <time>2015-07-13T18:21:57.915Z</time>
      </trkpt>
      <trkpt lat="48.85791" lon="2.34785">
        <ele>90.2</ele>
        <time>2015-07-13T18:21:59.985Z</time>
      </trkpt>
      <trkpt lat="48.85794" lon="2.34787">
        <ele>90.1</ele>
        <time>2015-07-13T18:22:01.075Z</time>
      </trkpt>
      <trkpt lat="48.85802" lon="2.34792">
        <ele>90.5</ele>
        <time>2015-07-13T18:22:02.887Z</time>
      </trkpt>
      <trkpt lat="48.85805" lon="2.34795">
        <ele>90.6</ele>
        <time>2015-07-13T18:22:03.933Z</time>
      </trkpt>
      <trkpt lat="48.85812" lon="2.34799">
        <ele>90.9</ele>
        <time>2015-07-13T18:22:05.983Z</time>
      </trkpt>
      <trkpt lat="48.85816" lon="2.34801">
        <ele>91</ele>
        <time>2015-07-13T18:22:06.898Z</time>
      </trkpt>
      <trkpt lat="48.85823" lon="2.34805">
        <ele>91.1</ele>
        <time>2015-07-13T18:22:08.858Z</time>
      </trkpt>
      <trkpt lat="48.85826" lon="2.34806">
        <ele>91.1</ele>
        <time>2015-07-13T18:22:09.906Z</time>
      </trkpt>
      <trkpt lat="48.85834" lon="2.3481">
        <ele>91.3</ele>
        <time>2015-07-13T18:22:13.184Z</time>
      </trkpt>
      <trkpt lat="48.85836" lon="2.34811">
        <ele>91.4</ele>
        <time>2015-07-13T18:22:13.975Z</time>
      </trkpt>
      <trkpt lat="48.85841" lon="2.34821">
        <ele>92.7</ele>
        <time>2015-07-13T18:22:17.936Z</time>
      </trkpt>
      <trkpt lat="48.85842" lon="2.34823">
        <ele>93.3</ele>
        <time>2015-07-13T18:22:18.930Z</time>
      </trkpt>
      <trkpt lat="48.8585" lon="2.34827">
        <ele>93.8</ele>
        <time>2015-07-13T18:22:33.947Z</time>
      </trkpt>
      <trkpt lat="48.85853" lon="2.34828">
        <ele>93.8</ele>
        <time>2015-07-13T18:22:34.846Z</time>
      </trkpt>
      <trkpt lat="48.85859" lon="2.34831">
        <ele>93.6</ele>
        <time>2015-07-13T18:22:36.946Z</time>
      </trkpt>
      <trkpt lat="48.85862" lon="2.34833">
        <ele>93.8</ele>
        <time>2015-07-13T18:22:37.915Z</time>
      </trkpt>
      <trkpt lat="48.8587" lon="2.34838">
        <ele>94.1</ele>
        <time>2015-07-13T18:22:39.910Z</time>
      </trkpt>
      <trkpt lat="48.85874" lon="2.3484">
        <ele>94.4</ele>
        <time>2015-07-13T18:22:40.937Z</time>
      </trkpt>
      <trkpt lat="48.85882" lon="2.34844">
        <ele>95.2</ele>
        <time>2015-07-13T18:22:42.888Z</time>
      </trkpt>
      <trkpt lat="48.85885" lon="2.34845">
        <ele>95.4</ele>
        <time>2015-07-13T18:22:43.936Z</time>
      </trkpt>
      <trkpt lat="48.85892" lon="2.34849">
        <ele>95.4</ele>
        <time>2015-07-13T18:22:45.908Z</time>
      </trkpt>
      <trkpt lat="48.85896" lon="2.3485">
        <ele>95.3</ele>
        <time>2015-07-13T18:22:46.935Z</time>
      </trkpt>
      <trkpt lat="48.85903" lon="2.34853">
        <ele>95.1</ele>
        <time>2015-07-13T18:22:48.891Z</time>
      </trkpt>
      <trkpt lat="48.85906" lon="2.34855">
        <ele>95.1</ele>
        <time>2015-07-13T18:22:49.960Z</time>
      </trkpt>
      <trkpt lat="48.85914" lon="2.34859">
        <ele>95.2</ele>
        <time>2015-07-13T18:22:51.906Z</time>
      </trkpt>
      <trkpt lat="48.85917" lon="2.34861">
        <ele>95.4</ele>
        <time>2015-07-13T18:22:52.926Z</time>
      </trkpt>
      <trkpt lat="48.85925" lon="2.34864">
        <ele>95.5</ele>
        <time>2015-07-13T18:22:54.898Z</time>
      </trkpt>
      <trkpt lat="48.85928" lon="2.34866">
        <ele>95.7</ele>
        <time>2015-07-13T18:22:55.927Z</time>
      </trkpt>
      <trkpt lat="48.85933" lon="2.34868">
        <ele>95.7</ele>
        <time>2015-07-13T18:22:57.945Z</time>
      </trkpt>
      <trkpt lat="48.85937" lon="2.3487">
        <ele>95.4</ele>
        <time>2015-07-13T18:22:58.980Z</time>
      </trkpt>
      <trkpt lat="48.85943" lon="2.34873">
        <ele>95.7</ele>
        <time>2015-07-13T18:23:00.850Z</time>
      </trkpt>
      <trkpt lat="48.85947" lon="2.34874">
        <ele>95.9</ele>
        <time>2015-07-13T18:23:01.863Z</time>
      </trkpt>
      <trkpt lat="48.85951" lon="2.34876">
        <ele>96</ele>
        <time>2015-07-13T18:23:02.886Z</time>
      </trkpt>
      <trkpt lat="48.85956" lon="2.34877">
        <ele>96.1</ele>
        <time>2015-07-13T18:23:03.899Z</time>
      </trkpt>
      <trkpt lat="48.85961" lon="2.3488">
        <ele>96.3</ele>
        <time>2015-07-13T18:23:04.075Z</time>
      </trkpt>
      <trkpt lat="48.85965" lon="2.34883">
        <ele>96.4</ele>
        <time>2015-07-13T18:23:05.950Z</time>
      </trkpt>
      <trkpt lat="48.8597" lon="2.34886">
        <ele>96.5</ele>
        <time>2015-07-13T18:23:06.898Z</time>
      </trkpt>
      <trkpt lat="48.85975" lon="2.34889">
        <ele>96.5</ele>
        <time>2015-07-13T18:23:07.903Z</time>
      </trkpt>
      <trkpt lat="48.8598" lon="2.34891">
        <ele>96.4</ele>
        <time>2015-07-13T18:23:08.928Z</time>
      </trkpt>
      <trkpt lat="48.85986" lon="2.34895">
        <ele>96.5</ele>
        <time>2015-07-13T18:23:09.942Z</time>
      </trkpt>
      <trkpt lat="48.85991" lon="2.34898">
        <ele>96.1</ele>
        <time>2015-07-13T18:23:10.965Z</time>
      </trkpt>
      <trkpt lat="48.85996" lon="2.34901">
        <ele>95.8</ele>
        <time>2015-07-13T18:23:11.976Z</time>
      </trkpt>
      <trkpt lat="48.86001" lon="2.34904">
        <ele>96</ele>
        <time>2015-07-13T18:23:13.309Z</time>
      </trkpt>
      <trkpt lat="48.86006" lon="2.34907">
        <ele>96.1</ele>
        <time>2015-07-13T18:23:13.899Z</time>
      </trkpt>
      <trkpt lat="48.86011" lon="2.34911">
        <ele>96.4</ele>
        <time>2015-07-13T18:23:14.897Z</time>
      </trkpt>
      <trkpt lat="48.86016" lon="2.34914">
        <ele>96.5</ele>
        <time>2015-07-13T18:23:15.926Z</time>
      </trkpt>
      <trkpt lat="48.86022" lon="2.34916">
        <ele>96.8</ele>
        <time>2015-07-13T18:23:16.937Z</time>
      </trkpt>
      <trkpt lat="48.86028" lon="2.34919">
        <ele>96.8</ele>
        <time>2015-07-13T18:23:17.943Z</time>
      </trkpt>
      <trkpt lat="48.86034" lon="2.34921">
        <ele>97.2</ele>
        <time>2015-07-13T18:23:18.886Z</time>
      </trkpt>
      <trkpt lat="48.86039" lon="2.34922">
        <ele>97</ele>
        <time>2015-07-13T18:23:19.861Z</time>
      </trkpt>
      <trkpt lat="48.86046" lon="2.34926">
        <ele>96.9</ele>
        <time>2015-07-13T18:23:21.893Z</time>
      </trkpt>
      <trkpt lat="48.86051" lon="2.34929">
        <ele>97.1</ele>
        <time>2015-07-13T18:23:22.904Z</time>
      </trkpt>
      <trkpt lat="48.86055" lon="2.34932">
        <ele>97.3</ele>
        <time>2015-07-13T18:23:23.953Z</time>
      </trkpt>
      <trkpt lat="48.86061" lon="2.34934">
        <ele>97.5</ele>
        <time>2015-07-13T18:23:24.938Z</time>
      </trkpt>
      <trkpt lat="48.86066" lon="2.34937">
        <ele>97.7</ele>
        <time>2015-07-13T18:23:25.957Z</time>
      </trkpt>
      <trkpt lat="48.8607" lon="2.34941">
        <ele>97.8</ele>
        <time>2015-07-13T18:23:26.961Z</time>
      </trkpt>
      <trkpt lat="48.86077" lon="2.34945">
        <ele>98.3</ele>
        <time>2015-07-13T18:23:27.895Z</time>
      </trkpt>
      <trkpt lat="48.86083" lon="2.34948">
        <ele>98.6</ele>
        <time>2015-07-13T18:23:28.892Z</time>
      </trkpt>
      <trkpt lat="48.86088" lon="2.3495">
        <ele>98.9</ele>
        <time>2015-07-13T18:23:29.961Z</time>
      </trkpt>
      <trkpt lat="48.86094" lon="2.34953">
        <ele>99.1</ele>
        <time>2015-07-13T18:23:30.964Z</time>
      </trkpt>
      <trkpt lat="48.861" lon="2.34956">
        <ele>99.5</ele>
        <time>2015-07-13T18:23:31.895Z</time>
      </trkpt>
      <trkpt lat="48.86106" lon="2.34959">
        <ele>99.5</ele>
        <time>2015-07-13T18:23:32.894Z</time>
      </trkpt>
      <trkpt lat="48.86112" lon="2.34963">
        <ele>99.7</ele>
        <time>2015-07-13T18:23:33.905Z</time>
      </trkpt>
      <trkpt lat="48.86118" lon="2.34965">
        <ele>99.7</ele>
        <time>2015-07-13T18:23:34.913Z</time>
      </trkpt>
      <trkpt lat="48.86123" lon="2.34967">
        <ele>99.6</ele>
        <time>2015-07-13T18:23:35.962Z</time>
      </trkpt>
      <trkpt lat="48.86128" lon="2.34971">
        <ele>99.6</ele>
        <time>2015-07-13T18:23:36.883Z</time>
      </trkpt>
      <trkpt lat="48.86133" lon="2.34975">
        <ele>99.7</ele>
        <time>2015-07-13T18:23:37.889Z</time>
      </trkpt>
      <trkpt lat="48.86139" lon="2.34978">
        <ele>99.9</ele>
        <time>2015-07-13T18:23:38.889Z</time>
      </trkpt>
      <trkpt lat="48.86144" lon="2.34981">
        <ele>100</ele>
        <time>2015-07-13T18:23:39.921Z</time>
      </trkpt>
      <trkpt lat="48.8615" lon="2.34984">
        <ele>100</ele>
        <time>2015-07-13T18:23:40.934Z</time>
      </trkpt>
      <trkpt lat="48.86155" lon="2.34987">
        <ele>100.1</ele>
        <time>2015-07-13T18:23:41.941Z</time>
      </trkpt>
      <trkpt lat="48.8616" lon="2.34988">
        <ele>100.3</ele>
        <time>2015-07-13T18:23:42.950Z</time>
      </trkpt>
      <trkpt lat="48.86168" lon="2.3499">
        <ele>100.9</ele>
        <time>2015-07-13T18:23:44.881Z</time>
      </trkpt>
      <trkpt lat="48.86172" lon="2.34992">
        <ele>100.9</ele>
        <time>2015-07-13T18:23:45.891Z</time>
      </trkpt>
      <trkpt lat="48.86181" lon="2.34995">
        <ele>101.3</ele>
        <time>2015-07-13T18:23:48.856Z</time>
      </trkpt>
      <trkpt lat="48.86183" lon="2.34997">
        <ele>101.6</ele>
        <time>2015-07-13T18:23:49.898Z</time>
      </trkpt>
      <trkpt lat="48.8619" lon="2.35">
        <ele>102.1</ele>
        <time>2015-07-13T18:23:53.950Z</time>
      </trkpt>
      <trkpt lat="48.86191" lon="2.35001">
        <ele>102.3</ele>
        <time>2015-07-13T18:23:54.958Z</time>
      </trkpt>
      <trkpt lat="48.86197" lon="2.35007">
        <ele>102.8</ele>
        <time>2015-07-13T18:23:57.894Z</time>
      </trkpt>
      <trkpt lat="48.862" lon="2.35009">
        <ele>102.9</ele>
        <time>2015-07-13T18:23:58.931Z</time>
      </trkpt>
      <trkpt lat="48.86206" lon="2.35012">
        <ele>103.1</ele>
        <time>2015-07-13T18:24:00.883Z</time>
      </trkpt>
      <trkpt lat="48.8621" lon="2.35015">
        <ele>103.3</ele>
        <time>2015-07-13T18:24:01.889Z</time>
      </trkpt>
      <trkpt lat="48.86215" lon="2.35017">
        <ele>103.5</ele>
        <time>2015-07-13T18:24:03.987Z</time>
      </trkpt>
      <trkpt lat="48.86219" lon="2.35019">
        <ele>103.5</ele>
        <time>2015-07-13T18:24:04.893Z</time>
      </trkpt>
      <trkpt lat="48.86226" lon="2.35022">
        <ele>103.9</ele>
        <time>2015-07-13T18:24:06.939Z</time>
      </trkpt>
      <trkpt lat="48.8623" lon="2.35023">
        <ele>103.5</ele>
        <time>2015-07-13T18:24:07.949Z</time>
      </trkpt>
      <trkpt lat="48.86235" lon="2.35025">
        <ele>103.3</ele>
        <time>2015-07-13T18:24:09.020Z</time>
      </trkpt>
      <trkpt lat="48.8624" lon="2.35027">
        <ele>103.3</ele>
        <time>2015-07-13T18:24:09.889Z</time>
      </trkpt>
      <trkpt lat="48.86247" lon="2.35032">
        <ele>103.4</ele>
        <time>2015-07-13T18:24:11.950Z</time>
      </trkpt>
      <trkpt lat="48.86252" lon="2.35035">
        <ele>103.5</ele>
        <time>2015-07-13T18:24:12.955Z</time>
      </trkpt>
      <trkpt lat="48.86257" lon="2.35038">
        <ele>104.3</ele>
        <time>2015-07-13T18:24:14.329Z</time>
      </trkpt>
      <trkpt lat="48.86261" lon="2.35041">
        <ele>104.7</ele>
        <time>2015-07-13T18:24:14.890Z</time>
      </trkpt>
      <trkpt lat="48.86266" lon="2.35044">
        <ele>104.9</ele>
        <time>2015-07-13T18:24:15.909Z</time>
      </trkpt>
      <trkpt lat="48.8627" lon="2.35047">
        <ele>105</ele>
        <time>2015-07-13T18:24:16.925Z</time>
      </trkpt>
      <trkpt lat="48.86275" lon="2.3505">
        <ele>104.8</ele>
        <time>2015-07-13T18:24:18.564Z</time>
      </trkpt>
      <trkpt lat="48.86279" lon="2.35053">
        <ele>104.9</ele>
        <time>2015-07-13T18:24:18.941Z</time>
      </trkpt>
      <trkpt lat="48.86283" lon="2.35056">
        <ele>105.1</ele>
        <time>2015-07-13T18:24:19.872Z</time>
      </trkpt>
      <trkpt lat="48.86288" lon="2.3506">
        <ele>105.2</ele>
        <time>2015-07-13T18:24:20.988Z</time>
      </trkpt>
      <trkpt lat="48.86292" lon="2.35064">
        <ele>105.5</ele>
        <time>2015-07-13T18:24:21.869Z</time>
      </trkpt>
      <trkpt lat="48.86297" lon="2.35066">
        <ele>105.6</ele>
        <time>2015-07-13T18:24:22.950Z</time>
      </trkpt>
      <trkpt lat="48.86303" lon="2.35071">
        <ele>106</ele>
        <time>2015-07-13T18:24:24.952Z</time>
      </trkpt>
      <trkpt lat="48.86306" lon="2.35072">
        <ele>106.1</ele>
        <time>2015-07-13T18:24:25.855Z</time>
      </trkpt>
      <trkpt lat="48.86312" lon="2.35076">
        <ele>106.3</ele>
        <time>2015-07-13T18:24:28.634Z</time>
      </trkpt>
      <trkpt lat="48.86318" lon="2.35085">
        <ele>105.2</ele>
        <time>2015-07-13T18:24:28.931Z</time>
      </trkpt>
      <trkpt lat="48.86321" lon="2.35093">
        <ele>104.3</ele>
        <time>2015-07-13T18:24:29.972Z</time>
      </trkpt>
      <trkpt lat="48.86323" lon="2.35101">
        <ele>103.9</ele>
        <time>2015-07-13T18:24:31.024Z</time>
      </trkpt>
      <trkpt lat="48.86324" lon="2.35108">
        <ele>103.5</ele>
        <time>2015-07-13T18:24:31.941Z</time>
      </trkpt>
      <trkpt lat="48.86326" lon="2.35116">
        <ele>103.7</ele>
        <time>2015-07-13T18:24:32.963Z</time>
      </trkpt>
      <trkpt lat="48.86327" lon="2.35129">
        <ele>103.8</ele>
        <time>2015-07-13T18:24:34.893Z</time>
      </trkpt>
      <trkpt lat="48.86327" lon="2.35135">
        <ele>104.2</ele>
        <time>2015-07-13T18:24:35.961Z</time>
      </trkpt>
      <trkpt lat="48.86326" lon="2.35149">
        <ele>105.2</ele>
        <time>2015-07-13T18:24:37.955Z</time>
      </trkpt>
      <trkpt lat="48.86325" lon="2.35156">
        <ele>105.6</ele>
        <time>2015-07-13T18:24:38.850Z</time>
      </trkpt>
      <trkpt lat="48.86324" lon="2.35163">
        <ele>105.7</ele>
        <time>2015-07-13T18:24:39.883Z</time>
      </trkpt>
      <trkpt lat="48.86322" lon="2.35171">
        <ele>106</ele>
        <time>2015-07-13T18:24:40.971Z</time>
      </trkpt>
      <trkpt lat="48.86321" lon="2.35179">
        <ele>106.2</ele>
        <time>2015-07-13T18:24:41.948Z</time>
      </trkpt>
      <trkpt lat="48.8632" lon="2.35186">
        <ele>106.3</ele>
        <time>2015-07-13T18:24:42.959Z</time>
      </trkpt>
      <trkpt lat="48.86316" lon="2.35197">
        <ele>106.4</ele>
        <time>2015-07-13T18:24:44.902Z</time>
      </trkpt>
      <trkpt lat="48.86314" lon="2.35203">
        <ele>106.6</ele>
        <time>2015-07-13T18:24:45.922Z</time>
      </trkpt>
      <trkpt lat="48.86315" lon="2.35211">
        <ele>106.3</ele>
        <time>2015-07-13T18:24:46.923Z</time>
      </trkpt>
      <trkpt lat="48.86315" lon="2.35216">
        <ele>106.1</ele>
        <time>2015-07-13T18:24:47.939Z</time>
      </trkpt>
      <trkpt lat="48.86316" lon="2.35228">
        <ele>105.8</ele>
        <time>2015-07-13T18:24:50.931Z</time>
      </trkpt>
      <trkpt lat="48.86315" lon="2.35231">
        <ele>105.9</ele>
        <time>2015-07-13T18:24:51.956Z</time>
      </trkpt>
      <trkpt lat="48.86317" lon="2.35242">
        <ele>105.8</ele>
        <time>2015-07-13T18:24:54.917Z</time>
      </trkpt>
      <trkpt lat="48.86317" lon="2.35248">
        <ele>105.6</ele>
        <time>2015-07-13T18:24:55.894Z</time>
      </trkpt>
      <trkpt lat="48.86317" lon="2.35259">
        <ele>105.5</ele>
        <time>2015-07-13T18:24:57.937Z</time>
      </trkpt>
      <trkpt lat="48.86316" lon="2.35265">
        <ele>105.6</ele>
        <time>2015-07-13T18:24:58.950Z</time>
      </trkpt>
      <trkpt lat="48.86315" lon="2.35276">
        <ele>106</ele>
        <time>2015-07-13T18:25:00.848Z</time>
      </trkpt>
      <trkpt lat="48.86314" lon="2.35282">
        <ele>105.8</ele>
        <time>2015-07-13T18:25:01.885Z</time>
      </trkpt>
      <trkpt lat="48.86313" lon="2.35294">
        <ele>105.9</ele>
        <time>2015-07-13T18:25:03.894Z</time>
      </trkpt>
      <trkpt lat="48.86313" lon="2.35301">
        <ele>106.2</ele>
        <time>2015-07-13T18:25:04.958Z</time>
      </trkpt>
      <trkpt lat="48.86313" lon="2.35314">
        <ele>106.8</ele>
        <time>2015-07-13T18:25:05.368Z</time>
      </trkpt>
      <trkpt lat="48.86311" lon="2.3532">
        <ele>107</ele>
        <time>2015-07-13T18:25:07.863Z</time>
      </trkpt>
      <trkpt lat="48.86308" lon="2.35332">
        <ele>107.1</ele>
        <time>2015-07-13T18:25:10.455Z</time>
      </trkpt>
      <trkpt lat="48.86307" lon="2.35338">
        <ele>107.5</ele>
        <time>2015-07-13T18:25:10.995Z</time>
      </trkpt>
      <trkpt lat="48.86303" lon="2.3535">
        <ele>107.7</ele>
        <time>2015-07-13T18:25:13.372Z</time>
      </trkpt>
      <trkpt lat="48.86302" lon="2.35357">
        <ele>107.9</ele>
        <time>2015-07-13T18:25:13.907Z</time>
      </trkpt>
      <trkpt lat="48.86299" lon="2.35369">
        <ele>108.3</ele>
        <time>2015-07-13T18:25:15.916Z</time>
      </trkpt>
      <trkpt lat="48.86298" lon="2.35376">
        <ele>108.5</ele>
        <time>2015-07-13T18:25:16.889Z</time>
      </trkpt>
      <trkpt lat="48.86295" lon="2.35388">
        <ele>108.9</ele>
        <time>2015-07-13T18:25:18.914Z</time>
      </trkpt>
      <trkpt lat="48.86293" lon="2.35395">
        <ele>108.9</ele>
        <time>2015-07-13T18:25:19.885Z</time>
      </trkpt>
      <trkpt lat="48.86292" lon="2.35401">
        <ele>109.1</ele>
        <time>2015-07-13T18:25:20.870Z</time>
      </trkpt>
      <trkpt lat="48.86289" lon="2.35407">
        <ele>109.5</ele>
        <time>2015-07-13T18:25:21.918Z</time>
      </trkpt>
      <trkpt lat="48.86284" lon="2.35411">
        <ele>109.8</ele>
        <time>2015-07-13T18:25:23.485Z</time>
      </trkpt>
      <trkpt lat="48.8628" lon="2.35414">
        <ele>109.7</ele>
        <time>2015-07-13T18:25:23.964Z</time>
      </trkpt>
      <trkpt lat="48.86275" lon="2.35414">
        <ele>109.4</ele>
        <time>2015-07-13T18:25:24.892Z</time>
      </trkpt>
      <trkpt lat="48.8627" lon="2.35414">
        <ele>109.5</ele>
        <time>2015-07-13T18:25:25.926Z</time>
      </trkpt>
      <trkpt lat="48.86265" lon="2.35412">
        <ele>109.4</ele>
        <time>2015-07-13T18:25:26.936Z</time>
      </trkpt>
      <trkpt lat="48.86259" lon="2.35409">
        <ele>109.2</ele>
        <time>2015-07-13T18:25:27.974Z</time>
      </trkpt>
      <trkpt lat="48.86253" lon="2.35407">
        <ele>108.8</ele>
        <time>2015-07-13T18:25:28.855Z</time>
      </trkpt>
      <trkpt lat="48.86246" lon="2.35406">
        <ele>108.2</ele>
        <time>2015-07-13T18:25:29.991Z</time>
      </trkpt>
      <trkpt lat="48.8624" lon="2.35405">
        <ele>107.8</ele>
        <time>2015-07-13T18:25:30.959Z</time>
      </trkpt>
      <trkpt lat="48.86233" lon="2.35404">
        <ele>107.4</ele>
        <time>2015-07-13T18:25:31.887Z</time>
      </trkpt>
      <trkpt lat="48.86227" lon="2.35403">
        <ele>107</ele>
        <time>2015-07-13T18:25:33.573Z</time>
      </trkpt>
      <trkpt lat="48.86221" lon="2.35402">
        <ele>106.5</ele>
        <time>2015-07-13T18:25:33.895Z</time>
      </trkpt>
      <trkpt lat="48.86214" lon="2.354">
        <ele>106.1</ele>
        <time>2015-07-13T18:25:34.901Z</time>
      </trkpt>
      <trkpt lat="48.86208" lon="2.35399">
        <ele>105.9</ele>
        <time>2015-07-13T18:25:35.930Z</time>
      </trkpt>
      <trkpt lat="48.86202" lon="2.35397">
        <ele>105.8</ele>
        <time>2015-07-13T18:25:36.941Z</time>
      </trkpt>
      <trkpt lat="48.86196" lon="2.35395">
        <ele>105.5</ele>
        <time>2015-07-13T18:25:37.949Z</time>
      </trkpt>
      <trkpt lat="48.8619" lon="2.35392">
        <ele>105.2</ele>
        <time>2015-07-13T18:25:38.958Z</time>
      </trkpt>
      <trkpt lat="48.86185" lon="2.35389">
        <ele>105.2</ele>
        <time>2015-07-13T18:25:39.882Z</time>
      </trkpt>
      <trkpt lat="48.86179" lon="2.35386">
        <ele>105.2</ele>
        <time>2015-07-13T18:25:40.925Z</time>
      </trkpt>
      <trkpt lat="48.86174" lon="2.35383">
        <ele>105</ele>
        <time>2015-07-13T18:25:41.936Z</time>
      </trkpt>
      <trkpt lat="48.86169" lon="2.35382">
        <ele>104.7</ele>
        <time>2015-07-13T18:25:42.948Z</time>
      </trkpt>
      <trkpt lat="48.86163" lon="2.35381">
        <ele>104.6</ele>
        <time>2015-07-13T18:25:43.995Z</time>
      </trkpt>
      <trkpt lat="48.86158" lon="2.35379">
        <ele>104.4</ele>
        <time>2015-07-13T18:25:44.873Z</time>
      </trkpt>
      <trkpt lat="48.86152" lon="2.35377">
        <ele>104.2</ele>
        <time>2015-07-13T18:25:45.907Z</time>
      </trkpt>
      <trkpt lat="48.86147" lon="2.35374">
        <ele>104.1</ele>
        <time>2015-07-13T18:25:46.910Z</time>
      </trkpt>
      <trkpt lat="48.86142" lon="2.35372">
        <ele>104.2</ele>
        <time>2015-07-13T18:25:47.925Z</time>
      </trkpt>
      <trkpt lat="48.86138" lon="2.35369">
        <ele>104.4</ele>
        <time>2015-07-13T18:25:48.923Z</time>
      </trkpt>
      <trkpt lat="48.86133" lon="2.35365">
        <ele>105</ele>
        <time>2015-07-13T18:25:49.931Z</time>
      </trkpt>
      <trkpt lat="48.86124" lon="2.35361">
        <ele>105.5</ele>
        <time>2015-07-13T18:25:51.962Z</time>
      </trkpt>
      <trkpt lat="48.8612" lon="2.3536">
        <ele>105.6</ele>
        <time>2015-07-13T18:25:52.914Z</time>
      </trkpt>
      <trkpt lat="48.86112" lon="2.35356">
        <ele>106.7</ele>
        <time>2015-07-13T18:25:54.888Z</time>
      </trkpt>
      <trkpt lat="48.86108" lon="2.35355">
        <ele>107.3</ele>
        <time>2015-07-13T18:25:55.920Z</time>
      </trkpt>
      <trkpt lat="48.86103" lon="2.35356">
        <ele>107.8</ele>
        <time>2015-07-13T18:25:56.954Z</time>
      </trkpt>
      <trkpt lat="48.86098" lon="2.35357">
        <ele>108.3</ele>
        <time>2015-07-13T18:25:57.965Z</time>
      </trkpt>
      <trkpt lat="48.86093" lon="2.3536">
        <ele>108.5</ele>
        <time>2015-07-13T18:25:58.882Z</time>
      </trkpt>
      <trkpt lat="48.86088" lon="2.35363">
        <ele>108.7</ele>
        <time>2015-07-13T18:25:59.964Z</time>
      </trkpt>
      <trkpt lat="48.86083" lon="2.35367">
        <ele>108.7</ele>
        <time>2015-07-13T18:26:00.879Z</time>
      </trkpt>
      <trkpt lat="48.86079" lon="2.35372">
        <ele>109</ele>
        <time>2015-07-13T18:26:01.881Z</time>
      </trkpt>
      <trkpt lat="48.86075" lon="2.35377">
        <ele>109.1</ele>
        <time>2015-07-13T18:26:02.933Z</time>
      </trkpt>
      <trkpt lat="48.8607" lon="2.35381">
        <ele>109.2</ele>
        <time>2015-07-13T18:26:03.878Z</time>
      </trkpt>
      <trkpt lat="48.86066" lon="2.35387">
        <ele>109.6</ele>
        <time>2015-07-13T18:26:04.876Z</time>
      </trkpt>
      <trkpt lat="48.86062" lon="2.35392">
        <ele>109.8</ele>
        <time>2015-07-13T18:26:05.931Z</time>
      </trkpt>
      <trkpt lat="48.86058" lon="2.35398">
        <ele>110.1</ele>
        <time>2015-07-13T18:26:06.849Z</time>
      </trkpt>
      <trkpt lat="48.86056" lon="2.35405">
        <ele>110.2</ele>
        <time>2015-07-13T18:26:07.881Z</time>
      </trkpt>
      <trkpt lat="48.86053" lon="2.35412">
        <ele>110.3</ele>
        <time>2015-07-13T18:26:08.880Z</time>
      </trkpt>
      <trkpt lat="48.86051" lon="2.35419">
        <ele>110.4</ele>
        <time>2015-07-13T18:26:09.881Z</time>
      </trkpt>
      <trkpt lat="48.86048" lon="2.35426">
        <ele>110.4</ele>
        <time>2015-07-13T18:26:10.896Z</time>
      </trkpt>
      <trkpt lat="48.86046" lon="2.35432">
        <ele>110.3</ele>
        <time>2015-07-13T18:26:11.936Z</time>
      </trkpt>
      <trkpt lat="48.86044" lon="2.3544">
        <ele>110.3</ele>
        <time>2015-07-13T18:26:12.932Z</time>
      </trkpt>
      <trkpt lat="48.86043" lon="2.35447">
        <ele>110.3</ele>
        <time>2015-07-13T18:26:13.862Z</time>
      </trkpt>
      <trkpt lat="48.86041" lon="2.35454">
        <ele>110.2</ele>
        <time>2015-07-13T18:26:14.874Z</time>
      </trkpt>
      <trkpt lat="48.86039" lon="2.35462">
        <ele>110.2</ele>
        <time>2015-07-13T18:26:15.883Z</time>
      </trkpt>
      <trkpt lat="48.86037" lon="2.35469">
        <ele>109.9</ele>
        <time>2015-07-13T18:26:16.912Z</time>
      </trkpt>
      <trkpt lat="48.86039" lon="2.35479">
        <ele>109.3</ele>
        <time>2015-07-13T18:26:17.929Z</time>
      </trkpt>
      <trkpt lat="48.86051" lon="2.35498">
        <ele>107.5</ele>
        <time>2015-07-13T18:26:18.975Z</time>
      </trkpt>
      <trkpt lat="48.86056" lon="2.35509">
        <ele>106.5</ele>
        <time>2015-07-13T18:26:19.884Z</time>
      </trkpt>
      <trkpt lat="48.86056" lon="2.35518">
        <ele>106.2</ele>
        <time>2015-07-13T18:26:20.910Z</time>
      </trkpt>
      <trkpt lat="48.86054" lon="2.35525">
        <ele>106.3</ele>
        <time>2015-07-13T18:26:21.851Z</time>
      </trkpt>
      <trkpt lat="48.86053" lon="2.35532">
        <ele>106.2</ele>
        <time>2015-07-13T18:26:22.880Z</time>
      </trkpt>
      <trkpt lat="48.8605" lon="2.35539">
        <ele>106.2</ele>
        <time>2015-07-13T18:26:23.930Z</time>
      </trkpt>
      <trkpt lat="48.86048" lon="2.35547">
        <ele>106.2</ele>
        <time>2015-07-13T18:26:24.925Z</time>
      </trkpt>
      <trkpt lat="48.86045" lon="2.35553">
        <ele>106.1</ele>
        <time>2015-07-13T18:26:25.931Z</time>
      </trkpt>
      <trkpt lat="48.86042" lon="2.3556">
        <ele>106.1</ele>
        <time>2015-07-13T18:26:26.943Z</time>
      </trkpt>
      <trkpt lat="48.86038" lon="2.35565">
        <ele>106</ele>
        <time>2015-07-13T18:26:27.950Z</time>
      </trkpt>
      <trkpt lat="48.86035" lon="2.35571">
        <ele>105.9</ele>
        <time>2015-07-13T18:26:28.851Z</time>
      </trkpt>
      <trkpt lat="48.86031" lon="2.35577">
        <ele>105.7</ele>
        <time>2015-07-13T18:26:29.961Z</time>
      </trkpt>
      <trkpt lat="48.86028" lon="2.35584">
        <ele>105.8</ele>
        <time>2015-07-13T18:26:30.957Z</time>
      </trkpt>
      <trkpt lat="48.86025" lon="2.3559">
        <ele>105.9</ele>
        <time>2015-07-13T18:26:31.864Z</time>
      </trkpt>
      <trkpt lat="48.86022" lon="2.35596">
        <ele>105.9</ele>
        <time>2015-07-13T18:26:32.868Z</time>
      </trkpt>
      <trkpt lat="48.86019" lon="2.35602">
        <ele>105.8</ele>
        <time>2015-07-13T18:26:33.883Z</time>
      </trkpt>
      <trkpt lat="48.86017" lon="2.35608">
        <ele>105.8</ele>
        <time>2015-07-13T18:26:34.887Z</time>
      </trkpt>
      <trkpt lat="48.86017" lon="2.35616">
        <ele>105.9</ele>
        <time>2015-07-13T18:26:35.915Z</time>
      </trkpt>
      <trkpt lat="48.86015" lon="2.35623">
        <ele>105.7</ele>
        <time>2015-07-13T18:26:36.912Z</time>
      </trkpt>
      <trkpt lat="48.86012" lon="2.35629">
        <ele>105.6</ele>
        <time>2015-07-13T18:26:37.938Z</time>
      </trkpt>
      <trkpt lat="48.8601" lon="2.35635">
        <ele>105.5</ele>
        <time>2015-07-13T18:26:38.951Z</time>
      </trkpt>
      <trkpt lat="48.86005" lon="2.35646">
        <ele>105.5</ele>
        <time>2015-07-13T18:26:40.894Z</time>
      </trkpt>
      <trkpt lat="48.86003" lon="2.35651">
        <ele>105.6</ele>
        <time>2015-07-13T18:26:41.918Z</time>
      </trkpt>
      <trkpt lat="48.86" lon="2.35661">
        <ele>105.5</ele>
        <time>2015-07-13T18:26:43.941Z</time>
      </trkpt>
      <trkpt lat="48.86" lon="2.35666">
        <ele>105.6</ele>
        <time>2015-07-13T18:26:44.872Z</time>
      </trkpt>
      <trkpt lat="48.86003" lon="2.35673">
        <ele>104.9</ele>
        <time>2015-07-13T18:26:45.869Z</time>
      </trkpt>
      <trkpt lat="48.86006" lon="2.35679">
        <ele>103.8</ele>
        <time>2015-07-13T18:26:46.884Z</time>
      </trkpt>
      <trkpt lat="48.86009" lon="2.3569">
        <ele>101.5</ele>
        <time>2015-07-13T18:26:50.888Z</time>
      </trkpt>
      <trkpt lat="48.86007" lon="2.35693">
        <ele>101.6</ele>
        <time>2015-07-13T18:26:51.886Z</time>
      </trkpt>
      <trkpt lat="48.86002" lon="2.357">
        <ele>101.9</ele>
        <time>2015-07-13T18:26:53.939Z</time>
      </trkpt>
      <trkpt lat="48.86" lon="2.35705">
        <ele>102.1</ele>
        <time>2015-07-13T18:26:54.912Z</time>
      </trkpt>
      <trkpt lat="48.85995" lon="2.35714">
        <ele>102</ele>
        <time>2015-07-13T18:26:56.902Z</time>
      </trkpt>
      <trkpt lat="48.85992" lon="2.35718">
        <ele>101.9</ele>
        <time>2015-07-13T18:26:57.921Z</time>
      </trkpt>
      <trkpt lat="48.85989" lon="2.35722">
        <ele>101.8</ele>
        <time>2015-07-13T18:26:58.859Z</time>
      </trkpt>
      <trkpt lat="48.85985" lon="2.35727">
        <ele>101.9</ele>
        <time>2015-07-13T18:26:59.989Z</time>
      </trkpt>
      <trkpt lat="48.8598" lon="2.3573">
        <ele>101.8</ele>
        <time>2015-07-13T18:27:00.860Z</time>
      </trkpt>
      <trkpt lat="48.85975" lon="2.35732">
        <ele>101.8</ele>
        <time>2015-07-13T18:27:01.874Z</time>
      </trkpt>
      <trkpt lat="48.85969" lon="2.35736">
        <ele>101.7</ele>
        <time>2015-07-13T18:27:02.879Z</time>
      </trkpt>
      <trkpt lat="48.85965" lon="2.3574">
        <ele>101.6</ele>
        <time>2015-07-13T18:27:03.891Z</time>
      </trkpt>
      <trkpt lat="48.8596" lon="2.35744">
        <ele>101.5</ele>
        <time>2015-07-13T18:27:04.900Z</time>
      </trkpt>
      <trkpt lat="48.85955" lon="2.35749">
        <ele>101.4</ele>
        <time>2015-07-13T18:27:05.920Z</time>
      </trkpt>
      <trkpt lat="48.85949" lon="2.35754">
        <ele>101.3</ele>
        <time>2015-07-13T18:27:06.937Z</time>
      </trkpt>
      <trkpt lat="48.85945" lon="2.35759">
        <ele>101.1</ele>
        <time>2015-07-13T18:27:07.846Z</time>
      </trkpt>
      <trkpt lat="48.8594" lon="2.35765">
        <ele>101.1</ele>
        <time>2015-07-13T18:27:08.964Z</time>
      </trkpt>
      <trkpt lat="48.85936" lon="2.3577">
        <ele>101</ele>
        <time>2015-07-13T18:27:09.848Z</time>
      </trkpt>
      <trkpt lat="48.85931" lon="2.35775">
        <ele>101</ele>
        <time>2015-07-13T18:27:10.904Z</time>
      </trkpt>
      <trkpt lat="48.85926" lon="2.3578">
        <ele>100.9</ele>
        <time>2015-07-13T18:27:11.921Z</time>
      </trkpt>
      <trkpt lat="48.85921" lon="2.35785">
        <ele>100.8</ele>
        <time>2015-07-13T18:27:12.906Z</time>
      </trkpt>
      <trkpt lat="48.85915" lon="2.3579">
        <ele>100.8</ele>
        <time>2015-07-13T18:27:13.913Z</time>
      </trkpt>
      <trkpt lat="48.8591" lon="2.35794">
        <ele>100.7</ele>
        <time>2015-07-13T18:27:14.942Z</time>
      </trkpt>
      <trkpt lat="48.85904" lon="2.35796">
        <ele>100.7</ele>
        <time>2015-07-13T18:27:15.946Z</time>
      </trkpt>
      <trkpt lat="48.859" lon="2.35801">
        <ele>100.8</ele>
        <time>2015-07-13T18:27:16.871Z</time>
      </trkpt>
      <trkpt lat="48.85896" lon="2.35807">
        <ele>100.9</ele>
        <time>2015-07-13T18:27:17.966Z</time>
      </trkpt>
      <trkpt lat="48.85892" lon="2.35814">
        <ele>101.1</ele>
        <time>2015-07-13T18:27:18.866Z</time>
      </trkpt>
      <trkpt lat="48.8589" lon="2.35821">
        <ele>101.5</ele>
        <time>2015-07-13T18:27:19.879Z</time>
      </trkpt>
      <trkpt lat="48.85886" lon="2.35832">
        <ele>102</ele>
        <time>2015-07-13T18:27:21.904Z</time>
      </trkpt>
      <trkpt lat="48.85885" lon="2.35838">
        <ele>102.1</ele>
        <time>2015-07-13T18:27:22.911Z</time>
      </trkpt>
      <trkpt lat="48.8588" lon="2.35849">
        <ele>102.3</ele>
        <time>2015-07-13T18:27:24.862Z</time>
      </trkpt>
      <trkpt lat="48.85878" lon="2.35855">
        <ele>103</ele>
        <time>2015-07-13T18:27:25.890Z</time>
      </trkpt>
      <trkpt lat="48.85872" lon="2.35864">
        <ele>103.3</ele>
        <time>2015-07-13T18:27:27.876Z</time>
      </trkpt>
      <trkpt lat="48.8587" lon="2.35868">
        <ele>103.2</ele>
        <time>2015-07-13T18:27:28.895Z</time>
      </trkpt>
      <trkpt lat="48.85873" lon="2.35878">
        <ele>101</ele>
        <time>2015-07-13T18:27:30.018Z</time>
      </trkpt>
      <trkpt lat="48.85871" lon="2.35882">
        <ele>100.3</ele>
        <time>2015-07-13T18:27:30.886Z</time>
      </trkpt>
      <trkpt lat="48.85865" lon="2.35891">
        <ele>99.7</ele>
        <time>2015-07-13T18:27:32.879Z</time>
      </trkpt>
      <trkpt lat="48.85862" lon="2.35895">
        <ele>99.5</ele>
        <time>2015-07-13T18:27:33.922Z</time>
      </trkpt>
      <trkpt lat="48.85858" lon="2.35899">
        <ele>99.4</ele>
        <time>2015-07-13T18:27:34.932Z</time>
      </trkpt>
      <trkpt lat="48.85854" lon="2.35904">
        <ele>99.2</ele>
        <time>2015-07-13T18:27:35.954Z</time>
      </trkpt>
      <trkpt lat="48.85851" lon="2.35908">
        <ele>99.1</ele>
        <time>2015-07-13T18:27:36.866Z</time>
      </trkpt>
      <trkpt lat="48.85847" lon="2.35913">
        <ele>99.1</ele>
        <time>2015-07-13T18:27:37.858Z</time>
      </trkpt>
      <trkpt lat="48.85844" lon="2.35918">
        <ele>98.8</ele>
        <time>2015-07-13T18:27:38.880Z</time>
      </trkpt>
      <trkpt lat="48.85841" lon="2.35924">
        <ele>98.8</ele>
        <time>2015-07-13T18:27:39.896Z</time>
      </trkpt>
      <trkpt lat="48.85839" lon="2.35931">
        <ele>98.6</ele>
        <time>2015-07-13T18:27:40.919Z</time>
      </trkpt>
      <trkpt lat="48.85837" lon="2.35937">
        <ele>98.4</ele>
        <time>2015-07-13T18:27:41.942Z</time>
      </trkpt>
      <trkpt lat="48.85835" lon="2.35943">
        <ele>98.2</ele>
        <time>2015-07-13T18:27:42.861Z</time>
      </trkpt>
      <trkpt lat="48.85833" lon="2.3595">
        <ele>98</ele>
        <time>2015-07-13T18:27:43.859Z</time>
      </trkpt>
      <trkpt lat="48.85832" lon="2.35957">
        <ele>97.9</ele>
        <time>2015-07-13T18:27:44.898Z</time>
      </trkpt>
      <trkpt lat="48.85829" lon="2.35962">
        <ele>97.8</ele>
        <time>2015-07-13T18:27:45.907Z</time>
      </trkpt>
      <trkpt lat="48.85824" lon="2.35973">
        <ele>97.7</ele>
        <time>2015-07-13T18:27:47.953Z</time>
      </trkpt>
      <trkpt lat="48.85821" lon="2.35978">
        <ele>97.8</ele>
        <time>2015-07-13T18:27:48.883Z</time>
      </trkpt>
      <trkpt lat="48.85814" lon="2.35986">
        <ele>97.7</ele>
        <time>2015-07-13T18:27:50.897Z</time>
      </trkpt>
      <trkpt lat="48.8581" lon="2.3599">
        <ele>97.8</ele>
        <time>2015-07-13T18:27:51.920Z</time>
      </trkpt>
      <trkpt lat="48.85806" lon="2.35994">
        <ele>98</ele>
        <time>2015-07-13T18:27:52.958Z</time>
      </trkpt>
      <trkpt lat="48.85802" lon="2.35998">
        <ele>98.6</ele>
        <time>2015-07-13T18:27:53.967Z</time>
      </trkpt>
      <trkpt lat="48.85798" lon="2.3601">
        <ele>99.9</ele>
        <time>2015-07-13T18:27:55.891Z</time>
      </trkpt>
      <trkpt lat="48.85796" lon="2.36015">
        <ele>100.2</ele>
        <time>2015-07-13T18:27:56.935Z</time>
      </trkpt>
      <trkpt lat="48.85792" lon="2.36024">
        <ele>100.2</ele>
        <time>2015-07-13T18:27:58.875Z</time>
      </trkpt>
      <trkpt lat="48.85791" lon="2.3603">
        <ele>100.2</ele>
        <time>2015-07-13T18:27:59.975Z</time>
      </trkpt>
      <trkpt lat="48.85786" lon="2.36039">
        <ele>100.4</ele>
        <time>2015-07-13T18:28:02.923Z</time>
      </trkpt>
      <trkpt lat="48.85784" lon="2.36041">
        <ele>100.3</ele>
        <time>2015-07-13T18:28:03.937Z</time>
      </trkpt>
      <trkpt lat="48.8578" lon="2.36049">
        <ele>100.4</ele>
        <time>2015-07-13T18:28:05.961Z</time>
      </trkpt>
      <trkpt lat="48.85779" lon="2.36054">
        <ele>100.1</ele>
        <time>2015-07-13T18:28:06.912Z</time>
      </trkpt>
      <trkpt lat="48.85775" lon="2.36066">
        <ele>100</ele>
        <time>2015-07-13T18:28:09.909Z</time>
      </trkpt>
      <trkpt lat="48.85773" lon="2.36069">
        <ele>100</ele>
        <time>2015-07-13T18:28:10.929Z</time>
      </trkpt>
      <trkpt lat="48.85769" lon="2.36076">
        <ele>100.2</ele>
        <time>2015-07-13T18:28:12.883Z</time>
      </trkpt>
      <trkpt lat="48.85766" lon="2.3608">
        <ele>100.3</ele>
        <time>2015-07-13T18:28:13.886Z</time>
      </trkpt>
      <trkpt lat="48.85762" lon="2.36089">
        <ele>101</ele>
        <time>2015-07-13T18:28:16.929Z</time>
      </trkpt>
      <trkpt lat="48.8576" lon="2.36092">
        <ele>101.2</ele>
        <time>2015-07-13T18:28:17.973Z</time>
      </trkpt>
      <trkpt lat="48.85756" lon="2.36101">
        <ele>101.6</ele>
        <time>2015-07-13T18:28:20.910Z</time>
      </trkpt>
      <trkpt lat="48.85755" lon="2.36104">
        <ele>101.4</ele>
        <time>2015-07-13T18:28:21.933Z</time>
      </trkpt>
      <trkpt lat="48.85749" lon="2.36115">
        <ele>101.3</ele>
        <time>2015-07-13T18:28:24.940Z</time>
      </trkpt>
      <trkpt lat="48.85748" lon="2.3612">
        <ele>101.4</ele>
        <time>2015-07-13T18:28:25.915Z</time>
      </trkpt>
      <trkpt lat="48.85743" lon="2.36131">
        <ele>101.4</ele>
        <time>2015-07-13T18:28:28.924Z</time>
      </trkpt>
      <trkpt lat="48.85741" lon="2.36133">
        <ele>101.3</ele>
        <time>2015-07-13T18:28:30.015Z</time>
      </trkpt>
      <trkpt lat="48.85738" lon="2.36144">
        <ele>100.8</ele>
        <time>2015-07-13T18:28:37.899Z</time>
      </trkpt>
      <trkpt lat="48.85737" lon="2.36147">
        <ele>100.5</ele>
        <time>2015-07-13T18:28:38.922Z</time>
      </trkpt>
      <trkpt lat="48.85732" lon="2.36156">
        <ele>99.6</ele>
        <time>2015-07-13T18:28:41.971Z</time>
      </trkpt>
      <trkpt lat="48.85734" lon="2.36162">
        <ele>99.1</ele>
        <time>2015-07-13T18:28:42.893Z</time>
      </trkpt>
      <trkpt lat="48.8573" lon="2.3617">
        <ele>98.9</ele>
        <time>2015-07-13T18:28:44.930Z</time>
      </trkpt>
      <trkpt lat="48.85729" lon="2.36174">
        <ele>99</ele>
        <time>2015-07-13T18:28:45.940Z</time>
      </trkpt>
      <trkpt lat="48.85727" lon="2.36185">
        <ele>98.9</ele>
        <time>2015-07-13T18:28:47.999Z</time>
      </trkpt>
      <trkpt lat="48.85726" lon="2.36191">
        <ele>99.1</ele>
        <time>2015-07-13T18:28:48.921Z</time>
      </trkpt>
      <trkpt lat="48.85724" lon="2.36202">
        <ele>99.5</ele>
        <time>2015-07-13T18:28:50.916Z</time>
      </trkpt>
      <trkpt lat="48.85722" lon="2.36209">
        <ele>99.7</ele>
        <time>2015-07-13T18:28:51.928Z</time>
      </trkpt>
      <trkpt lat="48.8572" lon="2.36215">
        <ele>99.7</ele>
        <time>2015-07-13T18:28:52.941Z</time>
      </trkpt>
      <trkpt lat="48.85716" lon="2.36221">
        <ele>99.6</ele>
        <time>2015-07-13T18:28:53.966Z</time>
      </trkpt>
      <trkpt lat="48.8571" lon="2.36231">
        <ele>99.6</ele>
        <time>2015-07-13T18:28:55.910Z</time>
      </trkpt>
      <trkpt lat="48.85707" lon="2.36236">
        <ele>99.8</ele>
        <time>2015-07-13T18:28:56.908Z</time>
      </trkpt>
      <trkpt lat="48.85702" lon="2.36245">
        <ele>100.1</ele>
        <time>2015-07-13T18:28:58.936Z</time>
      </trkpt>
      <trkpt lat="48.857" lon="2.3625">
        <ele>100.2</ele>
        <time>2015-07-13T18:28:59.972Z</time>
      </trkpt>
      <trkpt lat="48.85697" lon="2.36257">
        <ele>100.9</ele>
        <time>2015-07-13T18:28:59.798Z</time>
      </trkpt>
      <trkpt lat="48.85697" lon="2.36264">
        <ele>100.8</ele>
        <time>2015-07-13T18:29:01.898Z</time>
      </trkpt>
      <trkpt lat="48.85693" lon="2.36272">
        <ele>100.9</ele>
        <time>2015-07-13T18:29:03.893Z</time>
      </trkpt>
      <trkpt lat="48.85692" lon="2.36275">
        <ele>101.1</ele>
        <time>2015-07-13T18:29:04.935Z</time>
      </trkpt>
      <trkpt lat="48.8569" lon="2.36286">
        <ele>101.3</ele>
        <time>2015-07-13T18:29:06.862Z</time>
      </trkpt>
      <trkpt lat="48.85687" lon="2.36291">
        <ele>101.2</ele>
        <time>2015-07-13T18:29:07.910Z</time>
      </trkpt>
      <trkpt lat="48.85682" lon="2.363">
        <ele>101.5</ele>
        <time>2015-07-13T18:29:10.025Z</time>
      </trkpt>
      <trkpt lat="48.85679" lon="2.36305">
        <ele>101.7</ele>
        <time>2015-07-13T18:29:10.895Z</time>
      </trkpt>
      <trkpt lat="48.85675" lon="2.36311">
        <ele>101.6</ele>
        <time>2015-07-13T18:29:11.919Z</time>
      </trkpt>
      <trkpt lat="48.85673" lon="2.36316">
        <ele>101.8</ele>
        <time>2015-07-13T18:29:12.966Z</time>
      </trkpt>
      <trkpt lat="48.85671" lon="2.36321">
        <ele>102</ele>
        <time>2015-07-13T18:29:13.886Z</time>
      </trkpt>
      <trkpt lat="48.85668" lon="2.36328">
        <ele>102.3</ele>
        <time>2015-07-13T18:29:14.849Z</time>
      </trkpt>
      <trkpt lat="48.85665" lon="2.36336">
        <ele>102.1</ele>
        <time>2015-07-13T18:29:15.891Z</time>
      </trkpt>
      <trkpt lat="48.85662" lon="2.36344">
        <ele>102</ele>
        <time>2015-07-13T18:29:16.916Z</time>
      </trkpt>
      <trkpt lat="48.8566" lon="2.36352">
        <ele>101.6</ele>
        <time>2015-07-13T18:29:18.271Z</time>
      </trkpt>
      <trkpt lat="48.85659" lon="2.36361">
        <ele>101.6</ele>
        <time>2015-07-13T18:29:18.905Z</time>
      </trkpt>
      <trkpt lat="48.85659" lon="2.36369">
        <ele>101.7</ele>
        <time>2015-07-13T18:29:19.942Z</time>
      </trkpt>
      <trkpt lat="48.85658" lon="2.36378">
        <ele>101.9</ele>
        <time>2015-07-13T18:29:20.947Z</time>
      </trkpt>
      <trkpt lat="48.85657" lon="2.36385">
        <ele>102</ele>
        <time>2015-07-13T18:29:21.870Z</time>
      </trkpt>
      <trkpt lat="48.85655" lon="2.36393">
        <ele>101.9</ele>
        <time>2015-07-13T18:29:22.871Z</time>
      </trkpt>
      <trkpt lat="48.85655" lon="2.36403">
        <ele>101.3</ele>
        <time>2015-07-13T18:29:23.919Z</time>
      </trkpt>
      <trkpt lat="48.85659" lon="2.36416">
        <ele>100.4</ele>
        <time>2015-07-13T18:29:24.917Z</time>
      </trkpt>
      <trkpt lat="48.85656" lon="2.36426">
        <ele>100.5</ele>
        <time>2015-07-13T18:29:25.924Z</time>
      </trkpt>
      <trkpt lat="48.85654" lon="2.36432">
        <ele>100.6</ele>
        <time>2015-07-13T18:29:26.926Z</time>
      </trkpt>
      <trkpt lat="48.85652" lon="2.36438">
        <ele>100.7</ele>
        <time>2015-07-13T18:29:27.942Z</time>
      </trkpt>
      <trkpt lat="48.85648" lon="2.36443">
        <ele>100.6</ele>
        <time>2015-07-13T18:29:28.956Z</time>
      </trkpt>
      <trkpt lat="48.85644" lon="2.36448">
        <ele>100.7</ele>
        <time>2015-07-13T18:29:29.968Z</time>
      </trkpt>
      <trkpt lat="48.8564" lon="2.36454">
        <ele>100.8</ele>
        <time>2015-07-13T18:29:30.876Z</time>
      </trkpt>
      <trkpt lat="48.85638" lon="2.3646">
        <ele>101</ele>
        <time>2015-07-13T18:29:31.893Z</time>
      </trkpt>
      <trkpt lat="48.85636" lon="2.36466">
        <ele>101.1</ele>
        <time>2015-07-13T18:29:32.918Z</time>
      </trkpt>
      <trkpt lat="48.85634" lon="2.36473">
        <ele>101</ele>
        <time>2015-07-13T18:29:33.955Z</time>
      </trkpt>
      <trkpt lat="48.85632" lon="2.3648">
        <ele>101.1</ele>
        <time>2015-07-13T18:29:34.865Z</time>
      </trkpt>
      <trkpt lat="48.85632" lon="2.36488">
        <ele>100.9</ele>
        <time>2015-07-13T18:29:35.876Z</time>
      </trkpt>
      <trkpt lat="48.85631" lon="2.36497">
        <ele>100.8</ele>
        <time>2015-07-13T18:29:36.865Z</time>
      </trkpt>
      <trkpt lat="48.85628" lon="2.36504">
        <ele>100.7</ele>
        <time>2015-07-13T18:29:37.871Z</time>
      </trkpt>
      <trkpt lat="48.85627" lon="2.36513">
        <ele>100.7</ele>
        <time>2015-07-13T18:29:38.878Z</time>
      </trkpt>
      <trkpt lat="48.85626" lon="2.36521">
        <ele>100.6</ele>
        <time>2015-07-13T18:29:39.891Z</time>
      </trkpt>
      <trkpt lat="48.85624" lon="2.36529">
        <ele>100.4</ele>
        <time>2015-07-13T18:29:40.908Z</time>
      </trkpt>
      <trkpt lat="48.85623" lon="2.36536">
        <ele>99.9</ele>
        <time>2015-07-13T18:29:42.029Z</time>
      </trkpt>
      <trkpt lat="48.85622" lon="2.36544">
        <ele>100</ele>
        <time>2015-07-13T18:29:42.921Z</time>
      </trkpt>
      <trkpt lat="48.8562" lon="2.36553">
        <ele>99.9</ele>
        <time>2015-07-13T18:29:43.935Z</time>
      </trkpt>
      <trkpt lat="48.85619" lon="2.36561">
        <ele>100</ele>
        <time>2015-07-13T18:29:44.948Z</time>
      </trkpt>
      <trkpt lat="48.85618" lon="2.36569">
        <ele>100</ele>
        <time>2015-07-13T18:29:45.970Z</time>
      </trkpt>
      <trkpt lat="48.85617" lon="2.36577">
        <ele>100</ele>
        <time>2015-07-13T18:29:46.836Z</time>
      </trkpt>
      <trkpt lat="48.85616" lon="2.36586">
        <ele>99.9</ele>
        <time>2015-07-13T18:29:47.910Z</time>
      </trkpt>
      <trkpt lat="48.85615" lon="2.36594">
        <ele>99.9</ele>
        <time>2015-07-13T18:29:48.910Z</time>
      </trkpt>
      <trkpt lat="48.85614" lon="2.36603">
        <ele>100</ele>
        <time>2015-07-13T18:29:49.931Z</time>
      </trkpt>
      <trkpt lat="48.85612" lon="2.3661">
        <ele>99.8</ele>
        <time>2015-07-13T18:29:50.936Z</time>
      </trkpt>
      <trkpt lat="48.85611" lon="2.36618">
        <ele>99.5</ele>
        <time>2015-07-13T18:29:51.834Z</time>
      </trkpt>
      <trkpt lat="48.85609" lon="2.36626">
        <ele>99.4</ele>
        <time>2015-07-13T18:29:52.867Z</time>
      </trkpt>
      <trkpt lat="48.85608" lon="2.36634">
        <ele>99.2</ele>
        <time>2015-07-13T18:29:53.912Z</time>
      </trkpt>
      <trkpt lat="48.85608" lon="2.36642">
        <ele>99</ele>
        <time>2015-07-13T18:29:54.922Z</time>
      </trkpt>
      <trkpt lat="48.85606" lon="2.36649">
        <ele>98.9</ele>
        <time>2015-07-13T18:29:55.931Z</time>
      </trkpt>
      <trkpt lat="48.85606" lon="2.36656">
        <ele>98.9</ele>
        <time>2015-07-13T18:29:56.950Z</time>
      </trkpt>
      <trkpt lat="48.85605" lon="2.36664">
        <ele>98.8</ele>
        <time>2015-07-13T18:29:57.881Z</time>
      </trkpt>
      <trkpt lat="48.85605" lon="2.36671">
        <ele>98.7</ele>
        <time>2015-07-13T18:29:58.866Z</time>
      </trkpt>
      <trkpt lat="48.85604" lon="2.36679">
        <ele>98.8</ele>
        <time>2015-07-13T18:29:59.932Z</time>
      </trkpt>
      <trkpt lat="48.85603" lon="2.36685">
        <ele>98.7</ele>
        <time>2015-07-13T18:30:00.950Z</time>
      </trkpt>
      <trkpt lat="48.85601" lon="2.36697">
        <ele>98.7</ele>
        <time>2015-07-13T18:30:02.879Z</time>
      </trkpt>
      <trkpt lat="48.856" lon="2.36703">
        <ele>98.6</ele>
        <time>2015-07-13T18:30:03.882Z</time>
      </trkpt>
      <trkpt lat="48.85599" lon="2.36715">
        <ele>97.8</ele>
        <time>2015-07-13T18:30:05.921Z</time>
      </trkpt>
      <trkpt lat="48.85598" lon="2.3672">
        <ele>97.8</ele>
        <time>2015-07-13T18:30:06.926Z</time>
      </trkpt>
      <trkpt lat="48.85596" lon="2.3673">
        <ele>98.1</ele>
        <time>2015-07-13T18:30:08.875Z</time>
      </trkpt>
      <trkpt lat="48.85596" lon="2.36735">
        <ele>98.1</ele>
        <time>2015-07-13T18:30:09.883Z</time>
      </trkpt>
      <trkpt lat="48.85594" lon="2.36747">
        <ele>98.2</ele>
        <time>2015-07-13T18:30:11.900Z</time>
      </trkpt>
      <trkpt lat="48.85593" lon="2.36753">
        <ele>98.3</ele>
        <time>2015-07-13T18:30:12.906Z</time>
      </trkpt>
      <trkpt lat="48.8559" lon="2.36765">
        <ele>98.5</ele>
        <time>2015-07-13T18:30:14.920Z</time>
      </trkpt>
      <trkpt lat="48.85588" lon="2.3677">
        <ele>98.4</ele>
        <time>2015-07-13T18:30:15.932Z</time>
      </trkpt>
      <trkpt lat="48.85584" lon="2.3678">
        <ele>98.4</ele>
        <time>2015-07-13T18:30:17.864Z</time>
      </trkpt>
      <trkpt lat="48.85583" lon="2.36786">
        <ele>98.6</ele>
        <time>2015-07-13T18:30:18.866Z</time>
      </trkpt>
      <trkpt lat="48.85581" lon="2.36797">
        <ele>98.8</ele>
        <time>2015-07-13T18:30:20.905Z</time>
      </trkpt>
      <trkpt lat="48.85578" lon="2.36802">
        <ele>98.7</ele>
        <time>2015-07-13T18:30:21.914Z</time>
      </trkpt>
      <trkpt lat="48.8558" lon="2.3681">
        <ele>98</ele>
        <time>2015-07-13T18:30:22.924Z</time>
      </trkpt>
      <trkpt lat="48.85583" lon="2.36817">
        <ele>96.8</ele>
        <time>2015-07-13T18:30:23.936Z</time>
      </trkpt>
      <trkpt lat="48.85587" lon="2.36825">
        <ele>96.5</ele>
        <time>2015-07-13T18:30:25.853Z</time>
      </trkpt>
      <trkpt lat="48.85589" lon="2.36828">
        <ele>96.3</ele>
        <time>2015-07-13T18:30:26.877Z</time>
      </trkpt>
      <trkpt lat="48.85591" lon="2.36841">
        <ele>97.2</ele>
        <time>2015-07-13T18:30:36.910Z</time>
      </trkpt>
      <trkpt lat="48.85594" lon="2.3684">
        <ele>97.4</ele>
        <time>2015-07-13T18:30:37.909Z</time>
      </trkpt>
      <trkpt lat="48.85603" lon="2.36838">
        <ele>98.3</ele>
        <time>2015-07-13T18:30:40.945Z</time>
      </trkpt>
      <trkpt lat="48.85607" lon="2.36838">
        <ele>98.6</ele>
        <time>2015-07-13T18:30:41.992Z</time>
      </trkpt>
      <trkpt lat="48.85614" lon="2.36836">
        <ele>98.9</ele>
        <time>2015-07-13T18:30:43.896Z</time>
      </trkpt>
      <trkpt lat="48.85618" lon="2.36836">
        <ele>99.2</ele>
        <time>2015-07-13T18:30:44.966Z</time>
      </trkpt>
      <trkpt lat="48.85626" lon="2.36834">
        <ele>99.9</ele>
        <time>2015-07-13T18:30:46.879Z</time>
      </trkpt>
      <trkpt lat="48.8563" lon="2.36833">
        <ele>100.1</ele>
        <time>2015-07-13T18:30:47.951Z</time>
      </trkpt>
      <trkpt lat="48.85635" lon="2.36831">
        <ele>100.4</ele>
        <time>2015-07-13T18:30:48.892Z</time>
      </trkpt>
      <trkpt lat="48.8564" lon="2.3683">
        <ele>100.6</ele>
        <time>2015-07-13T18:30:49.902Z</time>
      </trkpt>
      <trkpt lat="48.85644" lon="2.36829">
        <ele>100.8</ele>
        <time>2015-07-13T18:30:50.913Z</time>
      </trkpt>
      <trkpt lat="48.85649" lon="2.36827">
        <ele>101.1</ele>
        <time>2015-07-13T18:30:51.926Z</time>
      </trkpt>
      <trkpt lat="48.85654" lon="2.36824">
        <ele>101.7</ele>
        <time>2015-07-13T18:30:52.940Z</time>
      </trkpt>
      <trkpt lat="48.85658" lon="2.36821">
        <ele>102.3</ele>
        <time>2015-07-13T18:30:53.944Z</time>
      </trkpt>
      <trkpt lat="48.85663" lon="2.3682">
        <ele>103.1</ele>
        <time>2015-07-13T18:30:54.957Z</time>
      </trkpt>
      <trkpt lat="48.85668" lon="2.36818">
        <ele>103.5</ele>
        <time>2015-07-13T18:30:55.954Z</time>
      </trkpt>
      <trkpt lat="48.85672" lon="2.36817">
        <ele>103.7</ele>
        <time>2015-07-13T18:30:56.879Z</time>
      </trkpt>
      <trkpt lat="48.85677" lon="2.36816">
        <ele>103.8</ele>
        <time>2015-07-13T18:30:57.884Z</time>
      </trkpt>
      <trkpt lat="48.85682" lon="2.36816">
        <ele>103.9</ele>
        <time>2015-07-13T18:30:58.928Z</time>
      </trkpt>
      <trkpt lat="48.85687" lon="2.36817">
        <ele>103.8</ele>
        <time>2015-07-13T18:30:59.977Z</time>
      </trkpt>
      <trkpt lat="48.85693" lon="2.36825">
        <ele>103.8</ele>
        <time>2015-07-13T18:31:01.874Z</time>
      </trkpt>
      <trkpt lat="48.85696" lon="2.36833">
        <ele>103.5</ele>
        <time>2015-07-13T18:31:02.884Z</time>
      </trkpt>
      <trkpt lat="48.85699" lon="2.36841">
        <ele>103.6</ele>
        <time>2015-07-13T18:31:03.895Z</time>
      </trkpt>
      <trkpt lat="48.85702" lon="2.36848">
        <ele>103.8</ele>
        <time>2015-07-13T18:31:04.941Z</time>
      </trkpt>
      <trkpt lat="48.85704" lon="2.36855">
        <ele>103.8</ele>
        <time>2015-07-13T18:31:05.976Z</time>
      </trkpt>
      <trkpt lat="48.85706" lon="2.36861">
        <ele>103.8</ele>
        <time>2015-07-13T18:31:06.880Z</time>
      </trkpt>
      <trkpt lat="48.85709" lon="2.36871">
        <ele>103.7</ele>
        <time>2015-07-13T18:31:08.903Z</time>
      </trkpt>
      <trkpt lat="48.85711" lon="2.36876">
        <ele>103.7</ele>
        <time>2015-07-13T18:31:09.915Z</time>
      </trkpt>
      <trkpt lat="48.85714" lon="2.36885">
        <ele>103.4</ele>
        <time>2015-07-13T18:31:11.969Z</time>
      </trkpt>
      <trkpt lat="48.85716" lon="2.36891">
        <ele>103.2</ele>
        <time>2015-07-13T18:31:12.906Z</time>
      </trkpt>
      <trkpt lat="48.85717" lon="2.36897">
        <ele>103.2</ele>
        <time>2015-07-13T18:31:13.877Z</time>
      </trkpt>
      <trkpt lat="48.85719" lon="2.36903">
        <ele>103</ele>
        <time>2015-07-13T18:31:14.891Z</time>
      </trkpt>
      <trkpt lat="48.85721" lon="2.3691">
        <ele>102.9</ele>
        <time>2015-07-13T18:31:15.908Z</time>
      </trkpt>
      <trkpt lat="48.85724" lon="2.36916">
        <ele>102.7</ele>
        <time>2015-07-13T18:31:16.918Z</time>
      </trkpt>
      <trkpt lat="48.85726" lon="2.36922">
        <ele>102.6</ele>
        <time>2015-07-13T18:31:17.949Z</time>
      </trkpt>
      <trkpt lat="48.85729" lon="2.3693">
        <ele>102.6</ele>
        <time>2015-07-13T18:31:18.913Z</time>
      </trkpt>
      <trkpt lat="48.85732" lon="2.36938">
        <ele>102.4</ele>
        <time>2015-07-13T18:31:19.898Z</time>
      </trkpt>
      <trkpt lat="48.85735" lon="2.36945">
        <ele>102.4</ele>
        <time>2015-07-13T18:31:20.905Z</time>
      </trkpt>
      <trkpt lat="48.85737" lon="2.36953">
        <ele>102.2</ele>
        <time>2015-07-13T18:31:21.961Z</time>
      </trkpt>
      <trkpt lat="48.8574" lon="2.36961">
        <ele>102.2</ele>
        <time>2015-07-13T18:31:22.895Z</time>
      </trkpt>
      <trkpt lat="48.85742" lon="2.36968">
        <ele>102.4</ele>
        <time>2015-07-13T18:31:23.920Z</time>
      </trkpt>
      <trkpt lat="48.85744" lon="2.36975">
        <ele>102.7</ele>
        <time>2015-07-13T18:31:24.950Z</time>
      </trkpt>
      <trkpt lat="48.85747" lon="2.36983">
        <ele>103.5</ele>
        <time>2015-07-13T18:31:25.984Z</time>
      </trkpt>
      <trkpt lat="48.8575" lon="2.36991">
        <ele>103.2</ele>
        <time>2015-07-13T18:31:26.877Z</time>
      </trkpt>
      <trkpt lat="48.85752" lon="2.36999">
        <ele>103</ele>
        <time>2015-07-13T18:31:27.879Z</time>
      </trkpt>
      <trkpt lat="48.85755" lon="2.37007">
        <ele>102.9</ele>
        <time>2015-07-13T18:31:28.892Z</time>
      </trkpt>
      <trkpt lat="48.85759" lon="2.37014">
        <ele>103</ele>
        <time>2015-07-13T18:31:29.953Z</time>
      </trkpt>
      <trkpt lat="48.85762" lon="2.37022">
        <ele>103.3</ele>
        <time>2015-07-13T18:31:30.947Z</time>
      </trkpt>
      <trkpt lat="48.85764" lon="2.3703">
        <ele>103.5</ele>
        <time>2015-07-13T18:31:31.955Z</time>
      </trkpt>
      <trkpt lat="48.85767" lon="2.37037">
        <ele>103.7</ele>
        <time>2015-07-13T18:31:32.839Z</time>
      </trkpt>
      <trkpt lat="48.85769" lon="2.37044">
        <ele>103.8</ele>
        <time>2015-07-13T18:31:33.870Z</time>
      </trkpt>
      <trkpt lat="48.85771" lon="2.3705">
        <ele>103.8</ele>
        <time>2015-07-13T18:31:34.884Z</time>
      </trkpt>
      <trkpt lat="48.85776" lon="2.37062">
        <ele>104.1</ele>
        <time>2015-07-13T18:31:36.948Z</time>
      </trkpt>
      <trkpt lat="48.85777" lon="2.37067">
        <ele>103.9</ele>
        <time>2015-07-13T18:31:37.904Z</time>
      </trkpt>
      <trkpt lat="48.85781" lon="2.37079">
        <ele>103.8</ele>
        <time>2015-07-13T18:31:41.925Z</time>
      </trkpt>
      <trkpt lat="48.85781" lon="2.3708">
        <ele>103.6</ele>
        <time>2015-07-13T18:31:42.963Z</time>
      </trkpt>
      <trkpt lat="48.85784" lon="2.3709">
        <ele>97.9</ele>
        <time>2015-07-13T18:32:02.984Z</time>
      </trkpt>
      <trkpt lat="48.85785" lon="2.37094">
        <ele>97.7</ele>
        <time>2015-07-13T18:32:03.836Z</time>
      </trkpt>
      <trkpt lat="48.85788" lon="2.37102">
        <ele>97.7</ele>
        <time>2015-07-13T18:32:05.890Z</time>
      </trkpt>
      <trkpt lat="48.85789" lon="2.37107">
        <ele>97.8</ele>
        <time>2015-07-13T18:32:06.904Z</time>
      </trkpt>
      <trkpt lat="48.85791" lon="2.37116">
        <ele>97.8</ele>
        <time>2015-07-13T18:32:08.983Z</time>
      </trkpt>
      <trkpt lat="48.85792" lon="2.37121">
        <ele>97.7</ele>
        <time>2015-07-13T18:32:09.864Z</time>
      </trkpt>
      <trkpt lat="48.85793" lon="2.37128">
        <ele>97.8</ele>
        <time>2015-07-13T18:32:10.886Z</time>
      </trkpt>
      <trkpt lat="48.85793" lon="2.37135">
        <ele>97.8</ele>
        <time>2015-07-13T18:32:11.911Z</time>
      </trkpt>
      <trkpt lat="48.85795" lon="2.37148">
        <ele>97.9</ele>
        <time>2015-07-13T18:32:13.936Z</time>
      </trkpt>
      <trkpt lat="48.85796" lon="2.37154">
        <ele>97.9</ele>
        <time>2015-07-13T18:32:14.896Z</time>
      </trkpt>
      <trkpt lat="48.85798" lon="2.37166">
        <ele>97.8</ele>
        <time>2015-07-13T18:32:16.889Z</time>
      </trkpt>
      <trkpt lat="48.858" lon="2.37171">
        <ele>97.7</ele>
        <time>2015-07-13T18:32:17.902Z</time>
      </trkpt>
      <trkpt lat="48.85803" lon="2.37177">
        <ele>97.6</ele>
        <time>2015-07-13T18:32:18.916Z</time>
      </trkpt>
      <trkpt lat="48.85806" lon="2.37183">
        <ele>97.5</ele>
        <time>2015-07-13T18:32:19.935Z</time>
      </trkpt>
      <trkpt lat="48.8581" lon="2.37189">
        <ele>97.5</ele>
        <time>2015-07-13T18:32:20.864Z</time>
      </trkpt>
      <trkpt lat="48.85814" lon="2.37195">
        <ele>97.5</ele>
        <time>2015-07-13T18:32:21.891Z</time>
      </trkpt>
      <trkpt lat="48.85817" lon="2.37203">
        <ele>97.6</ele>
        <time>2015-07-13T18:32:22.903Z</time>
      </trkpt>
      <trkpt lat="48.8582" lon="2.37211">
        <ele>97.6</ele>
        <time>2015-07-13T18:32:23.933Z</time>
      </trkpt>
      <trkpt lat="48.85825" lon="2.3722">
        <ele>97.6</ele>
        <time>2015-07-13T18:32:24.843Z</time>
      </trkpt>
      <trkpt lat="48.85828" lon="2.37228">
        <ele>97.7</ele>
        <time>2015-07-13T18:32:25.878Z</time>
      </trkpt>
      <trkpt lat="48.85832" lon="2.37238">
        <ele>97.7</ele>
        <time>2015-07-13T18:32:25.525Z</time>
      </trkpt>
      <trkpt lat="48.85836" lon="2.37247">
        <ele>97.8</ele>
        <time>2015-07-13T18:32:27.898Z</time>
      </trkpt>
      <trkpt lat="48.85839" lon="2.37256">
        <ele>97.9</ele>
        <time>2015-07-13T18:32:28.909Z</time>
      </trkpt>
      <trkpt lat="48.85843" lon="2.37265">
        <ele>97.9</ele>
        <time>2015-07-13T18:32:29.960Z</time>
      </trkpt>
      <trkpt lat="48.85846" lon="2.37275">
        <ele>98</ele>
        <time>2015-07-13T18:32:30.876Z</time>
      </trkpt>
      <trkpt lat="48.8585" lon="2.37283">
        <ele>98</ele>
        <time>2015-07-13T18:32:31.867Z</time>
      </trkpt>
      <trkpt lat="48.85853" lon="2.37291">
        <ele>98</ele>
        <time>2015-07-13T18:32:32.875Z</time>
      </trkpt>
      <trkpt lat="48.85857" lon="2.373">
        <ele>98</ele>
        <time>2015-07-13T18:32:33.916Z</time>
      </trkpt>
      <trkpt lat="48.8586" lon="2.37309">
        <ele>98</ele>
        <time>2015-07-13T18:32:34.938Z</time>
      </trkpt>
      <trkpt lat="48.85862" lon="2.37318">
        <ele>97.9</ele>
        <time>2015-07-13T18:32:35.953Z</time>
      </trkpt>
      <trkpt lat="48.85866" lon="2.37327">
        <ele>98</ele>
        <time>2015-07-13T18:32:36.870Z</time>
      </trkpt>
      <trkpt lat="48.85869" lon="2.37336">
        <ele>98.1</ele>
        <time>2015-07-13T18:32:37.863Z</time>
      </trkpt>
      <trkpt lat="48.85875" lon="2.37344">
        <ele>98.3</ele>
        <time>2015-07-13T18:32:38.906Z</time>
      </trkpt>
      <trkpt lat="48.85878" lon="2.37353">
        <ele>98.3</ele>
        <time>2015-07-13T18:32:39.924Z</time>
      </trkpt>
      <trkpt lat="48.8588" lon="2.37362">
        <ele>98.2</ele>
        <time>2015-07-13T18:32:40.931Z</time>
      </trkpt>
      <trkpt lat="48.85882" lon="2.37371">
        <ele>98.1</ele>
        <time>2015-07-13T18:32:41.946Z</time>
      </trkpt>
      <trkpt lat="48.85885" lon="2.3738">
        <ele>98.1</ele>
        <time>2015-07-13T18:32:42.850Z</time>
      </trkpt>
      <trkpt lat="48.85888" lon="2.37388">
        <ele>98.2</ele>
        <time>2015-07-13T18:32:43.863Z</time>
      </trkpt>
      <trkpt lat="48.8589" lon="2.37397">
        <ele>98.2</ele>
        <time>2015-07-13T18:32:44.875Z</time>
      </trkpt>
      <trkpt lat="48.85893" lon="2.37404">
        <ele>98.2</ele>
        <time>2015-07-13T18:32:45.886Z</time>
      </trkpt>
      <trkpt lat="48.85896" lon="2.37411">
        <ele>98.2</ele>
        <time>2015-07-13T18:32:46.895Z</time>
      </trkpt>
      <trkpt lat="48.85898" lon="2.37418">
        <ele>98.2</ele>
        <time>2015-07-13T18:32:47.912Z</time>
      </trkpt>
      <trkpt lat="48.859" lon="2.37425">
        <ele>97.9</ele>
        <time>2015-07-13T18:32:48.918Z</time>
      </trkpt>
      <trkpt lat="48.85903" lon="2.37433">
        <ele>97.8</ele>
        <time>2015-07-13T18:32:49.927Z</time>
      </trkpt>
      <trkpt lat="48.85905" lon="2.3744">
        <ele>97.9</ele>
        <time>2015-07-13T18:32:50.936Z</time>
      </trkpt>
      <trkpt lat="48.85909" lon="2.37448">
        <ele>97.9</ele>
        <time>2015-07-13T18:32:51.942Z</time>
      </trkpt>
      <trkpt lat="48.85911" lon="2.37457">
        <ele>98.1</ele>
        <time>2015-07-13T18:32:52.953Z</time>
      </trkpt>
      <trkpt lat="48.85914" lon="2.37464">
        <ele>98.1</ele>
        <time>2015-07-13T18:32:53.964Z</time>
      </trkpt>
      <trkpt lat="48.85916" lon="2.37473">
        <ele>98.1</ele>
        <time>2015-07-13T18:32:54.866Z</time>
      </trkpt>
      <trkpt lat="48.85919" lon="2.37481">
        <ele>98.1</ele>
        <time>2015-07-13T18:32:55.913Z</time>
      </trkpt>
      <trkpt lat="48.85921" lon="2.37489">
        <ele>98.1</ele>
        <time>2015-07-13T18:32:56.889Z</time>
      </trkpt>
      <trkpt lat="48.85925" lon="2.37496">
        <ele>97.6</ele>
        <time>2015-07-13T18:32:57.892Z</time>
      </trkpt>
      <trkpt lat="48.85925" lon="2.37505">
        <ele>97.5</ele>
        <time>2015-07-13T18:32:58.899Z</time>
      </trkpt>
      <trkpt lat="48.85928" lon="2.37512">
        <ele>97.6</ele>
        <time>2015-07-13T18:32:59.953Z</time>
      </trkpt>
      <trkpt lat="48.8593" lon="2.3752">
        <ele>97.7</ele>
        <time>2015-07-13T18:33:00.874Z</time>
      </trkpt>
      <trkpt lat="48.85932" lon="2.37528">
        <ele>97.8</ele>
        <time>2015-07-13T18:33:01.866Z</time>
      </trkpt>
      <trkpt lat="48.85934" lon="2.37536">
        <ele>97.9</ele>
        <time>2015-07-13T18:33:02.910Z</time>
      </trkpt>
      <trkpt lat="48.85936" lon="2.37544">
        <ele>98</ele>
        <time>2015-07-13T18:33:03.914Z</time>
      </trkpt>
      <trkpt lat="48.85938" lon="2.37551">
        <ele>98</ele>
        <time>2015-07-13T18:33:04.926Z</time>
      </trkpt>
      <trkpt lat="48.8594" lon="2.37558">
        <ele>98</ele>
        <time>2015-07-13T18:33:05.945Z</time>
      </trkpt>
      <trkpt lat="48.85942" lon="2.37565">
        <ele>98.2</ele>
        <time>2015-07-13T18:33:06.934Z</time>
      </trkpt>
      <trkpt lat="48.85945" lon="2.37572">
        <ele>98.2</ele>
        <time>2015-07-13T18:33:07.859Z</time>
      </trkpt>
      <trkpt lat="48.85947" lon="2.37578">
        <ele>98.1</ele>
        <time>2015-07-13T18:33:08.871Z</time>
      </trkpt>
      <trkpt lat="48.8595" lon="2.37585">
        <ele>98.4</ele>
        <time>2015-07-13T18:33:09.876Z</time>
      </trkpt>
      <trkpt lat="48.85952" lon="2.37592">
        <ele>98.3</ele>
        <time>2015-07-13T18:33:10.887Z</time>
      </trkpt>
      <trkpt lat="48.85954" lon="2.37599">
        <ele>98.4</ele>
        <time>2015-07-13T18:33:11.906Z</time>
      </trkpt>
      <trkpt lat="48.85956" lon="2.37606">
        <ele>98.4</ele>
        <time>2015-07-13T18:33:12.921Z</time>
      </trkpt>
      <trkpt lat="48.85959" lon="2.37613">
        <ele>98.7</ele>
        <time>2015-07-13T18:33:13.935Z</time>
      </trkpt>
      <trkpt lat="48.85961" lon="2.3762">
        <ele>99.2</ele>
        <time>2015-07-13T18:33:14.948Z</time>
      </trkpt>
      <trkpt lat="48.85964" lon="2.37626">
        <ele>99.5</ele>
        <time>2015-07-13T18:33:15.960Z</time>
      </trkpt>
      <trkpt lat="48.85966" lon="2.37633">
        <ele>99.5</ele>
        <time>2015-07-13T18:33:16.886Z</time>
      </trkpt>
      <trkpt lat="48.85968" lon="2.3764">
        <ele>99.6</ele>
        <time>2015-07-13T18:33:17.922Z</time>
      </trkpt>
      <trkpt lat="48.85969" lon="2.37653">
        <ele>99.7</ele>
        <time>2015-07-13T18:33:19.932Z</time>
      </trkpt>
      <trkpt lat="48.8597" lon="2.37659">
        <ele>99.8</ele>
        <time>2015-07-13T18:33:20.963Z</time>
      </trkpt>
      <trkpt lat="48.85973" lon="2.37669">
        <ele>99.8</ele>
        <time>2015-07-13T18:33:22.877Z</time>
      </trkpt>
      <trkpt lat="48.85974" lon="2.37672">
        <ele>99.8</ele>
        <time>2015-07-13T18:33:23.953Z</time>
      </trkpt>
      <trkpt lat="48.8598" lon="2.37674">
        <ele>101.1</ele>
        <time>2015-07-13T18:33:29.975Z</time>
      </trkpt>
      <trkpt lat="48.8598" lon="2.37674">
        <ele>101.3</ele>
        <time>2015-07-13T18:33:30.909Z</time>
      </trkpt>
      <trkpt lat="48.8598" lon="2.37674">
        <ele>101.3</ele>
        <time>2015-07-13T18:33:31.941Z</time>
      </trkpt>
      <trkpt lat="48.85981" lon="2.37675">
        <ele>101.5</ele>
        <time>2015-07-13T18:33:32.954Z</time>
      </trkpt>
      <trkpt lat="48.85985" lon="2.37684">
        <ele>100.9</ele>
        <time>2015-07-13T18:33:35.946Z</time>
      </trkpt>
      <trkpt lat="48.85986" lon="2.37689">
        <ele>101.1</ele>
        <time>2015-07-13T18:33:36.846Z</time>
      </trkpt>
      <trkpt lat="48.85989" lon="2.377">
        <ele>100.9</ele>
        <time>2015-07-13T18:33:38.890Z</time>
      </trkpt>
      <trkpt lat="48.8599" lon="2.37704">
        <ele>100.8</ele>
        <time>2015-07-13T18:33:39.902Z</time>
      </trkpt>
      <trkpt lat="48.85993" lon="2.37716">
        <ele>100.3</ele>
        <time>2015-07-13T18:33:41.959Z</time>
      </trkpt>
      <trkpt lat="48.85995" lon="2.37723">
        <ele>100.3</ele>
        <time>2015-07-13T18:33:42.878Z</time>
      </trkpt>
      <trkpt lat="48.85996" lon="2.3773">
        <ele>100.3</ele>
        <time>2015-07-13T18:33:43.923Z</time>
      </trkpt>
      <trkpt lat="48.85998" lon="2.37736">
        <ele>100.3</ele>
        <time>2015-07-13T18:33:44.930Z</time>
      </trkpt>
      <trkpt lat="48.86" lon="2.37744">
        <ele>100.2</ele>
        <time>2015-07-13T18:33:45.940Z</time>
      </trkpt>
      <trkpt lat="48.86001" lon="2.37751">
        <ele>100.2</ele>
        <time>2015-07-13T18:33:46.957Z</time>
      </trkpt>
      <trkpt lat="48.86005" lon="2.37757">
        <ele>100.6</ele>
        <time>2015-07-13T18:33:47.973Z</time>
      </trkpt>
      <trkpt lat="48.86009" lon="2.37765">
        <ele>100.8</ele>
        <time>2015-07-13T18:33:48.875Z</time>
      </trkpt>
      <trkpt lat="48.86015" lon="2.37771">
        <ele>101.4</ele>
        <time>2015-07-13T18:33:49.878Z</time>
      </trkpt>
      <trkpt lat="48.86018" lon="2.37779">
        <ele>101.4</ele>
        <time>2015-07-13T18:33:50.891Z</time>
      </trkpt>
      <trkpt lat="48.86021" lon="2.37787">
        <ele>101.5</ele>
        <time>2015-07-13T18:33:51.907Z</time>
      </trkpt>
      <trkpt lat="48.86024" lon="2.37795">
        <ele>101.5</ele>
        <time>2015-07-13T18:33:52.920Z</time>
      </trkpt>
      <trkpt lat="48.86027" lon="2.37802">
        <ele>101.3</ele>
        <time>2015-07-13T18:33:53.930Z</time>
      </trkpt>
      <trkpt lat="48.8603" lon="2.3781">
        <ele>101.4</ele>
        <time>2015-07-13T18:33:54.936Z</time>
      </trkpt>
      <trkpt lat="48.86031" lon="2.37817">
        <ele>101.2</ele>
        <time>2015-07-13T18:33:55.951Z</time>
      </trkpt>
      <trkpt lat="48.86033" lon="2.37824">
        <ele>101.2</ele>
        <time>2015-07-13T18:33:56.957Z</time>
      </trkpt>
      <trkpt lat="48.86035" lon="2.37837">
        <ele>101</ele>
        <time>2015-07-13T18:33:58.858Z</time>
      </trkpt>
      <trkpt lat="48.86036" lon="2.37842">
        <ele>101</ele>
        <time>2015-07-13T18:34:00.188Z</time>
      </trkpt>
      <trkpt lat="48.86039" lon="2.37853">
        <ele>101.5</ele>
        <time>2015-07-13T18:34:02.902Z</time>
      </trkpt>
      <trkpt lat="48.86039" lon="2.37855">
        <ele>101.5</ele>
        <time>2015-07-13T18:34:03.909Z</time>
      </trkpt>
      <trkpt lat="48.8604" lon="2.37857">
        <ele>102.4</ele>
        <time>2015-07-13T18:34:13.878Z</time>
      </trkpt>
      <trkpt lat="48.8604" lon="2.37857">
        <ele>102.6</ele>
        <time>2015-07-13T18:34:14.892Z</time>
      </trkpt>
      <trkpt lat="48.8604" lon="2.37858">
        <ele>102.7</ele>
        <time>2015-07-13T18:34:16.935Z</time>
      </trkpt>
      <trkpt lat="48.86039" lon="2.37862">
        <ele>103.3</ele>
        <time>2015-07-13T18:34:17.929Z</time>
      </trkpt>
      <trkpt lat="48.86042" lon="2.37874">
        <ele>103.4</ele>
        <time>2015-07-13T18:34:21.938Z</time>
      </trkpt>
      <trkpt lat="48.86043" lon="2.37877">
        <ele>103.6</ele>
        <time>2015-07-13T18:34:22.900Z</time>
      </trkpt>
      <trkpt lat="48.86045" lon="2.37888">
        <ele>103.7</ele>
        <time>2015-07-13T18:34:25.939Z</time>
      </trkpt>
      <trkpt lat="48.86046" lon="2.37891">
        <ele>103.8</ele>
        <time>2015-07-13T18:34:26.880Z</time>
      </trkpt>
      <trkpt lat="48.86049" lon="2.37901">
        <ele>104</ele>
        <time>2015-07-13T18:34:29.980Z</time>
      </trkpt>
      <trkpt lat="48.8605" lon="2.37905">
        <ele>104</ele>
        <time>2015-07-13T18:34:31.018Z</time>
      </trkpt>
      <trkpt lat="48.86054" lon="2.37914">
        <ele>104.2</ele>
        <time>2015-07-13T18:34:32.872Z</time>
      </trkpt>
      <trkpt lat="48.86055" lon="2.37919">
        <ele>104.2</ele>
        <time>2015-07-13T18:34:33.902Z</time>
      </trkpt>
      <trkpt lat="48.86059" lon="2.37928">
        <ele>103.9</ele>
        <time>2015-07-13T18:34:35.966Z</time>
      </trkpt>
      <trkpt lat="48.8606" lon="2.37933">
        <ele>103.8</ele>
        <time>2015-07-13T18:34:36.893Z</time>
      </trkpt>
      <trkpt lat="48.86064" lon="2.37943">
        <ele>103.6</ele>
        <time>2015-07-13T18:34:38.903Z</time>
      </trkpt>
      <trkpt lat="48.86066" lon="2.37948">
        <ele>103.6</ele>
        <time>2015-07-13T18:34:39.935Z</time>
      </trkpt>
      <trkpt lat="48.86069" lon="2.37958">
        <ele>103.8</ele>
        <time>2015-07-13T18:34:41.913Z</time>
      </trkpt>
      <trkpt lat="48.8607" lon="2.37964">
        <ele>103.7</ele>
        <time>2015-07-13T18:34:42.918Z</time>
      </trkpt>
      <trkpt lat="48.86074" lon="2.37976">
        <ele>103.7</ele>
        <time>2015-07-13T18:34:44.987Z</time>
      </trkpt>
      <trkpt lat="48.86075" lon="2.37982">
        <ele>103.7</ele>
        <time>2015-07-13T18:34:46.071Z</time>
      </trkpt>
      <trkpt lat="48.86079" lon="2.37992">
        <ele>103.7</ele>
        <time>2015-07-13T18:34:47.953Z</time>
      </trkpt>
      <trkpt lat="48.8608" lon="2.37997">
        <ele>103.7</ele>
        <time>2015-07-13T18:34:48.980Z</time>
      </trkpt>
      <trkpt lat="48.86083" lon="2.38006">
        <ele>103.6</ele>
        <time>2015-07-13T18:34:50.938Z</time>
      </trkpt>
      <trkpt lat="48.86084" lon="2.3801">
        <ele>103.6</ele>
        <time>2015-07-13T18:34:51.938Z</time>
      </trkpt>
      <trkpt lat="48.86088" lon="2.38017">
        <ele>103.6</ele>
        <time>2015-07-13T18:34:52.338Z</time>
      </trkpt>
      <trkpt lat="48.86089" lon="2.38021">
        <ele>103.5</ele>
        <time>2015-07-13T18:34:54.916Z</time>
      </trkpt>
      <trkpt lat="48.86093" lon="2.38032">
        <ele>103.4</ele>
        <time>2015-07-13T18:34:57.884Z</time>
      </trkpt>
      <trkpt lat="48.86095" lon="2.38037">
        <ele>103.6</ele>
        <time>2015-07-13T18:34:58.896Z</time>
      </trkpt>
      <trkpt lat="48.861" lon="2.38047">
        <ele>103.9</ele>
        <time>2015-07-13T18:35:00.885Z</time>
      </trkpt>
      <trkpt lat="48.86101" lon="2.38052">
        <ele>103.8</ele>
        <time>2015-07-13T18:35:01.914Z</time>
      </trkpt>
      <trkpt lat="48.86107" lon="2.38062">
        <ele>102.1</ele>
        <time>2015-07-13T18:35:03.881Z</time>
      </trkpt>
      <trkpt lat="48.86109" lon="2.38068">
        <ele>101.9</ele>
        <time>2015-07-13T18:35:04.885Z</time>
      </trkpt>
      <trkpt lat="48.86112" lon="2.38079">
        <ele>101.8</ele>
        <time>2015-07-13T18:35:07.571Z</time>
      </trkpt>
      <trkpt lat="48.86113" lon="2.38085">
        <ele>101.9</ele>
        <time>2015-07-13T18:35:07.869Z</time>
      </trkpt>
      <trkpt lat="48.86116" lon="2.38096">
        <ele>102</ele>
        <time>2015-07-13T18:35:09.874Z</time>
      </trkpt>
      <trkpt lat="48.86118" lon="2.38101">
        <ele>101.9</ele>
        <time>2015-07-13T18:35:10.874Z</time>
      </trkpt>
      <trkpt lat="48.86121" lon="2.38112">
        <ele>102.1</ele>
        <time>2015-07-13T18:35:12.891Z</time>
      </trkpt>
      <trkpt lat="48.86121" lon="2.38118">
        <ele>102.8</ele>
        <time>2015-07-13T18:35:13.909Z</time>
      </trkpt>
      <trkpt lat="48.86122" lon="2.38127">
        <ele>103.3</ele>
        <time>2015-07-13T18:35:15.925Z</time>
      </trkpt>
      <trkpt lat="48.86123" lon="2.38131">
        <ele>103.3</ele>
        <time>2015-07-13T18:35:16.986Z</time>
      </trkpt>
      <trkpt lat="48.86125" lon="2.38143">
        <ele>103.2</ele>
        <time>2015-07-13T18:35:18.887Z</time>
      </trkpt>
      <trkpt lat="48.86127" lon="2.3815">
        <ele>103.2</ele>
        <time>2015-07-13T18:35:19.893Z</time>
      </trkpt>
      <trkpt lat="48.86129" lon="2.38158">
        <ele>103</ele>
        <time>2015-07-13T18:35:20.908Z</time>
      </trkpt>
      <trkpt lat="48.86132" lon="2.38165">
        <ele>102.8</ele>
        <time>2015-07-13T18:35:22.099Z</time>
      </trkpt>
      <trkpt lat="48.86133" lon="2.38173">
        <ele>102.6</ele>
        <time>2015-07-13T18:35:23.436Z</time>
      </trkpt>
      <trkpt lat="48.86134" lon="2.38182">
        <ele>102.5</ele>
        <time>2015-07-13T18:35:23.939Z</time>
      </trkpt>
      <trkpt lat="48.86136" lon="2.3819">
        <ele>102.4</ele>
        <time>2015-07-13T18:35:24.889Z</time>
      </trkpt>
      <trkpt lat="48.86138" lon="2.38196">
        <ele>102.4</ele>
        <time>2015-07-13T18:35:25.872Z</time>
      </trkpt>
      <trkpt lat="48.86143" lon="2.38206">
        <ele>102.4</ele>
        <time>2015-07-13T18:35:27.904Z</time>
      </trkpt>
      <trkpt lat="48.86146" lon="2.38212">
        <ele>102.7</ele>
        <time>2015-07-13T18:35:28.919Z</time>
      </trkpt>
      <trkpt lat="48.86148" lon="2.38218">
        <ele>102.7</ele>
        <time>2015-07-13T18:35:28.548Z</time>
      </trkpt>
      <trkpt lat="48.8615" lon="2.38224">
        <ele>102.6</ele>
        <time>2015-07-13T18:35:30.863Z</time>
      </trkpt>
      <trkpt lat="48.86153" lon="2.38231">
        <ele>102.6</ele>
        <time>2015-07-13T18:35:31.905Z</time>
      </trkpt>
      <trkpt lat="48.86154" lon="2.38237">
        <ele>102.5</ele>
        <time>2015-07-13T18:35:32.913Z</time>
      </trkpt>
      <trkpt lat="48.86156" lon="2.38243">
        <ele>102.6</ele>
        <time>2015-07-13T18:35:33.936Z</time>
      </trkpt>
      <trkpt lat="48.86157" lon="2.3825">
        <ele>102.6</ele>
        <time>2015-07-13T18:35:34.938Z</time>
      </trkpt>
      <trkpt lat="48.86159" lon="2.38257">
        <ele>103.2</ele>
        <time>2015-07-13T18:35:35.944Z</time>
      </trkpt>
      <trkpt lat="48.86162" lon="2.38263">
        <ele>103.8</ele>
        <time>2015-07-13T18:35:36.947Z</time>
      </trkpt>
      <trkpt lat="48.86165" lon="2.38275">
        <ele>104.3</ele>
        <time>2015-07-13T18:35:38.888Z</time>
      </trkpt>
      <trkpt lat="48.86167" lon="2.38282">
        <ele>104.7</ele>
        <time>2015-07-13T18:35:39.908Z</time>
      </trkpt>
      <trkpt lat="48.8617" lon="2.38289">
        <ele>104.8</ele>
        <time>2015-07-13T18:35:40.924Z</time>
      </trkpt>
      <trkpt lat="48.86172" lon="2.38296">
        <ele>104.7</ele>
        <time>2015-07-13T18:35:41.951Z</time>
      </trkpt>
      <trkpt lat="48.86174" lon="2.38304">
        <ele>104.8</ele>
        <time>2015-07-13T18:35:42.840Z</time>
      </trkpt>
      <trkpt lat="48.86176" lon="2.38313">
        <ele>104.8</ele>
        <time>2015-07-13T18:35:43.964Z</time>
      </trkpt>
      <trkpt lat="48.86179" lon="2.38321">
        <ele>104.7</ele>
        <time>2015-07-13T18:35:44.956Z</time>
      </trkpt>
      <trkpt lat="48.86181" lon="2.3833">
        <ele>105.1</ele>
        <time>2015-07-13T18:35:45.875Z</time>
      </trkpt>
      <trkpt lat="48.86183" lon="2.38338">
        <ele>105.1</ele>
        <time>2015-07-13T18:35:46.890Z</time>
      </trkpt>
      <trkpt lat="48.86186" lon="2.38347">
        <ele>105</ele>
        <time>2015-07-13T18:35:47.916Z</time>
      </trkpt>
      <trkpt lat="48.86189" lon="2.38354">
        <ele>104.3</ele>
        <time>2015-07-13T18:35:48.922Z</time>
      </trkpt>
      <trkpt lat="48.86191" lon="2.38363">
        <ele>104.1</ele>
        <time>2015-07-13T18:35:49.926Z</time>
      </trkpt>
      <trkpt lat="48.86193" lon="2.38372">
        <ele>103.8</ele>
        <time>2015-07-13T18:35:50.941Z</time>
      </trkpt>
      <trkpt lat="48.86196" lon="2.38379">
        <ele>103.7</ele>
        <time>2015-07-13T18:35:51.954Z</time>
      </trkpt>
      <trkpt lat="48.86199" lon="2.38386">
        <ele>103.4</ele>
        <time>2015-07-13T18:35:52.880Z</time>
      </trkpt>
      <trkpt lat="48.86202" lon="2.38392">
        <ele>103.3</ele>
        <time>2015-07-13T18:35:53.922Z</time>
      </trkpt>
      <trkpt lat="48.86207" lon="2.38398">
        <ele>103.4</ele>
        <time>2015-07-13T18:35:54.858Z</time>
      </trkpt>
      <trkpt lat="48.86209" lon="2.38405">
        <ele>103.3</ele>
        <time>2015-07-13T18:35:55.871Z</time>
      </trkpt>
      <trkpt lat="48.86211" lon="2.38412">
        <ele>103.5</ele>
        <time>2015-07-13T18:35:56.899Z</time>
      </trkpt>
      <trkpt lat="48.86212" lon="2.38419">
        <ele>103.5</ele>
        <time>2015-07-13T18:35:57.902Z</time>
      </trkpt>
      <trkpt lat="48.86215" lon="2.38425">
        <ele>103.2</ele>
        <time>2015-07-13T18:35:58.939Z</time>
      </trkpt>
      <trkpt lat="48.86217" lon="2.38431">
        <ele>103.3</ele>
        <time>2015-07-13T18:35:59.951Z</time>
      </trkpt>
      <trkpt lat="48.8622" lon="2.38443">
        <ele>103.6</ele>
        <time>2015-07-13T18:36:01.864Z</time>
      </trkpt>
      <trkpt lat="48.86221" lon="2.38449">
        <ele>103.8</ele>
        <time>2015-07-13T18:36:02.877Z</time>
      </trkpt>
      <trkpt lat="48.86223" lon="2.38457">
        <ele>103.9</ele>
        <time>2015-07-13T18:36:03.899Z</time>
      </trkpt>
      <trkpt lat="48.86225" lon="2.38464">
        <ele>104.2</ele>
        <time>2015-07-13T18:36:04.912Z</time>
      </trkpt>
      <trkpt lat="48.86227" lon="2.3847">
        <ele>104.6</ele>
        <time>2015-07-13T18:36:05.928Z</time>
      </trkpt>
      <trkpt lat="48.86228" lon="2.38477">
        <ele>104.9</ele>
        <time>2015-07-13T18:36:06.935Z</time>
      </trkpt>
      <trkpt lat="48.86229" lon="2.38484">
        <ele>105</ele>
        <time>2015-07-13T18:36:07.856Z</time>
      </trkpt>
      <trkpt lat="48.86231" lon="2.38491">
        <ele>105</ele>
        <time>2015-07-13T18:36:08.858Z</time>
      </trkpt>
      <trkpt lat="48.86232" lon="2.38498">
        <ele>104.8</ele>
        <time>2015-07-13T18:36:09.859Z</time>
      </trkpt>
      <trkpt lat="48.86233" lon="2.38505">
        <ele>104.7</ele>
        <time>2015-07-13T18:36:10.888Z</time>
      </trkpt>
      <trkpt lat="48.86236" lon="2.38516">
        <ele>104.7</ele>
        <time>2015-07-13T18:36:12.930Z</time>
      </trkpt>
      <trkpt lat="48.86237" lon="2.3852">
        <ele>104.7</ele>
        <time>2015-07-13T18:36:13.901Z</time>
      </trkpt>
      <trkpt lat="48.86239" lon="2.3853">
        <ele>105.3</ele>
        <time>2015-07-13T18:36:15.859Z</time>
      </trkpt>
      <trkpt lat="48.86242" lon="2.38534">
        <ele>105.9</ele>
        <time>2015-07-13T18:36:16.907Z</time>
      </trkpt>
      <trkpt lat="48.86246" lon="2.38545">
        <ele>106.6</ele>
        <time>2015-07-13T18:36:18.950Z</time>
      </trkpt>
      <trkpt lat="48.86247" lon="2.38552">
        <ele>106.8</ele>
        <time>2015-07-13T18:36:19.900Z</time>
      </trkpt>
      <trkpt lat="48.86248" lon="2.38558">
        <ele>107.3</ele>
        <time>2015-07-13T18:36:20.875Z</time>
      </trkpt>
      <trkpt lat="48.8625" lon="2.38565">
        <ele>107.3</ele>
        <time>2015-07-13T18:36:21.882Z</time>
      </trkpt>
      <trkpt lat="48.86252" lon="2.38578">
        <ele>107.4</ele>
        <time>2015-07-13T18:36:23.917Z</time>
      </trkpt>
      <trkpt lat="48.86253" lon="2.38583">
        <ele>107.5</ele>
        <time>2015-07-13T18:36:24.930Z</time>
      </trkpt>
      <trkpt lat="48.86256" lon="2.38594">
        <ele>107.6</ele>
        <time>2015-07-13T18:36:26.874Z</time>
      </trkpt>
      <trkpt lat="48.86257" lon="2.386">
        <ele>107.8</ele>
        <time>2015-07-13T18:36:27.898Z</time>
      </trkpt>
      <trkpt lat="48.86259" lon="2.38606">
        <ele>108.5</ele>
        <time>2015-07-13T18:36:28.879Z</time>
      </trkpt>
      <trkpt lat="48.8626" lon="2.38614">
        <ele>108.6</ele>
        <time>2015-07-13T18:36:29.951Z</time>
      </trkpt>
      <trkpt lat="48.86263" lon="2.38621">
        <ele>108.8</ele>
        <time>2015-07-13T18:36:30.866Z</time>
      </trkpt>
      <trkpt lat="48.86265" lon="2.38628">
        <ele>109.2</ele>
        <time>2015-07-13T18:36:31.870Z</time>
      </trkpt>
      <trkpt lat="48.86268" lon="2.38634">
        <ele>109.4</ele>
        <time>2015-07-13T18:36:32.871Z</time>
      </trkpt>
      <trkpt lat="48.86272" lon="2.38639">
        <ele>109.6</ele>
        <time>2015-07-13T18:36:33.878Z</time>
      </trkpt>
      <trkpt lat="48.86274" lon="2.38645">
        <ele>109.6</ele>
        <time>2015-07-13T18:36:34.895Z</time>
      </trkpt>
      <trkpt lat="48.86277" lon="2.38651">
        <ele>109.9</ele>
        <time>2015-07-13T18:36:35.908Z</time>
      </trkpt>
      <trkpt lat="48.8628" lon="2.38663">
        <ele>111</ele>
        <time>2015-07-13T18:36:37.930Z</time>
      </trkpt>
      <trkpt lat="48.86283" lon="2.3867">
        <ele>111.8</ele>
        <time>2015-07-13T18:36:38.962Z</time>
      </trkpt>
      <trkpt lat="48.86285" lon="2.38676">
        <ele>112.9</ele>
        <time>2015-07-13T18:36:39.898Z</time>
      </trkpt>
      <trkpt lat="48.86286" lon="2.38682">
        <ele>113.4</ele>
        <time>2015-07-13T18:36:40.914Z</time>
      </trkpt>
      <trkpt lat="48.86289" lon="2.38695">
        <ele>113.9</ele>
        <time>2015-07-13T18:36:42.863Z</time>
      </trkpt>
      <trkpt lat="48.8629" lon="2.387">
        <ele>114.1</ele>
        <time>2015-07-13T18:36:43.985Z</time>
      </trkpt>
      <trkpt lat="48.86292" lon="2.3871">
        <ele>114.7</ele>
        <time>2015-07-13T18:36:45.878Z</time>
      </trkpt>
      <trkpt lat="48.86294" lon="2.38714">
        <ele>115.4</ele>
        <time>2015-07-13T18:36:46.906Z</time>
      </trkpt>
      <trkpt lat="48.8629" lon="2.38722">
        <ele>115</ele>
        <time>2015-07-13T18:36:48.872Z</time>
      </trkpt>
      <trkpt lat="48.86288" lon="2.38725">
        <ele>115</ele>
        <time>2015-07-13T18:36:49.964Z</time>
      </trkpt>
      <trkpt lat="48.86285" lon="2.3873">
        <ele>115.2</ele>
        <time>2015-07-13T18:36:53.965Z</time>
      </trkpt>
      <trkpt lat="48.86286" lon="2.3873">
        <ele>115.2</ele>
        <time>2015-07-13T18:36:54.915Z</time>
      </trkpt>
      <trkpt lat="48.86286" lon="2.3873">
        <ele>115.3</ele>
        <time>2015-07-13T18:36:55.880Z</time>
      </trkpt>
      <trkpt lat="48.86286" lon="2.38729">
        <ele>115.4</ele>
        <time>2015-07-13T18:36:56.888Z</time>
      </trkpt>
      <trkpt lat="48.86287" lon="2.3873">
        <ele>115.5</ele>
        <time>2015-07-13T18:36:57.890Z</time>
      </trkpt>
      <trkpt lat="48.86287" lon="2.38729">
        <ele>115.7</ele>
        <time>2015-07-13T18:36:58.917Z</time>
      </trkpt>
      <trkpt lat="48.86288" lon="2.38729">
        <ele>115.7</ele>
        <time>2015-07-13T18:37:05.963Z</time>
      </trkpt>
      <trkpt lat="48.86288" lon="2.38727">
        <ele>116.2</ele>
        <time>2015-07-13T18:37:06.875Z</time>
      </trkpt>
      <trkpt lat="48.86288" lon="2.38738">
        <ele>116.1</ele>
        <time>2015-07-13T18:37:25.939Z</time>
      </trkpt>
      <trkpt lat="48.86288" lon="2.38742">
        <ele>116.1</ele>
        <time>2015-07-13T18:37:27.001Z</time>
      </trkpt>
      <trkpt lat="48.86289" lon="2.38756">
        <ele>115.9</ele>
        <time>2015-07-13T18:37:29.994Z</time>
      </trkpt>
      <trkpt lat="48.8629" lon="2.38761">
        <ele>115.8</ele>
        <time>2015-07-13T18:37:30.977Z</time>
      </trkpt>
      <trkpt lat="48.86293" lon="2.38769">
        <ele>115.4</ele>
        <time>2015-07-13T18:37:32.877Z</time>
      </trkpt>
      <trkpt lat="48.86295" lon="2.38773">
        <ele>115.5</ele>
        <time>2015-07-13T18:37:33.888Z</time>
      </trkpt>
      <trkpt lat="48.86298" lon="2.38782">
        <ele>115.5</ele>
        <time>2015-07-13T18:37:35.946Z</time>
      </trkpt>
      <trkpt lat="48.86301" lon="2.38788">
        <ele>115.7</ele>
        <time>2015-07-13T18:37:36.955Z</time>
      </trkpt>
      <trkpt lat="48.86305" lon="2.38799">
        <ele>115.8</ele>
        <time>2015-07-13T18:37:39.114Z</time>
      </trkpt>
      <trkpt lat="48.86307" lon="2.38804">
        <ele>115.8</ele>
        <time>2015-07-13T18:37:39.879Z</time>
      </trkpt>
      <trkpt lat="48.8631" lon="2.38816">
        <ele>116</ele>
        <time>2015-07-13T18:37:41.981Z</time>
      </trkpt>
      <trkpt lat="48.86311" lon="2.38823">
        <ele>116.2</ele>
        <time>2015-07-13T18:37:42.873Z</time>
      </trkpt>
      <trkpt lat="48.86312" lon="2.3883">
        <ele>116.4</ele>
        <time>2015-07-13T18:37:43.989Z</time>
      </trkpt>
      <trkpt lat="48.86314" lon="2.38837">
        <ele>116.6</ele>
        <time>2015-07-13T18:37:44.878Z</time>
      </trkpt>
      <trkpt lat="48.86315" lon="2.38846">
        <ele>116.8</ele>
        <time>2015-07-13T18:37:46.582Z</time>
      </trkpt>
      <trkpt lat="48.86317" lon="2.38854">
        <ele>116.9</ele>
        <time>2015-07-13T18:37:46.876Z</time>
      </trkpt>
      <trkpt lat="48.86318" lon="2.38863">
        <ele>117.1</ele>
        <time>2015-07-13T18:37:47.922Z</time>
      </trkpt>
      <trkpt lat="48.86321" lon="2.38873">
        <ele>117.6</ele>
        <time>2015-07-13T18:37:48.979Z</time>
      </trkpt>
      <trkpt lat="48.86326" lon="2.38881">
        <ele>118.1</ele>
        <time>2015-07-13T18:37:49.888Z</time>
      </trkpt>
      <trkpt lat="48.86328" lon="2.3889">
        <ele>118.5</ele>
        <time>2015-07-13T18:37:50.878Z</time>
      </trkpt>
      <trkpt lat="48.8633" lon="2.389">
        <ele>118.7</ele>
        <time>2015-07-13T18:37:51.892Z</time>
      </trkpt>
      <trkpt lat="48.86333" lon="2.3891">
        <ele>119.2</ele>
        <time>2015-07-13T18:37:52.901Z</time>
      </trkpt>
      <trkpt lat="48.86335" lon="2.3892">
        <ele>119.1</ele>
        <time>2015-07-13T18:37:53.914Z</time>
      </trkpt>
      <trkpt lat="48.86339" lon="2.38929">
        <ele>119.4</ele>
        <time>2015-07-13T18:37:54.917Z</time>
      </trkpt>
      <trkpt lat="48.86342" lon="2.38939">
        <ele>119.4</ele>
        <time>2015-07-13T18:37:55.926Z</time>
      </trkpt>
      <trkpt lat="48.86345" lon="2.38948">
        <ele>119.5</ele>
        <time>2015-07-13T18:37:56.931Z</time>
      </trkpt>
      <trkpt lat="48.86348" lon="2.38958">
        <ele>119.5</ele>
        <time>2015-07-13T18:37:57.948Z</time>
      </trkpt>
      <trkpt lat="48.8635" lon="2.38967">
        <ele>119.4</ele>
        <time>2015-07-13T18:37:58.871Z</time>
      </trkpt>
      <trkpt lat="48.86352" lon="2.38976">
        <ele>119.4</ele>
        <time>2015-07-13T18:38:00.004Z</time>
      </trkpt>
      <trkpt lat="48.86355" lon="2.38986">
        <ele>119.4</ele>
        <time>2015-07-13T18:38:00.864Z</time>
      </trkpt>
      <trkpt lat="48.86358" lon="2.38995">
        <ele>119.4</ele>
        <time>2015-07-13T18:38:01.874Z</time>
      </trkpt>
      <trkpt lat="48.8636" lon="2.39004">
        <ele>119.5</ele>
        <time>2015-07-13T18:38:02.896Z</time>
      </trkpt>
      <trkpt lat="48.86363" lon="2.39013">
        <ele>119.7</ele>
        <time>2015-07-13T18:38:03.911Z</time>
      </trkpt>
      <trkpt lat="48.86365" lon="2.39022">
        <ele>119.9</ele>
        <time>2015-07-13T18:38:04.912Z</time>
      </trkpt>
      <trkpt lat="48.86367" lon="2.3903">
        <ele>119.8</ele>
        <time>2015-07-13T18:38:05.932Z</time>
      </trkpt>
      <trkpt lat="48.86369" lon="2.39039">
        <ele>120</ele>
        <time>2015-07-13T18:38:06.934Z</time>
      </trkpt>
      <trkpt lat="48.86371" lon="2.39048">
        <ele>119.8</ele>
        <time>2015-07-13T18:38:07.832Z</time>
      </trkpt>
      <trkpt lat="48.86374" lon="2.39056">
        <ele>119.8</ele>
        <time>2015-07-13T18:38:08.858Z</time>
      </trkpt>
      <trkpt lat="48.86376" lon="2.39065">
        <ele>119.9</ele>
        <time>2015-07-13T18:38:10.074Z</time>
      </trkpt>
      <trkpt lat="48.86378" lon="2.39073">
        <ele>120</ele>
        <time>2015-07-13T18:38:10.931Z</time>
      </trkpt>
      <trkpt lat="48.86379" lon="2.39082">
        <ele>120</ele>
        <time>2015-07-13T18:38:11.959Z</time>
      </trkpt>
      <trkpt lat="48.86381" lon="2.3909">
        <ele>120.2</ele>
        <time>2015-07-13T18:38:12.867Z</time>
      </trkpt>
      <trkpt lat="48.86384" lon="2.39098">
        <ele>120.3</ele>
        <time>2015-07-13T18:38:13.866Z</time>
      </trkpt>
      <trkpt lat="48.86385" lon="2.39106">
        <ele>120.3</ele>
        <time>2015-07-13T18:38:14.875Z</time>
      </trkpt>
      <trkpt lat="48.86386" lon="2.39114">
        <ele>120.3</ele>
        <time>2015-07-13T18:38:15.886Z</time>
      </trkpt>
      <trkpt lat="48.86387" lon="2.39121">
        <ele>120.4</ele>
        <time>2015-07-13T18:38:16.902Z</time>
      </trkpt>
      <trkpt lat="48.86388" lon="2.39128">
        <ele>120.4</ele>
        <time>2015-07-13T18:38:17.934Z</time>
      </trkpt>
      <trkpt lat="48.86389" lon="2.39135">
        <ele>120.4</ele>
        <time>2015-07-13T18:38:18.939Z</time>
      </trkpt>
      <trkpt lat="48.86391" lon="2.39143">
        <ele>120.4</ele>
        <time>2015-07-13T18:38:19.871Z</time>
      </trkpt>
      <trkpt lat="48.86394" lon="2.3915">
        <ele>120.5</ele>
        <time>2015-07-13T18:38:20.864Z</time>
      </trkpt>
      <trkpt lat="48.86396" lon="2.39157">
        <ele>120.5</ele>
        <time>2015-07-13T18:38:21.874Z</time>
      </trkpt>
      <trkpt lat="48.86399" lon="2.39164">
        <ele>120.6</ele>
        <time>2015-07-13T18:38:22.888Z</time>
      </trkpt>
      <trkpt lat="48.864" lon="2.39172">
        <ele>120.8</ele>
        <time>2015-07-13T18:38:23.910Z</time>
      </trkpt>
      <trkpt lat="48.86402" lon="2.39179">
        <ele>120.8</ele>
        <time>2015-07-13T18:38:24.913Z</time>
      </trkpt>
      <trkpt lat="48.86404" lon="2.39185">
        <ele>120.9</ele>
        <time>2015-07-13T18:38:25.937Z</time>
      </trkpt>
      <trkpt lat="48.86406" lon="2.39192">
        <ele>120.9</ele>
        <time>2015-07-13T18:38:26.937Z</time>
      </trkpt>
      <trkpt lat="48.86408" lon="2.39199">
        <ele>121.1</ele>
        <time>2015-07-13T18:38:27.870Z</time>
      </trkpt>
      <trkpt lat="48.86409" lon="2.39206">
        <ele>121.1</ele>
        <time>2015-07-13T18:38:28.875Z</time>
      </trkpt>
      <trkpt lat="48.86411" lon="2.39213">
        <ele>121.2</ele>
        <time>2015-07-13T18:38:29.932Z</time>
      </trkpt>
      <trkpt lat="48.86413" lon="2.3922">
        <ele>121.5</ele>
        <time>2015-07-13T18:38:30.852Z</time>
      </trkpt>
      <trkpt lat="48.86414" lon="2.39227">
        <ele>121.8</ele>
        <time>2015-07-13T18:38:31.856Z</time>
      </trkpt>
      <trkpt lat="48.86416" lon="2.39234">
        <ele>121.8</ele>
        <time>2015-07-13T18:38:32.871Z</time>
      </trkpt>
      <trkpt lat="48.86419" lon="2.39241">
        <ele>122</ele>
        <time>2015-07-13T18:38:33.865Z</time>
      </trkpt>
      <trkpt lat="48.8642" lon="2.39248">
        <ele>121.9</ele>
        <time>2015-07-13T18:38:34.882Z</time>
      </trkpt>
      <trkpt lat="48.86422" lon="2.39255">
        <ele>121.9</ele>
        <time>2015-07-13T18:38:35.905Z</time>
      </trkpt>
      <trkpt lat="48.86424" lon="2.39262">
        <ele>122.2</ele>
        <time>2015-07-13T18:38:36.910Z</time>
      </trkpt>
      <trkpt lat="48.86426" lon="2.39268">
        <ele>122.3</ele>
        <time>2015-07-13T18:38:37.857Z</time>
      </trkpt>
      <trkpt lat="48.86427" lon="2.39275">
        <ele>122.3</ele>
        <time>2015-07-13T18:38:38.854Z</time>
      </trkpt>
      <trkpt lat="48.86429" lon="2.39281">
        <ele>122.3</ele>
        <time>2015-07-13T18:38:39.878Z</time>
      </trkpt>
      <trkpt lat="48.86431" lon="2.39288">
        <ele>122.3</ele>
        <time>2015-07-13T18:38:40.893Z</time>
      </trkpt>
      <trkpt lat="48.86433" lon="2.39295">
        <ele>122.4</ele>
        <time>2015-07-13T18:38:41.900Z</time>
      </trkpt>
      <trkpt lat="48.86435" lon="2.39303">
        <ele>122.5</ele>
        <time>2015-07-13T18:38:42.918Z</time>
      </trkpt>
      <trkpt lat="48.86437" lon="2.3931">
        <ele>122.6</ele>
        <time>2015-07-13T18:38:43.856Z</time>
      </trkpt>
      <trkpt lat="48.86439" lon="2.39317">
        <ele>122.7</ele>
        <time>2015-07-13T18:38:44.866Z</time>
      </trkpt>
      <trkpt lat="48.86439" lon="2.39324">
        <ele>122.9</ele>
        <time>2015-07-13T18:38:45.861Z</time>
      </trkpt>
      <trkpt lat="48.86441" lon="2.39331">
        <ele>123.1</ele>
        <time>2015-07-13T18:38:46.858Z</time>
      </trkpt>
      <trkpt lat="48.86442" lon="2.39338">
        <ele>123.3</ele>
        <time>2015-07-13T18:38:47.889Z</time>
      </trkpt>
      <trkpt lat="48.86443" lon="2.39345">
        <ele>123.4</ele>
        <time>2015-07-13T18:38:48.901Z</time>
      </trkpt>
      <trkpt lat="48.86444" lon="2.39353">
        <ele>123.5</ele>
        <time>2015-07-13T18:38:49.901Z</time>
      </trkpt>
      <trkpt lat="48.86445" lon="2.3936">
        <ele>123.8</ele>
        <time>2015-07-13T18:38:50.914Z</time>
      </trkpt>
      <trkpt lat="48.86448" lon="2.39366">
        <ele>124</ele>
        <time>2015-07-13T18:38:51.850Z</time>
      </trkpt>
      <trkpt lat="48.8645" lon="2.39372">
        <ele>124.1</ele>
        <time>2015-07-13T18:38:52.857Z</time>
      </trkpt>
      <trkpt lat="48.86453" lon="2.39378">
        <ele>124.1</ele>
        <time>2015-07-13T18:38:53.913Z</time>
      </trkpt>
      <trkpt lat="48.86456" lon="2.39385">
        <ele>124.1</ele>
        <time>2015-07-13T18:38:54.912Z</time>
      </trkpt>
      <trkpt lat="48.86458" lon="2.39392">
        <ele>124.2</ele>
        <time>2015-07-13T18:38:55.849Z</time>
      </trkpt>
      <trkpt lat="48.8646" lon="2.39399">
        <ele>124.3</ele>
        <time>2015-07-13T18:38:56.853Z</time>
      </trkpt>
      <trkpt lat="48.86462" lon="2.39405">
        <ele>124.6</ele>
        <time>2015-07-13T18:38:57.871Z</time>
      </trkpt>
      <trkpt lat="48.86464" lon="2.39411">
        <ele>124.8</ele>
        <time>2015-07-13T18:38:58.882Z</time>
      </trkpt>
      <trkpt lat="48.86466" lon="2.39417">
        <ele>124.8</ele>
        <time>2015-07-13T18:38:59.965Z</time>
      </trkpt>
      <trkpt lat="48.86468" lon="2.39424">
        <ele>124.8</ele>
        <time>2015-07-13T18:39:00.867Z</time>
      </trkpt>
      <trkpt lat="48.8647" lon="2.3943">
        <ele>124.8</ele>
        <time>2015-07-13T18:39:01.859Z</time>
      </trkpt>
      <trkpt lat="48.86472" lon="2.39437">
        <ele>124.8</ele>
        <time>2015-07-13T18:39:02.893Z</time>
      </trkpt>
      <trkpt lat="48.86473" lon="2.39443">
        <ele>124.8</ele>
        <time>2015-07-13T18:39:03.888Z</time>
      </trkpt>
      <trkpt lat="48.86473" lon="2.3945">
        <ele>125.5</ele>
        <time>2015-07-13T18:39:04.901Z</time>
      </trkpt>
      <trkpt lat="48.86473" lon="2.39457">
        <ele>126.1</ele>
        <time>2015-07-13T18:39:05.913Z</time>
      </trkpt>
      <trkpt lat="48.86473" lon="2.39464">
        <ele>126.4</ele>
        <time>2015-07-13T18:39:06.920Z</time>
      </trkpt>
      <trkpt lat="48.86473" lon="2.39477">
        <ele>126.8</ele>
        <time>2015-07-13T18:39:08.861Z</time>
      </trkpt>
      <trkpt lat="48.86473" lon="2.39483">
        <ele>127.5</ele>
        <time>2015-07-13T18:39:09.918Z</time>
      </trkpt>
      <trkpt lat="48.86476" lon="2.39495">
        <ele>127.6</ele>
        <time>2015-07-13T18:39:11.890Z</time>
      </trkpt>
      <trkpt lat="48.86477" lon="2.39501">
        <ele>127.8</ele>
        <time>2015-07-13T18:39:12.903Z</time>
      </trkpt>
      <trkpt lat="48.8648" lon="2.39511">
        <ele>128.1</ele>
        <time>2015-07-13T18:39:14.958Z</time>
      </trkpt>
      <trkpt lat="48.86482" lon="2.39516">
        <ele>128.4</ele>
        <time>2015-07-13T18:39:15.981Z</time>
      </trkpt>
      <trkpt lat="48.86486" lon="2.39526">
        <ele>129.1</ele>
        <time>2015-07-13T18:39:17.939Z</time>
      </trkpt>
      <trkpt lat="48.86487" lon="2.3953">
        <ele>129.5</ele>
        <time>2015-07-13T18:39:18.961Z</time>
      </trkpt>
      <trkpt lat="48.86487" lon="2.39541">
        <ele>129.8</ele>
        <time>2015-07-13T18:39:21.929Z</time>
      </trkpt>
      <trkpt lat="48.86487" lon="2.39546">
        <ele>129.9</ele>
        <time>2015-07-13T18:39:22.948Z</time>
      </trkpt>
      <trkpt lat="48.86491" lon="2.39557">
        <ele>131.2</ele>
        <time>2015-07-13T18:39:25.936Z</time>
      </trkpt>
      <trkpt lat="48.86494" lon="2.3956">
        <ele>132</ele>
        <time>2015-07-13T18:39:26.959Z</time>
      </trkpt>
      <trkpt lat="48.86494" lon="2.39564">
        <ele>131.6</ele>
        <time>2015-07-13T18:39:29.917Z</time>
      </trkpt>
      <trkpt lat="48.86494" lon="2.39564">
        <ele>131.6</ele>
        <time>2015-07-13T18:39:30.914Z</time>
      </trkpt>
      <trkpt lat="48.86494" lon="2.39564">
        <ele>131.6</ele>
        <time>2015-07-13T18:40:40.930Z</time>
      </trkpt>
      <trkpt lat="48.86492" lon="2.39566">
        <ele>132</ele>
        <time>2015-07-13T18:40:41.971Z</time>
      </trkpt>
      <trkpt lat="48.86495" lon="2.39575">
        <ele>132.9</ele>
        <time>2015-07-13T18:42:01.877Z</time>
      </trkpt>
      <trkpt lat="48.86496" lon="2.3958">
        <ele>133</ele>
        <time>2015-07-13T18:42:02.967Z</time>
      </trkpt>
      <trkpt lat="48.86498" lon="2.3959">
        <ele>132.8</ele>
        <time>2015-07-13T18:42:04.868Z</time>
      </trkpt>
      <trkpt lat="48.86498" lon="2.39594">
        <ele>132.9</ele>
        <time>2015-07-13T18:42:05.892Z</time>
      </trkpt>
      <trkpt lat="48.86499" lon="2.39604">
        <ele>133</ele>
        <time>2015-07-13T18:42:07.944Z</time>
      </trkpt>
      <trkpt lat="48.86499" lon="2.39609">
        <ele>133.1</ele>
        <time>2015-07-13T18:42:08.865Z</time>
      </trkpt>
      <trkpt lat="48.865" lon="2.39619">
        <ele>133.2</ele>
        <time>2015-07-13T18:42:10.914Z</time>
      </trkpt>
      <trkpt lat="48.86501" lon="2.39624">
        <ele>133.3</ele>
        <time>2015-07-13T18:42:11.927Z</time>
      </trkpt>
      <trkpt lat="48.86501" lon="2.39637">
        <ele>132.9</ele>
        <time>2015-07-13T18:42:13.976Z</time>
      </trkpt>
      <trkpt lat="48.86501" lon="2.39643">
        <ele>132.9</ele>
        <time>2015-07-13T18:42:14.848Z</time>
      </trkpt>
      <trkpt lat="48.865" lon="2.3965">
        <ele>132.9</ele>
        <time>2015-07-13T18:42:15.954Z</time>
      </trkpt>
      <trkpt lat="48.865" lon="2.39657">
        <ele>132.8</ele>
        <time>2015-07-13T18:42:16.954Z</time>
      </trkpt>
      <trkpt lat="48.865" lon="2.39669">
        <ele>132.7</ele>
        <time>2015-07-13T18:42:18.876Z</time>
      </trkpt>
      <trkpt lat="48.865" lon="2.39673">
        <ele>132.7</ele>
        <time>2015-07-13T18:42:19.897Z</time>
      </trkpt>
      <trkpt lat="48.86501" lon="2.39684">
        <ele>132.7</ele>
        <time>2015-07-13T18:42:22.871Z</time>
      </trkpt>
      <trkpt lat="48.86499" lon="2.39689">
        <ele>132.5</ele>
        <time>2015-07-13T18:42:23.886Z</time>
      </trkpt>
      <trkpt lat="48.86498" lon="2.39699">
        <ele>132.2</ele>
        <time>2015-07-13T18:42:25.941Z</time>
      </trkpt>
      <trkpt lat="48.86498" lon="2.39706">
        <ele>132.2</ele>
        <time>2015-07-13T18:42:26.874Z</time>
      </trkpt>
      <trkpt lat="48.86498" lon="2.39717">
        <ele>132.1</ele>
        <time>2015-07-13T18:42:28.956Z</time>
      </trkpt>
      <trkpt lat="48.86498" lon="2.39722">
        <ele>132</ele>
        <time>2015-07-13T18:42:29.979Z</time>
      </trkpt>
      <trkpt lat="48.86499" lon="2.39733">
        <ele>132.1</ele>
        <time>2015-07-13T18:42:31.877Z</time>
      </trkpt>
      <trkpt lat="48.86499" lon="2.39739">
        <ele>132.2</ele>
        <time>2015-07-13T18:42:32.886Z</time>
      </trkpt>
      <trkpt lat="48.865" lon="2.39749">
        <ele>132.1</ele>
        <time>2015-07-13T18:42:35.439Z</time>
      </trkpt>
      <trkpt lat="48.865" lon="2.39753">
        <ele>132.1</ele>
        <time>2015-07-13T18:42:35.918Z</time>
      </trkpt>
      <trkpt lat="48.865" lon="2.39765">
        <ele>132.2</ele>
        <time>2015-07-13T18:42:37.855Z</time>
      </trkpt>
      <trkpt lat="48.865" lon="2.3977">
        <ele>132.3</ele>
        <time>2015-07-13T18:42:38.867Z</time>
      </trkpt>
      <trkpt lat="48.86498" lon="2.39782">
        <ele>132.2</ele>
        <time>2015-07-13T18:42:41.901Z</time>
      </trkpt>
      <trkpt lat="48.86497" lon="2.39786">
        <ele>132.1</ele>
        <time>2015-07-13T18:42:42.912Z</time>
      </trkpt>
      <trkpt lat="48.86496" lon="2.39797">
        <ele>131.9</ele>
        <time>2015-07-13T18:42:46.886Z</time>
      </trkpt>
      <trkpt lat="48.86496" lon="2.398">
        <ele>132</ele>
        <time>2015-07-13T18:42:47.992Z</time>
      </trkpt>
      <trkpt lat="48.86491" lon="2.39811">
        <ele>131.7</ele>
        <time>2015-07-13T18:42:51.910Z</time>
      </trkpt>
      <trkpt lat="48.8649" lon="2.39815">
        <ele>131.7</ele>
        <time>2015-07-13T18:42:52.924Z</time>
      </trkpt>
      <trkpt lat="48.86487" lon="2.39824">
        <ele>131.4</ele>
        <time>2015-07-13T18:42:54.887Z</time>
      </trkpt>
      <trkpt lat="48.86486" lon="2.3983">
        <ele>131</ele>
        <time>2015-07-13T18:42:55.886Z</time>
      </trkpt>
      <trkpt lat="48.86486" lon="2.39843">
        <ele>130.6</ele>
        <time>2015-07-13T18:42:57.891Z</time>
      </trkpt>
      <trkpt lat="48.86486" lon="2.3985">
        <ele>132.8</ele>
        <time>2015-07-13T18:42:58.906Z</time>
      </trkpt>
      <trkpt lat="48.86495" lon="2.39849">
        <ele>134.6</ele>
        <time>2015-07-13T18:43:06.036Z</time>
      </trkpt>
      <trkpt lat="48.86494" lon="2.39851">
        <ele>134.5</ele>
        <time>2015-07-13T18:43:06.982Z</time>
      </trkpt>
      <trkpt lat="48.86493" lon="2.39852">
        <ele>134.3</ele>
        <time>2015-07-13T18:43:38.864Z</time>
      </trkpt>
      <trkpt lat="48.86497" lon="2.39852">
        <ele>134.5</ele>
        <time>2015-07-13T18:43:39.895Z</time>
      </trkpt>
      <trkpt lat="48.86504" lon="2.39844">
        <ele>135.9</ele>
        <time>2015-07-13T18:43:43.893Z</time>
      </trkpt>
      <trkpt lat="48.86506" lon="2.3984">
        <ele>136.2</ele>
        <time>2015-07-13T18:43:44.893Z</time>
      </trkpt>
      <trkpt lat="48.86512" lon="2.39831">
        <ele>137</ele>
        <time>2015-07-13T18:43:46.880Z</time>
      </trkpt>
      <trkpt lat="48.86515" lon="2.39827">
        <ele>137.4</ele>
        <time>2015-07-13T18:43:47.935Z</time>
      </trkpt>
      <trkpt lat="48.86521" lon="2.39819">
        <ele>137.9</ele>
        <time>2015-07-13T18:43:49.944Z</time>
      </trkpt>
      <trkpt lat="48.86524" lon="2.39815">
        <ele>138</ele>
        <time>2015-07-13T18:43:50.830Z</time>
      </trkpt>
      <trkpt lat="48.8653" lon="2.39807">
        <ele>138</ele>
        <time>2015-07-13T18:43:52.993Z</time>
      </trkpt>
      <trkpt lat="48.86533" lon="2.39804">
        <ele>138</ele>
        <time>2015-07-13T18:43:54.014Z</time>
      </trkpt>
      <trkpt lat="48.86539" lon="2.39802">
        <ele>138.2</ele>
        <time>2015-07-13T18:43:55.913Z</time>
      </trkpt>
      <trkpt lat="48.86542" lon="2.39801">
        <ele>138.2</ele>
        <time>2015-07-13T18:43:56.924Z</time>
      </trkpt>
      <trkpt lat="48.86548" lon="2.39798">
        <ele>138.3</ele>
        <time>2015-07-13T18:43:59.314Z</time>
      </trkpt>
      <trkpt lat="48.86552" lon="2.39795">
        <ele>138.4</ele>
        <time>2015-07-13T18:43:59.950Z</time>
      </trkpt>
      <trkpt lat="48.86555" lon="2.3979">
        <ele>138.4</ele>
        <time>2015-07-13T18:44:00.942Z</time>
      </trkpt>
      <trkpt lat="48.86559" lon="2.39786">
        <ele>138.5</ele>
        <time>2015-07-13T18:44:01.892Z</time>
      </trkpt>
      <trkpt lat="48.86565" lon="2.39779">
        <ele>138.7</ele>
        <time>2015-07-13T18:44:03.888Z</time>
      </trkpt>
      <trkpt lat="48.86569" lon="2.39777">
        <ele>138.8</ele>
        <time>2015-07-13T18:44:04.896Z</time>
      </trkpt>
      <trkpt lat="48.86574" lon="2.39775">
        <ele>138.7</ele>
        <time>2015-07-13T18:44:05.930Z</time>
      </trkpt>
      <trkpt lat="48.86579" lon="2.39772">
        <ele>138.5</ele>
        <time>2015-07-13T18:44:06.860Z</time>
      </trkpt>
      <trkpt lat="48.86584" lon="2.3977">
        <ele>138.5</ele>
        <time>2015-07-13T18:44:07.877Z</time>
      </trkpt>
      <trkpt lat="48.86588" lon="2.39766">
        <ele>138.6</ele>
        <time>2015-07-13T18:44:08.896Z</time>
      </trkpt>
      <trkpt lat="48.86593" lon="2.39763">
        <ele>138.5</ele>
        <time>2015-07-13T18:44:09.829Z</time>
      </trkpt>
      <trkpt lat="48.86598" lon="2.39759">
        <ele>138.5</ele>
        <time>2015-07-13T18:44:10.874Z</time>
      </trkpt>
      <trkpt lat="48.86603" lon="2.39754">
        <ele>138.5</ele>
        <time>2015-07-13T18:44:11.891Z</time>
      </trkpt>
      <trkpt lat="48.86608" lon="2.39751">
        <ele>138.4</ele>
        <time>2015-07-13T18:44:12.899Z</time>
      </trkpt>
      <trkpt lat="48.86613" lon="2.39747">
        <ele>138.5</ele>
        <time>2015-07-13T18:44:13.907Z</time>
      </trkpt>
      <trkpt lat="48.86617" lon="2.39744">
        <ele>138.5</ele>
        <time>2015-07-13T18:44:14.913Z</time>
      </trkpt>
      <trkpt lat="48.86622" lon="2.39742">
        <ele>138.6</ele>
        <time>2015-07-13T18:44:15.926Z</time>
      </trkpt>
      <trkpt lat="48.86627" lon="2.3974">
        <ele>138.8</ele>
        <time>2015-07-13T18:44:16.931Z</time>
      </trkpt>
      <trkpt lat="48.86633" lon="2.39739">
        <ele>139.2</ele>
        <time>2015-07-13T18:44:17.944Z</time>
      </trkpt>
      <trkpt lat="48.86638" lon="2.39738">
        <ele>139.3</ele>
        <time>2015-07-13T18:44:18.853Z</time>
      </trkpt>
      <trkpt lat="48.86645" lon="2.39733">
        <ele>139.8</ele>
        <time>2015-07-13T18:44:20.861Z</time>
      </trkpt>
      <trkpt lat="48.86649" lon="2.3973">
        <ele>140.2</ele>
        <time>2015-07-13T18:44:21.867Z</time>
      </trkpt>
      <trkpt lat="48.86656" lon="2.39725">
        <ele>141</ele>
        <time>2015-07-13T18:44:23.927Z</time>
      </trkpt>
      <trkpt lat="48.86658" lon="2.39723">
        <ele>141.5</ele>
        <time>2015-07-13T18:44:24.940Z</time>
      </trkpt>
      <trkpt lat="48.86664" lon="2.39715">
        <ele>142.2</ele>
        <time>2015-07-13T18:44:27.901Z</time>
      </trkpt>
      <trkpt lat="48.86667" lon="2.3971">
        <ele>142.4</ele>
        <time>2015-07-13T18:44:28.898Z</time>
      </trkpt>
      <trkpt lat="48.86673" lon="2.39704">
        <ele>143.1</ele>
        <time>2015-07-13T18:44:30.937Z</time>
      </trkpt>
      <trkpt lat="48.86677" lon="2.397">
        <ele>143.4</ele>
        <time>2015-07-13T18:44:31.874Z</time>
      </trkpt>
      <trkpt lat="48.86682" lon="2.39692">
        <ele>143.9</ele>
        <time>2015-07-13T18:44:33.925Z</time>
      </trkpt>
      <trkpt lat="48.86684" lon="2.39689">
        <ele>144.2</ele>
        <time>2015-07-13T18:44:34.939Z</time>
      </trkpt>
      <trkpt lat="48.86689" lon="2.39682">
        <ele>144.4</ele>
        <time>2015-07-13T18:44:36.855Z</time>
      </trkpt>
      <trkpt lat="48.86692" lon="2.39679">
        <ele>144.6</ele>
        <time>2015-07-13T18:44:37.883Z</time>
      </trkpt>
      <trkpt lat="48.86698" lon="2.39672">
        <ele>145</ele>
        <time>2015-07-13T18:44:39.858Z</time>
      </trkpt>
      <trkpt lat="48.86702" lon="2.3967">
        <ele>145.2</ele>
        <time>2015-07-13T18:44:40.909Z</time>
      </trkpt>
      <trkpt lat="48.8671" lon="2.39667">
        <ele>145.6</ele>
        <time>2015-07-13T18:44:42.932Z</time>
      </trkpt>
      <trkpt lat="48.86717" lon="2.39666">
        <ele>146.1</ele>
        <time>2015-07-13T18:44:43.886Z</time>
      </trkpt>
      <trkpt lat="48.86721" lon="2.3966">
        <ele>146.3</ele>
        <time>2015-07-13T18:44:44.857Z</time>
      </trkpt>
      <trkpt lat="48.86727" lon="2.39657">
        <ele>146.7</ele>
        <time>2015-07-13T18:44:45.866Z</time>
      </trkpt>
      <trkpt lat="48.86733" lon="2.39654">
        <ele>147.1</ele>
        <time>2015-07-13T18:44:46.873Z</time>
      </trkpt>
      <trkpt lat="48.86739" lon="2.39651">
        <ele>147.9</ele>
        <time>2015-07-13T18:44:47.949Z</time>
      </trkpt>
      <trkpt lat="48.86743" lon="2.39648">
        <ele>148.4</ele>
        <time>2015-07-13T18:44:48.864Z</time>
      </trkpt>
      <trkpt lat="48.86748" lon="2.39645">
        <ele>148.9</ele>
        <time>2015-07-13T18:44:49.876Z</time>
      </trkpt>
      <trkpt lat="48.86755" lon="2.39638">
        <ele>149.7</ele>
        <time>2015-07-13T18:44:51.896Z</time>
      </trkpt>
      <trkpt lat="48.86758" lon="2.39636">
        <ele>149.8</ele>
        <time>2015-07-13T18:44:52.913Z</time>
      </trkpt>
      <trkpt lat="48.86764" lon="2.39632">
        <ele>149.8</ele>
        <time>2015-07-13T18:44:54.857Z</time>
      </trkpt>
      <trkpt lat="48.86766" lon="2.39629">
        <ele>150.1</ele>
        <time>2015-07-13T18:44:55.882Z</time>
      </trkpt>
      <trkpt lat="48.86772" lon="2.39621">
        <ele>150.8</ele>
        <time>2015-07-13T18:44:57.877Z</time>
      </trkpt>
      <trkpt lat="48.86775" lon="2.39618">
        <ele>151</ele>
        <time>2015-07-13T18:44:58.835Z</time>
      </trkpt>
      <trkpt lat="48.86779" lon="2.39615">
        <ele>151.1</ele>
        <time>2015-07-13T18:44:59.936Z</time>
      </trkpt>
      <trkpt lat="48.86783" lon="2.39612">
        <ele>151.4</ele>
        <time>2015-07-13T18:45:00.873Z</time>
      </trkpt>
      <trkpt lat="48.86787" lon="2.39609">
        <ele>151.6</ele>
        <time>2015-07-13T18:45:01.851Z</time>
      </trkpt>
      <trkpt lat="48.86792" lon="2.39605">
        <ele>151.8</ele>
        <time>2015-07-13T18:45:02.855Z</time>
      </trkpt>
      <trkpt lat="48.86797" lon="2.39601">
        <ele>152</ele>
        <time>2015-07-13T18:45:03.891Z</time>
      </trkpt>
      <trkpt lat="48.86802" lon="2.39597">
        <ele>152.3</ele>
        <time>2015-07-13T18:45:04.904Z</time>
      </trkpt>
      <trkpt lat="48.86808" lon="2.39593">
        <ele>152.3</ele>
        <time>2015-07-13T18:45:05.917Z</time>
      </trkpt>
      <trkpt lat="48.86814" lon="2.39587">
        <ele>152.4</ele>
        <time>2015-07-13T18:45:06.922Z</time>
      </trkpt>
      <trkpt lat="48.8682" lon="2.39581">
        <ele>152.5</ele>
        <time>2015-07-13T18:45:07.853Z</time>
      </trkpt>
      <trkpt lat="48.86828" lon="2.39569">
        <ele>152.9</ele>
        <time>2015-07-13T18:45:08.857Z</time>
      </trkpt>
      <trkpt lat="48.86832" lon="2.39562">
        <ele>153.3</ele>
        <time>2015-07-13T18:45:09.866Z</time>
      </trkpt>
      <trkpt lat="48.86839" lon="2.39555">
        <ele>153.9</ele>
        <time>2015-07-13T18:45:10.905Z</time>
      </trkpt>
      <trkpt lat="48.86845" lon="2.3955">
        <ele>154.3</ele>
        <time>2015-07-13T18:45:11.895Z</time>
      </trkpt>
      <trkpt lat="48.86852" lon="2.39546">
        <ele>154.7</ele>
        <time>2015-07-13T18:45:12.889Z</time>
      </trkpt>
      <trkpt lat="48.8686" lon="2.39543">
        <ele>153.9</ele>
        <time>2015-07-13T18:45:13.944Z</time>
      </trkpt>
      <trkpt lat="48.86867" lon="2.39539">
        <ele>153.4</ele>
        <time>2015-07-13T18:45:14.942Z</time>
      </trkpt>
      <trkpt lat="48.86872" lon="2.39536">
        <ele>153.4</ele>
        <time>2015-07-13T18:45:15.886Z</time>
      </trkpt>
      <trkpt lat="48.86877" lon="2.39532">
        <ele>153.7</ele>
        <time>2015-07-13T18:45:16.932Z</time>
      </trkpt>
      <trkpt lat="48.86881" lon="2.39528">
        <ele>153.9</ele>
        <time>2015-07-13T18:45:17.944Z</time>
      </trkpt>
      <trkpt lat="48.86885" lon="2.39524">
        <ele>154</ele>
        <time>2015-07-13T18:45:18.820Z</time>
      </trkpt>
      <trkpt lat="48.8689" lon="2.3952">
        <ele>154.1</ele>
        <time>2015-07-13T18:45:19.858Z</time>
      </trkpt>
      <trkpt lat="48.86897" lon="2.39517">
        <ele>153.7</ele>
        <time>2015-07-13T18:45:20.864Z</time>
      </trkpt>
      <trkpt lat="48.86903" lon="2.39514">
        <ele>153.5</ele>
        <time>2015-07-13T18:45:21.877Z</time>
      </trkpt>
      <trkpt lat="48.86908" lon="2.39511">
        <ele>153.1</ele>
        <time>2015-07-13T18:45:22.919Z</time>
      </trkpt>
      <trkpt lat="48.86914" lon="2.39508">
        <ele>152.9</ele>
        <time>2015-07-13T18:45:23.952Z</time>
      </trkpt>
      <trkpt lat="48.86918" lon="2.39504">
        <ele>152.9</ele>
        <time>2015-07-13T18:45:24.856Z</time>
      </trkpt>
      <trkpt lat="48.86922" lon="2.39502">
        <ele>153</ele>
        <time>2015-07-13T18:45:25.880Z</time>
      </trkpt>
      <trkpt lat="48.86928" lon="2.39497">
        <ele>153.3</ele>
        <time>2015-07-13T18:45:27.915Z</time>
      </trkpt>
      <trkpt lat="48.86932" lon="2.39495">
        <ele>153.3</ele>
        <time>2015-07-13T18:45:28.970Z</time>
      </trkpt>
      <trkpt lat="48.86939" lon="2.39491">
        <ele>153.8</ele>
        <time>2015-07-13T18:45:30.849Z</time>
      </trkpt>
      <trkpt lat="48.86944" lon="2.39488">
        <ele>154.2</ele>
        <time>2015-07-13T18:45:31.888Z</time>
      </trkpt>
      <trkpt lat="48.86948" lon="2.39484">
        <ele>154.6</ele>
        <time>2015-07-13T18:45:32.856Z</time>
      </trkpt>
      <trkpt lat="48.86952" lon="2.3948">
        <ele>154.9</ele>
        <time>2015-07-13T18:45:33.844Z</time>
      </trkpt>
      <trkpt lat="48.86958" lon="2.39476">
        <ele>155.1</ele>
        <time>2015-07-13T18:45:35.899Z</time>
      </trkpt>
      <trkpt lat="48.86963" lon="2.39475">
        <ele>154.3</ele>
        <time>2015-07-13T18:45:36.954Z</time>
      </trkpt>
      <trkpt lat="48.86969" lon="2.3947">
        <ele>153.8</ele>
        <time>2015-07-13T18:45:39.882Z</time>
      </trkpt>
      <trkpt lat="48.86971" lon="2.39469">
        <ele>153.6</ele>
        <time>2015-07-13T18:45:40.929Z</time>
      </trkpt>
      <trkpt lat="48.86979" lon="2.39465">
        <ele>154.6</ele>
        <time>2015-07-13T18:45:43.885Z</time>
      </trkpt>
      <trkpt lat="48.8698" lon="2.39465">
        <ele>155.1</ele>
        <time>2015-07-13T18:45:44.909Z</time>
      </trkpt>
      <trkpt lat="48.86988" lon="2.39459">
        <ele>156.7</ele>
        <time>2015-07-13T18:45:50.874Z</time>
      </trkpt>
      <trkpt lat="48.86988" lon="2.39458">
        <ele>156.6</ele>
        <time>2015-07-13T18:45:51.907Z</time>
      </trkpt>
      <trkpt lat="48.86988" lon="2.39458">
        <ele>156.6</ele>
        <time>2015-07-13T18:45:52.866Z</time>
      </trkpt>
      <trkpt lat="48.86988" lon="2.39458">
        <ele>156.8</ele>
        <time>2015-07-13T18:45:53.966Z</time>
      </trkpt>
      <trkpt lat="48.86988" lon="2.39458">
        <ele>156.8</ele>
        <time>2015-07-13T18:47:42.924Z</time>
      </trkpt>
      <trkpt lat="48.8699" lon="2.39458">
        <ele>157.7</ele>
        <time>2015-07-13T18:47:43.859Z</time>
      </trkpt>
      <trkpt lat="48.86994" lon="2.39451">
        <ele>157.7</ele>
        <time>2015-07-13T18:47:47.957Z</time>
      </trkpt>
      <trkpt lat="48.86996" lon="2.39449">
        <ele>157.5</ele>
        <time>2015-07-13T18:47:48.887Z</time>
      </trkpt>
      <trkpt lat="48.87003" lon="2.39441">
        <ele>157.1</ele>
        <time>2015-07-13T18:47:51.918Z</time>
      </trkpt>
      <trkpt lat="48.87006" lon="2.39439">
        <ele>157</ele>
        <time>2015-07-13T18:47:52.957Z</time>
      </trkpt>
      <trkpt lat="48.87011" lon="2.39434">
        <ele>156.4</ele>
        <time>2015-07-13T18:47:54.866Z</time>
      </trkpt>
      <trkpt lat="48.87014" lon="2.39431">
        <ele>156.2</ele>
        <time>2015-07-13T18:47:55.960Z</time>
      </trkpt>
      <trkpt lat="48.87019" lon="2.39425">
        <ele>155.9</ele>
        <time>2015-07-13T18:47:57.863Z</time>
      </trkpt>
      <trkpt lat="48.87022" lon="2.39422">
        <ele>155.8</ele>
        <time>2015-07-13T18:47:58.963Z</time>
      </trkpt>
      <trkpt lat="48.87029" lon="2.39413">
        <ele>155.7</ele>
        <time>2015-07-13T18:48:00.844Z</time>
      </trkpt>
      <trkpt lat="48.87032" lon="2.3941">
        <ele>155.4</ele>
        <time>2015-07-13T18:48:01.927Z</time>
      </trkpt>
      <trkpt lat="48.87039" lon="2.39405">
        <ele>155.1</ele>
        <time>2015-07-13T18:48:03.838Z</time>
      </trkpt>
      <trkpt lat="48.87043" lon="2.39402">
        <ele>155</ele>
        <time>2015-07-13T18:48:04.867Z</time>
      </trkpt>
      <trkpt lat="48.87047" lon="2.39398">
        <ele>154.9</ele>
        <time>2015-07-13T18:48:05.906Z</time>
      </trkpt>
      <trkpt lat="48.8705" lon="2.39394">
        <ele>154.8</ele>
        <time>2015-07-13T18:48:06.913Z</time>
      </trkpt>
      <trkpt lat="48.87057" lon="2.39386">
        <ele>154.2</ele>
        <time>2015-07-13T18:48:08.893Z</time>
      </trkpt>
      <trkpt lat="48.87061" lon="2.39382">
        <ele>153.8</ele>
        <time>2015-07-13T18:48:09.896Z</time>
      </trkpt>
      <trkpt lat="48.87065" lon="2.39378">
        <ele>153.6</ele>
        <time>2015-07-13T18:48:10.915Z</time>
      </trkpt>
      <trkpt lat="48.87068" lon="2.39373">
        <ele>153.4</ele>
        <time>2015-07-13T18:48:11.927Z</time>
      </trkpt>
      <trkpt lat="48.87072" lon="2.39369">
        <ele>153.2</ele>
        <time>2015-07-13T18:48:12.857Z</time>
      </trkpt>
      <trkpt lat="48.87075" lon="2.39364">
        <ele>153.1</ele>
        <time>2015-07-13T18:48:13.869Z</time>
      </trkpt>
      <trkpt lat="48.87079" lon="2.39359">
        <ele>152.8</ele>
        <time>2015-07-13T18:48:14.890Z</time>
      </trkpt>
      <trkpt lat="48.87082" lon="2.39355">
        <ele>152.5</ele>
        <time>2015-07-13T18:48:15.900Z</time>
      </trkpt>
      <trkpt lat="48.87085" lon="2.39348">
        <ele>151.7</ele>
        <time>2015-07-13T18:48:16.936Z</time>
      </trkpt>
      <trkpt lat="48.87088" lon="2.39343">
        <ele>151.6</ele>
        <time>2015-07-13T18:48:17.950Z</time>
      </trkpt>
      <trkpt lat="48.87092" lon="2.39339">
        <ele>151.7</ele>
        <time>2015-07-13T18:48:18.852Z</time>
      </trkpt>
      <trkpt lat="48.87096" lon="2.39334">
        <ele>151.6</ele>
        <time>2015-07-13T18:48:19.857Z</time>
      </trkpt>
      <trkpt lat="48.871" lon="2.39329">
        <ele>151.2</ele>
        <time>2015-07-13T18:48:20.878Z</time>
      </trkpt>
      <trkpt lat="48.87103" lon="2.39324">
        <ele>151</ele>
        <time>2015-07-13T18:48:21.892Z</time>
      </trkpt>
      <trkpt lat="48.87107" lon="2.39319">
        <ele>151</ele>
        <time>2015-07-13T18:48:22.908Z</time>
      </trkpt>
      <trkpt lat="48.87111" lon="2.39313">
        <ele>150.9</ele>
        <time>2015-07-13T18:48:23.919Z</time>
      </trkpt>
      <trkpt lat="48.87115" lon="2.39308">
        <ele>150.7</ele>
        <time>2015-07-13T18:48:24.822Z</time>
      </trkpt>
      <trkpt lat="48.87118" lon="2.39302">
        <ele>150.7</ele>
        <time>2015-07-13T18:48:25.865Z</time>
      </trkpt>
      <trkpt lat="48.87122" lon="2.39298">
        <ele>150.8</ele>
        <time>2015-07-13T18:48:26.886Z</time>
      </trkpt>
      <trkpt lat="48.87125" lon="2.39291">
        <ele>150.8</ele>
        <time>2015-07-13T18:48:27.923Z</time>
      </trkpt>
      <trkpt lat="48.87129" lon="2.39286">
        <ele>150.6</ele>
        <time>2015-07-13T18:48:28.856Z</time>
      </trkpt>
      <trkpt lat="48.87132" lon="2.39281">
        <ele>150.7</ele>
        <time>2015-07-13T18:48:29.920Z</time>
      </trkpt>
      <trkpt lat="48.87139" lon="2.39273">
        <ele>150.8</ele>
        <time>2015-07-13T18:48:31.851Z</time>
      </trkpt>
      <trkpt lat="48.87142" lon="2.39266">
        <ele>150.8</ele>
        <time>2015-07-13T18:48:32.878Z</time>
      </trkpt>
      <trkpt lat="48.87145" lon="2.39261">
        <ele>150.8</ele>
        <time>2015-07-13T18:48:33.916Z</time>
      </trkpt>
      <trkpt lat="48.87149" lon="2.39256">
        <ele>150.8</ele>
        <time>2015-07-13T18:48:34.925Z</time>
      </trkpt>
      <trkpt lat="48.87152" lon="2.3925">
        <ele>150.8</ele>
        <time>2015-07-13T18:48:35.930Z</time>
      </trkpt>
      <trkpt lat="48.87156" lon="2.39246">
        <ele>150.9</ele>
        <time>2015-07-13T18:48:36.859Z</time>
      </trkpt>
      <trkpt lat="48.8716" lon="2.39239">
        <ele>150.8</ele>
        <time>2015-07-13T18:48:37.861Z</time>
      </trkpt>
      <trkpt lat="48.87163" lon="2.39231">
        <ele>150.6</ele>
        <time>2015-07-13T18:48:38.931Z</time>
      </trkpt>
      <trkpt lat="48.87167" lon="2.39226">
        <ele>150.6</ele>
        <time>2015-07-13T18:48:39.928Z</time>
      </trkpt>
      <trkpt lat="48.87171" lon="2.39221">
        <ele>150.6</ele>
        <time>2015-07-13T18:48:40.941Z</time>
      </trkpt>
      <trkpt lat="48.87175" lon="2.39216">
        <ele>150.3</ele>
        <time>2015-07-13T18:48:41.953Z</time>
      </trkpt>
      <trkpt lat="48.8718" lon="2.39211">
        <ele>150.2</ele>
        <time>2015-07-13T18:48:42.861Z</time>
      </trkpt>
      <trkpt lat="48.87183" lon="2.39205">
        <ele>150.3</ele>
        <time>2015-07-13T18:48:43.873Z</time>
      </trkpt>
      <trkpt lat="48.87188" lon="2.392">
        <ele>150.3</ele>
        <time>2015-07-13T18:48:44.876Z</time>
      </trkpt>
      <trkpt lat="48.87192" lon="2.39194">
        <ele>150.3</ele>
        <time>2015-07-13T18:48:45.910Z</time>
      </trkpt>
      <trkpt lat="48.87197" lon="2.3919">
        <ele>150.4</ele>
        <time>2015-07-13T18:48:46.888Z</time>
      </trkpt>
      <trkpt lat="48.87201" lon="2.39184">
        <ele>150.4</ele>
        <time>2015-07-13T18:48:47.925Z</time>
      </trkpt>
      <trkpt lat="48.87205" lon="2.39179">
        <ele>150.4</ele>
        <time>2015-07-13T18:48:48.933Z</time>
      </trkpt>
      <trkpt lat="48.8721" lon="2.39174">
        <ele>150.3</ele>
        <time>2015-07-13T18:48:49.858Z</time>
      </trkpt>
      <trkpt lat="48.87215" lon="2.39168">
        <ele>150.3</ele>
        <time>2015-07-13T18:48:50.864Z</time>
      </trkpt>
      <trkpt lat="48.8722" lon="2.39163">
        <ele>150.2</ele>
        <time>2015-07-13T18:48:51.863Z</time>
      </trkpt>
      <trkpt lat="48.87225" lon="2.39158">
        <ele>150.2</ele>
        <time>2015-07-13T18:48:52.867Z</time>
      </trkpt>
      <trkpt lat="48.8723" lon="2.39154">
        <ele>150</ele>
        <time>2015-07-13T18:48:53.911Z</time>
      </trkpt>
      <trkpt lat="48.87234" lon="2.3915">
        <ele>150</ele>
        <time>2015-07-13T18:48:54.896Z</time>
      </trkpt>
      <trkpt lat="48.87239" lon="2.39146">
        <ele>150.1</ele>
        <time>2015-07-13T18:48:55.860Z</time>
      </trkpt>
      <trkpt lat="48.87244" lon="2.39142">
        <ele>150.2</ele>
        <time>2015-07-13T18:48:56.864Z</time>
      </trkpt>
      <trkpt lat="48.8725" lon="2.39137">
        <ele>150.2</ele>
        <time>2015-07-13T18:48:57.874Z</time>
      </trkpt>
      <trkpt lat="48.87255" lon="2.39132">
        <ele>150.1</ele>
        <time>2015-07-13T18:48:58.873Z</time>
      </trkpt>
      <trkpt lat="48.8726" lon="2.39127">
        <ele>150.3</ele>
        <time>2015-07-13T18:48:59.939Z</time>
      </trkpt>
      <trkpt lat="48.87265" lon="2.39122">
        <ele>150.3</ele>
        <time>2015-07-13T18:49:00.856Z</time>
      </trkpt>
      <trkpt lat="48.8727" lon="2.39117">
        <ele>150.4</ele>
        <time>2015-07-13T18:49:01.875Z</time>
      </trkpt>
      <trkpt lat="48.87275" lon="2.39113">
        <ele>150.4</ele>
        <time>2015-07-13T18:49:02.902Z</time>
      </trkpt>
      <trkpt lat="48.8728" lon="2.39106">
        <ele>150.5</ele>
        <time>2015-07-13T18:49:03.944Z</time>
      </trkpt>
      <trkpt lat="48.87285" lon="2.39099">
        <ele>150.2</ele>
        <time>2015-07-13T18:49:04.854Z</time>
      </trkpt>
      <trkpt lat="48.8729" lon="2.39092">
        <ele>150.2</ele>
        <time>2015-07-13T18:49:05.962Z</time>
      </trkpt>
      <trkpt lat="48.87295" lon="2.39086">
        <ele>150</ele>
        <time>2015-07-13T18:49:06.914Z</time>
      </trkpt>
      <trkpt lat="48.87299" lon="2.39079">
        <ele>149.9</ele>
        <time>2015-07-13T18:49:07.851Z</time>
      </trkpt>
      <trkpt lat="48.87303" lon="2.39074">
        <ele>149.9</ele>
        <time>2015-07-13T18:49:08.851Z</time>
      </trkpt>
      <trkpt lat="48.87308" lon="2.39067">
        <ele>149.7</ele>
        <time>2015-07-13T18:49:09.876Z</time>
      </trkpt>
      <trkpt lat="48.87312" lon="2.39059">
        <ele>149.5</ele>
        <time>2015-07-13T18:49:10.843Z</time>
      </trkpt>
      <trkpt lat="48.87315" lon="2.39053">
        <ele>149.5</ele>
        <time>2015-07-13T18:49:12.125Z</time>
      </trkpt>
      <trkpt lat="48.87319" lon="2.39048">
        <ele>149.5</ele>
        <time>2015-07-13T18:49:12.856Z</time>
      </trkpt>
      <trkpt lat="48.87324" lon="2.39043">
        <ele>149.7</ele>
        <time>2015-07-13T18:49:13.874Z</time>
      </trkpt>
      <trkpt lat="48.87327" lon="2.39037">
        <ele>149.8</ele>
        <time>2015-07-13T18:49:14.887Z</time>
      </trkpt>
      <trkpt lat="48.87331" lon="2.39033">
        <ele>149.8</ele>
        <time>2015-07-13T18:49:15.904Z</time>
      </trkpt>
      <trkpt lat="48.87335" lon="2.39029">
        <ele>149.8</ele>
        <time>2015-07-13T18:49:16.876Z</time>
      </trkpt>
      <trkpt lat="48.87342" lon="2.39023">
        <ele>149.7</ele>
        <time>2015-07-13T18:49:18.925Z</time>
      </trkpt>
      <trkpt lat="48.87345" lon="2.39017">
        <ele>149.5</ele>
        <time>2015-07-13T18:49:19.884Z</time>
      </trkpt>
      <trkpt lat="48.87348" lon="2.39009">
        <ele>149.5</ele>
        <time>2015-07-13T18:49:20.857Z</time>
      </trkpt>
      <trkpt lat="48.87351" lon="2.39002">
        <ele>149.5</ele>
        <time>2015-07-13T18:49:21.901Z</time>
      </trkpt>
      <trkpt lat="48.87353" lon="2.38997">
        <ele>149.7</ele>
        <time>2015-07-13T18:49:22.834Z</time>
      </trkpt>
      <trkpt lat="48.87356" lon="2.3899">
        <ele>149.7</ele>
        <time>2015-07-13T18:49:23.870Z</time>
      </trkpt>
      <trkpt lat="48.8736" lon="2.38982">
        <ele>149.8</ele>
        <time>2015-07-13T18:49:24.895Z</time>
      </trkpt>
      <trkpt lat="48.87363" lon="2.38976">
        <ele>149.7</ele>
        <time>2015-07-13T18:49:25.923Z</time>
      </trkpt>
      <trkpt lat="48.87365" lon="2.38969">
        <ele>149.8</ele>
        <time>2015-07-13T18:49:26.826Z</time>
      </trkpt>
      <trkpt lat="48.87369" lon="2.38963">
        <ele>149.7</ele>
        <time>2015-07-13T18:49:27.843Z</time>
      </trkpt>
      <trkpt lat="48.87372" lon="2.38956">
        <ele>149.7</ele>
        <time>2015-07-13T18:49:28.857Z</time>
      </trkpt>
      <trkpt lat="48.87375" lon="2.38949">
        <ele>149.6</ele>
        <time>2015-07-13T18:49:29.934Z</time>
      </trkpt>
      <trkpt lat="48.87378" lon="2.38942">
        <ele>149.6</ele>
        <time>2015-07-13T18:49:30.829Z</time>
      </trkpt>
      <trkpt lat="48.87379" lon="2.38935">
        <ele>149.7</ele>
        <time>2015-07-13T18:49:31.853Z</time>
      </trkpt>
      <trkpt lat="48.87381" lon="2.38928">
        <ele>149.8</ele>
        <time>2015-07-13T18:49:32.837Z</time>
      </trkpt>
      <trkpt lat="48.87383" lon="2.38921">
        <ele>150</ele>
        <time>2015-07-13T18:49:33.851Z</time>
      </trkpt>
      <trkpt lat="48.87384" lon="2.38914">
        <ele>150.1</ele>
        <time>2015-07-13T18:49:34.868Z</time>
      </trkpt>
      <trkpt lat="48.87385" lon="2.38906">
        <ele>150.2</ele>
        <time>2015-07-13T18:49:35.864Z</time>
      </trkpt>
      <trkpt lat="48.87385" lon="2.38898">
        <ele>150.1</ele>
        <time>2015-07-13T18:49:36.886Z</time>
      </trkpt>
      <trkpt lat="48.87386" lon="2.3889">
        <ele>150.2</ele>
        <time>2015-07-13T18:49:37.904Z</time>
      </trkpt>
      <trkpt lat="48.87386" lon="2.3888">
        <ele>150.3</ele>
        <time>2015-07-13T18:49:38.852Z</time>
      </trkpt>
      <trkpt lat="48.87385" lon="2.3887">
        <ele>150.3</ele>
        <time>2015-07-13T18:49:39.861Z</time>
      </trkpt>
      <trkpt lat="48.87384" lon="2.3886">
        <ele>150.1</ele>
        <time>2015-07-13T18:49:40.873Z</time>
      </trkpt>
      <trkpt lat="48.87383" lon="2.38849">
        <ele>150</ele>
        <time>2015-07-13T18:49:41.895Z</time>
      </trkpt>
      <trkpt lat="48.87383" lon="2.38831">
        <ele>151.1</ele>
        <time>2015-07-13T18:49:42.900Z</time>
      </trkpt>
      <trkpt lat="48.87384" lon="2.3882">
        <ele>151.1</ele>
        <time>2015-07-13T18:49:43.930Z</time>
      </trkpt>
      <trkpt lat="48.87384" lon="2.38808">
        <ele>151</ele>
        <time>2015-07-13T18:49:44.854Z</time>
      </trkpt>
      <trkpt lat="48.87384" lon="2.38796">
        <ele>150.9</ele>
        <time>2015-07-13T18:49:45.855Z</time>
      </trkpt>
      <trkpt lat="48.87385" lon="2.38785">
        <ele>151</ele>
        <time>2015-07-13T18:49:46.884Z</time>
      </trkpt>
      <trkpt lat="48.87387" lon="2.38773">
        <ele>151</ele>
        <time>2015-07-13T18:49:47.900Z</time>
      </trkpt>
      <trkpt lat="48.87387" lon="2.38761">
        <ele>150.9</ele>
        <time>2015-07-13T18:49:48.915Z</time>
      </trkpt>
      <trkpt lat="48.87387" lon="2.38748">
        <ele>150.6</ele>
        <time>2015-07-13T18:49:49.912Z</time>
      </trkpt>
      <trkpt lat="48.87387" lon="2.38736">
        <ele>150.5</ele>
        <time>2015-07-13T18:49:50.816Z</time>
      </trkpt>
      <trkpt lat="48.87387" lon="2.38724">
        <ele>150.5</ele>
        <time>2015-07-13T18:49:51.876Z</time>
      </trkpt>
      <trkpt lat="48.87386" lon="2.38713">
        <ele>150.8</ele>
        <time>2015-07-13T18:49:52.881Z</time>
      </trkpt>
      <trkpt lat="48.87385" lon="2.38703">
        <ele>151</ele>
        <time>2015-07-13T18:49:53.913Z</time>
      </trkpt>
      <trkpt lat="48.87385" lon="2.38693">
        <ele>150.9</ele>
        <time>2015-07-13T18:49:54.916Z</time>
      </trkpt>
      <trkpt lat="48.87385" lon="2.38683">
        <ele>150.8</ele>
        <time>2015-07-13T18:49:55.920Z</time>
      </trkpt>
      <trkpt lat="48.87385" lon="2.38673">
        <ele>150.6</ele>
        <time>2015-07-13T18:49:56.852Z</time>
      </trkpt>
      <trkpt lat="48.87384" lon="2.38662">
        <ele>150.5</ele>
        <time>2015-07-13T18:49:57.863Z</time>
      </trkpt>
      <trkpt lat="48.87383" lon="2.38652">
        <ele>150.4</ele>
        <time>2015-07-13T18:49:58.853Z</time>
      </trkpt>
      <trkpt lat="48.87382" lon="2.38641">
        <ele>150.4</ele>
        <time>2015-07-13T18:49:59.923Z</time>
      </trkpt>
      <trkpt lat="48.87381" lon="2.38631">
        <ele>150.3</ele>
        <time>2015-07-13T18:50:00.826Z</time>
      </trkpt>
      <trkpt lat="48.8738" lon="2.38621">
        <ele>150.5</ele>
        <time>2015-07-13T18:50:01.862Z</time>
      </trkpt>
      <trkpt lat="48.87379" lon="2.38611">
        <ele>150.1</ele>
        <time>2015-07-13T18:50:02.847Z</time>
      </trkpt>
      <trkpt lat="48.87379" lon="2.38603">
        <ele>150</ele>
        <time>2015-07-13T18:50:03.854Z</time>
      </trkpt>
      <trkpt lat="48.87381" lon="2.38594">
        <ele>150.1</ele>
        <time>2015-07-13T18:50:04.858Z</time>
      </trkpt>
      <trkpt lat="48.87382" lon="2.38586">
        <ele>149.8</ele>
        <time>2015-07-13T18:50:05.889Z</time>
      </trkpt>
      <trkpt lat="48.87389" lon="2.3858">
        <ele>147.1</ele>
        <time>2015-07-13T18:50:06.906Z</time>
      </trkpt>
      <trkpt lat="48.8739" lon="2.38573">
        <ele>146.6</ele>
        <time>2015-07-13T18:50:07.941Z</time>
      </trkpt>
      <trkpt lat="48.87391" lon="2.38565">
        <ele>146.6</ele>
        <time>2015-07-13T18:50:08.846Z</time>
      </trkpt>
      <trkpt lat="48.87392" lon="2.38556">
        <ele>146.6</ele>
        <time>2015-07-13T18:50:09.850Z</time>
      </trkpt>
      <trkpt lat="48.87392" lon="2.38549">
        <ele>146.9</ele>
        <time>2015-07-13T18:50:10.883Z</time>
      </trkpt>
      <trkpt lat="48.87394" lon="2.38542">
        <ele>147.5</ele>
        <time>2015-07-13T18:50:11.898Z</time>
      </trkpt>
      <trkpt lat="48.87394" lon="2.38534">
        <ele>147.4</ele>
        <time>2015-07-13T18:50:12.896Z</time>
      </trkpt>
      <trkpt lat="48.87394" lon="2.38527">
        <ele>147.4</ele>
        <time>2015-07-13T18:50:13.914Z</time>
      </trkpt>
      <trkpt lat="48.87394" lon="2.38519">
        <ele>147.7</ele>
        <time>2015-07-13T18:50:14.919Z</time>
      </trkpt>
      <trkpt lat="48.87395" lon="2.38512">
        <ele>148</ele>
        <time>2015-07-13T18:50:15.929Z</time>
      </trkpt>
      <trkpt lat="48.87396" lon="2.38505">
        <ele>148.1</ele>
        <time>2015-07-13T18:50:16.853Z</time>
      </trkpt>
      <trkpt lat="48.87397" lon="2.38497">
        <ele>148.3</ele>
        <time>2015-07-13T18:50:17.951Z</time>
      </trkpt>
      <trkpt lat="48.87398" lon="2.38489">
        <ele>148.5</ele>
        <time>2015-07-13T18:50:18.852Z</time>
      </trkpt>
      <trkpt lat="48.87397" lon="2.3848">
        <ele>148.5</ele>
        <time>2015-07-13T18:50:19.848Z</time>
      </trkpt>
      <trkpt lat="48.87398" lon="2.3847">
        <ele>148.3</ele>
        <time>2015-07-13T18:50:20.856Z</time>
      </trkpt>
      <trkpt lat="48.87398" lon="2.38461">
        <ele>148.3</ele>
        <time>2015-07-13T18:50:21.874Z</time>
      </trkpt>
      <trkpt lat="48.87401" lon="2.38453">
        <ele>148.4</ele>
        <time>2015-07-13T18:50:22.883Z</time>
      </trkpt>
      <trkpt lat="48.87402" lon="2.38444">
        <ele>148.4</ele>
        <time>2015-07-13T18:50:23.907Z</time>
      </trkpt>
      <trkpt lat="48.87403" lon="2.38436">
        <ele>148.6</ele>
        <time>2015-07-13T18:50:24.914Z</time>
      </trkpt>
      <trkpt lat="48.87404" lon="2.38427">
        <ele>148.7</ele>
        <time>2015-07-13T18:50:25.839Z</time>
      </trkpt>
      <trkpt lat="48.87406" lon="2.38418">
        <ele>148.8</ele>
        <time>2015-07-13T18:50:26.843Z</time>
      </trkpt>
      <trkpt lat="48.87408" lon="2.38409">
        <ele>148.9</ele>
        <time>2015-07-13T18:50:27.852Z</time>
      </trkpt>
      <trkpt lat="48.87409" lon="2.384">
        <ele>148.9</ele>
        <time>2015-07-13T18:50:28.861Z</time>
      </trkpt>
      <trkpt lat="48.87411" lon="2.3839">
        <ele>148.8</ele>
        <time>2015-07-13T18:50:29.909Z</time>
      </trkpt>
      <trkpt lat="48.87415" lon="2.38382">
        <ele>148.3</ele>
        <time>2015-07-13T18:50:30.898Z</time>
      </trkpt>
      <trkpt lat="48.87418" lon="2.38374">
        <ele>148.1</ele>
        <time>2015-07-13T18:50:31.914Z</time>
      </trkpt>
      <trkpt lat="48.87423" lon="2.38366">
        <ele>148</ele>
        <time>2015-07-13T18:50:32.923Z</time>
      </trkpt>
      <trkpt lat="48.87427" lon="2.38358">
        <ele>147.8</ele>
        <time>2015-07-13T18:50:33.847Z</time>
      </trkpt>
      <trkpt lat="48.87432" lon="2.38351">
        <ele>147.7</ele>
        <time>2015-07-13T18:50:34.884Z</time>
      </trkpt>
      <trkpt lat="48.87436" lon="2.38344">
        <ele>147.5</ele>
        <time>2015-07-13T18:50:35.899Z</time>
      </trkpt>
      <trkpt lat="48.8744" lon="2.38337">
        <ele>147.4</ele>
        <time>2015-07-13T18:50:36.835Z</time>
      </trkpt>
      <trkpt lat="48.87445" lon="2.38331">
        <ele>147.4</ele>
        <time>2015-07-13T18:50:37.849Z</time>
      </trkpt>
      <trkpt lat="48.87449" lon="2.38325">
        <ele>147.5</ele>
        <time>2015-07-13T18:50:38.854Z</time>
      </trkpt>
      <trkpt lat="48.87454" lon="2.38319">
        <ele>147.4</ele>
        <time>2015-07-13T18:50:39.876Z</time>
      </trkpt>
      <trkpt lat="48.8746" lon="2.38313">
        <ele>147.2</ele>
        <time>2015-07-13T18:50:40.875Z</time>
      </trkpt>
      <trkpt lat="48.87466" lon="2.38308">
        <ele>147.1</ele>
        <time>2015-07-13T18:50:41.915Z</time>
      </trkpt>
      <trkpt lat="48.87472" lon="2.38303">
        <ele>147</ele>
        <time>2015-07-13T18:50:42.850Z</time>
      </trkpt>
      <trkpt lat="48.87478" lon="2.38298">
        <ele>146.6</ele>
        <time>2015-07-13T18:50:43.862Z</time>
      </trkpt>
      <trkpt lat="48.87484" lon="2.38293">
        <ele>146.3</ele>
        <time>2015-07-13T18:50:44.876Z</time>
      </trkpt>
      <trkpt lat="48.8749" lon="2.38288">
        <ele>146</ele>
        <time>2015-07-13T18:50:45.898Z</time>
      </trkpt>
      <trkpt lat="48.87496" lon="2.38282">
        <ele>145.7</ele>
        <time>2015-07-13T18:50:46.912Z</time>
      </trkpt>
      <trkpt lat="48.87502" lon="2.38276">
        <ele>145.3</ele>
        <time>2015-07-13T18:50:47.926Z</time>
      </trkpt>
      <trkpt lat="48.87507" lon="2.3827">
        <ele>145.1</ele>
        <time>2015-07-13T18:50:48.938Z</time>
      </trkpt>
      <trkpt lat="48.87513" lon="2.38263">
        <ele>144.4</ele>
        <time>2015-07-13T18:50:49.850Z</time>
      </trkpt>
      <trkpt lat="48.87519" lon="2.38257">
        <ele>144.1</ele>
        <time>2015-07-13T18:50:50.852Z</time>
      </trkpt>
      <trkpt lat="48.87525" lon="2.38253">
        <ele>143.8</ele>
        <time>2015-07-13T18:50:51.868Z</time>
      </trkpt>
      <trkpt lat="48.8753" lon="2.38247">
        <ele>143.7</ele>
        <time>2015-07-13T18:50:52.874Z</time>
      </trkpt>
      <trkpt lat="48.87536" lon="2.38241">
        <ele>143.7</ele>
        <time>2015-07-13T18:50:53.898Z</time>
      </trkpt>
      <trkpt lat="48.87541" lon="2.38233">
        <ele>143.6</ele>
        <time>2015-07-13T18:50:54.909Z</time>
      </trkpt>
      <trkpt lat="48.87546" lon="2.38227">
        <ele>143.3</ele>
        <time>2015-07-13T18:50:55.919Z</time>
      </trkpt>
      <trkpt lat="48.87551" lon="2.38221">
        <ele>142.9</ele>
        <time>2015-07-13T18:50:56.931Z</time>
      </trkpt>
      <trkpt lat="48.87557" lon="2.38215">
        <ele>142.5</ele>
        <time>2015-07-13T18:50:57.940Z</time>
      </trkpt>
      <trkpt lat="48.87562" lon="2.38209">
        <ele>142.3</ele>
        <time>2015-07-13T18:50:58.855Z</time>
      </trkpt>
      <trkpt lat="48.87568" lon="2.38203">
        <ele>142</ele>
        <time>2015-07-13T18:50:59.955Z</time>
      </trkpt>
      <trkpt lat="48.87573" lon="2.38197">
        <ele>141.7</ele>
        <time>2015-07-13T18:51:00.828Z</time>
      </trkpt>
      <trkpt lat="48.87577" lon="2.38191">
        <ele>141.2</ele>
        <time>2015-07-13T18:51:01.856Z</time>
      </trkpt>
      <trkpt lat="48.87583" lon="2.38187">
        <ele>140.9</ele>
        <time>2015-07-13T18:51:02.865Z</time>
      </trkpt>
      <trkpt lat="48.87588" lon="2.38182">
        <ele>140.6</ele>
        <time>2015-07-13T18:51:03.869Z</time>
      </trkpt>
      <trkpt lat="48.87592" lon="2.38177">
        <ele>140.8</ele>
        <time>2015-07-13T18:51:04.876Z</time>
      </trkpt>
      <trkpt lat="48.87596" lon="2.38171">
        <ele>140.8</ele>
        <time>2015-07-13T18:51:05.900Z</time>
      </trkpt>
      <trkpt lat="48.87599" lon="2.38164">
        <ele>140.8</ele>
        <time>2015-07-13T18:51:06.915Z</time>
      </trkpt>
      <trkpt lat="48.87603" lon="2.38158">
        <ele>141</ele>
        <time>2015-07-13T18:51:07.853Z</time>
      </trkpt>
      <trkpt lat="48.87607" lon="2.38152">
        <ele>141.1</ele>
        <time>2015-07-13T18:51:08.861Z</time>
      </trkpt>
      <trkpt lat="48.8761" lon="2.38146">
        <ele>141.3</ele>
        <time>2015-07-13T18:51:09.862Z</time>
      </trkpt>
      <trkpt lat="48.87612" lon="2.38141">
        <ele>141.1</ele>
        <time>2015-07-13T18:51:10.894Z</time>
      </trkpt>
      <trkpt lat="48.87616" lon="2.38128">
        <ele>141.3</ele>
        <time>2015-07-13T18:51:12.897Z</time>
      </trkpt>
      <trkpt lat="48.87617" lon="2.38123">
        <ele>141.3</ele>
        <time>2015-07-13T18:51:13.882Z</time>
      </trkpt>
      <trkpt lat="48.87617" lon="2.38116">
        <ele>141.3</ele>
        <time>2015-07-13T18:51:14.853Z</time>
      </trkpt>
      <trkpt lat="48.87617" lon="2.38109">
        <ele>141.4</ele>
        <time>2015-07-13T18:51:15.852Z</time>
      </trkpt>
      <trkpt lat="48.87618" lon="2.38102">
        <ele>141.5</ele>
        <time>2015-07-13T18:51:16.870Z</time>
      </trkpt>
      <trkpt lat="48.87618" lon="2.38095">
        <ele>141.7</ele>
        <time>2015-07-13T18:51:17.931Z</time>
      </trkpt>
      <trkpt lat="48.87619" lon="2.38089">
        <ele>141.9</ele>
        <time>2015-07-13T18:51:18.918Z</time>
      </trkpt>
      <trkpt lat="48.87619" lon="2.3808">
        <ele>141.8</ele>
        <time>2015-07-13T18:51:19.928Z</time>
      </trkpt>
      <trkpt lat="48.87619" lon="2.38071">
        <ele>142</ele>
        <time>2015-07-13T18:51:20.859Z</time>
      </trkpt>
      <trkpt lat="48.87619" lon="2.38062">
        <ele>142</ele>
        <time>2015-07-13T18:51:21.857Z</time>
      </trkpt>
      <trkpt lat="48.87619" lon="2.38053">
        <ele>141.9</ele>
        <time>2015-07-13T18:51:22.869Z</time>
      </trkpt>
      <trkpt lat="48.8762" lon="2.38044">
        <ele>141.8</ele>
        <time>2015-07-13T18:51:23.952Z</time>
      </trkpt>
      <trkpt lat="48.87622" lon="2.38034">
        <ele>141.8</ele>
        <time>2015-07-13T18:51:24.954Z</time>
      </trkpt>
      <trkpt lat="48.87623" lon="2.38025">
        <ele>141.6</ele>
        <time>2015-07-13T18:51:25.857Z</time>
      </trkpt>
      <trkpt lat="48.87624" lon="2.38018">
        <ele>141.6</ele>
        <time>2015-07-13T18:51:26.898Z</time>
      </trkpt>
      <trkpt lat="48.87625" lon="2.38011">
        <ele>141.6</ele>
        <time>2015-07-13T18:51:27.903Z</time>
      </trkpt>
      <trkpt lat="48.87627" lon="2.38005">
        <ele>141.6</ele>
        <time>2015-07-13T18:51:28.929Z</time>
      </trkpt>
      <trkpt lat="48.87629" lon="2.37998">
        <ele>141.6</ele>
        <time>2015-07-13T18:51:29.945Z</time>
      </trkpt>
      <trkpt lat="48.87632" lon="2.37992">
        <ele>141.3</ele>
        <time>2015-07-13T18:51:30.857Z</time>
      </trkpt>
      <trkpt lat="48.87635" lon="2.37987">
        <ele>141</ele>
        <time>2015-07-13T18:51:31.875Z</time>
      </trkpt>
      <trkpt lat="48.87639" lon="2.37981">
        <ele>140.3</ele>
        <time>2015-07-13T18:51:32.881Z</time>
      </trkpt>
      <trkpt lat="48.87643" lon="2.37974">
        <ele>139.7</ele>
        <time>2015-07-13T18:51:33.885Z</time>
      </trkpt>
      <trkpt lat="48.87646" lon="2.37967">
        <ele>139</ele>
        <time>2015-07-13T18:51:34.895Z</time>
      </trkpt>
      <trkpt lat="48.8765" lon="2.3796">
        <ele>139.1</ele>
        <time>2015-07-13T18:51:35.909Z</time>
      </trkpt>
      <trkpt lat="48.87653" lon="2.37954">
        <ele>138.9</ele>
        <time>2015-07-13T18:51:36.917Z</time>
      </trkpt>
      <trkpt lat="48.87656" lon="2.37948">
        <ele>138.6</ele>
        <time>2015-07-13T18:51:37.942Z</time>
      </trkpt>
      <trkpt lat="48.87659" lon="2.37941">
        <ele>138.4</ele>
        <time>2015-07-13T18:51:38.847Z</time>
      </trkpt>
      <trkpt lat="48.87662" lon="2.37934">
        <ele>138.5</ele>
        <time>2015-07-13T18:51:39.873Z</time>
      </trkpt>
      <trkpt lat="48.87665" lon="2.37927">
        <ele>138.3</ele>
        <time>2015-07-13T18:51:40.961Z</time>
      </trkpt>
      <trkpt lat="48.87669" lon="2.37921">
        <ele>138</ele>
        <time>2015-07-13T18:51:41.968Z</time>
      </trkpt>
      <trkpt lat="48.87672" lon="2.37916">
        <ele>137.7</ele>
        <time>2015-07-13T18:51:42.841Z</time>
      </trkpt>
      <trkpt lat="48.87676" lon="2.3791">
        <ele>137.5</ele>
        <time>2015-07-13T18:51:43.845Z</time>
      </trkpt>
      <trkpt lat="48.87679" lon="2.37903">
        <ele>137.5</ele>
        <time>2015-07-13T18:51:44.860Z</time>
      </trkpt>
      <trkpt lat="48.87683" lon="2.37897">
        <ele>137.6</ele>
        <time>2015-07-13T18:51:45.885Z</time>
      </trkpt>
      <trkpt lat="48.87687" lon="2.37892">
        <ele>137.6</ele>
        <time>2015-07-13T18:51:46.888Z</time>
      </trkpt>
      <trkpt lat="48.87691" lon="2.37888">
        <ele>137.6</ele>
        <time>2015-07-13T18:51:47.907Z</time>
      </trkpt>
      <trkpt lat="48.87696" lon="2.37884">
        <ele>137.7</ele>
        <time>2015-07-13T18:51:48.923Z</time>
      </trkpt>
      <trkpt lat="48.877" lon="2.37881">
        <ele>137.6</ele>
        <time>2015-07-13T18:51:49.859Z</time>
      </trkpt>
      <trkpt lat="48.87708" lon="2.37875">
        <ele>137.5</ele>
        <time>2015-07-13T18:51:51.878Z</time>
      </trkpt>
      <trkpt lat="48.87711" lon="2.3787">
        <ele>137.5</ele>
        <time>2015-07-13T18:51:52.897Z</time>
      </trkpt>
      <trkpt lat="48.87718" lon="2.37862">
        <ele>137.5</ele>
        <time>2015-07-13T18:51:54.850Z</time>
      </trkpt>
      <trkpt lat="48.87722" lon="2.37858">
        <ele>137.4</ele>
        <time>2015-07-13T18:51:55.885Z</time>
      </trkpt>
      <trkpt lat="48.87726" lon="2.37855">
        <ele>137.5</ele>
        <time>2015-07-13T18:51:56.869Z</time>
      </trkpt>
      <trkpt lat="48.87732" lon="2.37851">
        <ele>137.6</ele>
        <time>2015-07-13T18:51:57.872Z</time>
      </trkpt>
      <trkpt lat="48.87736" lon="2.37849">
        <ele>137.7</ele>
        <time>2015-07-13T18:51:58.877Z</time>
      </trkpt>
      <trkpt lat="48.87741" lon="2.37846">
        <ele>137.7</ele>
        <time>2015-07-13T18:51:59.920Z</time>
      </trkpt>
      <trkpt lat="48.87745" lon="2.37844">
        <ele>137.7</ele>
        <time>2015-07-13T18:52:00.934Z</time>
      </trkpt>
      <trkpt lat="48.87749" lon="2.37842">
        <ele>137.8</ele>
        <time>2015-07-13T18:52:01.841Z</time>
      </trkpt>
      <trkpt lat="48.87753" lon="2.37839">
        <ele>137.8</ele>
        <time>2015-07-13T18:52:02.842Z</time>
      </trkpt>
      <trkpt lat="48.87759" lon="2.37836">
        <ele>137.8</ele>
        <time>2015-07-13T18:52:03.861Z</time>
      </trkpt>
      <trkpt lat="48.87764" lon="2.37834">
        <ele>138</ele>
        <time>2015-07-13T18:52:04.873Z</time>
      </trkpt>
      <trkpt lat="48.87771" lon="2.37833">
        <ele>138.2</ele>
        <time>2015-07-13T18:52:05.890Z</time>
      </trkpt>
      <trkpt lat="48.87778" lon="2.37831">
        <ele>138.1</ele>
        <time>2015-07-13T18:52:06.896Z</time>
      </trkpt>
      <trkpt lat="48.87785" lon="2.3783">
        <ele>138</ele>
        <time>2015-07-13T18:52:07.924Z</time>
      </trkpt>
      <trkpt lat="48.87792" lon="2.3783">
        <ele>138.2</ele>
        <time>2015-07-13T18:52:08.972Z</time>
      </trkpt>
      <trkpt lat="48.87799" lon="2.3783">
        <ele>138.4</ele>
        <time>2015-07-13T18:52:09.817Z</time>
      </trkpt>
      <trkpt lat="48.87805" lon="2.3783">
        <ele>138.5</ele>
        <time>2015-07-13T18:52:10.882Z</time>
      </trkpt>
      <trkpt lat="48.87813" lon="2.37831">
        <ele>138.7</ele>
        <time>2015-07-13T18:52:11.894Z</time>
      </trkpt>
      <trkpt lat="48.87819" lon="2.37831">
        <ele>138.9</ele>
        <time>2015-07-13T18:52:12.832Z</time>
      </trkpt>
      <trkpt lat="48.87825" lon="2.37832">
        <ele>138.9</ele>
        <time>2015-07-13T18:52:13.834Z</time>
      </trkpt>
      <trkpt lat="48.8783" lon="2.37832">
        <ele>139.1</ele>
        <time>2015-07-13T18:52:14.877Z</time>
      </trkpt>
      <trkpt lat="48.87836" lon="2.37833">
        <ele>138.9</ele>
        <time>2015-07-13T18:52:15.920Z</time>
      </trkpt>
      <trkpt lat="48.87843" lon="2.37834">
        <ele>138.6</ele>
        <time>2015-07-13T18:52:16.854Z</time>
      </trkpt>
      <trkpt lat="48.87847" lon="2.37836">
        <ele>138.7</ele>
        <time>2015-07-13T18:52:17.894Z</time>
      </trkpt>
      <trkpt lat="48.87854" lon="2.3784">
        <ele>139.2</ele>
        <time>2015-07-13T18:52:19.911Z</time>
      </trkpt>
      <trkpt lat="48.87857" lon="2.37842">
        <ele>139.2</ele>
        <time>2015-07-13T18:52:20.936Z</time>
      </trkpt>
      <trkpt lat="48.87863" lon="2.37848">
        <ele>139.4</ele>
        <time>2015-07-13T18:52:22.860Z</time>
      </trkpt>
      <trkpt lat="48.87868" lon="2.37853">
        <ele>139.4</ele>
        <time>2015-07-13T18:52:23.913Z</time>
      </trkpt>
      <trkpt lat="48.87873" lon="2.37855">
        <ele>139.2</ele>
        <time>2015-07-13T18:52:24.837Z</time>
      </trkpt>
      <trkpt lat="48.87876" lon="2.37858">
        <ele>139.1</ele>
        <time>2015-07-13T18:52:25.861Z</time>
      </trkpt>
      <trkpt lat="48.87884" lon="2.37864">
        <ele>139.3</ele>
        <time>2015-07-13T18:52:27.906Z</time>
      </trkpt>
      <trkpt lat="48.87888" lon="2.37867">
        <ele>139.3</ele>
        <time>2015-07-13T18:52:28.946Z</time>
      </trkpt>
      <trkpt lat="48.87895" lon="2.37874">
        <ele>139.6</ele>
        <time>2015-07-13T18:52:30.848Z</time>
      </trkpt>
      <trkpt lat="48.87898" lon="2.37877">
        <ele>139.7</ele>
        <time>2015-07-13T18:52:31.867Z</time>
      </trkpt>
      <trkpt lat="48.87902" lon="2.37881">
        <ele>140</ele>
        <time>2015-07-13T18:52:32.894Z</time>
      </trkpt>
      <trkpt lat="48.87906" lon="2.37884">
        <ele>140.2</ele>
        <time>2015-07-13T18:52:33.907Z</time>
      </trkpt>
      <trkpt lat="48.87913" lon="2.3789">
        <ele>140.4</ele>
        <time>2015-07-13T18:52:35.868Z</time>
      </trkpt>
      <trkpt lat="48.87918" lon="2.37894">
        <ele>140.6</ele>
        <time>2015-07-13T18:52:36.878Z</time>
      </trkpt>
      <trkpt lat="48.87924" lon="2.37897">
        <ele>140.7</ele>
        <time>2015-07-13T18:52:37.885Z</time>
      </trkpt>
      <trkpt lat="48.8793" lon="2.379">
        <ele>140.8</ele>
        <time>2015-07-13T18:52:38.886Z</time>
      </trkpt>
      <trkpt lat="48.87936" lon="2.37904">
        <ele>141.1</ele>
        <time>2015-07-13T18:52:39.913Z</time>
      </trkpt>
      <trkpt lat="48.87942" lon="2.37907">
        <ele>141.4</ele>
        <time>2015-07-13T18:52:40.913Z</time>
      </trkpt>
      <trkpt lat="48.87949" lon="2.37912">
        <ele>141.6</ele>
        <time>2015-07-13T18:52:41.951Z</time>
      </trkpt>
      <trkpt lat="48.87955" lon="2.37915">
        <ele>141.7</ele>
        <time>2015-07-13T18:52:42.842Z</time>
      </trkpt>
      <trkpt lat="48.8796" lon="2.37919">
        <ele>141.8</ele>
        <time>2015-07-13T18:52:43.844Z</time>
      </trkpt>
      <trkpt lat="48.87966" lon="2.37922">
        <ele>142</ele>
        <time>2015-07-13T18:52:44.854Z</time>
      </trkpt>
      <trkpt lat="48.8797" lon="2.37925">
        <ele>142.2</ele>
        <time>2015-07-13T18:52:45.864Z</time>
      </trkpt>
      <trkpt lat="48.87974" lon="2.37929">
        <ele>142.4</ele>
        <time>2015-07-13T18:52:46.873Z</time>
      </trkpt>
      <trkpt lat="48.8798" lon="2.37937">
        <ele>142.4</ele>
        <time>2015-07-13T18:52:47.880Z</time>
      </trkpt>
      <trkpt lat="48.87985" lon="2.37943">
        <ele>142.4</ele>
        <time>2015-07-13T18:52:48.883Z</time>
      </trkpt>
      <trkpt lat="48.87991" lon="2.37949">
        <ele>142.5</ele>
        <time>2015-07-13T18:52:49.896Z</time>
      </trkpt>
      <trkpt lat="48.87996" lon="2.37955">
        <ele>142.6</ele>
        <time>2015-07-13T18:52:50.912Z</time>
      </trkpt>
      <trkpt lat="48.88" lon="2.37961">
        <ele>142.7</ele>
        <time>2015-07-13T18:52:51.932Z</time>
      </trkpt>
      <trkpt lat="48.88005" lon="2.37967">
        <ele>142.7</ele>
        <time>2015-07-13T18:52:52.838Z</time>
      </trkpt>
      <trkpt lat="48.8801" lon="2.37973">
        <ele>142.8</ele>
        <time>2015-07-13T18:52:53.905Z</time>
      </trkpt>
      <trkpt lat="48.88018" lon="2.37976">
        <ele>140.8</ele>
        <time>2015-07-13T18:52:54.948Z</time>
      </trkpt>
      <trkpt lat="48.88024" lon="2.37981">
        <ele>140.5</ele>
        <time>2015-07-13T18:52:55.847Z</time>
      </trkpt>
      <trkpt lat="48.88029" lon="2.37986">
        <ele>140.6</ele>
        <time>2015-07-13T18:52:56.855Z</time>
      </trkpt>
      <trkpt lat="48.88035" lon="2.37992">
        <ele>140.7</ele>
        <time>2015-07-13T18:52:57.863Z</time>
      </trkpt>
      <trkpt lat="48.88041" lon="2.37997">
        <ele>140.7</ele>
        <time>2015-07-13T18:52:58.872Z</time>
      </trkpt>
      <trkpt lat="48.88047" lon="2.38003">
        <ele>140.9</ele>
        <time>2015-07-13T18:52:59.930Z</time>
      </trkpt>
      <trkpt lat="48.88053" lon="2.38009">
        <ele>141.1</ele>
        <time>2015-07-13T18:53:00.844Z</time>
      </trkpt>
      <trkpt lat="48.88058" lon="2.38013">
        <ele>141.3</ele>
        <time>2015-07-13T18:53:01.842Z</time>
      </trkpt>
      <trkpt lat="48.88064" lon="2.38019">
        <ele>141.3</ele>
        <time>2015-07-13T18:53:02.882Z</time>
      </trkpt>
      <trkpt lat="48.8807" lon="2.38025">
        <ele>141.4</ele>
        <time>2015-07-13T18:53:03.889Z</time>
      </trkpt>
      <trkpt lat="48.88076" lon="2.38031">
        <ele>141.5</ele>
        <time>2015-07-13T18:53:04.895Z</time>
      </trkpt>
      <trkpt lat="48.88082" lon="2.38037">
        <ele>141.6</ele>
        <time>2015-07-13T18:53:05.920Z</time>
      </trkpt>
      <trkpt lat="48.88087" lon="2.38043">
        <ele>141.6</ele>
        <time>2015-07-13T18:53:06.844Z</time>
      </trkpt>
      <trkpt lat="48.88093" lon="2.38049">
        <ele>141.7</ele>
        <time>2015-07-13T18:53:07.845Z</time>
      </trkpt>
      <trkpt lat="48.88099" lon="2.38055">
        <ele>141.6</ele>
        <time>2015-07-13T18:53:08.844Z</time>
      </trkpt>
      <trkpt lat="48.88109" lon="2.38059">
        <ele>141.8</ele>
        <time>2015-07-13T18:53:09.847Z</time>
      </trkpt>
      <trkpt lat="48.88115" lon="2.38064">
        <ele>141.9</ele>
        <time>2015-07-13T18:53:10.859Z</time>
      </trkpt>
      <trkpt lat="48.88122" lon="2.38068">
        <ele>142.2</ele>
        <time>2015-07-13T18:53:11.928Z</time>
      </trkpt>
      <trkpt lat="48.88128" lon="2.38073">
        <ele>142.3</ele>
        <time>2015-07-13T18:53:12.927Z</time>
      </trkpt>
      <trkpt lat="48.88133" lon="2.38079">
        <ele>142.2</ele>
        <time>2015-07-13T18:53:13.859Z</time>
      </trkpt>
      <trkpt lat="48.88139" lon="2.38086">
        <ele>142.1</ele>
        <time>2015-07-13T18:53:14.823Z</time>
      </trkpt>
      <trkpt lat="48.88144" lon="2.38092">
        <ele>141.9</ele>
        <time>2015-07-13T18:53:15.894Z</time>
      </trkpt>
      <trkpt lat="48.8815" lon="2.381">
        <ele>141.9</ele>
        <time>2015-07-13T18:53:16.927Z</time>
      </trkpt>
      <trkpt lat="48.88156" lon="2.38107">
        <ele>141.8</ele>
        <time>2015-07-13T18:53:17.938Z</time>
      </trkpt>
      <trkpt lat="48.88162" lon="2.38114">
        <ele>141.8</ele>
        <time>2015-07-13T18:53:18.867Z</time>
      </trkpt>
      <trkpt lat="48.88167" lon="2.38121">
        <ele>141.6</ele>
        <time>2015-07-13T18:53:19.892Z</time>
      </trkpt>
      <trkpt lat="48.88173" lon="2.38128">
        <ele>141.5</ele>
        <time>2015-07-13T18:53:20.905Z</time>
      </trkpt>
      <trkpt lat="48.8818" lon="2.38135">
        <ele>140.5</ele>
        <time>2015-07-13T18:53:21.912Z</time>
      </trkpt>
      <trkpt lat="48.88187" lon="2.38141">
        <ele>140.5</ele>
        <time>2015-07-13T18:53:22.929Z</time>
      </trkpt>
      <trkpt lat="48.88193" lon="2.38148">
        <ele>140.6</ele>
        <time>2015-07-13T18:53:23.946Z</time>
      </trkpt>
      <trkpt lat="48.88199" lon="2.38155">
        <ele>140.6</ele>
        <time>2015-07-13T18:53:24.865Z</time>
      </trkpt>
      <trkpt lat="48.88206" lon="2.38161">
        <ele>140.6</ele>
        <time>2015-07-13T18:53:25.875Z</time>
      </trkpt>
      <trkpt lat="48.88212" lon="2.38166">
        <ele>140.5</ele>
        <time>2015-07-13T18:53:26.854Z</time>
      </trkpt>
      <trkpt lat="48.88217" lon="2.38171">
        <ele>140.5</ele>
        <time>2015-07-13T18:53:27.862Z</time>
      </trkpt>
      <trkpt lat="48.8822" lon="2.38183">
        <ele>139.8</ele>
        <time>2015-07-13T18:53:29.939Z</time>
      </trkpt>
      <trkpt lat="48.88219" lon="2.38191">
        <ele>139.5</ele>
        <time>2015-07-13T18:53:30.881Z</time>
      </trkpt>
      <trkpt lat="48.88219" lon="2.38203">
        <ele>139</ele>
        <time>2015-07-13T18:53:32.932Z</time>
      </trkpt>
      <trkpt lat="48.88219" lon="2.38208">
        <ele>138.7</ele>
        <time>2015-07-13T18:53:33.845Z</time>
      </trkpt>
      <trkpt lat="48.88226" lon="2.38217">
        <ele>136.6</ele>
        <time>2015-07-13T18:53:37.905Z</time>
      </trkpt>
      <trkpt lat="48.88229" lon="2.38217">
        <ele>135.1</ele>
        <time>2015-07-13T18:53:38.919Z</time>
      </trkpt>
      <trkpt lat="48.88236" lon="2.38211">
        <ele>129.4</ele>
        <time>2015-07-13T18:53:43.896Z</time>
      </trkpt>
      <trkpt lat="48.88238" lon="2.38209">
        <ele>129.3</ele>
        <time>2015-07-13T18:53:44.835Z</time>
      </trkpt>
      <trkpt lat="48.88246" lon="2.38207">
        <ele>128.1</ele>
        <time>2015-07-13T18:53:49.896Z</time>
      </trkpt>
      <trkpt lat="48.88248" lon="2.38208">
        <ele>128.2</ele>
        <time>2015-07-13T18:53:50.923Z</time>
      </trkpt>
      <trkpt lat="48.88256" lon="2.38209">
        <ele>123.1</ele>
        <time>2015-07-13T18:54:01.881Z</time>
      </trkpt>
      <trkpt lat="48.88258" lon="2.38209">
        <ele>123.2</ele>
        <time>2015-07-13T18:54:02.884Z</time>
      </trkpt>
      <trkpt lat="48.88263" lon="2.38216">
        <ele>123.3</ele>
        <time>2015-07-13T18:54:07.996Z</time>
      </trkpt>
      <trkpt lat="48.88263" lon="2.38216">
        <ele>123</ele>
        <time>2015-07-13T18:54:09.011Z</time>
      </trkpt>
      <trkpt lat="48.88263" lon="2.38216">
        <ele>123</ele>
        <time>2015-07-13T18:55:05.945Z</time>
      </trkpt>
      <trkpt lat="48.88259" lon="2.38219">
        <ele>122</ele>
        <time>2015-07-13T18:55:06.863Z</time>
      </trkpt>
      <trkpt lat="48.88263" lon="2.38229">
        <ele>123.4</ele>
        <time>2015-07-13T18:55:11.932Z</time>
      </trkpt>
      <trkpt lat="48.88264" lon="2.38231">
        <ele>124</ele>
        <time>2015-07-13T18:55:12.969Z</time>
      </trkpt>
      <trkpt lat="48.88271" lon="2.38238">
        <ele>125.3</ele>
        <time>2015-07-13T18:55:18.869Z</time>
      </trkpt>
      <trkpt lat="48.88273" lon="2.38239">
        <ele>125.3</ele>
        <time>2015-07-13T18:55:19.881Z</time>
      </trkpt>
      <trkpt lat="48.8828" lon="2.38241">
        <ele>125.6</ele>
        <time>2015-07-13T18:55:22.941Z</time>
      </trkpt>
      <trkpt lat="48.88282" lon="2.38242">
        <ele>125.7</ele>
        <time>2015-07-13T18:55:23.952Z</time>
      </trkpt>
      <trkpt lat="48.88287" lon="2.3825">
        <ele>125.6</ele>
        <time>2015-07-13T18:55:27.831Z</time>
      </trkpt>
      <trkpt lat="48.88289" lon="2.38253">
        <ele>125.6</ele>
        <time>2015-07-13T18:55:28.873Z</time>
      </trkpt>
      <trkpt lat="48.88292" lon="2.38263">
        <ele>125</ele>
        <time>2015-07-13T18:55:32.862Z</time>
      </trkpt>
      <trkpt lat="48.88293" lon="2.38266">
        <ele>125</ele>
        <time>2015-07-13T18:55:33.956Z</time>
      </trkpt>
      <trkpt lat="48.88299" lon="2.38275">
        <ele>124.9</ele>
        <time>2015-07-13T18:55:36.965Z</time>
      </trkpt>
      <trkpt lat="48.88302" lon="2.38277">
        <ele>124.8</ele>
        <time>2015-07-13T18:55:37.965Z</time>
      </trkpt>
      <trkpt lat="48.88307" lon="2.38283">
        <ele>124.5</ele>
        <time>2015-07-13T18:55:39.904Z</time>
      </trkpt>
      <trkpt lat="48.88309" lon="2.38286">
        <ele>124.6</ele>
        <time>2015-07-13T18:55:40.941Z</time>
      </trkpt>
      <trkpt lat="48.88315" lon="2.38295">
        <ele>124.3</ele>
        <time>2015-07-13T18:55:43.906Z</time>
      </trkpt>
      <trkpt lat="48.88318" lon="2.38298">
        <ele>124.3</ele>
        <time>2015-07-13T18:55:44.950Z</time>
      </trkpt>
      <trkpt lat="48.88323" lon="2.38308">
        <ele>124.2</ele>
        <time>2015-07-13T18:55:47.948Z</time>
      </trkpt>
      <trkpt lat="48.88325" lon="2.38311">
        <ele>124.2</ele>
        <time>2015-07-13T18:55:48.901Z</time>
      </trkpt>
      <trkpt lat="48.88331" lon="2.38317">
        <ele>124.1</ele>
        <time>2015-07-13T18:55:50.870Z</time>
      </trkpt>
      <trkpt lat="48.88333" lon="2.38319">
        <ele>124.1</ele>
        <time>2015-07-13T18:55:51.899Z</time>
      </trkpt>
      <trkpt lat="48.88339" lon="2.38324">
        <ele>123.9</ele>
        <time>2015-07-13T18:55:53.936Z</time>
      </trkpt>
      <trkpt lat="48.88342" lon="2.38326">
        <ele>123.7</ele>
        <time>2015-07-13T18:55:54.918Z</time>
      </trkpt>
      <trkpt lat="48.88349" lon="2.38331">
        <ele>123.7</ele>
        <time>2015-07-13T18:55:56.909Z</time>
      </trkpt>
      <trkpt lat="48.88353" lon="2.38334">
        <ele>123.6</ele>
        <time>2015-07-13T18:55:57.926Z</time>
      </trkpt>
      <trkpt lat="48.8836" lon="2.38342">
        <ele>123.2</ele>
        <time>2015-07-13T18:55:59.976Z</time>
      </trkpt>
      <trkpt lat="48.88364" lon="2.38348">
        <ele>123</ele>
        <time>2015-07-13T18:56:00.855Z</time>
      </trkpt>
      <trkpt lat="48.88369" lon="2.38353">
        <ele>122.8</ele>
        <time>2015-07-13T18:56:01.848Z</time>
      </trkpt>
      <trkpt lat="48.88374" lon="2.38357">
        <ele>122.6</ele>
        <time>2015-07-13T18:56:02.881Z</time>
      </trkpt>
      <trkpt lat="48.88378" lon="2.38361">
        <ele>122.5</ele>
        <time>2015-07-13T18:56:03.900Z</time>
      </trkpt>
      <trkpt lat="48.88381" lon="2.38366">
        <ele>122.5</ele>
        <time>2015-07-13T18:56:04.915Z</time>
      </trkpt>
      <trkpt lat="48.88387" lon="2.38376">
        <ele>122.4</ele>
        <time>2015-07-13T18:56:06.836Z</time>
      </trkpt>
      <trkpt lat="48.8839" lon="2.38381">
        <ele>122.3</ele>
        <time>2015-07-13T18:56:07.839Z</time>
      </trkpt>
      <trkpt lat="48.88396" lon="2.38389">
        <ele>122.3</ele>
        <time>2015-07-13T18:56:09.913Z</time>
      </trkpt>
      <trkpt lat="48.88399" lon="2.38395">
        <ele>122.2</ele>
        <time>2015-07-13T18:56:10.997Z</time>
      </trkpt>
      <trkpt lat="48.88403" lon="2.38404">
        <ele>122.2</ele>
        <time>2015-07-13T18:56:12.923Z</time>
      </trkpt>
      <trkpt lat="48.88406" lon="2.38407">
        <ele>122.3</ele>
        <time>2015-07-13T18:56:13.890Z</time>
      </trkpt>
      <trkpt lat="48.88415" lon="2.38407">
        <ele>121.7</ele>
        <time>2015-07-13T18:56:17.945Z</time>
      </trkpt>
      <trkpt lat="48.88418" lon="2.38406">
        <ele>121.4</ele>
        <time>2015-07-13T18:56:18.854Z</time>
      </trkpt>
      <trkpt lat="48.88425" lon="2.384">
        <ele>120.9</ele>
        <time>2015-07-13T18:56:21.897Z</time>
      </trkpt>
      <trkpt lat="48.88428" lon="2.38398">
        <ele>120.8</ele>
        <time>2015-07-13T18:56:22.829Z</time>
      </trkpt>
      <trkpt lat="48.88435" lon="2.38394">
        <ele>120.8</ele>
        <time>2015-07-13T18:56:24.924Z</time>
      </trkpt>
      <trkpt lat="48.88439" lon="2.38391">
        <ele>120.1</ele>
        <time>2015-07-13T18:56:25.829Z</time>
      </trkpt>
      <trkpt lat="48.88445" lon="2.38385">
        <ele>119</ele>
        <time>2015-07-13T18:56:27.905Z</time>
      </trkpt>
      <trkpt lat="48.88448" lon="2.38382">
        <ele>118.6</ele>
        <time>2015-07-13T18:56:28.839Z</time>
      </trkpt>
      <trkpt lat="48.88454" lon="2.38377">
        <ele>118</ele>
        <time>2015-07-13T18:56:30.890Z</time>
      </trkpt>
      <trkpt lat="48.88457" lon="2.38373">
        <ele>118</ele>
        <time>2015-07-13T18:56:31.945Z</time>
      </trkpt>
      <trkpt lat="48.88462" lon="2.38364">
        <ele>117.9</ele>
        <time>2015-07-13T18:56:33.858Z</time>
      </trkpt>
      <trkpt lat="48.88466" lon="2.38359">
        <ele>117.1</ele>
        <time>2015-07-13T18:56:34.872Z</time>
      </trkpt>
      <trkpt lat="48.8847" lon="2.38355">
        <ele>116.6</ele>
        <time>2015-07-13T18:56:35.904Z</time>
      </trkpt>
      <trkpt lat="48.88474" lon="2.3835">
        <ele>116.1</ele>
        <time>2015-07-13T18:56:36.930Z</time>
      </trkpt>
      <trkpt lat="48.88478" lon="2.38346">
        <ele>115.6</ele>
        <time>2015-07-13T18:56:37.859Z</time>
      </trkpt>
      <trkpt lat="48.88483" lon="2.38342">
        <ele>115.3</ele>
        <time>2015-07-13T18:56:38.874Z</time>
      </trkpt>
      <trkpt lat="48.88487" lon="2.38339">
        <ele>115.1</ele>
        <time>2015-07-13T18:56:40.094Z</time>
      </trkpt>
      <trkpt lat="48.8849" lon="2.38334">
        <ele>115</ele>
        <time>2015-07-13T18:56:40.924Z</time>
      </trkpt>
      <trkpt lat="48.88494" lon="2.3833">
        <ele>115.1</ele>
        <time>2015-07-13T18:56:41.968Z</time>
      </trkpt>
      <trkpt lat="48.88498" lon="2.38324">
        <ele>114.9</ele>
        <time>2015-07-13T18:56:42.899Z</time>
      </trkpt>
      <trkpt lat="48.88502" lon="2.3832">
        <ele>114.8</ele>
        <time>2015-07-13T18:56:43.937Z</time>
      </trkpt>
      <trkpt lat="48.88506" lon="2.38317">
        <ele>115.1</ele>
        <time>2015-07-13T18:56:44.844Z</time>
      </trkpt>
      <trkpt lat="48.8851" lon="2.38314">
        <ele>114.8</ele>
        <time>2015-07-13T18:56:45.853Z</time>
      </trkpt>
      <trkpt lat="48.88514" lon="2.38309">
        <ele>114.5</ele>
        <time>2015-07-13T18:56:46.860Z</time>
      </trkpt>
      <trkpt lat="48.88518" lon="2.38305">
        <ele>114.3</ele>
        <time>2015-07-13T18:56:47.885Z</time>
      </trkpt>
      <trkpt lat="48.88522" lon="2.38301">
        <ele>113.8</ele>
        <time>2015-07-13T18:56:48.879Z</time>
      </trkpt>
      <trkpt lat="48.88526" lon="2.38298">
        <ele>113.6</ele>
        <time>2015-07-13T18:56:49.889Z</time>
      </trkpt>
      <trkpt lat="48.8853" lon="2.38294">
        <ele>113.5</ele>
        <time>2015-07-13T18:56:50.899Z</time>
      </trkpt>
      <trkpt lat="48.88535" lon="2.3829">
        <ele>113.4</ele>
        <time>2015-07-13T18:56:51.923Z</time>
      </trkpt>
      <trkpt lat="48.88539" lon="2.38286">
        <ele>113.3</ele>
        <time>2015-07-13T18:56:52.855Z</time>
      </trkpt>
      <trkpt lat="48.88542" lon="2.38282">
        <ele>113.2</ele>
        <time>2015-07-13T18:56:53.966Z</time>
      </trkpt>
      <trkpt lat="48.88546" lon="2.38277">
        <ele>113.1</ele>
        <time>2015-07-13T18:56:54.854Z</time>
      </trkpt>
      <trkpt lat="48.88551" lon="2.38273">
        <ele>112.9</ele>
        <time>2015-07-13T18:56:55.871Z</time>
      </trkpt>
      <trkpt lat="48.88555" lon="2.38269">
        <ele>112.8</ele>
        <time>2015-07-13T18:56:56.888Z</time>
      </trkpt>
      <trkpt lat="48.88558" lon="2.38265">
        <ele>112.7</ele>
        <time>2015-07-13T18:56:57.862Z</time>
      </trkpt>
      <trkpt lat="48.88561" lon="2.3826">
        <ele>112.7</ele>
        <time>2015-07-13T18:56:58.854Z</time>
      </trkpt>
      <trkpt lat="48.88565" lon="2.38253">
        <ele>112.9</ele>
        <time>2015-07-13T18:56:59.931Z</time>
      </trkpt>
      <trkpt lat="48.88569" lon="2.38249">
        <ele>112.8</ele>
        <time>2015-07-13T18:57:00.847Z</time>
      </trkpt>
      <trkpt lat="48.88576" lon="2.38242">
        <ele>112.8</ele>
        <time>2015-07-13T18:57:02.873Z</time>
      </trkpt>
      <trkpt lat="48.88579" lon="2.38239">
        <ele>112.8</ele>
        <time>2015-07-13T18:57:03.914Z</time>
      </trkpt>
      <trkpt lat="48.88586" lon="2.38231">
        <ele>113.1</ele>
        <time>2015-07-13T18:57:06.840Z</time>
      </trkpt>
      <trkpt lat="48.88588" lon="2.38228">
        <ele>113.1</ele>
        <time>2015-07-13T18:57:07.884Z</time>
      </trkpt>
      <trkpt lat="48.88592" lon="2.38223">
        <ele>112.9</ele>
        <time>2015-07-13T18:57:11.888Z</time>
      </trkpt>
      <trkpt lat="48.8859" lon="2.38224">
        <ele>110.9</ele>
        <time>2015-07-13T18:57:12.905Z</time>
      </trkpt>
      <trkpt lat="48.8859" lon="2.38224">
        <ele>110</ele>
        <time>2015-07-13T18:57:17.891Z</time>
      </trkpt>
      <trkpt lat="48.88592" lon="2.38225">
        <ele>109.9</ele>
        <time>2015-07-13T18:57:18.946Z</time>
      </trkpt>
      <trkpt lat="48.88599" lon="2.3822">
        <ele>110.2</ele>
        <time>2015-07-13T18:57:22.944Z</time>
      </trkpt>
      <trkpt lat="48.88601" lon="2.38217">
        <ele>110.3</ele>
        <time>2015-07-13T18:57:23.952Z</time>
      </trkpt>
      <trkpt lat="48.88606" lon="2.38212">
        <ele>110.3</ele>
        <time>2015-07-13T18:57:25.855Z</time>
      </trkpt>
      <trkpt lat="48.88609" lon="2.38209">
        <ele>110.3</ele>
        <time>2015-07-13T18:57:26.968Z</time>
      </trkpt>
      <trkpt lat="48.88614" lon="2.38202">
        <ele>109.7</ele>
        <time>2015-07-13T18:57:28.856Z</time>
      </trkpt>
      <trkpt lat="48.88617" lon="2.38199">
        <ele>109.6</ele>
        <time>2015-07-13T18:57:29.935Z</time>
      </trkpt>
      <trkpt lat="48.88622" lon="2.38193">
        <ele>109.1</ele>
        <time>2015-07-13T18:57:31.924Z</time>
      </trkpt>
      <trkpt lat="48.88625" lon="2.3819">
        <ele>108.9</ele>
        <time>2015-07-13T18:57:32.860Z</time>
      </trkpt>
      <trkpt lat="48.8863" lon="2.38183">
        <ele>108.3</ele>
        <time>2015-07-13T18:57:34.843Z</time>
      </trkpt>
      <trkpt lat="48.88633" lon="2.38179">
        <ele>107.9</ele>
        <time>2015-07-13T18:57:35.902Z</time>
      </trkpt>
      <trkpt lat="48.88639" lon="2.38173">
        <ele>107.4</ele>
        <time>2015-07-13T18:57:37.855Z</time>
      </trkpt>
      <trkpt lat="48.88642" lon="2.3817">
        <ele>107.3</ele>
        <time>2015-07-13T18:57:38.873Z</time>
      </trkpt>
      <trkpt lat="48.88648" lon="2.38163">
        <ele>107.1</ele>
        <time>2015-07-13T18:57:40.867Z</time>
      </trkpt>
      <trkpt lat="48.88651" lon="2.3816">
        <ele>107.2</ele>
        <time>2015-07-13T18:57:41.914Z</time>
      </trkpt>
      <trkpt lat="48.88658" lon="2.38154">
        <ele>107.5</ele>
        <time>2015-07-13T18:57:43.840Z</time>
      </trkpt>
      <trkpt lat="48.88662" lon="2.38151">
        <ele>107.5</ele>
        <time>2015-07-13T18:57:44.875Z</time>
      </trkpt>
      <trkpt lat="48.88668" lon="2.38144">
        <ele>107.4</ele>
        <time>2015-07-13T18:57:46.842Z</time>
      </trkpt>
      <trkpt lat="48.88671" lon="2.38141">
        <ele>107.4</ele>
        <time>2015-07-13T18:57:47.950Z</time>
      </trkpt>
      <trkpt lat="48.88677" lon="2.38136">
        <ele>107</ele>
        <time>2015-07-13T18:57:49.862Z</time>
      </trkpt>
      <trkpt lat="48.88679" lon="2.38133">
        <ele>107</ele>
        <time>2015-07-13T18:57:50.934Z</time>
      </trkpt>
      <trkpt lat="48.88684" lon="2.38127">
        <ele>107.2</ele>
        <time>2015-07-13T18:57:52.854Z</time>
      </trkpt>
      <trkpt lat="48.88687" lon="2.38124">
        <ele>107.2</ele>
        <time>2015-07-13T18:57:53.928Z</time>
      </trkpt>
      <trkpt lat="48.88693" lon="2.38118">
        <ele>107.4</ele>
        <time>2015-07-13T18:57:56.178Z</time>
      </trkpt>
      <trkpt lat="48.88696" lon="2.38115">
        <ele>107.2</ele>
        <time>2015-07-13T18:57:56.891Z</time>
      </trkpt>
      <trkpt lat="48.88702" lon="2.3811">
        <ele>107.1</ele>
        <time>2015-07-13T18:57:58.859Z</time>
      </trkpt>
      <trkpt lat="48.88705" lon="2.38107">
        <ele>107.1</ele>
        <time>2015-07-13T18:57:59.921Z</time>
      </trkpt>
      <trkpt lat="48.88712" lon="2.38103">
        <ele>107</ele>
        <time>2015-07-13T18:58:01.844Z</time>
      </trkpt>
      <trkpt lat="48.88715" lon="2.38099">
        <ele>107</ele>
        <time>2015-07-13T18:58:02.883Z</time>
      </trkpt>
      <trkpt lat="48.88722" lon="2.38094">
        <ele>106.8</ele>
        <time>2015-07-13T18:58:04.851Z</time>
      </trkpt>
      <trkpt lat="48.88724" lon="2.38091">
        <ele>106.8</ele>
        <time>2015-07-13T18:58:05.898Z</time>
      </trkpt>
      <trkpt lat="48.88726" lon="2.38085">
        <ele>107</ele>
        <time>2015-07-13T18:58:06.890Z</time>
      </trkpt>
      <trkpt lat="48.88729" lon="2.38079">
        <ele>107</ele>
        <time>2015-07-13T18:58:07.919Z</time>
      </trkpt>
      <trkpt lat="48.88736" lon="2.38073">
        <ele>106.8</ele>
        <time>2015-07-13T18:58:09.871Z</time>
      </trkpt>
      <trkpt lat="48.88739" lon="2.38071">
        <ele>106.7</ele>
        <time>2015-07-13T18:58:10.895Z</time>
      </trkpt>
      <trkpt lat="48.88745" lon="2.38064">
        <ele>106.4</ele>
        <time>2015-07-13T18:58:13.318Z</time>
      </trkpt>
      <trkpt lat="48.88748" lon="2.38062">
        <ele>106.3</ele>
        <time>2015-07-13T18:58:13.933Z</time>
      </trkpt>
      <trkpt lat="48.88755" lon="2.38055">
        <ele>106.3</ele>
        <time>2015-07-13T18:58:16.897Z</time>
      </trkpt>
      <trkpt lat="48.88757" lon="2.38054">
        <ele>106.3</ele>
        <time>2015-07-13T18:58:17.945Z</time>
      </trkpt>
      <trkpt lat="48.88763" lon="2.38046">
        <ele>106.2</ele>
        <time>2015-07-13T18:58:23.880Z</time>
      </trkpt>
      <trkpt lat="48.88764" lon="2.38045">
        <ele>106.4</ele>
        <time>2015-07-13T18:58:24.890Z</time>
      </trkpt>
      <trkpt lat="48.88763" lon="2.38043">
        <ele>106.2</ele>
        <time>2015-07-13T18:58:25.860Z</time>
      </trkpt>
      <trkpt lat="48.88763" lon="2.38043">
        <ele>105.7</ele>
        <time>2015-07-13T18:58:26.828Z</time>
      </trkpt>
      <trkpt lat="48.88763" lon="2.38043">
        <ele>105.9</ele>
        <time>2015-07-13T18:58:33.860Z</time>
      </trkpt>
      <trkpt lat="48.88762" lon="2.3804">
        <ele>106</ele>
        <time>2015-07-13T18:58:34.850Z</time>
      </trkpt>
      <trkpt lat="48.88759" lon="2.38028">
        <ele>105.2</ele>
        <time>2015-07-13T18:58:48.014Z</time>
      </trkpt>
      <trkpt lat="48.8876" lon="2.38027">
        <ele>105.3</ele>
        <time>2015-07-13T18:58:48.919Z</time>
      </trkpt>
      <trkpt lat="48.88764" lon="2.38018">
        <ele>106.1</ele>
        <time>2015-07-13T18:58:52.936Z</time>
      </trkpt>
      <trkpt lat="48.88766" lon="2.38016">
        <ele>106.1</ele>
        <time>2015-07-13T18:58:53.956Z</time>
      </trkpt>
      <trkpt lat="48.88772" lon="2.38011">
        <ele>106.5</ele>
        <time>2015-07-13T18:58:56.860Z</time>
      </trkpt>
      <trkpt lat="48.88774" lon="2.38009">
        <ele>106.7</ele>
        <time>2015-07-13T18:58:57.934Z</time>
      </trkpt>
      <trkpt lat="48.88782" lon="2.38003">
        <ele>106.6</ele>
        <time>2015-07-13T18:59:00.925Z</time>
      </trkpt>
      <trkpt lat="48.88784" lon="2.38001">
        <ele>106.7</ele>
        <time>2015-07-13T18:59:01.821Z</time>
      </trkpt>
      <trkpt lat="48.88792" lon="2.37994">
        <ele>106.7</ele>
        <time>2015-07-13T18:59:04.856Z</time>
      </trkpt>
      <trkpt lat="48.88794" lon="2.37991">
        <ele>106.6</ele>
        <time>2015-07-13T18:59:05.861Z</time>
      </trkpt>
      <trkpt lat="48.88799" lon="2.37987">
        <ele>106.5</ele>
        <time>2015-07-13T18:59:07.870Z</time>
      </trkpt>
      <trkpt lat="48.88802" lon="2.37985">
        <ele>106.5</ele>
        <time>2015-07-13T18:59:08.902Z</time>
      </trkpt>
      <trkpt lat="48.88809" lon="2.37979">
        <ele>106.5</ele>
        <time>2015-07-13T18:59:11.985Z</time>
      </trkpt>
      <trkpt lat="48.88812" lon="2.37978">
        <ele>106.4</ele>
        <time>2015-07-13T18:59:12.946Z</time>
      </trkpt>
      <trkpt lat="48.88818" lon="2.37972">
        <ele>106.4</ele>
        <time>2015-07-13T18:59:16.903Z</time>
      </trkpt>
      <trkpt lat="48.8882" lon="2.37971">
        <ele>106.3</ele>
        <time>2015-07-13T18:59:17.931Z</time>
      </trkpt>
      <trkpt lat="48.88826" lon="2.37965">
        <ele>106.4</ele>
        <time>2015-07-13T18:59:24.896Z</time>
      </trkpt>
      <trkpt lat="48.88826" lon="2.37965">
        <ele>106.5</ele>
        <time>2015-07-13T18:59:25.896Z</time>
      </trkpt>
      <trkpt lat="48.88826" lon="2.37964">
        <ele>106.6</ele>
        <time>2015-07-13T18:59:34.860Z</time>
      </trkpt>
      <trkpt lat="48.88826" lon="2.37962">
        <ele>107.2</ele>
        <time>2015-07-13T18:59:35.893Z</time>
      </trkpt>
      <trkpt lat="48.8883" lon="2.3795">
        <ele>106.9</ele>
        <time>2015-07-13T18:59:42.914Z</time>
      </trkpt>
      <trkpt lat="48.88831" lon="2.37948">
        <ele>107.1</ele>
        <time>2015-07-13T18:59:43.888Z</time>
      </trkpt>
      <trkpt lat="48.88836" lon="2.37942">
        <ele>107.1</ele>
        <time>2015-07-13T18:59:46.919Z</time>
      </trkpt>
      <trkpt lat="48.88838" lon="2.3794">
        <ele>107.2</ele>
        <time>2015-07-13T18:59:47.927Z</time>
      </trkpt>
      <trkpt lat="48.88845" lon="2.37932">
        <ele>107.2</ele>
        <time>2015-07-13T18:59:50.869Z</time>
      </trkpt>
      <trkpt lat="48.88846" lon="2.37929">
        <ele>107</ele>
        <time>2015-07-13T18:59:51.868Z</time>
      </trkpt>
      <trkpt lat="48.88852" lon="2.3792">
        <ele>106.7</ele>
        <time>2015-07-13T18:59:55.889Z</time>
      </trkpt>
      <trkpt lat="48.88854" lon="2.37919">
        <ele>106.7</ele>
        <time>2015-07-13T18:59:56.875Z</time>
      </trkpt>
      <trkpt lat="48.88862" lon="2.37913">
        <ele>107</ele>
        <time>2015-07-13T19:00:01.863Z</time>
      </trkpt>
      <trkpt lat="48.88864" lon="2.37911">
        <ele>107.2</ele>
        <time>2015-07-13T19:00:02.859Z</time>
      </trkpt>
      <trkpt lat="48.88871" lon="2.37903">
        <ele>107</ele>
        <time>2015-07-13T19:00:06.875Z</time>
      </trkpt>
      <trkpt lat="48.88873" lon="2.37901">
        <ele>106.8</ele>
        <time>2015-07-13T19:00:07.879Z</time>
      </trkpt>
      <trkpt lat="48.88879" lon="2.37893">
        <ele>106.6</ele>
        <time>2015-07-13T19:00:10.851Z</time>
      </trkpt>
      <trkpt lat="48.8888" lon="2.37891">
        <ele>106.7</ele>
        <time>2015-07-13T19:00:11.896Z</time>
      </trkpt>
      <trkpt lat="48.88882" lon="2.37881">
        <ele>106.6</ele>
        <time>2015-07-13T19:00:14.856Z</time>
      </trkpt>
      <trkpt lat="48.88882" lon="2.37877">
        <ele>106.5</ele>
        <time>2015-07-13T19:00:15.914Z</time>
      </trkpt>
      <trkpt lat="48.88882" lon="2.37866">
        <ele>106</ele>
        <time>2015-07-13T19:00:18.822Z</time>
      </trkpt>
      <trkpt lat="48.88881" lon="2.37862">
        <ele>105.9</ele>
        <time>2015-07-13T19:00:19.900Z</time>
      </trkpt>
      <trkpt lat="48.88877" lon="2.37849">
        <ele>106.2</ele>
        <time>2015-07-13T19:00:22.911Z</time>
      </trkpt>
      <trkpt lat="48.88877" lon="2.37845">
        <ele>106.4</ele>
        <time>2015-07-13T19:00:23.924Z</time>
      </trkpt>
      <trkpt lat="48.88877" lon="2.37832">
        <ele>107.7</ele>
        <time>2015-07-13T19:00:25.827Z</time>
      </trkpt>
      <trkpt lat="48.88877" lon="2.37826">
        <ele>108.3</ele>
        <time>2015-07-13T19:00:26.867Z</time>
      </trkpt>
      <trkpt lat="48.8888" lon="2.37815">
        <ele>109.3</ele>
        <time>2015-07-13T19:00:28.882Z</time>
      </trkpt>
      <trkpt lat="48.88881" lon="2.37812">
        <ele>109.5</ele>
        <time>2015-07-13T19:00:29.939Z</time>
      </trkpt>
      <trkpt lat="48.88884" lon="2.378">
        <ele>110.1</ele>
        <time>2015-07-13T19:00:34.891Z</time>
      </trkpt>
      <trkpt lat="48.88885" lon="2.37797">
        <ele>110</ele>
        <time>2015-07-13T19:00:35.857Z</time>
      </trkpt>
      <trkpt lat="48.88892" lon="2.37789">
        <ele>109.3</ele>
        <time>2015-07-13T19:00:38.828Z</time>
      </trkpt>
      <trkpt lat="48.88894" lon="2.37787">
        <ele>108.9</ele>
        <time>2015-07-13T19:00:39.844Z</time>
      </trkpt>
      <trkpt lat="48.889" lon="2.37781">
        <ele>108.3</ele>
        <time>2015-07-13T19:00:41.937Z</time>
      </trkpt>
      <trkpt lat="48.88904" lon="2.37777">
        <ele>108</ele>
        <time>2015-07-13T19:00:42.881Z</time>
      </trkpt>
      <trkpt lat="48.88907" lon="2.37771">
        <ele>107.6</ele>
        <time>2015-07-13T19:00:43.897Z</time>
      </trkpt>
      <trkpt lat="48.8891" lon="2.37765">
        <ele>107.3</ele>
        <time>2015-07-13T19:00:44.914Z</time>
      </trkpt>
      <trkpt lat="48.88913" lon="2.37759">
        <ele>107.3</ele>
        <time>2015-07-13T19:00:45.927Z</time>
      </trkpt>
      <trkpt lat="48.88916" lon="2.37752">
        <ele>107</ele>
        <time>2015-07-13T19:00:46.936Z</time>
      </trkpt>
      <trkpt lat="48.8892" lon="2.37746">
        <ele>106.9</ele>
        <time>2015-07-13T19:00:47.885Z</time>
      </trkpt>
      <trkpt lat="48.88923" lon="2.37738">
        <ele>106.7</ele>
        <time>2015-07-13T19:00:48.833Z</time>
      </trkpt>
      <trkpt lat="48.88927" lon="2.37732">
        <ele>106.6</ele>
        <time>2015-07-13T19:00:49.844Z</time>
      </trkpt>
      <trkpt lat="48.8893" lon="2.37725">
        <ele>106.5</ele>
        <time>2015-07-13T19:00:50.859Z</time>
      </trkpt>
      <trkpt lat="48.88933" lon="2.37719">
        <ele>106.3</ele>
        <time>2015-07-13T19:00:51.869Z</time>
      </trkpt>
      <trkpt lat="48.88936" lon="2.37712">
        <ele>105.9</ele>
        <time>2015-07-13T19:00:52.866Z</time>
      </trkpt>
      <trkpt lat="48.88939" lon="2.37705">
        <ele>105.8</ele>
        <time>2015-07-13T19:00:53.955Z</time>
      </trkpt>
      <trkpt lat="48.88942" lon="2.37698">
        <ele>105.7</ele>
        <time>2015-07-13T19:00:54.912Z</time>
      </trkpt>
      <trkpt lat="48.88945" lon="2.37691">
        <ele>105.5</ele>
        <time>2015-07-13T19:00:55.851Z</time>
      </trkpt>
      <trkpt lat="48.88948" lon="2.37684">
        <ele>105.4</ele>
        <time>2015-07-13T19:00:56.872Z</time>
      </trkpt>
      <trkpt lat="48.88951" lon="2.37677">
        <ele>105.3</ele>
        <time>2015-07-13T19:00:57.852Z</time>
      </trkpt>
      <trkpt lat="48.88954" lon="2.3767">
        <ele>105.3</ele>
        <time>2015-07-13T19:00:58.854Z</time>
      </trkpt>
      <trkpt lat="48.88957" lon="2.37664">
        <ele>105.4</ele>
        <time>2015-07-13T19:00:59.932Z</time>
      </trkpt>
      <trkpt lat="48.8896" lon="2.37657">
        <ele>105.4</ele>
        <time>2015-07-13T19:01:00.850Z</time>
      </trkpt>
      <trkpt lat="48.88963" lon="2.37651">
        <ele>105.5</ele>
        <time>2015-07-13T19:01:01.853Z</time>
      </trkpt>
      <trkpt lat="48.88966" lon="2.37644">
        <ele>105.4</ele>
        <time>2015-07-13T19:01:02.863Z</time>
      </trkpt>
      <trkpt lat="48.88969" lon="2.37638">
        <ele>105.5</ele>
        <time>2015-07-13T19:01:03.894Z</time>
      </trkpt>
      <trkpt lat="48.88972" lon="2.37631">
        <ele>105.4</ele>
        <time>2015-07-13T19:01:04.899Z</time>
      </trkpt>
      <trkpt lat="48.88974" lon="2.37626">
        <ele>105.4</ele>
        <time>2015-07-13T19:01:05.919Z</time>
      </trkpt>
      <trkpt lat="48.88978" lon="2.37621">
        <ele>105.3</ele>
        <time>2015-07-13T19:01:06.878Z</time>
      </trkpt>
      <trkpt lat="48.88984" lon="2.37611">
        <ele>105.3</ele>
        <time>2015-07-13T19:01:08.846Z</time>
      </trkpt>
      <trkpt lat="48.88985" lon="2.37606">
        <ele>105.3</ele>
        <time>2015-07-13T19:01:09.866Z</time>
      </trkpt>
      <trkpt lat="48.88985" lon="2.37599">
        <ele>105.2</ele>
        <time>2015-07-13T19:01:10.924Z</time>
      </trkpt>
      <trkpt lat="48.88984" lon="2.37592">
        <ele>105</ele>
        <time>2015-07-13T19:01:11.938Z</time>
      </trkpt>
      <trkpt lat="48.88981" lon="2.37587">
        <ele>104.7</ele>
        <time>2015-07-13T19:01:12.878Z</time>
      </trkpt>
      <trkpt lat="48.88977" lon="2.3758">
        <ele>104</ele>
        <time>2015-07-13T19:01:13.894Z</time>
      </trkpt>
      <trkpt lat="48.8897" lon="2.37572">
        <ele>103.2</ele>
        <time>2015-07-13T19:01:15.846Z</time>
      </trkpt>
      <trkpt lat="48.88969" lon="2.37569">
        <ele>103.3</ele>
        <time>2015-07-13T19:01:16.876Z</time>
      </trkpt>
      <trkpt lat="48.88963" lon="2.3756">
        <ele>103.3</ele>
        <time>2015-07-13T19:01:19.847Z</time>
      </trkpt>
      <trkpt lat="48.88961" lon="2.37557">
        <ele>103.3</ele>
        <time>2015-07-13T19:01:20.851Z</time>
      </trkpt>
      <trkpt lat="48.88957" lon="2.37547">
        <ele>104.1</ele>
        <time>2015-07-13T19:01:23.924Z</time>
      </trkpt>
      <trkpt lat="48.88957" lon="2.37542">
        <ele>105.1</ele>
        <time>2015-07-13T19:01:24.905Z</time>
      </trkpt>
      <trkpt lat="48.88959" lon="2.37539">
        <ele>104.5</ele>
        <time>2015-07-13T19:01:27.884Z</time>
      </trkpt>
      <trkpt lat="48.88959" lon="2.37541">
        <ele>103.6</ele>
        <time>2015-07-13T19:01:28.937Z</time>
      </trkpt>
      <trkpt lat="48.88959" lon="2.37542">
        <ele>103.1</ele>
        <time>2015-07-13T19:02:47.908Z</time>
      </trkpt>
      <trkpt lat="48.88969" lon="2.37548">
        <ele>100.1</ele>
        <time>2015-07-13T19:02:48.915Z</time>
      </trkpt>
      <trkpt lat="48.88971" lon="2.37539">
        <ele>100.7</ele>
        <time>2015-07-13T19:03:05.879Z</time>
      </trkpt>
      <trkpt lat="48.88971" lon="2.37539">
        <ele>100.8</ele>
        <time>2015-07-13T19:03:06.872Z</time>
      </trkpt>
      <trkpt lat="48.8897" lon="2.37539">
        <ele>100.9</ele>
        <time>2015-07-13T19:03:08.910Z</time>
      </trkpt>
      <trkpt lat="48.88969" lon="2.37541">
        <ele>100.6</ele>
        <time>2015-07-13T19:03:09.928Z</time>
      </trkpt>
      <trkpt lat="48.88965" lon="2.37532">
        <ele>99.7</ele>
        <time>2015-07-13T19:03:13.374Z</time>
      </trkpt>
      <trkpt lat="48.88963" lon="2.37528">
        <ele>99.5</ele>
        <time>2015-07-13T19:03:13.851Z</time>
      </trkpt>
      <trkpt lat="48.88957" lon="2.37519">
        <ele>99.3</ele>
        <time>2015-07-13T19:03:15.872Z</time>
      </trkpt>
      <trkpt lat="48.88953" lon="2.37514">
        <ele>99</ele>
        <time>2015-07-13T19:03:16.883Z</time>
      </trkpt>
      <trkpt lat="48.88949" lon="2.37509">
        <ele>98.6</ele>
        <time>2015-07-13T19:03:18.435Z</time>
      </trkpt>
      <trkpt lat="48.88946" lon="2.37504">
        <ele>98.4</ele>
        <time>2015-07-13T19:03:18.842Z</time>
      </trkpt>
      <trkpt lat="48.88942" lon="2.37498">
        <ele>98.4</ele>
        <time>2015-07-13T19:03:19.847Z</time>
      </trkpt>
      <trkpt lat="48.88938" lon="2.37493">
        <ele>98.4</ele>
        <time>2015-07-13T19:03:20.854Z</time>
      </trkpt>
      <trkpt lat="48.88935" lon="2.37488">
        <ele>98.6</ele>
        <time>2015-07-13T19:03:21.879Z</time>
      </trkpt>
      <trkpt lat="48.88931" lon="2.37483">
        <ele>98.5</ele>
        <time>2015-07-13T19:03:22.884Z</time>
      </trkpt>
      <trkpt lat="48.88928" lon="2.37477">
        <ele>98.4</ele>
        <time>2015-07-13T19:03:23.917Z</time>
      </trkpt>
      <trkpt lat="48.88924" lon="2.37471">
        <ele>98.5</ele>
        <time>2015-07-13T19:03:24.848Z</time>
      </trkpt>
      <trkpt lat="48.88921" lon="2.37466">
        <ele>98.4</ele>
        <time>2015-07-13T19:03:25.859Z</time>
      </trkpt>
      <trkpt lat="48.88917" lon="2.37461">
        <ele>98.5</ele>
        <time>2015-07-13T19:03:26.858Z</time>
      </trkpt>
      <trkpt lat="48.88914" lon="2.37456">
        <ele>98.4</ele>
        <time>2015-07-13T19:03:27.863Z</time>
      </trkpt>
      <trkpt lat="48.8891" lon="2.37451">
        <ele>98.2</ele>
        <time>2015-07-13T19:03:28.872Z</time>
      </trkpt>
      <trkpt lat="48.88906" lon="2.37446">
        <ele>98.1</ele>
        <time>2015-07-13T19:03:29.929Z</time>
      </trkpt>
      <trkpt lat="48.88902" lon="2.37441">
        <ele>98</ele>
        <time>2015-07-13T19:03:30.842Z</time>
      </trkpt>
      <trkpt lat="48.88898" lon="2.37435">
        <ele>98</ele>
        <time>2015-07-13T19:03:31.845Z</time>
      </trkpt>
      <trkpt lat="48.88894" lon="2.3743">
        <ele>98</ele>
        <time>2015-07-13T19:03:32.856Z</time>
      </trkpt>
      <trkpt lat="48.88891" lon="2.37424">
        <ele>98.1</ele>
        <time>2015-07-13T19:03:33.871Z</time>
      </trkpt>
      <trkpt lat="48.88887" lon="2.37419">
        <ele>98.2</ele>
        <time>2015-07-13T19:03:34.873Z</time>
      </trkpt>
      <trkpt lat="48.88883" lon="2.37414">
        <ele>98.3</ele>
        <time>2015-07-13T19:03:35.887Z</time>
      </trkpt>
      <trkpt lat="48.88878" lon="2.37409">
        <ele>98.4</ele>
        <time>2015-07-13T19:03:36.887Z</time>
      </trkpt>
      <trkpt lat="48.88874" lon="2.37405">
        <ele>98.6</ele>
        <time>2015-07-13T19:03:37.903Z</time>
      </trkpt>
      <trkpt lat="48.88869" lon="2.37401">
        <ele>98.7</ele>
        <time>2015-07-13T19:03:38.911Z</time>
      </trkpt>
      <trkpt lat="48.88865" lon="2.37397">
        <ele>98.9</ele>
        <time>2015-07-13T19:03:39.872Z</time>
      </trkpt>
      <trkpt lat="48.88861" lon="2.37392">
        <ele>99</ele>
        <time>2015-07-13T19:03:40.895Z</time>
      </trkpt>
      <trkpt lat="48.88856" lon="2.37382">
        <ele>99.2</ele>
        <time>2015-07-13T19:03:42.850Z</time>
      </trkpt>
      <trkpt lat="48.88856" lon="2.37376">
        <ele>99.5</ele>
        <time>2015-07-13T19:03:43.875Z</time>
      </trkpt>
      <trkpt lat="48.88859" lon="2.37363">
        <ele>99.6</ele>
        <time>2015-07-13T19:03:45.930Z</time>
      </trkpt>
      <trkpt lat="48.88861" lon="2.37356">
        <ele>99.9</ele>
        <time>2015-07-13T19:03:46.882Z</time>
      </trkpt>
      <trkpt lat="48.88863" lon="2.37348">
        <ele>100.4</ele>
        <time>2015-07-13T19:03:47.916Z</time>
      </trkpt>
      <trkpt lat="48.88864" lon="2.37339">
        <ele>100.9</ele>
        <time>2015-07-13T19:03:48.920Z</time>
      </trkpt>
      <trkpt lat="48.88866" lon="2.37332">
        <ele>101.2</ele>
        <time>2015-07-13T19:03:49.890Z</time>
      </trkpt>
      <trkpt lat="48.88867" lon="2.37326">
        <ele>101.2</ele>
        <time>2015-07-13T19:03:50.863Z</time>
      </trkpt>
      <trkpt lat="48.88869" lon="2.37319">
        <ele>101.2</ele>
        <time>2015-07-13T19:03:51.853Z</time>
      </trkpt>
      <trkpt lat="48.88871" lon="2.37312">
        <ele>101.2</ele>
        <time>2015-07-13T19:03:52.859Z</time>
      </trkpt>
      <trkpt lat="48.88872" lon="2.37306">
        <ele>101.2</ele>
        <time>2015-07-13T19:03:53.889Z</time>
      </trkpt>
      <trkpt lat="48.88875" lon="2.37299">
        <ele>101.1</ele>
        <time>2015-07-13T19:03:54.893Z</time>
      </trkpt>
      <trkpt lat="48.88877" lon="2.37293">
        <ele>101.2</ele>
        <time>2015-07-13T19:03:55.836Z</time>
      </trkpt>
      <trkpt lat="48.88879" lon="2.37285">
        <ele>101.3</ele>
        <time>2015-07-13T19:03:56.846Z</time>
      </trkpt>
      <trkpt lat="48.8888" lon="2.37278">
        <ele>101.5</ele>
        <time>2015-07-13T19:03:57.841Z</time>
      </trkpt>
      <trkpt lat="48.88882" lon="2.37271">
        <ele>101.7</ele>
        <time>2015-07-13T19:03:58.859Z</time>
      </trkpt>
      <trkpt lat="48.88884" lon="2.37264">
        <ele>101.7</ele>
        <time>2015-07-13T19:03:59.919Z</time>
      </trkpt>
      <trkpt lat="48.88885" lon="2.37255">
        <ele>102.3</ele>
        <time>2015-07-13T19:04:00.909Z</time>
      </trkpt>
      <trkpt lat="48.88888" lon="2.37248">
        <ele>102.7</ele>
        <time>2015-07-13T19:04:01.920Z</time>
      </trkpt>
      <trkpt lat="48.8889" lon="2.37239">
        <ele>103.1</ele>
        <time>2015-07-13T19:04:02.933Z</time>
      </trkpt>
      <trkpt lat="48.88892" lon="2.3723">
        <ele>103.5</ele>
        <time>2015-07-13T19:04:03.843Z</time>
      </trkpt>
      <trkpt lat="48.88894" lon="2.37222">
        <ele>103.5</ele>
        <time>2015-07-13T19:04:04.857Z</time>
      </trkpt>
      <trkpt lat="48.88896" lon="2.37213">
        <ele>103.7</ele>
        <time>2015-07-13T19:04:05.920Z</time>
      </trkpt>
      <trkpt lat="48.88899" lon="2.37205">
        <ele>103.5</ele>
        <time>2015-07-13T19:04:06.926Z</time>
      </trkpt>
      <trkpt lat="48.88901" lon="2.37197">
        <ele>103.4</ele>
        <time>2015-07-13T19:04:07.843Z</time>
      </trkpt>
      <trkpt lat="48.88904" lon="2.37191">
        <ele>103.6</ele>
        <time>2015-07-13T19:04:08.841Z</time>
      </trkpt>
      <trkpt lat="48.88908" lon="2.37185">
        <ele>103.9</ele>
        <time>2015-07-13T19:04:09.844Z</time>
      </trkpt>
      <trkpt lat="48.8891" lon="2.37179">
        <ele>104</ele>
        <time>2015-07-13T19:04:10.882Z</time>
      </trkpt>
      <trkpt lat="48.88912" lon="2.37173">
        <ele>104</ele>
        <time>2015-07-13T19:04:11.891Z</time>
      </trkpt>
      <trkpt lat="48.88915" lon="2.37167">
        <ele>104</ele>
        <time>2015-07-13T19:04:12.907Z</time>
      </trkpt>
      <trkpt lat="48.88919" lon="2.37156">
        <ele>104.1</ele>
        <time>2015-07-13T19:04:14.845Z</time>
      </trkpt>
      <trkpt lat="48.88921" lon="2.37152">
        <ele>104.3</ele>
        <time>2015-07-13T19:04:15.882Z</time>
      </trkpt>
      <trkpt lat="48.88923" lon="2.3714">
        <ele>105</ele>
        <time>2015-07-13T19:04:18.879Z</time>
      </trkpt>
      <trkpt lat="48.88924" lon="2.37137">
        <ele>105.1</ele>
        <time>2015-07-13T19:04:19.853Z</time>
      </trkpt>
      <trkpt lat="48.88924" lon="2.37127">
        <ele>106</ele>
        <time>2015-07-13T19:04:23.905Z</time>
      </trkpt>
      <trkpt lat="48.88923" lon="2.37123">
        <ele>106.3</ele>
        <time>2015-07-13T19:04:24.879Z</time>
      </trkpt>
      <trkpt lat="48.88925" lon="2.37111">
        <ele>106.9</ele>
        <time>2015-07-13T19:04:27.850Z</time>
      </trkpt>
      <trkpt lat="48.88927" lon="2.37106">
        <ele>107.1</ele>
        <time>2015-07-13T19:04:28.869Z</time>
      </trkpt>
      <trkpt lat="48.88928" lon="2.37097">
        <ele>107.4</ele>
        <time>2015-07-13T19:04:30.902Z</time>
      </trkpt>
      <trkpt lat="48.88929" lon="2.37093">
        <ele>107.4</ele>
        <time>2015-07-13T19:04:31.933Z</time>
      </trkpt>
      <trkpt lat="48.88933" lon="2.37086">
        <ele>106.7</ele>
        <time>2015-07-13T19:04:36.867Z</time>
      </trkpt>
      <trkpt lat="48.88934" lon="2.37082">
        <ele>106.6</ele>
        <time>2015-07-13T19:04:37.890Z</time>
      </trkpt>
      <trkpt lat="48.88937" lon="2.37073">
        <ele>106.7</ele>
        <time>2015-07-13T19:04:40.782Z</time>
      </trkpt>
      <trkpt lat="48.88939" lon="2.37068">
        <ele>106.6</ele>
        <time>2015-07-13T19:04:40.834Z</time>
      </trkpt>
      <trkpt lat="48.8894" lon="2.37055">
        <ele>106.6</ele>
        <time>2015-07-13T19:04:42.863Z</time>
      </trkpt>
      <trkpt lat="48.8894" lon="2.37047">
        <ele>106.8</ele>
        <time>2015-07-13T19:04:43.873Z</time>
      </trkpt>
      <trkpt lat="48.88941" lon="2.37039">
        <ele>106.9</ele>
        <time>2015-07-13T19:04:44.917Z</time>
      </trkpt>
      <trkpt lat="48.88942" lon="2.37031">
        <ele>107</ele>
        <time>2015-07-13T19:04:45.865Z</time>
      </trkpt>
      <trkpt lat="48.88943" lon="2.37022">
        <ele>107.1</ele>
        <time>2015-07-13T19:04:46.819Z</time>
      </trkpt>
      <trkpt lat="48.88945" lon="2.37013">
        <ele>107.2</ele>
        <time>2015-07-13T19:04:47.887Z</time>
      </trkpt>
      <trkpt lat="48.88947" lon="2.37004">
        <ele>107.4</ele>
        <time>2015-07-13T19:04:48.874Z</time>
      </trkpt>
      <trkpt lat="48.88949" lon="2.36996">
        <ele>107.5</ele>
        <time>2015-07-13T19:04:49.879Z</time>
      </trkpt>
      <trkpt lat="48.8895" lon="2.36986">
        <ele>107.6</ele>
        <time>2015-07-13T19:04:51.010Z</time>
      </trkpt>
      <trkpt lat="48.8895" lon="2.36976">
        <ele>107.8</ele>
        <time>2015-07-13T19:04:51.930Z</time>
      </trkpt>
      <trkpt lat="48.8895" lon="2.36966">
        <ele>107.9</ele>
        <time>2015-07-13T19:04:52.845Z</time>
      </trkpt>
      <trkpt lat="48.8895" lon="2.36956">
        <ele>108</ele>
        <time>2015-07-13T19:04:53.948Z</time>
      </trkpt>
      <trkpt lat="48.88949" lon="2.36947">
        <ele>108</ele>
        <time>2015-07-13T19:04:54.847Z</time>
      </trkpt>
      <trkpt lat="48.8895" lon="2.36938">
        <ele>108.1</ele>
        <time>2015-07-13T19:04:55.849Z</time>
      </trkpt>
      <trkpt lat="48.88951" lon="2.36929">
        <ele>108.1</ele>
        <time>2015-07-13T19:04:57.007Z</time>
      </trkpt>
      <trkpt lat="48.88952" lon="2.3692">
        <ele>108.3</ele>
        <time>2015-07-13T19:04:57.880Z</time>
      </trkpt>
      <trkpt lat="48.88953" lon="2.36911">
        <ele>108.5</ele>
        <time>2015-07-13T19:04:58.852Z</time>
      </trkpt>
      <trkpt lat="48.88954" lon="2.36904">
        <ele>108.6</ele>
        <time>2015-07-13T19:04:59.936Z</time>
      </trkpt>
      <trkpt lat="48.88955" lon="2.36896">
        <ele>108.7</ele>
        <time>2015-07-13T19:05:00.843Z</time>
      </trkpt>
      <trkpt lat="48.88955" lon="2.36889">
        <ele>108.9</ele>
        <time>2015-07-13T19:05:01.849Z</time>
      </trkpt>
      <trkpt lat="48.88955" lon="2.36881">
        <ele>109.1</ele>
        <time>2015-07-13T19:05:02.865Z</time>
      </trkpt>
      <trkpt lat="48.88955" lon="2.36873">
        <ele>109.3</ele>
        <time>2015-07-13T19:05:03.872Z</time>
      </trkpt>
      <trkpt lat="48.88954" lon="2.36865">
        <ele>109.5</ele>
        <time>2015-07-13T19:05:04.881Z</time>
      </trkpt>
      <trkpt lat="48.88954" lon="2.36858">
        <ele>109.7</ele>
        <time>2015-07-13T19:05:05.909Z</time>
      </trkpt>
      <trkpt lat="48.88955" lon="2.36851">
        <ele>109.8</ele>
        <time>2015-07-13T19:05:06.913Z</time>
      </trkpt>
      <trkpt lat="48.88955" lon="2.36844">
        <ele>109.7</ele>
        <time>2015-07-13T19:05:07.927Z</time>
      </trkpt>
      <trkpt lat="48.88961" lon="2.36839">
        <ele>107.7</ele>
        <time>2015-07-13T19:05:08.843Z</time>
      </trkpt>
      <trkpt lat="48.88963" lon="2.36833">
        <ele>107.4</ele>
        <time>2015-07-13T19:05:09.845Z</time>
      </trkpt>
      <trkpt lat="48.88968" lon="2.36824">
        <ele>106.2</ele>
        <time>2015-07-13T19:05:11.916Z</time>
      </trkpt>
      <trkpt lat="48.8897" lon="2.3682">
        <ele>105.8</ele>
        <time>2015-07-13T19:05:12.932Z</time>
      </trkpt>
      <trkpt lat="48.8897" lon="2.36811">
        <ele>103.8</ele>
        <time>2015-07-13T19:05:25.878Z</time>
      </trkpt>
      <trkpt lat="48.8897" lon="2.36811">
        <ele>103.9</ele>
        <time>2015-07-13T19:05:26.907Z</time>
      </trkpt>
      <trkpt lat="48.8897" lon="2.36811">
        <ele>103.9</ele>
        <time>2015-07-13T19:05:28.881Z</time>
      </trkpt>
      <trkpt lat="48.88969" lon="2.3681">
        <ele>104</ele>
        <time>2015-07-13T19:05:29.907Z</time>
      </trkpt>
      <trkpt lat="48.88971" lon="2.368">
        <ele>103.9</ele>
        <time>2015-07-13T19:05:32.897Z</time>
      </trkpt>
      <trkpt lat="48.88971" lon="2.36795">
        <ele>103.9</ele>
        <time>2015-07-13T19:05:33.922Z</time>
      </trkpt>
      <trkpt lat="48.88972" lon="2.36784">
        <ele>103.9</ele>
        <time>2015-07-13T19:05:35.882Z</time>
      </trkpt>
      <trkpt lat="48.88973" lon="2.36777">
        <ele>103.9</ele>
        <time>2015-07-13T19:05:36.872Z</time>
      </trkpt>
      <trkpt lat="48.88973" lon="2.36771">
        <ele>104.1</ele>
        <time>2015-07-13T19:05:37.841Z</time>
      </trkpt>
      <trkpt lat="48.88974" lon="2.36763">
        <ele>104.2</ele>
        <time>2015-07-13T19:05:38.847Z</time>
      </trkpt>
      <trkpt lat="48.88974" lon="2.36756">
        <ele>104.1</ele>
        <time>2015-07-13T19:05:39.861Z</time>
      </trkpt>
      <trkpt lat="48.88975" lon="2.36749">
        <ele>103.9</ele>
        <time>2015-07-13T19:05:40.869Z</time>
      </trkpt>
      <trkpt lat="48.88976" lon="2.36741">
        <ele>103.9</ele>
        <time>2015-07-13T19:05:41.881Z</time>
      </trkpt>
      <trkpt lat="48.88976" lon="2.36733">
        <ele>103.9</ele>
        <time>2015-07-13T19:05:42.902Z</time>
      </trkpt>
      <trkpt lat="48.88977" lon="2.36725">
        <ele>104.2</ele>
        <time>2015-07-13T19:05:43.918Z</time>
      </trkpt>
      <trkpt lat="48.88977" lon="2.36717">
        <ele>104.5</ele>
        <time>2015-07-13T19:05:44.843Z</time>
      </trkpt>
      <trkpt lat="48.88977" lon="2.36709">
        <ele>104.6</ele>
        <time>2015-07-13T19:05:45.859Z</time>
      </trkpt>
      <trkpt lat="48.88978" lon="2.36702">
        <ele>104.6</ele>
        <time>2015-07-13T19:05:46.876Z</time>
      </trkpt>
      <trkpt lat="48.88978" lon="2.36694">
        <ele>105</ele>
        <time>2015-07-13T19:05:47.898Z</time>
      </trkpt>
      <trkpt lat="48.88978" lon="2.36687">
        <ele>105.3</ele>
        <time>2015-07-13T19:05:48.938Z</time>
      </trkpt>
      <trkpt lat="48.8898" lon="2.36675">
        <ele>105.3</ele>
        <time>2015-07-13T19:05:50.848Z</time>
      </trkpt>
      <trkpt lat="48.88981" lon="2.36669">
        <ele>105.4</ele>
        <time>2015-07-13T19:05:51.875Z</time>
      </trkpt>
      <trkpt lat="48.88981" lon="2.36659">
        <ele>105.6</ele>
        <time>2015-07-13T19:05:53.881Z</time>
      </trkpt>
      <trkpt lat="48.88981" lon="2.36654">
        <ele>105.6</ele>
        <time>2015-07-13T19:05:54.885Z</time>
      </trkpt>
      <trkpt lat="48.88982" lon="2.36643">
        <ele>105.5</ele>
        <time>2015-07-13T19:05:56.909Z</time>
      </trkpt>
      <trkpt lat="48.88982" lon="2.36638">
        <ele>105.4</ele>
        <time>2015-07-13T19:05:57.875Z</time>
      </trkpt>
      <trkpt lat="48.88983" lon="2.36626">
        <ele>105.3</ele>
        <time>2015-07-13T19:06:00.226Z</time>
      </trkpt>
      <trkpt lat="48.88983" lon="2.36621">
        <ele>105.3</ele>
        <time>2015-07-13T19:06:00.839Z</time>
      </trkpt>
      <trkpt lat="48.88984" lon="2.36609">
        <ele>105.2</ele>
        <time>2015-07-13T19:06:02.867Z</time>
      </trkpt>
      <trkpt lat="48.88984" lon="2.36603">
        <ele>105.2</ele>
        <time>2015-07-13T19:06:03.876Z</time>
      </trkpt>
      <trkpt lat="48.88984" lon="2.36592">
        <ele>105.6</ele>
        <time>2015-07-13T19:06:05.921Z</time>
      </trkpt>
      <trkpt lat="48.88985" lon="2.36586">
        <ele>105.7</ele>
        <time>2015-07-13T19:06:06.872Z</time>
      </trkpt>
      <trkpt lat="48.88985" lon="2.36574">
        <ele>105.8</ele>
        <time>2015-07-13T19:06:08.907Z</time>
      </trkpt>
      <trkpt lat="48.88985" lon="2.36567">
        <ele>105.9</ele>
        <time>2015-07-13T19:06:09.928Z</time>
      </trkpt>
      <trkpt lat="48.88986" lon="2.36555">
        <ele>106</ele>
        <time>2015-07-13T19:06:11.889Z</time>
      </trkpt>
      <trkpt lat="48.88986" lon="2.36549">
        <ele>106</ele>
        <time>2015-07-13T19:06:12.923Z</time>
      </trkpt>
      <trkpt lat="48.88987" lon="2.36535">
        <ele>105.7</ele>
        <time>2015-07-13T19:06:14.857Z</time>
      </trkpt>
      <trkpt lat="48.88987" lon="2.36528">
        <ele>105.7</ele>
        <time>2015-07-13T19:06:15.870Z</time>
      </trkpt>
      <trkpt lat="48.88988" lon="2.36521">
        <ele>105.8</ele>
        <time>2015-07-13T19:06:16.886Z</time>
      </trkpt>
      <trkpt lat="48.88988" lon="2.36514">
        <ele>105.8</ele>
        <time>2015-07-13T19:06:17.960Z</time>
      </trkpt>
      <trkpt lat="48.88989" lon="2.36507">
        <ele>105.9</ele>
        <time>2015-07-13T19:06:18.854Z</time>
      </trkpt>
      <trkpt lat="48.88989" lon="2.365">
        <ele>105.8</ele>
        <time>2015-07-13T19:06:19.862Z</time>
      </trkpt>
      <trkpt lat="48.88989" lon="2.36492">
        <ele>105.7</ele>
        <time>2015-07-13T19:06:20.877Z</time>
      </trkpt>
      <trkpt lat="48.8899" lon="2.36485">
        <ele>105.6</ele>
        <time>2015-07-13T19:06:21.881Z</time>
      </trkpt>
      <trkpt lat="48.8899" lon="2.36477">
        <ele>105.4</ele>
        <time>2015-07-13T19:06:22.901Z</time>
      </trkpt>
      <trkpt lat="48.88991" lon="2.36469">
        <ele>105.8</ele>
        <time>2015-07-13T19:06:23.906Z</time>
      </trkpt>
      <trkpt lat="48.88991" lon="2.36457">
        <ele>106.1</ele>
        <time>2015-07-13T19:06:25.922Z</time>
      </trkpt>
      <trkpt lat="48.88992" lon="2.36453">
        <ele>106.3</ele>
        <time>2015-07-13T19:06:26.876Z</time>
      </trkpt>
      <trkpt lat="48.88993" lon="2.3644">
        <ele>107.1</ele>
        <time>2015-07-13T19:06:31.916Z</time>
      </trkpt>
      <trkpt lat="48.88993" lon="2.36437">
        <ele>107.3</ele>
        <time>2015-07-13T19:06:32.869Z</time>
      </trkpt>
      <trkpt lat="48.88993" lon="2.36426">
        <ele>107.4</ele>
        <time>2015-07-13T19:06:35.853Z</time>
      </trkpt>
      <trkpt lat="48.88993" lon="2.36421">
        <ele>107.5</ele>
        <time>2015-07-13T19:06:36.872Z</time>
      </trkpt>
      <trkpt lat="48.88993" lon="2.36408">
        <ele>107.2</ele>
        <time>2015-07-13T19:06:39.858Z</time>
      </trkpt>
      <trkpt lat="48.88993" lon="2.36403">
        <ele>107.2</ele>
        <time>2015-07-13T19:06:40.888Z</time>
      </trkpt>
      <trkpt lat="48.88993" lon="2.36392">
        <ele>107.2</ele>
        <time>2015-07-13T19:06:42.886Z</time>
      </trkpt>
      <trkpt lat="48.88993" lon="2.36386">
        <ele>107.5</ele>
        <time>2015-07-13T19:06:43.921Z</time>
      </trkpt>
      <trkpt lat="48.88993" lon="2.36376">
        <ele>107.5</ele>
        <time>2015-07-13T19:06:45.870Z</time>
      </trkpt>
      <trkpt lat="48.88994" lon="2.36371">
        <ele>107.4</ele>
        <time>2015-07-13T19:06:46.912Z</time>
      </trkpt>
      <trkpt lat="48.88994" lon="2.36361">
        <ele>107.3</ele>
        <time>2015-07-13T19:06:48.856Z</time>
      </trkpt>
      <trkpt lat="48.88994" lon="2.36356">
        <ele>107.3</ele>
        <time>2015-07-13T19:06:49.913Z</time>
      </trkpt>
      <trkpt lat="48.88994" lon="2.36346">
        <ele>107.3</ele>
        <time>2015-07-13T19:06:50.388Z</time>
      </trkpt>
      <trkpt lat="48.88994" lon="2.36341">
        <ele>107.2</ele>
        <time>2015-07-13T19:06:52.873Z</time>
      </trkpt>
      <trkpt lat="48.88993" lon="2.36331">
        <ele>107.1</ele>
        <time>2015-07-13T19:06:55.441Z</time>
      </trkpt>
      <trkpt lat="48.88993" lon="2.36326">
        <ele>107.2</ele>
        <time>2015-07-13T19:06:55.858Z</time>
      </trkpt>
      <trkpt lat="48.88991" lon="2.36314">
        <ele>108.3</ele>
        <time>2015-07-13T19:06:57.866Z</time>
      </trkpt>
      <trkpt lat="48.88991" lon="2.3631">
        <ele>108.8</ele>
        <time>2015-07-13T19:06:58.904Z</time>
      </trkpt>
      <trkpt lat="48.88987" lon="2.36298">
        <ele>110.9</ele>
        <time>2015-07-13T19:07:08.857Z</time>
      </trkpt>
      <trkpt lat="48.88988" lon="2.36296">
        <ele>111.3</ele>
        <time>2015-07-13T19:07:09.868Z</time>
      </trkpt>
      <trkpt lat="48.8899" lon="2.36285">
        <ele>111.6</ele>
        <time>2015-07-13T19:07:13.924Z</time>
      </trkpt>
      <trkpt lat="48.8899" lon="2.3628">
        <ele>111.6</ele>
        <time>2015-07-13T19:07:14.855Z</time>
      </trkpt>
      <trkpt lat="48.88989" lon="2.36269">
        <ele>111.6</ele>
        <time>2015-07-13T19:07:16.872Z</time>
      </trkpt>
      <trkpt lat="48.88989" lon="2.36263">
        <ele>111.6</ele>
        <time>2015-07-13T19:07:17.909Z</time>
      </trkpt>
      <trkpt lat="48.88991" lon="2.36253">
        <ele>111.5</ele>
        <time>2015-07-13T19:07:19.879Z</time>
      </trkpt>
      <trkpt lat="48.88993" lon="2.36249">
        <ele>111.4</ele>
        <time>2015-07-13T19:07:20.884Z</time>
      </trkpt>
      <trkpt lat="48.88993" lon="2.36239">
        <ele>111.2</ele>
        <time>2015-07-13T19:07:22.856Z</time>
      </trkpt>
      <trkpt lat="48.88993" lon="2.36234">
        <ele>111.2</ele>
        <time>2015-07-13T19:07:23.967Z</time>
      </trkpt>
      <trkpt lat="48.88992" lon="2.36225">
        <ele>110.9</ele>
        <time>2015-07-13T19:07:25.899Z</time>
      </trkpt>
      <trkpt lat="48.88991" lon="2.36219">
        <ele>111.2</ele>
        <time>2015-07-13T19:07:26.913Z</time>
      </trkpt>
      <trkpt lat="48.88991" lon="2.36208">
        <ele>111</ele>
        <time>2015-07-13T19:07:28.824Z</time>
      </trkpt>
      <trkpt lat="48.8899" lon="2.36202">
        <ele>110.7</ele>
        <time>2015-07-13T19:07:29.915Z</time>
      </trkpt>
      <trkpt lat="48.88987" lon="2.36192">
        <ele>110.5</ele>
        <time>2015-07-13T19:07:31.864Z</time>
      </trkpt>
      <trkpt lat="48.88986" lon="2.36187">
        <ele>110.4</ele>
        <time>2015-07-13T19:07:32.879Z</time>
      </trkpt>
      <trkpt lat="48.88984" lon="2.36177">
        <ele>110.2</ele>
        <time>2015-07-13T19:07:34.853Z</time>
      </trkpt>
      <trkpt lat="48.88983" lon="2.36171">
        <ele>110.1</ele>
        <time>2015-07-13T19:07:35.963Z</time>
      </trkpt>
      <trkpt lat="48.88983" lon="2.36161">
        <ele>110.1</ele>
        <time>2015-07-13T19:07:38.770Z</time>
      </trkpt>
      <trkpt lat="48.88983" lon="2.36155">
        <ele>110</ele>
        <time>2015-07-13T19:07:39.257Z</time>
      </trkpt>
      <trkpt lat="48.88983" lon="2.36146">
        <ele>110</ele>
        <time>2015-07-13T19:07:40.857Z</time>
      </trkpt>
      <trkpt lat="48.88983" lon="2.3614">
        <ele>110.1</ele>
        <time>2015-07-13T19:07:41.861Z</time>
      </trkpt>
      <trkpt lat="48.88984" lon="2.36129">
        <ele>110.3</ele>
        <time>2015-07-13T19:07:43.858Z</time>
      </trkpt>
      <trkpt lat="48.88984" lon="2.36125">
        <ele>110.3</ele>
        <time>2015-07-13T19:07:44.877Z</time>
      </trkpt>
      <trkpt lat="48.88986" lon="2.36111">
        <ele>110.1</ele>
        <time>2015-07-13T19:07:47.915Z</time>
      </trkpt>
      <trkpt lat="48.88986" lon="2.36106">
        <ele>110.1</ele>
        <time>2015-07-13T19:07:48.850Z</time>
      </trkpt>
      <trkpt lat="48.88986" lon="2.36094">
        <ele>110.2</ele>
        <time>2015-07-13T19:07:50.890Z</time>
      </trkpt>
      <trkpt lat="48.88986" lon="2.36087">
        <ele>110.1</ele>
        <time>2015-07-13T19:07:51.911Z</time>
      </trkpt>
      <trkpt lat="48.88986" lon="2.36075">
        <ele>110.1</ele>
        <time>2015-07-13T19:07:54.140Z</time>
      </trkpt>
      <trkpt lat="48.88987" lon="2.36068">
        <ele>109.9</ele>
        <time>2015-07-13T19:07:54.860Z</time>
      </trkpt>
      <trkpt lat="48.88989" lon="2.36058">
        <ele>109.7</ele>
        <time>2015-07-13T19:07:56.877Z</time>
      </trkpt>
      <trkpt lat="48.88992" lon="2.36051">
        <ele>109.6</ele>
        <time>2015-07-13T19:07:57.892Z</time>
      </trkpt>
      <trkpt lat="48.88997" lon="2.36044">
        <ele>109.7</ele>
        <time>2015-07-13T19:07:59.332Z</time>
      </trkpt>
      <trkpt lat="48.89001" lon="2.36038">
        <ele>109.9</ele>
        <time>2015-07-13T19:07:59.931Z</time>
      </trkpt>
      <trkpt lat="48.89007" lon="2.36029">
        <ele>110.9</ele>
        <time>2015-07-13T19:08:01.867Z</time>
      </trkpt>
      <trkpt lat="48.89009" lon="2.36023">
        <ele>111</ele>
        <time>2015-07-13T19:08:02.813Z</time>
      </trkpt>
      <trkpt lat="48.89014" lon="2.36012">
        <ele>111.5</ele>
        <time>2015-07-13T19:08:04.934Z</time>
      </trkpt>
      <trkpt lat="48.89015" lon="2.36008">
        <ele>111.5</ele>
        <time>2015-07-13T19:08:05.938Z</time>
      </trkpt>
      <trkpt lat="48.89016" lon="2.36008">
        <ele>111.6</ele>
        <time>2015-07-13T19:08:09.463Z</time>
      </trkpt>
      <trkpt lat="48.89016" lon="2.36009">
        <ele>111.7</ele>
        <time>2015-07-13T19:08:09.890Z</time>
      </trkpt>
      <trkpt lat="48.89016" lon="2.36009">
        <ele>111.7</ele>
        <time>2015-07-13T19:08:25.931Z</time>
      </trkpt>
      <trkpt lat="48.89016" lon="2.35995">
        <ele>114.9</ele>
        <time>2015-07-13T19:08:26.855Z</time>
      </trkpt>
      <trkpt lat="48.8902" lon="2.35984">
        <ele>115.6</ele>
        <time>2015-07-13T19:08:32.844Z</time>
      </trkpt>
      <trkpt lat="48.8902" lon="2.35981">
        <ele>115.7</ele>
        <time>2015-07-13T19:08:33.858Z</time>
      </trkpt>
      <trkpt lat="48.89023" lon="2.3597">
        <ele>115.7</ele>
        <time>2015-07-13T19:08:36.873Z</time>
      </trkpt>
      <trkpt lat="48.89024" lon="2.35966">
        <ele>115.5</ele>
        <time>2015-07-13T19:08:37.886Z</time>
      </trkpt>
      <trkpt lat="48.89026" lon="2.35957">
        <ele>116</ele>
        <time>2015-07-13T19:08:39.851Z</time>
      </trkpt>
      <trkpt lat="48.89026" lon="2.35951">
        <ele>116.2</ele>
        <time>2015-07-13T19:08:40.875Z</time>
      </trkpt>
      <trkpt lat="48.89027" lon="2.35938">
        <ele>116</ele>
        <time>2015-07-13T19:08:42.853Z</time>
      </trkpt>
      <trkpt lat="48.89027" lon="2.35932">
        <ele>115.9</ele>
        <time>2015-07-13T19:08:43.887Z</time>
      </trkpt>
      <trkpt lat="48.89028" lon="2.35919">
        <ele>115.8</ele>
        <time>2015-07-13T19:08:45.930Z</time>
      </trkpt>
      <trkpt lat="48.89028" lon="2.35912">
        <ele>115.8</ele>
        <time>2015-07-13T19:08:46.826Z</time>
      </trkpt>
      <trkpt lat="48.89028" lon="2.35905">
        <ele>115.9</ele>
        <time>2015-07-13T19:08:47.862Z</time>
      </trkpt>
      <trkpt lat="48.89028" lon="2.35897">
        <ele>116</ele>
        <time>2015-07-13T19:08:48.868Z</time>
      </trkpt>
      <trkpt lat="48.89029" lon="2.35884">
        <ele>116</ele>
        <time>2015-07-13T19:08:50.916Z</time>
      </trkpt>
      <trkpt lat="48.89029" lon="2.35877">
        <ele>115.9</ele>
        <time>2015-07-13T19:08:51.835Z</time>
      </trkpt>
      <trkpt lat="48.89029" lon="2.35869">
        <ele>116</ele>
        <time>2015-07-13T19:08:52.851Z</time>
      </trkpt>
      <trkpt lat="48.89029" lon="2.35862">
        <ele>116</ele>
        <time>2015-07-13T19:08:53.955Z</time>
      </trkpt>
      <trkpt lat="48.89029" lon="2.35854">
        <ele>115.9</ele>
        <time>2015-07-13T19:08:54.886Z</time>
      </trkpt>
      <trkpt lat="48.89029" lon="2.35847">
        <ele>115.9</ele>
        <time>2015-07-13T19:08:55.901Z</time>
      </trkpt>
      <trkpt lat="48.89029" lon="2.35838">
        <ele>116.1</ele>
        <time>2015-07-13T19:08:56.924Z</time>
      </trkpt>
      <trkpt lat="48.89029" lon="2.3583">
        <ele>116</ele>
        <time>2015-07-13T19:08:57.933Z</time>
      </trkpt>
      <trkpt lat="48.8903" lon="2.35822">
        <ele>116.1</ele>
        <time>2015-07-13T19:08:59.754Z</time>
      </trkpt>
      <trkpt lat="48.8903" lon="2.35813">
        <ele>116.1</ele>
        <time>2015-07-13T19:08:59.886Z</time>
      </trkpt>
      <trkpt lat="48.8903" lon="2.35805">
        <ele>116</ele>
        <time>2015-07-13T19:09:00.899Z</time>
      </trkpt>
      <trkpt lat="48.8903" lon="2.35797">
        <ele>115.5</ele>
        <time>2015-07-13T19:09:01.909Z</time>
      </trkpt>
      <trkpt lat="48.89031" lon="2.35788">
        <ele>115</ele>
        <time>2015-07-13T19:09:02.847Z</time>
      </trkpt>
      <trkpt lat="48.89031" lon="2.35779">
        <ele>114.6</ele>
        <time>2015-07-13T19:09:03.845Z</time>
      </trkpt>
      <trkpt lat="48.89031" lon="2.3577">
        <ele>114.2</ele>
        <time>2015-07-13T19:09:04.857Z</time>
      </trkpt>
      <trkpt lat="48.89032" lon="2.35762">
        <ele>113.5</ele>
        <time>2015-07-13T19:09:05.889Z</time>
      </trkpt>
      <trkpt lat="48.89032" lon="2.35753">
        <ele>113.3</ele>
        <time>2015-07-13T19:09:06.901Z</time>
      </trkpt>
      <trkpt lat="48.89033" lon="2.35745">
        <ele>112.7</ele>
        <time>2015-07-13T19:09:07.819Z</time>
      </trkpt>
      <trkpt lat="48.89033" lon="2.35737">
        <ele>112.5</ele>
        <time>2015-07-13T19:09:08.854Z</time>
      </trkpt>
      <trkpt lat="48.89033" lon="2.35728">
        <ele>112.2</ele>
        <time>2015-07-13T19:09:09.861Z</time>
      </trkpt>
      <trkpt lat="48.89034" lon="2.35719">
        <ele>111.8</ele>
        <time>2015-07-13T19:09:10.874Z</time>
      </trkpt>
      <trkpt lat="48.89035" lon="2.3571">
        <ele>111.6</ele>
        <time>2015-07-13T19:09:11.892Z</time>
      </trkpt>
      <trkpt lat="48.89035" lon="2.35702">
        <ele>111.4</ele>
        <time>2015-07-13T19:09:12.889Z</time>
      </trkpt>
      <trkpt lat="48.89035" lon="2.35693">
        <ele>111.5</ele>
        <time>2015-07-13T19:09:13.910Z</time>
      </trkpt>
      <trkpt lat="48.89036" lon="2.35684">
        <ele>111.3</ele>
        <time>2015-07-13T19:09:14.922Z</time>
      </trkpt>
      <trkpt lat="48.89036" lon="2.35675">
        <ele>111</ele>
        <time>2015-07-13T19:09:15.849Z</time>
      </trkpt>
      <trkpt lat="48.89036" lon="2.35666">
        <ele>111.1</ele>
        <time>2015-07-13T19:09:16.851Z</time>
      </trkpt>
      <trkpt lat="48.89036" lon="2.35657">
        <ele>111.1</ele>
        <time>2015-07-13T19:09:17.895Z</time>
      </trkpt>
      <trkpt lat="48.89037" lon="2.35648">
        <ele>111</ele>
        <time>2015-07-13T19:09:18.850Z</time>
      </trkpt>
      <trkpt lat="48.89037" lon="2.3564">
        <ele>111</ele>
        <time>2015-07-13T19:09:19.853Z</time>
      </trkpt>
      <trkpt lat="48.89037" lon="2.35631">
        <ele>111.2</ele>
        <time>2015-07-13T19:09:20.857Z</time>
      </trkpt>
      <trkpt lat="48.89037" lon="2.35624">
        <ele>111.3</ele>
        <time>2015-07-13T19:09:21.866Z</time>
      </trkpt>
      <trkpt lat="48.89037" lon="2.35616">
        <ele>111.4</ele>
        <time>2015-07-13T19:09:22.882Z</time>
      </trkpt>
      <trkpt lat="48.89038" lon="2.35608">
        <ele>111.4</ele>
        <time>2015-07-13T19:09:23.894Z</time>
      </trkpt>
      <trkpt lat="48.89039" lon="2.35601">
        <ele>111.3</ele>
        <time>2015-07-13T19:09:24.908Z</time>
      </trkpt>
      <trkpt lat="48.89041" lon="2.35593">
        <ele>111.3</ele>
        <time>2015-07-13T19:09:25.921Z</time>
      </trkpt>
      <trkpt lat="48.89041" lon="2.35584">
        <ele>111.5</ele>
        <time>2015-07-13T19:09:26.853Z</time>
      </trkpt>
      <trkpt lat="48.89042" lon="2.35575">
        <ele>111.6</ele>
        <time>2015-07-13T19:09:27.854Z</time>
      </trkpt>
      <trkpt lat="48.89043" lon="2.35564">
        <ele>111.8</ele>
        <time>2015-07-13T19:09:28.851Z</time>
      </trkpt>
      <trkpt lat="48.89044" lon="2.35554">
        <ele>112</ele>
        <time>2015-07-13T19:09:29.900Z</time>
      </trkpt>
      <trkpt lat="48.89046" lon="2.35544">
        <ele>111.6</ele>
        <time>2015-07-13T19:09:31.169Z</time>
      </trkpt>
      <trkpt lat="48.89047" lon="2.35535">
        <ele>111.5</ele>
        <time>2015-07-13T19:09:31.847Z</time>
      </trkpt>
      <trkpt lat="48.89048" lon="2.35526">
        <ele>111.4</ele>
        <time>2015-07-13T19:09:32.864Z</time>
      </trkpt>
      <trkpt lat="48.8905" lon="2.35517">
        <ele>111.1</ele>
        <time>2015-07-13T19:09:33.866Z</time>
      </trkpt>
      <trkpt lat="48.89052" lon="2.35509">
        <ele>111</ele>
        <time>2015-07-13T19:09:34.880Z</time>
      </trkpt>
      <trkpt lat="48.89054" lon="2.35501">
        <ele>110.8</ele>
        <time>2015-07-13T19:09:35.891Z</time>
      </trkpt>
      <trkpt lat="48.89055" lon="2.35492">
        <ele>110.7</ele>
        <time>2015-07-13T19:09:36.902Z</time>
      </trkpt>
      <trkpt lat="48.89057" lon="2.35484">
        <ele>110.5</ele>
        <time>2015-07-13T19:09:37.912Z</time>
      </trkpt>
      <trkpt lat="48.89059" lon="2.35475">
        <ele>110.3</ele>
        <time>2015-07-13T19:09:38.849Z</time>
      </trkpt>
      <trkpt lat="48.89061" lon="2.35466">
        <ele>110.2</ele>
        <time>2015-07-13T19:09:39.863Z</time>
      </trkpt>
      <trkpt lat="48.89062" lon="2.35456">
        <ele>110.4</ele>
        <time>2015-07-13T19:09:40.877Z</time>
      </trkpt>
      <trkpt lat="48.89064" lon="2.35447">
        <ele>110.3</ele>
        <time>2015-07-13T19:09:41.894Z</time>
      </trkpt>
      <trkpt lat="48.89066" lon="2.35438">
        <ele>110.1</ele>
        <time>2015-07-13T19:09:42.913Z</time>
      </trkpt>
      <trkpt lat="48.89068" lon="2.35428">
        <ele>110</ele>
        <time>2015-07-13T19:09:43.922Z</time>
      </trkpt>
      <trkpt lat="48.8907" lon="2.35419">
        <ele>109.8</ele>
        <time>2015-07-13T19:09:44.845Z</time>
      </trkpt>
      <trkpt lat="48.89073" lon="2.35409">
        <ele>109.8</ele>
        <time>2015-07-13T19:09:45.847Z</time>
      </trkpt>
      <trkpt lat="48.89075" lon="2.354">
        <ele>109.7</ele>
        <time>2015-07-13T19:09:46.859Z</time>
      </trkpt>
      <trkpt lat="48.89077" lon="2.3539">
        <ele>109.6</ele>
        <time>2015-07-13T19:09:47.875Z</time>
      </trkpt>
      <trkpt lat="48.89079" lon="2.3538">
        <ele>109.7</ele>
        <time>2015-07-13T19:09:48.876Z</time>
      </trkpt>
      <trkpt lat="48.8908" lon="2.35371">
        <ele>109.9</ele>
        <time>2015-07-13T19:09:49.886Z</time>
      </trkpt>
      <trkpt lat="48.89082" lon="2.35362">
        <ele>109.7</ele>
        <time>2015-07-13T19:09:50.907Z</time>
      </trkpt>
      <trkpt lat="48.89083" lon="2.35352">
        <ele>109.7</ele>
        <time>2015-07-13T19:09:51.911Z</time>
      </trkpt>
      <trkpt lat="48.89085" lon="2.35343">
        <ele>109.7</ele>
        <time>2015-07-13T19:09:52.846Z</time>
      </trkpt>
      <trkpt lat="48.89086" lon="2.35333">
        <ele>109.9</ele>
        <time>2015-07-13T19:09:53.951Z</time>
      </trkpt>
      <trkpt lat="48.89087" lon="2.35324">
        <ele>109.8</ele>
        <time>2015-07-13T19:09:54.845Z</time>
      </trkpt>
      <trkpt lat="48.89088" lon="2.35315">
        <ele>109.8</ele>
        <time>2015-07-13T19:09:55.845Z</time>
      </trkpt>
      <trkpt lat="48.8909" lon="2.35305">
        <ele>109.8</ele>
        <time>2015-07-13T19:09:56.865Z</time>
      </trkpt>
      <trkpt lat="48.89091" lon="2.35297">
        <ele>109.9</ele>
        <time>2015-07-13T19:09:57.875Z</time>
      </trkpt>
      <trkpt lat="48.89092" lon="2.35288">
        <ele>110</ele>
        <time>2015-07-13T19:09:58.884Z</time>
      </trkpt>
      <trkpt lat="48.89094" lon="2.3528">
        <ele>110.3</ele>
        <time>2015-07-13T19:09:59.925Z</time>
      </trkpt>
      <trkpt lat="48.89096" lon="2.35272">
        <ele>110.3</ele>
        <time>2015-07-13T19:10:00.832Z</time>
      </trkpt>
      <trkpt lat="48.89097" lon="2.35263">
        <ele>110.4</ele>
        <time>2015-07-13T19:10:01.833Z</time>
      </trkpt>
      <trkpt lat="48.89098" lon="2.35256">
        <ele>110.4</ele>
        <time>2015-07-13T19:10:02.850Z</time>
      </trkpt>
      <trkpt lat="48.89099" lon="2.35248">
        <ele>110.5</ele>
        <time>2015-07-13T19:10:03.795Z</time>
      </trkpt>
      <trkpt lat="48.891" lon="2.35239">
        <ele>110.5</ele>
        <time>2015-07-13T19:10:04.906Z</time>
      </trkpt>
      <trkpt lat="48.89101" lon="2.35231">
        <ele>110.5</ele>
        <time>2015-07-13T19:10:05.912Z</time>
      </trkpt>
      <trkpt lat="48.89102" lon="2.35223">
        <ele>110.2</ele>
        <time>2015-07-13T19:10:06.834Z</time>
      </trkpt>
      <trkpt lat="48.89103" lon="2.35216">
        <ele>110.1</ele>
        <time>2015-07-13T19:10:07.829Z</time>
      </trkpt>
      <trkpt lat="48.89104" lon="2.35208">
        <ele>109.7</ele>
        <time>2015-07-13T19:10:08.839Z</time>
      </trkpt>
      <trkpt lat="48.89106" lon="2.35201">
        <ele>109.6</ele>
        <time>2015-07-13T19:10:09.851Z</time>
      </trkpt>
      <trkpt lat="48.89108" lon="2.35193">
        <ele>109.4</ele>
        <time>2015-07-13T19:10:10.870Z</time>
      </trkpt>
      <trkpt lat="48.89108" lon="2.35185">
        <ele>109.4</ele>
        <time>2015-07-13T19:10:11.865Z</time>
      </trkpt>
      <trkpt lat="48.89109" lon="2.35177">
        <ele>109.5</ele>
        <time>2015-07-13T19:10:12.880Z</time>
      </trkpt>
      <trkpt lat="48.89109" lon="2.35169">
        <ele>109.5</ele>
        <time>2015-07-13T19:10:13.888Z</time>
      </trkpt>
      <trkpt lat="48.89111" lon="2.35162">
        <ele>109.7</ele>
        <time>2015-07-13T19:10:14.903Z</time>
      </trkpt>
      <trkpt lat="48.89114" lon="2.35155">
        <ele>110.1</ele>
        <time>2015-07-13T19:10:15.918Z</time>
      </trkpt>
      <trkpt lat="48.89117" lon="2.35149">
        <ele>110.6</ele>
        <time>2015-07-13T19:10:16.856Z</time>
      </trkpt>
      <trkpt lat="48.89119" lon="2.35143">
        <ele>110.9</ele>
        <time>2015-07-13T19:10:17.949Z</time>
      </trkpt>
      <trkpt lat="48.89121" lon="2.35136">
        <ele>111.1</ele>
        <time>2015-07-13T19:10:18.845Z</time>
      </trkpt>
      <trkpt lat="48.89122" lon="2.35128">
        <ele>111.3</ele>
        <time>2015-07-13T19:10:19.844Z</time>
      </trkpt>
      <trkpt lat="48.89124" lon="2.35121">
        <ele>111.6</ele>
        <time>2015-07-13T19:10:20.848Z</time>
      </trkpt>
      <trkpt lat="48.89125" lon="2.35113">
        <ele>111.8</ele>
        <time>2015-07-13T19:10:21.878Z</time>
      </trkpt>
      <trkpt lat="48.89126" lon="2.35105">
        <ele>112</ele>
        <time>2015-07-13T19:10:22.891Z</time>
      </trkpt>
      <trkpt lat="48.89127" lon="2.35096">
        <ele>112.2</ele>
        <time>2015-07-13T19:10:23.958Z</time>
      </trkpt>
      <trkpt lat="48.89128" lon="2.35085">
        <ele>112.2</ele>
        <time>2015-07-13T19:10:24.845Z</time>
      </trkpt>
      <trkpt lat="48.8913" lon="2.35075">
        <ele>112.4</ele>
        <time>2015-07-13T19:10:25.846Z</time>
      </trkpt>
      <trkpt lat="48.89131" lon="2.35065">
        <ele>112.6</ele>
        <time>2015-07-13T19:10:26.869Z</time>
      </trkpt>
      <trkpt lat="48.89133" lon="2.35056">
        <ele>112.6</ele>
        <time>2015-07-13T19:10:27.893Z</time>
      </trkpt>
      <trkpt lat="48.89134" lon="2.35046">
        <ele>112.7</ele>
        <time>2015-07-13T19:10:29.142Z</time>
      </trkpt>
      <trkpt lat="48.89136" lon="2.35037">
        <ele>112.9</ele>
        <time>2015-07-13T19:10:30.008Z</time>
      </trkpt>
      <trkpt lat="48.89138" lon="2.35028">
        <ele>112.9</ele>
        <time>2015-07-13T19:10:30.851Z</time>
      </trkpt>
      <trkpt lat="48.89139" lon="2.35019">
        <ele>113</ele>
        <time>2015-07-13T19:10:31.886Z</time>
      </trkpt>
      <trkpt lat="48.8914" lon="2.35011">
        <ele>113.1</ele>
        <time>2015-07-13T19:10:32.887Z</time>
      </trkpt>
      <trkpt lat="48.89142" lon="2.35004">
        <ele>113.1</ele>
        <time>2015-07-13T19:10:33.889Z</time>
      </trkpt>
      <trkpt lat="48.89143" lon="2.34997">
        <ele>113</ele>
        <time>2015-07-13T19:10:34.906Z</time>
      </trkpt>
      <trkpt lat="48.89145" lon="2.34991">
        <ele>113</ele>
        <time>2015-07-13T19:10:35.915Z</time>
      </trkpt>
      <trkpt lat="48.89147" lon="2.3498">
        <ele>112.8</ele>
        <time>2015-07-13T19:10:37.838Z</time>
      </trkpt>
      <trkpt lat="48.89148" lon="2.34976">
        <ele>112.9</ele>
        <time>2015-07-13T19:10:38.854Z</time>
      </trkpt>
      <trkpt lat="48.89153" lon="2.34966">
        <ele>113.1</ele>
        <time>2015-07-13T19:10:42.838Z</time>
      </trkpt>
      <trkpt lat="48.89154" lon="2.34964">
        <ele>113.2</ele>
        <time>2015-07-13T19:10:43.847Z</time>
      </trkpt>
      <trkpt lat="48.89153" lon="2.34964">
        <ele>113.2</ele>
        <time>2015-07-13T19:10:46.874Z</time>
      </trkpt>
      <trkpt lat="48.89153" lon="2.34964">
        <ele>113.4</ele>
        <time>2015-07-13T19:10:47.888Z</time>
      </trkpt>
      <trkpt lat="48.89152" lon="2.34965">
        <ele>113.5</ele>
        <time>2015-07-13T19:10:51.871Z</time>
      </trkpt>
      <trkpt lat="48.89151" lon="2.34965">
        <ele>114.3</ele>
        <time>2015-07-13T19:10:52.871Z</time>
      </trkpt>
      <trkpt lat="48.89151" lon="2.34964">
        <ele>114.5</ele>
        <time>2015-07-13T19:10:53.914Z</time>
      </trkpt>
      <trkpt lat="48.89151" lon="2.34964">
        <ele>114.7</ele>
        <time>2015-07-13T19:10:54.846Z</time>
      </trkpt>
      <trkpt lat="48.89151" lon="2.34965">
        <ele>114.9</ele>
        <time>2015-07-13T19:11:19.854Z</time>
      </trkpt>
      <trkpt lat="48.89157" lon="2.34967">
        <ele>118.7</ele>
        <time>2015-07-13T19:11:20.873Z</time>
      </trkpt>
      <trkpt lat="48.89163" lon="2.34957">
        <ele>120.1</ele>
        <time>2015-07-13T19:11:25.839Z</time>
      </trkpt>
      <trkpt lat="48.89162" lon="2.34949">
        <ele>121.1</ele>
        <time>2015-07-13T19:11:26.914Z</time>
      </trkpt>
      <trkpt lat="48.89161" lon="2.34936">
        <ele>121.8</ele>
        <time>2015-07-13T19:11:28.855Z</time>
      </trkpt>
      <trkpt lat="48.89161" lon="2.34931">
        <ele>121.8</ele>
        <time>2015-07-13T19:11:29.914Z</time>
      </trkpt>
      <trkpt lat="48.89161" lon="2.3492">
        <ele>121.9</ele>
        <time>2015-07-13T19:11:31.855Z</time>
      </trkpt>
      <trkpt lat="48.89162" lon="2.34914">
        <ele>122</ele>
        <time>2015-07-13T19:11:32.875Z</time>
      </trkpt>
      <trkpt lat="48.89164" lon="2.34902">
        <ele>121.5</ele>
        <time>2015-07-13T19:11:34.852Z</time>
      </trkpt>
      <trkpt lat="48.89166" lon="2.34896">
        <ele>121.1</ele>
        <time>2015-07-13T19:11:35.881Z</time>
      </trkpt>
      <trkpt lat="48.89167" lon="2.34883">
        <ele>121.4</ele>
        <time>2015-07-13T19:11:38.172Z</time>
      </trkpt>
      <trkpt lat="48.89168" lon="2.34875">
        <ele>121.7</ele>
        <time>2015-07-13T19:11:38.845Z</time>
      </trkpt>
      <trkpt lat="48.89169" lon="2.34868">
        <ele>121.8</ele>
        <time>2015-07-13T19:11:39.855Z</time>
      </trkpt>
      <trkpt lat="48.89169" lon="2.34859">
        <ele>121.9</ele>
        <time>2015-07-13T19:11:40.875Z</time>
      </trkpt>
      <trkpt lat="48.8917" lon="2.3485">
        <ele>122.1</ele>
        <time>2015-07-13T19:11:41.954Z</time>
      </trkpt>
      <trkpt lat="48.89171" lon="2.34842">
        <ele>122.2</ele>
        <time>2015-07-13T19:11:42.840Z</time>
      </trkpt>
      <trkpt lat="48.89173" lon="2.34835">
        <ele>122.2</ele>
        <time>2015-07-13T19:11:43.883Z</time>
      </trkpt>
      <trkpt lat="48.89174" lon="2.34829">
        <ele>121.7</ele>
        <time>2015-07-13T19:11:44.894Z</time>
      </trkpt>
      <trkpt lat="48.89175" lon="2.34821">
        <ele>121.6</ele>
        <time>2015-07-13T19:11:45.996Z</time>
      </trkpt>
      <trkpt lat="48.89177" lon="2.34814">
        <ele>121.5</ele>
        <time>2015-07-13T19:11:46.842Z</time>
      </trkpt>
      <trkpt lat="48.89179" lon="2.34805">
        <ele>121.4</ele>
        <time>2015-07-13T19:11:47.887Z</time>
      </trkpt>
      <trkpt lat="48.89181" lon="2.34797">
        <ele>121.4</ele>
        <time>2015-07-13T19:11:48.905Z</time>
      </trkpt>
      <trkpt lat="48.89182" lon="2.34789">
        <ele>121.5</ele>
        <time>2015-07-13T19:11:49.805Z</time>
      </trkpt>
      <trkpt lat="48.89184" lon="2.34782">
        <ele>121.5</ele>
        <time>2015-07-13T19:11:50.842Z</time>
      </trkpt>
      <trkpt lat="48.89185" lon="2.34775">
        <ele>121.7</ele>
        <time>2015-07-13T19:11:51.853Z</time>
      </trkpt>
      <trkpt lat="48.89185" lon="2.34768">
        <ele>121.5</ele>
        <time>2015-07-13T19:11:52.855Z</time>
      </trkpt>
      <trkpt lat="48.89186" lon="2.34761">
        <ele>121.3</ele>
        <time>2015-07-13T19:11:53.911Z</time>
      </trkpt>
      <trkpt lat="48.89188" lon="2.34755">
        <ele>121.3</ele>
        <time>2015-07-13T19:11:54.886Z</time>
      </trkpt>
      <trkpt lat="48.8919" lon="2.34748">
        <ele>121.4</ele>
        <time>2015-07-13T19:11:55.849Z</time>
      </trkpt>
      <trkpt lat="48.89191" lon="2.3474">
        <ele>121.5</ele>
        <time>2015-07-13T19:11:56.842Z</time>
      </trkpt>
      <trkpt lat="48.89193" lon="2.34732">
        <ele>121.7</ele>
        <time>2015-07-13T19:11:57.880Z</time>
      </trkpt>
      <trkpt lat="48.89195" lon="2.34723">
        <ele>121.8</ele>
        <time>2015-07-13T19:11:58.899Z</time>
      </trkpt>
      <trkpt lat="48.89197" lon="2.34717">
        <ele>121.9</ele>
        <time>2015-07-13T19:11:59.917Z</time>
      </trkpt>
      <trkpt lat="48.89198" lon="2.34709">
        <ele>121.9</ele>
        <time>2015-07-13T19:12:00.804Z</time>
      </trkpt>
      <trkpt lat="48.892" lon="2.34703">
        <ele>122</ele>
        <time>2015-07-13T19:12:01.838Z</time>
      </trkpt>
      <trkpt lat="48.89202" lon="2.34697">
        <ele>122.2</ele>
        <time>2015-07-13T19:12:02.849Z</time>
      </trkpt>
      <trkpt lat="48.89204" lon="2.3469">
        <ele>122.1</ele>
        <time>2015-07-13T19:12:03.856Z</time>
      </trkpt>
      <trkpt lat="48.89206" lon="2.34682">
        <ele>122.2</ele>
        <time>2015-07-13T19:12:04.863Z</time>
      </trkpt>
      <trkpt lat="48.89207" lon="2.34675">
        <ele>122.2</ele>
        <time>2015-07-13T19:12:05.877Z</time>
      </trkpt>
      <trkpt lat="48.89209" lon="2.34667">
        <ele>122.3</ele>
        <time>2015-07-13T19:12:06.889Z</time>
      </trkpt>
      <trkpt lat="48.8921" lon="2.34659">
        <ele>122.5</ele>
        <time>2015-07-13T19:12:07.919Z</time>
      </trkpt>
      <trkpt lat="48.89211" lon="2.34651">
        <ele>122.8</ele>
        <time>2015-07-13T19:12:08.836Z</time>
      </trkpt>
      <trkpt lat="48.89211" lon="2.34641">
        <ele>122.6</ele>
        <time>2015-07-13T19:12:09.858Z</time>
      </trkpt>
      <trkpt lat="48.89212" lon="2.3463">
        <ele>123</ele>
        <time>2015-07-13T19:12:10.866Z</time>
      </trkpt>
      <trkpt lat="48.89212" lon="2.3462">
        <ele>123.8</ele>
        <time>2015-07-13T19:12:11.882Z</time>
      </trkpt>
      <trkpt lat="48.89213" lon="2.34611">
        <ele>124.5</ele>
        <time>2015-07-13T19:12:12.925Z</time>
      </trkpt>
      <trkpt lat="48.89216" lon="2.34599">
        <ele>124.9</ele>
        <time>2015-07-13T19:12:14.845Z</time>
      </trkpt>
      <trkpt lat="48.89217" lon="2.34594">
        <ele>125.1</ele>
        <time>2015-07-13T19:12:15.843Z</time>
      </trkpt>
      <trkpt lat="48.8922" lon="2.34583">
        <ele>125.4</ele>
        <time>2015-07-13T19:12:17.883Z</time>
      </trkpt>
      <trkpt lat="48.89221" lon="2.34577">
        <ele>125.3</ele>
        <time>2015-07-13T19:12:18.886Z</time>
      </trkpt>
      <trkpt lat="48.89224" lon="2.34567">
        <ele>125</ele>
        <time>2015-07-13T19:12:20.889Z</time>
      </trkpt>
      <trkpt lat="48.89226" lon="2.34562">
        <ele>124.9</ele>
        <time>2015-07-13T19:12:21.941Z</time>
      </trkpt>
      <trkpt lat="48.89228" lon="2.34549">
        <ele>124.8</ele>
        <time>2015-07-13T19:12:23.909Z</time>
      </trkpt>
      <trkpt lat="48.89229" lon="2.34542">
        <ele>124.8</ele>
        <time>2015-07-13T19:12:24.914Z</time>
      </trkpt>
      <trkpt lat="48.89232" lon="2.34529">
        <ele>124.5</ele>
        <time>2015-07-13T19:12:26.844Z</time>
      </trkpt>
      <trkpt lat="48.89233" lon="2.34523">
        <ele>124.3</ele>
        <time>2015-07-13T19:12:27.852Z</time>
      </trkpt>
      <trkpt lat="48.89235" lon="2.34513">
        <ele>123.6</ele>
        <time>2015-07-13T19:12:29.918Z</time>
      </trkpt>
      <trkpt lat="48.89236" lon="2.34509">
        <ele>123.6</ele>
        <time>2015-07-13T19:12:30.863Z</time>
      </trkpt>
      <trkpt lat="48.89238" lon="2.34497">
        <ele>121.5</ele>
        <time>2015-07-13T19:12:43.957Z</time>
      </trkpt>
      <trkpt lat="48.89239" lon="2.34495">
        <ele>121.6</ele>
        <time>2015-07-13T19:12:44.865Z</time>
      </trkpt>
      <trkpt lat="48.89239" lon="2.34483">
        <ele>121.3</ele>
        <time>2015-07-13T19:12:49.866Z</time>
      </trkpt>
      <trkpt lat="48.89239" lon="2.34481">
        <ele>121.5</ele>
        <time>2015-07-13T19:12:50.889Z</time>
      </trkpt>
      <trkpt lat="48.8924" lon="2.34469">
        <ele>121.4</ele>
        <time>2015-07-13T19:12:55.837Z</time>
      </trkpt>
      <trkpt lat="48.8924" lon="2.34467">
        <ele>121.1</ele>
        <time>2015-07-13T19:12:56.871Z</time>
      </trkpt>
      <trkpt lat="48.89246" lon="2.34459">
        <ele>120.8</ele>
        <time>2015-07-13T19:13:04.904Z</time>
      </trkpt>
      <trkpt lat="48.89247" lon="2.34457">
        <ele>121</ele>
        <time>2015-07-13T19:13:05.947Z</time>
      </trkpt>
      <trkpt lat="48.8925" lon="2.34446">
        <ele>121.4</ele>
        <time>2015-07-13T19:13:10.913Z</time>
      </trkpt>
      <trkpt lat="48.89251" lon="2.34444">
        <ele>121.6</ele>
        <time>2015-07-13T19:13:11.930Z</time>
      </trkpt>
      <trkpt lat="48.89258" lon="2.34436">
        <ele>122.9</ele>
        <time>2015-07-13T19:13:18.870Z</time>
      </trkpt>
      <trkpt lat="48.89259" lon="2.34437">
        <ele>123.2</ele>
        <time>2015-07-13T19:13:19.846Z</time>
      </trkpt>
      <trkpt lat="48.89259" lon="2.34438">
        <ele>123.4</ele>
        <time>2015-07-13T19:14:17.934Z</time>
      </trkpt>
      <trkpt lat="48.89261" lon="2.34454">
        <ele>126.4</ele>
        <time>2015-07-13T19:14:18.837Z</time>
      </trkpt>
      <trkpt lat="48.89262" lon="2.34452">
        <ele>127.9</ele>
        <time>2015-07-13T19:14:21.950Z</time>
      </trkpt>
      <trkpt lat="48.89263" lon="2.34451">
        <ele>127.8</ele>
        <time>2015-07-13T19:14:22.898Z</time>
      </trkpt>
      <trkpt lat="48.89263" lon="2.34451">
        <ele>127.7</ele>
        <time>2015-07-13T19:14:23.953Z</time>
      </trkpt>
      <trkpt lat="48.89262" lon="2.34451">
        <ele>127.4</ele>
        <time>2015-07-13T19:14:24.806Z</time>
      </trkpt>
      <trkpt lat="48.8926" lon="2.34451">
        <ele>127.4</ele>
        <time>2015-07-13T19:14:27.857Z</time>
      </trkpt>
      <trkpt lat="48.89261" lon="2.34451">
        <ele>127.6</ele>
        <time>2015-07-13T19:14:28.866Z</time>
      </trkpt>
      <trkpt lat="48.89261" lon="2.34451">
        <ele>128</ele>
        <time>2015-07-13T19:16:52.869Z</time>
      </trkpt>
      <trkpt lat="48.89265" lon="2.3445">
        <ele>132.4</ele>
        <time>2015-07-13T19:16:53.961Z</time>
      </trkpt>
      <trkpt lat="48.89265" lon="2.34449">
        <ele>131.7</ele>
        <time>2015-07-13T19:16:55.871Z</time>
      </trkpt>
      <trkpt lat="48.89265" lon="2.34448">
        <ele>131.6</ele>
        <time>2015-07-13T19:16:56.889Z</time>
      </trkpt>
      <trkpt lat="48.89265" lon="2.34448">
        <ele>131.7</ele>
        <time>2015-07-13T19:16:57.816Z</time>
      </trkpt>
      <trkpt lat="48.89265" lon="2.34447">
        <ele>131.6</ele>
        <time>2015-07-13T19:16:58.844Z</time>
      </trkpt>
      <trkpt lat="48.89266" lon="2.34436">
        <ele>127.7</ele>
        <time>2015-07-13T19:17:20.023Z</time>
      </trkpt>
      <trkpt lat="48.89267" lon="2.34433">
        <ele>127.4</ele>
        <time>2015-07-13T19:17:20.888Z</time>
      </trkpt>
      <trkpt lat="48.89271" lon="2.34426">
        <ele>127.1</ele>
        <time>2015-07-13T19:17:22.911Z</time>
      </trkpt>
      <trkpt lat="48.89274" lon="2.3442">
        <ele>126.9</ele>
        <time>2015-07-13T19:17:23.967Z</time>
      </trkpt>
      <trkpt lat="48.89277" lon="2.3441">
        <ele>126.7</ele>
        <time>2015-07-13T19:17:25.829Z</time>
      </trkpt>
      <trkpt lat="48.89278" lon="2.34404">
        <ele>126.7</ele>
        <time>2015-07-13T19:17:26.839Z</time>
      </trkpt>
      <trkpt lat="48.89279" lon="2.34396">
        <ele>126.6</ele>
        <time>2015-07-13T19:17:27.915Z</time>
      </trkpt>
      <trkpt lat="48.89279" lon="2.34387">
        <ele>126.7</ele>
        <time>2015-07-13T19:17:28.829Z</time>
      </trkpt>
      <trkpt lat="48.8928" lon="2.3438">
        <ele>126.9</ele>
        <time>2015-07-13T19:17:29.920Z</time>
      </trkpt>
      <trkpt lat="48.89282" lon="2.34372">
        <ele>127</ele>
        <time>2015-07-13T19:17:30.844Z</time>
      </trkpt>
      <trkpt lat="48.89283" lon="2.34365">
        <ele>127.2</ele>
        <time>2015-07-13T19:17:31.847Z</time>
      </trkpt>
      <trkpt lat="48.89284" lon="2.34356">
        <ele>127.2</ele>
        <time>2015-07-13T19:17:32.860Z</time>
      </trkpt>
      <trkpt lat="48.89284" lon="2.34346">
        <ele>127.2</ele>
        <time>2015-07-13T19:17:33.870Z</time>
      </trkpt>
      <trkpt lat="48.89285" lon="2.34337">
        <ele>127.2</ele>
        <time>2015-07-13T19:17:34.894Z</time>
      </trkpt>
      <trkpt lat="48.89285" lon="2.34327">
        <ele>127.3</ele>
        <time>2015-07-13T19:17:35.913Z</time>
      </trkpt>
      <trkpt lat="48.89285" lon="2.34318">
        <ele>127.4</ele>
        <time>2015-07-13T19:17:36.821Z</time>
      </trkpt>
      <trkpt lat="48.89285" lon="2.34309">
        <ele>127.6</ele>
        <time>2015-07-13T19:17:37.811Z</time>
      </trkpt>
      <trkpt lat="48.89284" lon="2.343">
        <ele>127.7</ele>
        <time>2015-07-13T19:17:38.853Z</time>
      </trkpt>
      <trkpt lat="48.89282" lon="2.34291">
        <ele>127.8</ele>
        <time>2015-07-13T19:17:39.794Z</time>
      </trkpt>
      <trkpt lat="48.8928" lon="2.34282">
        <ele>127.9</ele>
        <time>2015-07-13T19:17:40.852Z</time>
      </trkpt>
      <trkpt lat="48.8928" lon="2.34274">
        <ele>128.1</ele>
        <time>2015-07-13T19:17:41.853Z</time>
      </trkpt>
      <trkpt lat="48.89279" lon="2.34265">
        <ele>128.2</ele>
        <time>2015-07-13T19:17:42.868Z</time>
      </trkpt>
      <trkpt lat="48.89279" lon="2.34257">
        <ele>128.5</ele>
        <time>2015-07-13T19:17:43.881Z</time>
      </trkpt>
      <trkpt lat="48.89279" lon="2.34249">
        <ele>128.6</ele>
        <time>2015-07-13T19:17:44.906Z</time>
      </trkpt>
      <trkpt lat="48.8928" lon="2.34242">
        <ele>128.7</ele>
        <time>2015-07-13T19:17:45.831Z</time>
      </trkpt>
      <trkpt lat="48.89279" lon="2.34234">
        <ele>128.9</ele>
        <time>2015-07-13T19:17:46.849Z</time>
      </trkpt>
      <trkpt lat="48.8928" lon="2.34227">
        <ele>129.3</ele>
        <time>2015-07-13T19:17:47.944Z</time>
      </trkpt>
      <trkpt lat="48.8928" lon="2.3422">
        <ele>129.5</ele>
        <time>2015-07-13T19:17:48.826Z</time>
      </trkpt>
      <trkpt lat="48.8928" lon="2.34213">
        <ele>129.7</ele>
        <time>2015-07-13T19:17:49.833Z</time>
      </trkpt>
      <trkpt lat="48.8928" lon="2.34205">
        <ele>129.9</ele>
        <time>2015-07-13T19:17:50.861Z</time>
      </trkpt>
      <trkpt lat="48.89281" lon="2.34198">
        <ele>130.1</ele>
        <time>2015-07-13T19:17:51.882Z</time>
      </trkpt>
      <trkpt lat="48.89282" lon="2.34189">
        <ele>130.3</ele>
        <time>2015-07-13T19:17:52.916Z</time>
      </trkpt>
      <trkpt lat="48.89284" lon="2.34182">
        <ele>130.6</ele>
        <time>2015-07-13T19:17:53.929Z</time>
      </trkpt>
      <trkpt lat="48.89285" lon="2.34175">
        <ele>130.7</ele>
        <time>2015-07-13T19:17:54.811Z</time>
      </trkpt>
      <trkpt lat="48.89287" lon="2.34168">
        <ele>130.6</ele>
        <time>2015-07-13T19:17:55.832Z</time>
      </trkpt>
      <trkpt lat="48.89287" lon="2.3416">
        <ele>130.7</ele>
        <time>2015-07-13T19:17:56.842Z</time>
      </trkpt>
      <trkpt lat="48.89288" lon="2.34152">
        <ele>130.7</ele>
        <time>2015-07-13T19:17:57.881Z</time>
      </trkpt>
      <trkpt lat="48.89288" lon="2.34145">
        <ele>130.9</ele>
        <time>2015-07-13T19:17:58.886Z</time>
      </trkpt>
      <trkpt lat="48.89288" lon="2.34137">
        <ele>131</ele>
        <time>2015-07-13T19:17:59.943Z</time>
      </trkpt>
      <trkpt lat="48.89288" lon="2.3413">
        <ele>131.1</ele>
        <time>2015-07-13T19:18:00.827Z</time>
      </trkpt>
      <trkpt lat="48.8929" lon="2.34117">
        <ele>131.4</ele>
        <time>2015-07-13T19:18:02.891Z</time>
      </trkpt>
      <trkpt lat="48.89292" lon="2.34111">
        <ele>131.6</ele>
        <time>2015-07-13T19:18:03.859Z</time>
      </trkpt>
      <trkpt lat="48.89293" lon="2.34104">
        <ele>131.8</ele>
        <time>2015-07-13T19:18:04.832Z</time>
      </trkpt>
      <trkpt lat="48.89294" lon="2.34096">
        <ele>132</ele>
        <time>2015-07-13T19:18:05.868Z</time>
      </trkpt>
      <trkpt lat="48.89295" lon="2.34088">
        <ele>132.1</ele>
        <time>2015-07-13T19:18:06.859Z</time>
      </trkpt>
      <trkpt lat="48.89296" lon="2.34081">
        <ele>132.2</ele>
        <time>2015-07-13T19:18:07.902Z</time>
      </trkpt>
      <trkpt lat="48.89296" lon="2.34074">
        <ele>132.4</ele>
        <time>2015-07-13T19:18:08.889Z</time>
      </trkpt>
      <trkpt lat="48.89297" lon="2.34067">
        <ele>132.5</ele>
        <time>2015-07-13T19:18:09.909Z</time>
      </trkpt>
      <trkpt lat="48.89298" lon="2.34059">
        <ele>132.5</ele>
        <time>2015-07-13T19:18:10.930Z</time>
      </trkpt>
      <trkpt lat="48.89299" lon="2.34052">
        <ele>132.5</ele>
        <time>2015-07-13T19:18:11.930Z</time>
      </trkpt>
      <trkpt lat="48.89299" lon="2.34045">
        <ele>132.7</ele>
        <time>2015-07-13T19:18:12.856Z</time>
      </trkpt>
      <trkpt lat="48.893" lon="2.34038">
        <ele>132.8</ele>
        <time>2015-07-13T19:18:14.086Z</time>
      </trkpt>
      <trkpt lat="48.893" lon="2.34031">
        <ele>132.9</ele>
        <time>2015-07-13T19:18:14.864Z</time>
      </trkpt>
      <trkpt lat="48.89301" lon="2.34024">
        <ele>133.1</ele>
        <time>2015-07-13T19:18:15.866Z</time>
      </trkpt>
      <trkpt lat="48.89303" lon="2.34016">
        <ele>133.3</ele>
        <time>2015-07-13T19:18:16.879Z</time>
      </trkpt>
      <trkpt lat="48.89305" lon="2.34009">
        <ele>133.3</ele>
        <time>2015-07-13T19:18:17.916Z</time>
      </trkpt>
      <trkpt lat="48.89307" lon="2.34003">
        <ele>133.2</ele>
        <time>2015-07-13T19:18:18.857Z</time>
      </trkpt>
      <trkpt lat="48.89309" lon="2.33996">
        <ele>133.1</ele>
        <time>2015-07-13T19:18:19.829Z</time>
      </trkpt>
      <trkpt lat="48.89312" lon="2.33984">
        <ele>133.3</ele>
        <time>2015-07-13T19:18:21.844Z</time>
      </trkpt>
      <trkpt lat="48.89312" lon="2.33977">
        <ele>133.3</ele>
        <time>2015-07-13T19:18:22.857Z</time>
      </trkpt>
      <trkpt lat="48.89313" lon="2.33969">
        <ele>133.2</ele>
        <time>2015-07-13T19:18:23.908Z</time>
      </trkpt>
      <trkpt lat="48.89314" lon="2.33961">
        <ele>133.2</ele>
        <time>2015-07-13T19:18:24.829Z</time>
      </trkpt>
      <trkpt lat="48.89315" lon="2.33952">
        <ele>133</ele>
        <time>2015-07-13T19:18:25.837Z</time>
      </trkpt>
      <trkpt lat="48.89317" lon="2.33943">
        <ele>133</ele>
        <time>2015-07-13T19:18:26.849Z</time>
      </trkpt>
      <trkpt lat="48.8932" lon="2.33934">
        <ele>133</ele>
        <time>2015-07-13T19:18:27.857Z</time>
      </trkpt>
      <trkpt lat="48.89322" lon="2.33924">
        <ele>133</ele>
        <time>2015-07-13T19:18:28.866Z</time>
      </trkpt>
      <trkpt lat="48.89325" lon="2.33915">
        <ele>133.1</ele>
        <time>2015-07-13T19:18:29.920Z</time>
      </trkpt>
      <trkpt lat="48.89327" lon="2.33905">
        <ele>133.1</ele>
        <time>2015-07-13T19:18:30.825Z</time>
      </trkpt>
      <trkpt lat="48.89326" lon="2.33894">
        <ele>133</ele>
        <time>2015-07-13T19:18:31.829Z</time>
      </trkpt>
      <trkpt lat="48.89327" lon="2.33882">
        <ele>133</ele>
        <time>2015-07-13T19:18:32.839Z</time>
      </trkpt>
      <trkpt lat="48.89327" lon="2.33872">
        <ele>133</ele>
        <time>2015-07-13T19:18:33.853Z</time>
      </trkpt>
      <trkpt lat="48.89327" lon="2.3386">
        <ele>133.1</ele>
        <time>2015-07-13T19:18:34.856Z</time>
      </trkpt>
      <trkpt lat="48.89328" lon="2.33849">
        <ele>133.1</ele>
        <time>2015-07-13T19:18:35.878Z</time>
      </trkpt>
      <trkpt lat="48.8933" lon="2.33838">
        <ele>133.2</ele>
        <time>2015-07-13T19:18:36.882Z</time>
      </trkpt>
      <trkpt lat="48.89332" lon="2.33826">
        <ele>133.1</ele>
        <time>2015-07-13T19:18:37.905Z</time>
      </trkpt>
      <trkpt lat="48.89334" lon="2.33814">
        <ele>133.4</ele>
        <time>2015-07-13T19:18:38.808Z</time>
      </trkpt>
      <trkpt lat="48.89337" lon="2.33804">
        <ele>133.5</ele>
        <time>2015-07-13T19:18:39.846Z</time>
      </trkpt>
      <trkpt lat="48.89339" lon="2.33793">
        <ele>133.7</ele>
        <time>2015-07-13T19:18:40.879Z</time>
      </trkpt>
      <trkpt lat="48.89341" lon="2.33783">
        <ele>133.7</ele>
        <time>2015-07-13T19:18:41.904Z</time>
      </trkpt>
      <trkpt lat="48.89342" lon="2.33773">
        <ele>133.7</ele>
        <time>2015-07-13T19:18:42.906Z</time>
      </trkpt>
      <trkpt lat="48.89344" lon="2.33763">
        <ele>133.8</ele>
        <time>2015-07-13T19:18:43.841Z</time>
      </trkpt>
      <trkpt lat="48.89345" lon="2.33753">
        <ele>133.9</ele>
        <time>2015-07-13T19:18:44.849Z</time>
      </trkpt>
      <trkpt lat="48.89345" lon="2.33743">
        <ele>134.1</ele>
        <time>2015-07-13T19:18:45.940Z</time>
      </trkpt>
      <trkpt lat="48.89345" lon="2.33734">
        <ele>134</ele>
        <time>2015-07-13T19:18:46.858Z</time>
      </trkpt>
      <trkpt lat="48.89345" lon="2.33724">
        <ele>133.8</ele>
        <time>2015-07-13T19:18:47.908Z</time>
      </trkpt>
      <trkpt lat="48.89345" lon="2.33714">
        <ele>133.6</ele>
        <time>2015-07-13T19:18:48.832Z</time>
      </trkpt>
      <trkpt lat="48.89346" lon="2.33704">
        <ele>133.4</ele>
        <time>2015-07-13T19:18:49.823Z</time>
      </trkpt>
      <trkpt lat="48.89349" lon="2.33695">
        <ele>133.2</ele>
        <time>2015-07-13T19:18:50.833Z</time>
      </trkpt>
      <trkpt lat="48.89349" lon="2.33686">
        <ele>133</ele>
        <time>2015-07-13T19:18:51.842Z</time>
      </trkpt>
      <trkpt lat="48.89351" lon="2.33678">
        <ele>132.8</ele>
        <time>2015-07-13T19:18:52.861Z</time>
      </trkpt>
      <trkpt lat="48.89352" lon="2.33669">
        <ele>132.8</ele>
        <time>2015-07-13T19:18:53.885Z</time>
      </trkpt>
      <trkpt lat="48.89352" lon="2.33661">
        <ele>133</ele>
        <time>2015-07-13T19:18:54.891Z</time>
      </trkpt>
      <trkpt lat="48.89351" lon="2.33652">
        <ele>133.5</ele>
        <time>2015-07-13T19:18:55.834Z</time>
      </trkpt>
      <trkpt lat="48.89351" lon="2.33646">
        <ele>133.6</ele>
        <time>2015-07-13T19:18:56.843Z</time>
      </trkpt>
      <trkpt lat="48.89353" lon="2.33634">
        <ele>133.9</ele>
        <time>2015-07-13T19:18:59.947Z</time>
      </trkpt>
      <trkpt lat="48.89354" lon="2.33632">
        <ele>134</ele>
        <time>2015-07-13T19:19:00.833Z</time>
      </trkpt>
      <trkpt lat="48.89355" lon="2.33632">
        <ele>134</ele>
        <time>2015-07-13T19:19:01.836Z</time>
      </trkpt>
      <trkpt lat="48.89355" lon="2.33632">
        <ele>134</ele>
        <time>2015-07-13T19:19:02.857Z</time>
      </trkpt>
      <trkpt lat="48.89364" lon="2.3363">
        <ele>134</ele>
        <time>2015-07-13T19:19:13.863Z</time>
      </trkpt>
      <trkpt lat="48.89365" lon="2.33628">
        <ele>134.3</ele>
        <time>2015-07-13T19:19:14.845Z</time>
      </trkpt>
      <trkpt lat="48.8937" lon="2.33621">
        <ele>134.6</ele>
        <time>2015-07-13T19:19:17.922Z</time>
      </trkpt>
      <trkpt lat="48.89372" lon="2.33618">
        <ele>134.6</ele>
        <time>2015-07-13T19:19:18.868Z</time>
      </trkpt>
      <trkpt lat="48.89376" lon="2.3361">
        <ele>134.3</ele>
        <time>2015-07-13T19:19:20.907Z</time>
      </trkpt>
      <trkpt lat="48.89379" lon="2.33606">
        <ele>134.1</ele>
        <time>2015-07-13T19:19:21.820Z</time>
      </trkpt>
      <trkpt lat="48.89382" lon="2.33594">
        <ele>133.7</ele>
        <time>2015-07-13T19:19:23.962Z</time>
      </trkpt>
      <trkpt lat="48.89383" lon="2.33587">
        <ele>133.6</ele>
        <time>2015-07-13T19:19:24.846Z</time>
      </trkpt>
      <trkpt lat="48.89385" lon="2.33579">
        <ele>133.5</ele>
        <time>2015-07-13T19:19:25.851Z</time>
      </trkpt>
      <trkpt lat="48.89386" lon="2.3357">
        <ele>133.4</ele>
        <time>2015-07-13T19:19:26.941Z</time>
      </trkpt>
      <trkpt lat="48.89386" lon="2.33561">
        <ele>133.2</ele>
        <time>2015-07-13T19:19:27.922Z</time>
      </trkpt>
      <trkpt lat="48.89387" lon="2.33551">
        <ele>133</ele>
        <time>2015-07-13T19:19:28.937Z</time>
      </trkpt>
      <trkpt lat="48.89387" lon="2.33541">
        <ele>132.9</ele>
        <time>2015-07-13T19:19:29.890Z</time>
      </trkpt>
      <trkpt lat="48.89386" lon="2.33532">
        <ele>132.9</ele>
        <time>2015-07-13T19:19:30.900Z</time>
      </trkpt>
      <trkpt lat="48.89385" lon="2.33521">
        <ele>132.7</ele>
        <time>2015-07-13T19:19:31.828Z</time>
      </trkpt>
      <trkpt lat="48.89385" lon="2.33511">
        <ele>132.6</ele>
        <time>2015-07-13T19:19:32.841Z</time>
      </trkpt>
      <trkpt lat="48.89386" lon="2.33502">
        <ele>132.2</ele>
        <time>2015-07-13T19:19:33.849Z</time>
      </trkpt>
      <trkpt lat="48.89388" lon="2.33491">
        <ele>132.2</ele>
        <time>2015-07-13T19:19:34.856Z</time>
      </trkpt>
      <trkpt lat="48.89389" lon="2.33478">
        <ele>132.2</ele>
        <time>2015-07-13T19:19:35.903Z</time>
      </trkpt>
      <trkpt lat="48.8939" lon="2.33465">
        <ele>132</ele>
        <time>2015-07-13T19:19:36.829Z</time>
      </trkpt>
      <trkpt lat="48.89392" lon="2.33453">
        <ele>131.7</ele>
        <time>2015-07-13T19:19:37.833Z</time>
      </trkpt>
      <trkpt lat="48.89395" lon="2.33439">
        <ele>131.5</ele>
        <time>2015-07-13T19:19:38.852Z</time>
      </trkpt>
      <trkpt lat="48.89399" lon="2.33427">
        <ele>131.5</ele>
        <time>2015-07-13T19:19:39.826Z</time>
      </trkpt>
      <trkpt lat="48.89401" lon="2.33415">
        <ele>131.6</ele>
        <time>2015-07-13T19:19:40.849Z</time>
      </trkpt>
      <trkpt lat="48.89403" lon="2.33403">
        <ele>131.5</ele>
        <time>2015-07-13T19:19:41.882Z</time>
      </trkpt>
      <trkpt lat="48.89404" lon="2.3339">
        <ele>131.2</ele>
        <time>2015-07-13T19:19:42.873Z</time>
      </trkpt>
      <trkpt lat="48.89405" lon="2.33377">
        <ele>131.4</ele>
        <time>2015-07-13T19:19:43.886Z</time>
      </trkpt>
      <trkpt lat="48.89404" lon="2.33361">
        <ele>131.2</ele>
        <time>2015-07-13T19:19:44.940Z</time>
      </trkpt>
      <trkpt lat="48.89406" lon="2.33349">
        <ele>130.2</ele>
        <time>2015-07-13T19:19:45.825Z</time>
      </trkpt>
      <trkpt lat="48.89407" lon="2.33336">
        <ele>129.4</ele>
        <time>2015-07-13T19:19:46.836Z</time>
      </trkpt>
      <trkpt lat="48.89408" lon="2.33322">
        <ele>128</ele>
        <time>2015-07-13T19:19:47.878Z</time>
      </trkpt>
      <trkpt lat="48.8941" lon="2.33309">
        <ele>126.8</ele>
        <time>2015-07-13T19:19:48.868Z</time>
      </trkpt>
      <trkpt lat="48.89411" lon="2.33294">
        <ele>126.8</ele>
        <time>2015-07-13T19:19:49.876Z</time>
      </trkpt>
      <trkpt lat="48.89412" lon="2.3328">
        <ele>127.1</ele>
        <time>2015-07-13T19:19:50.889Z</time>
      </trkpt>
      <trkpt lat="48.89414" lon="2.33271">
        <ele>127.8</ele>
        <time>2015-07-13T19:19:51.974Z</time>
      </trkpt>
      <trkpt lat="48.89418" lon="2.33259">
        <ele>128</ele>
        <time>2015-07-13T19:19:53.885Z</time>
      </trkpt>
      <trkpt lat="48.8942" lon="2.33255">
        <ele>128</ele>
        <time>2015-07-13T19:19:54.878Z</time>
      </trkpt>
      <trkpt lat="48.8942" lon="2.33241">
        <ele>123.6</ele>
        <time>2015-07-13T19:19:59.914Z</time>
      </trkpt>
      <trkpt lat="48.8942" lon="2.3324">
        <ele>123.4</ele>
        <time>2015-07-13T19:20:00.824Z</time>
      </trkpt>
      <trkpt lat="48.89424" lon="2.33248">
        <ele>122.9</ele>
        <time>2015-07-13T19:20:17.924Z</time>
      </trkpt>
      <trkpt lat="48.89426" lon="2.33259">
        <ele>123.1</ele>
        <time>2015-07-13T19:20:18.860Z</time>
      </trkpt>
      <trkpt lat="48.89422" lon="2.33249">
        <ele>124.1</ele>
        <time>2015-07-13T19:20:20.828Z</time>
      </trkpt>
      <trkpt lat="48.89421" lon="2.33243">
        <ele>124.8</ele>
        <time>2015-07-13T19:20:21.832Z</time>
      </trkpt>
      <trkpt lat="48.89419" lon="2.33235">
        <ele>125</ele>
        <time>2015-07-13T19:20:22.833Z</time>
      </trkpt>
      <trkpt lat="48.89417" lon="2.33227">
        <ele>125.4</ele>
        <time>2015-07-13T19:20:24.001Z</time>
      </trkpt>
      <trkpt lat="48.89416" lon="2.3322">
        <ele>125.7</ele>
        <time>2015-07-13T19:20:24.852Z</time>
      </trkpt>
      <trkpt lat="48.89414" lon="2.33213">
        <ele>126</ele>
        <time>2015-07-13T19:20:25.860Z</time>
      </trkpt>
      <trkpt lat="48.89412" lon="2.33205">
        <ele>126.1</ele>
        <time>2015-07-13T19:20:26.870Z</time>
      </trkpt>
      <trkpt lat="48.89409" lon="2.33194">
        <ele>126.1</ele>
        <time>2015-07-13T19:20:27.880Z</time>
      </trkpt>
      <trkpt lat="48.89407" lon="2.33184">
        <ele>126.2</ele>
        <time>2015-07-13T19:20:28.925Z</time>
      </trkpt>
      <trkpt lat="48.89405" lon="2.33173">
        <ele>125.8</ele>
        <time>2015-07-13T19:20:29.941Z</time>
      </trkpt>
      <trkpt lat="48.89403" lon="2.33162">
        <ele>125.2</ele>
        <time>2015-07-13T19:20:30.841Z</time>
      </trkpt>
      <trkpt lat="48.894" lon="2.33148">
        <ele>124.1</ele>
        <time>2015-07-13T19:20:31.851Z</time>
      </trkpt>
      <trkpt lat="48.89396" lon="2.33135">
        <ele>123.6</ele>
        <time>2015-07-13T19:20:32.869Z</time>
      </trkpt>
      <trkpt lat="48.89392" lon="2.33124">
        <ele>122.8</ele>
        <time>2015-07-13T19:20:33.893Z</time>
      </trkpt>
      <trkpt lat="48.89389" lon="2.33113">
        <ele>122.4</ele>
        <time>2015-07-13T19:20:35.072Z</time>
      </trkpt>
      <trkpt lat="48.89386" lon="2.33104">
        <ele>121.8</ele>
        <time>2015-07-13T19:20:35.821Z</time>
      </trkpt>
      <trkpt lat="48.89384" lon="2.33096">
        <ele>120.8</ele>
        <time>2015-07-13T19:20:36.831Z</time>
      </trkpt>
      <trkpt lat="48.89382" lon="2.33087">
        <ele>120.2</ele>
        <time>2015-07-13T19:20:37.839Z</time>
      </trkpt>
      <trkpt lat="48.8938" lon="2.3308">
        <ele>120</ele>
        <time>2015-07-13T19:20:38.845Z</time>
      </trkpt>
      <trkpt lat="48.89378" lon="2.33073">
        <ele>119.7</ele>
        <time>2015-07-13T19:20:39.849Z</time>
      </trkpt>
      <trkpt lat="48.89376" lon="2.33065">
        <ele>119.9</ele>
        <time>2015-07-13T19:20:40.881Z</time>
      </trkpt>
      <trkpt lat="48.89374" lon="2.33057">
        <ele>119.9</ele>
        <time>2015-07-13T19:20:41.900Z</time>
      </trkpt>
      <trkpt lat="48.89371" lon="2.33049">
        <ele>120.4</ele>
        <time>2015-07-13T19:20:42.832Z</time>
      </trkpt>
      <trkpt lat="48.8937" lon="2.3304">
        <ele>120.6</ele>
        <time>2015-07-13T19:20:43.830Z</time>
      </trkpt>
      <trkpt lat="48.89369" lon="2.3303">
        <ele>120.8</ele>
        <time>2015-07-13T19:20:44.839Z</time>
      </trkpt>
      <trkpt lat="48.89367" lon="2.33021">
        <ele>121</ele>
        <time>2015-07-13T19:20:46.091Z</time>
      </trkpt>
      <trkpt lat="48.89365" lon="2.33011">
        <ele>121.2</ele>
        <time>2015-07-13T19:20:46.839Z</time>
      </trkpt>
      <trkpt lat="48.89363" lon="2.33001">
        <ele>121.7</ele>
        <time>2015-07-13T19:20:47.879Z</time>
      </trkpt>
      <trkpt lat="48.89362" lon="2.32992">
        <ele>121.5</ele>
        <time>2015-07-13T19:20:48.883Z</time>
      </trkpt>
      <trkpt lat="48.8936" lon="2.32982">
        <ele>121.2</ele>
        <time>2015-07-13T19:20:49.896Z</time>
      </trkpt>
      <trkpt lat="48.89357" lon="2.32972">
        <ele>121</ele>
        <time>2015-07-13T19:20:50.899Z</time>
      </trkpt>
      <trkpt lat="48.89355" lon="2.32962">
        <ele>121</ele>
        <time>2015-07-13T19:20:51.914Z</time>
      </trkpt>
      <trkpt lat="48.89354" lon="2.32953">
        <ele>121.2</ele>
        <time>2015-07-13T19:20:52.837Z</time>
      </trkpt>
      <trkpt lat="48.89352" lon="2.32945">
        <ele>120.8</ele>
        <time>2015-07-13T19:20:53.952Z</time>
      </trkpt>
      <trkpt lat="48.89351" lon="2.32936">
        <ele>120.8</ele>
        <time>2015-07-13T19:20:54.832Z</time>
      </trkpt>
      <trkpt lat="48.89348" lon="2.32927">
        <ele>120.8</ele>
        <time>2015-07-13T19:20:55.850Z</time>
      </trkpt>
      <trkpt lat="48.89346" lon="2.32917">
        <ele>120.8</ele>
        <time>2015-07-13T19:20:56.860Z</time>
      </trkpt>
      <trkpt lat="48.89344" lon="2.32907">
        <ele>120.9</ele>
        <time>2015-07-13T19:20:57.873Z</time>
      </trkpt>
      <trkpt lat="48.89342" lon="2.32897">
        <ele>121.1</ele>
        <time>2015-07-13T19:20:58.880Z</time>
      </trkpt>
      <trkpt lat="48.8934" lon="2.32887">
        <ele>121.5</ele>
        <time>2015-07-13T19:20:59.916Z</time>
      </trkpt>
      <trkpt lat="48.89338" lon="2.32878">
        <ele>121.4</ele>
        <time>2015-07-13T19:21:00.821Z</time>
      </trkpt>
      <trkpt lat="48.89336" lon="2.32869">
        <ele>121.3</ele>
        <time>2015-07-13T19:21:01.841Z</time>
      </trkpt>
      <trkpt lat="48.89333" lon="2.3286">
        <ele>121.3</ele>
        <time>2015-07-13T19:21:02.848Z</time>
      </trkpt>
      <trkpt lat="48.89332" lon="2.32852">
        <ele>121.2</ele>
        <time>2015-07-13T19:21:03.860Z</time>
      </trkpt>
      <trkpt lat="48.8933" lon="2.32846">
        <ele>121.3</ele>
        <time>2015-07-13T19:21:04.870Z</time>
      </trkpt>
      <trkpt lat="48.89327" lon="2.32834">
        <ele>120.8</ele>
        <time>2015-07-13T19:21:06.806Z</time>
      </trkpt>
      <trkpt lat="48.89326" lon="2.32825">
        <ele>120.2</ele>
        <time>2015-07-13T19:21:07.907Z</time>
      </trkpt>
      <trkpt lat="48.89323" lon="2.32816">
        <ele>118.6</ele>
        <time>2015-07-13T19:21:08.820Z</time>
      </trkpt>
      <trkpt lat="48.8932" lon="2.32807">
        <ele>117.3</ele>
        <time>2015-07-13T19:21:09.820Z</time>
      </trkpt>
      <trkpt lat="48.89317" lon="2.32798">
        <ele>115.5</ele>
        <time>2015-07-13T19:21:10.846Z</time>
      </trkpt>
      <trkpt lat="48.89315" lon="2.3279">
        <ele>114.1</ele>
        <time>2015-07-13T19:21:11.854Z</time>
      </trkpt>
      <trkpt lat="48.89313" lon="2.32782">
        <ele>113.2</ele>
        <time>2015-07-13T19:21:12.859Z</time>
      </trkpt>
      <trkpt lat="48.89311" lon="2.32775">
        <ele>112.5</ele>
        <time>2015-07-13T19:21:13.870Z</time>
      </trkpt>
      <trkpt lat="48.89308" lon="2.32764">
        <ele>111.9</ele>
        <time>2015-07-13T19:21:15.893Z</time>
      </trkpt>
      <trkpt lat="48.89306" lon="2.32759">
        <ele>111.8</ele>
        <time>2015-07-13T19:21:16.918Z</time>
      </trkpt>
      <trkpt lat="48.89304" lon="2.32746">
        <ele>113.7</ele>
        <time>2015-07-13T19:22:34.864Z</time>
      </trkpt>
      <trkpt lat="48.89303" lon="2.32742">
        <ele>113.3</ele>
        <time>2015-07-13T19:22:35.909Z</time>
      </trkpt>
      <trkpt lat="48.89299" lon="2.32735">
        <ele>113.1</ele>
        <time>2015-07-13T19:22:37.837Z</time>
      </trkpt>
      <trkpt lat="48.89296" lon="2.32731">
        <ele>112.7</ele>
        <time>2015-07-13T19:22:38.937Z</time>
      </trkpt>
      <trkpt lat="48.8929" lon="2.32723">
        <ele>111.1</ele>
        <time>2015-07-13T19:22:41.890Z</time>
      </trkpt>
      <trkpt lat="48.89288" lon="2.32721">
        <ele>110.6</ele>
        <time>2015-07-13T19:22:42.896Z</time>
      </trkpt>
      <trkpt lat="48.8928" lon="2.32714">
        <ele>107.6</ele>
        <time>2015-07-13T19:22:47.895Z</time>
      </trkpt>
      <trkpt lat="48.89278" lon="2.32713">
        <ele>107.3</ele>
        <time>2015-07-13T19:22:48.798Z</time>
      </trkpt>
      <trkpt lat="48.89271" lon="2.32707">
        <ele>106.7</ele>
        <time>2015-07-13T19:22:52.892Z</time>
      </trkpt>
      <trkpt lat="48.89268" lon="2.32704">
        <ele>106.7</ele>
        <time>2015-07-13T19:22:53.935Z</time>
      </trkpt>
      <trkpt lat="48.89262" lon="2.32699">
        <ele>106.2</ele>
        <time>2015-07-13T19:22:55.837Z</time>
      </trkpt>
      <trkpt lat="48.89259" lon="2.32695">
        <ele>105.6</ele>
        <time>2015-07-13T19:22:56.871Z</time>
      </trkpt>
      <trkpt lat="48.89253" lon="2.32688">
        <ele>105.1</ele>
        <time>2015-07-13T19:22:58.829Z</time>
      </trkpt>
      <trkpt lat="48.8925" lon="2.32684">
        <ele>104.9</ele>
        <time>2015-07-13T19:22:59.949Z</time>
      </trkpt>
      <trkpt lat="48.89247" lon="2.32676">
        <ele>105.1</ele>
        <time>2015-07-13T19:23:01.825Z</time>
      </trkpt>
      <trkpt lat="48.89244" lon="2.32673">
        <ele>105</ele>
        <time>2015-07-13T19:23:02.849Z</time>
      </trkpt>
      <trkpt lat="48.89238" lon="2.32664">
        <ele>105.5</ele>
        <time>2015-07-13T19:23:05.853Z</time>
      </trkpt>
      <trkpt lat="48.89236" lon="2.3266">
        <ele>105.7</ele>
        <time>2015-07-13T19:23:06.851Z</time>
      </trkpt>
      <trkpt lat="48.89232" lon="2.32649">
        <ele>105.4</ele>
        <time>2015-07-13T19:23:09.822Z</time>
      </trkpt>
      <trkpt lat="48.89231" lon="2.32645">
        <ele>105.4</ele>
        <time>2015-07-13T19:23:10.824Z</time>
      </trkpt>
      <trkpt lat="48.89227" lon="2.32637">
        <ele>105.6</ele>
        <time>2015-07-13T19:23:12.868Z</time>
      </trkpt>
      <trkpt lat="48.89225" lon="2.32632">
        <ele>105.7</ele>
        <time>2015-07-13T19:23:13.873Z</time>
      </trkpt>
      <trkpt lat="48.8922" lon="2.32624">
        <ele>105.1</ele>
        <time>2015-07-13T19:23:15.898Z</time>
      </trkpt>
      <trkpt lat="48.89217" lon="2.32621">
        <ele>105</ele>
        <time>2015-07-13T19:23:16.900Z</time>
      </trkpt>
      <trkpt lat="48.89211" lon="2.32615">
        <ele>105.2</ele>
        <time>2015-07-13T19:23:18.832Z</time>
      </trkpt>
      <trkpt lat="48.89208" lon="2.32613">
        <ele>105.5</ele>
        <time>2015-07-13T19:23:19.846Z</time>
      </trkpt>
      <trkpt lat="48.892" lon="2.32609">
        <ele>106.3</ele>
        <time>2015-07-13T19:23:21.868Z</time>
      </trkpt>
      <trkpt lat="48.89197" lon="2.32607">
        <ele>106.4</ele>
        <time>2015-07-13T19:23:22.940Z</time>
      </trkpt>
      <trkpt lat="48.8919" lon="2.32599">
        <ele>106.3</ele>
        <time>2015-07-13T19:23:24.851Z</time>
      </trkpt>
      <trkpt lat="48.89187" lon="2.32595">
        <ele>106.3</ele>
        <time>2015-07-13T19:23:25.864Z</time>
      </trkpt>
      <trkpt lat="48.89182" lon="2.32591">
        <ele>106.3</ele>
        <time>2015-07-13T19:23:25.364Z</time>
      </trkpt>
      <trkpt lat="48.89177" lon="2.32588">
        <ele>106.2</ele>
        <time>2015-07-13T19:23:27.875Z</time>
      </trkpt>
      <trkpt lat="48.89173" lon="2.32584">
        <ele>105.9</ele>
        <time>2015-07-13T19:23:28.884Z</time>
      </trkpt>
      <trkpt lat="48.89169" lon="2.3258">
        <ele>106</ele>
        <time>2015-07-13T19:23:29.950Z</time>
      </trkpt>
      <trkpt lat="48.89165" lon="2.32575">
        <ele>106</ele>
        <time>2015-07-13T19:23:30.844Z</time>
      </trkpt>
      <trkpt lat="48.89161" lon="2.32571">
        <ele>106.1</ele>
        <time>2015-07-13T19:23:31.836Z</time>
      </trkpt>
      <trkpt lat="48.89156" lon="2.32567">
        <ele>105.8</ele>
        <time>2015-07-13T19:23:32.849Z</time>
      </trkpt>
      <trkpt lat="48.89149" lon="2.32564">
        <ele>105.9</ele>
        <time>2015-07-13T19:23:33.869Z</time>
      </trkpt>
      <trkpt lat="48.89144" lon="2.3256">
        <ele>105.7</ele>
        <time>2015-07-13T19:23:35.412Z</time>
      </trkpt>
      <trkpt lat="48.89138" lon="2.32557">
        <ele>105.6</ele>
        <time>2015-07-13T19:23:35.899Z</time>
      </trkpt>
      <trkpt lat="48.89133" lon="2.32552">
        <ele>105.6</ele>
        <time>2015-07-13T19:23:36.822Z</time>
      </trkpt>
      <trkpt lat="48.89128" lon="2.32547">
        <ele>105.7</ele>
        <time>2015-07-13T19:23:37.818Z</time>
      </trkpt>
      <trkpt lat="48.89124" lon="2.32542">
        <ele>105.5</ele>
        <time>2015-07-13T19:23:38.839Z</time>
      </trkpt>
      <trkpt lat="48.8912" lon="2.32537">
        <ele>105.6</ele>
        <time>2015-07-13T19:23:39.808Z</time>
      </trkpt>
      <trkpt lat="48.89115" lon="2.32531">
        <ele>105.8</ele>
        <time>2015-07-13T19:23:40.841Z</time>
      </trkpt>
      <trkpt lat="48.89111" lon="2.32525">
        <ele>106.1</ele>
        <time>2015-07-13T19:23:41.860Z</time>
      </trkpt>
      <trkpt lat="48.89107" lon="2.3252">
        <ele>106.4</ele>
        <time>2015-07-13T19:23:42.874Z</time>
      </trkpt>
      <trkpt lat="48.89104" lon="2.32516">
        <ele>106.4</ele>
        <time>2015-07-13T19:23:43.879Z</time>
      </trkpt>
      <trkpt lat="48.89101" lon="2.3251">
        <ele>107</ele>
        <time>2015-07-13T19:23:44.898Z</time>
      </trkpt>
      <trkpt lat="48.89098" lon="2.32505">
        <ele>106.8</ele>
        <time>2015-07-13T19:23:45.787Z</time>
      </trkpt>
      <trkpt lat="48.89092" lon="2.32496">
        <ele>106.7</ele>
        <time>2015-07-13T19:23:47.869Z</time>
      </trkpt>
      <trkpt lat="48.89088" lon="2.32492">
        <ele>106.4</ele>
        <time>2015-07-13T19:23:48.864Z</time>
      </trkpt>
      <trkpt lat="48.89084" lon="2.32488">
        <ele>106.2</ele>
        <time>2015-07-13T19:23:49.819Z</time>
      </trkpt>
      <trkpt lat="48.8908" lon="2.32484">
        <ele>106.2</ele>
        <time>2015-07-13T19:23:50.809Z</time>
      </trkpt>
      <trkpt lat="48.89075" lon="2.32479">
        <ele>106.2</ele>
        <time>2015-07-13T19:23:51.811Z</time>
      </trkpt>
      <trkpt lat="48.8907" lon="2.32473">
        <ele>106.3</ele>
        <time>2015-07-13T19:23:52.840Z</time>
      </trkpt>
      <trkpt lat="48.89065" lon="2.32467">
        <ele>106.5</ele>
        <time>2015-07-13T19:23:53.869Z</time>
      </trkpt>
      <trkpt lat="48.89061" lon="2.32461">
        <ele>106.6</ele>
        <time>2015-07-13T19:23:54.869Z</time>
      </trkpt>
      <trkpt lat="48.89055" lon="2.32456">
        <ele>106.5</ele>
        <time>2015-07-13T19:23:55.887Z</time>
      </trkpt>
      <trkpt lat="48.89049" lon="2.32451">
        <ele>106.1</ele>
        <time>2015-07-13T19:23:56.893Z</time>
      </trkpt>
      <trkpt lat="48.89044" lon="2.32446">
        <ele>105.9</ele>
        <time>2015-07-13T19:23:57.805Z</time>
      </trkpt>
      <trkpt lat="48.89039" lon="2.32441">
        <ele>105.6</ele>
        <time>2015-07-13T19:23:58.836Z</time>
      </trkpt>
      <trkpt lat="48.89035" lon="2.32434">
        <ele>105.6</ele>
        <time>2015-07-13T19:23:59.915Z</time>
      </trkpt>
      <trkpt lat="48.8903" lon="2.32428">
        <ele>105.5</ele>
        <time>2015-07-13T19:24:00.813Z</time>
      </trkpt>
      <trkpt lat="48.89025" lon="2.32422">
        <ele>105.6</ele>
        <time>2015-07-13T19:24:01.803Z</time>
      </trkpt>
      <trkpt lat="48.8902" lon="2.32416">
        <ele>105.6</ele>
        <time>2015-07-13T19:24:02.816Z</time>
      </trkpt>
      <trkpt lat="48.89015" lon="2.3241">
        <ele>105.8</ele>
        <time>2015-07-13T19:24:03.846Z</time>
      </trkpt>
      <trkpt lat="48.89011" lon="2.32402">
        <ele>106.2</ele>
        <time>2015-07-13T19:24:04.866Z</time>
      </trkpt>
      <trkpt lat="48.89006" lon="2.32395">
        <ele>106.3</ele>
        <time>2015-07-13T19:24:05.877Z</time>
      </trkpt>
      <trkpt lat="48.89002" lon="2.32388">
        <ele>106</ele>
        <time>2015-07-13T19:24:06.877Z</time>
      </trkpt>
      <trkpt lat="48.88997" lon="2.32383">
        <ele>105.9</ele>
        <time>2015-07-13T19:24:07.845Z</time>
      </trkpt>
      <trkpt lat="48.88992" lon="2.32375">
        <ele>106</ele>
        <time>2015-07-13T19:24:08.823Z</time>
      </trkpt>
      <trkpt lat="48.88988" lon="2.32368">
        <ele>105.9</ele>
        <time>2015-07-13T19:24:09.827Z</time>
      </trkpt>
      <trkpt lat="48.88984" lon="2.32361">
        <ele>106.1</ele>
        <time>2015-07-13T19:24:10.847Z</time>
      </trkpt>
      <trkpt lat="48.88979" lon="2.32354">
        <ele>106.4</ele>
        <time>2015-07-13T19:24:11.898Z</time>
      </trkpt>
      <trkpt lat="48.88974" lon="2.32347">
        <ele>106.4</ele>
        <time>2015-07-13T19:24:12.829Z</time>
      </trkpt>
      <trkpt lat="48.8897" lon="2.32341">
        <ele>106.5</ele>
        <time>2015-07-13T19:24:13.826Z</time>
      </trkpt>
      <trkpt lat="48.88965" lon="2.32335">
        <ele>106.3</ele>
        <time>2015-07-13T19:24:14.818Z</time>
      </trkpt>
      <trkpt lat="48.8896" lon="2.3233">
        <ele>106.1</ele>
        <time>2015-07-13T19:24:15.846Z</time>
      </trkpt>
      <trkpt lat="48.88956" lon="2.32323">
        <ele>106</ele>
        <time>2015-07-13T19:24:16.857Z</time>
      </trkpt>
      <trkpt lat="48.8895" lon="2.32319">
        <ele>105.9</ele>
        <time>2015-07-13T19:24:17.906Z</time>
      </trkpt>
      <trkpt lat="48.88946" lon="2.32313">
        <ele>105.7</ele>
        <time>2015-07-13T19:24:18.823Z</time>
      </trkpt>
      <trkpt lat="48.88941" lon="2.32308">
        <ele>105.3</ele>
        <time>2015-07-13T19:24:19.822Z</time>
      </trkpt>
      <trkpt lat="48.88936" lon="2.32303">
        <ele>104.9</ele>
        <time>2015-07-13T19:24:20.828Z</time>
      </trkpt>
      <trkpt lat="48.88933" lon="2.32297">
        <ele>104.5</ele>
        <time>2015-07-13T19:24:21.844Z</time>
      </trkpt>
      <trkpt lat="48.88928" lon="2.32293">
        <ele>104.5</ele>
        <time>2015-07-13T19:24:22.855Z</time>
      </trkpt>
      <trkpt lat="48.88922" lon="2.32286">
        <ele>105.9</ele>
        <time>2015-07-13T19:24:23.868Z</time>
      </trkpt>
      <trkpt lat="48.88919" lon="2.32281">
        <ele>106.6</ele>
        <time>2015-07-13T19:24:24.879Z</time>
      </trkpt>
      <trkpt lat="48.8891" lon="2.32279">
        <ele>107.7</ele>
        <time>2015-07-13T19:25:23.868Z</time>
      </trkpt>
      <trkpt lat="48.88912" lon="2.3227">
        <ele>110.1</ele>
        <time>2015-07-13T19:25:24.952Z</time>
      </trkpt>
      <trkpt lat="48.88907" lon="2.32264">
        <ele>110.6</ele>
        <time>2015-07-13T19:25:26.837Z</time>
      </trkpt>
      <trkpt lat="48.88906" lon="2.3226">
        <ele>110.7</ele>
        <time>2015-07-13T19:25:27.800Z</time>
      </trkpt>
      <trkpt lat="48.88902" lon="2.32252">
        <ele>111.1</ele>
        <time>2015-07-13T19:25:29.929Z</time>
      </trkpt>
      <trkpt lat="48.889" lon="2.32247">
        <ele>111</ele>
        <time>2015-07-13T19:25:30.829Z</time>
      </trkpt>
      <trkpt lat="48.88895" lon="2.32238">
        <ele>111.4</ele>
        <time>2015-07-13T19:25:32.846Z</time>
      </trkpt>
      <trkpt lat="48.88892" lon="2.32233">
        <ele>111.5</ele>
        <time>2015-07-13T19:25:33.852Z</time>
      </trkpt>
      <trkpt lat="48.88886" lon="2.32225">
        <ele>111.4</ele>
        <time>2015-07-13T19:25:35.901Z</time>
      </trkpt>
      <trkpt lat="48.88883" lon="2.32221">
        <ele>111.8</ele>
        <time>2015-07-13T19:25:36.826Z</time>
      </trkpt>
      <trkpt lat="48.88876" lon="2.32213">
        <ele>111.5</ele>
        <time>2015-07-13T19:25:38.847Z</time>
      </trkpt>
      <trkpt lat="48.88873" lon="2.32209">
        <ele>111.2</ele>
        <time>2015-07-13T19:25:39.866Z</time>
      </trkpt>
      <trkpt lat="48.88867" lon="2.32201">
        <ele>110.8</ele>
        <time>2015-07-13T19:25:41.891Z</time>
      </trkpt>
      <trkpt lat="48.88864" lon="2.32197">
        <ele>110.6</ele>
        <time>2015-07-13T19:25:42.860Z</time>
      </trkpt>
      <trkpt lat="48.88858" lon="2.32188">
        <ele>110.3</ele>
        <time>2015-07-13T19:25:44.845Z</time>
      </trkpt>
      <trkpt lat="48.88855" lon="2.32183">
        <ele>110.2</ele>
        <time>2015-07-13T19:25:45.865Z</time>
      </trkpt>
      <trkpt lat="48.8885" lon="2.32173">
        <ele>109.8</ele>
        <time>2015-07-13T19:25:47.826Z</time>
      </trkpt>
      <trkpt lat="48.88847" lon="2.32168">
        <ele>109.5</ele>
        <time>2015-07-13T19:25:48.842Z</time>
      </trkpt>
      <trkpt lat="48.88843" lon="2.32164">
        <ele>109.1</ele>
        <time>2015-07-13T19:25:49.843Z</time>
      </trkpt>
      <trkpt lat="48.8884" lon="2.32158">
        <ele>108.7</ele>
        <time>2015-07-13T19:25:50.864Z</time>
      </trkpt>
      <trkpt lat="48.88837" lon="2.32152">
        <ele>108.5</ele>
        <time>2015-07-13T19:25:51.881Z</time>
      </trkpt>
      <trkpt lat="48.88833" lon="2.32148">
        <ele>108.6</ele>
        <time>2015-07-13T19:25:52.900Z</time>
      </trkpt>
      <trkpt lat="48.8883" lon="2.32143">
        <ele>108.4</ele>
        <time>2015-07-13T19:25:53.946Z</time>
      </trkpt>
      <trkpt lat="48.88827" lon="2.32137">
        <ele>108.2</ele>
        <time>2015-07-13T19:25:54.854Z</time>
      </trkpt>
      <trkpt lat="48.88824" lon="2.3213">
        <ele>108</ele>
        <time>2015-07-13T19:25:55.823Z</time>
      </trkpt>
      <trkpt lat="48.88821" lon="2.32122">
        <ele>108.6</ele>
        <time>2015-07-13T19:25:56.848Z</time>
      </trkpt>
      <trkpt lat="48.88818" lon="2.32115">
        <ele>109.5</ele>
        <time>2015-07-13T19:25:57.790Z</time>
      </trkpt>
      <trkpt lat="48.88814" lon="2.32109">
        <ele>109.7</ele>
        <time>2015-07-13T19:25:58.808Z</time>
      </trkpt>
      <trkpt lat="48.88811" lon="2.32104">
        <ele>109.3</ele>
        <time>2015-07-13T19:25:59.891Z</time>
      </trkpt>
      <trkpt lat="48.88808" lon="2.32098">
        <ele>109.4</ele>
        <time>2015-07-13T19:26:00.806Z</time>
      </trkpt>
      <trkpt lat="48.88805" lon="2.32092">
        <ele>109.3</ele>
        <time>2015-07-13T19:26:01.813Z</time>
      </trkpt>
      <trkpt lat="48.88803" lon="2.32086">
        <ele>109</ele>
        <time>2015-07-13T19:26:02.824Z</time>
      </trkpt>
      <trkpt lat="48.88801" lon="2.3208">
        <ele>108.7</ele>
        <time>2015-07-13T19:26:03.845Z</time>
      </trkpt>
      <trkpt lat="48.88798" lon="2.32075">
        <ele>108.2</ele>
        <time>2015-07-13T19:26:04.877Z</time>
      </trkpt>
      <trkpt lat="48.88792" lon="2.32066">
        <ele>107.3</ele>
        <time>2015-07-13T19:26:06.887Z</time>
      </trkpt>
      <trkpt lat="48.88789" lon="2.32061">
        <ele>106.8</ele>
        <time>2015-07-13T19:26:07.905Z</time>
      </trkpt>
      <trkpt lat="48.88786" lon="2.32056">
        <ele>106.6</ele>
        <time>2015-07-13T19:26:08.812Z</time>
      </trkpt>
      <trkpt lat="48.88783" lon="2.3205">
        <ele>106.2</ele>
        <time>2015-07-13T19:26:09.837Z</time>
      </trkpt>
      <trkpt lat="48.8878" lon="2.32045">
        <ele>105.9</ele>
        <time>2015-07-13T19:26:10.852Z</time>
      </trkpt>
      <trkpt lat="48.88777" lon="2.32039">
        <ele>105.7</ele>
        <time>2015-07-13T19:26:11.857Z</time>
      </trkpt>
      <trkpt lat="48.88774" lon="2.32034">
        <ele>105.6</ele>
        <time>2015-07-13T19:26:12.877Z</time>
      </trkpt>
      <trkpt lat="48.88771" lon="2.32029">
        <ele>105.6</ele>
        <time>2015-07-13T19:26:13.852Z</time>
      </trkpt>
      <trkpt lat="48.88767" lon="2.32024">
        <ele>106.3</ele>
        <time>2015-07-13T19:26:14.859Z</time>
      </trkpt>
      <trkpt lat="48.88764" lon="2.32018">
        <ele>106.6</ele>
        <time>2015-07-13T19:26:15.886Z</time>
      </trkpt>
      <trkpt lat="48.88761" lon="2.32013">
        <ele>106.5</ele>
        <time>2015-07-13T19:26:16.892Z</time>
      </trkpt>
      <trkpt lat="48.88758" lon="2.32007">
        <ele>106.3</ele>
        <time>2015-07-13T19:26:17.899Z</time>
      </trkpt>
      <trkpt lat="48.88756" lon="2.32001">
        <ele>106.1</ele>
        <time>2015-07-13T19:26:18.850Z</time>
      </trkpt>
      <trkpt lat="48.88753" lon="2.31994">
        <ele>106</ele>
        <time>2015-07-13T19:26:19.841Z</time>
      </trkpt>
      <trkpt lat="48.8875" lon="2.31988">
        <ele>106.1</ele>
        <time>2015-07-13T19:26:20.871Z</time>
      </trkpt>
      <trkpt lat="48.88747" lon="2.31983">
        <ele>106</ele>
        <time>2015-07-13T19:26:21.896Z</time>
      </trkpt>
      <trkpt lat="48.88744" lon="2.31977">
        <ele>106</ele>
        <time>2015-07-13T19:26:22.818Z</time>
      </trkpt>
      <trkpt lat="48.88741" lon="2.31971">
        <ele>105.9</ele>
        <time>2015-07-13T19:26:23.858Z</time>
      </trkpt>
      <trkpt lat="48.88739" lon="2.31964">
        <ele>105.9</ele>
        <time>2015-07-13T19:26:24.869Z</time>
      </trkpt>
      <trkpt lat="48.88736" lon="2.31959">
        <ele>105.8</ele>
        <time>2015-07-13T19:26:25.939Z</time>
      </trkpt>
      <trkpt lat="48.8873" lon="2.3195">
        <ele>105.6</ele>
        <time>2015-07-13T19:26:27.851Z</time>
      </trkpt>
      <trkpt lat="48.88727" lon="2.31946">
        <ele>105.4</ele>
        <time>2015-07-13T19:26:28.862Z</time>
      </trkpt>
      <trkpt lat="48.8872" lon="2.31941">
        <ele>105.4</ele>
        <time>2015-07-13T19:26:30.826Z</time>
      </trkpt>
      <trkpt lat="48.88716" lon="2.31942">
        <ele>105.6</ele>
        <time>2015-07-13T19:26:31.833Z</time>
      </trkpt>
      <trkpt lat="48.88708" lon="2.31944">
        <ele>106.4</ele>
        <time>2015-07-13T19:26:33.866Z</time>
      </trkpt>
      <trkpt lat="48.88706" lon="2.31945">
        <ele>106.6</ele>
        <time>2015-07-13T19:26:34.864Z</time>
      </trkpt>
      <trkpt lat="48.88698" lon="2.31947">
        <ele>107.8</ele>
        <time>2015-07-13T19:26:38.850Z</time>
      </trkpt>
      <trkpt lat="48.88696" lon="2.31948">
        <ele>108.2</ele>
        <time>2015-07-13T19:26:39.845Z</time>
      </trkpt>
      <trkpt lat="48.88689" lon="2.31954">
        <ele>109</ele>
        <time>2015-07-13T19:26:42.860Z</time>
      </trkpt>
      <trkpt lat="48.88686" lon="2.31957">
        <ele>109.1</ele>
        <time>2015-07-13T19:26:43.910Z</time>
      </trkpt>
      <trkpt lat="48.88682" lon="2.31964">
        <ele>109.7</ele>
        <time>2015-07-13T19:26:45.834Z</time>
      </trkpt>
      <trkpt lat="48.8868" lon="2.3197">
        <ele>109.7</ele>
        <time>2015-07-13T19:26:46.858Z</time>
      </trkpt>
      <trkpt lat="48.88675" lon="2.31979">
        <ele>110.6</ele>
        <time>2015-07-13T19:26:48.897Z</time>
      </trkpt>
      <trkpt lat="48.88673" lon="2.31983">
        <ele>111</ele>
        <time>2015-07-13T19:26:49.911Z</time>
      </trkpt>
      <trkpt lat="48.88668" lon="2.31992">
        <ele>111.2</ele>
        <time>2015-07-13T19:26:51.838Z</time>
      </trkpt>
      <trkpt lat="48.88664" lon="2.31995">
        <ele>111.4</ele>
        <time>2015-07-13T19:26:52.849Z</time>
      </trkpt>
      <trkpt lat="48.88662" lon="2.32004">
        <ele>111.2</ele>
        <time>2015-07-13T19:26:53.903Z</time>
      </trkpt>
      <trkpt lat="48.8866" lon="2.3201">
        <ele>111</ele>
        <time>2015-07-13T19:26:54.790Z</time>
      </trkpt>
      <trkpt lat="48.88655" lon="2.32019">
        <ele>110.9</ele>
        <time>2015-07-13T19:26:56.847Z</time>
      </trkpt>
      <trkpt lat="48.88652" lon="2.32022">
        <ele>110.6</ele>
        <time>2015-07-13T19:26:57.866Z</time>
      </trkpt>
      <trkpt lat="48.88646" lon="2.3203">
        <ele>110</ele>
        <time>2015-07-13T19:26:59.912Z</time>
      </trkpt>
      <trkpt lat="48.88644" lon="2.32035">
        <ele>110.1</ele>
        <time>2015-07-13T19:27:00.855Z</time>
      </trkpt>
      <trkpt lat="48.88637" lon="2.32044">
        <ele>110.6</ele>
        <time>2015-07-13T19:27:02.839Z</time>
      </trkpt>
      <trkpt lat="48.88635" lon="2.32051">
        <ele>110.4</ele>
        <time>2015-07-13T19:27:03.831Z</time>
      </trkpt>
      <trkpt lat="48.88632" lon="2.32057">
        <ele>110.6</ele>
        <time>2015-07-13T19:27:04.850Z</time>
      </trkpt>
      <trkpt lat="48.88629" lon="2.32063">
        <ele>110.9</ele>
        <time>2015-07-13T19:27:05.862Z</time>
      </trkpt>
      <trkpt lat="48.88624" lon="2.32072">
        <ele>111.1</ele>
        <time>2015-07-13T19:27:07.895Z</time>
      </trkpt>
      <trkpt lat="48.88621" lon="2.32075">
        <ele>111.2</ele>
        <time>2015-07-13T19:27:08.799Z</time>
      </trkpt>
      <trkpt lat="48.88614" lon="2.32084">
        <ele>111.5</ele>
        <time>2015-07-13T19:27:11.632Z</time>
      </trkpt>
      <trkpt lat="48.8861" lon="2.32088">
        <ele>111.5</ele>
        <time>2015-07-13T19:27:11.862Z</time>
      </trkpt>
      <trkpt lat="48.88607" lon="2.32093">
        <ele>111.6</ele>
        <time>2015-07-13T19:27:13.474Z</time>
      </trkpt>
      <trkpt lat="48.88603" lon="2.32098">
        <ele>111.3</ele>
        <time>2015-07-13T19:27:13.888Z</time>
      </trkpt>
      <trkpt lat="48.88598" lon="2.32108">
        <ele>111.5</ele>
        <time>2015-07-13T19:27:15.827Z</time>
      </trkpt>
      <trkpt lat="48.88594" lon="2.3211">
        <ele>111.7</ele>
        <time>2015-07-13T19:27:16.875Z</time>
      </trkpt>
      <trkpt lat="48.88592" lon="2.32117">
        <ele>111.8</ele>
        <time>2015-07-13T19:27:18.531Z</time>
      </trkpt>
      <trkpt lat="48.88591" lon="2.32125">
        <ele>112</ele>
        <time>2015-07-13T19:27:18.787Z</time>
      </trkpt>
      <trkpt lat="48.88589" lon="2.32132">
        <ele>112.1</ele>
        <time>2015-07-13T19:27:19.862Z</time>
      </trkpt>
      <trkpt lat="48.88587" lon="2.32138">
        <ele>112.2</ele>
        <time>2015-07-13T19:27:20.871Z</time>
      </trkpt>
      <trkpt lat="48.88584" lon="2.3215">
        <ele>112.5</ele>
        <time>2015-07-13T19:27:22.904Z</time>
      </trkpt>
      <trkpt lat="48.88583" lon="2.32155">
        <ele>112.1</ele>
        <time>2015-07-13T19:27:23.916Z</time>
      </trkpt>
      <trkpt lat="48.88579" lon="2.32165">
        <ele>111.5</ele>
        <time>2015-07-13T19:27:26.880Z</time>
      </trkpt>
      <trkpt lat="48.88576" lon="2.32165">
        <ele>111.6</ele>
        <time>2015-07-13T19:27:27.885Z</time>
      </trkpt>
      <trkpt lat="48.88568" lon="2.32167">
        <ele>112.2</ele>
        <time>2015-07-13T19:27:30.853Z</time>
      </trkpt>
      <trkpt lat="48.88566" lon="2.32168">
        <ele>112.2</ele>
        <time>2015-07-13T19:27:31.831Z</time>
      </trkpt>
      <trkpt lat="48.88557" lon="2.3217">
        <ele>113</ele>
        <time>2015-07-13T19:27:34.865Z</time>
      </trkpt>
      <trkpt lat="48.88554" lon="2.32171">
        <ele>113.2</ele>
        <time>2015-07-13T19:27:35.884Z</time>
      </trkpt>
      <trkpt lat="48.88546" lon="2.3217">
        <ele>113.4</ele>
        <time>2015-07-13T19:27:37.798Z</time>
      </trkpt>
      <trkpt lat="48.88542" lon="2.32171">
        <ele>112.8</ele>
        <time>2015-07-13T19:27:38.848Z</time>
      </trkpt>
      <trkpt lat="48.88537" lon="2.3218">
        <ele>112.2</ele>
        <time>2015-07-13T19:27:40.879Z</time>
      </trkpt>
      <trkpt lat="48.88535" lon="2.32186">
        <ele>112.6</ele>
        <time>2015-07-13T19:27:41.896Z</time>
      </trkpt>
      <trkpt lat="48.8853" lon="2.32195">
        <ele>113.1</ele>
        <time>2015-07-13T19:27:43.823Z</time>
      </trkpt>
      <trkpt lat="48.88527" lon="2.32201">
        <ele>113.7</ele>
        <time>2015-07-13T19:27:44.867Z</time>
      </trkpt>
      <trkpt lat="48.88521" lon="2.32208">
        <ele>114</ele>
        <time>2015-07-13T19:27:46.833Z</time>
      </trkpt>
      <trkpt lat="48.88519" lon="2.32213">
        <ele>114.1</ele>
        <time>2015-07-13T19:27:47.900Z</time>
      </trkpt>
      <trkpt lat="48.88512" lon="2.32222">
        <ele>114.9</ele>
        <time>2015-07-13T19:27:49.830Z</time>
      </trkpt>
      <trkpt lat="48.88509" lon="2.32227">
        <ele>115</ele>
        <time>2015-07-13T19:27:50.894Z</time>
      </trkpt>
      <trkpt lat="48.88504" lon="2.32236">
        <ele>115.5</ele>
        <time>2015-07-13T19:27:52.857Z</time>
      </trkpt>
      <trkpt lat="48.88501" lon="2.3224">
        <ele>115.9</ele>
        <time>2015-07-13T19:27:53.890Z</time>
      </trkpt>
      <trkpt lat="48.88497" lon="2.32243">
        <ele>115.9</ele>
        <time>2015-07-13T19:27:54.873Z</time>
      </trkpt>
      <trkpt lat="48.88493" lon="2.32247">
        <ele>116.1</ele>
        <time>2015-07-13T19:27:55.869Z</time>
      </trkpt>
      <trkpt lat="48.88489" lon="2.32252">
        <ele>116.1</ele>
        <time>2015-07-13T19:27:56.870Z</time>
      </trkpt>
      <trkpt lat="48.88485" lon="2.32257">
        <ele>116.2</ele>
        <time>2015-07-13T19:27:57.924Z</time>
      </trkpt>
      <trkpt lat="48.88483" lon="2.32265">
        <ele>116</ele>
        <time>2015-07-13T19:27:58.876Z</time>
      </trkpt>
      <trkpt lat="48.88479" lon="2.3227">
        <ele>116.1</ele>
        <time>2015-07-13T19:27:59.888Z</time>
      </trkpt>
      <trkpt lat="48.88476" lon="2.32275">
        <ele>116.7</ele>
        <time>2015-07-13T19:28:00.893Z</time>
      </trkpt>
      <trkpt lat="48.88473" lon="2.3228">
        <ele>117</ele>
        <time>2015-07-13T19:28:01.904Z</time>
      </trkpt>
      <trkpt lat="48.88466" lon="2.32288">
        <ele>117.5</ele>
        <time>2015-07-13T19:28:03.823Z</time>
      </trkpt>
      <trkpt lat="48.88463" lon="2.32291">
        <ele>117.5</ele>
        <time>2015-07-13T19:28:04.842Z</time>
      </trkpt>
      <trkpt lat="48.8846" lon="2.32296">
        <ele>117.7</ele>
        <time>2015-07-13T19:28:05.887Z</time>
      </trkpt>
      <trkpt lat="48.88456" lon="2.32301">
        <ele>117.8</ele>
        <time>2015-07-13T19:28:06.805Z</time>
      </trkpt>
      <trkpt lat="48.88452" lon="2.32305">
        <ele>117.6</ele>
        <time>2015-07-13T19:28:07.841Z</time>
      </trkpt>
      <trkpt lat="48.88448" lon="2.32309">
        <ele>117</ele>
        <time>2015-07-13T19:28:08.806Z</time>
      </trkpt>
      <trkpt lat="48.88445" lon="2.32314">
        <ele>116.8</ele>
        <time>2015-07-13T19:28:09.823Z</time>
      </trkpt>
      <trkpt lat="48.88442" lon="2.3232">
        <ele>116.3</ele>
        <time>2015-07-13T19:28:10.842Z</time>
      </trkpt>
      <trkpt lat="48.88439" lon="2.32326">
        <ele>115.9</ele>
        <time>2015-07-13T19:28:11.857Z</time>
      </trkpt>
      <trkpt lat="48.88435" lon="2.3233">
        <ele>115.9</ele>
        <time>2015-07-13T19:28:12.781Z</time>
      </trkpt>
      <trkpt lat="48.88429" lon="2.32339">
        <ele>116.2</ele>
        <time>2015-07-13T19:28:14.849Z</time>
      </trkpt>
      <trkpt lat="48.88427" lon="2.32345">
        <ele>116.6</ele>
        <time>2015-07-13T19:28:15.852Z</time>
      </trkpt>
      <trkpt lat="48.88429" lon="2.32358">
        <ele>116.8</ele>
        <time>2015-07-13T19:28:17.868Z</time>
      </trkpt>
      <trkpt lat="48.88431" lon="2.32363">
        <ele>116.7</ele>
        <time>2015-07-13T19:28:18.873Z</time>
      </trkpt>
      <trkpt lat="48.88434" lon="2.32353">
        <ele>115</ele>
        <time>2015-07-13T19:28:26.829Z</time>
      </trkpt>
      <trkpt lat="48.88434" lon="2.32349">
        <ele>115.1</ele>
        <time>2015-07-13T19:28:27.830Z</time>
      </trkpt>
      <trkpt lat="48.88432" lon="2.32337">
        <ele>115.8</ele>
        <time>2015-07-13T19:28:30.894Z</time>
      </trkpt>
      <trkpt lat="48.8843" lon="2.32331">
        <ele>116.2</ele>
        <time>2015-07-13T19:28:31.814Z</time>
      </trkpt>
      <trkpt lat="48.88428" lon="2.32321">
        <ele>116.5</ele>
        <time>2015-07-13T19:28:33.816Z</time>
      </trkpt>
      <trkpt lat="48.88426" lon="2.32316">
        <ele>116.5</ele>
        <time>2015-07-13T19:28:34.883Z</time>
      </trkpt>
      <trkpt lat="48.88423" lon="2.32304">
        <ele>117</ele>
        <time>2015-07-13T19:28:36.860Z</time>
      </trkpt>
      <trkpt lat="48.88421" lon="2.32297">
        <ele>117.2</ele>
        <time>2015-07-13T19:28:37.875Z</time>
      </trkpt>
      <trkpt lat="48.88419" lon="2.32289">
        <ele>117.2</ele>
        <time>2015-07-13T19:28:38.892Z</time>
      </trkpt>
      <trkpt lat="48.88416" lon="2.32282">
        <ele>117.1</ele>
        <time>2015-07-13T19:28:39.900Z</time>
      </trkpt>
      <trkpt lat="48.88413" lon="2.32274">
        <ele>117</ele>
        <time>2015-07-13T19:28:40.904Z</time>
      </trkpt>
      <trkpt lat="48.88409" lon="2.32267">
        <ele>116.9</ele>
        <time>2015-07-13T19:28:41.915Z</time>
      </trkpt>
      <trkpt lat="48.88404" lon="2.32261">
        <ele>116.9</ele>
        <time>2015-07-13T19:28:42.830Z</time>
      </trkpt>
      <trkpt lat="48.88402" lon="2.32256">
        <ele>116.6</ele>
        <time>2015-07-13T19:28:43.840Z</time>
      </trkpt>
      <trkpt lat="48.88398" lon="2.32245">
        <ele>116</ele>
        <time>2015-07-13T19:28:45.897Z</time>
      </trkpt>
      <trkpt lat="48.88399" lon="2.32238">
        <ele>115.4</ele>
        <time>2015-07-13T19:28:46.854Z</time>
      </trkpt>
      <trkpt lat="48.88401" lon="2.32225">
        <ele>114.3</ele>
        <time>2015-07-13T19:28:50.859Z</time>
      </trkpt>
      <trkpt lat="48.88402" lon="2.32222">
        <ele>113.7</ele>
        <time>2015-07-13T19:28:51.842Z</time>
      </trkpt>
      <trkpt lat="48.88406" lon="2.3221">
        <ele>113.7</ele>
        <time>2015-07-13T19:28:55.910Z</time>
      </trkpt>
      <trkpt lat="48.88407" lon="2.32207">
        <ele>113.9</ele>
        <time>2015-07-13T19:28:56.829Z</time>
      </trkpt>
      <trkpt lat="48.88411" lon="2.32195">
        <ele>116.8</ele>
        <time>2015-07-13T19:29:00.818Z</time>
      </trkpt>
      <trkpt lat="48.88412" lon="2.32191">
        <ele>117</ele>
        <time>2015-07-13T19:29:01.839Z</time>
      </trkpt>
      <trkpt lat="48.88414" lon="2.32188">
        <ele>118</ele>
        <time>2015-07-13T19:29:50.824Z</time>
      </trkpt>
      <trkpt lat="48.88444" lon="2.32167">
        <ele>133.3</ele>
        <time>2015-07-13T19:29:51.865Z</time>
      </trkpt>
      <trkpt lat="48.88447" lon="2.32166">
        <ele>134.3</ele>
        <time>2015-07-13T19:30:30.810Z</time>
      </trkpt>
      <trkpt lat="48.8844" lon="2.32141">
        <ele>142.3</ele>
        <time>2015-07-13T19:30:31.825Z</time>
      </trkpt>
      <trkpt lat="48.88436" lon="2.32134">
        <ele>140.3</ele>
        <time>2015-07-13T19:30:33.862Z</time>
      </trkpt>
      <trkpt lat="48.88434" lon="2.3213">
        <ele>139.2</ele>
        <time>2015-07-13T19:30:34.872Z</time>
      </trkpt>
      <trkpt lat="48.88428" lon="2.32121">
        <ele>136.7</ele>
        <time>2015-07-13T19:30:37.785Z</time>
      </trkpt>
      <trkpt lat="48.88425" lon="2.32118">
        <ele>136.4</ele>
        <time>2015-07-13T19:30:38.838Z</time>
      </trkpt>
      <trkpt lat="48.8842" lon="2.3211">
        <ele>135.6</ele>
        <time>2015-07-13T19:30:40.846Z</time>
      </trkpt>
      <trkpt lat="48.88417" lon="2.32104">
        <ele>135.5</ele>
        <time>2015-07-13T19:30:41.850Z</time>
      </trkpt>
      <trkpt lat="48.88413" lon="2.32095">
        <ele>135.7</ele>
        <time>2015-07-13T19:30:43.875Z</time>
      </trkpt>
      <trkpt lat="48.88411" lon="2.32091">
        <ele>135.7</ele>
        <time>2015-07-13T19:30:44.878Z</time>
      </trkpt>
      <trkpt lat="48.88406" lon="2.32092">
        <ele>135.6</ele>
        <time>2015-07-13T19:30:48.880Z</time>
      </trkpt>
      <trkpt lat="48.88401" lon="2.32093">
        <ele>134.8</ele>
        <time>2015-07-13T19:30:49.847Z</time>
      </trkpt>
      <trkpt lat="48.88395" lon="2.32094">
        <ele>134.8</ele>
        <time>2015-07-13T19:30:51.844Z</time>
      </trkpt>
      <trkpt lat="48.88392" lon="2.32094">
        <ele>134.7</ele>
        <time>2015-07-13T19:30:52.855Z</time>
      </trkpt>
      <trkpt lat="48.88384" lon="2.32096">
        <ele>134.7</ele>
        <time>2015-07-13T19:30:54.883Z</time>
      </trkpt>
      <trkpt lat="48.88381" lon="2.32097">
        <ele>134.7</ele>
        <time>2015-07-13T19:30:55.893Z</time>
      </trkpt>
      <trkpt lat="48.88373" lon="2.321">
        <ele>135</ele>
        <time>2015-07-13T19:30:58.850Z</time>
      </trkpt>
      <trkpt lat="48.88372" lon="2.32102">
        <ele>134.9</ele>
        <time>2015-07-13T19:30:59.907Z</time>
      </trkpt>
      <trkpt lat="48.8837" lon="2.32091">
        <ele>135</ele>
        <time>2015-07-13T19:31:05.879Z</time>
      </trkpt>
      <trkpt lat="48.88369" lon="2.32086">
        <ele>135.2</ele>
        <time>2015-07-13T19:31:06.789Z</time>
      </trkpt>
      <trkpt lat="48.88365" lon="2.32075">
        <ele>134.6</ele>
        <time>2015-07-13T19:31:08.861Z</time>
      </trkpt>
      <trkpt lat="48.88364" lon="2.32071">
        <ele>134.5</ele>
        <time>2015-07-13T19:31:09.871Z</time>
      </trkpt>
      <trkpt lat="48.88361" lon="2.3206">
        <ele>132.9</ele>
        <time>2015-07-13T19:31:11.860Z</time>
      </trkpt>
      <trkpt lat="48.88359" lon="2.32056">
        <ele>132.2</ele>
        <time>2015-07-13T19:31:12.866Z</time>
      </trkpt>
      <trkpt lat="48.88358" lon="2.32044">
        <ele>131.5</ele>
        <time>2015-07-13T19:31:15.842Z</time>
      </trkpt>
      <trkpt lat="48.88357" lon="2.32039">
        <ele>130.7</ele>
        <time>2015-07-13T19:31:16.897Z</time>
      </trkpt>
      <trkpt lat="48.88353" lon="2.3203">
        <ele>129.3</ele>
        <time>2015-07-13T19:31:18.820Z</time>
      </trkpt>
      <trkpt lat="48.88351" lon="2.32026">
        <ele>129</ele>
        <time>2015-07-13T19:31:19.825Z</time>
      </trkpt>
      <trkpt lat="48.88348" lon="2.32013">
        <ele>128.1</ele>
        <time>2015-07-13T19:31:21.859Z</time>
      </trkpt>
      <trkpt lat="48.88347" lon="2.32007">
        <ele>127.9</ele>
        <time>2015-07-13T19:31:22.871Z</time>
      </trkpt>
      <trkpt lat="48.88344" lon="2.31998">
        <ele>127</ele>
        <time>2015-07-13T19:31:23.922Z</time>
      </trkpt>
      <trkpt lat="48.88342" lon="2.31989">
        <ele>126</ele>
        <time>2015-07-13T19:31:24.824Z</time>
      </trkpt>
      <trkpt lat="48.88341" lon="2.31982">
        <ele>125.4</ele>
        <time>2015-07-13T19:31:25.837Z</time>
      </trkpt>
      <trkpt lat="48.8834" lon="2.31975">
        <ele>124.7</ele>
        <time>2015-07-13T19:31:26.844Z</time>
      </trkpt>
      <trkpt lat="48.88338" lon="2.31969">
        <ele>123.5</ele>
        <time>2015-07-13T19:31:27.850Z</time>
      </trkpt>
      <trkpt lat="48.88337" lon="2.31961">
        <ele>122.6</ele>
        <time>2015-07-13T19:31:28.869Z</time>
      </trkpt>
      <trkpt lat="48.88334" lon="2.3195">
        <ele>120.9</ele>
        <time>2015-07-13T19:31:30.813Z</time>
      </trkpt>
      <trkpt lat="48.88333" lon="2.31945">
        <ele>120.5</ele>
        <time>2015-07-13T19:31:31.930Z</time>
      </trkpt>
      <trkpt lat="48.88329" lon="2.31937">
        <ele>120.5</ele>
        <time>2015-07-13T19:31:33.861Z</time>
      </trkpt>
      <trkpt lat="48.88327" lon="2.31932">
        <ele>120.8</ele>
        <time>2015-07-13T19:31:34.965Z</time>
      </trkpt>
      <trkpt lat="48.88327" lon="2.3192">
        <ele>118.5</ele>
        <time>2015-07-13T19:31:50.952Z</time>
      </trkpt>
      <trkpt lat="48.88326" lon="2.31915">
        <ele>118.1</ele>
        <time>2015-07-13T19:31:51.863Z</time>
      </trkpt>
      <trkpt lat="48.88323" lon="2.31905">
        <ele>117.5</ele>
        <time>2015-07-13T19:31:53.892Z</time>
      </trkpt>
      <trkpt lat="48.88321" lon="2.31899">
        <ele>117</ele>
        <time>2015-07-13T19:31:54.902Z</time>
      </trkpt>
      <trkpt lat="48.8832" lon="2.31893">
        <ele>117</ele>
        <time>2015-07-13T19:31:55.822Z</time>
      </trkpt>
      <trkpt lat="48.88318" lon="2.31885">
        <ele>116.5</ele>
        <time>2015-07-13T19:31:56.847Z</time>
      </trkpt>
      <trkpt lat="48.88317" lon="2.31878">
        <ele>116.2</ele>
        <time>2015-07-13T19:31:57.864Z</time>
      </trkpt>
      <trkpt lat="48.88316" lon="2.31871">
        <ele>116.2</ele>
        <time>2015-07-13T19:31:58.872Z</time>
      </trkpt>
      <trkpt lat="48.88312" lon="2.31859">
        <ele>116</ele>
        <time>2015-07-13T19:32:00.820Z</time>
      </trkpt>
      <trkpt lat="48.8831" lon="2.31854">
        <ele>115.8</ele>
        <time>2015-07-13T19:32:01.823Z</time>
      </trkpt>
      <trkpt lat="48.88305" lon="2.31843">
        <ele>115.3</ele>
        <time>2015-07-13T19:32:03.884Z</time>
      </trkpt>
      <trkpt lat="48.88303" lon="2.31837">
        <ele>115.1</ele>
        <time>2015-07-13T19:32:04.894Z</time>
      </trkpt>
      <trkpt lat="48.88301" lon="2.3183">
        <ele>115.2</ele>
        <time>2015-07-13T19:32:05.893Z</time>
      </trkpt>
      <trkpt lat="48.88299" lon="2.31824">
        <ele>115.4</ele>
        <time>2015-07-13T19:32:06.861Z</time>
      </trkpt>
      <trkpt lat="48.88294" lon="2.31813">
        <ele>115.2</ele>
        <time>2015-07-13T19:32:08.847Z</time>
      </trkpt>
      <trkpt lat="48.88293" lon="2.31808">
        <ele>115.2</ele>
        <time>2015-07-13T19:32:09.860Z</time>
      </trkpt>
      <trkpt lat="48.88289" lon="2.31797">
        <ele>115.1</ele>
        <time>2015-07-13T19:32:11.907Z</time>
      </trkpt>
      <trkpt lat="48.88287" lon="2.31793">
        <ele>114.9</ele>
        <time>2015-07-13T19:32:12.847Z</time>
      </trkpt>
      <trkpt lat="48.88285" lon="2.31784">
        <ele>114.5</ele>
        <time>2015-07-13T19:32:14.827Z</time>
      </trkpt>
      <trkpt lat="48.88285" lon="2.31779">
        <ele>113.7</ele>
        <time>2015-07-13T19:32:15.850Z</time>
      </trkpt>
      <trkpt lat="48.88281" lon="2.31769">
        <ele>113.1</ele>
        <time>2015-07-13T19:32:19.840Z</time>
      </trkpt>
      <trkpt lat="48.8828" lon="2.31766">
        <ele>113</ele>
        <time>2015-07-13T19:32:20.833Z</time>
      </trkpt>
      <trkpt lat="48.88279" lon="2.31756">
        <ele>112.2</ele>
        <time>2015-07-13T19:32:23.944Z</time>
      </trkpt>
      <trkpt lat="48.88278" lon="2.31752">
        <ele>111.9</ele>
        <time>2015-07-13T19:32:24.849Z</time>
      </trkpt>
      <trkpt lat="48.88276" lon="2.31741">
        <ele>111.3</ele>
        <time>2015-07-13T19:32:28.878Z</time>
      </trkpt>
      <trkpt lat="48.88276" lon="2.31736">
        <ele>111.3</ele>
        <time>2015-07-13T19:32:29.908Z</time>
      </trkpt>
      <trkpt lat="48.88276" lon="2.31723">
        <ele>111.2</ele>
        <time>2015-07-13T19:32:33.845Z</time>
      </trkpt>
      <trkpt lat="48.88276" lon="2.31721">
        <ele>111.2</ele>
        <time>2015-07-13T19:32:34.850Z</time>
      </trkpt>
      <trkpt lat="48.88275" lon="2.31714">
        <ele>110.9</ele>
        <time>2015-07-13T19:32:39.841Z</time>
      </trkpt>
      <trkpt lat="48.88272" lon="2.31702">
        <ele>111.3</ele>
        <time>2015-07-13T19:32:40.877Z</time>
      </trkpt>
      <trkpt lat="48.88269" lon="2.3169">
        <ele>112.4</ele>
        <time>2015-07-13T19:32:42.828Z</time>
      </trkpt>
      <trkpt lat="48.88269" lon="2.31688">
        <ele>112.4</ele>
        <time>2015-07-13T19:32:43.799Z</time>
      </trkpt>
      <trkpt lat="48.88266" lon="2.31679">
        <ele>113.9</ele>
        <time>2015-07-13T19:32:53.931Z</time>
      </trkpt>
      <trkpt lat="48.88257" lon="2.31659">
        <ele>112.7</ele>
        <time>2015-07-13T19:32:54.841Z</time>
      </trkpt>
      <trkpt lat="48.88252" lon="2.31653">
        <ele>112.1</ele>
        <time>2015-07-13T19:32:56.855Z</time>
      </trkpt>
      <trkpt lat="48.88246" lon="2.31644">
        <ele>110.5</ele>
        <time>2015-07-13T19:32:57.993Z</time>
      </trkpt>
      <trkpt lat="48.88243" lon="2.31637">
        <ele>109.7</ele>
        <time>2015-07-13T19:32:58.817Z</time>
      </trkpt>
      <trkpt lat="48.8824" lon="2.3163">
        <ele>109.4</ele>
        <time>2015-07-13T19:32:59.909Z</time>
      </trkpt>
      <trkpt lat="48.88237" lon="2.31624">
        <ele>109.4</ele>
        <time>2015-07-13T19:33:00.926Z</time>
      </trkpt>
      <trkpt lat="48.88235" lon="2.31617">
        <ele>109.4</ele>
        <time>2015-07-13T19:33:01.776Z</time>
      </trkpt>
      <trkpt lat="48.88233" lon="2.3161">
        <ele>109.6</ele>
        <time>2015-07-13T19:33:02.806Z</time>
      </trkpt>
      <trkpt lat="48.88232" lon="2.31603">
        <ele>110</ele>
        <time>2015-07-13T19:33:03.850Z</time>
      </trkpt>
      <trkpt lat="48.8823" lon="2.31597">
        <ele>110.2</ele>
        <time>2015-07-13T19:33:04.847Z</time>
      </trkpt>
      <trkpt lat="48.88227" lon="2.31591">
        <ele>110.4</ele>
        <time>2015-07-13T19:33:05.861Z</time>
      </trkpt>
      <trkpt lat="48.88224" lon="2.31586">
        <ele>110.5</ele>
        <time>2015-07-13T19:33:06.868Z</time>
      </trkpt>
      <trkpt lat="48.8822" lon="2.31579">
        <ele>113.1</ele>
        <time>2015-07-13T19:33:07.873Z</time>
      </trkpt>
      <trkpt lat="48.88216" lon="2.31567">
        <ele>117.2</ele>
        <time>2015-07-13T19:33:09.799Z</time>
      </trkpt>
      <trkpt lat="48.88213" lon="2.31563">
        <ele>118.4</ele>
        <time>2015-07-13T19:33:10.848Z</time>
      </trkpt>
      <trkpt lat="48.88209" lon="2.31557">
        <ele>119.1</ele>
        <time>2015-07-13T19:33:12.891Z</time>
      </trkpt>
      <trkpt lat="48.88206" lon="2.31554">
        <ele>118.7</ele>
        <time>2015-07-13T19:33:13.852Z</time>
      </trkpt>
      <trkpt lat="48.88198" lon="2.31559">
        <ele>117</ele>
        <time>2015-07-13T19:33:16.816Z</time>
      </trkpt>
      <trkpt lat="48.88195" lon="2.31563">
        <ele>117.3</ele>
        <time>2015-07-13T19:33:17.865Z</time>
      </trkpt>
      <trkpt lat="48.88191" lon="2.31573">
        <ele>117.9</ele>
        <time>2015-07-13T19:33:19.868Z</time>
      </trkpt>
      <trkpt lat="48.88189" lon="2.31576">
        <ele>118.4</ele>
        <time>2015-07-13T19:33:21.108Z</time>
      </trkpt>
      <trkpt lat="48.88183" lon="2.31581">
        <ele>118.7</ele>
        <time>2015-07-13T19:33:23.936Z</time>
      </trkpt>
      <trkpt lat="48.88181" lon="2.31583">
        <ele>118.9</ele>
        <time>2015-07-13T19:33:24.885Z</time>
      </trkpt>
      <trkpt lat="48.88174" lon="2.31589">
        <ele>119</ele>
        <time>2015-07-13T19:33:27.941Z</time>
      </trkpt>
      <trkpt lat="48.88171" lon="2.31592">
        <ele>118.9</ele>
        <time>2015-07-13T19:33:28.851Z</time>
      </trkpt>
      <trkpt lat="48.88167" lon="2.31603">
        <ele>118.4</ele>
        <time>2015-07-13T19:33:31.838Z</time>
      </trkpt>
      <trkpt lat="48.88166" lon="2.31608">
        <ele>118.3</ele>
        <time>2015-07-13T19:33:32.855Z</time>
      </trkpt>
      <trkpt lat="48.8816" lon="2.31616">
        <ele>118.2</ele>
        <time>2015-07-13T19:33:35.882Z</time>
      </trkpt>
      <trkpt lat="48.88158" lon="2.31617">
        <ele>118.3</ele>
        <time>2015-07-13T19:33:36.817Z</time>
      </trkpt>
      <trkpt lat="48.8815" lon="2.31615">
        <ele>118.2</ele>
        <time>2015-07-13T19:33:39.840Z</time>
      </trkpt>
      <trkpt lat="48.88146" lon="2.31612">
        <ele>118.3</ele>
        <time>2015-07-13T19:33:40.879Z</time>
      </trkpt>
      <trkpt lat="48.8814" lon="2.31605">
        <ele>118.5</ele>
        <time>2015-07-13T19:33:43.881Z</time>
      </trkpt>
      <trkpt lat="48.88138" lon="2.31603">
        <ele>118.8</ele>
        <time>2015-07-13T19:33:44.790Z</time>
      </trkpt>
      <trkpt lat="48.88133" lon="2.31592">
        <ele>110.6</ele>
        <time>2015-07-13T19:34:58.926Z</time>
      </trkpt>
      <trkpt lat="48.88133" lon="2.31588">
        <ele>110.3</ele>
        <time>2015-07-13T19:34:59.880Z</time>
      </trkpt>
      <trkpt lat="48.88132" lon="2.31576">
        <ele>110.1</ele>
        <time>2015-07-13T19:35:02.811Z</time>
      </trkpt>
      <trkpt lat="48.88132" lon="2.31572">
        <ele>110</ele>
        <time>2015-07-13T19:35:03.811Z</time>
      </trkpt>
      <trkpt lat="48.88129" lon="2.31559">
        <ele>109.5</ele>
        <time>2015-07-13T19:35:06.915Z</time>
      </trkpt>
      <trkpt lat="48.88128" lon="2.31554">
        <ele>109.4</ele>
        <time>2015-07-13T19:35:07.909Z</time>
      </trkpt>
      <trkpt lat="48.88125" lon="2.31542">
        <ele>110.2</ele>
        <time>2015-07-13T19:35:09.849Z</time>
      </trkpt>
      <trkpt lat="48.88124" lon="2.31536">
        <ele>110.7</ele>
        <time>2015-07-13T19:35:10.924Z</time>
      </trkpt>
      <trkpt lat="48.88121" lon="2.31525">
        <ele>112.2</ele>
        <time>2015-07-13T19:35:12.791Z</time>
      </trkpt>
      <trkpt lat="48.8812" lon="2.31519">
        <ele>112.6</ele>
        <time>2015-07-13T19:35:13.820Z</time>
      </trkpt>
      <trkpt lat="48.88119" lon="2.31508">
        <ele>113.1</ele>
        <time>2015-07-13T19:35:15.843Z</time>
      </trkpt>
      <trkpt lat="48.88118" lon="2.31502">
        <ele>113.3</ele>
        <time>2015-07-13T19:35:16.867Z</time>
      </trkpt>
      <trkpt lat="48.88117" lon="2.31492">
        <ele>113.5</ele>
        <time>2015-07-13T19:35:18.829Z</time>
      </trkpt>
      <trkpt lat="48.88116" lon="2.31486">
        <ele>113.7</ele>
        <time>2015-07-13T19:35:19.878Z</time>
      </trkpt>
      <trkpt lat="48.88115" lon="2.31473">
        <ele>114.8</ele>
        <time>2015-07-13T19:35:21.872Z</time>
      </trkpt>
      <trkpt lat="48.88115" lon="2.31469">
        <ele>115.3</ele>
        <time>2015-07-13T19:35:22.863Z</time>
      </trkpt>
      <trkpt lat="48.88114" lon="2.31457">
        <ele>116.1</ele>
        <time>2015-07-13T19:35:24.818Z</time>
      </trkpt>
      <trkpt lat="48.88113" lon="2.31452">
        <ele>116.3</ele>
        <time>2015-07-13T19:35:25.878Z</time>
      </trkpt>
      <trkpt lat="48.88112" lon="2.31442">
        <ele>116.4</ele>
        <time>2015-07-13T19:35:27.813Z</time>
      </trkpt>
      <trkpt lat="48.88111" lon="2.31438">
        <ele>116.5</ele>
        <time>2015-07-13T19:35:28.851Z</time>
      </trkpt>
      <trkpt lat="48.88109" lon="2.31425">
        <ele>116.9</ele>
        <time>2015-07-13T19:35:30.892Z</time>
      </trkpt>
      <trkpt lat="48.88107" lon="2.31419">
        <ele>117.1</ele>
        <time>2015-07-13T19:35:31.815Z</time>
      </trkpt>
      <trkpt lat="48.88105" lon="2.31407">
        <ele>117.8</ele>
        <time>2015-07-13T19:35:33.840Z</time>
      </trkpt>
      <trkpt lat="48.88104" lon="2.31401">
        <ele>118.2</ele>
        <time>2015-07-13T19:35:34.864Z</time>
      </trkpt>
      <trkpt lat="48.88102" lon="2.31394">
        <ele>118.4</ele>
        <time>2015-07-13T19:35:35.911Z</time>
      </trkpt>
      <trkpt lat="48.88102" lon="2.31387">
        <ele>118.2</ele>
        <time>2015-07-13T19:35:36.809Z</time>
      </trkpt>
      <trkpt lat="48.881" lon="2.31376">
        <ele>118</ele>
        <time>2015-07-13T19:35:38.821Z</time>
      </trkpt>
      <trkpt lat="48.881" lon="2.31371">
        <ele>117.8</ele>
        <time>2015-07-13T19:35:39.833Z</time>
      </trkpt>
      <trkpt lat="48.88099" lon="2.31361">
        <ele>117.3</ele>
        <time>2015-07-13T19:35:41.868Z</time>
      </trkpt>
      <trkpt lat="48.88098" lon="2.31356">
        <ele>117.4</ele>
        <time>2015-07-13T19:35:42.784Z</time>
      </trkpt>
      <trkpt lat="48.88097" lon="2.31348">
        <ele>117.6</ele>
        <time>2015-07-13T19:35:43.861Z</time>
      </trkpt>
      <trkpt lat="48.88096" lon="2.3134">
        <ele>117.9</ele>
        <time>2015-07-13T19:35:44.866Z</time>
      </trkpt>
      <trkpt lat="48.88095" lon="2.31332">
        <ele>117.7</ele>
        <time>2015-07-13T19:35:45.912Z</time>
      </trkpt>
      <trkpt lat="48.88094" lon="2.31324">
        <ele>118</ele>
        <time>2015-07-13T19:35:46.816Z</time>
      </trkpt>
      <trkpt lat="48.88093" lon="2.31316">
        <ele>118.2</ele>
        <time>2015-07-13T19:35:47.865Z</time>
      </trkpt>
      <trkpt lat="48.88091" lon="2.31308">
        <ele>118.9</ele>
        <time>2015-07-13T19:35:48.916Z</time>
      </trkpt>
      <trkpt lat="48.8809" lon="2.313">
        <ele>119.4</ele>
        <time>2015-07-13T19:35:49.817Z</time>
      </trkpt>
      <trkpt lat="48.88089" lon="2.31293">
        <ele>120</ele>
        <time>2015-07-13T19:35:50.823Z</time>
      </trkpt>
      <trkpt lat="48.88088" lon="2.31286">
        <ele>120.4</ele>
        <time>2015-07-13T19:35:51.830Z</time>
      </trkpt>
      <trkpt lat="48.88087" lon="2.31278">
        <ele>120.1</ele>
        <time>2015-07-13T19:35:52.828Z</time>
      </trkpt>
      <trkpt lat="48.88087" lon="2.31265">
        <ele>119</ele>
        <time>2015-07-13T19:35:54.860Z</time>
      </trkpt>
      <trkpt lat="48.88086" lon="2.31259">
        <ele>118.9</ele>
        <time>2015-07-13T19:35:55.854Z</time>
      </trkpt>
      <trkpt lat="48.88087" lon="2.3125">
        <ele>118.2</ele>
        <time>2015-07-13T19:35:57.813Z</time>
      </trkpt>
      <trkpt lat="48.88087" lon="2.31246">
        <ele>117.8</ele>
        <time>2015-07-13T19:35:58.850Z</time>
      </trkpt>
      <trkpt lat="48.88091" lon="2.31236">
        <ele>117</ele>
        <time>2015-07-13T19:36:01.853Z</time>
      </trkpt>
      <trkpt lat="48.88092" lon="2.31233">
        <ele>117.1</ele>
        <time>2015-07-13T19:36:02.798Z</time>
      </trkpt>
      <trkpt lat="48.8809" lon="2.31222">
        <ele>113</ele>
        <time>2015-07-13T19:36:20.853Z</time>
      </trkpt>
      <trkpt lat="48.88088" lon="2.31218">
        <ele>113.2</ele>
        <time>2015-07-13T19:36:21.994Z</time>
      </trkpt>
      <trkpt lat="48.88087" lon="2.31209">
        <ele>113.8</ele>
        <time>2015-07-13T19:36:23.859Z</time>
      </trkpt>
      <trkpt lat="48.88086" lon="2.31205">
        <ele>114</ele>
        <time>2015-07-13T19:36:24.864Z</time>
      </trkpt>
      <trkpt lat="48.88083" lon="2.31196">
        <ele>114.4</ele>
        <time>2015-07-13T19:36:27.860Z</time>
      </trkpt>
      <trkpt lat="48.88081" lon="2.31192">
        <ele>114.4</ele>
        <time>2015-07-13T19:36:28.880Z</time>
      </trkpt>
      <trkpt lat="48.8808" lon="2.31181">
        <ele>114.9</ele>
        <time>2015-07-13T19:36:31.847Z</time>
      </trkpt>
      <trkpt lat="48.8808" lon="2.31177">
        <ele>115.2</ele>
        <time>2015-07-13T19:36:33.013Z</time>
      </trkpt>
      <trkpt lat="48.88079" lon="2.31168">
        <ele>115.1</ele>
        <time>2015-07-13T19:36:34.854Z</time>
      </trkpt>
      <trkpt lat="48.88078" lon="2.31162">
        <ele>115.1</ele>
        <time>2015-07-13T19:36:35.943Z</time>
      </trkpt>
      <trkpt lat="48.88077" lon="2.31149">
        <ele>115</ele>
        <time>2015-07-13T19:36:38.850Z</time>
      </trkpt>
      <trkpt lat="48.88077" lon="2.31144">
        <ele>115.2</ele>
        <time>2015-07-13T19:36:39.862Z</time>
      </trkpt>
      <trkpt lat="48.88076" lon="2.31133">
        <ele>115.6</ele>
        <time>2015-07-13T19:36:41.879Z</time>
      </trkpt>
      <trkpt lat="48.88074" lon="2.31127">
        <ele>115.7</ele>
        <time>2015-07-13T19:36:42.905Z</time>
      </trkpt>
      <trkpt lat="48.88074" lon="2.31115">
        <ele>115.5</ele>
        <time>2015-07-13T19:36:44.814Z</time>
      </trkpt>
      <trkpt lat="48.88074" lon="2.31108">
        <ele>115.4</ele>
        <time>2015-07-13T19:36:45.862Z</time>
      </trkpt>
      <trkpt lat="48.88072" lon="2.311">
        <ele>115.4</ele>
        <time>2015-07-13T19:36:46.947Z</time>
      </trkpt>
      <trkpt lat="48.88071" lon="2.31092">
        <ele>115.5</ele>
        <time>2015-07-13T19:36:47.894Z</time>
      </trkpt>
      <trkpt lat="48.8807" lon="2.31085">
        <ele>115.5</ele>
        <time>2015-07-13T19:36:48.807Z</time>
      </trkpt>
      <trkpt lat="48.8807" lon="2.31075">
        <ele>115.6</ele>
        <time>2015-07-13T19:36:49.815Z</time>
      </trkpt>
      <trkpt lat="48.88069" lon="2.31066">
        <ele>115.4</ele>
        <time>2015-07-13T19:36:51.056Z</time>
      </trkpt>
      <trkpt lat="48.88069" lon="2.31059">
        <ele>115.3</ele>
        <time>2015-07-13T19:36:51.901Z</time>
      </trkpt>
      <trkpt lat="48.88068" lon="2.31052">
        <ele>115.1</ele>
        <time>2015-07-13T19:36:52.837Z</time>
      </trkpt>
      <trkpt lat="48.88066" lon="2.31046">
        <ele>115</ele>
        <time>2015-07-13T19:36:53.863Z</time>
      </trkpt>
      <trkpt lat="48.88064" lon="2.31038">
        <ele>114.7</ele>
        <time>2015-07-13T19:36:54.907Z</time>
      </trkpt>
      <trkpt lat="48.88063" lon="2.3103">
        <ele>114.6</ele>
        <time>2015-07-13T19:36:55.814Z</time>
      </trkpt>
      <trkpt lat="48.88061" lon="2.31019">
        <ele>114.6</ele>
        <time>2015-07-13T19:36:57.807Z</time>
      </trkpt>
      <trkpt lat="48.8806" lon="2.31012">
        <ele>114.9</ele>
        <time>2015-07-13T19:36:58.845Z</time>
      </trkpt>
      <trkpt lat="48.88058" lon="2.31005">
        <ele>114.9</ele>
        <time>2015-07-13T19:36:59.910Z</time>
      </trkpt>
      <trkpt lat="48.88056" lon="2.30998">
        <ele>115</ele>
        <time>2015-07-13T19:37:00.847Z</time>
      </trkpt>
      <trkpt lat="48.88056" lon="2.30991">
        <ele>115.1</ele>
        <time>2015-07-13T19:37:01.814Z</time>
      </trkpt>
      <trkpt lat="48.88056" lon="2.30984">
        <ele>115.2</ele>
        <time>2015-07-13T19:37:02.826Z</time>
      </trkpt>
      <trkpt lat="48.88053" lon="2.30971">
        <ele>115.5</ele>
        <time>2015-07-13T19:37:04.872Z</time>
      </trkpt>
      <trkpt lat="48.88052" lon="2.30964">
        <ele>115.5</ele>
        <time>2015-07-13T19:37:05.893Z</time>
      </trkpt>
      <trkpt lat="48.88052" lon="2.30951">
        <ele>115.9</ele>
        <time>2015-07-13T19:37:07.827Z</time>
      </trkpt>
      <trkpt lat="48.88052" lon="2.30944">
        <ele>115.9</ele>
        <time>2015-07-13T19:37:08.888Z</time>
      </trkpt>
      <trkpt lat="48.88052" lon="2.30931">
        <ele>115.2</ele>
        <time>2015-07-13T19:37:10.900Z</time>
      </trkpt>
      <trkpt lat="48.88051" lon="2.30925">
        <ele>115.1</ele>
        <time>2015-07-13T19:37:11.873Z</time>
      </trkpt>
      <trkpt lat="48.8805" lon="2.30914">
        <ele>115.3</ele>
        <time>2015-07-13T19:37:13.814Z</time>
      </trkpt>
      <trkpt lat="48.8805" lon="2.30909">
        <ele>115.4</ele>
        <time>2015-07-13T19:37:14.832Z</time>
      </trkpt>
      <trkpt lat="48.88047" lon="2.30896">
        <ele>115.8</ele>
        <time>2015-07-13T19:37:16.875Z</time>
      </trkpt>
      <trkpt lat="48.88045" lon="2.3089">
        <ele>116.2</ele>
        <time>2015-07-13T19:37:17.912Z</time>
      </trkpt>
      <trkpt lat="48.88043" lon="2.30877">
        <ele>116.8</ele>
        <time>2015-07-13T19:37:19.826Z</time>
      </trkpt>
      <trkpt lat="48.88042" lon="2.30872">
        <ele>116.8</ele>
        <time>2015-07-13T19:37:20.842Z</time>
      </trkpt>
      <trkpt lat="48.88041" lon="2.30859">
        <ele>115.6</ele>
        <time>2015-07-13T19:37:22.815Z</time>
      </trkpt>
      <trkpt lat="48.88041" lon="2.30855">
        <ele>114.1</ele>
        <time>2015-07-13T19:37:23.937Z</time>
      </trkpt>
      <trkpt lat="48.88039" lon="2.30842">
        <ele>110.8</ele>
        <time>2015-07-13T19:37:27.871Z</time>
      </trkpt>
      <trkpt lat="48.88039" lon="2.3084">
        <ele>110.4</ele>
        <time>2015-07-13T19:37:28.899Z</time>
      </trkpt>
      <trkpt lat="48.88036" lon="2.30834">
        <ele>110</ele>
        <time>2015-07-13T19:37:36.869Z</time>
      </trkpt>
      <trkpt lat="48.88036" lon="2.30824">
        <ele>110.1</ele>
        <time>2015-07-13T19:37:37.872Z</time>
      </trkpt>
      <trkpt lat="48.88031" lon="2.30815">
        <ele>110.3</ele>
        <time>2015-07-13T19:37:40.957Z</time>
      </trkpt>
      <trkpt lat="48.8803" lon="2.30811">
        <ele>110.1</ele>
        <time>2015-07-13T19:37:41.881Z</time>
      </trkpt>
      <trkpt lat="48.88028" lon="2.308">
        <ele>109.9</ele>
        <time>2015-07-13T19:37:43.833Z</time>
      </trkpt>
      <trkpt lat="48.88027" lon="2.30795">
        <ele>110.1</ele>
        <time>2015-07-13T19:37:44.844Z</time>
      </trkpt>
      <trkpt lat="48.88024" lon="2.30783">
        <ele>109.4</ele>
        <time>2015-07-13T19:37:46.817Z</time>
      </trkpt>
      <trkpt lat="48.88022" lon="2.30775">
        <ele>109</ele>
        <time>2015-07-13T19:37:47.869Z</time>
      </trkpt>
      <trkpt lat="48.88019" lon="2.30768">
        <ele>108.7</ele>
        <time>2015-07-13T19:37:48.883Z</time>
      </trkpt>
      <trkpt lat="48.88017" lon="2.30761">
        <ele>108.6</ele>
        <time>2015-07-13T19:37:49.901Z</time>
      </trkpt>
      <trkpt lat="48.88016" lon="2.30753">
        <ele>108.2</ele>
        <time>2015-07-13T19:37:50.814Z</time>
      </trkpt>
      <trkpt lat="48.88014" lon="2.30745">
        <ele>107.9</ele>
        <time>2015-07-13T19:37:51.822Z</time>
      </trkpt>
      <trkpt lat="48.88011" lon="2.30737">
        <ele>107.8</ele>
        <time>2015-07-13T19:37:52.849Z</time>
      </trkpt>
      <trkpt lat="48.88009" lon="2.30728">
        <ele>108</ele>
        <time>2015-07-13T19:37:53.870Z</time>
      </trkpt>
      <trkpt lat="48.88007" lon="2.30721">
        <ele>108.1</ele>
        <time>2015-07-13T19:37:54.813Z</time>
      </trkpt>
      <trkpt lat="48.88005" lon="2.30714">
        <ele>107.9</ele>
        <time>2015-07-13T19:37:55.859Z</time>
      </trkpt>
      <trkpt lat="48.88004" lon="2.30705">
        <ele>107.5</ele>
        <time>2015-07-13T19:37:56.876Z</time>
      </trkpt>
      <trkpt lat="48.88003" lon="2.30699">
        <ele>107.1</ele>
        <time>2015-07-13T19:37:57.885Z</time>
      </trkpt>
      <trkpt lat="48.88001" lon="2.30692">
        <ele>106.7</ele>
        <time>2015-07-13T19:37:58.819Z</time>
      </trkpt>
      <trkpt lat="48.87999" lon="2.30685">
        <ele>106.2</ele>
        <time>2015-07-13T19:37:59.904Z</time>
      </trkpt>
      <trkpt lat="48.87997" lon="2.30675">
        <ele>105.8</ele>
        <time>2015-07-13T19:38:01.808Z</time>
      </trkpt>
      <trkpt lat="48.87995" lon="2.30668">
        <ele>106.1</ele>
        <time>2015-07-13T19:38:02.846Z</time>
      </trkpt>
      <trkpt lat="48.87993" lon="2.3066">
        <ele>106.2</ele>
        <time>2015-07-13T19:38:03.810Z</time>
      </trkpt>
      <trkpt lat="48.87991" lon="2.30652">
        <ele>106.2</ele>
        <time>2015-07-13T19:38:04.814Z</time>
      </trkpt>
      <trkpt lat="48.87988" lon="2.30641">
        <ele>106.3</ele>
        <time>2015-07-13T19:38:06.886Z</time>
      </trkpt>
      <trkpt lat="48.87986" lon="2.30634">
        <ele>106.7</ele>
        <time>2015-07-13T19:38:07.877Z</time>
      </trkpt>
      <trkpt lat="48.87982" lon="2.30623">
        <ele>107.1</ele>
        <time>2015-07-13T19:38:09.852Z</time>
      </trkpt>
      <trkpt lat="48.87981" lon="2.30618">
        <ele>107.2</ele>
        <time>2015-07-13T19:38:10.878Z</time>
      </trkpt>
      <trkpt lat="48.87978" lon="2.30609">
        <ele>107.1</ele>
        <time>2015-07-13T19:38:12.815Z</time>
      </trkpt>
      <trkpt lat="48.87978" lon="2.30602">
        <ele>107.2</ele>
        <time>2015-07-13T19:38:13.848Z</time>
      </trkpt>
      <trkpt lat="48.87979" lon="2.3059">
        <ele>106.5</ele>
        <time>2015-07-13T19:38:15.815Z</time>
      </trkpt>
      <trkpt lat="48.87978" lon="2.30582">
        <ele>105.7</ele>
        <time>2015-07-13T19:38:16.856Z</time>
      </trkpt>
      <trkpt lat="48.87975" lon="2.30569">
        <ele>104.6</ele>
        <time>2015-07-13T19:38:18.814Z</time>
      </trkpt>
      <trkpt lat="48.87975" lon="2.30563">
        <ele>104</ele>
        <time>2015-07-13T19:38:19.863Z</time>
      </trkpt>
      <trkpt lat="48.87975" lon="2.3055">
        <ele>103.4</ele>
        <time>2015-07-13T19:38:22.856Z</time>
      </trkpt>
      <trkpt lat="48.87974" lon="2.30545">
        <ele>103.4</ele>
        <time>2015-07-13T19:38:23.889Z</time>
      </trkpt>
      <trkpt lat="48.87971" lon="2.30533">
        <ele>103</ele>
        <time>2015-07-13T19:38:26.854Z</time>
      </trkpt>
      <trkpt lat="48.87969" lon="2.30528">
        <ele>103.3</ele>
        <time>2015-07-13T19:38:27.857Z</time>
      </trkpt>
      <trkpt lat="48.87967" lon="2.30517">
        <ele>103.2</ele>
        <time>2015-07-13T19:38:29.871Z</time>
      </trkpt>
      <trkpt lat="48.87965" lon="2.3051">
        <ele>102.9</ele>
        <time>2015-07-13T19:38:30.916Z</time>
      </trkpt>
      <trkpt lat="48.87962" lon="2.305">
        <ele>103</ele>
        <time>2015-07-13T19:38:32.848Z</time>
      </trkpt>
      <trkpt lat="48.87961" lon="2.30496">
        <ele>103.6</ele>
        <time>2015-07-13T19:38:33.863Z</time>
      </trkpt>
      <trkpt lat="48.87958" lon="2.30487">
        <ele>105.1</ele>
        <time>2015-07-13T19:38:35.873Z</time>
      </trkpt>
      <trkpt lat="48.87957" lon="2.30484">
        <ele>105.9</ele>
        <time>2015-07-13T19:38:36.838Z</time>
      </trkpt>
      <trkpt lat="48.87953" lon="2.30474">
        <ele>106.5</ele>
        <time>2015-07-13T19:38:38.901Z</time>
      </trkpt>
      <trkpt lat="48.87953" lon="2.30468">
        <ele>106.9</ele>
        <time>2015-07-13T19:38:39.857Z</time>
      </trkpt>
      <trkpt lat="48.87952" lon="2.30455">
        <ele>107.4</ele>
        <time>2015-07-13T19:38:41.879Z</time>
      </trkpt>
      <trkpt lat="48.8795" lon="2.3045">
        <ele>107.1</ele>
        <time>2015-07-13T19:38:42.891Z</time>
      </trkpt>
      <trkpt lat="48.87948" lon="2.3044">
        <ele>106.9</ele>
        <time>2015-07-13T19:38:44.829Z</time>
      </trkpt>
      <trkpt lat="48.87947" lon="2.30435">
        <ele>106.8</ele>
        <time>2015-07-13T19:38:45.847Z</time>
      </trkpt>
      <trkpt lat="48.87944" lon="2.30423">
        <ele>107.1</ele>
        <time>2015-07-13T19:38:47.921Z</time>
      </trkpt>
      <trkpt lat="48.87943" lon="2.30417">
        <ele>107.1</ele>
        <time>2015-07-13T19:38:48.839Z</time>
      </trkpt>
      <trkpt lat="48.87941" lon="2.30405">
        <ele>107.1</ele>
        <time>2015-07-13T19:38:50.857Z</time>
      </trkpt>
      <trkpt lat="48.87939" lon="2.304">
        <ele>107.1</ele>
        <time>2015-07-13T19:38:51.860Z</time>
      </trkpt>
      <trkpt lat="48.87937" lon="2.3039">
        <ele>106.7</ele>
        <time>2015-07-13T19:38:53.903Z</time>
      </trkpt>
      <trkpt lat="48.87937" lon="2.30386">
        <ele>106.4</ele>
        <time>2015-07-13T19:38:54.841Z</time>
      </trkpt>
      <trkpt lat="48.87936" lon="2.30376">
        <ele>106.1</ele>
        <time>2015-07-13T19:38:56.815Z</time>
      </trkpt>
      <trkpt lat="48.87936" lon="2.30371">
        <ele>106</ele>
        <time>2015-07-13T19:38:57.848Z</time>
      </trkpt>
      <trkpt lat="48.87935" lon="2.3036">
        <ele>107.2</ele>
        <time>2015-07-13T19:38:59.926Z</time>
      </trkpt>
      <trkpt lat="48.87935" lon="2.30356">
        <ele>107.3</ele>
        <time>2015-07-13T19:39:00.820Z</time>
      </trkpt>
      <trkpt lat="48.87934" lon="2.30345">
        <ele>107.5</ele>
        <time>2015-07-13T19:39:03.854Z</time>
      </trkpt>
      <trkpt lat="48.87933" lon="2.30342">
        <ele>107.5</ele>
        <time>2015-07-13T19:39:04.867Z</time>
      </trkpt>
      <trkpt lat="48.87929" lon="2.30333">
        <ele>108.2</ele>
        <time>2015-07-13T19:39:06.802Z</time>
      </trkpt>
      <trkpt lat="48.87927" lon="2.3033">
        <ele>108.8</ele>
        <time>2015-07-13T19:39:07.838Z</time>
      </trkpt>
      <trkpt lat="48.87922" lon="2.30321">
        <ele>109.3</ele>
        <time>2015-07-13T19:39:09.872Z</time>
      </trkpt>
      <trkpt lat="48.87922" lon="2.30317">
        <ele>109</ele>
        <time>2015-07-13T19:39:10.899Z</time>
      </trkpt>
      <trkpt lat="48.87924" lon="2.30307">
        <ele>108</ele>
        <time>2015-07-13T19:39:12.842Z</time>
      </trkpt>
      <trkpt lat="48.87926" lon="2.30302">
        <ele>107.5</ele>
        <time>2015-07-13T19:39:13.908Z</time>
      </trkpt>
      <trkpt lat="48.87925" lon="2.3029">
        <ele>109.3</ele>
        <time>2015-07-13T19:39:17.909Z</time>
      </trkpt>
      <trkpt lat="48.87925" lon="2.30287">
        <ele>109</ele>
        <time>2015-07-13T19:39:18.843Z</time>
      </trkpt>
      <trkpt lat="48.87917" lon="2.30283">
        <ele>106.3</ele>
        <time>2015-07-13T19:39:22.870Z</time>
      </trkpt>
      <trkpt lat="48.87915" lon="2.30278">
        <ele>105.3</ele>
        <time>2015-07-13T19:39:23.910Z</time>
      </trkpt>
      <trkpt lat="48.87913" lon="2.30268">
        <ele>104.3</ele>
        <time>2015-07-13T19:39:25.860Z</time>
      </trkpt>
      <trkpt lat="48.87912" lon="2.30264">
        <ele>103.7</ele>
        <time>2015-07-13T19:39:26.876Z</time>
      </trkpt>
      <trkpt lat="48.87908" lon="2.30252">
        <ele>102.9</ele>
        <time>2015-07-13T19:39:28.813Z</time>
      </trkpt>
      <trkpt lat="48.87906" lon="2.30247">
        <ele>102.9</ele>
        <time>2015-07-13T19:39:29.941Z</time>
      </trkpt>
      <trkpt lat="48.87902" lon="2.30236">
        <ele>103.3</ele>
        <time>2015-07-13T19:39:31.826Z</time>
      </trkpt>
      <trkpt lat="48.879" lon="2.3023">
        <ele>103.9</ele>
        <time>2015-07-13T19:39:32.844Z</time>
      </trkpt>
      <trkpt lat="48.87898" lon="2.30223">
        <ele>104.2</ele>
        <time>2015-07-13T19:39:33.862Z</time>
      </trkpt>
      <trkpt lat="48.87896" lon="2.30216">
        <ele>104.6</ele>
        <time>2015-07-13T19:39:34.864Z</time>
      </trkpt>
      <trkpt lat="48.87894" lon="2.30209">
        <ele>104.9</ele>
        <time>2015-07-13T19:39:35.884Z</time>
      </trkpt>
      <trkpt lat="48.87893" lon="2.30202">
        <ele>105.2</ele>
        <time>2015-07-13T19:39:36.828Z</time>
      </trkpt>
      <trkpt lat="48.87892" lon="2.30194">
        <ele>105.6</ele>
        <time>2015-07-13T19:39:37.813Z</time>
      </trkpt>
      <trkpt lat="48.87891" lon="2.30186">
        <ele>106.1</ele>
        <time>2015-07-13T19:39:38.818Z</time>
      </trkpt>
      <trkpt lat="48.8789" lon="2.30178">
        <ele>106.5</ele>
        <time>2015-07-13T19:39:39.829Z</time>
      </trkpt>
      <trkpt lat="48.87889" lon="2.30171">
        <ele>107</ele>
        <time>2015-07-13T19:39:40.840Z</time>
      </trkpt>
      <trkpt lat="48.87886" lon="2.30164">
        <ele>107.1</ele>
        <time>2015-07-13T19:39:41.858Z</time>
      </trkpt>
      <trkpt lat="48.87884" lon="2.30157">
        <ele>107.3</ele>
        <time>2015-07-13T19:39:42.859Z</time>
      </trkpt>
      <trkpt lat="48.87882" lon="2.30149">
        <ele>107.3</ele>
        <time>2015-07-13T19:39:43.886Z</time>
      </trkpt>
      <trkpt lat="48.8788" lon="2.30141">
        <ele>107.1</ele>
        <time>2015-07-13T19:39:44.867Z</time>
      </trkpt>
      <trkpt lat="48.87878" lon="2.30135">
        <ele>106.9</ele>
        <time>2015-07-13T19:39:45.831Z</time>
      </trkpt>
      <trkpt lat="48.87876" lon="2.30127">
        <ele>107.1</ele>
        <time>2015-07-13T19:39:46.844Z</time>
      </trkpt>
      <trkpt lat="48.87874" lon="2.3012">
        <ele>107.4</ele>
        <time>2015-07-13T19:39:47.881Z</time>
      </trkpt>
      <trkpt lat="48.87872" lon="2.30112">
        <ele>107.3</ele>
        <time>2015-07-13T19:39:48.797Z</time>
      </trkpt>
      <trkpt lat="48.8787" lon="2.30103">
        <ele>107.2</ele>
        <time>2015-07-13T19:39:49.801Z</time>
      </trkpt>
      <trkpt lat="48.87868" lon="2.30095">
        <ele>107.1</ele>
        <time>2015-07-13T19:39:50.815Z</time>
      </trkpt>
      <trkpt lat="48.87866" lon="2.30086">
        <ele>107.2</ele>
        <time>2015-07-13T19:39:51.828Z</time>
      </trkpt>
      <trkpt lat="48.87864" lon="2.30077">
        <ele>107.3</ele>
        <time>2015-07-13T19:39:52.839Z</time>
      </trkpt>
      <trkpt lat="48.87863" lon="2.30069">
        <ele>107.6</ele>
        <time>2015-07-13T19:39:53.866Z</time>
      </trkpt>
      <trkpt lat="48.87859" lon="2.30058">
        <ele>109.5</ele>
        <time>2015-07-13T19:39:54.792Z</time>
      </trkpt>
      <trkpt lat="48.87858" lon="2.30049">
        <ele>109.9</ele>
        <time>2015-07-13T19:39:55.838Z</time>
      </trkpt>
      <trkpt lat="48.87856" lon="2.30041">
        <ele>110.2</ele>
        <time>2015-07-13T19:39:56.849Z</time>
      </trkpt>
      <trkpt lat="48.87854" lon="2.30032">
        <ele>110.2</ele>
        <time>2015-07-13T19:39:57.865Z</time>
      </trkpt>
      <trkpt lat="48.87852" lon="2.30024">
        <ele>110.3</ele>
        <time>2015-07-13T19:39:58.815Z</time>
      </trkpt>
      <trkpt lat="48.8785" lon="2.30015">
        <ele>110.3</ele>
        <time>2015-07-13T19:39:59.926Z</time>
      </trkpt>
      <trkpt lat="48.87847" lon="2.30006">
        <ele>110.1</ele>
        <time>2015-07-13T19:40:00.809Z</time>
      </trkpt>
      <trkpt lat="48.87846" lon="2.29997">
        <ele>109.9</ele>
        <time>2015-07-13T19:40:01.845Z</time>
      </trkpt>
      <trkpt lat="48.87843" lon="2.29989">
        <ele>109.7</ele>
        <time>2015-07-13T19:40:02.853Z</time>
      </trkpt>
      <trkpt lat="48.87841" lon="2.2998">
        <ele>109.6</ele>
        <time>2015-07-13T19:40:03.832Z</time>
      </trkpt>
      <trkpt lat="48.8784" lon="2.29971">
        <ele>109.4</ele>
        <time>2015-07-13T19:40:04.811Z</time>
      </trkpt>
      <trkpt lat="48.87838" lon="2.29962">
        <ele>109.1</ele>
        <time>2015-07-13T19:40:05.837Z</time>
      </trkpt>
      <trkpt lat="48.87837" lon="2.29953">
        <ele>109.1</ele>
        <time>2015-07-13T19:40:06.879Z</time>
      </trkpt>
      <trkpt lat="48.87835" lon="2.29944">
        <ele>109.1</ele>
        <time>2015-07-13T19:40:07.847Z</time>
      </trkpt>
      <trkpt lat="48.87833" lon="2.29935">
        <ele>109.3</ele>
        <time>2015-07-13T19:40:08.860Z</time>
      </trkpt>
      <trkpt lat="48.87832" lon="2.29926">
        <ele>109.4</ele>
        <time>2015-07-13T19:40:09.797Z</time>
      </trkpt>
      <trkpt lat="48.8783" lon="2.29917">
        <ele>109.6</ele>
        <time>2015-07-13T19:40:10.907Z</time>
      </trkpt>
      <trkpt lat="48.87828" lon="2.29909">
        <ele>109.5</ele>
        <time>2015-07-13T19:40:11.924Z</time>
      </trkpt>
      <trkpt lat="48.87826" lon="2.299">
        <ele>109.4</ele>
        <time>2015-07-13T19:40:12.804Z</time>
      </trkpt>
      <trkpt lat="48.87824" lon="2.29892">
        <ele>109.3</ele>
        <time>2015-07-13T19:40:13.804Z</time>
      </trkpt>
      <trkpt lat="48.87824" lon="2.29884">
        <ele>108.7</ele>
        <time>2015-07-13T19:40:14.832Z</time>
      </trkpt>
      <trkpt lat="48.87824" lon="2.29876">
        <ele>107.6</ele>
        <time>2015-07-13T19:40:15.829Z</time>
      </trkpt>
      <trkpt lat="48.87824" lon="2.29868">
        <ele>107.2</ele>
        <time>2015-07-13T19:40:16.835Z</time>
      </trkpt>
      <trkpt lat="48.87825" lon="2.29861">
        <ele>106.9</ele>
        <time>2015-07-13T19:40:17.854Z</time>
      </trkpt>
      <trkpt lat="48.87827" lon="2.29854">
        <ele>106.5</ele>
        <time>2015-07-13T19:40:18.860Z</time>
      </trkpt>
      <trkpt lat="48.87829" lon="2.29848">
        <ele>106.7</ele>
        <time>2015-07-13T19:40:19.866Z</time>
      </trkpt>
      <trkpt lat="48.87832" lon="2.29843">
        <ele>106.5</ele>
        <time>2015-07-13T19:40:20.874Z</time>
      </trkpt>
      <trkpt lat="48.87836" lon="2.29832">
        <ele>106.6</ele>
        <time>2015-07-13T19:40:22.898Z</time>
      </trkpt>
      <trkpt lat="48.87837" lon="2.29827">
        <ele>106.8</ele>
        <time>2015-07-13T19:40:23.917Z</time>
      </trkpt>
      <trkpt lat="48.87839" lon="2.29816">
        <ele>107.1</ele>
        <time>2015-07-13T19:40:25.809Z</time>
      </trkpt>
      <trkpt lat="48.8784" lon="2.2981">
        <ele>107</ele>
        <time>2015-07-13T19:40:26.887Z</time>
      </trkpt>
      <trkpt lat="48.87838" lon="2.29799">
        <ele>107.1</ele>
        <time>2015-07-13T19:40:28.827Z</time>
      </trkpt>
      <trkpt lat="48.87838" lon="2.29795">
        <ele>107.1</ele>
        <time>2015-07-13T19:40:29.922Z</time>
      </trkpt>
      <trkpt lat="48.87834" lon="2.29784">
        <ele>107.1</ele>
        <time>2015-07-13T19:40:32.841Z</time>
      </trkpt>
      <trkpt lat="48.87833" lon="2.29781">
        <ele>107.5</ele>
        <time>2015-07-13T19:40:33.870Z</time>
      </trkpt>
      <trkpt lat="48.87826" lon="2.29773">
        <ele>107.2</ele>
        <time>2015-07-13T19:40:36.854Z</time>
      </trkpt>
      <trkpt lat="48.87825" lon="2.29773">
        <ele>106.7</ele>
        <time>2015-07-13T19:40:37.772Z</time>
      </trkpt>
      <trkpt lat="48.87816" lon="2.29768">
        <ele>104.8</ele>
        <time>2015-07-13T19:40:41.814Z</time>
      </trkpt>
      <trkpt lat="48.87814" lon="2.29767">
        <ele>104.4</ele>
        <time>2015-07-13T19:40:42.842Z</time>
      </trkpt>
      <trkpt lat="48.87808" lon="2.29763">
        <ele>103.9</ele>
        <time>2015-07-13T19:40:45.083Z</time>
      </trkpt>
      <trkpt lat="48.87806" lon="2.29761">
        <ele>103.5</ele>
        <time>2015-07-13T19:40:45.848Z</time>
      </trkpt>
      <trkpt lat="48.87798" lon="2.29754">
        <ele>101.6</ele>
        <time>2015-07-13T19:40:49.820Z</time>
      </trkpt>
      <trkpt lat="48.87797" lon="2.29751">
        <ele>101.4</ele>
        <time>2015-07-13T19:40:50.828Z</time>
      </trkpt>
      <trkpt lat="48.87797" lon="2.29739">
        <ele>101.5</ele>
        <time>2015-07-13T19:40:54.892Z</time>
      </trkpt>
      <trkpt lat="48.87799" lon="2.29737">
        <ele>101.7</ele>
        <time>2015-07-13T19:40:55.874Z</time>
      </trkpt>
      <trkpt lat="48.87803" lon="2.29737">
        <ele>101</ele>
        <time>2015-07-13T19:41:31.766Z</time>
      </trkpt>
      <trkpt lat="48.87812" lon="2.29741">
        <ele>93.8</ele>
        <time>2015-07-13T19:41:32.781Z</time>
      </trkpt>
      <trkpt lat="48.8781" lon="2.2973">
        <ele>93.1</ele>
        <time>2015-07-13T19:41:35.861Z</time>
      </trkpt>
      <trkpt lat="48.8781" lon="2.29725">
        <ele>93</ele>
        <time>2015-07-13T19:41:36.860Z</time>
      </trkpt>
      <trkpt lat="48.87812" lon="2.29713">
        <ele>91.8</ele>
        <time>2015-07-13T19:41:38.952Z</time>
      </trkpt>
      <trkpt lat="48.87812" lon="2.29705">
        <ele>91.2</ele>
        <time>2015-07-13T19:41:39.870Z</time>
      </trkpt>
      <trkpt lat="48.87814" lon="2.29699">
        <ele>91.3</ele>
        <time>2015-07-13T19:41:40.897Z</time>
      </trkpt>
      <trkpt lat="48.87814" lon="2.29691">
        <ele>91.7</ele>
        <time>2015-07-13T19:41:41.867Z</time>
      </trkpt>
      <trkpt lat="48.87815" lon="2.29685">
        <ele>91.7</ele>
        <time>2015-07-13T19:41:42.892Z</time>
      </trkpt>
      <trkpt lat="48.87816" lon="2.29677">
        <ele>92.2</ele>
        <time>2015-07-13T19:41:43.792Z</time>
      </trkpt>
      <trkpt lat="48.87817" lon="2.29664">
        <ele>92.6</ele>
        <time>2015-07-13T19:41:44.150Z</time>
      </trkpt>
      <trkpt lat="48.87818" lon="2.29656">
        <ele>93</ele>
        <time>2015-07-13T19:41:46.810Z</time>
      </trkpt>
      <trkpt lat="48.8782" lon="2.29649">
        <ele>93.2</ele>
        <time>2015-07-13T19:41:47.826Z</time>
      </trkpt>
      <trkpt lat="48.87821" lon="2.29641">
        <ele>93.1</ele>
        <time>2015-07-13T19:41:48.844Z</time>
      </trkpt>
      <trkpt lat="48.87822" lon="2.29634">
        <ele>93</ele>
        <time>2015-07-13T19:41:49.864Z</time>
      </trkpt>
      <trkpt lat="48.87823" lon="2.29625">
        <ele>93.3</ele>
        <time>2015-07-13T19:41:50.789Z</time>
      </trkpt>
      <trkpt lat="48.87823" lon="2.29616">
        <ele>93.6</ele>
        <time>2015-07-13T19:41:51.881Z</time>
      </trkpt>
      <trkpt lat="48.87824" lon="2.29607">
        <ele>93.8</ele>
        <time>2015-07-13T19:41:52.804Z</time>
      </trkpt>
      <trkpt lat="48.87825" lon="2.296">
        <ele>94</ele>
        <time>2015-07-13T19:41:54.244Z</time>
      </trkpt>
      <trkpt lat="48.87826" lon="2.29593">
        <ele>94.5</ele>
        <time>2015-07-13T19:41:54.811Z</time>
      </trkpt>
      <trkpt lat="48.87828" lon="2.29581">
        <ele>95.1</ele>
        <time>2015-07-13T19:41:56.812Z</time>
      </trkpt>
      <trkpt lat="48.87828" lon="2.29573">
        <ele>94.8</ele>
        <time>2015-07-13T19:41:57.859Z</time>
      </trkpt>
      <trkpt lat="48.87829" lon="2.29565">
        <ele>95</ele>
        <time>2015-07-13T19:41:58.812Z</time>
      </trkpt>
      <trkpt lat="48.8783" lon="2.29557">
        <ele>95.3</ele>
        <time>2015-07-13T19:41:59.888Z</time>
      </trkpt>
      <trkpt lat="48.87832" lon="2.29548">
        <ele>95.5</ele>
        <time>2015-07-13T19:42:00.797Z</time>
      </trkpt>
      <trkpt lat="48.87834" lon="2.29539">
        <ele>95.6</ele>
        <time>2015-07-13T19:42:01.800Z</time>
      </trkpt>
      <trkpt lat="48.87838" lon="2.29531">
        <ele>95.7</ele>
        <time>2015-07-13T19:42:02.803Z</time>
      </trkpt>
      <trkpt lat="48.87841" lon="2.29521">
        <ele>95.7</ele>
        <time>2015-07-13T19:42:03.825Z</time>
      </trkpt>
      <trkpt lat="48.87843" lon="2.29511">
        <ele>95.5</ele>
        <time>2015-07-13T19:42:04.838Z</time>
      </trkpt>
      <trkpt lat="48.87845" lon="2.29501">
        <ele>95.4</ele>
        <time>2015-07-13T19:42:05.862Z</time>
      </trkpt>
      <trkpt lat="48.87847" lon="2.29491">
        <ele>95.1</ele>
        <time>2015-07-13T19:42:06.865Z</time>
      </trkpt>
      <trkpt lat="48.8785" lon="2.29482">
        <ele>95.1</ele>
        <time>2015-07-13T19:42:07.798Z</time>
      </trkpt>
      <trkpt lat="48.87851" lon="2.29472">
        <ele>95.5</ele>
        <time>2015-07-13T19:42:08.795Z</time>
      </trkpt>
      <trkpt lat="48.87852" lon="2.29461">
        <ele>96</ele>
        <time>2015-07-13T19:42:09.801Z</time>
      </trkpt>
      <trkpt lat="48.87853" lon="2.29452">
        <ele>96.4</ele>
        <time>2015-07-13T19:42:10.838Z</time>
      </trkpt>
      <trkpt lat="48.87856" lon="2.29443">
        <ele>96.9</ele>
        <time>2015-07-13T19:42:11.841Z</time>
      </trkpt>
      <trkpt lat="48.87858" lon="2.29435">
        <ele>97.7</ele>
        <time>2015-07-13T19:42:12.861Z</time>
      </trkpt>
      <trkpt lat="48.8786" lon="2.29428">
        <ele>98.2</ele>
        <time>2015-07-13T19:42:13.872Z</time>
      </trkpt>
      <trkpt lat="48.87863" lon="2.29419">
        <ele>98.8</ele>
        <time>2015-07-13T19:42:14.775Z</time>
      </trkpt>
      <trkpt lat="48.87865" lon="2.29408">
        <ele>99.2</ele>
        <time>2015-07-13T19:42:15.802Z</time>
      </trkpt>
      <trkpt lat="48.87867" lon="2.29398">
        <ele>99.5</ele>
        <time>2015-07-13T19:42:16.827Z</time>
      </trkpt>
      <trkpt lat="48.8787" lon="2.29389">
        <ele>100</ele>
        <time>2015-07-13T19:42:17.844Z</time>
      </trkpt>
      <trkpt lat="48.87871" lon="2.29379">
        <ele>100.1</ele>
        <time>2015-07-13T19:42:18.870Z</time>
      </trkpt>
      <trkpt lat="48.87872" lon="2.29369">
        <ele>99.9</ele>
        <time>2015-07-13T19:42:19.873Z</time>
      </trkpt>
      <trkpt lat="48.87874" lon="2.2936">
        <ele>100.2</ele>
        <time>2015-07-13T19:42:20.815Z</time>
      </trkpt>
      <trkpt lat="48.87877" lon="2.29351">
        <ele>100.3</ele>
        <time>2015-07-13T19:42:21.803Z</time>
      </trkpt>
      <trkpt lat="48.8788" lon="2.29344">
        <ele>100.4</ele>
        <time>2015-07-13T19:42:22.812Z</time>
      </trkpt>
      <trkpt lat="48.87883" lon="2.29336">
        <ele>100.6</ele>
        <time>2015-07-13T19:42:23.860Z</time>
      </trkpt>
      <trkpt lat="48.87886" lon="2.29326">
        <ele>100.3</ele>
        <time>2015-07-13T19:42:24.866Z</time>
      </trkpt>
      <trkpt lat="48.87889" lon="2.29316">
        <ele>99.9</ele>
        <time>2015-07-13T19:42:25.876Z</time>
      </trkpt>
      <trkpt lat="48.87891" lon="2.29305">
        <ele>100.1</ele>
        <time>2015-07-13T19:42:26.800Z</time>
      </trkpt>
      <trkpt lat="48.87893" lon="2.29294">
        <ele>100.2</ele>
        <time>2015-07-13T19:42:27.836Z</time>
      </trkpt>
      <trkpt lat="48.87894" lon="2.2928">
        <ele>100</ele>
        <time>2015-07-13T19:42:28.847Z</time>
      </trkpt>
      <trkpt lat="48.87895" lon="2.29268">
        <ele>100.2</ele>
        <time>2015-07-13T19:42:29.933Z</time>
      </trkpt>
      <trkpt lat="48.87897" lon="2.29256">
        <ele>99.7</ele>
        <time>2015-07-13T19:42:30.893Z</time>
      </trkpt>
      <trkpt lat="48.87898" lon="2.29242">
        <ele>99.1</ele>
        <time>2015-07-13T19:42:31.873Z</time>
      </trkpt>
      <trkpt lat="48.879" lon="2.29229">
        <ele>99</ele>
        <time>2015-07-13T19:42:32.886Z</time>
      </trkpt>
      <trkpt lat="48.87903" lon="2.29217">
        <ele>99.2</ele>
        <time>2015-07-13T19:42:33.775Z</time>
      </trkpt>
      <trkpt lat="48.87905" lon="2.29205">
        <ele>98.8</ele>
        <time>2015-07-13T19:42:34.800Z</time>
      </trkpt>
      <trkpt lat="48.87907" lon="2.29196">
        <ele>98.6</ele>
        <time>2015-07-13T19:42:35.836Z</time>
      </trkpt>
      <trkpt lat="48.87911" lon="2.29187">
        <ele>98.7</ele>
        <time>2015-07-13T19:42:36.845Z</time>
      </trkpt>
      <trkpt lat="48.87915" lon="2.29178">
        <ele>98.7</ele>
        <time>2015-07-13T19:42:37.866Z</time>
      </trkpt>
      <trkpt lat="48.87918" lon="2.29169">
        <ele>98.2</ele>
        <time>2015-07-13T19:42:38.874Z</time>
      </trkpt>
      <trkpt lat="48.87922" lon="2.2916">
        <ele>97.8</ele>
        <time>2015-07-13T19:42:39.771Z</time>
      </trkpt>
      <trkpt lat="48.87926" lon="2.29152">
        <ele>97.7</ele>
        <time>2015-07-13T19:42:40.804Z</time>
      </trkpt>
      <trkpt lat="48.87929" lon="2.2914">
        <ele>98</ele>
        <time>2015-07-13T19:42:41.850Z</time>
      </trkpt>
      <trkpt lat="48.87931" lon="2.29129">
        <ele>97.8</ele>
        <time>2015-07-13T19:42:42.860Z</time>
      </trkpt>
      <trkpt lat="48.87934" lon="2.29118">
        <ele>97.7</ele>
        <time>2015-07-13T19:42:43.856Z</time>
      </trkpt>
      <trkpt lat="48.87936" lon="2.29106">
        <ele>98.2</ele>
        <time>2015-07-13T19:42:44.879Z</time>
      </trkpt>
      <trkpt lat="48.87938" lon="2.29092">
        <ele>99.1</ele>
        <time>2015-07-13T19:42:45.881Z</time>
      </trkpt>
      <trkpt lat="48.87938" lon="2.29079">
        <ele>99.8</ele>
        <time>2015-07-13T19:42:46.832Z</time>
      </trkpt>
      <trkpt lat="48.87939" lon="2.29065">
        <ele>100.7</ele>
        <time>2015-07-13T19:42:47.928Z</time>
      </trkpt>
      <trkpt lat="48.8794" lon="2.29051">
        <ele>101.3</ele>
        <time>2015-07-13T19:42:48.823Z</time>
      </trkpt>
      <trkpt lat="48.87942" lon="2.2904">
        <ele>101.4</ele>
        <time>2015-07-13T19:42:49.831Z</time>
      </trkpt>
      <trkpt lat="48.87944" lon="2.2903">
        <ele>101.1</ele>
        <time>2015-07-13T19:42:50.858Z</time>
      </trkpt>
      <trkpt lat="48.87947" lon="2.29021">
        <ele>100.9</ele>
        <time>2015-07-13T19:42:51.863Z</time>
      </trkpt>
      <trkpt lat="48.87948" lon="2.29011">
        <ele>100.7</ele>
        <time>2015-07-13T19:42:52.865Z</time>
      </trkpt>
      <trkpt lat="48.87949" lon="2.29002">
        <ele>100.8</ele>
        <time>2015-07-13T19:42:53.873Z</time>
      </trkpt>
      <trkpt lat="48.87952" lon="2.28989">
        <ele>100.4</ele>
        <time>2015-07-13T19:42:55.828Z</time>
      </trkpt>
      <trkpt lat="48.87955" lon="2.28985">
        <ele>100.6</ele>
        <time>2015-07-13T19:42:56.876Z</time>
      </trkpt>
      <trkpt lat="48.87957" lon="2.28995">
        <ele>100.4</ele>
        <time>2015-07-13T19:43:04.835Z</time>
      </trkpt>
      <trkpt lat="48.87957" lon="2.28999">
        <ele>100.7</ele>
        <time>2015-07-13T19:43:05.896Z</time>
      </trkpt>
      <trkpt lat="48.87954" lon="2.2901">
        <ele>101.4</ele>
        <time>2015-07-13T19:43:08.825Z</time>
      </trkpt>
      <trkpt lat="48.87953" lon="2.29015">
        <ele>101.3</ele>
        <time>2015-07-13T19:43:09.836Z</time>
      </trkpt>
      <trkpt lat="48.87948" lon="2.29024">
        <ele>101.7</ele>
        <time>2015-07-13T19:43:12.855Z</time>
      </trkpt>
      <trkpt lat="48.87947" lon="2.29027">
        <ele>101.9</ele>
        <time>2015-07-13T19:43:13.797Z</time>
      </trkpt>
      <trkpt lat="48.87943" lon="2.29036">
        <ele>102.5</ele>
        <time>2015-07-13T19:43:16.824Z</time>
      </trkpt>
      <trkpt lat="48.87945" lon="2.29044">
        <ele>101.3</ele>
        <time>2015-07-13T19:43:17.899Z</time>
      </trkpt>
      <trkpt lat="48.87947" lon="2.29052">
        <ele>100.1</ele>
        <time>2015-07-13T19:43:18.870Z</time>
      </trkpt>
      <trkpt lat="48.87948" lon="2.29058">
        <ele>99.2</ele>
        <time>2015-07-13T19:43:19.879Z</time>
      </trkpt>
      <trkpt lat="48.87949" lon="2.29068">
        <ele>97.9</ele>
        <time>2015-07-13T19:43:21.779Z</time>
      </trkpt>
      <trkpt lat="48.87949" lon="2.29072">
        <ele>97.4</ele>
        <time>2015-07-13T19:43:22.844Z</time>
      </trkpt>
      <trkpt lat="48.87953" lon="2.29064">
        <ele>99.2</ele>
        <time>2015-07-13T19:47:54.854Z</time>
      </trkpt>
      <trkpt lat="48.87953" lon="2.29058">
        <ele>99.2</ele>
        <time>2015-07-13T19:47:55.868Z</time>
      </trkpt>
      <trkpt lat="48.87953" lon="2.29047">
        <ele>99.3</ele>
        <time>2015-07-13T19:47:57.781Z</time>
      </trkpt>
      <trkpt lat="48.87953" lon="2.2904">
        <ele>99.3</ele>
        <time>2015-07-13T19:47:58.800Z</time>
      </trkpt>
      <trkpt lat="48.87954" lon="2.29026">
        <ele>99.3</ele>
        <time>2015-07-13T19:48:00.793Z</time>
      </trkpt>
      <trkpt lat="48.87954" lon="2.2902">
        <ele>99.4</ele>
        <time>2015-07-13T19:48:01.798Z</time>
      </trkpt>
      <trkpt lat="48.87955" lon="2.29013">
        <ele>99.6</ele>
        <time>2015-07-13T19:48:02.842Z</time>
      </trkpt>
      <trkpt lat="48.87956" lon="2.29005">
        <ele>99.8</ele>
        <time>2015-07-13T19:48:03.864Z</time>
      </trkpt>
      <trkpt lat="48.87956" lon="2.28998">
        <ele>100</ele>
        <time>2015-07-13T19:48:04.762Z</time>
      </trkpt>
      <trkpt lat="48.87957" lon="2.28991">
        <ele>100.2</ele>
        <time>2015-07-13T19:48:05.805Z</time>
      </trkpt>
      <trkpt lat="48.87959" lon="2.28984">
        <ele>100.5</ele>
        <time>2015-07-13T19:48:06.849Z</time>
      </trkpt>
      <trkpt lat="48.87961" lon="2.28977">
        <ele>100.9</ele>
        <time>2015-07-13T19:48:07.864Z</time>
      </trkpt>
      <trkpt lat="48.87963" lon="2.2897">
        <ele>101.3</ele>
        <time>2015-07-13T19:48:08.871Z</time>
      </trkpt>
      <trkpt lat="48.87965" lon="2.28963">
        <ele>101.5</ele>
        <time>2015-07-13T19:48:09.903Z</time>
      </trkpt>
      <trkpt lat="48.87967" lon="2.28956">
        <ele>102</ele>
        <time>2015-07-13T19:48:10.781Z</time>
      </trkpt>
      <trkpt lat="48.87968" lon="2.2895">
        <ele>102</ele>
        <time>2015-07-13T19:48:11.855Z</time>
      </trkpt>
      <trkpt lat="48.87971" lon="2.28939">
        <ele>102.1</ele>
        <time>2015-07-13T19:48:13.797Z</time>
      </trkpt>
      <trkpt lat="48.87973" lon="2.28933">
        <ele>102</ele>
        <time>2015-07-13T19:48:14.798Z</time>
      </trkpt>
      <trkpt lat="48.87976" lon="2.28922">
        <ele>102.3</ele>
        <time>2015-07-13T19:48:16.896Z</time>
      </trkpt>
      <trkpt lat="48.87977" lon="2.28915">
        <ele>102.1</ele>
        <time>2015-07-13T19:48:17.875Z</time>
      </trkpt>
      <trkpt lat="48.8798" lon="2.28903">
        <ele>101.8</ele>
        <time>2015-07-13T19:48:19.800Z</time>
      </trkpt>
      <trkpt lat="48.87982" lon="2.28898">
        <ele>101.6</ele>
        <time>2015-07-13T19:48:20.808Z</time>
      </trkpt>
      <trkpt lat="48.87985" lon="2.28886">
        <ele>101.5</ele>
        <time>2015-07-13T19:48:22.835Z</time>
      </trkpt>
      <trkpt lat="48.87987" lon="2.28881">
        <ele>101.5</ele>
        <time>2015-07-13T19:48:23.846Z</time>
      </trkpt>
      <trkpt lat="48.87989" lon="2.2887">
        <ele>102</ele>
        <time>2015-07-13T19:48:25.902Z</time>
      </trkpt>
      <trkpt lat="48.8799" lon="2.28864">
        <ele>102.1</ele>
        <time>2015-07-13T19:48:26.797Z</time>
      </trkpt>
      <trkpt lat="48.87993" lon="2.28853">
        <ele>102.9</ele>
        <time>2015-07-13T19:48:28.814Z</time>
      </trkpt>
      <trkpt lat="48.87995" lon="2.28848">
        <ele>103.4</ele>
        <time>2015-07-13T19:48:29.913Z</time>
      </trkpt>
      <trkpt lat="48.87997" lon="2.28838">
        <ele>103.5</ele>
        <time>2015-07-13T19:48:31.827Z</time>
      </trkpt>
      <trkpt lat="48.87998" lon="2.28834">
        <ele>103.6</ele>
        <time>2015-07-13T19:48:32.842Z</time>
      </trkpt>
      <trkpt lat="48.88002" lon="2.28822">
        <ele>104.1</ele>
        <time>2015-07-13T19:48:35.890Z</time>
      </trkpt>
      <trkpt lat="48.88002" lon="2.28817">
        <ele>104.1</ele>
        <time>2015-07-13T19:48:36.815Z</time>
      </trkpt>
      <trkpt lat="48.88" lon="2.28804">
        <ele>104.9</ele>
        <time>2015-07-13T19:48:39.851Z</time>
      </trkpt>
      <trkpt lat="48.88" lon="2.288">
        <ele>104.8</ele>
        <time>2015-07-13T19:48:40.887Z</time>
      </trkpt>
      <trkpt lat="48.87999" lon="2.28789">
        <ele>103.8</ele>
        <time>2015-07-13T19:48:43.841Z</time>
      </trkpt>
      <trkpt lat="48.87999" lon="2.28784">
        <ele>103.5</ele>
        <time>2015-07-13T19:48:44.854Z</time>
      </trkpt>
      <trkpt lat="48.87999" lon="2.28771">
        <ele>103.4</ele>
        <time>2015-07-13T19:48:47.851Z</time>
      </trkpt>
      <trkpt lat="48.87997" lon="2.28765">
        <ele>103.2</ele>
        <time>2015-07-13T19:48:48.839Z</time>
      </trkpt>
      <trkpt lat="48.87993" lon="2.28757">
        <ele>101.9</ele>
        <time>2015-07-13T19:48:50.809Z</time>
      </trkpt>
      <trkpt lat="48.8799" lon="2.28753">
        <ele>101.2</ele>
        <time>2015-07-13T19:48:51.807Z</time>
      </trkpt>
      <trkpt lat="48.87985" lon="2.28745">
        <ele>99.7</ele>
        <time>2015-07-13T19:48:53.851Z</time>
      </trkpt>
      <trkpt lat="48.87982" lon="2.2874">
        <ele>98.7</ele>
        <time>2015-07-13T19:48:54.806Z</time>
      </trkpt>
      <trkpt lat="48.8798" lon="2.28735">
        <ele>97.6</ele>
        <time>2015-07-13T19:48:55.804Z</time>
      </trkpt>
      <trkpt lat="48.87977" lon="2.28728">
        <ele>97.4</ele>
        <time>2015-07-13T19:48:56.810Z</time>
      </trkpt>
      <trkpt lat="48.87973" lon="2.28721">
        <ele>97.1</ele>
        <time>2015-07-13T19:48:57.855Z</time>
      </trkpt>
      <trkpt lat="48.8797" lon="2.28713">
        <ele>96.6</ele>
        <time>2015-07-13T19:48:58.867Z</time>
      </trkpt>
      <trkpt lat="48.87966" lon="2.28706">
        <ele>96.4</ele>
        <time>2015-07-13T19:48:59.896Z</time>
      </trkpt>
      <trkpt lat="48.87962" lon="2.28699">
        <ele>96</ele>
        <time>2015-07-13T19:49:00.801Z</time>
      </trkpt>
      <trkpt lat="48.87958" lon="2.28692">
        <ele>95.7</ele>
        <time>2015-07-13T19:49:01.810Z</time>
      </trkpt>
      <trkpt lat="48.87953" lon="2.28684">
        <ele>95.6</ele>
        <time>2015-07-13T19:49:02.838Z</time>
      </trkpt>
      <trkpt lat="48.8795" lon="2.28677">
        <ele>95.5</ele>
        <time>2015-07-13T19:49:03.852Z</time>
      </trkpt>
      <trkpt lat="48.87946" lon="2.28671">
        <ele>95.4</ele>
        <time>2015-07-13T19:49:04.871Z</time>
      </trkpt>
      <trkpt lat="48.87943" lon="2.28664">
        <ele>95</ele>
        <time>2015-07-13T19:49:05.883Z</time>
      </trkpt>
      <trkpt lat="48.87939" lon="2.28656">
        <ele>95.1</ele>
        <time>2015-07-13T19:49:06.802Z</time>
      </trkpt>
      <trkpt lat="48.87936" lon="2.2865">
        <ele>94.8</ele>
        <time>2015-07-13T19:49:07.799Z</time>
      </trkpt>
      <trkpt lat="48.87932" lon="2.28642">
        <ele>95.3</ele>
        <time>2015-07-13T19:49:08.805Z</time>
      </trkpt>
      <trkpt lat="48.87927" lon="2.28633">
        <ele>95.3</ele>
        <time>2015-07-13T19:49:09.828Z</time>
      </trkpt>
      <trkpt lat="48.87923" lon="2.28625">
        <ele>95.1</ele>
        <time>2015-07-13T19:49:10.838Z</time>
      </trkpt>
      <trkpt lat="48.87919" lon="2.28617">
        <ele>95.4</ele>
        <time>2015-07-13T19:49:11.936Z</time>
      </trkpt>
      <trkpt lat="48.87914" lon="2.28608">
        <ele>95.3</ele>
        <time>2015-07-13T19:49:12.865Z</time>
      </trkpt>
      <trkpt lat="48.87909" lon="2.28599">
        <ele>95.6</ele>
        <time>2015-07-13T19:49:13.769Z</time>
      </trkpt>
      <trkpt lat="48.87904" lon="2.28591">
        <ele>95.7</ele>
        <time>2015-07-13T19:49:14.800Z</time>
      </trkpt>
      <trkpt lat="48.879" lon="2.28582">
        <ele>95.5</ele>
        <time>2015-07-13T19:49:15.802Z</time>
      </trkpt>
      <trkpt lat="48.87894" lon="2.28574">
        <ele>95.4</ele>
        <time>2015-07-13T19:49:16.820Z</time>
      </trkpt>
      <trkpt lat="48.87889" lon="2.28566">
        <ele>95.3</ele>
        <time>2015-07-13T19:49:17.847Z</time>
      </trkpt>
      <trkpt lat="48.87884" lon="2.28557">
        <ele>95.6</ele>
        <time>2015-07-13T19:49:18.869Z</time>
      </trkpt>
      <trkpt lat="48.87879" lon="2.28549">
        <ele>95.4</ele>
        <time>2015-07-13T19:49:19.890Z</time>
      </trkpt>
      <trkpt lat="48.87874" lon="2.2854">
        <ele>95.2</ele>
        <time>2015-07-13T19:49:20.805Z</time>
      </trkpt>
      <trkpt lat="48.87869" lon="2.28531">
        <ele>95.3</ele>
        <time>2015-07-13T19:49:21.857Z</time>
      </trkpt>
      <trkpt lat="48.87866" lon="2.28522">
        <ele>95.7</ele>
        <time>2015-07-13T19:49:22.893Z</time>
      </trkpt>
      <trkpt lat="48.87861" lon="2.28515">
        <ele>95.4</ele>
        <time>2015-07-13T19:49:23.946Z</time>
      </trkpt>
      <trkpt lat="48.87857" lon="2.28508">
        <ele>95</ele>
        <time>2015-07-13T19:49:24.801Z</time>
      </trkpt>
      <trkpt lat="48.87852" lon="2.28502">
        <ele>95</ele>
        <time>2015-07-13T19:49:25.801Z</time>
      </trkpt>
      <trkpt lat="48.87847" lon="2.28495">
        <ele>94.6</ele>
        <time>2015-07-13T19:49:26.832Z</time>
      </trkpt>
      <trkpt lat="48.87842" lon="2.28489">
        <ele>94.7</ele>
        <time>2015-07-13T19:49:27.855Z</time>
      </trkpt>
      <trkpt lat="48.87838" lon="2.28483">
        <ele>94.3</ele>
        <time>2015-07-13T19:49:28.864Z</time>
      </trkpt>
      <trkpt lat="48.87834" lon="2.28477">
        <ele>94</ele>
        <time>2015-07-13T19:49:29.912Z</time>
      </trkpt>
      <trkpt lat="48.87831" lon="2.28472">
        <ele>93.6</ele>
        <time>2015-07-13T19:49:30.792Z</time>
      </trkpt>
      <trkpt lat="48.87828" lon="2.28467">
        <ele>93.4</ele>
        <time>2015-07-13T19:49:31.792Z</time>
      </trkpt>
      <trkpt lat="48.87825" lon="2.28462">
        <ele>93.5</ele>
        <time>2015-07-13T19:49:32.791Z</time>
      </trkpt>
      <trkpt lat="48.87821" lon="2.28457">
        <ele>93.9</ele>
        <time>2015-07-13T19:49:33.805Z</time>
      </trkpt>
      <trkpt lat="48.87818" lon="2.28452">
        <ele>94.1</ele>
        <time>2015-07-13T19:49:34.825Z</time>
      </trkpt>
      <trkpt lat="48.87815" lon="2.28441">
        <ele>94.4</ele>
        <time>2015-07-13T19:49:36.794Z</time>
      </trkpt>
      <trkpt lat="48.87815" lon="2.28434">
        <ele>94.1</ele>
        <time>2015-07-13T19:49:37.811Z</time>
      </trkpt>
      <trkpt lat="48.87812" lon="2.28423">
        <ele>94.3</ele>
        <time>2015-07-13T19:49:39.844Z</time>
      </trkpt>
      <trkpt lat="48.87811" lon="2.28418">
        <ele>94.7</ele>
        <time>2015-07-13T19:49:40.857Z</time>
      </trkpt>
      <trkpt lat="48.87808" lon="2.28418">
        <ele>93.2</ele>
        <time>2015-07-13T19:50:02.929Z</time>
      </trkpt>
      <trkpt lat="48.87799" lon="2.28414">
        <ele>95.2</ele>
        <time>2015-07-13T19:50:03.850Z</time>
      </trkpt>
      <trkpt lat="48.87791" lon="2.28409">
        <ele>95.4</ele>
        <time>2015-07-13T19:50:06.844Z</time>
      </trkpt>
      <trkpt lat="48.87787" lon="2.28407">
        <ele>95.8</ele>
        <time>2015-07-13T19:50:07.826Z</time>
      </trkpt>
      <trkpt lat="48.8778" lon="2.284">
        <ele>95.5</ele>
        <time>2015-07-13T19:50:11.903Z</time>
      </trkpt>
      <trkpt lat="48.87778" lon="2.28399">
        <ele>95.4</ele>
        <time>2015-07-13T19:50:12.848Z</time>
      </trkpt>
      <trkpt lat="48.87772" lon="2.28398">
        <ele>95.5</ele>
        <time>2015-07-13T19:50:15.784Z</time>
      </trkpt>
      <trkpt lat="48.87769" lon="2.28398">
        <ele>95.5</ele>
        <time>2015-07-13T19:50:16.806Z</time>
      </trkpt>
      <trkpt lat="48.8776" lon="2.284">
        <ele>96.3</ele>
        <time>2015-07-13T19:50:19.837Z</time>
      </trkpt>
      <trkpt lat="48.87758" lon="2.28402">
        <ele>96.3</ele>
        <time>2015-07-13T19:50:20.842Z</time>
      </trkpt>
      <trkpt lat="48.87752" lon="2.2841">
        <ele>95.7</ele>
        <time>2015-07-13T19:50:24.092Z</time>
      </trkpt>
      <trkpt lat="48.8775" lon="2.28414">
        <ele>95.8</ele>
        <time>2015-07-13T19:50:24.816Z</time>
      </trkpt>
      <trkpt lat="48.87743" lon="2.28421">
        <ele>96.5</ele>
        <time>2015-07-13T19:50:27.897Z</time>
      </trkpt>
      <trkpt lat="48.87741" lon="2.28422">
        <ele>96.5</ele>
        <time>2015-07-13T19:50:28.779Z</time>
      </trkpt>
      <trkpt lat="48.87733" lon="2.28422">
        <ele>96.4</ele>
        <time>2015-07-13T19:50:31.794Z</time>
      </trkpt>
      <trkpt lat="48.87731" lon="2.2842">
        <ele>96.3</ele>
        <time>2015-07-13T19:50:32.806Z</time>
      </trkpt>
      <trkpt lat="48.87724" lon="2.28416">
        <ele>96.2</ele>
        <time>2015-07-13T19:50:35.858Z</time>
      </trkpt>
      <trkpt lat="48.87721" lon="2.28414">
        <ele>96.2</ele>
        <time>2015-07-13T19:50:36.857Z</time>
      </trkpt>
      <trkpt lat="48.87718" lon="2.28407">
        <ele>96.6</ele>
        <time>2015-07-13T19:50:40.828Z</time>
      </trkpt>
      <trkpt lat="48.87717" lon="2.28399">
        <ele>97.8</ele>
        <time>2015-07-13T19:50:41.863Z</time>
      </trkpt>
      <trkpt lat="48.8771" lon="2.28389">
        <ele>98</ele>
        <time>2015-07-13T19:50:49.648Z</time>
      </trkpt>
      <trkpt lat="48.87706" lon="2.28378">
        <ele>97.3</ele>
        <time>2015-07-13T19:50:49.770Z</time>
      </trkpt>
      <trkpt lat="48.87699" lon="2.28368">
        <ele>97.9</ele>
        <time>2015-07-13T19:50:53.862Z</time>
      </trkpt>
      <trkpt lat="48.87698" lon="2.28364">
        <ele>97.7</ele>
        <time>2015-07-13T19:50:54.915Z</time>
      </trkpt>
      <trkpt lat="48.87692" lon="2.28359">
        <ele>97.4</ele>
        <time>2015-07-13T19:50:56.831Z</time>
      </trkpt>
      <trkpt lat="48.8769" lon="2.28355">
        <ele>97.8</ele>
        <time>2015-07-13T19:50:57.858Z</time>
      </trkpt>
      <trkpt lat="48.87683" lon="2.28354">
        <ele>98.7</ele>
        <time>2015-07-13T19:50:59.919Z</time>
      </trkpt>
      <trkpt lat="48.87681" lon="2.28353">
        <ele>98.9</ele>
        <time>2015-07-13T19:51:00.816Z</time>
      </trkpt>
      <trkpt lat="48.87672" lon="2.28351">
        <ele>98.8</ele>
        <time>2015-07-13T19:51:05.047Z</time>
      </trkpt>
      <trkpt lat="48.8767" lon="2.28352">
        <ele>98.9</ele>
        <time>2015-07-13T19:51:05.902Z</time>
      </trkpt>
      <trkpt lat="48.87665" lon="2.28356">
        <ele>99.4</ele>
        <time>2015-07-13T19:51:07.871Z</time>
      </trkpt>
      <trkpt lat="48.87661" lon="2.2836">
        <ele>100.1</ele>
        <time>2015-07-13T19:51:08.792Z</time>
      </trkpt>
      <trkpt lat="48.87655" lon="2.28363">
        <ele>100.8</ele>
        <time>2015-07-13T19:51:10.835Z</time>
      </trkpt>
      <trkpt lat="48.87652" lon="2.28364">
        <ele>101</ele>
        <time>2015-07-13T19:51:11.850Z</time>
      </trkpt>
      <trkpt lat="48.87645" lon="2.2837">
        <ele>102</ele>
        <time>2015-07-13T19:51:14.017Z</time>
      </trkpt>
      <trkpt lat="48.87642" lon="2.28373">
        <ele>102.5</ele>
        <time>2015-07-13T19:51:14.823Z</time>
      </trkpt>
      <trkpt lat="48.87636" lon="2.28378">
        <ele>102.9</ele>
        <time>2015-07-13T19:51:16.820Z</time>
      </trkpt>
      <trkpt lat="48.87632" lon="2.2838">
        <ele>103</ele>
        <time>2015-07-13T19:51:17.841Z</time>
      </trkpt>
      <trkpt lat="48.87624" lon="2.28381">
        <ele>102.9</ele>
        <time>2015-07-13T19:51:19.836Z</time>
      </trkpt>
      <trkpt lat="48.87619" lon="2.28383">
        <ele>102.9</ele>
        <time>2015-07-13T19:51:20.840Z</time>
      </trkpt>
      <trkpt lat="48.87615" lon="2.28384">
        <ele>102.9</ele>
        <time>2015-07-13T19:51:21.853Z</time>
      </trkpt>
      <trkpt lat="48.8761" lon="2.28386">
        <ele>102.7</ele>
        <time>2015-07-13T19:51:22.866Z</time>
      </trkpt>
      <trkpt lat="48.87605" lon="2.28388">
        <ele>102.8</ele>
        <time>2015-07-13T19:51:23.887Z</time>
      </trkpt>
      <trkpt lat="48.876" lon="2.2839">
        <ele>103.2</ele>
        <time>2015-07-13T19:51:24.858Z</time>
      </trkpt>
      <trkpt lat="48.87595" lon="2.28391">
        <ele>103.4</ele>
        <time>2015-07-13T19:51:25.795Z</time>
      </trkpt>
      <trkpt lat="48.8759" lon="2.28395">
        <ele>103.5</ele>
        <time>2015-07-13T19:51:26.804Z</time>
      </trkpt>
      <trkpt lat="48.87585" lon="2.28396">
        <ele>103.4</ele>
        <time>2015-07-13T19:51:27.848Z</time>
      </trkpt>
      <trkpt lat="48.8758" lon="2.28399">
        <ele>103.3</ele>
        <time>2015-07-13T19:51:28.871Z</time>
      </trkpt>
      <trkpt lat="48.87574" lon="2.28401">
        <ele>103.1</ele>
        <time>2015-07-13T19:51:29.878Z</time>
      </trkpt>
      <trkpt lat="48.87568" lon="2.28403">
        <ele>103</ele>
        <time>2015-07-13T19:51:30.777Z</time>
      </trkpt>
      <trkpt lat="48.87563" lon="2.28405">
        <ele>103.1</ele>
        <time>2015-07-13T19:51:31.796Z</time>
      </trkpt>
      <trkpt lat="48.87557" lon="2.28407">
        <ele>103</ele>
        <time>2015-07-13T19:51:32.810Z</time>
      </trkpt>
      <trkpt lat="48.87551" lon="2.28408">
        <ele>103</ele>
        <time>2015-07-13T19:51:33.832Z</time>
      </trkpt>
      <trkpt lat="48.87544" lon="2.2841">
        <ele>103</ele>
        <time>2015-07-13T19:51:34.835Z</time>
      </trkpt>
      <trkpt lat="48.87538" lon="2.2841">
        <ele>102.9</ele>
        <time>2015-07-13T19:51:35.844Z</time>
      </trkpt>
      <trkpt lat="48.87531" lon="2.28411">
        <ele>103</ele>
        <time>2015-07-13T19:51:36.787Z</time>
      </trkpt>
      <trkpt lat="48.87524" lon="2.28412">
        <ele>103.2</ele>
        <time>2015-07-13T19:51:37.774Z</time>
      </trkpt>
      <trkpt lat="48.87517" lon="2.28411">
        <ele>103.4</ele>
        <time>2015-07-13T19:51:38.785Z</time>
      </trkpt>
      <trkpt lat="48.8751" lon="2.28409">
        <ele>103.8</ele>
        <time>2015-07-13T19:51:39.829Z</time>
      </trkpt>
      <trkpt lat="48.87504" lon="2.28411">
        <ele>103.8</ele>
        <time>2015-07-13T19:51:40.837Z</time>
      </trkpt>
      <trkpt lat="48.87498" lon="2.28412">
        <ele>104.2</ele>
        <time>2015-07-13T19:51:41.845Z</time>
      </trkpt>
      <trkpt lat="48.87492" lon="2.28413">
        <ele>104.4</ele>
        <time>2015-07-13T19:51:42.852Z</time>
      </trkpt>
      <trkpt lat="48.87486" lon="2.28412">
        <ele>104.7</ele>
        <time>2015-07-13T19:51:43.986Z</time>
      </trkpt>
      <trkpt lat="48.87479" lon="2.28414">
        <ele>105.5</ele>
        <time>2015-07-13T19:51:44.876Z</time>
      </trkpt>
      <trkpt lat="48.87473" lon="2.28416">
        <ele>106.2</ele>
        <time>2015-07-13T19:51:45.796Z</time>
      </trkpt>
      <trkpt lat="48.87466" lon="2.28418">
        <ele>106.9</ele>
        <time>2015-07-13T19:51:46.792Z</time>
      </trkpt>
      <trkpt lat="48.87458" lon="2.2842">
        <ele>107.9</ele>
        <time>2015-07-13T19:51:47.836Z</time>
      </trkpt>
      <trkpt lat="48.87452" lon="2.28423">
        <ele>108.1</ele>
        <time>2015-07-13T19:51:48.829Z</time>
      </trkpt>
      <trkpt lat="48.87445" lon="2.28427">
        <ele>108.3</ele>
        <time>2015-07-13T19:51:49.848Z</time>
      </trkpt>
      <trkpt lat="48.87438" lon="2.2843">
        <ele>108.1</ele>
        <time>2015-07-13T19:51:50.863Z</time>
      </trkpt>
      <trkpt lat="48.8743" lon="2.28432">
        <ele>107.7</ele>
        <time>2015-07-13T19:51:51.789Z</time>
      </trkpt>
      <trkpt lat="48.87424" lon="2.28434">
        <ele>108</ele>
        <time>2015-07-13T19:51:52.789Z</time>
      </trkpt>
      <trkpt lat="48.87417" lon="2.28436">
        <ele>108.1</ele>
        <time>2015-07-13T19:51:53.838Z</time>
      </trkpt>
      <trkpt lat="48.87411" lon="2.28437">
        <ele>108.2</ele>
        <time>2015-07-13T19:51:54.861Z</time>
      </trkpt>
      <trkpt lat="48.87404" lon="2.2844">
        <ele>108.7</ele>
        <time>2015-07-13T19:51:55.863Z</time>
      </trkpt>
      <trkpt lat="48.87397" lon="2.28441">
        <ele>108.7</ele>
        <time>2015-07-13T19:51:56.788Z</time>
      </trkpt>
      <trkpt lat="48.87388" lon="2.28441">
        <ele>109.6</ele>
        <time>2015-07-13T19:51:57.798Z</time>
      </trkpt>
      <trkpt lat="48.87381" lon="2.28441">
        <ele>110.4</ele>
        <time>2015-07-13T19:51:58.807Z</time>
      </trkpt>
      <trkpt lat="48.87374" lon="2.28442">
        <ele>110.4</ele>
        <time>2015-07-13T19:51:59.885Z</time>
      </trkpt>
      <trkpt lat="48.87368" lon="2.28443">
        <ele>110.6</ele>
        <time>2015-07-13T19:52:00.789Z</time>
      </trkpt>
      <trkpt lat="48.8736" lon="2.28444">
        <ele>110.4</ele>
        <time>2015-07-13T19:52:01.782Z</time>
      </trkpt>
      <trkpt lat="48.87353" lon="2.28442">
        <ele>110.4</ele>
        <time>2015-07-13T19:52:02.784Z</time>
      </trkpt>
      <trkpt lat="48.87345" lon="2.28441">
        <ele>110.1</ele>
        <time>2015-07-13T19:52:03.829Z</time>
      </trkpt>
      <trkpt lat="48.87338" lon="2.28439">
        <ele>109.9</ele>
        <time>2015-07-13T19:52:04.838Z</time>
      </trkpt>
      <trkpt lat="48.87333" lon="2.2844">
        <ele>109.7</ele>
        <time>2015-07-13T19:52:05.846Z</time>
      </trkpt>
      <trkpt lat="48.87327" lon="2.28438">
        <ele>109.7</ele>
        <time>2015-07-13T19:52:06.851Z</time>
      </trkpt>
      <trkpt lat="48.87321" lon="2.28435">
        <ele>109.4</ele>
        <time>2015-07-13T19:52:07.865Z</time>
      </trkpt>
      <trkpt lat="48.87316" lon="2.28433">
        <ele>109.1</ele>
        <time>2015-07-13T19:52:08.869Z</time>
      </trkpt>
      <trkpt lat="48.87307" lon="2.28437">
        <ele>107.7</ele>
        <time>2015-07-13T19:52:10.834Z</time>
      </trkpt>
      <trkpt lat="48.87304" lon="2.28439">
        <ele>107.4</ele>
        <time>2015-07-13T19:52:11.869Z</time>
      </trkpt>
      <trkpt lat="48.87298" lon="2.28442">
        <ele>107.6</ele>
        <time>2015-07-13T19:52:13.883Z</time>
      </trkpt>
      <trkpt lat="48.87294" lon="2.28442">
        <ele>107.1</ele>
        <time>2015-07-13T19:52:14.823Z</time>
      </trkpt>
      <trkpt lat="48.87285" lon="2.28442">
        <ele>105.9</ele>
        <time>2015-07-13T19:52:17.896Z</time>
      </trkpt>
      <trkpt lat="48.87282" lon="2.28442">
        <ele>106.1</ele>
        <time>2015-07-13T19:52:18.832Z</time>
      </trkpt>
      <trkpt lat="48.87273" lon="2.28439">
        <ele>105.7</ele>
        <time>2015-07-13T19:52:21.855Z</time>
      </trkpt>
      <trkpt lat="48.8727" lon="2.28439">
        <ele>104.4</ele>
        <time>2015-07-13T19:52:22.846Z</time>
      </trkpt>
      <trkpt lat="48.87263" lon="2.28438">
        <ele>104</ele>
        <time>2015-07-13T19:52:25.809Z</time>
      </trkpt>
      <trkpt lat="48.87261" lon="2.28438">
        <ele>104</ele>
        <time>2015-07-13T19:52:26.845Z</time>
      </trkpt>
      <trkpt lat="48.87253" lon="2.28442">
        <ele>91.8</ele>
        <time>2015-07-13T19:53:09.839Z</time>
      </trkpt>
      <trkpt lat="48.87251" lon="2.28443">
        <ele>92.5</ele>
        <time>2015-07-13T19:53:10.861Z</time>
      </trkpt>
      <trkpt lat="48.87248" lon="2.28444">
        <ele>92.5</ele>
        <time>2015-07-13T19:53:17.870Z</time>
      </trkpt>
      <trkpt lat="48.8724" lon="2.28448">
        <ele>93.1</ele>
        <time>2015-07-13T19:53:18.869Z</time>
      </trkpt>
      <trkpt lat="48.87234" lon="2.28447">
        <ele>93.9</ele>
        <time>2015-07-13T19:53:21.867Z</time>
      </trkpt>
      <trkpt lat="48.87231" lon="2.28446">
        <ele>94.2</ele>
        <time>2015-07-13T19:53:22.832Z</time>
      </trkpt>
      <trkpt lat="48.87224" lon="2.28439">
        <ele>94.9</ele>
        <time>2015-07-13T19:53:25.938Z</time>
      </trkpt>
      <trkpt lat="48.87222" lon="2.28436">
        <ele>94.7</ele>
        <time>2015-07-13T19:53:26.878Z</time>
      </trkpt>
      <trkpt lat="48.87216" lon="2.28426">
        <ele>94.7</ele>
        <time>2015-07-13T19:53:30.061Z</time>
      </trkpt>
      <trkpt lat="48.87214" lon="2.28424">
        <ele>95</ele>
        <time>2015-07-13T19:53:30.818Z</time>
      </trkpt>
      <trkpt lat="48.87209" lon="2.28418">
        <ele>95.9</ele>
        <time>2015-07-13T19:53:34.158Z</time>
      </trkpt>
      <trkpt lat="48.87206" lon="2.28416">
        <ele>96.1</ele>
        <time>2015-07-13T19:53:34.817Z</time>
      </trkpt>
      <trkpt lat="48.87202" lon="2.28408">
        <ele>95.7</ele>
        <time>2015-07-13T19:53:36.856Z</time>
      </trkpt>
      <trkpt lat="48.872" lon="2.28404">
        <ele>95.8</ele>
        <time>2015-07-13T19:53:37.880Z</time>
      </trkpt>
      <trkpt lat="48.87196" lon="2.28396">
        <ele>95.6</ele>
        <time>2015-07-13T19:53:39.848Z</time>
      </trkpt>
      <trkpt lat="48.87194" lon="2.28392">
        <ele>95.5</ele>
        <time>2015-07-13T19:53:40.884Z</time>
      </trkpt>
      <trkpt lat="48.87189" lon="2.28388">
        <ele>95.2</ele>
        <time>2015-07-13T19:53:42.841Z</time>
      </trkpt>
      <trkpt lat="48.87186" lon="2.28386">
        <ele>95</ele>
        <time>2015-07-13T19:53:43.899Z</time>
      </trkpt>
      <trkpt lat="48.87183" lon="2.28379">
        <ele>94.9</ele>
        <time>2015-07-13T19:53:44.998Z</time>
      </trkpt>
      <trkpt lat="48.87181" lon="2.28371">
        <ele>95</ele>
        <time>2015-07-13T19:53:45.821Z</time>
      </trkpt>
      <trkpt lat="48.87177" lon="2.28365">
        <ele>95.1</ele>
        <time>2015-07-13T19:53:46.839Z</time>
      </trkpt>
      <trkpt lat="48.87173" lon="2.28358">
        <ele>95.1</ele>
        <time>2015-07-13T19:53:47.910Z</time>
      </trkpt>
      <trkpt lat="48.87168" lon="2.28352">
        <ele>95.3</ele>
        <time>2015-07-13T19:53:48.802Z</time>
      </trkpt>
      <trkpt lat="48.87163" lon="2.28345">
        <ele>95.3</ele>
        <time>2015-07-13T19:53:49.811Z</time>
      </trkpt>
      <trkpt lat="48.87158" lon="2.28339">
        <ele>95.4</ele>
        <time>2015-07-13T19:53:51.519Z</time>
      </trkpt>
      <trkpt lat="48.87143" lon="2.28341">
        <ele>95.1</ele>
        <time>2015-07-13T19:53:51.898Z</time>
      </trkpt>
      <trkpt lat="48.87136" lon="2.28338">
        <ele>95</ele>
        <time>2015-07-13T19:53:52.836Z</time>
      </trkpt>
      <trkpt lat="48.87131" lon="2.28334">
        <ele>95.2</ele>
        <time>2015-07-13T19:53:53.840Z</time>
      </trkpt>
      <trkpt lat="48.87126" lon="2.2833">
        <ele>95.2</ele>
        <time>2015-07-13T19:53:54.851Z</time>
      </trkpt>
      <trkpt lat="48.8712" lon="2.28325">
        <ele>95.1</ele>
        <time>2015-07-13T19:53:55.779Z</time>
      </trkpt>
      <trkpt lat="48.87115" lon="2.28323">
        <ele>95.2</ele>
        <time>2015-07-13T19:53:56.793Z</time>
      </trkpt>
      <trkpt lat="48.87109" lon="2.28322">
        <ele>95.4</ele>
        <time>2015-07-13T19:53:57.802Z</time>
      </trkpt>
      <trkpt lat="48.87105" lon="2.28321">
        <ele>95.6</ele>
        <time>2015-07-13T19:53:58.815Z</time>
      </trkpt>
      <trkpt lat="48.87101" lon="2.28319">
        <ele>95.8</ele>
        <time>2015-07-13T19:53:59.861Z</time>
      </trkpt>
      <trkpt lat="48.87097" lon="2.28316">
        <ele>96.1</ele>
        <time>2015-07-13T19:54:00.850Z</time>
      </trkpt>
      <trkpt lat="48.87092" lon="2.28312">
        <ele>96.5</ele>
        <time>2015-07-13T19:54:01.778Z</time>
      </trkpt>
      <trkpt lat="48.87085" lon="2.28305">
        <ele>97.1</ele>
        <time>2015-07-13T19:54:03.802Z</time>
      </trkpt>
      <trkpt lat="48.87081" lon="2.28302">
        <ele>97.2</ele>
        <time>2015-07-13T19:54:04.815Z</time>
      </trkpt>
      <trkpt lat="48.87076" lon="2.283">
        <ele>97.3</ele>
        <time>2015-07-13T19:54:05.830Z</time>
      </trkpt>
      <trkpt lat="48.87071" lon="2.28299">
        <ele>97.3</ele>
        <time>2015-07-13T19:54:06.841Z</time>
      </trkpt>
      <trkpt lat="48.87066" lon="2.28296">
        <ele>97.3</ele>
        <time>2015-07-13T19:54:07.756Z</time>
      </trkpt>
      <trkpt lat="48.87062" lon="2.28293">
        <ele>97.3</ele>
        <time>2015-07-13T19:54:08.755Z</time>
      </trkpt>
      <trkpt lat="48.87055" lon="2.28288">
        <ele>97.3</ele>
        <time>2015-07-13T19:54:09.780Z</time>
      </trkpt>
      <trkpt lat="48.87048" lon="2.28288">
        <ele>97.2</ele>
        <time>2015-07-13T19:54:10.788Z</time>
      </trkpt>
      <trkpt lat="48.87042" lon="2.28283">
        <ele>98.1</ele>
        <time>2015-07-13T19:54:13.873Z</time>
      </trkpt>
      <trkpt lat="48.8704" lon="2.28282">
        <ele>99.2</ele>
        <time>2015-07-13T19:54:14.811Z</time>
      </trkpt>
      <trkpt lat="48.87039" lon="2.28281">
        <ele>99.6</ele>
        <time>2015-07-13T19:54:29.822Z</time>
      </trkpt>
      <trkpt lat="48.87028" lon="2.28276">
        <ele>110.2</ele>
        <time>2015-07-13T19:54:30.788Z</time>
      </trkpt>
      <trkpt lat="48.87021" lon="2.28269">
        <ele>111</ele>
        <time>2015-07-13T19:54:34.806Z</time>
      </trkpt>
      <trkpt lat="48.87019" lon="2.2827">
        <ele>111</ele>
        <time>2015-07-13T19:54:35.823Z</time>
      </trkpt>
      <trkpt lat="48.87015" lon="2.28265">
        <ele>111.7</ele>
        <time>2015-07-13T19:54:37.779Z</time>
      </trkpt>
      <trkpt lat="48.87011" lon="2.28262">
        <ele>111.8</ele>
        <time>2015-07-13T19:54:38.818Z</time>
      </trkpt>
      <trkpt lat="48.87005" lon="2.28257">
        <ele>111.9</ele>
        <time>2015-07-13T19:54:40.840Z</time>
      </trkpt>
      <trkpt lat="48.87001" lon="2.28255">
        <ele>112.1</ele>
        <time>2015-07-13T19:54:41.864Z</time>
      </trkpt>
      <trkpt lat="48.86997" lon="2.28251">
        <ele>112.5</ele>
        <time>2015-07-13T19:54:42.800Z</time>
      </trkpt>
      <trkpt lat="48.86993" lon="2.28249">
        <ele>112.6</ele>
        <time>2015-07-13T19:54:43.806Z</time>
      </trkpt>
      <trkpt lat="48.86989" lon="2.28245">
        <ele>112.8</ele>
        <time>2015-07-13T19:54:44.848Z</time>
      </trkpt>
      <trkpt lat="48.86984" lon="2.2824">
        <ele>112.9</ele>
        <time>2015-07-13T19:54:45.783Z</time>
      </trkpt>
      <trkpt lat="48.86978" lon="2.28236">
        <ele>112.7</ele>
        <time>2015-07-13T19:54:46.778Z</time>
      </trkpt>
      <trkpt lat="48.86971" lon="2.28231">
        <ele>113.1</ele>
        <time>2015-07-13T19:54:47.841Z</time>
      </trkpt>
      <trkpt lat="48.86963" lon="2.28225">
        <ele>114.4</ele>
        <time>2015-07-13T19:54:48.821Z</time>
      </trkpt>
      <trkpt lat="48.86956" lon="2.2822">
        <ele>114.7</ele>
        <time>2015-07-13T19:54:49.837Z</time>
      </trkpt>
      <trkpt lat="48.86948" lon="2.28216">
        <ele>114.8</ele>
        <time>2015-07-13T19:54:50.763Z</time>
      </trkpt>
      <trkpt lat="48.86941" lon="2.28211">
        <ele>115.2</ele>
        <time>2015-07-13T19:54:51.764Z</time>
      </trkpt>
      <trkpt lat="48.86935" lon="2.28207">
        <ele>115.3</ele>
        <time>2015-07-13T19:54:52.786Z</time>
      </trkpt>
      <trkpt lat="48.86928" lon="2.28203">
        <ele>115.2</ele>
        <time>2015-07-13T19:54:53.821Z</time>
      </trkpt>
      <trkpt lat="48.86921" lon="2.28199">
        <ele>115</ele>
        <time>2015-07-13T19:54:54.819Z</time>
      </trkpt>
      <trkpt lat="48.86915" lon="2.28194">
        <ele>115</ele>
        <time>2015-07-13T19:54:55.827Z</time>
      </trkpt>
      <trkpt lat="48.86909" lon="2.28189">
        <ele>114.6</ele>
        <time>2015-07-13T19:54:56.849Z</time>
      </trkpt>
      <trkpt lat="48.86901" lon="2.28186">
        <ele>114.6</ele>
        <time>2015-07-13T19:54:57.856Z</time>
      </trkpt>
      <trkpt lat="48.86896" lon="2.28181">
        <ele>114.4</ele>
        <time>2015-07-13T19:54:59.037Z</time>
      </trkpt>
      <trkpt lat="48.8689" lon="2.28176">
        <ele>114.3</ele>
        <time>2015-07-13T19:54:59.926Z</time>
      </trkpt>
      <trkpt lat="48.86884" lon="2.28172">
        <ele>114.3</ele>
        <time>2015-07-13T19:55:00.790Z</time>
      </trkpt>
      <trkpt lat="48.86876" lon="2.28167">
        <ele>114.5</ele>
        <time>2015-07-13T19:55:01.804Z</time>
      </trkpt>
      <trkpt lat="48.86869" lon="2.28162">
        <ele>114.5</ele>
        <time>2015-07-13T19:55:02.819Z</time>
      </trkpt>
      <trkpt lat="48.86862" lon="2.28159">
        <ele>114.5</ele>
        <time>2015-07-13T19:55:03.840Z</time>
      </trkpt>
      <trkpt lat="48.86858" lon="2.28154">
        <ele>114.1</ele>
        <time>2015-07-13T19:55:04.868Z</time>
      </trkpt>
      <trkpt lat="48.86851" lon="2.28153">
        <ele>113.9</ele>
        <time>2015-07-13T19:55:05.797Z</time>
      </trkpt>
      <trkpt lat="48.86845" lon="2.28151">
        <ele>113.7</ele>
        <time>2015-07-13T19:55:06.770Z</time>
      </trkpt>
      <trkpt lat="48.86841" lon="2.28147">
        <ele>113.6</ele>
        <time>2015-07-13T19:55:07.782Z</time>
      </trkpt>
      <trkpt lat="48.86837" lon="2.28146">
        <ele>113.6</ele>
        <time>2015-07-13T19:55:08.796Z</time>
      </trkpt>
      <trkpt lat="48.86831" lon="2.28144">
        <ele>113.4</ele>
        <time>2015-07-13T19:55:09.803Z</time>
      </trkpt>
      <trkpt lat="48.86823" lon="2.28143">
        <ele>113.4</ele>
        <time>2015-07-13T19:55:10.806Z</time>
      </trkpt>
      <trkpt lat="48.86817" lon="2.28141">
        <ele>113.6</ele>
        <time>2015-07-13T19:55:11.817Z</time>
      </trkpt>
      <trkpt lat="48.86812" lon="2.28138">
        <ele>113.8</ele>
        <time>2015-07-13T19:55:12.824Z</time>
      </trkpt>
      <trkpt lat="48.86807" lon="2.2813">
        <ele>113.7</ele>
        <time>2015-07-13T19:55:13.834Z</time>
      </trkpt>
      <trkpt lat="48.86799" lon="2.28123">
        <ele>113.4</ele>
        <time>2015-07-13T19:55:15.846Z</time>
      </trkpt>
      <trkpt lat="48.86796" lon="2.2812">
        <ele>113.3</ele>
        <time>2015-07-13T19:55:16.764Z</time>
      </trkpt>
      <trkpt lat="48.86789" lon="2.28113">
        <ele>113.4</ele>
        <time>2015-07-13T19:55:20.411Z</time>
      </trkpt>
      <trkpt lat="48.86787" lon="2.28111">
        <ele>113.8</ele>
        <time>2015-07-13T19:55:20.869Z</time>
      </trkpt>
      <trkpt lat="48.86779" lon="2.2811">
        <ele>111.7</ele>
        <time>2015-07-13T19:55:30.656Z</time>
      </trkpt>
      <trkpt lat="48.86777" lon="2.28107">
        <ele>111.8</ele>
        <time>2015-07-13T19:55:31.847Z</time>
      </trkpt>
      <trkpt lat="48.86773" lon="2.28101">
        <ele>112.2</ele>
        <time>2015-07-13T19:55:33.884Z</time>
      </trkpt>
      <trkpt lat="48.8677" lon="2.28098">
        <ele>112.7</ele>
        <time>2015-07-13T19:55:34.793Z</time>
      </trkpt>
      <trkpt lat="48.86765" lon="2.28089">
        <ele>113</ele>
        <time>2015-07-13T19:55:36.855Z</time>
      </trkpt>
      <trkpt lat="48.86761" lon="2.28086">
        <ele>112.6</ele>
        <time>2015-07-13T19:55:37.872Z</time>
      </trkpt>
      <trkpt lat="48.86756" lon="2.28084">
        <ele>112.2</ele>
        <time>2015-07-13T19:55:38.927Z</time>
      </trkpt>
      <trkpt lat="48.86749" lon="2.28084">
        <ele>112.1</ele>
        <time>2015-07-13T19:55:39.778Z</time>
      </trkpt>
      <trkpt lat="48.86743" lon="2.28084">
        <ele>112.2</ele>
        <time>2015-07-13T19:55:40.832Z</time>
      </trkpt>
      <trkpt lat="48.86738" lon="2.28082">
        <ele>112.4</ele>
        <time>2015-07-13T19:55:41.844Z</time>
      </trkpt>
      <trkpt lat="48.8673" lon="2.28078">
        <ele>112.6</ele>
        <time>2015-07-13T19:55:43.825Z</time>
      </trkpt>
      <trkpt lat="48.86725" lon="2.28076">
        <ele>112.7</ele>
        <time>2015-07-13T19:55:44.816Z</time>
      </trkpt>
      <trkpt lat="48.8672" lon="2.28071">
        <ele>112.8</ele>
        <time>2015-07-13T19:55:45.809Z</time>
      </trkpt>
      <trkpt lat="48.86715" lon="2.28066">
        <ele>112.8</ele>
        <time>2015-07-13T19:55:46.783Z</time>
      </trkpt>
      <trkpt lat="48.86711" lon="2.2806">
        <ele>112.7</ele>
        <time>2015-07-13T19:55:47.840Z</time>
      </trkpt>
      <trkpt lat="48.86706" lon="2.28057">
        <ele>112.7</ele>
        <time>2015-07-13T19:55:48.991Z</time>
      </trkpt>
      <trkpt lat="48.86701" lon="2.28055">
        <ele>112.5</ele>
        <time>2015-07-13T19:55:49.836Z</time>
      </trkpt>
      <trkpt lat="48.86696" lon="2.28051">
        <ele>112.4</ele>
        <time>2015-07-13T19:55:50.875Z</time>
      </trkpt>
      <trkpt lat="48.86689" lon="2.28044">
        <ele>112.1</ele>
        <time>2015-07-13T19:55:51.836Z</time>
      </trkpt>
      <trkpt lat="48.86682" lon="2.28039">
        <ele>112</ele>
        <time>2015-07-13T19:55:52.845Z</time>
      </trkpt>
      <trkpt lat="48.86674" lon="2.28035">
        <ele>111.9</ele>
        <time>2015-07-13T19:55:53.847Z</time>
      </trkpt>
      <trkpt lat="48.8667" lon="2.28031">
        <ele>111.8</ele>
        <time>2015-07-13T19:55:54.859Z</time>
      </trkpt>
      <trkpt lat="48.86665" lon="2.28029">
        <ele>111.9</ele>
        <time>2015-07-13T19:55:55.755Z</time>
      </trkpt>
      <trkpt lat="48.86659" lon="2.28026">
        <ele>112</ele>
        <time>2015-07-13T19:55:56.778Z</time>
      </trkpt>
      <trkpt lat="48.86655" lon="2.28021">
        <ele>112.1</ele>
        <time>2015-07-13T19:55:57.784Z</time>
      </trkpt>
      <trkpt lat="48.8665" lon="2.28016">
        <ele>112</ele>
        <time>2015-07-13T19:55:58.793Z</time>
      </trkpt>
      <trkpt lat="48.86646" lon="2.28011">
        <ele>111.9</ele>
        <time>2015-07-13T19:55:59.897Z</time>
      </trkpt>
      <trkpt lat="48.8664" lon="2.28005">
        <ele>112.2</ele>
        <time>2015-07-13T19:56:00.783Z</time>
      </trkpt>
      <trkpt lat="48.86635" lon="2.27998">
        <ele>112.4</ele>
        <time>2015-07-13T19:56:01.788Z</time>
      </trkpt>
      <trkpt lat="48.86629" lon="2.2799">
        <ele>112.8</ele>
        <time>2015-07-13T19:56:02.803Z</time>
      </trkpt>
      <trkpt lat="48.86623" lon="2.27984">
        <ele>113</ele>
        <time>2015-07-13T19:56:03.834Z</time>
      </trkpt>
      <trkpt lat="48.86618" lon="2.27978">
        <ele>113.2</ele>
        <time>2015-07-13T19:56:04.838Z</time>
      </trkpt>
      <trkpt lat="48.86613" lon="2.27974">
        <ele>113.5</ele>
        <time>2015-07-13T19:56:05.867Z</time>
      </trkpt>
      <trkpt lat="48.86608" lon="2.27971">
        <ele>113.8</ele>
        <time>2015-07-13T19:56:06.767Z</time>
      </trkpt>
      <trkpt lat="48.86602" lon="2.27969">
        <ele>114.2</ele>
        <time>2015-07-13T19:56:07.798Z</time>
      </trkpt>
      <trkpt lat="48.86596" lon="2.27966">
        <ele>114.3</ele>
        <time>2015-07-13T19:56:08.790Z</time>
      </trkpt>
      <trkpt lat="48.8659" lon="2.27962">
        <ele>114.4</ele>
        <time>2015-07-13T19:56:09.749Z</time>
      </trkpt>
      <trkpt lat="48.86584" lon="2.27957">
        <ele>114.7</ele>
        <time>2015-07-13T19:56:10.799Z</time>
      </trkpt>
      <trkpt lat="48.86578" lon="2.27953">
        <ele>114.9</ele>
        <time>2015-07-13T19:56:11.809Z</time>
      </trkpt>
      <trkpt lat="48.86573" lon="2.27944">
        <ele>115.4</ele>
        <time>2015-07-13T19:56:12.814Z</time>
      </trkpt>
      <trkpt lat="48.86567" lon="2.27938">
        <ele>115.5</ele>
        <time>2015-07-13T19:56:13.819Z</time>
      </trkpt>
      <trkpt lat="48.86562" lon="2.27931">
        <ele>115.6</ele>
        <time>2015-07-13T19:56:14.841Z</time>
      </trkpt>
      <trkpt lat="48.86556" lon="2.27925">
        <ele>115.6</ele>
        <time>2015-07-13T19:56:15.853Z</time>
      </trkpt>
      <trkpt lat="48.86551" lon="2.27919">
        <ele>115.8</ele>
        <time>2015-07-13T19:56:16.801Z</time>
      </trkpt>
      <trkpt lat="48.86546" lon="2.2791">
        <ele>115.6</ele>
        <time>2015-07-13T19:56:17.799Z</time>
      </trkpt>
      <trkpt lat="48.86542" lon="2.279">
        <ele>115.2</ele>
        <time>2015-07-13T19:56:18.813Z</time>
      </trkpt>
      <trkpt lat="48.86536" lon="2.27892">
        <ele>115.1</ele>
        <time>2015-07-13T19:56:19.839Z</time>
      </trkpt>
      <trkpt lat="48.86531" lon="2.27883">
        <ele>114.8</ele>
        <time>2015-07-13T19:56:20.847Z</time>
      </trkpt>
      <trkpt lat="48.86526" lon="2.27876">
        <ele>114.1</ele>
        <time>2015-07-13T19:56:21.782Z</time>
      </trkpt>
      <trkpt lat="48.86517" lon="2.27872">
        <ele>114.7</ele>
        <time>2015-07-13T19:56:22.783Z</time>
      </trkpt>
      <trkpt lat="48.86509" lon="2.27866">
        <ele>114.8</ele>
        <time>2015-07-13T19:56:23.820Z</time>
      </trkpt>
      <trkpt lat="48.86502" lon="2.27859">
        <ele>114.5</ele>
        <time>2015-07-13T19:56:24.835Z</time>
      </trkpt>
      <trkpt lat="48.86496" lon="2.27852">
        <ele>114.4</ele>
        <time>2015-07-13T19:56:25.849Z</time>
      </trkpt>
      <trkpt lat="48.8649" lon="2.27845">
        <ele>113.9</ele>
        <time>2015-07-13T19:56:26.784Z</time>
      </trkpt>
      <trkpt lat="48.86483" lon="2.27839">
        <ele>113.9</ele>
        <time>2015-07-13T19:56:27.790Z</time>
      </trkpt>
      <trkpt lat="48.86476" lon="2.27831">
        <ele>114.2</ele>
        <time>2015-07-13T19:56:28.821Z</time>
      </trkpt>
      <trkpt lat="48.8647" lon="2.27825">
        <ele>114.3</ele>
        <time>2015-07-13T19:56:29.846Z</time>
      </trkpt>
      <trkpt lat="48.86464" lon="2.2782">
        <ele>114.2</ele>
        <time>2015-07-13T19:56:30.768Z</time>
      </trkpt>
      <trkpt lat="48.86458" lon="2.27814">
        <ele>114</ele>
        <time>2015-07-13T19:56:31.771Z</time>
      </trkpt>
      <trkpt lat="48.86452" lon="2.27808">
        <ele>113.9</ele>
        <time>2015-07-13T19:56:32.775Z</time>
      </trkpt>
      <trkpt lat="48.86447" lon="2.27803">
        <ele>114.2</ele>
        <time>2015-07-13T19:56:33.803Z</time>
      </trkpt>
      <trkpt lat="48.86441" lon="2.27797">
        <ele>113.8</ele>
        <time>2015-07-13T19:56:34.997Z</time>
      </trkpt>
      <trkpt lat="48.86436" lon="2.27792">
        <ele>113.6</ele>
        <time>2015-07-13T19:56:35.858Z</time>
      </trkpt>
      <trkpt lat="48.86432" lon="2.27786">
        <ele>113.3</ele>
        <time>2015-07-13T19:56:36.773Z</time>
      </trkpt>
      <trkpt lat="48.86427" lon="2.2778">
        <ele>113.2</ele>
        <time>2015-07-13T19:56:37.770Z</time>
      </trkpt>
      <trkpt lat="48.86422" lon="2.27776">
        <ele>113</ele>
        <time>2015-07-13T19:56:38.780Z</time>
      </trkpt>
      <trkpt lat="48.86417" lon="2.27772">
        <ele>113.3</ele>
        <time>2015-07-13T19:56:39.838Z</time>
      </trkpt>
      <trkpt lat="48.86409" lon="2.27767">
        <ele>113.9</ele>
        <time>2015-07-13T19:56:41.862Z</time>
      </trkpt>
      <trkpt lat="48.86406" lon="2.27766">
        <ele>114.6</ele>
        <time>2015-07-13T19:56:42.848Z</time>
      </trkpt>
      <trkpt lat="48.8641" lon="2.27754">
        <ele>113.3</ele>
        <time>2015-07-13T19:57:03.857Z</time>
      </trkpt>
      <trkpt lat="48.86409" lon="2.2775">
        <ele>113.3</ele>
        <time>2015-07-13T19:57:04.817Z</time>
      </trkpt>
      <trkpt lat="48.86404" lon="2.27742">
        <ele>113.8</ele>
        <time>2015-07-13T19:57:06.770Z</time>
      </trkpt>
      <trkpt lat="48.86402" lon="2.27738">
        <ele>113.8</ele>
        <time>2015-07-13T19:57:07.928Z</time>
      </trkpt>
      <trkpt lat="48.86396" lon="2.27728">
        <ele>114.4</ele>
        <time>2015-07-13T19:57:10.843Z</time>
      </trkpt>
      <trkpt lat="48.86393" lon="2.27726">
        <ele>114.8</ele>
        <time>2015-07-13T19:57:11.856Z</time>
      </trkpt>
      <trkpt lat="48.86389" lon="2.27717">
        <ele>115.3</ele>
        <time>2015-07-13T19:57:57.885Z</time>
      </trkpt>
      <trkpt lat="48.86405" lon="2.27668">
        <ele>114.7</ele>
        <time>2015-07-13T19:57:58.806Z</time>
      </trkpt>
      <trkpt lat="48.86405" lon="2.27666">
        <ele>115.2</ele>
        <time>2015-07-13T19:57:59.899Z</time>
      </trkpt>
      <trkpt lat="48.86404" lon="2.27665">
        <ele>115.4</ele>
        <time>2015-07-13T19:58:00.811Z</time>
      </trkpt>
      <trkpt lat="48.86404" lon="2.27664">
        <ele>115.5</ele>
        <time>2015-07-13T19:58:16.828Z</time>
      </trkpt>
      <trkpt lat="48.86402" lon="2.27662">
        <ele>113</ele>
        <time>2015-07-13T19:58:17.839Z</time>
      </trkpt>
      <trkpt lat="48.86406" lon="2.27657">
        <ele>112.7</ele>
        <time>2015-07-13T19:58:21.792Z</time>
      </trkpt>
      <trkpt lat="48.86406" lon="2.27658">
        <ele>112.5</ele>
        <time>2015-07-13T19:58:22.829Z</time>
      </trkpt>
      <trkpt lat="48.86405" lon="2.27658">
        <ele>112.4</ele>
        <time>2015-07-13T19:58:46.958Z</time>
      </trkpt>
      <trkpt lat="48.86406" lon="2.27667">
        <ele>108.5</ele>
        <time>2015-07-13T19:58:47.851Z</time>
      </trkpt>
      <trkpt lat="48.86405" lon="2.27663">
        <ele>108.4</ele>
        <time>2015-07-13T19:59:49.818Z</time>
      </trkpt>
      <trkpt lat="48.8639" lon="2.27713">
        <ele>111.8</ele>
        <time>2015-07-13T19:59:50.844Z</time>
      </trkpt>
      <trkpt lat="48.86382" lon="2.27715">
        <ele>113</ele>
        <time>2015-07-13T20:00:01.841Z</time>
      </trkpt>
      <trkpt lat="48.86379" lon="2.27713">
        <ele>112.7</ele>
        <time>2015-07-13T20:00:02.900Z</time>
      </trkpt>
      <trkpt lat="48.86372" lon="2.27707">
        <ele>112.4</ele>
        <time>2015-07-13T20:00:04.799Z</time>
      </trkpt>
      <trkpt lat="48.86369" lon="2.27704">
        <ele>112.4</ele>
        <time>2015-07-13T20:00:05.863Z</time>
      </trkpt>
      <trkpt lat="48.86362" lon="2.27697">
        <ele>112.1</ele>
        <time>2015-07-13T20:00:07.850Z</time>
      </trkpt>
      <trkpt lat="48.86359" lon="2.27693">
        <ele>111.8</ele>
        <time>2015-07-13T20:00:08.845Z</time>
      </trkpt>
      <trkpt lat="48.86354" lon="2.27683">
        <ele>111.1</ele>
        <time>2015-07-13T20:00:10.936Z</time>
      </trkpt>
      <trkpt lat="48.8635" lon="2.27679">
        <ele>110.8</ele>
        <time>2015-07-13T20:00:11.951Z</time>
      </trkpt>
      <trkpt lat="48.86345" lon="2.27676">
        <ele>110.5</ele>
        <time>2015-07-13T20:00:12.789Z</time>
      </trkpt>
      <trkpt lat="48.86341" lon="2.27672">
        <ele>110.4</ele>
        <time>2015-07-13T20:00:13.814Z</time>
      </trkpt>
      <trkpt lat="48.86333" lon="2.27665">
        <ele>110.2</ele>
        <time>2015-07-13T20:00:15.849Z</time>
      </trkpt>
      <trkpt lat="48.86329" lon="2.27662">
        <ele>110.2</ele>
        <time>2015-07-13T20:00:16.869Z</time>
      </trkpt>
      <trkpt lat="48.86322" lon="2.27656">
        <ele>110.4</ele>
        <time>2015-07-13T20:00:18.767Z</time>
      </trkpt>
      <trkpt lat="48.86321" lon="2.27651">
        <ele>110.9</ele>
        <time>2015-07-13T20:00:19.778Z</time>
      </trkpt>
      <trkpt lat="48.86316" lon="2.27648">
        <ele>111</ele>
        <time>2015-07-13T20:00:20.805Z</time>
      </trkpt>
      <trkpt lat="48.8631" lon="2.27646">
        <ele>111.1</ele>
        <time>2015-07-13T20:00:21.756Z</time>
      </trkpt>
      <trkpt lat="48.86302" lon="2.27642">
        <ele>111.5</ele>
        <time>2015-07-13T20:00:23.798Z</time>
      </trkpt>
      <trkpt lat="48.86297" lon="2.2764">
        <ele>111.5</ele>
        <time>2015-07-13T20:00:24.810Z</time>
      </trkpt>
      <trkpt lat="48.86292" lon="2.27639">
        <ele>111.5</ele>
        <time>2015-07-13T20:00:25.830Z</time>
      </trkpt>
      <trkpt lat="48.86286" lon="2.27637">
        <ele>111.7</ele>
        <time>2015-07-13T20:00:26.762Z</time>
      </trkpt>
      <trkpt lat="48.86279" lon="2.27635">
        <ele>111.3</ele>
        <time>2015-07-13T20:00:28.813Z</time>
      </trkpt>
      <trkpt lat="48.86275" lon="2.27633">
        <ele>110.6</ele>
        <time>2015-07-13T20:00:29.891Z</time>
      </trkpt>
      <trkpt lat="48.86268" lon="2.27628">
        <ele>110.2</ele>
        <time>2015-07-13T20:00:31.794Z</time>
      </trkpt>
      <trkpt lat="48.86265" lon="2.27624">
        <ele>110.5</ele>
        <time>2015-07-13T20:00:32.799Z</time>
      </trkpt>
      <trkpt lat="48.86258" lon="2.27617">
        <ele>111.1</ele>
        <time>2015-07-13T20:00:34.867Z</time>
      </trkpt>
      <trkpt lat="48.86254" lon="2.27613">
        <ele>111</ele>
        <time>2015-07-13T20:00:35.865Z</time>
      </trkpt>
      <trkpt lat="48.86249" lon="2.2761">
        <ele>111.1</ele>
        <time>2015-07-13T20:00:36.801Z</time>
      </trkpt>
      <trkpt lat="48.86243" lon="2.27609">
        <ele>111.6</ele>
        <time>2015-07-13T20:00:37.819Z</time>
      </trkpt>
      <trkpt lat="48.86238" lon="2.27608">
        <ele>112.1</ele>
        <time>2015-07-13T20:00:38.850Z</time>
      </trkpt>
      <trkpt lat="48.86233" lon="2.27607">
        <ele>112.6</ele>
        <time>2015-07-13T20:00:39.771Z</time>
      </trkpt>
      <trkpt lat="48.86228" lon="2.27606">
        <ele>113</ele>
        <time>2015-07-13T20:00:40.815Z</time>
      </trkpt>
      <trkpt lat="48.86224" lon="2.27603">
        <ele>113.3</ele>
        <time>2015-07-13T20:00:41.829Z</time>
      </trkpt>
      <trkpt lat="48.8622" lon="2.276">
        <ele>113.3</ele>
        <time>2015-07-13T20:00:42.841Z</time>
      </trkpt>
      <trkpt lat="48.86214" lon="2.27597">
        <ele>113.3</ele>
        <time>2015-07-13T20:00:43.842Z</time>
      </trkpt>
      <trkpt lat="48.86208" lon="2.27594">
        <ele>113.1</ele>
        <time>2015-07-13T20:00:44.754Z</time>
      </trkpt>
      <trkpt lat="48.86202" lon="2.27589">
        <ele>113</ele>
        <time>2015-07-13T20:00:45.767Z</time>
      </trkpt>
      <trkpt lat="48.86196" lon="2.27585">
        <ele>112.8</ele>
        <time>2015-07-13T20:00:46.784Z</time>
      </trkpt>
      <trkpt lat="48.86191" lon="2.27581">
        <ele>112.9</ele>
        <time>2015-07-13T20:00:47.787Z</time>
      </trkpt>
      <trkpt lat="48.86186" lon="2.27577">
        <ele>113.1</ele>
        <time>2015-07-13T20:00:48.839Z</time>
      </trkpt>
      <trkpt lat="48.86179" lon="2.27573">
        <ele>113.5</ele>
        <time>2015-07-13T20:00:49.986Z</time>
      </trkpt>
      <trkpt lat="48.8617" lon="2.27569">
        <ele>114.7</ele>
        <time>2015-07-13T20:00:50.840Z</time>
      </trkpt>
      <trkpt lat="48.86164" lon="2.27565">
        <ele>114.7</ele>
        <time>2015-07-13T20:00:51.886Z</time>
      </trkpt>
      <trkpt lat="48.86158" lon="2.27561">
        <ele>114.8</ele>
        <time>2015-07-13T20:00:52.830Z</time>
      </trkpt>
      <trkpt lat="48.86151" lon="2.27555">
        <ele>114.7</ele>
        <time>2015-07-13T20:00:53.844Z</time>
      </trkpt>
      <trkpt lat="48.86143" lon="2.2755">
        <ele>114.7</ele>
        <time>2015-07-13T20:00:54.872Z</time>
      </trkpt>
      <trkpt lat="48.86136" lon="2.27545">
        <ele>114.8</ele>
        <time>2015-07-13T20:00:55.815Z</time>
      </trkpt>
      <trkpt lat="48.86131" lon="2.27541">
        <ele>115</ele>
        <time>2015-07-13T20:00:56.809Z</time>
      </trkpt>
      <trkpt lat="48.86124" lon="2.27534">
        <ele>115.3</ele>
        <time>2015-07-13T20:00:57.822Z</time>
      </trkpt>
      <trkpt lat="48.86116" lon="2.27527">
        <ele>115.7</ele>
        <time>2015-07-13T20:00:58.829Z</time>
      </trkpt>
      <trkpt lat="48.86108" lon="2.27521">
        <ele>115.7</ele>
        <time>2015-07-13T20:00:59.863Z</time>
      </trkpt>
      <trkpt lat="48.86101" lon="2.27515">
        <ele>115.6</ele>
        <time>2015-07-13T20:01:00.773Z</time>
      </trkpt>
      <trkpt lat="48.86091" lon="2.27511">
        <ele>115.5</ele>
        <time>2015-07-13T20:01:01.781Z</time>
      </trkpt>
      <trkpt lat="48.8608" lon="2.27509">
        <ele>115.7</ele>
        <time>2015-07-13T20:01:02.817Z</time>
      </trkpt>
      <trkpt lat="48.86071" lon="2.27508">
        <ele>116</ele>
        <time>2015-07-13T20:01:03.775Z</time>
      </trkpt>
      <trkpt lat="48.86066" lon="2.27505">
        <ele>115.7</ele>
        <time>2015-07-13T20:01:04.787Z</time>
      </trkpt>
      <trkpt lat="48.86061" lon="2.27502">
        <ele>116</ele>
        <time>2015-07-13T20:01:05.830Z</time>
      </trkpt>
      <trkpt lat="48.86053" lon="2.27502">
        <ele>115.3</ele>
        <time>2015-07-13T20:01:06.838Z</time>
      </trkpt>
      <trkpt lat="48.86046" lon="2.27502">
        <ele>115</ele>
        <time>2015-07-13T20:01:07.796Z</time>
      </trkpt>
      <trkpt lat="48.86037" lon="2.27502">
        <ele>114.9</ele>
        <time>2015-07-13T20:01:08.772Z</time>
      </trkpt>
      <trkpt lat="48.86029" lon="2.27502">
        <ele>115.2</ele>
        <time>2015-07-13T20:01:09.768Z</time>
      </trkpt>
      <trkpt lat="48.86022" lon="2.27502">
        <ele>115.6</ele>
        <time>2015-07-13T20:01:10.790Z</time>
      </trkpt>
      <trkpt lat="48.86015" lon="2.27504">
        <ele>116</ele>
        <time>2015-07-13T20:01:11.806Z</time>
      </trkpt>
      <trkpt lat="48.86008" lon="2.27506">
        <ele>116</ele>
        <time>2015-07-13T20:01:12.818Z</time>
      </trkpt>
      <trkpt lat="48.86002" lon="2.27508">
        <ele>115.8</ele>
        <time>2015-07-13T20:01:13.840Z</time>
      </trkpt>
      <trkpt lat="48.85995" lon="2.2751">
        <ele>116.1</ele>
        <time>2015-07-13T20:01:14.843Z</time>
      </trkpt>
      <trkpt lat="48.85989" lon="2.27513">
        <ele>116.6</ele>
        <time>2015-07-13T20:01:15.847Z</time>
      </trkpt>
      <trkpt lat="48.85983" lon="2.27517">
        <ele>117</ele>
        <time>2015-07-13T20:01:16.864Z</time>
      </trkpt>
      <trkpt lat="48.85976" lon="2.27518">
        <ele>117.4</ele>
        <time>2015-07-13T20:01:17.885Z</time>
      </trkpt>
      <trkpt lat="48.8597" lon="2.27518">
        <ele>117.6</ele>
        <time>2015-07-13T20:01:18.755Z</time>
      </trkpt>
      <trkpt lat="48.85963" lon="2.27518">
        <ele>118</ele>
        <time>2015-07-13T20:01:19.773Z</time>
      </trkpt>
      <trkpt lat="48.85958" lon="2.27514">
        <ele>118.1</ele>
        <time>2015-07-13T20:01:20.789Z</time>
      </trkpt>
      <trkpt lat="48.85953" lon="2.27513">
        <ele>118.3</ele>
        <time>2015-07-13T20:01:21.797Z</time>
      </trkpt>
      <trkpt lat="48.85945" lon="2.27514">
        <ele>118.1</ele>
        <time>2015-07-13T20:01:23.826Z</time>
      </trkpt>
      <trkpt lat="48.85941" lon="2.27512">
        <ele>118</ele>
        <time>2015-07-13T20:01:24.765Z</time>
      </trkpt>
      <trkpt lat="48.85934" lon="2.27508">
        <ele>118.2</ele>
        <time>2015-07-13T20:01:26.793Z</time>
      </trkpt>
      <trkpt lat="48.85928" lon="2.2751">
        <ele>118.6</ele>
        <time>2015-07-13T20:01:27.813Z</time>
      </trkpt>
      <trkpt lat="48.85923" lon="2.27508">
        <ele>118.4</ele>
        <time>2015-07-13T20:01:28.844Z</time>
      </trkpt>
      <trkpt lat="48.85917" lon="2.27507">
        <ele>118.7</ele>
        <time>2015-07-13T20:01:29.865Z</time>
      </trkpt>
      <trkpt lat="48.8591" lon="2.27505">
        <ele>118.5</ele>
        <time>2015-07-13T20:01:30.772Z</time>
      </trkpt>
      <trkpt lat="48.85904" lon="2.27505">
        <ele>118.6</ele>
        <time>2015-07-13T20:01:31.783Z</time>
      </trkpt>
      <trkpt lat="48.85898" lon="2.27506">
        <ele>118.5</ele>
        <time>2015-07-13T20:01:32.786Z</time>
      </trkpt>
      <trkpt lat="48.85893" lon="2.27506">
        <ele>118.6</ele>
        <time>2015-07-13T20:01:33.794Z</time>
      </trkpt>
      <trkpt lat="48.85887" lon="2.27506">
        <ele>118.6</ele>
        <time>2015-07-13T20:01:34.808Z</time>
      </trkpt>
      <trkpt lat="48.85882" lon="2.27505">
        <ele>118.4</ele>
        <time>2015-07-13T20:01:35.820Z</time>
      </trkpt>
      <trkpt lat="48.85878" lon="2.27504">
        <ele>118.4</ele>
        <time>2015-07-13T20:01:36.838Z</time>
      </trkpt>
      <trkpt lat="48.85873" lon="2.27504">
        <ele>118.6</ele>
        <time>2015-07-13T20:01:37.759Z</time>
      </trkpt>
      <trkpt lat="48.85866" lon="2.27505">
        <ele>118.5</ele>
        <time>2015-07-13T20:01:38.762Z</time>
      </trkpt>
      <trkpt lat="48.8586" lon="2.27506">
        <ele>118.3</ele>
        <time>2015-07-13T20:01:39.786Z</time>
      </trkpt>
      <trkpt lat="48.85852" lon="2.2751">
        <ele>118.3</ele>
        <time>2015-07-13T20:01:41.805Z</time>
      </trkpt>
      <trkpt lat="48.85849" lon="2.27511">
        <ele>118.3</ele>
        <time>2015-07-13T20:01:42.958Z</time>
      </trkpt>
      <trkpt lat="48.85841" lon="2.27513">
        <ele>118.3</ele>
        <time>2015-07-13T20:01:46.833Z</time>
      </trkpt>
      <trkpt lat="48.85841" lon="2.2751">
        <ele>118.3</ele>
        <time>2015-07-13T20:01:47.837Z</time>
      </trkpt>
      <trkpt lat="48.8584" lon="2.27505">
        <ele>118.1</ele>
        <time>2015-07-13T20:02:36.818Z</time>
      </trkpt>
      <trkpt lat="48.85835" lon="2.27491">
        <ele>111.1</ele>
        <time>2015-07-13T20:02:37.752Z</time>
      </trkpt>
      <trkpt lat="48.85827" lon="2.2749">
        <ele>111.3</ele>
        <time>2015-07-13T20:02:40.799Z</time>
      </trkpt>
      <trkpt lat="48.85825" lon="2.27489">
        <ele>111.4</ele>
        <time>2015-07-13T20:02:41.819Z</time>
      </trkpt>
      <trkpt lat="48.85817" lon="2.27486">
        <ele>111.8</ele>
        <time>2015-07-13T20:02:44.866Z</time>
      </trkpt>
      <trkpt lat="48.85815" lon="2.27484">
        <ele>112.1</ele>
        <time>2015-07-13T20:02:45.752Z</time>
      </trkpt>
      <trkpt lat="48.85808" lon="2.27481">
        <ele>112.7</ele>
        <time>2015-07-13T20:02:48.843Z</time>
      </trkpt>
      <trkpt lat="48.85806" lon="2.27479">
        <ele>113</ele>
        <time>2015-07-13T20:02:49.854Z</time>
      </trkpt>
      <trkpt lat="48.85798" lon="2.27474">
        <ele>113.2</ele>
        <time>2015-07-13T20:02:52.790Z</time>
      </trkpt>
      <trkpt lat="48.85794" lon="2.27474">
        <ele>113.2</ele>
        <time>2015-07-13T20:02:53.950Z</time>
      </trkpt>
      <trkpt lat="48.85789" lon="2.27474">
        <ele>113.2</ele>
        <time>2015-07-13T20:02:54.797Z</time>
      </trkpt>
      <trkpt lat="48.85784" lon="2.27475">
        <ele>113.3</ele>
        <time>2015-07-13T20:02:55.819Z</time>
      </trkpt>
      <trkpt lat="48.85779" lon="2.27476">
        <ele>113.2</ele>
        <time>2015-07-13T20:02:56.838Z</time>
      </trkpt>
      <trkpt lat="48.85774" lon="2.27475">
        <ele>113.3</ele>
        <time>2015-07-13T20:02:57.847Z</time>
      </trkpt>
      <trkpt lat="48.85768" lon="2.27474">
        <ele>114.1</ele>
        <time>2015-07-13T20:02:58.878Z</time>
      </trkpt>
      <trkpt lat="48.85764" lon="2.27476">
        <ele>114.5</ele>
        <time>2015-07-13T20:02:59.885Z</time>
      </trkpt>
      <trkpt lat="48.8576" lon="2.27479">
        <ele>114.4</ele>
        <time>2015-07-13T20:03:00.820Z</time>
      </trkpt>
      <trkpt lat="48.85755" lon="2.27481">
        <ele>114.9</ele>
        <time>2015-07-13T20:03:01.829Z</time>
      </trkpt>
      <trkpt lat="48.8575" lon="2.27482">
        <ele>115.2</ele>
        <time>2015-07-13T20:03:02.834Z</time>
      </trkpt>
      <trkpt lat="48.85745" lon="2.27484">
        <ele>115.8</ele>
        <time>2015-07-13T20:03:03.852Z</time>
      </trkpt>
      <trkpt lat="48.8574" lon="2.27485">
        <ele>116.7</ele>
        <time>2015-07-13T20:03:04.858Z</time>
      </trkpt>
      <trkpt lat="48.85735" lon="2.27486">
        <ele>117.6</ele>
        <time>2015-07-13T20:03:05.894Z</time>
      </trkpt>
      <trkpt lat="48.85731" lon="2.27487">
        <ele>118.3</ele>
        <time>2015-07-13T20:03:06.777Z</time>
      </trkpt>
      <trkpt lat="48.85726" lon="2.27487">
        <ele>118.9</ele>
        <time>2015-07-13T20:03:07.777Z</time>
      </trkpt>
      <trkpt lat="48.85721" lon="2.27485">
        <ele>119.5</ele>
        <time>2015-07-13T20:03:08.784Z</time>
      </trkpt>
      <trkpt lat="48.85716" lon="2.27484">
        <ele>119.8</ele>
        <time>2015-07-13T20:03:09.828Z</time>
      </trkpt>
      <trkpt lat="48.85711" lon="2.27484">
        <ele>120.6</ele>
        <time>2015-07-13T20:03:10.857Z</time>
      </trkpt>
      <trkpt lat="48.85706" lon="2.27483">
        <ele>121.2</ele>
        <time>2015-07-13T20:03:11.870Z</time>
      </trkpt>
      <trkpt lat="48.85697" lon="2.27483">
        <ele>122</ele>
        <time>2015-07-13T20:03:13.793Z</time>
      </trkpt>
      <trkpt lat="48.85693" lon="2.27482">
        <ele>122.3</ele>
        <time>2015-07-13T20:03:14.812Z</time>
      </trkpt>
      <trkpt lat="48.85685" lon="2.27482">
        <ele>122.7</ele>
        <time>2015-07-13T20:03:16.844Z</time>
      </trkpt>
      <trkpt lat="48.85682" lon="2.27482">
        <ele>122.5</ele>
        <time>2015-07-13T20:03:17.878Z</time>
      </trkpt>
      <trkpt lat="48.85674" lon="2.27482">
        <ele>122.4</ele>
        <time>2015-07-13T20:03:19.791Z</time>
      </trkpt>
      <trkpt lat="48.8567" lon="2.27483">
        <ele>122.6</ele>
        <time>2015-07-13T20:03:20.814Z</time>
      </trkpt>
      <trkpt lat="48.85662" lon="2.27486">
        <ele>122.6</ele>
        <time>2015-07-13T20:03:22.791Z</time>
      </trkpt>
      <trkpt lat="48.85657" lon="2.27484">
        <ele>122.4</ele>
        <time>2015-07-13T20:03:23.921Z</time>
      </trkpt>
      <trkpt lat="48.85648" lon="2.27488">
        <ele>122.1</ele>
        <time>2015-07-13T20:03:25.816Z</time>
      </trkpt>
      <trkpt lat="48.85644" lon="2.27489">
        <ele>122.4</ele>
        <time>2015-07-13T20:03:26.872Z</time>
      </trkpt>
      <trkpt lat="48.85636" lon="2.27494">
        <ele>122.9</ele>
        <time>2015-07-13T20:03:28.820Z</time>
      </trkpt>
      <trkpt lat="48.85632" lon="2.27495">
        <ele>123.5</ele>
        <time>2015-07-13T20:03:29.920Z</time>
      </trkpt>
      <trkpt lat="48.85623" lon="2.27498">
        <ele>124</ele>
        <time>2015-07-13T20:03:31.787Z</time>
      </trkpt>
      <trkpt lat="48.85619" lon="2.27501">
        <ele>123.6</ele>
        <time>2015-07-13T20:03:32.824Z</time>
      </trkpt>
      <trkpt lat="48.85614" lon="2.27501">
        <ele>123.7</ele>
        <time>2015-07-13T20:03:33.792Z</time>
      </trkpt>
      <trkpt lat="48.85609" lon="2.27502">
        <ele>123.8</ele>
        <time>2015-07-13T20:03:34.796Z</time>
      </trkpt>
      <trkpt lat="48.85604" lon="2.27502">
        <ele>123.6</ele>
        <time>2015-07-13T20:03:35.837Z</time>
      </trkpt>
      <trkpt lat="48.85599" lon="2.27503">
        <ele>123.6</ele>
        <time>2015-07-13T20:03:36.830Z</time>
      </trkpt>
      <trkpt lat="48.85594" lon="2.27505">
        <ele>123.5</ele>
        <time>2015-07-13T20:03:37.835Z</time>
      </trkpt>
      <trkpt lat="48.85589" lon="2.27506">
        <ele>123.6</ele>
        <time>2015-07-13T20:03:38.858Z</time>
      </trkpt>
      <trkpt lat="48.85584" lon="2.27507">
        <ele>123.7</ele>
        <time>2015-07-13T20:03:39.784Z</time>
      </trkpt>
      <trkpt lat="48.85579" lon="2.27509">
        <ele>123.7</ele>
        <time>2015-07-13T20:03:40.808Z</time>
      </trkpt>
      <trkpt lat="48.85573" lon="2.27511">
        <ele>123.9</ele>
        <time>2015-07-13T20:03:41.849Z</time>
      </trkpt>
      <trkpt lat="48.85568" lon="2.27513">
        <ele>124</ele>
        <time>2015-07-13T20:03:42.745Z</time>
      </trkpt>
      <trkpt lat="48.85563" lon="2.27515">
        <ele>124</ele>
        <time>2015-07-13T20:03:43.759Z</time>
      </trkpt>
      <trkpt lat="48.85558" lon="2.27516">
        <ele>124</ele>
        <time>2015-07-13T20:03:44.782Z</time>
      </trkpt>
      <trkpt lat="48.85553" lon="2.2752">
        <ele>124.2</ele>
        <time>2015-07-13T20:03:45.811Z</time>
      </trkpt>
      <trkpt lat="48.85548" lon="2.27522">
        <ele>123.9</ele>
        <time>2015-07-13T20:03:46.854Z</time>
      </trkpt>
      <trkpt lat="48.85543" lon="2.27525">
        <ele>123.6</ele>
        <time>2015-07-13T20:03:47.871Z</time>
      </trkpt>
      <trkpt lat="48.85538" lon="2.27526">
        <ele>123.3</ele>
        <time>2015-07-13T20:03:48.781Z</time>
      </trkpt>
      <trkpt lat="48.85533" lon="2.27527">
        <ele>123</ele>
        <time>2015-07-13T20:03:49.802Z</time>
      </trkpt>
      <trkpt lat="48.85528" lon="2.27529">
        <ele>122.8</ele>
        <time>2015-07-13T20:03:50.832Z</time>
      </trkpt>
      <trkpt lat="48.85523" lon="2.2753">
        <ele>122.8</ele>
        <time>2015-07-13T20:03:51.841Z</time>
      </trkpt>
      <trkpt lat="48.85518" lon="2.27531">
        <ele>122.7</ele>
        <time>2015-07-13T20:03:52.856Z</time>
      </trkpt>
      <trkpt lat="48.85513" lon="2.27532">
        <ele>122.6</ele>
        <time>2015-07-13T20:03:53.861Z</time>
      </trkpt>
      <trkpt lat="48.85507" lon="2.27535">
        <ele>122.3</ele>
        <time>2015-07-13T20:03:54.787Z</time>
      </trkpt>
      <trkpt lat="48.85502" lon="2.27537">
        <ele>122.1</ele>
        <time>2015-07-13T20:03:55.775Z</time>
      </trkpt>
      <trkpt lat="48.85496" lon="2.2754">
        <ele>121.9</ele>
        <time>2015-07-13T20:03:56.783Z</time>
      </trkpt>
      <trkpt lat="48.85491" lon="2.27543">
        <ele>121.7</ele>
        <time>2015-07-13T20:03:57.793Z</time>
      </trkpt>
      <trkpt lat="48.85485" lon="2.27546">
        <ele>121.6</ele>
        <time>2015-07-13T20:03:58.817Z</time>
      </trkpt>
      <trkpt lat="48.85479" lon="2.27547">
        <ele>121.4</ele>
        <time>2015-07-13T20:03:59.827Z</time>
      </trkpt>
      <trkpt lat="48.85472" lon="2.27548">
        <ele>121.3</ele>
        <time>2015-07-13T20:04:00.840Z</time>
      </trkpt>
      <trkpt lat="48.85466" lon="2.27549">
        <ele>121.3</ele>
        <time>2015-07-13T20:04:01.737Z</time>
      </trkpt>
      <trkpt lat="48.8546" lon="2.2755">
        <ele>121.2</ele>
        <time>2015-07-13T20:04:02.755Z</time>
      </trkpt>
      <trkpt lat="48.85454" lon="2.27552">
        <ele>121.5</ele>
        <time>2015-07-13T20:04:03.764Z</time>
      </trkpt>
      <trkpt lat="48.85448" lon="2.27553">
        <ele>121.5</ele>
        <time>2015-07-13T20:04:04.867Z</time>
      </trkpt>
      <trkpt lat="48.85442" lon="2.27555">
        <ele>121.5</ele>
        <time>2015-07-13T20:04:05.807Z</time>
      </trkpt>
      <trkpt lat="48.85436" lon="2.27556">
        <ele>121.4</ele>
        <time>2015-07-13T20:04:06.802Z</time>
      </trkpt>
      <trkpt lat="48.8543" lon="2.27557">
        <ele>121.4</ele>
        <time>2015-07-13T20:04:07.816Z</time>
      </trkpt>
      <trkpt lat="48.85423" lon="2.27558">
        <ele>121.3</ele>
        <time>2015-07-13T20:04:08.828Z</time>
      </trkpt>
      <trkpt lat="48.85417" lon="2.27558">
        <ele>121.1</ele>
        <time>2015-07-13T20:04:09.756Z</time>
      </trkpt>
      <trkpt lat="48.8541" lon="2.27559">
        <ele>120.9</ele>
        <time>2015-07-13T20:04:10.851Z</time>
      </trkpt>
      <trkpt lat="48.85404" lon="2.27558">
        <ele>120.6</ele>
        <time>2015-07-13T20:04:11.858Z</time>
      </trkpt>
      <trkpt lat="48.85399" lon="2.2756">
        <ele>120.2</ele>
        <time>2015-07-13T20:04:12.768Z</time>
      </trkpt>
      <trkpt lat="48.85392" lon="2.27561">
        <ele>120.5</ele>
        <time>2015-07-13T20:04:13.774Z</time>
      </trkpt>
      <trkpt lat="48.85386" lon="2.27562">
        <ele>120</ele>
        <time>2015-07-13T20:04:14.779Z</time>
      </trkpt>
      <trkpt lat="48.8538" lon="2.27563">
        <ele>119.5</ele>
        <time>2015-07-13T20:04:15.783Z</time>
      </trkpt>
      <trkpt lat="48.85374" lon="2.27565">
        <ele>119.4</ele>
        <time>2015-07-13T20:04:16.798Z</time>
      </trkpt>
      <trkpt lat="48.85367" lon="2.27566">
        <ele>119.1</ele>
        <time>2015-07-13T20:04:17.814Z</time>
      </trkpt>
      <trkpt lat="48.85361" lon="2.27567">
        <ele>119.1</ele>
        <time>2015-07-13T20:04:18.816Z</time>
      </trkpt>
      <trkpt lat="48.85354" lon="2.27568">
        <ele>119.2</ele>
        <time>2015-07-13T20:04:19.829Z</time>
      </trkpt>
      <trkpt lat="48.85349" lon="2.2757">
        <ele>119.3</ele>
        <time>2015-07-13T20:04:20.767Z</time>
      </trkpt>
      <trkpt lat="48.85342" lon="2.27572">
        <ele>119.1</ele>
        <time>2015-07-13T20:04:21.772Z</time>
      </trkpt>
      <trkpt lat="48.85337" lon="2.27576">
        <ele>119.1</ele>
        <time>2015-07-13T20:04:22.781Z</time>
      </trkpt>
      <trkpt lat="48.8533" lon="2.27579">
        <ele>118.8</ele>
        <time>2015-07-13T20:04:23.805Z</time>
      </trkpt>
      <trkpt lat="48.85323" lon="2.27579">
        <ele>118.6</ele>
        <time>2015-07-13T20:04:24.817Z</time>
      </trkpt>
      <trkpt lat="48.85316" lon="2.2758">
        <ele>118.2</ele>
        <time>2015-07-13T20:04:25.843Z</time>
      </trkpt>
      <trkpt lat="48.85309" lon="2.27581">
        <ele>118.4</ele>
        <time>2015-07-13T20:04:26.769Z</time>
      </trkpt>
      <trkpt lat="48.85304" lon="2.2758">
        <ele>118.5</ele>
        <time>2015-07-13T20:04:27.773Z</time>
      </trkpt>
      <trkpt lat="48.85298" lon="2.27579">
        <ele>118.6</ele>
        <time>2015-07-13T20:04:28.784Z</time>
      </trkpt>
      <trkpt lat="48.85291" lon="2.27579">
        <ele>118.5</ele>
        <time>2015-07-13T20:04:29.882Z</time>
      </trkpt>
      <trkpt lat="48.85285" lon="2.2758">
        <ele>118.2</ele>
        <time>2015-07-13T20:04:30.754Z</time>
      </trkpt>
      <trkpt lat="48.8528" lon="2.2758">
        <ele>117.9</ele>
        <time>2015-07-13T20:04:31.771Z</time>
      </trkpt>
      <trkpt lat="48.85274" lon="2.27582">
        <ele>117.5</ele>
        <time>2015-07-13T20:04:32.805Z</time>
      </trkpt>
      <trkpt lat="48.85269" lon="2.27585">
        <ele>116.2</ele>
        <time>2015-07-13T20:04:33.831Z</time>
      </trkpt>
      <trkpt lat="48.85268" lon="2.27593">
        <ele>111.1</ele>
        <time>2015-07-13T20:04:34.842Z</time>
      </trkpt>
      <trkpt lat="48.85266" lon="2.27601">
        <ele>106.8</ele>
        <time>2015-07-13T20:04:35.860Z</time>
      </trkpt>
      <trkpt lat="48.85264" lon="2.27607">
        <ele>104.4</ele>
        <time>2015-07-13T20:04:36.870Z</time>
      </trkpt>
      <trkpt lat="48.85261" lon="2.27612">
        <ele>104.1</ele>
        <time>2015-07-13T20:04:37.787Z</time>
      </trkpt>
      <trkpt lat="48.85257" lon="2.27618">
        <ele>103.3</ele>
        <time>2015-07-13T20:04:38.791Z</time>
      </trkpt>
      <trkpt lat="48.85254" lon="2.27627">
        <ele>102.1</ele>
        <time>2015-07-13T20:04:39.807Z</time>
      </trkpt>
      <trkpt lat="48.85249" lon="2.27636">
        <ele>101.9</ele>
        <time>2015-07-13T20:04:40.818Z</time>
      </trkpt>
      <trkpt lat="48.85244" lon="2.27645">
        <ele>101.9</ele>
        <time>2015-07-13T20:04:41.840Z</time>
      </trkpt>
      <trkpt lat="48.8524" lon="2.27652">
        <ele>101.8</ele>
        <time>2015-07-13T20:04:42.840Z</time>
      </trkpt>
      <trkpt lat="48.85236" lon="2.27661">
        <ele>102.5</ele>
        <time>2015-07-13T20:04:43.778Z</time>
      </trkpt>
      <trkpt lat="48.85231" lon="2.27667">
        <ele>102.8</ele>
        <time>2015-07-13T20:04:44.779Z</time>
      </trkpt>
      <trkpt lat="48.85226" lon="2.27675">
        <ele>103.5</ele>
        <time>2015-07-13T20:04:45.776Z</time>
      </trkpt>
      <trkpt lat="48.85219" lon="2.27688">
        <ele>105.8</ele>
        <time>2015-07-13T20:04:46.788Z</time>
      </trkpt>
      <trkpt lat="48.85213" lon="2.27705">
        <ele>108.8</ele>
        <time>2015-07-13T20:04:47.819Z</time>
      </trkpt>
      <trkpt lat="48.85207" lon="2.27719">
        <ele>110.7</ele>
        <time>2015-07-13T20:04:48.834Z</time>
      </trkpt>
      <trkpt lat="48.85207" lon="2.27727">
        <ele>111.9</ele>
        <time>2015-07-13T20:04:49.834Z</time>
      </trkpt>
      <trkpt lat="48.85206" lon="2.27734">
        <ele>112.2</ele>
        <time>2015-07-13T20:04:50.840Z</time>
      </trkpt>
      <trkpt lat="48.85205" lon="2.27741">
        <ele>112.8</ele>
        <time>2015-07-13T20:04:51.782Z</time>
      </trkpt>
      <trkpt lat="48.85203" lon="2.27748">
        <ele>113.2</ele>
        <time>2015-07-13T20:04:52.775Z</time>
      </trkpt>
      <trkpt lat="48.852" lon="2.27753">
        <ele>113.2</ele>
        <time>2015-07-13T20:04:53.847Z</time>
      </trkpt>
      <trkpt lat="48.85197" lon="2.27759">
        <ele>112.7</ele>
        <time>2015-07-13T20:04:54.767Z</time>
      </trkpt>
      <trkpt lat="48.85191" lon="2.27769">
        <ele>111.8</ele>
        <time>2015-07-13T20:04:55.782Z</time>
      </trkpt>
      <trkpt lat="48.85184" lon="2.27779">
        <ele>111</ele>
        <time>2015-07-13T20:04:56.790Z</time>
      </trkpt>
      <trkpt lat="48.85178" lon="2.27789">
        <ele>111.5</ele>
        <time>2015-07-13T20:04:57.773Z</time>
      </trkpt>
      <trkpt lat="48.85172" lon="2.27797">
        <ele>111.2</ele>
        <time>2015-07-13T20:04:58.781Z</time>
      </trkpt>
      <trkpt lat="48.85168" lon="2.27807">
        <ele>110.5</ele>
        <time>2015-07-13T20:04:59.959Z</time>
      </trkpt>
      <trkpt lat="48.85163" lon="2.27813">
        <ele>110.1</ele>
        <time>2015-07-13T20:05:00.751Z</time>
      </trkpt>
      <trkpt lat="48.85159" lon="2.2782">
        <ele>109.6</ele>
        <time>2015-07-13T20:05:01.781Z</time>
      </trkpt>
      <trkpt lat="48.85154" lon="2.27826">
        <ele>109.5</ele>
        <time>2015-07-13T20:05:02.789Z</time>
      </trkpt>
      <trkpt lat="48.8515" lon="2.27831">
        <ele>109.4</ele>
        <time>2015-07-13T20:05:03.800Z</time>
      </trkpt>
      <trkpt lat="48.85146" lon="2.27836">
        <ele>109.4</ele>
        <time>2015-07-13T20:05:04.829Z</time>
      </trkpt>
      <trkpt lat="48.85142" lon="2.2784">
        <ele>109.3</ele>
        <time>2015-07-13T20:05:05.849Z</time>
      </trkpt>
      <trkpt lat="48.85136" lon="2.27849">
        <ele>107.3</ele>
        <time>2015-07-13T20:05:07.875Z</time>
      </trkpt>
      <trkpt lat="48.85134" lon="2.27852">
        <ele>107</ele>
        <time>2015-07-13T20:05:08.816Z</time>
      </trkpt>
      <trkpt lat="48.85131" lon="2.27861">
        <ele>105.6</ele>
        <time>2015-07-13T20:05:10.794Z</time>
      </trkpt>
      <trkpt lat="48.85129" lon="2.27866">
        <ele>105.6</ele>
        <time>2015-07-13T20:05:11.834Z</time>
      </trkpt>
      <trkpt lat="48.85122" lon="2.27874">
        <ele>103.5</ele>
        <time>2015-07-13T20:05:19.806Z</time>
      </trkpt>
      <trkpt lat="48.85122" lon="2.27876">
        <ele>103.8</ele>
        <time>2015-07-13T20:05:20.827Z</time>
      </trkpt>
      <trkpt lat="48.85119" lon="2.27885">
        <ele>104.2</ele>
        <time>2015-07-13T20:05:23.896Z</time>
      </trkpt>
      <trkpt lat="48.85112" lon="2.27893">
        <ele>103.4</ele>
        <time>2015-07-13T20:05:24.801Z</time>
      </trkpt>
      <trkpt lat="48.85105" lon="2.27899">
        <ele>102.8</ele>
        <time>2015-07-13T20:05:25.814Z</time>
      </trkpt>
      <trkpt lat="48.85099" lon="2.27904">
        <ele>102.6</ele>
        <time>2015-07-13T20:05:26.829Z</time>
      </trkpt>
      <trkpt lat="48.85094" lon="2.27909">
        <ele>102.2</ele>
        <time>2015-07-13T20:05:27.846Z</time>
      </trkpt>
      <trkpt lat="48.85091" lon="2.27912">
        <ele>101.9</ele>
        <time>2015-07-13T20:05:28.863Z</time>
      </trkpt>
      <trkpt lat="48.85086" lon="2.27918">
        <ele>101.6</ele>
        <time>2015-07-13T20:05:29.885Z</time>
      </trkpt>
      <trkpt lat="48.85082" lon="2.27924">
        <ele>101.2</ele>
        <time>2015-07-13T20:05:30.786Z</time>
      </trkpt>
      <trkpt lat="48.85077" lon="2.27931">
        <ele>101.3</ele>
        <time>2015-07-13T20:05:31.784Z</time>
      </trkpt>
      <trkpt lat="48.85072" lon="2.27938">
        <ele>101.2</ele>
        <time>2015-07-13T20:05:32.837Z</time>
      </trkpt>
      <trkpt lat="48.85068" lon="2.27944">
        <ele>101.2</ele>
        <time>2015-07-13T20:05:33.854Z</time>
      </trkpt>
      <trkpt lat="48.85063" lon="2.27951">
        <ele>101.1</ele>
        <time>2015-07-13T20:05:34.778Z</time>
      </trkpt>
      <trkpt lat="48.85059" lon="2.27958">
        <ele>100.6</ele>
        <time>2015-07-13T20:05:35.882Z</time>
      </trkpt>
      <trkpt lat="48.85054" lon="2.27965">
        <ele>100.5</ele>
        <time>2015-07-13T20:05:36.805Z</time>
      </trkpt>
      <trkpt lat="48.85049" lon="2.27972">
        <ele>100.4</ele>
        <time>2015-07-13T20:05:37.799Z</time>
      </trkpt>
      <trkpt lat="48.85044" lon="2.2798">
        <ele>100.6</ele>
        <time>2015-07-13T20:05:38.807Z</time>
      </trkpt>
      <trkpt lat="48.85039" lon="2.27989">
        <ele>100.6</ele>
        <time>2015-07-13T20:05:39.839Z</time>
      </trkpt>
      <trkpt lat="48.85034" lon="2.27996">
        <ele>100.4</ele>
        <time>2015-07-13T20:05:40.854Z</time>
      </trkpt>
      <trkpt lat="48.85029" lon="2.28004">
        <ele>99.9</ele>
        <time>2015-07-13T20:05:41.862Z</time>
      </trkpt>
      <trkpt lat="48.85024" lon="2.28013">
        <ele>99.2</ele>
        <time>2015-07-13T20:05:42.873Z</time>
      </trkpt>
      <trkpt lat="48.85019" lon="2.28021">
        <ele>99.3</ele>
        <time>2015-07-13T20:05:43.814Z</time>
      </trkpt>
      <trkpt lat="48.85014" lon="2.28028">
        <ele>98.9</ele>
        <time>2015-07-13T20:05:44.829Z</time>
      </trkpt>
      <trkpt lat="48.85009" lon="2.28035">
        <ele>98.5</ele>
        <time>2015-07-13T20:05:45.836Z</time>
      </trkpt>
      <trkpt lat="48.85005" lon="2.28042">
        <ele>98.2</ele>
        <time>2015-07-13T20:05:46.850Z</time>
      </trkpt>
      <trkpt lat="48.85" lon="2.28049">
        <ele>97.8</ele>
        <time>2015-07-13T20:05:47.863Z</time>
      </trkpt>
      <trkpt lat="48.84996" lon="2.28056">
        <ele>97.7</ele>
        <time>2015-07-13T20:05:48.804Z</time>
      </trkpt>
      <trkpt lat="48.84991" lon="2.28063">
        <ele>97</ele>
        <time>2015-07-13T20:05:49.806Z</time>
      </trkpt>
      <trkpt lat="48.84987" lon="2.2807">
        <ele>96.6</ele>
        <time>2015-07-13T20:05:50.889Z</time>
      </trkpt>
      <trkpt lat="48.84982" lon="2.28078">
        <ele>96.2</ele>
        <time>2015-07-13T20:05:51.804Z</time>
      </trkpt>
      <trkpt lat="48.84978" lon="2.28085">
        <ele>95.8</ele>
        <time>2015-07-13T20:05:52.830Z</time>
      </trkpt>
      <trkpt lat="48.84973" lon="2.28092">
        <ele>95.5</ele>
        <time>2015-07-13T20:05:53.851Z</time>
      </trkpt>
      <trkpt lat="48.84969" lon="2.28098">
        <ele>95.2</ele>
        <time>2015-07-13T20:05:54.849Z</time>
      </trkpt>
      <trkpt lat="48.84965" lon="2.28105">
        <ele>95.2</ele>
        <time>2015-07-13T20:05:55.769Z</time>
      </trkpt>
      <trkpt lat="48.84961" lon="2.28111">
        <ele>95.2</ele>
        <time>2015-07-13T20:05:56.812Z</time>
      </trkpt>
      <trkpt lat="48.84956" lon="2.28117">
        <ele>95.2</ele>
        <time>2015-07-13T20:05:57.822Z</time>
      </trkpt>
      <trkpt lat="48.84952" lon="2.28122">
        <ele>95.1</ele>
        <time>2015-07-13T20:05:58.826Z</time>
      </trkpt>
      <trkpt lat="48.84945" lon="2.2813">
        <ele>94.5</ele>
        <time>2015-07-13T20:06:01.773Z</time>
      </trkpt>
      <trkpt lat="48.84943" lon="2.28132">
        <ele>94.5</ele>
        <time>2015-07-13T20:06:02.792Z</time>
      </trkpt>
      <trkpt lat="48.84937" lon="2.28139">
        <ele>94.4</ele>
        <time>2015-07-13T20:06:05.880Z</time>
      </trkpt>
      <trkpt lat="48.84935" lon="2.28141">
        <ele>94.5</ele>
        <time>2015-07-13T20:06:06.814Z</time>
      </trkpt>
      <trkpt lat="48.8493" lon="2.28148">
        <ele>92.6</ele>
        <time>2015-07-13T20:06:22.879Z</time>
      </trkpt>
      <trkpt lat="48.84928" lon="2.28152">
        <ele>93.2</ele>
        <time>2015-07-13T20:06:23.983Z</time>
      </trkpt>
      <trkpt lat="48.84923" lon="2.28163">
        <ele>93.3</ele>
        <time>2015-07-13T20:06:26.916Z</time>
      </trkpt>
      <trkpt lat="48.84921" lon="2.28167">
        <ele>93.2</ele>
        <time>2015-07-13T20:06:27.846Z</time>
      </trkpt>
      <trkpt lat="48.84916" lon="2.28177">
        <ele>93</ele>
        <time>2015-07-13T20:06:29.891Z</time>
      </trkpt>
      <trkpt lat="48.84913" lon="2.28182">
        <ele>93.2</ele>
        <time>2015-07-13T20:06:30.938Z</time>
      </trkpt>
      <trkpt lat="48.8491" lon="2.28193">
        <ele>93.4</ele>
        <time>2015-07-13T20:06:32.870Z</time>
      </trkpt>
      <trkpt lat="48.84906" lon="2.28201">
        <ele>94.7</ele>
        <time>2015-07-13T20:06:33.779Z</time>
      </trkpt>
      <trkpt lat="48.849" lon="2.2821">
        <ele>96.7</ele>
        <time>2015-07-13T20:06:35.852Z</time>
      </trkpt>
      <trkpt lat="48.84898" lon="2.28214">
        <ele>97.4</ele>
        <time>2015-07-13T20:06:36.810Z</time>
      </trkpt>
      <trkpt lat="48.84894" lon="2.28223">
        <ele>98.8</ele>
        <time>2015-07-13T20:06:38.775Z</time>
      </trkpt>
      <trkpt lat="48.84891" lon="2.28227">
        <ele>99.1</ele>
        <time>2015-07-13T20:06:39.837Z</time>
      </trkpt>
      <trkpt lat="48.84887" lon="2.28233">
        <ele>99</ele>
        <time>2015-07-13T20:06:40.855Z</time>
      </trkpt>
      <trkpt lat="48.84883" lon="2.2824">
        <ele>99.2</ele>
        <time>2015-07-13T20:06:41.864Z</time>
      </trkpt>
      <trkpt lat="48.84881" lon="2.28245">
        <ele>99.5</ele>
        <time>2015-07-13T20:06:42.785Z</time>
      </trkpt>
      <trkpt lat="48.84878" lon="2.28252">
        <ele>99.8</ele>
        <time>2015-07-13T20:06:43.795Z</time>
      </trkpt>
      <trkpt lat="48.84874" lon="2.2826">
        <ele>100</ele>
        <time>2015-07-13T20:06:44.811Z</time>
      </trkpt>
      <trkpt lat="48.8487" lon="2.28269">
        <ele>100.3</ele>
        <time>2015-07-13T20:06:45.820Z</time>
      </trkpt>
      <trkpt lat="48.84866" lon="2.28274">
        <ele>100.8</ele>
        <time>2015-07-13T20:06:46.826Z</time>
      </trkpt>
      <trkpt lat="48.84862" lon="2.28279">
        <ele>101.1</ele>
        <time>2015-07-13T20:06:47.842Z</time>
      </trkpt>
      <trkpt lat="48.84859" lon="2.28287">
        <ele>101.6</ele>
        <time>2015-07-13T20:06:48.821Z</time>
      </trkpt>
      <trkpt lat="48.84856" lon="2.28298">
        <ele>102.6</ele>
        <time>2015-07-13T20:06:49.783Z</time>
      </trkpt>
      <trkpt lat="48.84851" lon="2.28307">
        <ele>102.5</ele>
        <time>2015-07-13T20:06:50.795Z</time>
      </trkpt>
      <trkpt lat="48.8483" lon="2.28355">
        <ele>102.7</ele>
        <time>2015-07-13T20:06:51.810Z</time>
      </trkpt>
      <trkpt lat="48.84827" lon="2.28364">
        <ele>103.1</ele>
        <time>2015-07-13T20:06:52.825Z</time>
      </trkpt>
      <trkpt lat="48.8482" lon="2.2837">
        <ele>103.2</ele>
        <time>2015-07-13T20:06:53.835Z</time>
      </trkpt>
      <trkpt lat="48.84814" lon="2.28379">
        <ele>103.3</ele>
        <time>2015-07-13T20:06:54.846Z</time>
      </trkpt>
      <trkpt lat="48.8481" lon="2.2839">
        <ele>103.3</ele>
        <time>2015-07-13T20:06:55.850Z</time>
      </trkpt>
      <trkpt lat="48.84804" lon="2.28399">
        <ele>103.3</ele>
        <time>2015-07-13T20:06:56.867Z</time>
      </trkpt>
      <trkpt lat="48.84797" lon="2.28407">
        <ele>103.4</ele>
        <time>2015-07-13T20:06:57.783Z</time>
      </trkpt>
      <trkpt lat="48.84788" lon="2.2841">
        <ele>105.9</ele>
        <time>2015-07-13T20:06:58.828Z</time>
      </trkpt>
      <trkpt lat="48.8478" lon="2.28418">
        <ele>106.1</ele>
        <time>2015-07-13T20:06:59.866Z</time>
      </trkpt>
      <trkpt lat="48.84773" lon="2.28425">
        <ele>106.2</ele>
        <time>2015-07-13T20:07:00.773Z</time>
      </trkpt>
      <trkpt lat="48.84768" lon="2.28432">
        <ele>106.1</ele>
        <time>2015-07-13T20:07:01.783Z</time>
      </trkpt>
      <trkpt lat="48.84762" lon="2.28438">
        <ele>106.9</ele>
        <time>2015-07-13T20:07:02.785Z</time>
      </trkpt>
      <trkpt lat="48.84755" lon="2.28444">
        <ele>108.1</ele>
        <time>2015-07-13T20:07:03.812Z</time>
      </trkpt>
      <trkpt lat="48.84749" lon="2.28452">
        <ele>108.8</ele>
        <time>2015-07-13T20:07:04.833Z</time>
      </trkpt>
      <trkpt lat="48.84742" lon="2.28461">
        <ele>109.4</ele>
        <time>2015-07-13T20:07:05.833Z</time>
      </trkpt>
      <trkpt lat="48.84736" lon="2.28469">
        <ele>109.7</ele>
        <time>2015-07-13T20:07:06.848Z</time>
      </trkpt>
      <trkpt lat="48.84729" lon="2.28477">
        <ele>109.9</ele>
        <time>2015-07-13T20:07:07.782Z</time>
      </trkpt>
      <trkpt lat="48.84723" lon="2.28485">
        <ele>110.2</ele>
        <time>2015-07-13T20:07:08.792Z</time>
      </trkpt>
      <trkpt lat="48.84716" lon="2.28492">
        <ele>110.6</ele>
        <time>2015-07-13T20:07:09.803Z</time>
      </trkpt>
      <trkpt lat="48.8471" lon="2.285">
        <ele>111.1</ele>
        <time>2015-07-13T20:07:10.832Z</time>
      </trkpt>
      <trkpt lat="48.84704" lon="2.28506">
        <ele>111.8</ele>
        <time>2015-07-13T20:07:11.850Z</time>
      </trkpt>
      <trkpt lat="48.84698" lon="2.28513">
        <ele>112.3</ele>
        <time>2015-07-13T20:07:12.849Z</time>
      </trkpt>
      <trkpt lat="48.84694" lon="2.28522">
        <ele>112.9</ele>
        <time>2015-07-13T20:07:13.858Z</time>
      </trkpt>
      <trkpt lat="48.84689" lon="2.28528">
        <ele>113.1</ele>
        <time>2015-07-13T20:07:14.743Z</time>
      </trkpt>
      <trkpt lat="48.84685" lon="2.28535">
        <ele>113.3</ele>
        <time>2015-07-13T20:07:15.775Z</time>
      </trkpt>
      <trkpt lat="48.84682" lon="2.28544">
        <ele>113.2</ele>
        <time>2015-07-13T20:07:16.775Z</time>
      </trkpt>
      <trkpt lat="48.84679" lon="2.28552">
        <ele>112.3</ele>
        <time>2015-07-13T20:07:17.822Z</time>
      </trkpt>
      <trkpt lat="48.84676" lon="2.28559">
        <ele>111.8</ele>
        <time>2015-07-13T20:07:18.832Z</time>
      </trkpt>
      <trkpt lat="48.84674" lon="2.28566">
        <ele>111.2</ele>
        <time>2015-07-13T20:07:19.838Z</time>
      </trkpt>
      <trkpt lat="48.84672" lon="2.28571">
        <ele>110.1</ele>
        <time>2015-07-13T20:07:20.863Z</time>
      </trkpt>
      <trkpt lat="48.84668" lon="2.2858">
        <ele>110.1</ele>
        <time>2015-07-13T20:07:22.767Z</time>
      </trkpt>
      <trkpt lat="48.84666" lon="2.28583">
        <ele>110.1</ele>
        <time>2015-07-13T20:07:23.845Z</time>
      </trkpt>
      <trkpt lat="48.84662" lon="2.2859">
        <ele>110.2</ele>
        <time>2015-07-13T20:07:25.783Z</time>
      </trkpt>
      <trkpt lat="48.84659" lon="2.28596">
        <ele>111.4</ele>
        <time>2015-07-13T20:07:26.800Z</time>
      </trkpt>
      <trkpt lat="48.84653" lon="2.28603">
        <ele>113.5</ele>
        <time>2015-07-13T20:07:28.849Z</time>
      </trkpt>
      <trkpt lat="48.8465" lon="2.28606">
        <ele>114.2</ele>
        <time>2015-07-13T20:07:29.894Z</time>
      </trkpt>
      <trkpt lat="48.84646" lon="2.28612">
        <ele>115.1</ele>
        <time>2015-07-13T20:07:31.787Z</time>
      </trkpt>
      <trkpt lat="48.84643" lon="2.28617">
        <ele>116.3</ele>
        <time>2015-07-13T20:07:32.798Z</time>
      </trkpt>
      <trkpt lat="48.84641" lon="2.28628">
        <ele>114.4</ele>
        <time>2015-07-13T20:07:41.848Z</time>
      </trkpt>
      <trkpt lat="48.84637" lon="2.28634">
        <ele>113.2</ele>
        <time>2015-07-13T20:07:42.801Z</time>
      </trkpt>
      <trkpt lat="48.8463" lon="2.28638">
        <ele>112.4</ele>
        <time>2015-07-13T20:07:44.775Z</time>
      </trkpt>
      <trkpt lat="48.84627" lon="2.2864">
        <ele>112.3</ele>
        <time>2015-07-13T20:07:45.815Z</time>
      </trkpt>
      <trkpt lat="48.84622" lon="2.28651">
        <ele>112.8</ele>
        <time>2015-07-13T20:07:47.866Z</time>
      </trkpt>
      <trkpt lat="48.8462" lon="2.28656">
        <ele>113.1</ele>
        <time>2015-07-13T20:07:48.803Z</time>
      </trkpt>
      <trkpt lat="48.84615" lon="2.28666">
        <ele>113.2</ele>
        <time>2015-07-13T20:07:50.787Z</time>
      </trkpt>
      <trkpt lat="48.84612" lon="2.2867">
        <ele>112.8</ele>
        <time>2015-07-13T20:07:51.801Z</time>
      </trkpt>
      <trkpt lat="48.84608" lon="2.28676">
        <ele>112.6</ele>
        <time>2015-07-13T20:07:52.810Z</time>
      </trkpt>
      <trkpt lat="48.84605" lon="2.28682">
        <ele>112.4</ele>
        <time>2015-07-13T20:07:53.870Z</time>
      </trkpt>
      <trkpt lat="48.846" lon="2.28693">
        <ele>112.3</ele>
        <time>2015-07-13T20:07:55.801Z</time>
      </trkpt>
      <trkpt lat="48.84597" lon="2.28699">
        <ele>112.2</ele>
        <time>2015-07-13T20:07:56.840Z</time>
      </trkpt>
      <trkpt lat="48.84595" lon="2.28708">
        <ele>112.3</ele>
        <time>2015-07-13T20:07:57.777Z</time>
      </trkpt>
      <trkpt lat="48.84591" lon="2.28716">
        <ele>112.3</ele>
        <time>2015-07-13T20:07:58.776Z</time>
      </trkpt>
      <trkpt lat="48.84585" lon="2.28729">
        <ele>112.5</ele>
        <time>2015-07-13T20:07:59.860Z</time>
      </trkpt>
      <trkpt lat="48.8458" lon="2.28738">
        <ele>113.2</ele>
        <time>2015-07-13T20:08:00.858Z</time>
      </trkpt>
      <trkpt lat="48.84576" lon="2.28746">
        <ele>113</ele>
        <time>2015-07-13T20:08:01.812Z</time>
      </trkpt>
      <trkpt lat="48.84573" lon="2.28754">
        <ele>112.8</ele>
        <time>2015-07-13T20:08:02.826Z</time>
      </trkpt>
      <trkpt lat="48.8457" lon="2.28762">
        <ele>112.6</ele>
        <time>2015-07-13T20:08:03.830Z</time>
      </trkpt>
      <trkpt lat="48.84568" lon="2.28769">
        <ele>112.6</ele>
        <time>2015-07-13T20:08:04.839Z</time>
      </trkpt>
      <trkpt lat="48.84567" lon="2.28776">
        <ele>112.5</ele>
        <time>2015-07-13T20:08:05.847Z</time>
      </trkpt>
      <trkpt lat="48.84567" lon="2.28784">
        <ele>112</ele>
        <time>2015-07-13T20:08:06.765Z</time>
      </trkpt>
      <trkpt lat="48.84565" lon="2.28791">
        <ele>111.9</ele>
        <time>2015-07-13T20:08:07.783Z</time>
      </trkpt>
      <trkpt lat="48.84561" lon="2.28799">
        <ele>112.3</ele>
        <time>2015-07-13T20:08:08.806Z</time>
      </trkpt>
      <trkpt lat="48.84557" lon="2.28806">
        <ele>112.1</ele>
        <time>2015-07-13T20:08:09.813Z</time>
      </trkpt>
      <trkpt lat="48.84555" lon="2.28815">
        <ele>111.9</ele>
        <time>2015-07-13T20:08:10.833Z</time>
      </trkpt>
      <trkpt lat="48.84551" lon="2.2882">
        <ele>111.8</ele>
        <time>2015-07-13T20:08:11.847Z</time>
      </trkpt>
      <trkpt lat="48.84546" lon="2.28831">
        <ele>111.2</ele>
        <time>2015-07-13T20:08:13.763Z</time>
      </trkpt>
      <trkpt lat="48.84543" lon="2.28836">
        <ele>111.1</ele>
        <time>2015-07-13T20:08:14.774Z</time>
      </trkpt>
      <trkpt lat="48.8454" lon="2.28842">
        <ele>110.8</ele>
        <time>2015-07-13T20:08:15.801Z</time>
      </trkpt>
      <trkpt lat="48.84537" lon="2.28848">
        <ele>110.7</ele>
        <time>2015-07-13T20:08:16.848Z</time>
      </trkpt>
      <trkpt lat="48.84534" lon="2.28855">
        <ele>110.6</ele>
        <time>2015-07-13T20:08:17.869Z</time>
      </trkpt>
      <trkpt lat="48.8453" lon="2.28862">
        <ele>110.6</ele>
        <time>2015-07-13T20:08:18.767Z</time>
      </trkpt>
      <trkpt lat="48.84527" lon="2.28869">
        <ele>110.7</ele>
        <time>2015-07-13T20:08:19.787Z</time>
      </trkpt>
      <trkpt lat="48.84525" lon="2.28877">
        <ele>110.9</ele>
        <time>2015-07-13T20:08:20.799Z</time>
      </trkpt>
      <trkpt lat="48.84522" lon="2.28884">
        <ele>111.2</ele>
        <time>2015-07-13T20:08:21.814Z</time>
      </trkpt>
      <trkpt lat="48.84521" lon="2.2889">
        <ele>111</ele>
        <time>2015-07-13T20:08:22.821Z</time>
      </trkpt>
      <trkpt lat="48.8452" lon="2.28897">
        <ele>110.9</ele>
        <time>2015-07-13T20:08:23.842Z</time>
      </trkpt>
      <trkpt lat="48.84518" lon="2.28904">
        <ele>110.8</ele>
        <time>2015-07-13T20:08:24.771Z</time>
      </trkpt>
      <trkpt lat="48.84518" lon="2.28912">
        <ele>110.7</ele>
        <time>2015-07-13T20:08:25.769Z</time>
      </trkpt>
      <trkpt lat="48.84517" lon="2.28921">
        <ele>110.3</ele>
        <time>2015-07-13T20:08:26.765Z</time>
      </trkpt>
      <trkpt lat="48.84514" lon="2.28928">
        <ele>110.5</ele>
        <time>2015-07-13T20:08:27.775Z</time>
      </trkpt>
      <trkpt lat="48.84512" lon="2.28935">
        <ele>110.8</ele>
        <time>2015-07-13T20:08:28.781Z</time>
      </trkpt>
      <trkpt lat="48.8451" lon="2.2894">
        <ele>110.6</ele>
        <time>2015-07-13T20:08:29.839Z</time>
      </trkpt>
      <trkpt lat="48.84508" lon="2.28947">
        <ele>110.8</ele>
        <time>2015-07-13T20:08:30.829Z</time>
      </trkpt>
      <trkpt lat="48.84506" lon="2.28953">
        <ele>111.2</ele>
        <time>2015-07-13T20:08:31.759Z</time>
      </trkpt>
      <trkpt lat="48.84503" lon="2.2896">
        <ele>111.6</ele>
        <time>2015-07-13T20:08:32.765Z</time>
      </trkpt>
      <trkpt lat="48.845" lon="2.28966">
        <ele>111.9</ele>
        <time>2015-07-13T20:08:33.766Z</time>
      </trkpt>
      <trkpt lat="48.84496" lon="2.28971">
        <ele>112.1</ele>
        <time>2015-07-13T20:08:34.770Z</time>
      </trkpt>
      <trkpt lat="48.8449" lon="2.28978">
        <ele>111.7</ele>
        <time>2015-07-13T20:08:35.795Z</time>
      </trkpt>
      <trkpt lat="48.84488" lon="2.28982">
        <ele>111.8</ele>
        <time>2015-07-13T20:08:36.796Z</time>
      </trkpt>
      <trkpt lat="48.84482" lon="2.28993">
        <ele>111.3</ele>
        <time>2015-07-13T20:08:38.819Z</time>
      </trkpt>
      <trkpt lat="48.84479" lon="2.28998">
        <ele>111.2</ele>
        <time>2015-07-13T20:08:39.832Z</time>
      </trkpt>
      <trkpt lat="48.84477" lon="2.29008">
        <ele>110.5</ele>
        <time>2015-07-13T20:08:41.846Z</time>
      </trkpt>
      <trkpt lat="48.84476" lon="2.29012">
        <ele>110.3</ele>
        <time>2015-07-13T20:08:42.795Z</time>
      </trkpt>
      <trkpt lat="48.84474" lon="2.29024">
        <ele>108.5</ele>
        <time>2015-07-13T20:08:44.837Z</time>
      </trkpt>
      <trkpt lat="48.84471" lon="2.2903">
        <ele>107.7</ele>
        <time>2015-07-13T20:08:45.857Z</time>
      </trkpt>
      <trkpt lat="48.84466" lon="2.29037">
        <ele>107.7</ele>
        <time>2015-07-13T20:08:47.813Z</time>
      </trkpt>
      <trkpt lat="48.84463" lon="2.29043">
        <ele>107.8</ele>
        <time>2015-07-13T20:08:48.846Z</time>
      </trkpt>
      <trkpt lat="48.8446" lon="2.29051">
        <ele>108.6</ele>
        <time>2015-07-13T20:08:50.858Z</time>
      </trkpt>
      <trkpt lat="48.84458" lon="2.29057">
        <ele>108.9</ele>
        <time>2015-07-13T20:08:51.840Z</time>
      </trkpt>
      <trkpt lat="48.84456" lon="2.29062">
        <ele>109.1</ele>
        <time>2015-07-13T20:08:52.795Z</time>
      </trkpt>
      <trkpt lat="48.84454" lon="2.2907">
        <ele>109.9</ele>
        <time>2015-07-13T20:08:53.847Z</time>
      </trkpt>
      <trkpt lat="48.84452" lon="2.29077">
        <ele>110.8</ele>
        <time>2015-07-13T20:08:54.838Z</time>
      </trkpt>
      <trkpt lat="48.84451" lon="2.29083">
        <ele>111.5</ele>
        <time>2015-07-13T20:08:55.857Z</time>
      </trkpt>
      <trkpt lat="48.84449" lon="2.29089">
        <ele>111.9</ele>
        <time>2015-07-13T20:08:56.871Z</time>
      </trkpt>
      <trkpt lat="48.84446" lon="2.29095">
        <ele>112.4</ele>
        <time>2015-07-13T20:08:57.756Z</time>
      </trkpt>
      <trkpt lat="48.84443" lon="2.29101">
        <ele>112.7</ele>
        <time>2015-07-13T20:08:58.795Z</time>
      </trkpt>
      <trkpt lat="48.8444" lon="2.29109">
        <ele>113.2</ele>
        <time>2015-07-13T20:08:59.904Z</time>
      </trkpt>
      <trkpt lat="48.84438" lon="2.29117">
        <ele>113.6</ele>
        <time>2015-07-13T20:09:00.743Z</time>
      </trkpt>
      <trkpt lat="48.84436" lon="2.29123">
        <ele>113.9</ele>
        <time>2015-07-13T20:09:01.751Z</time>
      </trkpt>
      <trkpt lat="48.84433" lon="2.2913">
        <ele>114</ele>
        <time>2015-07-13T20:09:02.622Z</time>
      </trkpt>
      <trkpt lat="48.8443" lon="2.29137">
        <ele>114.4</ele>
        <time>2015-07-13T20:09:03.798Z</time>
      </trkpt>
      <trkpt lat="48.84427" lon="2.29143">
        <ele>114.8</ele>
        <time>2015-07-13T20:09:04.861Z</time>
      </trkpt>
      <trkpt lat="48.84425" lon="2.29149">
        <ele>115.1</ele>
        <time>2015-07-13T20:09:05.870Z</time>
      </trkpt>
      <trkpt lat="48.84422" lon="2.29154">
        <ele>115.1</ele>
        <time>2015-07-13T20:09:06.764Z</time>
      </trkpt>
      <trkpt lat="48.84418" lon="2.2916">
        <ele>115.2</ele>
        <time>2015-07-13T20:09:07.757Z</time>
      </trkpt>
      <trkpt lat="48.84415" lon="2.29167">
        <ele>115.3</ele>
        <time>2015-07-13T20:09:08.800Z</time>
      </trkpt>
      <trkpt lat="48.84413" lon="2.29175">
        <ele>115.5</ele>
        <time>2015-07-13T20:09:09.815Z</time>
      </trkpt>
      <trkpt lat="48.84409" lon="2.29182">
        <ele>115.4</ele>
        <time>2015-07-13T20:09:10.810Z</time>
      </trkpt>
      <trkpt lat="48.84407" lon="2.29187">
        <ele>115.5</ele>
        <time>2015-07-13T20:09:11.820Z</time>
      </trkpt>
      <trkpt lat="48.84404" lon="2.29193">
        <ele>115.2</ele>
        <time>2015-07-13T20:09:12.755Z</time>
      </trkpt>
      <trkpt lat="48.84401" lon="2.292">
        <ele>114.9</ele>
        <time>2015-07-13T20:09:13.806Z</time>
      </trkpt>
      <trkpt lat="48.84399" lon="2.29207">
        <ele>114.9</ele>
        <time>2015-07-13T20:09:14.815Z</time>
      </trkpt>
      <trkpt lat="48.84397" lon="2.29214">
        <ele>114.6</ele>
        <time>2015-07-13T20:09:15.825Z</time>
      </trkpt>
      <trkpt lat="48.84394" lon="2.29222">
        <ele>114.4</ele>
        <time>2015-07-13T20:09:16.745Z</time>
      </trkpt>
      <trkpt lat="48.84391" lon="2.2923">
        <ele>114.3</ele>
        <time>2015-07-13T20:09:17.833Z</time>
      </trkpt>
      <trkpt lat="48.84388" lon="2.29238">
        <ele>113.9</ele>
        <time>2015-07-13T20:09:18.784Z</time>
      </trkpt>
      <trkpt lat="48.84384" lon="2.29245">
        <ele>113.4</ele>
        <time>2015-07-13T20:09:19.769Z</time>
      </trkpt>
      <trkpt lat="48.84381" lon="2.29252">
        <ele>112.9</ele>
        <time>2015-07-13T20:09:20.776Z</time>
      </trkpt>
      <trkpt lat="48.84379" lon="2.29259">
        <ele>112.3</ele>
        <time>2015-07-13T20:09:21.790Z</time>
      </trkpt>
      <trkpt lat="48.84376" lon="2.29265">
        <ele>112.1</ele>
        <time>2015-07-13T20:09:22.818Z</time>
      </trkpt>
      <trkpt lat="48.84372" lon="2.29271">
        <ele>111.9</ele>
        <time>2015-07-13T20:09:23.823Z</time>
      </trkpt>
      <trkpt lat="48.84368" lon="2.29276">
        <ele>111.7</ele>
        <time>2015-07-13T20:09:24.838Z</time>
      </trkpt>
      <trkpt lat="48.84366" lon="2.29283">
        <ele>111.2</ele>
        <time>2015-07-13T20:09:25.851Z</time>
      </trkpt>
      <trkpt lat="48.84364" lon="2.29292">
        <ele>110.2</ele>
        <time>2015-07-13T20:09:26.853Z</time>
      </trkpt>
      <trkpt lat="48.84362" lon="2.293">
        <ele>109.3</ele>
        <time>2015-07-13T20:09:27.800Z</time>
      </trkpt>
      <trkpt lat="48.84359" lon="2.29306">
        <ele>109.3</ele>
        <time>2015-07-13T20:09:28.770Z</time>
      </trkpt>
      <trkpt lat="48.84356" lon="2.29313">
        <ele>109.8</ele>
        <time>2015-07-13T20:09:29.849Z</time>
      </trkpt>
      <trkpt lat="48.84351" lon="2.29324">
        <ele>110.4</ele>
        <time>2015-07-13T20:09:31.763Z</time>
      </trkpt>
      <trkpt lat="48.84349" lon="2.2933">
        <ele>110.3</ele>
        <time>2015-07-13T20:09:32.790Z</time>
      </trkpt>
      <trkpt lat="48.84344" lon="2.2934">
        <ele>110</ele>
        <time>2015-07-13T20:09:36.801Z</time>
      </trkpt>
      <trkpt lat="48.84344" lon="2.29343">
        <ele>109.6</ele>
        <time>2015-07-13T20:09:37.812Z</time>
      </trkpt>
      <trkpt lat="48.84344" lon="2.29342">
        <ele>108.3</ele>
        <time>2015-07-13T20:09:48.834Z</time>
      </trkpt>
      <trkpt lat="48.84353" lon="2.29337">
        <ele>105.6</ele>
        <time>2015-07-13T20:09:49.814Z</time>
      </trkpt>
      <trkpt lat="48.84358" lon="2.29347">
        <ele>104.4</ele>
        <time>2015-07-13T20:09:51.851Z</time>
      </trkpt>
      <trkpt lat="48.8436" lon="2.29354">
        <ele>103.6</ele>
        <time>2015-07-13T20:09:52.808Z</time>
      </trkpt>
      <trkpt lat="48.84361" lon="2.29365">
        <ele>104</ele>
        <time>2015-07-13T20:09:54.847Z</time>
      </trkpt>
      <trkpt lat="48.8436" lon="2.29371">
        <ele>104.3</ele>
        <time>2015-07-13T20:09:55.754Z</time>
      </trkpt>
      <trkpt lat="48.84357" lon="2.29376">
        <ele>104.4</ele>
        <time>2015-07-13T20:09:56.784Z</time>
      </trkpt>
      <trkpt lat="48.84353" lon="2.29382">
        <ele>104.5</ele>
        <time>2015-07-13T20:09:57.805Z</time>
      </trkpt>
      <trkpt lat="48.84351" lon="2.29389">
        <ele>104.7</ele>
        <time>2015-07-13T20:09:58.827Z</time>
      </trkpt>
      <trkpt lat="48.84347" lon="2.29396">
        <ele>104.6</ele>
        <time>2015-07-13T20:09:59.853Z</time>
      </trkpt>
      <trkpt lat="48.84345" lon="2.29402">
        <ele>104.3</ele>
        <time>2015-07-13T20:10:00.753Z</time>
      </trkpt>
      <trkpt lat="48.84342" lon="2.29407">
        <ele>104</ele>
        <time>2015-07-13T20:10:01.778Z</time>
      </trkpt>
      <trkpt lat="48.84338" lon="2.29418">
        <ele>103.5</ele>
        <time>2015-07-13T20:10:03.854Z</time>
      </trkpt>
      <trkpt lat="48.84333" lon="2.29422">
        <ele>103.5</ele>
        <time>2015-07-13T20:10:04.768Z</time>
      </trkpt>
      <trkpt lat="48.84329" lon="2.29429">
        <ele>103.4</ele>
        <time>2015-07-13T20:10:05.817Z</time>
      </trkpt>
      <trkpt lat="48.84324" lon="2.29437">
        <ele>103.4</ele>
        <time>2015-07-13T20:10:06.809Z</time>
      </trkpt>
      <trkpt lat="48.84319" lon="2.29446">
        <ele>103.6</ele>
        <time>2015-07-13T20:10:07.817Z</time>
      </trkpt>
      <trkpt lat="48.84314" lon="2.29455">
        <ele>103.8</ele>
        <time>2015-07-13T20:10:08.821Z</time>
      </trkpt>
      <trkpt lat="48.84311" lon="2.29464">
        <ele>104</ele>
        <time>2015-07-13T20:10:09.827Z</time>
      </trkpt>
      <trkpt lat="48.84309" lon="2.2947">
        <ele>104.5</ele>
        <time>2015-07-13T20:10:10.844Z</time>
      </trkpt>
      <trkpt lat="48.84308" lon="2.29477">
        <ele>104.8</ele>
        <time>2015-07-13T20:10:11.893Z</time>
      </trkpt>
      <trkpt lat="48.84309" lon="2.29485">
        <ele>104.7</ele>
        <time>2015-07-13T20:10:12.765Z</time>
      </trkpt>
      <trkpt lat="48.84308" lon="2.29493">
        <ele>104.5</ele>
        <time>2015-07-13T20:10:13.779Z</time>
      </trkpt>
      <trkpt lat="48.84306" lon="2.295">
        <ele>104.8</ele>
        <time>2015-07-13T20:10:14.808Z</time>
      </trkpt>
      <trkpt lat="48.84303" lon="2.2951">
        <ele>105.4</ele>
        <time>2015-07-13T20:10:16.787Z</time>
      </trkpt>
      <trkpt lat="48.84301" lon="2.29513">
        <ele>105.7</ele>
        <time>2015-07-13T20:10:17.816Z</time>
      </trkpt>
      <trkpt lat="48.84296" lon="2.29518">
        <ele>105.9</ele>
        <time>2015-07-13T20:10:19.844Z</time>
      </trkpt>
      <trkpt lat="48.84291" lon="2.29522">
        <ele>105.3</ele>
        <time>2015-07-13T20:10:20.793Z</time>
      </trkpt>
      <trkpt lat="48.84286" lon="2.29527">
        <ele>104.3</ele>
        <time>2015-07-13T20:10:21.782Z</time>
      </trkpt>
      <trkpt lat="48.84281" lon="2.29531">
        <ele>103.6</ele>
        <time>2015-07-13T20:10:22.780Z</time>
      </trkpt>
      <trkpt lat="48.84277" lon="2.29536">
        <ele>103.5</ele>
        <time>2015-07-13T20:10:23.804Z</time>
      </trkpt>
      <trkpt lat="48.84272" lon="2.2954">
        <ele>103.4</ele>
        <time>2015-07-13T20:10:24.851Z</time>
      </trkpt>
      <trkpt lat="48.84263" lon="2.29543">
        <ele>102.5</ele>
        <time>2015-07-13T20:10:26.784Z</time>
      </trkpt>
      <trkpt lat="48.8426" lon="2.29546">
        <ele>101.9</ele>
        <time>2015-07-13T20:10:27.875Z</time>
      </trkpt>
      <trkpt lat="48.84253" lon="2.29552">
        <ele>100.9</ele>
        <time>2015-07-13T20:10:29.891Z</time>
      </trkpt>
      <trkpt lat="48.84249" lon="2.29555">
        <ele>100.3</ele>
        <time>2015-07-13T20:10:30.862Z</time>
      </trkpt>
      <trkpt lat="48.84241" lon="2.29561">
        <ele>99.9</ele>
        <time>2015-07-13T20:10:32.808Z</time>
      </trkpt>
      <trkpt lat="48.84238" lon="2.29563">
        <ele>99.4</ele>
        <time>2015-07-13T20:10:33.811Z</time>
      </trkpt>
      <trkpt lat="48.84234" lon="2.29566">
        <ele>99.3</ele>
        <time>2015-07-13T20:10:34.833Z</time>
      </trkpt>
      <trkpt lat="48.8423" lon="2.2957">
        <ele>98.9</ele>
        <time>2015-07-13T20:10:35.838Z</time>
      </trkpt>
      <trkpt lat="48.84225" lon="2.29573">
        <ele>98.8</ele>
        <time>2015-07-13T20:10:37.226Z</time>
      </trkpt>
      <trkpt lat="48.8422" lon="2.29576">
        <ele>98.9</ele>
        <time>2015-07-13T20:10:37.775Z</time>
      </trkpt>
      <trkpt lat="48.84216" lon="2.29579">
        <ele>98.7</ele>
        <time>2015-07-13T20:10:38.783Z</time>
      </trkpt>
      <trkpt lat="48.84212" lon="2.29583">
        <ele>98.6</ele>
        <time>2015-07-13T20:10:39.808Z</time>
      </trkpt>
      <trkpt lat="48.84205" lon="2.2959">
        <ele>98.3</ele>
        <time>2015-07-13T20:10:42.264Z</time>
      </trkpt>
      <trkpt lat="48.84202" lon="2.29594">
        <ele>98.1</ele>
        <time>2015-07-13T20:10:42.744Z</time>
      </trkpt>
      <trkpt lat="48.84195" lon="2.296">
        <ele>97.8</ele>
        <time>2015-07-13T20:10:45.109Z</time>
      </trkpt>
      <trkpt lat="48.8419" lon="2.29604">
        <ele>97.8</ele>
        <time>2015-07-13T20:10:45.772Z</time>
      </trkpt>
      <trkpt lat="48.84186" lon="2.29608">
        <ele>97.7</ele>
        <time>2015-07-13T20:10:47.300Z</time>
      </trkpt>
      <trkpt lat="48.84181" lon="2.29613">
        <ele>97.6</ele>
        <time>2015-07-13T20:10:47.849Z</time>
      </trkpt>
      <trkpt lat="48.84177" lon="2.2962">
        <ele>96.3</ele>
        <time>2015-07-13T20:10:48.770Z</time>
      </trkpt>
      <trkpt lat="48.84172" lon="2.29623">
        <ele>95.8</ele>
        <time>2015-07-13T20:10:49.783Z</time>
      </trkpt>
      <trkpt lat="48.84168" lon="2.29627">
        <ele>95.6</ele>
        <time>2015-07-13T20:10:50.791Z</time>
      </trkpt>
      <trkpt lat="48.84163" lon="2.29631">
        <ele>95.4</ele>
        <time>2015-07-13T20:10:51.793Z</time>
      </trkpt>
      <trkpt lat="48.84158" lon="2.29636">
        <ele>95.3</ele>
        <time>2015-07-13T20:10:52.814Z</time>
      </trkpt>
      <trkpt lat="48.84153" lon="2.2964">
        <ele>95.1</ele>
        <time>2015-07-13T20:10:53.827Z</time>
      </trkpt>
      <trkpt lat="48.8415" lon="2.29647">
        <ele>95.1</ele>
        <time>2015-07-13T20:10:54.832Z</time>
      </trkpt>
      <trkpt lat="48.84145" lon="2.29651">
        <ele>95.4</ele>
        <time>2015-07-13T20:10:55.858Z</time>
      </trkpt>
      <trkpt lat="48.8414" lon="2.29656">
        <ele>95.9</ele>
        <time>2015-07-13T20:10:56.773Z</time>
      </trkpt>
      <trkpt lat="48.84136" lon="2.29663">
        <ele>96.3</ele>
        <time>2015-07-13T20:10:57.777Z</time>
      </trkpt>
      <trkpt lat="48.84132" lon="2.29672">
        <ele>97.3</ele>
        <time>2015-07-13T20:10:58.802Z</time>
      </trkpt>
      <trkpt lat="48.84129" lon="2.29678">
        <ele>97.3</ele>
        <time>2015-07-13T20:10:59.832Z</time>
      </trkpt>
      <trkpt lat="48.84124" lon="2.29686">
        <ele>98.6</ele>
        <time>2015-07-13T20:11:01.758Z</time>
      </trkpt>
      <trkpt lat="48.84121" lon="2.29688">
        <ele>98.7</ele>
        <time>2015-07-13T20:11:02.855Z</time>
      </trkpt>
      <trkpt lat="48.84114" lon="2.29694">
        <ele>98.8</ele>
        <time>2015-07-13T20:11:04.781Z</time>
      </trkpt>
      <trkpt lat="48.84111" lon="2.29696">
        <ele>99.3</ele>
        <time>2015-07-13T20:11:05.801Z</time>
      </trkpt>
      <trkpt lat="48.84104" lon="2.29702">
        <ele>100</ele>
        <time>2015-07-13T20:11:07.831Z</time>
      </trkpt>
      <trkpt lat="48.84101" lon="2.29705">
        <ele>100.6</ele>
        <time>2015-07-13T20:11:08.819Z</time>
      </trkpt>
      <trkpt lat="48.84096" lon="2.29712">
        <ele>101.3</ele>
        <time>2015-07-13T20:11:10.821Z</time>
      </trkpt>
      <trkpt lat="48.84094" lon="2.29717">
        <ele>101.6</ele>
        <time>2015-07-13T20:11:11.862Z</time>
      </trkpt>
      <trkpt lat="48.84094" lon="2.29726">
        <ele>100.8</ele>
        <time>2015-07-13T20:11:13.747Z</time>
      </trkpt>
      <trkpt lat="48.84095" lon="2.29732">
        <ele>100.2</ele>
        <time>2015-07-13T20:11:14.782Z</time>
      </trkpt>
      <trkpt lat="48.84098" lon="2.29737">
        <ele>99.5</ele>
        <time>2015-07-13T20:11:15.794Z</time>
      </trkpt>
      <trkpt lat="48.84102" lon="2.29744">
        <ele>97.9</ele>
        <time>2015-07-13T20:11:16.811Z</time>
      </trkpt>
      <trkpt lat="48.84105" lon="2.29751">
        <ele>97.2</ele>
        <time>2015-07-13T20:11:17.837Z</time>
      </trkpt>
      <trkpt lat="48.84109" lon="2.29757">
        <ele>97.1</ele>
        <time>2015-07-13T20:11:18.907Z</time>
      </trkpt>
      <trkpt lat="48.84112" lon="2.29766">
        <ele>97.3</ele>
        <time>2015-07-13T20:11:19.850Z</time>
      </trkpt>
      <trkpt lat="48.84114" lon="2.29774">
        <ele>97.2</ele>
        <time>2015-07-13T20:11:20.758Z</time>
      </trkpt>
      <trkpt lat="48.84115" lon="2.29783">
        <ele>97.3</ele>
        <time>2015-07-13T20:11:21.805Z</time>
      </trkpt>
      <trkpt lat="48.84118" lon="2.2979">
        <ele>97.4</ele>
        <time>2015-07-13T20:11:22.760Z</time>
      </trkpt>
      <trkpt lat="48.8412" lon="2.29797">
        <ele>97.5</ele>
        <time>2015-07-13T20:11:23.835Z</time>
      </trkpt>
      <trkpt lat="48.84122" lon="2.29803">
        <ele>97.3</ele>
        <time>2015-07-13T20:11:24.820Z</time>
      </trkpt>
      <trkpt lat="48.84124" lon="2.2981">
        <ele>97.4</ele>
        <time>2015-07-13T20:11:25.858Z</time>
      </trkpt>
      <trkpt lat="48.84126" lon="2.29816">
        <ele>97.4</ele>
        <time>2015-07-13T20:11:26.775Z</time>
      </trkpt>
      <trkpt lat="48.84129" lon="2.29821">
        <ele>97.8</ele>
        <time>2015-07-13T20:11:27.994Z</time>
      </trkpt>
      <trkpt lat="48.84132" lon="2.29826">
        <ele>98.5</ele>
        <time>2015-07-13T20:11:28.837Z</time>
      </trkpt>
      <trkpt lat="48.84135" lon="2.29832">
        <ele>98.8</ele>
        <time>2015-07-13T20:11:29.849Z</time>
      </trkpt>
      <trkpt lat="48.84138" lon="2.29838">
        <ele>99.3</ele>
        <time>2015-07-13T20:11:30.818Z</time>
      </trkpt>
      <trkpt lat="48.84141" lon="2.2985">
        <ele>99.7</ele>
        <time>2015-07-13T20:11:32.770Z</time>
      </trkpt>
      <trkpt lat="48.84142" lon="2.29856">
        <ele>99.8</ele>
        <time>2015-07-13T20:11:33.779Z</time>
      </trkpt>
      <trkpt lat="48.84145" lon="2.29869">
        <ele>100.2</ele>
        <time>2015-07-13T20:11:35.868Z</time>
      </trkpt>
      <trkpt lat="48.84147" lon="2.29874">
        <ele>100.4</ele>
        <time>2015-07-13T20:11:36.763Z</time>
      </trkpt>
      <trkpt lat="48.84151" lon="2.29885">
        <ele>101.2</ele>
        <time>2015-07-13T20:11:38.778Z</time>
      </trkpt>
      <trkpt lat="48.84153" lon="2.2989">
        <ele>101.2</ele>
        <time>2015-07-13T20:11:39.792Z</time>
      </trkpt>
      <trkpt lat="48.84156" lon="2.29899">
        <ele>101.1</ele>
        <time>2015-07-13T20:11:41.829Z</time>
      </trkpt>
      <trkpt lat="48.84158" lon="2.29903">
        <ele>100.8</ele>
        <time>2015-07-13T20:11:42.854Z</time>
      </trkpt>
      <trkpt lat="48.84156" lon="2.29916">
        <ele>101</ele>
        <time>2015-07-13T20:11:46.807Z</time>
      </trkpt>
      <trkpt lat="48.84153" lon="2.2992">
        <ele>100.2</ele>
        <time>2015-07-13T20:11:47.821Z</time>
      </trkpt>
      <trkpt lat="48.84151" lon="2.29929">
        <ele>99.9</ele>
        <time>2015-07-13T20:11:59.841Z</time>
      </trkpt>
      <trkpt lat="48.84146" lon="2.29953">
        <ele>102.1</ele>
        <time>2015-07-13T20:12:00.737Z</time>
      </trkpt>
      <trkpt lat="48.84141" lon="2.29959">
        <ele>102.2</ele>
        <time>2015-07-13T20:12:02.778Z</time>
      </trkpt>
      <trkpt lat="48.84139" lon="2.29963">
        <ele>102.3</ele>
        <time>2015-07-13T20:12:03.795Z</time>
      </trkpt>
      <trkpt lat="48.84133" lon="2.2997">
        <ele>102.3</ele>
        <time>2015-07-13T20:12:06.786Z</time>
      </trkpt>
      <trkpt lat="48.84132" lon="2.29974">
        <ele>102</ele>
        <time>2015-07-13T20:12:07.780Z</time>
      </trkpt>
      <trkpt lat="48.84128" lon="2.29986">
        <ele>100.4</ele>
        <time>2015-07-13T20:12:11.835Z</time>
      </trkpt>
      <trkpt lat="48.84126" lon="2.29988">
        <ele>100.4</ele>
        <time>2015-07-13T20:12:13Z</time>
      </trkpt>
      <trkpt lat="48.84119" lon="2.29992">
        <ele>93.1</ele>
        <time>2015-07-13T20:13:46.789Z</time>
      </trkpt>
      <trkpt lat="48.84117" lon="2.29993">
        <ele>93</ele>
        <time>2015-07-13T20:13:47.809Z</time>
      </trkpt>
      <trkpt lat="48.84116" lon="2.29993">
        <ele>92.9</ele>
        <time>2015-07-13T20:14:14.801Z</time>
      </trkpt>
      <trkpt lat="48.84085" lon="2.30025">
        <ele>97</ele>
        <time>2015-07-13T20:14:15.797Z</time>
      </trkpt>
      <trkpt lat="48.84087" lon="2.30036">
        <ele>92.4</ele>
        <time>2015-07-13T20:14:46.787Z</time>
      </trkpt>
      <trkpt lat="48.84088" lon="2.30039">
        <ele>92.6</ele>
        <time>2015-07-13T20:14:47.835Z</time>
      </trkpt>
      <trkpt lat="48.84087" lon="2.30051">
        <ele>92.8</ele>
        <time>2015-07-13T20:14:51.886Z</time>
      </trkpt>
      <trkpt lat="48.84085" lon="2.30055">
        <ele>93.1</ele>
        <time>2015-07-13T20:14:52.748Z</time>
      </trkpt>
      <trkpt lat="48.8408" lon="2.30061">
        <ele>93.4</ele>
        <time>2015-07-13T20:14:54.833Z</time>
      </trkpt>
      <trkpt lat="48.84077" lon="2.30064">
        <ele>93.6</ele>
        <time>2015-07-13T20:14:55.848Z</time>
      </trkpt>
      <trkpt lat="48.8407" lon="2.30067">
        <ele>93</ele>
        <time>2015-07-13T20:14:57.855Z</time>
      </trkpt>
      <trkpt lat="48.84067" lon="2.30068">
        <ele>92.7</ele>
        <time>2015-07-13T20:14:58.793Z</time>
      </trkpt>
      <trkpt lat="48.84059" lon="2.30069">
        <ele>92.4</ele>
        <time>2015-07-13T20:15:00.745Z</time>
      </trkpt>
      <trkpt lat="48.84055" lon="2.30071">
        <ele>92.3</ele>
        <time>2015-07-13T20:15:01.798Z</time>
      </trkpt>
      <trkpt lat="48.84048" lon="2.30076">
        <ele>92.7</ele>
        <time>2015-07-13T20:15:04.191Z</time>
      </trkpt>
      <trkpt lat="48.84045" lon="2.30079">
        <ele>92.9</ele>
        <time>2015-07-13T20:15:04.822Z</time>
      </trkpt>
      <trkpt lat="48.84038" lon="2.30086">
        <ele>93.2</ele>
        <time>2015-07-13T20:15:06.769Z</time>
      </trkpt>
      <trkpt lat="48.84033" lon="2.30089">
        <ele>93.2</ele>
        <time>2015-07-13T20:15:07.762Z</time>
      </trkpt>
      <trkpt lat="48.84026" lon="2.30091">
        <ele>93.3</ele>
        <time>2015-07-13T20:15:09.803Z</time>
      </trkpt>
      <trkpt lat="48.84022" lon="2.30091">
        <ele>93.3</ele>
        <time>2015-07-13T20:15:10.808Z</time>
      </trkpt>
      <trkpt lat="48.84016" lon="2.30094">
        <ele>93.3</ele>
        <time>2015-07-13T20:15:12.859Z</time>
      </trkpt>
      <trkpt lat="48.84012" lon="2.30095">
        <ele>93.6</ele>
        <time>2015-07-13T20:15:13.731Z</time>
      </trkpt>
      <trkpt lat="48.84006" lon="2.30099">
        <ele>93.9</ele>
        <time>2015-07-13T20:15:15.769Z</time>
      </trkpt>
      <trkpt lat="48.84003" lon="2.30101">
        <ele>94</ele>
        <time>2015-07-13T20:15:16.747Z</time>
      </trkpt>
      <trkpt lat="48.83996" lon="2.30103">
        <ele>94.4</ele>
        <time>2015-07-13T20:15:18.804Z</time>
      </trkpt>
      <trkpt lat="48.83993" lon="2.30105">
        <ele>94.6</ele>
        <time>2015-07-13T20:15:19.829Z</time>
      </trkpt>
      <trkpt lat="48.83987" lon="2.30109">
        <ele>94.9</ele>
        <time>2015-07-13T20:15:21.737Z</time>
      </trkpt>
      <trkpt lat="48.83984" lon="2.30111">
        <ele>95</ele>
        <time>2015-07-13T20:15:22.752Z</time>
      </trkpt>
      <trkpt lat="48.83979" lon="2.30117">
        <ele>95.4</ele>
        <time>2015-07-13T20:15:24.745Z</time>
      </trkpt>
      <trkpt lat="48.83977" lon="2.30121">
        <ele>95.7</ele>
        <time>2015-07-13T20:15:25.758Z</time>
      </trkpt>
      <trkpt lat="48.83969" lon="2.30123">
        <ele>96.7</ele>
        <time>2015-07-13T20:15:28.964Z</time>
      </trkpt>
      <trkpt lat="48.83967" lon="2.30124">
        <ele>97.2</ele>
        <time>2015-07-13T20:15:29.875Z</time>
      </trkpt>
      <trkpt lat="48.8396" lon="2.30126">
        <ele>100.1</ele>
        <time>2015-07-13T20:15:32.743Z</time>
      </trkpt>
      <trkpt lat="48.83957" lon="2.30129">
        <ele>101.7</ele>
        <time>2015-07-13T20:15:33.760Z</time>
      </trkpt>
      <trkpt lat="48.83955" lon="2.30139">
        <ele>102</ele>
        <time>2015-07-13T20:15:36.789Z</time>
      </trkpt>
      <trkpt lat="48.83954" lon="2.30143">
        <ele>102.1</ele>
        <time>2015-07-13T20:15:37.802Z</time>
      </trkpt>
      <trkpt lat="48.83957" lon="2.30151">
        <ele>100.8</ele>
        <time>2015-07-13T20:15:39.739Z</time>
      </trkpt>
      <trkpt lat="48.83958" lon="2.30157">
        <ele>100.5</ele>
        <time>2015-07-13T20:15:40.860Z</time>
      </trkpt>
      <trkpt lat="48.8396" lon="2.30167">
        <ele>100.3</ele>
        <time>2015-07-13T20:15:42.768Z</time>
      </trkpt>
      <trkpt lat="48.83961" lon="2.30172">
        <ele>100.2</ele>
        <time>2015-07-13T20:15:43.784Z</time>
      </trkpt>
      <trkpt lat="48.83965" lon="2.30181">
        <ele>99.9</ele>
        <time>2015-07-13T20:15:45.811Z</time>
      </trkpt>
      <trkpt lat="48.83966" lon="2.30186">
        <ele>99.7</ele>
        <time>2015-07-13T20:15:46.818Z</time>
      </trkpt>
      <trkpt lat="48.83969" lon="2.30198">
        <ele>100.1</ele>
        <time>2015-07-13T20:15:49.456Z</time>
      </trkpt>
      <trkpt lat="48.83972" lon="2.30203">
        <ele>100.5</ele>
        <time>2015-07-13T20:15:49.843Z</time>
      </trkpt>
      <trkpt lat="48.83976" lon="2.30213">
        <ele>101.8</ele>
        <time>2015-07-13T20:15:51.748Z</time>
      </trkpt>
      <trkpt lat="48.83979" lon="2.30219">
        <ele>102.6</ele>
        <time>2015-07-13T20:15:52.749Z</time>
      </trkpt>
      <trkpt lat="48.83982" lon="2.3023">
        <ele>102.9</ele>
        <time>2015-07-13T20:15:54.833Z</time>
      </trkpt>
      <trkpt lat="48.83984" lon="2.30235">
        <ele>103</ele>
        <time>2015-07-13T20:15:55.854Z</time>
      </trkpt>
      <trkpt lat="48.83987" lon="2.30248">
        <ele>103.4</ele>
        <time>2015-07-13T20:15:57.771Z</time>
      </trkpt>
      <trkpt lat="48.83989" lon="2.30254">
        <ele>104.2</ele>
        <time>2015-07-13T20:15:58.795Z</time>
      </trkpt>
      <trkpt lat="48.83994" lon="2.30264">
        <ele>105.5</ele>
        <time>2015-07-13T20:16:00.753Z</time>
      </trkpt>
      <trkpt lat="48.83998" lon="2.30269">
        <ele>107.1</ele>
        <time>2015-07-13T20:16:01.793Z</time>
      </trkpt>
      <trkpt lat="48.84" lon="2.30275">
        <ele>107.8</ele>
        <time>2015-07-13T20:16:02.787Z</time>
      </trkpt>
      <trkpt lat="48.84002" lon="2.30282">
        <ele>108.6</ele>
        <time>2015-07-13T20:16:03.796Z</time>
      </trkpt>
      <trkpt lat="48.84003" lon="2.30289">
        <ele>109.2</ele>
        <time>2015-07-13T20:16:04.805Z</time>
      </trkpt>
      <trkpt lat="48.84005" lon="2.30296">
        <ele>109.9</ele>
        <time>2015-07-13T20:16:05.842Z</time>
      </trkpt>
      <trkpt lat="48.84006" lon="2.30304">
        <ele>110.5</ele>
        <time>2015-07-13T20:16:06.789Z</time>
      </trkpt>
      <trkpt lat="48.84008" lon="2.30311">
        <ele>110.8</ele>
        <time>2015-07-13T20:16:07.861Z</time>
      </trkpt>
      <trkpt lat="48.8401" lon="2.30319">
        <ele>110.8</ele>
        <time>2015-07-13T20:16:08.775Z</time>
      </trkpt>
      <trkpt lat="48.84012" lon="2.30327">
        <ele>111.3</ele>
        <time>2015-07-13T20:16:09.814Z</time>
      </trkpt>
      <trkpt lat="48.84014" lon="2.30335">
        <ele>111.8</ele>
        <time>2015-07-13T20:16:10.827Z</time>
      </trkpt>
      <trkpt lat="48.84017" lon="2.30343">
        <ele>112.5</ele>
        <time>2015-07-13T20:16:11.839Z</time>
      </trkpt>
      <trkpt lat="48.84019" lon="2.30352">
        <ele>113</ele>
        <time>2015-07-13T20:16:12.853Z</time>
      </trkpt>
      <trkpt lat="48.84021" lon="2.30359">
        <ele>113.4</ele>
        <time>2015-07-13T20:16:13.772Z</time>
      </trkpt>
      <trkpt lat="48.84023" lon="2.30368">
        <ele>114</ele>
        <time>2015-07-13T20:16:14.782Z</time>
      </trkpt>
      <trkpt lat="48.84026" lon="2.30376">
        <ele>114.6</ele>
        <time>2015-07-13T20:16:15.789Z</time>
      </trkpt>
      <trkpt lat="48.84028" lon="2.30384">
        <ele>115</ele>
        <time>2015-07-13T20:16:16.821Z</time>
      </trkpt>
      <trkpt lat="48.8403" lon="2.30392">
        <ele>115.5</ele>
        <time>2015-07-13T20:16:17.840Z</time>
      </trkpt>
      <trkpt lat="48.84033" lon="2.30398">
        <ele>116</ele>
        <time>2015-07-13T20:16:18.853Z</time>
      </trkpt>
      <trkpt lat="48.84036" lon="2.30403">
        <ele>116.5</ele>
        <time>2015-07-13T20:16:19.778Z</time>
      </trkpt>
      <trkpt lat="48.84039" lon="2.30415">
        <ele>117.2</ele>
        <time>2015-07-13T20:16:21.999Z</time>
      </trkpt>
      <trkpt lat="48.84041" lon="2.30421">
        <ele>117.5</ele>
        <time>2015-07-13T20:16:22.790Z</time>
      </trkpt>
      <trkpt lat="48.84043" lon="2.30431">
        <ele>118.2</ele>
        <time>2015-07-13T20:16:24.852Z</time>
      </trkpt>
      <trkpt lat="48.84045" lon="2.30435">
        <ele>118.7</ele>
        <time>2015-07-13T20:16:25.857Z</time>
      </trkpt>
      <trkpt lat="48.84041" lon="2.30447">
        <ele>117.1</ele>
        <time>2015-07-13T20:16:28.809Z</time>
      </trkpt>
      <trkpt lat="48.84037" lon="2.3045">
        <ele>115.2</ele>
        <time>2015-07-13T20:16:29.862Z</time>
      </trkpt>
      <trkpt lat="48.84029" lon="2.30453">
        <ele>113.2</ele>
        <time>2015-07-13T20:16:31.779Z</time>
      </trkpt>
      <trkpt lat="48.84025" lon="2.30454">
        <ele>112.6</ele>
        <time>2015-07-13T20:16:32.794Z</time>
      </trkpt>
      <trkpt lat="48.84018" lon="2.30457">
        <ele>111.2</ele>
        <time>2015-07-13T20:16:34.803Z</time>
      </trkpt>
      <trkpt lat="48.84014" lon="2.30459">
        <ele>110.9</ele>
        <time>2015-07-13T20:16:35.854Z</time>
      </trkpt>
      <trkpt lat="48.84006" lon="2.30462">
        <ele>110.4</ele>
        <time>2015-07-13T20:16:37.760Z</time>
      </trkpt>
      <trkpt lat="48.84001" lon="2.30463">
        <ele>110.2</ele>
        <time>2015-07-13T20:16:38.768Z</time>
      </trkpt>
      <trkpt lat="48.83996" lon="2.30464">
        <ele>109.9</ele>
        <time>2015-07-13T20:16:39.778Z</time>
      </trkpt>
      <trkpt lat="48.83992" lon="2.30467">
        <ele>110</ele>
        <time>2015-07-13T20:16:40.812Z</time>
      </trkpt>
      <trkpt lat="48.83987" lon="2.3047">
        <ele>110.3</ele>
        <time>2015-07-13T20:16:41.882Z</time>
      </trkpt>
      <trkpt lat="48.83982" lon="2.30473">
        <ele>110.3</ele>
        <time>2015-07-13T20:16:42.766Z</time>
      </trkpt>
      <trkpt lat="48.83976" lon="2.30476">
        <ele>110.2</ele>
        <time>2015-07-13T20:16:43.783Z</time>
      </trkpt>
      <trkpt lat="48.8397" lon="2.30477">
        <ele>110.1</ele>
        <time>2015-07-13T20:16:44.794Z</time>
      </trkpt>
      <trkpt lat="48.83965" lon="2.30479">
        <ele>110.1</ele>
        <time>2015-07-13T20:16:45.802Z</time>
      </trkpt>
      <trkpt lat="48.8396" lon="2.30478">
        <ele>110.3</ele>
        <time>2015-07-13T20:16:46.816Z</time>
      </trkpt>
      <trkpt lat="48.83955" lon="2.3048">
        <ele>110.6</ele>
        <time>2015-07-13T20:16:46.983Z</time>
      </trkpt>
      <trkpt lat="48.83949" lon="2.30484">
        <ele>110.8</ele>
        <time>2015-07-13T20:16:48.734Z</time>
      </trkpt>
      <trkpt lat="48.83943" lon="2.30487">
        <ele>110.9</ele>
        <time>2015-07-13T20:16:49.773Z</time>
      </trkpt>
      <trkpt lat="48.83937" lon="2.3049">
        <ele>110.8</ele>
        <time>2015-07-13T20:16:50.767Z</time>
      </trkpt>
      <trkpt lat="48.83931" lon="2.30493">
        <ele>110.9</ele>
        <time>2015-07-13T20:16:51.782Z</time>
      </trkpt>
      <trkpt lat="48.83924" lon="2.30497">
        <ele>111.2</ele>
        <time>2015-07-13T20:16:52.789Z</time>
      </trkpt>
      <trkpt lat="48.83919" lon="2.30501">
        <ele>111</ele>
        <time>2015-07-13T20:16:53.837Z</time>
      </trkpt>
      <trkpt lat="48.83913" lon="2.30504">
        <ele>111.2</ele>
        <time>2015-07-13T20:16:54.841Z</time>
      </trkpt>
      <trkpt lat="48.83907" lon="2.30508">
        <ele>111.2</ele>
        <time>2015-07-13T20:16:55.780Z</time>
      </trkpt>
      <trkpt lat="48.83901" lon="2.3051">
        <ele>111.1</ele>
        <time>2015-07-13T20:16:56.763Z</time>
      </trkpt>
      <trkpt lat="48.83895" lon="2.30511">
        <ele>110.6</ele>
        <time>2015-07-13T20:16:57.780Z</time>
      </trkpt>
      <trkpt lat="48.83888" lon="2.30515">
        <ele>110.4</ele>
        <time>2015-07-13T20:16:58.801Z</time>
      </trkpt>
      <trkpt lat="48.83883" lon="2.30519">
        <ele>110.2</ele>
        <time>2015-07-13T20:16:59.839Z</time>
      </trkpt>
      <trkpt lat="48.83877" lon="2.30522">
        <ele>109.7</ele>
        <time>2015-07-13T20:17:00.833Z</time>
      </trkpt>
      <trkpt lat="48.83872" lon="2.30526">
        <ele>109.3</ele>
        <time>2015-07-13T20:17:01.728Z</time>
      </trkpt>
      <trkpt lat="48.83866" lon="2.3053">
        <ele>108.9</ele>
        <time>2015-07-13T20:17:02.762Z</time>
      </trkpt>
      <trkpt lat="48.8386" lon="2.30533">
        <ele>107.8</ele>
        <time>2015-07-13T20:17:03.771Z</time>
      </trkpt>
      <trkpt lat="48.83854" lon="2.30535">
        <ele>107.2</ele>
        <time>2015-07-13T20:17:04.929Z</time>
      </trkpt>
      <trkpt lat="48.83849" lon="2.30537">
        <ele>107.1</ele>
        <time>2015-07-13T20:17:05.809Z</time>
      </trkpt>
      <trkpt lat="48.83844" lon="2.3054">
        <ele>107</ele>
        <time>2015-07-13T20:17:06.836Z</time>
      </trkpt>
      <trkpt lat="48.83838" lon="2.30543">
        <ele>107</ele>
        <time>2015-07-13T20:17:07.759Z</time>
      </trkpt>
      <trkpt lat="48.83832" lon="2.30546">
        <ele>107.1</ele>
        <time>2015-07-13T20:17:08.766Z</time>
      </trkpt>
      <trkpt lat="48.83826" lon="2.30549">
        <ele>107.3</ele>
        <time>2015-07-13T20:17:09.771Z</time>
      </trkpt>
      <trkpt lat="48.8382" lon="2.30553">
        <ele>107.8</ele>
        <time>2015-07-13T20:17:10.791Z</time>
      </trkpt>
      <trkpt lat="48.83813" lon="2.30557">
        <ele>108.2</ele>
        <time>2015-07-13T20:17:11.833Z</time>
      </trkpt>
      <trkpt lat="48.83806" lon="2.30561">
        <ele>108.9</ele>
        <time>2015-07-13T20:17:12.733Z</time>
      </trkpt>
      <trkpt lat="48.838" lon="2.30567">
        <ele>109.4</ele>
        <time>2015-07-13T20:17:13.763Z</time>
      </trkpt>
      <trkpt lat="48.83793" lon="2.30574">
        <ele>109.7</ele>
        <time>2015-07-13T20:17:14.769Z</time>
      </trkpt>
      <trkpt lat="48.83786" lon="2.30578">
        <ele>110</ele>
        <time>2015-07-13T20:17:15.779Z</time>
      </trkpt>
      <trkpt lat="48.8378" lon="2.30584">
        <ele>110.1</ele>
        <time>2015-07-13T20:17:16.783Z</time>
      </trkpt>
      <trkpt lat="48.83773" lon="2.30587">
        <ele>109.8</ele>
        <time>2015-07-13T20:17:17.817Z</time>
      </trkpt>
      <trkpt lat="48.83768" lon="2.30591">
        <ele>109.4</ele>
        <time>2015-07-13T20:17:18.829Z</time>
      </trkpt>
      <trkpt lat="48.83762" lon="2.30596">
        <ele>109.1</ele>
        <time>2015-07-13T20:17:19.843Z</time>
      </trkpt>
      <trkpt lat="48.83756" lon="2.30601">
        <ele>108.7</ele>
        <time>2015-07-13T20:17:20.765Z</time>
      </trkpt>
      <trkpt lat="48.8375" lon="2.30602">
        <ele>108.6</ele>
        <time>2015-07-13T20:17:21.768Z</time>
      </trkpt>
      <trkpt lat="48.83743" lon="2.30604">
        <ele>108.9</ele>
        <time>2015-07-13T20:17:22.798Z</time>
      </trkpt>
      <trkpt lat="48.83735" lon="2.30604">
        <ele>109.5</ele>
        <time>2015-07-13T20:17:23.804Z</time>
      </trkpt>
      <trkpt lat="48.83728" lon="2.30605">
        <ele>109.3</ele>
        <time>2015-07-13T20:17:24.812Z</time>
      </trkpt>
      <trkpt lat="48.83722" lon="2.30606">
        <ele>109.3</ele>
        <time>2015-07-13T20:17:25.820Z</time>
      </trkpt>
      <trkpt lat="48.83716" lon="2.3061">
        <ele>109.8</ele>
        <time>2015-07-13T20:17:26.825Z</time>
      </trkpt>
      <trkpt lat="48.8371" lon="2.30613">
        <ele>110.2</ele>
        <time>2015-07-13T20:17:27.839Z</time>
      </trkpt>
      <trkpt lat="48.83705" lon="2.30616">
        <ele>110.3</ele>
        <time>2015-07-13T20:17:28.858Z</time>
      </trkpt>
      <trkpt lat="48.83699" lon="2.30618">
        <ele>110.6</ele>
        <time>2015-07-13T20:17:30.001Z</time>
      </trkpt>
      <trkpt lat="48.83695" lon="2.30621">
        <ele>110.3</ele>
        <time>2015-07-13T20:17:30.745Z</time>
      </trkpt>
      <trkpt lat="48.83691" lon="2.30623">
        <ele>110.1</ele>
        <time>2015-07-13T20:17:31.738Z</time>
      </trkpt>
      <trkpt lat="48.83686" lon="2.30627">
        <ele>109.8</ele>
        <time>2015-07-13T20:17:32.750Z</time>
      </trkpt>
      <trkpt lat="48.8368" lon="2.30633">
        <ele>109.8</ele>
        <time>2015-07-13T20:17:34.749Z</time>
      </trkpt>
      <trkpt lat="48.83675" lon="2.30634">
        <ele>109.6</ele>
        <time>2015-07-13T20:17:35.841Z</time>
      </trkpt>
      <trkpt lat="48.83669" lon="2.30631">
        <ele>109.1</ele>
        <time>2015-07-13T20:17:37.767Z</time>
      </trkpt>
      <trkpt lat="48.83666" lon="2.30631">
        <ele>109</ele>
        <time>2015-07-13T20:17:38.782Z</time>
      </trkpt>
      <trkpt lat="48.83657" lon="2.30634">
        <ele>109</ele>
        <time>2015-07-13T20:17:41.762Z</time>
      </trkpt>
      <trkpt lat="48.83655" lon="2.30635">
        <ele>109.2</ele>
        <time>2015-07-13T20:17:42.764Z</time>
      </trkpt>
      <trkpt lat="48.83649" lon="2.30638">
        <ele>109.3</ele>
        <time>2015-07-13T20:17:44.791Z</time>
      </trkpt>
      <trkpt lat="48.83646" lon="2.30642">
        <ele>109.7</ele>
        <time>2015-07-13T20:17:45.827Z</time>
      </trkpt>
      <trkpt lat="48.8364" lon="2.30649">
        <ele>111.6</ele>
        <time>2015-07-13T20:18:00.760Z</time>
      </trkpt>
      <trkpt lat="48.83633" lon="2.30641">
        <ele>112.3</ele>
        <time>2015-07-13T20:18:01.818Z</time>
      </trkpt>
      <trkpt lat="48.83635" lon="2.30654">
        <ele>111.9</ele>
        <time>2015-07-13T20:18:11.831Z</time>
      </trkpt>
      <trkpt lat="48.83633" lon="2.30658">
        <ele>112.1</ele>
        <time>2015-07-13T20:18:12.841Z</time>
      </trkpt>
      <trkpt lat="48.83629" lon="2.30667">
        <ele>112.6</ele>
        <time>2015-07-13T20:18:15.771Z</time>
      </trkpt>
      <trkpt lat="48.83628" lon="2.30669">
        <ele>112.9</ele>
        <time>2015-07-13T20:18:16.796Z</time>
      </trkpt>
      <trkpt lat="48.83625" lon="2.3068">
        <ele>113.8</ele>
        <time>2015-07-13T20:18:19.859Z</time>
      </trkpt>
      <trkpt lat="48.83623" lon="2.30682">
        <ele>114.3</ele>
        <time>2015-07-13T20:18:20.832Z</time>
      </trkpt>
      <trkpt lat="48.83615" lon="2.30688">
        <ele>115.9</ele>
        <time>2015-07-13T20:18:24.833Z</time>
      </trkpt>
      <trkpt lat="48.83612" lon="2.30691">
        <ele>116.3</ele>
        <time>2015-07-13T20:18:25.827Z</time>
      </trkpt>
      <trkpt lat="48.83609" lon="2.30695">
        <ele>116.7</ele>
        <time>2015-07-13T20:18:26.832Z</time>
      </trkpt>
      <trkpt lat="48.83605" lon="2.307">
        <ele>116.7</ele>
        <time>2015-07-13T20:18:27.862Z</time>
      </trkpt>
      <trkpt lat="48.83599" lon="2.30704">
        <ele>116.8</ele>
        <time>2015-07-13T20:18:28.802Z</time>
      </trkpt>
      <trkpt lat="48.83593" lon="2.3071">
        <ele>117.4</ele>
        <time>2015-07-13T20:18:29.841Z</time>
      </trkpt>
      <trkpt lat="48.83588" lon="2.30716">
        <ele>117.6</ele>
        <time>2015-07-13T20:18:30.851Z</time>
      </trkpt>
      <trkpt lat="48.83583" lon="2.30721">
        <ele>117.8</ele>
        <time>2015-07-13T20:18:31.781Z</time>
      </trkpt>
      <trkpt lat="48.83579" lon="2.30725">
        <ele>118.2</ele>
        <time>2015-07-13T20:18:33.497Z</time>
      </trkpt>
      <trkpt lat="48.83574" lon="2.30729">
        <ele>118.7</ele>
        <time>2015-07-13T20:18:33.761Z</time>
      </trkpt>
      <trkpt lat="48.8357" lon="2.30733">
        <ele>119.5</ele>
        <time>2015-07-13T20:18:34.773Z</time>
      </trkpt>
      <trkpt lat="48.83565" lon="2.30736">
        <ele>120.3</ele>
        <time>2015-07-13T20:18:35.785Z</time>
      </trkpt>
      <trkpt lat="48.83558" lon="2.30743">
        <ele>120.4</ele>
        <time>2015-07-13T20:18:38.543Z</time>
      </trkpt>
      <trkpt lat="48.83554" lon="2.30747">
        <ele>120.7</ele>
        <time>2015-07-13T20:18:38.808Z</time>
      </trkpt>
      <trkpt lat="48.83549" lon="2.30753">
        <ele>120.7</ele>
        <time>2015-07-13T20:18:39.829Z</time>
      </trkpt>
      <trkpt lat="48.83545" lon="2.30757">
        <ele>120.8</ele>
        <time>2015-07-13T20:18:40.832Z</time>
      </trkpt>
      <trkpt lat="48.83541" lon="2.30762">
        <ele>120.8</ele>
        <time>2015-07-13T20:18:41.833Z</time>
      </trkpt>
      <trkpt lat="48.83536" lon="2.30767">
        <ele>121</ele>
        <time>2015-07-13T20:18:42.725Z</time>
      </trkpt>
      <trkpt lat="48.83532" lon="2.30771">
        <ele>121.2</ele>
        <time>2015-07-13T20:18:43.778Z</time>
      </trkpt>
      <trkpt lat="48.83527" lon="2.30773">
        <ele>121.9</ele>
        <time>2015-07-13T20:18:44.786Z</time>
      </trkpt>
      <trkpt lat="48.83522" lon="2.30775">
        <ele>122.3</ele>
        <time>2015-07-13T20:18:45.801Z</time>
      </trkpt>
      <trkpt lat="48.83517" lon="2.30779">
        <ele>122.6</ele>
        <time>2015-07-13T20:18:46.817Z</time>
      </trkpt>
      <trkpt lat="48.83513" lon="2.30783">
        <ele>122.8</ele>
        <time>2015-07-13T20:18:47.826Z</time>
      </trkpt>
      <trkpt lat="48.83509" lon="2.30787">
        <ele>122.4</ele>
        <time>2015-07-13T20:18:48.835Z</time>
      </trkpt>
      <trkpt lat="48.83505" lon="2.3079">
        <ele>122</ele>
        <time>2015-07-13T20:18:49.763Z</time>
      </trkpt>
      <trkpt lat="48.83501" lon="2.30793">
        <ele>121.9</ele>
        <time>2015-07-13T20:18:50.769Z</time>
      </trkpt>
      <trkpt lat="48.83496" lon="2.30797">
        <ele>122</ele>
        <time>2015-07-13T20:18:51.775Z</time>
      </trkpt>
      <trkpt lat="48.83492" lon="2.30803">
        <ele>122.4</ele>
        <time>2015-07-13T20:18:52.798Z</time>
      </trkpt>
      <trkpt lat="48.83487" lon="2.30808">
        <ele>122.9</ele>
        <time>2015-07-13T20:18:53.814Z</time>
      </trkpt>
      <trkpt lat="48.83483" lon="2.30815">
        <ele>123</ele>
        <time>2015-07-13T20:18:54.832Z</time>
      </trkpt>
      <trkpt lat="48.83478" lon="2.30821">
        <ele>123.1</ele>
        <time>2015-07-13T20:18:55.760Z</time>
      </trkpt>
      <trkpt lat="48.83473" lon="2.30826">
        <ele>123.2</ele>
        <time>2015-07-13T20:18:56.764Z</time>
      </trkpt>
      <trkpt lat="48.83469" lon="2.3083">
        <ele>123.1</ele>
        <time>2015-07-13T20:18:57.767Z</time>
      </trkpt>
      <trkpt lat="48.83464" lon="2.30834">
        <ele>123</ele>
        <time>2015-07-13T20:18:58.776Z</time>
      </trkpt>
      <trkpt lat="48.8346" lon="2.30839">
        <ele>122.6</ele>
        <time>2015-07-13T20:18:59.838Z</time>
      </trkpt>
      <trkpt lat="48.83456" lon="2.30844">
        <ele>122.7</ele>
        <time>2015-07-13T20:19:00.726Z</time>
      </trkpt>
      <trkpt lat="48.83452" lon="2.3085">
        <ele>122.7</ele>
        <time>2015-07-13T20:19:01.758Z</time>
      </trkpt>
      <trkpt lat="48.83448" lon="2.30857">
        <ele>123.6</ele>
        <time>2015-07-13T20:19:02.772Z</time>
      </trkpt>
      <trkpt lat="48.83444" lon="2.30862">
        <ele>123.2</ele>
        <time>2015-07-13T20:19:03.792Z</time>
      </trkpt>
      <trkpt lat="48.83441" lon="2.30866">
        <ele>122.6</ele>
        <time>2015-07-13T20:19:04.804Z</time>
      </trkpt>
      <trkpt lat="48.83434" lon="2.30871">
        <ele>122</ele>
        <time>2015-07-13T20:19:06.832Z</time>
      </trkpt>
      <trkpt lat="48.8343" lon="2.30872">
        <ele>121.9</ele>
        <time>2015-07-13T20:19:07.850Z</time>
      </trkpt>
      <trkpt lat="48.83422" lon="2.30876">
        <ele>121.8</ele>
        <time>2015-07-13T20:19:09.756Z</time>
      </trkpt>
      <trkpt lat="48.83418" lon="2.30878">
        <ele>121.7</ele>
        <time>2015-07-13T20:19:10.823Z</time>
      </trkpt>
      <trkpt lat="48.83411" lon="2.30883">
        <ele>121.6</ele>
        <time>2015-07-13T20:19:12.819Z</time>
      </trkpt>
      <trkpt lat="48.83407" lon="2.30885">
        <ele>121.3</ele>
        <time>2015-07-13T20:19:13.844Z</time>
      </trkpt>
      <trkpt lat="48.83399" lon="2.30892">
        <ele>121</ele>
        <time>2015-07-13T20:19:15.893Z</time>
      </trkpt>
      <trkpt lat="48.83396" lon="2.30896">
        <ele>121</ele>
        <time>2015-07-13T20:19:16.846Z</time>
      </trkpt>
      <trkpt lat="48.83391" lon="2.309">
        <ele>120.8</ele>
        <time>2015-07-13T20:19:17.866Z</time>
      </trkpt>
      <trkpt lat="48.83387" lon="2.30903">
        <ele>121</ele>
        <time>2015-07-13T20:19:18.768Z</time>
      </trkpt>
      <trkpt lat="48.83379" lon="2.30907">
        <ele>121.8</ele>
        <time>2015-07-13T20:19:20.790Z</time>
      </trkpt>
      <trkpt lat="48.83376" lon="2.3091">
        <ele>122.4</ele>
        <time>2015-07-13T20:19:21.818Z</time>
      </trkpt>
      <trkpt lat="48.83367" lon="2.30911">
        <ele>122.8</ele>
        <time>2015-07-13T20:19:24.842Z</time>
      </trkpt>
      <trkpt lat="48.83365" lon="2.30911">
        <ele>122.5</ele>
        <time>2015-07-13T20:19:25.866Z</time>
      </trkpt>
      <trkpt lat="48.8336" lon="2.3091">
        <ele>122.1</ele>
        <time>2015-07-13T20:20:41.822Z</time>
      </trkpt>
      <trkpt lat="48.8337" lon="2.30933">
        <ele>116</ele>
        <time>2015-07-13T20:20:42.829Z</time>
      </trkpt>
      <trkpt lat="48.83377" lon="2.30941">
        <ele>116</ele>
        <time>2015-07-13T20:20:46.783Z</time>
      </trkpt>
      <trkpt lat="48.83379" lon="2.30942">
        <ele>116.1</ele>
        <time>2015-07-13T20:20:47.865Z</time>
      </trkpt>
      <trkpt lat="48.83385" lon="2.30944">
        <ele>116.3</ele>
        <time>2015-07-13T20:20:49.785Z</time>
      </trkpt>
      <trkpt lat="48.83388" lon="2.30945">
        <ele>116.5</ele>
        <time>2015-07-13T20:20:50.802Z</time>
      </trkpt>
      <trkpt lat="48.83395" lon="2.30953">
        <ele>116.2</ele>
        <time>2015-07-13T20:20:52.741Z</time>
      </trkpt>
      <trkpt lat="48.83399" lon="2.30956">
        <ele>116.4</ele>
        <time>2015-07-13T20:20:53.806Z</time>
      </trkpt>
      <trkpt lat="48.83405" lon="2.30963">
        <ele>116.6</ele>
        <time>2015-07-13T20:20:55.781Z</time>
      </trkpt>
      <trkpt lat="48.83406" lon="2.30968">
        <ele>116.6</ele>
        <time>2015-07-13T20:20:56.772Z</time>
      </trkpt>
      <trkpt lat="48.83414" lon="2.30975">
        <ele>116.9</ele>
        <time>2015-07-13T20:20:58.818Z</time>
      </trkpt>
      <trkpt lat="48.8342" lon="2.30979">
        <ele>117</ele>
        <time>2015-07-13T20:20:59.843Z</time>
      </trkpt>
      <trkpt lat="48.83425" lon="2.30986">
        <ele>117.3</ele>
        <time>2015-07-13T20:21:00.811Z</time>
      </trkpt>
      <trkpt lat="48.8343" lon="2.30995">
        <ele>117.6</ele>
        <time>2015-07-13T20:21:01.729Z</time>
      </trkpt>
      <trkpt lat="48.83437" lon="2.31006">
        <ele>118.1</ele>
        <time>2015-07-13T20:21:02.760Z</time>
      </trkpt>
      <trkpt lat="48.83445" lon="2.31017">
        <ele>118.5</ele>
        <time>2015-07-13T20:21:03.781Z</time>
      </trkpt>
      <trkpt lat="48.83452" lon="2.31024">
        <ele>119.1</ele>
        <time>2015-07-13T20:21:04.841Z</time>
      </trkpt>
      <trkpt lat="48.83458" lon="2.31031">
        <ele>119.4</ele>
        <time>2015-07-13T20:21:05.767Z</time>
      </trkpt>
      <trkpt lat="48.83466" lon="2.3104">
        <ele>119.7</ele>
        <time>2015-07-13T20:21:06.714Z</time>
      </trkpt>
      <trkpt lat="48.83466" lon="2.3104">
        <ele>119.7</ele>
        <time>2015-07-13T20:21:05.285Z</time>
      </trkpt>
      <trkpt lat="48.83476" lon="2.31052">
        <ele>120</ele>
        <time>2015-07-13T20:21:07.725Z</time>
      </trkpt>
      <trkpt lat="48.83484" lon="2.31062">
        <ele>120.4</ele>
        <time>2015-07-13T20:21:08.742Z</time>
      </trkpt>
      <trkpt lat="48.83491" lon="2.31065">
        <ele>122.6</ele>
        <time>2015-07-13T20:21:13.787Z</time>
      </trkpt>
      <trkpt lat="48.83493" lon="2.31064">
        <ele>123.2</ele>
        <time>2015-07-13T20:21:14.844Z</time>
      </trkpt>
      <trkpt lat="48.83497" lon="2.31075">
        <ele>124.7</ele>
        <time>2015-07-13T20:21:21.804Z</time>
      </trkpt>
      <trkpt lat="48.83501" lon="2.3108">
        <ele>124.3</ele>
        <time>2015-07-13T20:21:22.821Z</time>
      </trkpt>
      <trkpt lat="48.83505" lon="2.31084">
        <ele>123.9</ele>
        <time>2015-07-13T20:21:23.842Z</time>
      </trkpt>
      <trkpt lat="48.83509" lon="2.31089">
        <ele>123.5</ele>
        <time>2015-07-13T20:21:24.716Z</time>
      </trkpt>
      <trkpt lat="48.83516" lon="2.31097">
        <ele>123.3</ele>
        <time>2015-07-13T20:21:26.741Z</time>
      </trkpt>
      <trkpt lat="48.8352" lon="2.311">
        <ele>123.1</ele>
        <time>2015-07-13T20:21:27.770Z</time>
      </trkpt>
      <trkpt lat="48.83526" lon="2.31102">
        <ele>123.1</ele>
        <time>2015-07-13T20:21:28.722Z</time>
      </trkpt>
      <trkpt lat="48.8353" lon="2.31104">
        <ele>122.7</ele>
        <time>2015-07-13T20:21:29.797Z</time>
      </trkpt>
      <trkpt lat="48.83534" lon="2.31109">
        <ele>122.9</ele>
        <time>2015-07-13T20:21:30.714Z</time>
      </trkpt>
      <trkpt lat="48.83537" lon="2.31114">
        <ele>123</ele>
        <time>2015-07-13T20:21:31.715Z</time>
      </trkpt>
      <trkpt lat="48.83541" lon="2.31119">
        <ele>123.2</ele>
        <time>2015-07-13T20:21:32.742Z</time>
      </trkpt>
      <trkpt lat="48.83546" lon="2.31124">
        <ele>122.4</ele>
        <time>2015-07-13T20:21:33.752Z</time>
      </trkpt>
      <trkpt lat="48.83552" lon="2.31133">
        <ele>121.3</ele>
        <time>2015-07-13T20:21:35.762Z</time>
      </trkpt>
      <trkpt lat="48.83555" lon="2.31135">
        <ele>121.3</ele>
        <time>2015-07-13T20:21:36.760Z</time>
      </trkpt>
      <trkpt lat="48.83563" lon="2.31137">
        <ele>121.3</ele>
        <time>2015-07-13T20:21:38.782Z</time>
      </trkpt>
      <trkpt lat="48.83571" lon="2.31133">
        <ele>121.6</ele>
        <time>2015-07-13T20:21:39.788Z</time>
      </trkpt>
      <trkpt lat="48.8358" lon="2.31135">
        <ele>122.6</ele>
        <time>2015-07-13T20:21:41.853Z</time>
      </trkpt>
      <trkpt lat="48.83582" lon="2.31136">
        <ele>122.6</ele>
        <time>2015-07-13T20:21:42.763Z</time>
      </trkpt>
      <trkpt lat="48.8359" lon="2.31138">
        <ele>122.7</ele>
        <time>2015-07-13T20:21:45.758Z</time>
      </trkpt>
      <trkpt lat="48.83593" lon="2.31141">
        <ele>122.5</ele>
        <time>2015-07-13T20:21:46.733Z</time>
      </trkpt>
      <trkpt lat="48.83599" lon="2.3115">
        <ele>121.9</ele>
        <time>2015-07-13T20:21:48.727Z</time>
      </trkpt>
      <trkpt lat="48.83602" lon="2.31153">
        <ele>121.6</ele>
        <time>2015-07-13T20:21:49.751Z</time>
      </trkpt>
      <trkpt lat="48.83606" lon="2.31156">
        <ele>121.3</ele>
        <time>2015-07-13T20:21:52.430Z</time>
      </trkpt>
      <trkpt lat="48.83612" lon="2.31163">
        <ele>121.6</ele>
        <time>2015-07-13T20:21:52.519Z</time>
      </trkpt>
      <trkpt lat="48.83618" lon="2.3117">
        <ele>121.4</ele>
        <time>2015-07-13T20:21:52.732Z</time>
      </trkpt>
      <trkpt lat="48.83622" lon="2.31175">
        <ele>120.8</ele>
        <time>2015-07-13T20:21:53.783Z</time>
      </trkpt>
      <trkpt lat="48.83627" lon="2.3118">
        <ele>120.2</ele>
        <time>2015-07-13T20:21:54.802Z</time>
      </trkpt>
      <trkpt lat="48.83631" lon="2.31185">
        <ele>119.8</ele>
        <time>2015-07-13T20:21:55.735Z</time>
      </trkpt>
      <trkpt lat="48.83635" lon="2.3119">
        <ele>119.4</ele>
        <time>2015-07-13T20:21:56.771Z</time>
      </trkpt>
      <trkpt lat="48.8364" lon="2.31195">
        <ele>119.4</ele>
        <time>2015-07-13T20:21:57.780Z</time>
      </trkpt>
      <trkpt lat="48.83646" lon="2.31205">
        <ele>119.2</ele>
        <time>2015-07-13T20:21:59.809Z</time>
      </trkpt>
      <trkpt lat="48.83649" lon="2.3121">
        <ele>119</ele>
        <time>2015-07-13T20:22:00.734Z</time>
      </trkpt>
      <trkpt lat="48.83656" lon="2.31218">
        <ele>118.7</ele>
        <time>2015-07-13T20:22:02.769Z</time>
      </trkpt>
      <trkpt lat="48.83661" lon="2.31222">
        <ele>118.5</ele>
        <time>2015-07-13T20:22:03.778Z</time>
      </trkpt>
      <trkpt lat="48.83667" lon="2.3123">
        <ele>117.5</ele>
        <time>2015-07-13T20:22:05.749Z</time>
      </trkpt>
      <trkpt lat="48.83669" lon="2.31235">
        <ele>117.4</ele>
        <time>2015-07-13T20:22:06.740Z</time>
      </trkpt>
      <trkpt lat="48.83676" lon="2.31244">
        <ele>116.9</ele>
        <time>2015-07-13T20:22:08.757Z</time>
      </trkpt>
      <trkpt lat="48.83678" lon="2.31249">
        <ele>116.8</ele>
        <time>2015-07-13T20:22:10.147Z</time>
      </trkpt>
      <trkpt lat="48.83684" lon="2.31258">
        <ele>116.6</ele>
        <time>2015-07-13T20:22:11.793Z</time>
      </trkpt>
      <trkpt lat="48.83688" lon="2.31262">
        <ele>116.6</ele>
        <time>2015-07-13T20:22:13.375Z</time>
      </trkpt>
      <trkpt lat="48.83692" lon="2.31266">
        <ele>116.8</ele>
        <time>2015-07-13T20:22:13.841Z</time>
      </trkpt>
      <trkpt lat="48.83695" lon="2.31272">
        <ele>116.8</ele>
        <time>2015-07-13T20:22:14.730Z</time>
      </trkpt>
      <trkpt lat="48.83698" lon="2.31277">
        <ele>116.7</ele>
        <time>2015-07-13T20:22:15.750Z</time>
      </trkpt>
      <trkpt lat="48.83701" lon="2.31283">
        <ele>116.5</ele>
        <time>2015-07-13T20:22:16.781Z</time>
      </trkpt>
      <trkpt lat="48.83705" lon="2.31289">
        <ele>116.1</ele>
        <time>2015-07-13T20:22:18.001Z</time>
      </trkpt>
      <trkpt lat="48.83708" lon="2.31295">
        <ele>116</ele>
        <time>2015-07-13T20:22:18.867Z</time>
      </trkpt>
      <trkpt lat="48.83711" lon="2.31301">
        <ele>115.7</ele>
        <time>2015-07-13T20:22:19.761Z</time>
      </trkpt>
      <trkpt lat="48.83715" lon="2.31307">
        <ele>115.8</ele>
        <time>2015-07-13T20:22:20.753Z</time>
      </trkpt>
      <trkpt lat="48.8372" lon="2.31311">
        <ele>115.8</ele>
        <time>2015-07-13T20:22:21.769Z</time>
      </trkpt>
      <trkpt lat="48.83725" lon="2.31316">
        <ele>115.6</ele>
        <time>2015-07-13T20:22:22.790Z</time>
      </trkpt>
      <trkpt lat="48.83731" lon="2.31321">
        <ele>115.8</ele>
        <time>2015-07-13T20:22:23.891Z</time>
      </trkpt>
      <trkpt lat="48.83736" lon="2.31325">
        <ele>116</ele>
        <time>2015-07-13T20:22:24.744Z</time>
      </trkpt>
      <trkpt lat="48.83741" lon="2.3133">
        <ele>115.9</ele>
        <time>2015-07-13T20:22:25.758Z</time>
      </trkpt>
      <trkpt lat="48.83746" lon="2.31335">
        <ele>115.8</ele>
        <time>2015-07-13T20:22:26.777Z</time>
      </trkpt>
      <trkpt lat="48.83751" lon="2.3134">
        <ele>115.6</ele>
        <time>2015-07-13T20:22:27.784Z</time>
      </trkpt>
      <trkpt lat="48.83755" lon="2.31344">
        <ele>115.7</ele>
        <time>2015-07-13T20:22:28.845Z</time>
      </trkpt>
      <trkpt lat="48.83758" lon="2.3135">
        <ele>115.8</ele>
        <time>2015-07-13T20:22:29.907Z</time>
      </trkpt>
      <trkpt lat="48.83762" lon="2.31356">
        <ele>115.8</ele>
        <time>2015-07-13T20:22:30.745Z</time>
      </trkpt>
      <trkpt lat="48.83766" lon="2.31362">
        <ele>115.8</ele>
        <time>2015-07-13T20:22:31.752Z</time>
      </trkpt>
      <trkpt lat="48.8377" lon="2.31367">
        <ele>115.9</ele>
        <time>2015-07-13T20:22:32.782Z</time>
      </trkpt>
      <trkpt lat="48.83774" lon="2.31372">
        <ele>116</ele>
        <time>2015-07-13T20:22:33.740Z</time>
      </trkpt>
      <trkpt lat="48.83777" lon="2.31378">
        <ele>116</ele>
        <time>2015-07-13T20:22:34.764Z</time>
      </trkpt>
      <trkpt lat="48.8378" lon="2.31384">
        <ele>116</ele>
        <time>2015-07-13T20:22:35.781Z</time>
      </trkpt>
      <trkpt lat="48.83784" lon="2.31389">
        <ele>116.2</ele>
        <time>2015-07-13T20:22:36.807Z</time>
      </trkpt>
      <trkpt lat="48.83787" lon="2.31395">
        <ele>116.3</ele>
        <time>2015-07-13T20:22:37.826Z</time>
      </trkpt>
      <trkpt lat="48.83791" lon="2.31399">
        <ele>116.4</ele>
        <time>2015-07-13T20:22:38.734Z</time>
      </trkpt>
      <trkpt lat="48.83796" lon="2.31404">
        <ele>116.5</ele>
        <time>2015-07-13T20:22:39.763Z</time>
      </trkpt>
      <trkpt lat="48.83799" lon="2.31411">
        <ele>116.5</ele>
        <time>2015-07-13T20:22:40.798Z</time>
      </trkpt>
      <trkpt lat="48.83803" lon="2.31416">
        <ele>116.4</ele>
        <time>2015-07-13T20:22:41.864Z</time>
      </trkpt>
      <trkpt lat="48.83808" lon="2.31419">
        <ele>117.2</ele>
        <time>2015-07-13T20:22:42.734Z</time>
      </trkpt>
      <trkpt lat="48.83815" lon="2.31427">
        <ele>116.4</ele>
        <time>2015-07-13T20:22:44.787Z</time>
      </trkpt>
      <trkpt lat="48.8382" lon="2.31428">
        <ele>115.9</ele>
        <time>2015-07-13T20:22:45.797Z</time>
      </trkpt>
      <trkpt lat="48.83823" lon="2.31432">
        <ele>115.7</ele>
        <time>2015-07-13T20:22:46.804Z</time>
      </trkpt>
      <trkpt lat="48.83827" lon="2.31435">
        <ele>116.1</ele>
        <time>2015-07-13T20:22:47.817Z</time>
      </trkpt>
      <trkpt lat="48.83834" lon="2.31444">
        <ele>116.1</ele>
        <time>2015-07-13T20:22:49.838Z</time>
      </trkpt>
      <trkpt lat="48.83837" lon="2.31448">
        <ele>116</ele>
        <time>2015-07-13T20:22:50.800Z</time>
      </trkpt>
      <trkpt lat="48.83844" lon="2.31453">
        <ele>115.3</ele>
        <time>2015-07-13T20:22:52.769Z</time>
      </trkpt>
      <trkpt lat="48.83847" lon="2.31454">
        <ele>115</ele>
        <time>2015-07-13T20:22:53.851Z</time>
      </trkpt>
      <trkpt lat="48.83855" lon="2.31457">
        <ele>115.6</ele>
        <time>2015-07-13T20:22:56.799Z</time>
      </trkpt>
      <trkpt lat="48.83855" lon="2.3146">
        <ele>116.2</ele>
        <time>2015-07-13T20:22:57.806Z</time>
      </trkpt>
      <trkpt lat="48.83852" lon="2.3147">
        <ele>117.7</ele>
        <time>2015-07-13T20:23:02.763Z</time>
      </trkpt>
      <trkpt lat="48.83852" lon="2.31473">
        <ele>118</ele>
        <time>2015-07-13T20:23:03.780Z</time>
      </trkpt>
      <trkpt lat="48.8385" lon="2.31483">
        <ele>118.6</ele>
        <time>2015-07-13T20:23:06.757Z</time>
      </trkpt>
      <trkpt lat="48.83848" lon="2.31487">
        <ele>119</ele>
        <time>2015-07-13T20:23:07.857Z</time>
      </trkpt>
      <trkpt lat="48.83851" lon="2.31498">
        <ele>119.5</ele>
        <time>2015-07-13T20:23:10.797Z</time>
      </trkpt>
      <trkpt lat="48.83852" lon="2.31503">
        <ele>119.7</ele>
        <time>2015-07-13T20:23:12.002Z</time>
      </trkpt>
      <trkpt lat="48.83854" lon="2.31508">
        <ele>119.9</ele>
        <time>2015-07-13T20:23:12.823Z</time>
      </trkpt>
      <trkpt lat="48.83857" lon="2.31515">
        <ele>120</ele>
        <time>2015-07-13T20:23:13.847Z</time>
      </trkpt>
      <trkpt lat="48.83857" lon="2.31521">
        <ele>120</ele>
        <time>2015-07-13T20:23:14.841Z</time>
      </trkpt>
      <trkpt lat="48.83859" lon="2.31529">
        <ele>120.4</ele>
        <time>2015-07-13T20:23:15.793Z</time>
      </trkpt>
      <trkpt lat="48.83861" lon="2.31536">
        <ele>120.7</ele>
        <time>2015-07-13T20:23:16.778Z</time>
      </trkpt>
      <trkpt lat="48.83863" lon="2.31544">
        <ele>120.9</ele>
        <time>2015-07-13T20:23:17.824Z</time>
      </trkpt>
      <trkpt lat="48.83866" lon="2.31556">
        <ele>121.4</ele>
        <time>2015-07-13T20:23:19.774Z</time>
      </trkpt>
      <trkpt lat="48.83868" lon="2.31563">
        <ele>121.4</ele>
        <time>2015-07-13T20:23:20.816Z</time>
      </trkpt>
      <trkpt lat="48.8387" lon="2.31574">
        <ele>122.5</ele>
        <time>2015-07-13T20:23:22.787Z</time>
      </trkpt>
      <trkpt lat="48.83871" lon="2.31579">
        <ele>123.1</ele>
        <time>2015-07-13T20:23:23.831Z</time>
      </trkpt>
      <trkpt lat="48.83874" lon="2.3159">
        <ele>124</ele>
        <time>2015-07-13T20:23:26.872Z</time>
      </trkpt>
      <trkpt lat="48.83876" lon="2.31594">
        <ele>124.2</ele>
        <time>2015-07-13T20:23:27.796Z</time>
      </trkpt>
      <trkpt lat="48.83879" lon="2.31603">
        <ele>124.1</ele>
        <time>2015-07-13T20:23:29.851Z</time>
      </trkpt>
      <trkpt lat="48.8388" lon="2.31609">
        <ele>123.9</ele>
        <time>2015-07-13T20:23:30.777Z</time>
      </trkpt>
      <trkpt lat="48.83883" lon="2.31621">
        <ele>124</ele>
        <time>2015-07-13T20:23:32.811Z</time>
      </trkpt>
      <trkpt lat="48.83885" lon="2.31626">
        <ele>124.1</ele>
        <time>2015-07-13T20:23:33.744Z</time>
      </trkpt>
      <trkpt lat="48.83889" lon="2.31636">
        <ele>124.3</ele>
        <time>2015-07-13T20:23:36.638Z</time>
      </trkpt>
      <trkpt lat="48.8389" lon="2.3164">
        <ele>124.7</ele>
        <time>2015-07-13T20:23:36.822Z</time>
      </trkpt>
      <trkpt lat="48.8389" lon="2.31653">
        <ele>125.6</ele>
        <time>2015-07-13T20:23:39.778Z</time>
      </trkpt>
      <trkpt lat="48.8389" lon="2.31655">
        <ele>125.9</ele>
        <time>2015-07-13T20:23:40.861Z</time>
      </trkpt>
      <trkpt lat="48.8389" lon="2.31663">
        <ele>128.2</ele>
        <time>2015-07-13T20:23:42.791Z</time>
      </trkpt>
      <trkpt lat="48.83887" lon="2.31672">
        <ele>130.3</ele>
        <time>2015-07-13T20:23:43.806Z</time>
      </trkpt>
      <trkpt lat="48.83888" lon="2.31671">
        <ele>130.2</ele>
        <time>2015-07-13T20:24:17.830Z</time>
      </trkpt>
      <trkpt lat="48.83881" lon="2.31659">
        <ele>126.3</ele>
        <time>2015-07-13T20:24:18.755Z</time>
      </trkpt>
      <trkpt lat="48.83878" lon="2.31671">
        <ele>130.2</ele>
        <time>2015-07-13T20:24:23.947Z</time>
      </trkpt>
      <trkpt lat="48.83878" lon="2.31673">
        <ele>130.8</ele>
        <time>2015-07-13T20:24:24.850Z</time>
      </trkpt>
      <trkpt lat="48.83879" lon="2.31683">
        <ele>140</ele>
        <time>2015-07-13T20:24:36.743Z</time>
      </trkpt>
      <trkpt lat="48.83876" lon="2.3169">
        <ele>140.3</ele>
        <time>2015-07-13T20:24:37.772Z</time>
      </trkpt>
      <trkpt lat="48.83874" lon="2.317">
        <ele>140.8</ele>
        <time>2015-07-13T20:24:39.156Z</time>
      </trkpt>
      <trkpt lat="48.8387" lon="2.31708">
        <ele>140.8</ele>
        <time>2015-07-13T20:24:39.801Z</time>
      </trkpt>
      <trkpt lat="48.83866" lon="2.31715">
        <ele>140.5</ele>
        <time>2015-07-13T20:24:40.817Z</time>
      </trkpt>
      <trkpt lat="48.8386" lon="2.31721">
        <ele>140.1</ele>
        <time>2015-07-13T20:24:41.815Z</time>
      </trkpt>
      <trkpt lat="48.83855" lon="2.31726">
        <ele>139.9</ele>
        <time>2015-07-13T20:24:42.834Z</time>
      </trkpt>
      <trkpt lat="48.83852" lon="2.31732">
        <ele>139.7</ele>
        <time>2015-07-13T20:24:43.847Z</time>
      </trkpt>
      <trkpt lat="48.83848" lon="2.31739">
        <ele>139.4</ele>
        <time>2015-07-13T20:24:44.755Z</time>
      </trkpt>
      <trkpt lat="48.83844" lon="2.31747">
        <ele>139</ele>
        <time>2015-07-13T20:24:45.781Z</time>
      </trkpt>
      <trkpt lat="48.83841" lon="2.31756">
        <ele>139.6</ele>
        <time>2015-07-13T20:24:46.792Z</time>
      </trkpt>
      <trkpt lat="48.83835" lon="2.31768">
        <ele>141.4</ele>
        <time>2015-07-13T20:24:47.821Z</time>
      </trkpt>
      <trkpt lat="48.8383" lon="2.31776">
        <ele>142.8</ele>
        <time>2015-07-13T20:24:48.814Z</time>
      </trkpt>
      <trkpt lat="48.83824" lon="2.31784">
        <ele>144</ele>
        <time>2015-07-13T20:24:49.740Z</time>
      </trkpt>
      <trkpt lat="48.83819" lon="2.31789">
        <ele>145</ele>
        <time>2015-07-13T20:24:51.370Z</time>
      </trkpt>
      <trkpt lat="48.83813" lon="2.31794">
        <ele>145.8</ele>
        <time>2015-07-13T20:24:51.733Z</time>
      </trkpt>
      <trkpt lat="48.83806" lon="2.31798">
        <ele>146.8</ele>
        <time>2015-07-13T20:24:54.356Z</time>
      </trkpt>
      <trkpt lat="48.83804" lon="2.31799">
        <ele>146.8</ele>
        <time>2015-07-13T20:24:54.772Z</time>
      </trkpt>
      <trkpt lat="48.83801" lon="2.318">
        <ele>147</ele>
        <time>2015-07-13T20:24:56.816Z</time>
      </trkpt>
      <trkpt lat="48.83794" lon="2.31806">
        <ele>146.1</ele>
        <time>2015-07-13T20:24:58.778Z</time>
      </trkpt>
      <trkpt lat="48.83789" lon="2.31807">
        <ele>145.6</ele>
        <time>2015-07-13T20:24:59.856Z</time>
      </trkpt>
      <trkpt lat="48.83782" lon="2.31805">
        <ele>145.4</ele>
        <time>2015-07-13T20:25:00.855Z</time>
      </trkpt>
      <trkpt lat="48.83775" lon="2.31803">
        <ele>145.7</ele>
        <time>2015-07-13T20:25:01.831Z</time>
      </trkpt>
      <trkpt lat="48.83767" lon="2.318">
        <ele>145.8</ele>
        <time>2015-07-13T20:25:02.780Z</time>
      </trkpt>
      <trkpt lat="48.8376" lon="2.31796">
        <ele>145.6</ele>
        <time>2015-07-13T20:25:03.786Z</time>
      </trkpt>
      <trkpt lat="48.83752" lon="2.3179">
        <ele>145.5</ele>
        <time>2015-07-13T20:25:04.742Z</time>
      </trkpt>
      <trkpt lat="48.83742" lon="2.3178">
        <ele>146.3</ele>
        <time>2015-07-13T20:25:05.822Z</time>
      </trkpt>
      <trkpt lat="48.83742" lon="2.3178">
        <ele>146.3</ele>
        <time>2015-07-13T20:25:04.500Z</time>
      </trkpt>
      <trkpt lat="48.83733" lon="2.31776">
        <ele>145.3</ele>
        <time>2015-07-13T20:25:06.845Z</time>
      </trkpt>
      <trkpt lat="48.83727" lon="2.31776">
        <ele>144.1</ele>
        <time>2015-07-13T20:25:07.768Z</time>
      </trkpt>
      <trkpt lat="48.83723" lon="2.31777">
        <ele>143</ele>
        <time>2015-07-13T20:25:08.776Z</time>
      </trkpt>
      <trkpt lat="48.83722" lon="2.31785">
        <ele>138.3</ele>
        <time>2015-07-13T20:25:34.815Z</time>
      </trkpt>
      <trkpt lat="48.83734" lon="2.31798">
        <ele>129.5</ele>
        <time>2015-07-13T20:25:35.834Z</time>
      </trkpt>
      <trkpt lat="48.83726" lon="2.31795">
        <ele>128.3</ele>
        <time>2015-07-13T20:25:37.818Z</time>
      </trkpt>
      <trkpt lat="48.83722" lon="2.31793">
        <ele>127.9</ele>
        <time>2015-07-13T20:25:38.837Z</time>
      </trkpt>
      <trkpt lat="48.83714" lon="2.31793">
        <ele>127.4</ele>
        <time>2015-07-13T20:25:40.806Z</time>
      </trkpt>
      <trkpt lat="48.8371" lon="2.31794">
        <ele>127.5</ele>
        <time>2015-07-13T20:25:41.865Z</time>
      </trkpt>
      <trkpt lat="48.83703" lon="2.31799">
        <ele>127.7</ele>
        <time>2015-07-13T20:25:43.787Z</time>
      </trkpt>
      <trkpt lat="48.83699" lon="2.31804">
        <ele>128</ele>
        <time>2015-07-13T20:25:44.803Z</time>
      </trkpt>
      <trkpt lat="48.83694" lon="2.31808">
        <ele>128.6</ele>
        <time>2015-07-13T20:25:45.844Z</time>
      </trkpt>
      <trkpt lat="48.83691" lon="2.31812">
        <ele>129.2</ele>
        <time>2015-07-13T20:25:46.854Z</time>
      </trkpt>
      <trkpt lat="48.83688" lon="2.31825">
        <ele>129.2</ele>
        <time>2015-07-13T20:25:48.780Z</time>
      </trkpt>
      <trkpt lat="48.83689" lon="2.31832">
        <ele>129.1</ele>
        <time>2015-07-13T20:25:49.765Z</time>
      </trkpt>
      <trkpt lat="48.83688" lon="2.31839">
        <ele>129.3</ele>
        <time>2015-07-13T20:25:50.817Z</time>
      </trkpt>
      <trkpt lat="48.83687" lon="2.31849">
        <ele>130</ele>
        <time>2015-07-13T20:25:51.794Z</time>
      </trkpt>
      <trkpt lat="48.83686" lon="2.31859">
        <ele>130.6</ele>
        <time>2015-07-13T20:25:52.864Z</time>
      </trkpt>
      <trkpt lat="48.83685" lon="2.31869">
        <ele>131.7</ele>
        <time>2015-07-13T20:25:53.870Z</time>
      </trkpt>
      <trkpt lat="48.8368" lon="2.3188">
        <ele>130.6</ele>
        <time>2015-07-13T20:25:56.746Z</time>
      </trkpt>
      <trkpt lat="48.83679" lon="2.3188">
        <ele>130.4</ele>
        <time>2015-07-13T20:25:57.852Z</time>
      </trkpt>
      <trkpt lat="48.83673" lon="2.31874">
        <ele>129.7</ele>
        <time>2015-07-13T20:26:00.769Z</time>
      </trkpt>
      <trkpt lat="48.8367" lon="2.31873">
        <ele>129.3</ele>
        <time>2015-07-13T20:26:01.775Z</time>
      </trkpt>
      <trkpt lat="48.83663" lon="2.31873">
        <ele>128.4</ele>
        <time>2015-07-13T20:26:03.828Z</time>
      </trkpt>
      <trkpt lat="48.8366" lon="2.31874">
        <ele>128.1</ele>
        <time>2015-07-13T20:26:05.065Z</time>
      </trkpt>
      <trkpt lat="48.83651" lon="2.31877">
        <ele>127.8</ele>
        <time>2015-07-13T20:26:06.734Z</time>
      </trkpt>
      <trkpt lat="48.83647" lon="2.31878">
        <ele>127.6</ele>
        <time>2015-07-13T20:26:07.745Z</time>
      </trkpt>
      <trkpt lat="48.83638" lon="2.31878">
        <ele>127.3</ele>
        <time>2015-07-13T20:26:09.725Z</time>
      </trkpt>
      <trkpt lat="48.83634" lon="2.3188">
        <ele>127.1</ele>
        <time>2015-07-13T20:26:10.848Z</time>
      </trkpt>
      <trkpt lat="48.83629" lon="2.31881">
        <ele>126.7</ele>
        <time>2015-07-13T20:26:11.814Z</time>
      </trkpt>
      <trkpt lat="48.83625" lon="2.31883">
        <ele>126.4</ele>
        <time>2015-07-13T20:26:12.819Z</time>
      </trkpt>
      <trkpt lat="48.83617" lon="2.3189">
        <ele>126</ele>
        <time>2015-07-13T20:26:14.752Z</time>
      </trkpt>
      <trkpt lat="48.83614" lon="2.31894">
        <ele>126.1</ele>
        <time>2015-07-13T20:26:15.796Z</time>
      </trkpt>
      <trkpt lat="48.83607" lon="2.31899">
        <ele>126.5</ele>
        <time>2015-07-13T20:26:17.842Z</time>
      </trkpt>
      <trkpt lat="48.83603" lon="2.31901">
        <ele>126.5</ele>
        <time>2015-07-13T20:26:18.748Z</time>
      </trkpt>
      <trkpt lat="48.83597" lon="2.31906">
        <ele>126.6</ele>
        <time>2015-07-13T20:26:20.723Z</time>
      </trkpt>
      <trkpt lat="48.83595" lon="2.3191">
        <ele>126.2</ele>
        <time>2015-07-13T20:26:21.847Z</time>
      </trkpt>
      <trkpt lat="48.83589" lon="2.31917">
        <ele>126.2</ele>
        <time>2015-07-13T20:26:23.831Z</time>
      </trkpt>
      <trkpt lat="48.83586" lon="2.3192">
        <ele>126.4</ele>
        <time>2015-07-13T20:26:24.838Z</time>
      </trkpt>
      <trkpt lat="48.8358" lon="2.31927">
        <ele>126.7</ele>
        <time>2015-07-13T20:26:26.765Z</time>
      </trkpt>
      <trkpt lat="48.83578" lon="2.31931">
        <ele>126.5</ele>
        <time>2015-07-13T20:26:27.790Z</time>
      </trkpt>
      <trkpt lat="48.83574" lon="2.31935">
        <ele>126.4</ele>
        <time>2015-07-13T20:26:28.770Z</time>
      </trkpt>
      <trkpt lat="48.8357" lon="2.31939">
        <ele>126.5</ele>
        <time>2015-07-13T20:26:29.915Z</time>
      </trkpt>
      <trkpt lat="48.83566" lon="2.31944">
        <ele>126.6</ele>
        <time>2015-07-13T20:26:30.746Z</time>
      </trkpt>
      <trkpt lat="48.83563" lon="2.3195">
        <ele>126.6</ele>
        <time>2015-07-13T20:26:31.747Z</time>
      </trkpt>
      <trkpt lat="48.8356" lon="2.31955">
        <ele>126.7</ele>
        <time>2015-07-13T20:26:32.796Z</time>
      </trkpt>
      <trkpt lat="48.83557" lon="2.31961">
        <ele>126.7</ele>
        <time>2015-07-13T20:26:33.735Z</time>
      </trkpt>
      <trkpt lat="48.83554" lon="2.31966">
        <ele>126.7</ele>
        <time>2015-07-13T20:26:34.748Z</time>
      </trkpt>
      <trkpt lat="48.83551" lon="2.31971">
        <ele>126.7</ele>
        <time>2015-07-13T20:26:35.783Z</time>
      </trkpt>
      <trkpt lat="48.83546" lon="2.31975">
        <ele>126.8</ele>
        <time>2015-07-13T20:26:36.794Z</time>
      </trkpt>
      <trkpt lat="48.83542" lon="2.31978">
        <ele>126.8</ele>
        <time>2015-07-13T20:26:37.804Z</time>
      </trkpt>
      <trkpt lat="48.83537" lon="2.31986">
        <ele>126.5</ele>
        <time>2015-07-13T20:26:39.744Z</time>
      </trkpt>
      <trkpt lat="48.83534" lon="2.3199">
        <ele>126.1</ele>
        <time>2015-07-13T20:26:40.797Z</time>
      </trkpt>
      <trkpt lat="48.83528" lon="2.31998">
        <ele>125.4</ele>
        <time>2015-07-13T20:26:42.744Z</time>
      </trkpt>
      <trkpt lat="48.83524" lon="2.32003">
        <ele>125.2</ele>
        <time>2015-07-13T20:26:43.771Z</time>
      </trkpt>
      <trkpt lat="48.83517" lon="2.32008">
        <ele>124.8</ele>
        <time>2015-07-13T20:26:45.757Z</time>
      </trkpt>
      <trkpt lat="48.83513" lon="2.32012">
        <ele>124.4</ele>
        <time>2015-07-13T20:26:46.770Z</time>
      </trkpt>
      <trkpt lat="48.83512" lon="2.32021">
        <ele>122.6</ele>
        <time>2015-07-13T20:26:48.750Z</time>
      </trkpt>
      <trkpt lat="48.83509" lon="2.32024">
        <ele>122.3</ele>
        <time>2015-07-13T20:26:49.802Z</time>
      </trkpt>
      <trkpt lat="48.83503" lon="2.32033">
        <ele>121.6</ele>
        <time>2015-07-13T20:26:51.756Z</time>
      </trkpt>
      <trkpt lat="48.835" lon="2.32039">
        <ele>121.5</ele>
        <time>2015-07-13T20:26:52.739Z</time>
      </trkpt>
      <trkpt lat="48.83497" lon="2.32045">
        <ele>121.4</ele>
        <time>2015-07-13T20:26:53.804Z</time>
      </trkpt>
      <trkpt lat="48.83494" lon="2.3205">
        <ele>121.4</ele>
        <time>2015-07-13T20:26:54.742Z</time>
      </trkpt>
      <trkpt lat="48.8349" lon="2.32058">
        <ele>121.3</ele>
        <time>2015-07-13T20:26:55.756Z</time>
      </trkpt>
      <trkpt lat="48.83487" lon="2.32065">
        <ele>121.5</ele>
        <time>2015-07-13T20:26:56.797Z</time>
      </trkpt>
      <trkpt lat="48.83484" lon="2.3207">
        <ele>121.5</ele>
        <time>2015-07-13T20:26:57.798Z</time>
      </trkpt>
      <trkpt lat="48.83481" lon="2.32077">
        <ele>121.5</ele>
        <time>2015-07-13T20:26:58.814Z</time>
      </trkpt>
      <trkpt lat="48.83478" lon="2.32084">
        <ele>121.6</ele>
        <time>2015-07-13T20:26:59.840Z</time>
      </trkpt>
      <trkpt lat="48.83475" lon="2.32092">
        <ele>121.5</ele>
        <time>2015-07-13T20:27:00.793Z</time>
      </trkpt>
      <trkpt lat="48.83472" lon="2.32098">
        <ele>121.7</ele>
        <time>2015-07-13T20:27:01.729Z</time>
      </trkpt>
      <trkpt lat="48.83469" lon="2.32105">
        <ele>122</ele>
        <time>2015-07-13T20:27:02.725Z</time>
      </trkpt>
      <trkpt lat="48.83466" lon="2.32112">
        <ele>122.2</ele>
        <time>2015-07-13T20:27:03.769Z</time>
      </trkpt>
      <trkpt lat="48.83463" lon="2.32118">
        <ele>122.5</ele>
        <time>2015-07-13T20:27:04.781Z</time>
      </trkpt>
      <trkpt lat="48.8346" lon="2.32125">
        <ele>123</ele>
        <time>2015-07-13T20:27:05.795Z</time>
      </trkpt>
      <trkpt lat="48.83456" lon="2.3213">
        <ele>123.3</ele>
        <time>2015-07-13T20:27:06.813Z</time>
      </trkpt>
      <trkpt lat="48.83454" lon="2.32136">
        <ele>123.8</ele>
        <time>2015-07-13T20:27:07.738Z</time>
      </trkpt>
      <trkpt lat="48.8345" lon="2.32141">
        <ele>124.2</ele>
        <time>2015-07-13T20:27:08.744Z</time>
      </trkpt>
      <trkpt lat="48.83447" lon="2.32147">
        <ele>124.6</ele>
        <time>2015-07-13T20:27:09.771Z</time>
      </trkpt>
      <trkpt lat="48.83443" lon="2.32154">
        <ele>125.1</ele>
        <time>2015-07-13T20:27:10.830Z</time>
      </trkpt>
      <trkpt lat="48.83438" lon="2.32165">
        <ele>126.3</ele>
        <time>2015-07-13T20:27:12.725Z</time>
      </trkpt>
      <trkpt lat="48.83436" lon="2.32171">
        <ele>126.6</ele>
        <time>2015-07-13T20:27:13.730Z</time>
      </trkpt>
      <trkpt lat="48.83436" lon="2.3218">
        <ele>125.6</ele>
        <time>2015-07-13T20:27:15.811Z</time>
      </trkpt>
      <trkpt lat="48.83437" lon="2.32185">
        <ele>125.4</ele>
        <time>2015-07-13T20:27:16.815Z</time>
      </trkpt>
      <trkpt lat="48.83436" lon="2.32196">
        <ele>128.6</ele>
        <time>2015-07-13T20:27:20.723Z</time>
      </trkpt>
      <trkpt lat="48.83435" lon="2.322">
        <ele>128.7</ele>
        <time>2015-07-13T20:27:21.753Z</time>
      </trkpt>
      <trkpt lat="48.8343" lon="2.32211">
        <ele>129.5</ele>
        <time>2015-07-13T20:27:24.733Z</time>
      </trkpt>
      <trkpt lat="48.83426" lon="2.32216">
        <ele>129.8</ele>
        <time>2015-07-13T20:27:25.769Z</time>
      </trkpt>
      <trkpt lat="48.83423" lon="2.32221">
        <ele>130.1</ele>
        <time>2015-07-13T20:27:26.720Z</time>
      </trkpt>
      <trkpt lat="48.8342" lon="2.32228">
        <ele>130.2</ele>
        <time>2015-07-13T20:27:27.814Z</time>
      </trkpt>
      <trkpt lat="48.83417" lon="2.32234">
        <ele>130.3</ele>
        <time>2015-07-13T20:27:28.730Z</time>
      </trkpt>
      <trkpt lat="48.83414" lon="2.3224">
        <ele>130.4</ele>
        <time>2015-07-13T20:27:29.797Z</time>
      </trkpt>
      <trkpt lat="48.83411" lon="2.32246">
        <ele>130.5</ele>
        <time>2015-07-13T20:27:30.810Z</time>
      </trkpt>
      <trkpt lat="48.83407" lon="2.32252">
        <ele>130.5</ele>
        <time>2015-07-13T20:27:31.819Z</time>
      </trkpt>
      <trkpt lat="48.83403" lon="2.32257">
        <ele>130.5</ele>
        <time>2015-07-13T20:27:33.007Z</time>
      </trkpt>
      <trkpt lat="48.83398" lon="2.32263">
        <ele>130.3</ele>
        <time>2015-07-13T20:27:33.756Z</time>
      </trkpt>
      <trkpt lat="48.83394" lon="2.32268">
        <ele>130.4</ele>
        <time>2015-07-13T20:27:34.777Z</time>
      </trkpt>
      <trkpt lat="48.8339" lon="2.32272">
        <ele>130.4</ele>
        <time>2015-07-13T20:27:35.827Z</time>
      </trkpt>
      <trkpt lat="48.83384" lon="2.32278">
        <ele>131.1</ele>
        <time>2015-07-13T20:27:36.738Z</time>
      </trkpt>
      <trkpt lat="48.83379" lon="2.32284">
        <ele>131.6</ele>
        <time>2015-07-13T20:27:37.767Z</time>
      </trkpt>
      <trkpt lat="48.83376" lon="2.3229">
        <ele>131.6</ele>
        <time>2015-07-13T20:27:38.776Z</time>
      </trkpt>
      <trkpt lat="48.83371" lon="2.32295">
        <ele>131.4</ele>
        <time>2015-07-13T20:27:39.792Z</time>
      </trkpt>
      <trkpt lat="48.83368" lon="2.32302">
        <ele>131.4</ele>
        <time>2015-07-13T20:27:40.803Z</time>
      </trkpt>
      <trkpt lat="48.83365" lon="2.32309">
        <ele>131.5</ele>
        <time>2015-07-13T20:27:41.843Z</time>
      </trkpt>
      <trkpt lat="48.83363" lon="2.32315">
        <ele>131.6</ele>
        <time>2015-07-13T20:27:42.744Z</time>
      </trkpt>
      <trkpt lat="48.83361" lon="2.32322">
        <ele>131.8</ele>
        <time>2015-07-13T20:27:43.754Z</time>
      </trkpt>
      <trkpt lat="48.83358" lon="2.3233">
        <ele>131.9</ele>
        <time>2015-07-13T20:27:44.768Z</time>
      </trkpt>
      <trkpt lat="48.83355" lon="2.32338">
        <ele>131.7</ele>
        <time>2015-07-13T20:27:45.776Z</time>
      </trkpt>
      <trkpt lat="48.83352" lon="2.32348">
        <ele>131.9</ele>
        <time>2015-07-13T20:27:46.749Z</time>
      </trkpt>
      <trkpt lat="48.83348" lon="2.32356">
        <ele>132.1</ele>
        <time>2015-07-13T20:27:47.782Z</time>
      </trkpt>
      <trkpt lat="48.83343" lon="2.32363">
        <ele>132.4</ele>
        <time>2015-07-13T20:27:48.792Z</time>
      </trkpt>
      <trkpt lat="48.83338" lon="2.32369">
        <ele>132.8</ele>
        <time>2015-07-13T20:27:49.746Z</time>
      </trkpt>
      <trkpt lat="48.83334" lon="2.32376">
        <ele>133.2</ele>
        <time>2015-07-13T20:27:50.753Z</time>
      </trkpt>
      <trkpt lat="48.83332" lon="2.32383">
        <ele>133.5</ele>
        <time>2015-07-13T20:27:51.779Z</time>
      </trkpt>
      <trkpt lat="48.83329" lon="2.32389">
        <ele>133.4</ele>
        <time>2015-07-13T20:27:52.830Z</time>
      </trkpt>
      <trkpt lat="48.83326" lon="2.32395">
        <ele>133.3</ele>
        <time>2015-07-13T20:27:53.841Z</time>
      </trkpt>
      <trkpt lat="48.83324" lon="2.32401">
        <ele>133</ele>
        <time>2015-07-13T20:27:54.712Z</time>
      </trkpt>
      <trkpt lat="48.8332" lon="2.32406">
        <ele>132.4</ele>
        <time>2015-07-13T20:27:55.810Z</time>
      </trkpt>
      <trkpt lat="48.83318" lon="2.32413">
        <ele>132</ele>
        <time>2015-07-13T20:27:56.821Z</time>
      </trkpt>
      <trkpt lat="48.83316" lon="2.32419">
        <ele>131.7</ele>
        <time>2015-07-13T20:27:57.834Z</time>
      </trkpt>
      <trkpt lat="48.83313" lon="2.32426">
        <ele>131.6</ele>
        <time>2015-07-13T20:27:58.761Z</time>
      </trkpt>
      <trkpt lat="48.8331" lon="2.32433">
        <ele>131.5</ele>
        <time>2015-07-13T20:27:59.832Z</time>
      </trkpt>
      <trkpt lat="48.83307" lon="2.32441">
        <ele>130.9</ele>
        <time>2015-07-13T20:28:00.722Z</time>
      </trkpt>
      <trkpt lat="48.83306" lon="2.3245">
        <ele>130.4</ele>
        <time>2015-07-13T20:28:01.749Z</time>
      </trkpt>
      <trkpt lat="48.83304" lon="2.32458">
        <ele>130.1</ele>
        <time>2015-07-13T20:28:02.796Z</time>
      </trkpt>
      <trkpt lat="48.83301" lon="2.32466">
        <ele>130.4</ele>
        <time>2015-07-13T20:28:03.826Z</time>
      </trkpt>
      <trkpt lat="48.83296" lon="2.32471">
        <ele>129.9</ele>
        <time>2015-07-13T20:28:04.742Z</time>
      </trkpt>
      <trkpt lat="48.83292" lon="2.32477">
        <ele>129.4</ele>
        <time>2015-07-13T20:28:05.756Z</time>
      </trkpt>
      <trkpt lat="48.83284" lon="2.32481">
        <ele>129.5</ele>
        <time>2015-07-13T20:28:07.782Z</time>
      </trkpt>
      <trkpt lat="48.83281" lon="2.32483">
        <ele>129.8</ele>
        <time>2015-07-13T20:28:08.808Z</time>
      </trkpt>
      <trkpt lat="48.83274" lon="2.32484">
        <ele>130.4</ele>
        <time>2015-07-13T20:28:10.788Z</time>
      </trkpt>
      <trkpt lat="48.83272" lon="2.32485">
        <ele>131.1</ele>
        <time>2015-07-13T20:28:11.818Z</time>
      </trkpt>
      <trkpt lat="48.83266" lon="2.32496">
        <ele>131.4</ele>
        <time>2015-07-13T20:28:14.818Z</time>
      </trkpt>
      <trkpt lat="48.83264" lon="2.325">
        <ele>132.4</ele>
        <time>2015-07-13T20:28:15.799Z</time>
      </trkpt>
      <trkpt lat="48.83261" lon="2.3251">
        <ele>132.1</ele>
        <time>2015-07-13T20:28:17.843Z</time>
      </trkpt>
      <trkpt lat="48.83259" lon="2.32514">
        <ele>132.1</ele>
        <time>2015-07-13T20:28:18.900Z</time>
      </trkpt>
      <trkpt lat="48.83258" lon="2.32523">
        <ele>131.7</ele>
        <time>2015-07-13T20:28:20.800Z</time>
      </trkpt>
      <trkpt lat="48.83257" lon="2.32529">
        <ele>131.2</ele>
        <time>2015-07-13T20:28:21.835Z</time>
      </trkpt>
      <trkpt lat="48.83255" lon="2.32541">
        <ele>129.6</ele>
        <time>2015-07-13T20:28:23.907Z</time>
      </trkpt>
      <trkpt lat="48.83254" lon="2.32545">
        <ele>129.7</ele>
        <time>2015-07-13T20:28:24.770Z</time>
      </trkpt>
      <trkpt lat="48.8325" lon="2.32553">
        <ele>129.9</ele>
        <time>2015-07-13T20:28:26.859Z</time>
      </trkpt>
      <trkpt lat="48.83249" lon="2.32558">
        <ele>129.8</ele>
        <time>2015-07-13T20:28:27.790Z</time>
      </trkpt>
      <trkpt lat="48.83244" lon="2.32566">
        <ele>129.9</ele>
        <time>2015-07-13T20:28:30.780Z</time>
      </trkpt>
      <trkpt lat="48.83242" lon="2.3257">
        <ele>129.8</ele>
        <time>2015-07-13T20:28:31.759Z</time>
      </trkpt>
      <trkpt lat="48.83243" lon="2.32579">
        <ele>127.6</ele>
        <time>2015-07-13T20:28:33.810Z</time>
      </trkpt>
      <trkpt lat="48.83246" lon="2.32585">
        <ele>126</ele>
        <time>2015-07-13T20:28:34.818Z</time>
      </trkpt>
      <trkpt lat="48.83249" lon="2.32591">
        <ele>124.6</ele>
        <time>2015-07-13T20:28:35.815Z</time>
      </trkpt>
      <trkpt lat="48.83252" lon="2.32596">
        <ele>123.7</ele>
        <time>2015-07-13T20:28:36.834Z</time>
      </trkpt>
      <trkpt lat="48.83259" lon="2.32602">
        <ele>122.2</ele>
        <time>2015-07-13T20:28:38.862Z</time>
      </trkpt>
      <trkpt lat="48.83263" lon="2.32604">
        <ele>121.5</ele>
        <time>2015-07-13T20:28:39.833Z</time>
      </trkpt>
      <trkpt lat="48.83271" lon="2.32609">
        <ele>120.5</ele>
        <time>2015-07-13T20:28:41.799Z</time>
      </trkpt>
      <trkpt lat="48.83274" lon="2.32612">
        <ele>120.2</ele>
        <time>2015-07-13T20:28:42.815Z</time>
      </trkpt>
      <trkpt lat="48.83281" lon="2.32616">
        <ele>120</ele>
        <time>2015-07-13T20:28:44.788Z</time>
      </trkpt>
      <trkpt lat="48.83283" lon="2.32618">
        <ele>120.3</ele>
        <time>2015-07-13T20:28:45.804Z</time>
      </trkpt>
      <trkpt lat="48.83291" lon="2.32625">
        <ele>121.2</ele>
        <time>2015-07-13T20:28:48.724Z</time>
      </trkpt>
      <trkpt lat="48.83293" lon="2.32627">
        <ele>121.7</ele>
        <time>2015-07-13T20:28:49.796Z</time>
      </trkpt>
      <trkpt lat="48.83291" lon="2.32638">
        <ele>122.8</ele>
        <time>2015-07-13T20:28:53.787Z</time>
      </trkpt>
      <trkpt lat="48.8329" lon="2.32636">
        <ele>123.2</ele>
        <time>2015-07-13T20:28:54.727Z</time>
      </trkpt>
      <trkpt lat="48.83289" lon="2.32635">
        <ele>123.8</ele>
        <time>2015-07-13T20:29:02.772Z</time>
      </trkpt>
      <trkpt lat="48.83289" lon="2.32648">
        <ele>126.8</ele>
        <time>2015-07-13T20:29:03.781Z</time>
      </trkpt>
      <trkpt lat="48.83284" lon="2.32658">
        <ele>128.4</ele>
        <time>2015-07-13T20:29:06.786Z</time>
      </trkpt>
      <trkpt lat="48.83284" lon="2.3266">
        <ele>128.1</ele>
        <time>2015-07-13T20:29:07.761Z</time>
      </trkpt>
      <trkpt lat="48.8329" lon="2.32652">
        <ele>119.2</ele>
        <time>2015-07-13T20:29:16.846Z</time>
      </trkpt>
      <trkpt lat="48.83291" lon="2.32647">
        <ele>118.5</ele>
        <time>2015-07-13T20:29:17.887Z</time>
      </trkpt>
      <trkpt lat="48.83291" lon="2.32637">
        <ele>118.3</ele>
        <time>2015-07-13T20:29:19.782Z</time>
      </trkpt>
      <trkpt lat="48.83292" lon="2.32634">
        <ele>118.1</ele>
        <time>2015-07-13T20:29:20.796Z</time>
      </trkpt>
      <trkpt lat="48.83298" lon="2.32632">
        <ele>120.1</ele>
        <time>2015-07-13T20:29:30.771Z</time>
      </trkpt>
      <trkpt lat="48.83302" lon="2.3263">
        <ele>119.9</ele>
        <time>2015-07-13T20:29:31.763Z</time>
      </trkpt>
      <trkpt lat="48.83301" lon="2.3264">
        <ele>120.4</ele>
        <time>2015-07-13T20:29:36.787Z</time>
      </trkpt>
      <trkpt lat="48.833" lon="2.32644">
        <ele>120.7</ele>
        <time>2015-07-13T20:29:37.811Z</time>
      </trkpt>
      <trkpt lat="48.83298" lon="2.32652">
        <ele>120.8</ele>
        <time>2015-07-13T20:29:39.808Z</time>
      </trkpt>
      <trkpt lat="48.83295" lon="2.32657">
        <ele>120.3</ele>
        <time>2015-07-13T20:29:40.878Z</time>
      </trkpt>
      <trkpt lat="48.83292" lon="2.32668">
        <ele>120.1</ele>
        <time>2015-07-13T20:29:42.816Z</time>
      </trkpt>
      <trkpt lat="48.83291" lon="2.32673">
        <ele>120.1</ele>
        <time>2015-07-13T20:29:43.801Z</time>
      </trkpt>
      <trkpt lat="48.83289" lon="2.32685">
        <ele>120.2</ele>
        <time>2015-07-13T20:29:46.735Z</time>
      </trkpt>
      <trkpt lat="48.83288" lon="2.32688">
        <ele>120.2</ele>
        <time>2015-07-13T20:29:47.801Z</time>
      </trkpt>
      <trkpt lat="48.83286" lon="2.32697">
        <ele>120.6</ele>
        <time>2015-07-13T20:29:50.787Z</time>
      </trkpt>
      <trkpt lat="48.83283" lon="2.32701">
        <ele>120.4</ele>
        <time>2015-07-13T20:29:51.739Z</time>
      </trkpt>
      <trkpt lat="48.83279" lon="2.32712">
        <ele>120.7</ele>
        <time>2015-07-13T20:29:54.806Z</time>
      </trkpt>
      <trkpt lat="48.83279" lon="2.32717">
        <ele>120.4</ele>
        <time>2015-07-13T20:29:55.822Z</time>
      </trkpt>
      <trkpt lat="48.83279" lon="2.32728">
        <ele>120</ele>
        <time>2015-07-13T20:29:58.806Z</time>
      </trkpt>
      <trkpt lat="48.83278" lon="2.32732">
        <ele>120.4</ele>
        <time>2015-07-13T20:29:59.802Z</time>
      </trkpt>
      <trkpt lat="48.83279" lon="2.32737">
        <ele>120.4</ele>
        <time>2015-07-13T20:30:01.780Z</time>
      </trkpt>
      <trkpt lat="48.8328" lon="2.32734">
        <ele>119.3</ele>
        <time>2015-07-13T20:30:02.794Z</time>
      </trkpt>
      <trkpt lat="48.8328" lon="2.3273">
        <ele>118.3</ele>
        <time>2015-07-13T20:30:15.769Z</time>
      </trkpt>
      <trkpt lat="48.83284" lon="2.327">
        <ele>116.6</ele>
        <time>2015-07-13T20:30:16.780Z</time>
      </trkpt>
      <trkpt lat="48.83288" lon="2.32691">
        <ele>117</ele>
        <time>2015-07-13T20:30:20.786Z</time>
      </trkpt>
      <trkpt lat="48.83288" lon="2.32687">
        <ele>117.2</ele>
        <time>2015-07-13T20:30:21.755Z</time>
      </trkpt>
      <trkpt lat="48.83291" lon="2.32678">
        <ele>117.9</ele>
        <time>2015-07-13T20:30:23.822Z</time>
      </trkpt>
      <trkpt lat="48.83293" lon="2.32673">
        <ele>117.9</ele>
        <time>2015-07-13T20:30:24.842Z</time>
      </trkpt>
      <trkpt lat="48.83296" lon="2.32666">
        <ele>117.6</ele>
        <time>2015-07-13T20:30:25.748Z</time>
      </trkpt>
      <trkpt lat="48.83299" lon="2.3266">
        <ele>117.7</ele>
        <time>2015-07-13T20:30:26.766Z</time>
      </trkpt>
      <trkpt lat="48.83301" lon="2.32653">
        <ele>117.6</ele>
        <time>2015-07-13T20:30:27.782Z</time>
      </trkpt>
      <trkpt lat="48.83304" lon="2.32647">
        <ele>117.6</ele>
        <time>2015-07-13T20:30:28.802Z</time>
      </trkpt>
      <trkpt lat="48.8331" lon="2.32639">
        <ele>118.1</ele>
        <time>2015-07-13T20:30:30.761Z</time>
      </trkpt>
      <trkpt lat="48.83313" lon="2.32637">
        <ele>118.2</ele>
        <time>2015-07-13T20:30:31.789Z</time>
      </trkpt>
      <trkpt lat="48.83322" lon="2.32638">
        <ele>118.9</ele>
        <time>2015-07-13T20:30:34.779Z</time>
      </trkpt>
      <trkpt lat="48.83325" lon="2.32638">
        <ele>119.1</ele>
        <time>2015-07-13T20:30:35.813Z</time>
      </trkpt>
      <trkpt lat="48.83332" lon="2.32639">
        <ele>119.6</ele>
        <time>2015-07-13T20:30:37.724Z</time>
      </trkpt>
      <trkpt lat="48.83333" lon="2.32644">
        <ele>119.3</ele>
        <time>2015-07-13T20:30:38.758Z</time>
      </trkpt>
      <trkpt lat="48.83335" lon="2.32652">
        <ele>119</ele>
        <time>2015-07-13T20:30:39.774Z</time>
      </trkpt>
      <trkpt lat="48.83336" lon="2.32658">
        <ele>119</ele>
        <time>2015-07-13T20:30:40.785Z</time>
      </trkpt>
      <trkpt lat="48.83337" lon="2.32669">
        <ele>118.5</ele>
        <time>2015-07-13T20:30:42.852Z</time>
      </trkpt>
      <trkpt lat="48.83338" lon="2.32676">
        <ele>118.5</ele>
        <time>2015-07-13T20:30:43.846Z</time>
      </trkpt>
      <trkpt lat="48.83341" lon="2.32685">
        <ele>118.3</ele>
        <time>2015-07-13T20:30:44.775Z</time>
      </trkpt>
      <trkpt lat="48.83341" lon="2.32692">
        <ele>118.4</ele>
        <time>2015-07-13T20:30:45.837Z</time>
      </trkpt>
      <trkpt lat="48.83338" lon="2.327">
        <ele>118.3</ele>
        <time>2015-07-13T20:30:47.852Z</time>
      </trkpt>
      <trkpt lat="48.83336" lon="2.32706">
        <ele>118.2</ele>
        <time>2015-07-13T20:30:48.727Z</time>
      </trkpt>
      <trkpt lat="48.8333" lon="2.32713">
        <ele>119.1</ele>
        <time>2015-07-13T20:30:51.747Z</time>
      </trkpt>
      <trkpt lat="48.83328" lon="2.32715">
        <ele>119.4</ele>
        <time>2015-07-13T20:30:52.823Z</time>
      </trkpt>
      <trkpt lat="48.8333" lon="2.32705">
        <ele>122.7</ele>
        <time>2015-07-13T20:31:02.781Z</time>
      </trkpt>
      <trkpt lat="48.83331" lon="2.32701">
        <ele>122.7</ele>
        <time>2015-07-13T20:31:03.799Z</time>
      </trkpt>
      <trkpt lat="48.83335" lon="2.32694">
        <ele>122.2</ele>
        <time>2015-07-13T20:31:05.777Z</time>
      </trkpt>
      <trkpt lat="48.83337" lon="2.3269">
        <ele>122</ele>
        <time>2015-07-13T20:31:06.782Z</time>
      </trkpt>
      <trkpt lat="48.83341" lon="2.32684">
        <ele>121.7</ele>
        <time>2015-07-13T20:31:09.602Z</time>
      </trkpt>
      <trkpt lat="48.83343" lon="2.3268">
        <ele>121.3</ele>
        <time>2015-07-13T20:31:09.784Z</time>
      </trkpt>
      <trkpt lat="48.83343" lon="2.3267">
        <ele>121.1</ele>
        <time>2015-07-13T20:31:11.867Z</time>
      </trkpt>
      <trkpt lat="48.83343" lon="2.32664">
        <ele>120.9</ele>
        <time>2015-07-13T20:31:12.746Z</time>
      </trkpt>
      <trkpt lat="48.83345" lon="2.32655">
        <ele>121.2</ele>
        <time>2015-07-13T20:31:14.781Z</time>
      </trkpt>
      <trkpt lat="48.83345" lon="2.3265">
        <ele>121.3</ele>
        <time>2015-07-13T20:31:15.799Z</time>
      </trkpt>
      <trkpt lat="48.83339" lon="2.32641">
        <ele>121.5</ele>
        <time>2015-07-13T20:31:19.755Z</time>
      </trkpt>
      <trkpt lat="48.83337" lon="2.3264">
        <ele>121.3</ele>
        <time>2015-07-13T20:31:20.762Z</time>
      </trkpt>
      <trkpt lat="48.83329" lon="2.32638">
        <ele>118.7</ele>
        <time>2015-07-13T20:31:22.815Z</time>
      </trkpt>
      <trkpt lat="48.83326" lon="2.32636">
        <ele>118.6</ele>
        <time>2015-07-13T20:31:23.975Z</time>
      </trkpt>
      <trkpt lat="48.83318" lon="2.32634">
        <ele>118.1</ele>
        <time>2015-07-13T20:31:25.827Z</time>
      </trkpt>
      <trkpt lat="48.83315" lon="2.32632">
        <ele>118</ele>
        <time>2015-07-13T20:31:26.778Z</time>
      </trkpt>
      <trkpt lat="48.83308" lon="2.32629">
        <ele>117.8</ele>
        <time>2015-07-13T20:31:29.382Z</time>
      </trkpt>
      <trkpt lat="48.83305" lon="2.32628">
        <ele>117.9</ele>
        <time>2015-07-13T20:31:29.842Z</time>
      </trkpt>
      <trkpt lat="48.83297" lon="2.32625">
        <ele>118.6</ele>
        <time>2015-07-13T20:31:32.773Z</time>
      </trkpt>
      <trkpt lat="48.83295" lon="2.32625">
        <ele>118.6</ele>
        <time>2015-07-13T20:31:33.786Z</time>
      </trkpt>
      <trkpt lat="48.83288" lon="2.3262">
        <ele>118.8</ele>
        <time>2015-07-13T20:32:24.834Z</time>
      </trkpt>
      <trkpt lat="48.83281" lon="2.32616">
        <ele>123</ele>
        <time>2015-07-13T20:32:25.796Z</time>
      </trkpt>
      <trkpt lat="48.83274" lon="2.3261">
        <ele>123.5</ele>
        <time>2015-07-13T20:32:28.987Z</time>
      </trkpt>
      <trkpt lat="48.83272" lon="2.32607">
        <ele>123.5</ele>
        <time>2015-07-13T20:32:29.842Z</time>
      </trkpt>
      <trkpt lat="48.83265" lon="2.32601">
        <ele>124</ele>
        <time>2015-07-13T20:32:31.757Z</time>
      </trkpt>
      <trkpt lat="48.8326" lon="2.32598">
        <ele>123.8</ele>
        <time>2015-07-13T20:32:32.768Z</time>
      </trkpt>
      <trkpt lat="48.83254" lon="2.32594">
        <ele>123.9</ele>
        <time>2015-07-13T20:32:34.800Z</time>
      </trkpt>
      <trkpt lat="48.83251" lon="2.32593">
        <ele>124.2</ele>
        <time>2015-07-13T20:32:35.851Z</time>
      </trkpt>
      <trkpt lat="48.83244" lon="2.3259">
        <ele>125.6</ele>
        <time>2015-07-13T20:35:35.811Z</time>
      </trkpt>
      <trkpt lat="48.83262" lon="2.32591">
        <ele>119.1</ele>
        <time>2015-07-13T20:35:36.796Z</time>
      </trkpt>
      <trkpt lat="48.83267" lon="2.326">
        <ele>117.9</ele>
        <time>2015-07-13T20:35:40.825Z</time>
      </trkpt>
      <trkpt lat="48.83269" lon="2.32601">
        <ele>117.9</ele>
        <time>2015-07-13T20:35:41.839Z</time>
      </trkpt>
      <trkpt lat="48.83277" lon="2.32608">
        <ele>118.9</ele>
        <time>2015-07-13T20:40:59.848Z</time>
      </trkpt>
      <trkpt lat="48.83294" lon="2.32628">
        <ele>129.4</ele>
        <time>2015-07-13T20:41:00.759Z</time>
      </trkpt>
      <trkpt lat="48.83302" lon="2.32634">
        <ele>129</ele>
        <time>2015-07-13T20:41:04.815Z</time>
      </trkpt>
      <trkpt lat="48.83304" lon="2.32635">
        <ele>128.9</ele>
        <time>2015-07-13T20:41:05.809Z</time>
      </trkpt>
      <trkpt lat="48.83311" lon="2.32639">
        <ele>129.3</ele>
        <time>2015-07-13T20:41:10.836Z</time>
      </trkpt>
      <trkpt lat="48.83314" lon="2.3264">
        <ele>129.3</ele>
        <time>2015-07-13T20:41:11.853Z</time>
      </trkpt>
      <trkpt lat="48.83321" lon="2.32644">
        <ele>128.9</ele>
        <time>2015-07-13T20:41:13.795Z</time>
      </trkpt>
      <trkpt lat="48.83324" lon="2.32646">
        <ele>128.9</ele>
        <time>2015-07-13T20:41:14.813Z</time>
      </trkpt>
      <trkpt lat="48.83329" lon="2.32647">
        <ele>128.5</ele>
        <time>2015-07-13T20:41:16.761Z</time>
      </trkpt>
      <trkpt lat="48.83333" lon="2.32644">
        <ele>127.7</ele>
        <time>2015-07-13T20:41:17.804Z</time>
      </trkpt>
      <trkpt lat="48.83341" lon="2.32638">
        <ele>125.4</ele>
        <time>2015-07-13T20:41:20.846Z</time>
      </trkpt>
      <trkpt lat="48.83343" lon="2.32633">
        <ele>125.1</ele>
        <time>2015-07-13T20:41:21.751Z</time>
      </trkpt>
      <trkpt lat="48.83346" lon="2.32623">
        <ele>124.7</ele>
        <time>2015-07-13T20:41:23.891Z</time>
      </trkpt>
      <trkpt lat="48.83348" lon="2.32617">
        <ele>124.4</ele>
        <time>2015-07-13T20:41:24.758Z</time>
      </trkpt>
      <trkpt lat="48.83352" lon="2.32606">
        <ele>123.9</ele>
        <time>2015-07-13T20:41:26.808Z</time>
      </trkpt>
      <trkpt lat="48.83353" lon="2.326">
        <ele>124.1</ele>
        <time>2015-07-13T20:41:27.715Z</time>
      </trkpt>
      <trkpt lat="48.83357" lon="2.32588">
        <ele>124.8</ele>
        <time>2015-07-13T20:41:29.832Z</time>
      </trkpt>
      <trkpt lat="48.83359" lon="2.32584">
        <ele>125</ele>
        <time>2015-07-13T20:41:30.750Z</time>
      </trkpt>
      <trkpt lat="48.83367" lon="2.32584">
        <ele>124.7</ele>
        <time>2015-07-13T20:41:33.999Z</time>
      </trkpt>
      <trkpt lat="48.8337" lon="2.32586">
        <ele>124.8</ele>
        <time>2015-07-13T20:41:34.778Z</time>
      </trkpt>
      <trkpt lat="48.83375" lon="2.32591">
        <ele>125.2</ele>
        <time>2015-07-13T20:41:36.824Z</time>
      </trkpt>
      <trkpt lat="48.83379" lon="2.32594">
        <ele>125.5</ele>
        <time>2015-07-13T20:41:37.733Z</time>
      </trkpt>
      <trkpt lat="48.83385" lon="2.32598">
        <ele>126</ele>
        <time>2015-07-13T20:41:39.763Z</time>
      </trkpt>
      <trkpt lat="48.83388" lon="2.326">
        <ele>126.4</ele>
        <time>2015-07-13T20:41:40.783Z</time>
      </trkpt>
      <trkpt lat="48.83395" lon="2.32604">
        <ele>126.7</ele>
        <time>2015-07-13T20:41:42.795Z</time>
      </trkpt>
      <trkpt lat="48.83399" lon="2.32606">
        <ele>126.8</ele>
        <time>2015-07-13T20:41:43.774Z</time>
      </trkpt>
      <trkpt lat="48.83405" lon="2.3261">
        <ele>126.9</ele>
        <time>2015-07-13T20:41:45.742Z</time>
      </trkpt>
      <trkpt lat="48.83409" lon="2.32612">
        <ele>126.9</ele>
        <time>2015-07-13T20:41:46.749Z</time>
      </trkpt>
      <trkpt lat="48.83416" lon="2.32616">
        <ele>127.3</ele>
        <time>2015-07-13T20:41:49.284Z</time>
      </trkpt>
      <trkpt lat="48.83419" lon="2.32619">
        <ele>127.5</ele>
        <time>2015-07-13T20:41:49.779Z</time>
      </trkpt>
      <trkpt lat="48.83425" lon="2.32622">
        <ele>126.6</ele>
        <time>2015-07-13T20:41:51.820Z</time>
      </trkpt>
      <trkpt lat="48.83428" lon="2.32625">
        <ele>126.4</ele>
        <time>2015-07-13T20:41:52.831Z</time>
      </trkpt>
      <trkpt lat="48.83436" lon="2.32631">
        <ele>125.6</ele>
        <time>2015-07-13T20:41:54.714Z</time>
      </trkpt>
      <trkpt lat="48.8344" lon="2.32633">
        <ele>125.1</ele>
        <time>2015-07-13T20:41:55.759Z</time>
      </trkpt>
      <trkpt lat="48.83445" lon="2.32635">
        <ele>125.2</ele>
        <time>2015-07-13T20:41:56.754Z</time>
      </trkpt>
      <trkpt lat="48.83449" lon="2.32639">
        <ele>125.2</ele>
        <time>2015-07-13T20:41:57.760Z</time>
      </trkpt>
      <trkpt lat="48.83456" lon="2.32646">
        <ele>125.1</ele>
        <time>2015-07-13T20:41:59.797Z</time>
      </trkpt>
      <trkpt lat="48.8346" lon="2.3265">
        <ele>125</ele>
        <time>2015-07-13T20:42:00.808Z</time>
      </trkpt>
      <trkpt lat="48.83464" lon="2.32656">
        <ele>124.9</ele>
        <time>2015-07-13T20:42:01.739Z</time>
      </trkpt>
      <trkpt lat="48.83468" lon="2.32662">
        <ele>124.7</ele>
        <time>2015-07-13T20:42:02.739Z</time>
      </trkpt>
      <trkpt lat="48.83472" lon="2.32669">
        <ele>124.9</ele>
        <time>2015-07-13T20:42:03.739Z</time>
      </trkpt>
      <trkpt lat="48.83475" lon="2.32671">
        <ele>124.9</ele>
        <time>2015-07-13T20:42:04.743Z</time>
      </trkpt>
      <trkpt lat="48.83479" lon="2.32675">
        <ele>124.8</ele>
        <time>2015-07-13T20:42:05.778Z</time>
      </trkpt>
      <trkpt lat="48.83484" lon="2.32678">
        <ele>124.9</ele>
        <time>2015-07-13T20:42:06.778Z</time>
      </trkpt>
      <trkpt lat="48.83489" lon="2.32678">
        <ele>124.9</ele>
        <time>2015-07-13T20:42:07.804Z</time>
      </trkpt>
      <trkpt lat="48.83495" lon="2.32679">
        <ele>124.7</ele>
        <time>2015-07-13T20:42:08.702Z</time>
      </trkpt>
      <trkpt lat="48.83503" lon="2.32685">
        <ele>124.8</ele>
        <time>2015-07-13T20:42:10.742Z</time>
      </trkpt>
      <trkpt lat="48.83507" lon="2.32687">
        <ele>124.9</ele>
        <time>2015-07-13T20:42:11.753Z</time>
      </trkpt>
      <trkpt lat="48.83511" lon="2.3269">
        <ele>125.1</ele>
        <time>2015-07-13T20:42:12.781Z</time>
      </trkpt>
      <trkpt lat="48.83516" lon="2.32695">
        <ele>125.3</ele>
        <time>2015-07-13T20:42:13.808Z</time>
      </trkpt>
      <trkpt lat="48.83523" lon="2.32703">
        <ele>125.3</ele>
        <time>2015-07-13T20:42:15.746Z</time>
      </trkpt>
      <trkpt lat="48.83527" lon="2.32706">
        <ele>125.2</ele>
        <time>2015-07-13T20:42:16.760Z</time>
      </trkpt>
      <trkpt lat="48.83531" lon="2.3271">
        <ele>125.1</ele>
        <time>2015-07-13T20:42:17.821Z</time>
      </trkpt>
      <trkpt lat="48.83535" lon="2.32713">
        <ele>125.1</ele>
        <time>2015-07-13T20:42:18.715Z</time>
      </trkpt>
      <trkpt lat="48.8354" lon="2.32717">
        <ele>125</ele>
        <time>2015-07-13T20:42:19.739Z</time>
      </trkpt>
      <trkpt lat="48.83545" lon="2.32721">
        <ele>125</ele>
        <time>2015-07-13T20:42:20.749Z</time>
      </trkpt>
      <trkpt lat="48.83551" lon="2.32725">
        <ele>125</ele>
        <time>2015-07-13T20:42:21.759Z</time>
      </trkpt>
      <trkpt lat="48.83555" lon="2.32729">
        <ele>124.9</ele>
        <time>2015-07-13T20:42:22.764Z</time>
      </trkpt>
      <trkpt lat="48.8356" lon="2.32732">
        <ele>124.8</ele>
        <time>2015-07-13T20:42:23.789Z</time>
      </trkpt>
      <trkpt lat="48.83565" lon="2.32736">
        <ele>124.6</ele>
        <time>2015-07-13T20:42:24.726Z</time>
      </trkpt>
      <trkpt lat="48.8357" lon="2.32738">
        <ele>124.2</ele>
        <time>2015-07-13T20:42:25.737Z</time>
      </trkpt>
      <trkpt lat="48.83576" lon="2.3274">
        <ele>123.9</ele>
        <time>2015-07-13T20:42:26.749Z</time>
      </trkpt>
      <trkpt lat="48.83582" lon="2.32741">
        <ele>123.8</ele>
        <time>2015-07-13T20:42:27.754Z</time>
      </trkpt>
      <trkpt lat="48.83587" lon="2.32742">
        <ele>123.4</ele>
        <time>2015-07-13T20:42:28.762Z</time>
      </trkpt>
      <trkpt lat="48.83595" lon="2.32745">
        <ele>122.4</ele>
        <time>2015-07-13T20:42:29.791Z</time>
      </trkpt>
      <trkpt lat="48.836" lon="2.32748">
        <ele>121.9</ele>
        <time>2015-07-13T20:42:30.789Z</time>
      </trkpt>
      <trkpt lat="48.83608" lon="2.32753">
        <ele>120.5</ele>
        <time>2015-07-13T20:42:32.724Z</time>
      </trkpt>
      <trkpt lat="48.83609" lon="2.32758">
        <ele>121</ele>
        <time>2015-07-13T20:42:33.774Z</time>
      </trkpt>
      <trkpt lat="48.83609" lon="2.3276">
        <ele>121.1</ele>
        <time>2015-07-13T20:42:34.798Z</time>
      </trkpt>
      <trkpt lat="48.83607" lon="2.32761">
        <ele>121.2</ele>
        <time>2015-07-13T20:42:35.820Z</time>
      </trkpt>
      <trkpt lat="48.83606" lon="2.32761">
        <ele>121</ele>
        <time>2015-07-13T20:42:43.789Z</time>
      </trkpt>
      <trkpt lat="48.83604" lon="2.32766">
        <ele>119.2</ele>
        <time>2015-07-13T20:42:44.803Z</time>
      </trkpt>
      <trkpt lat="48.83599" lon="2.32775">
        <ele>117.7</ele>
        <time>2015-07-13T20:42:46.711Z</time>
      </trkpt>
      <trkpt lat="48.83597" lon="2.32781">
        <ele>116.8</ele>
        <time>2015-07-13T20:42:47.810Z</time>
      </trkpt>
      <trkpt lat="48.83593" lon="2.32792">
        <ele>116.3</ele>
        <time>2015-07-13T20:42:49.750Z</time>
      </trkpt>
      <trkpt lat="48.8359" lon="2.32797">
        <ele>116</ele>
        <time>2015-07-13T20:42:50.743Z</time>
      </trkpt>
      <trkpt lat="48.83588" lon="2.32802">
        <ele>115.5</ele>
        <time>2015-07-13T20:42:51.762Z</time>
      </trkpt>
      <trkpt lat="48.83586" lon="2.32808">
        <ele>114.9</ele>
        <time>2015-07-13T20:42:52.773Z</time>
      </trkpt>
      <trkpt lat="48.83581" lon="2.3282">
        <ele>114.8</ele>
        <time>2015-07-13T20:42:54.756Z</time>
      </trkpt>
      <trkpt lat="48.83578" lon="2.32826">
        <ele>114.8</ele>
        <time>2015-07-13T20:42:55.867Z</time>
      </trkpt>
      <trkpt lat="48.83575" lon="2.32833">
        <ele>114.5</ele>
        <time>2015-07-13T20:42:56.733Z</time>
      </trkpt>
      <trkpt lat="48.83573" lon="2.32839">
        <ele>114.3</ele>
        <time>2015-07-13T20:42:57.731Z</time>
      </trkpt>
      <trkpt lat="48.83571" lon="2.32849">
        <ele>113.9</ele>
        <time>2015-07-13T20:42:59.781Z</time>
      </trkpt>
      <trkpt lat="48.83569" lon="2.32853">
        <ele>113.6</ele>
        <time>2015-07-13T20:43:00.770Z</time>
      </trkpt>
      <trkpt lat="48.83566" lon="2.32863">
        <ele>113.1</ele>
        <time>2015-07-13T20:43:02.725Z</time>
      </trkpt>
      <trkpt lat="48.83563" lon="2.32869">
        <ele>113.1</ele>
        <time>2015-07-13T20:43:03.766Z</time>
      </trkpt>
      <trkpt lat="48.83559" lon="2.3288">
        <ele>113</ele>
        <time>2015-07-13T20:43:05.889Z</time>
      </trkpt>
      <trkpt lat="48.83557" lon="2.32883">
        <ele>112.9</ele>
        <time>2015-07-13T20:43:06.998Z</time>
      </trkpt>
      <trkpt lat="48.83554" lon="2.32893">
        <ele>112.9</ele>
        <time>2015-07-13T20:43:08.727Z</time>
      </trkpt>
      <trkpt lat="48.83552" lon="2.32897">
        <ele>112.8</ele>
        <time>2015-07-13T20:43:09.766Z</time>
      </trkpt>
      <trkpt lat="48.83547" lon="2.32906">
        <ele>113.7</ele>
        <time>2015-07-13T20:43:41.787Z</time>
      </trkpt>
      <trkpt lat="48.83546" lon="2.32909">
        <ele>113.8</ele>
        <time>2015-07-13T20:43:42.791Z</time>
      </trkpt>
      <trkpt lat="48.83545" lon="2.32919">
        <ele>113.5</ele>
        <time>2015-07-13T20:43:44.707Z</time>
      </trkpt>
      <trkpt lat="48.83545" lon="2.32924">
        <ele>113.7</ele>
        <time>2015-07-13T20:43:45.730Z</time>
      </trkpt>
      <trkpt lat="48.83543" lon="2.32936">
        <ele>113.5</ele>
        <time>2015-07-13T20:43:49.523Z</time>
      </trkpt>
      <trkpt lat="48.83543" lon="2.32941">
        <ele>113.8</ele>
        <time>2015-07-13T20:43:49.767Z</time>
      </trkpt>
      <trkpt lat="48.83539" lon="2.32953">
        <ele>113.1</ele>
        <time>2015-07-13T20:43:54.630Z</time>
      </trkpt>
      <trkpt lat="48.83538" lon="2.32957">
        <ele>113</ele>
        <time>2015-07-13T20:43:54.789Z</time>
      </trkpt>
      <trkpt lat="48.83532" lon="2.32967">
        <ele>113.7</ele>
        <time>2015-07-13T20:43:57.762Z</time>
      </trkpt>
      <trkpt lat="48.83531" lon="2.3297">
        <ele>114.1</ele>
        <time>2015-07-13T20:43:58.773Z</time>
      </trkpt>
      <trkpt lat="48.83525" lon="2.32978">
        <ele>114.3</ele>
        <time>2015-07-13T20:44:01.708Z</time>
      </trkpt>
      <trkpt lat="48.83523" lon="2.32981">
        <ele>114.9</ele>
        <time>2015-07-13T20:44:02.741Z</time>
      </trkpt>
      <trkpt lat="48.83521" lon="2.32992">
        <ele>116.3</ele>
        <time>2015-07-13T20:44:05.591Z</time>
      </trkpt>
      <trkpt lat="48.83521" lon="2.32996">
        <ele>116.9</ele>
        <time>2015-07-13T20:44:06.822Z</time>
      </trkpt>
      <trkpt lat="48.83528" lon="2.32999">
        <ele>116.8</ele>
        <time>2015-07-13T20:44:21.828Z</time>
      </trkpt>
      <trkpt lat="48.8353" lon="2.33">
        <ele>116.7</ele>
        <time>2015-07-13T20:44:22.791Z</time>
      </trkpt>
      <trkpt lat="48.83537" lon="2.33007">
        <ele>117.5</ele>
        <time>2015-07-13T20:44:26.823Z</time>
      </trkpt>
      <trkpt lat="48.83538" lon="2.33007">
        <ele>117.7</ele>
        <time>2015-07-13T20:44:27.827Z</time>
      </trkpt>
      <trkpt lat="48.83543" lon="2.33012">
        <ele>117.7</ele>
        <time>2015-07-13T20:44:29.834Z</time>
      </trkpt>
      <trkpt lat="48.83546" lon="2.33016">
        <ele>117.8</ele>
        <time>2015-07-13T20:44:30.745Z</time>
      </trkpt>
      <trkpt lat="48.83553" lon="2.33025">
        <ele>117.6</ele>
        <time>2015-07-13T20:44:32.754Z</time>
      </trkpt>
      <trkpt lat="48.83556" lon="2.33028">
        <ele>117.7</ele>
        <time>2015-07-13T20:44:33.776Z</time>
      </trkpt>
      <trkpt lat="48.83563" lon="2.33033">
        <ele>117.8</ele>
        <time>2015-07-13T20:44:35.839Z</time>
      </trkpt>
      <trkpt lat="48.83568" lon="2.33036">
        <ele>117.9</ele>
        <time>2015-07-13T20:44:36.823Z</time>
      </trkpt>
      <trkpt lat="48.83572" lon="2.33039">
        <ele>118.1</ele>
        <time>2015-07-13T20:44:37.798Z</time>
      </trkpt>
      <trkpt lat="48.83576" lon="2.33042">
        <ele>118</ele>
        <time>2015-07-13T20:44:38.717Z</time>
      </trkpt>
      <trkpt lat="48.83581" lon="2.33046">
        <ele>118.1</ele>
        <time>2015-07-13T20:44:40.752Z</time>
      </trkpt>
      <trkpt lat="48.83584" lon="2.33047">
        <ele>118.1</ele>
        <time>2015-07-13T20:44:41.779Z</time>
      </trkpt>
      <trkpt lat="48.83591" lon="2.33052">
        <ele>117.8</ele>
        <time>2015-07-13T20:44:44.236Z</time>
      </trkpt>
      <trkpt lat="48.83594" lon="2.33054">
        <ele>117.6</ele>
        <time>2015-07-13T20:44:44.726Z</time>
      </trkpt>
      <trkpt lat="48.83599" lon="2.33059">
        <ele>117.7</ele>
        <time>2015-07-13T20:44:46.729Z</time>
      </trkpt>
      <trkpt lat="48.83602" lon="2.33062">
        <ele>117.7</ele>
        <time>2015-07-13T20:44:47.727Z</time>
      </trkpt>
      <trkpt lat="48.83608" lon="2.33067">
        <ele>117.9</ele>
        <time>2015-07-13T20:44:50.192Z</time>
      </trkpt>
      <trkpt lat="48.83612" lon="2.33071">
        <ele>118.1</ele>
        <time>2015-07-13T20:44:50.727Z</time>
      </trkpt>
      <trkpt lat="48.83617" lon="2.33074">
        <ele>118.1</ele>
        <time>2015-07-13T20:44:51.736Z</time>
      </trkpt>
      <trkpt lat="48.83621" lon="2.33077">
        <ele>118.2</ele>
        <time>2015-07-13T20:44:52.811Z</time>
      </trkpt>
      <trkpt lat="48.83626" lon="2.3308">
        <ele>118.2</ele>
        <time>2015-07-13T20:44:54.361Z</time>
      </trkpt>
      <trkpt lat="48.83629" lon="2.33082">
        <ele>118.3</ele>
        <time>2015-07-13T20:44:54.757Z</time>
      </trkpt>
      <trkpt lat="48.83634" lon="2.33085">
        <ele>118.4</ele>
        <time>2015-07-13T20:44:55.770Z</time>
      </trkpt>
      <trkpt lat="48.83639" lon="2.33088">
        <ele>118.1</ele>
        <time>2015-07-13T20:44:56.790Z</time>
      </trkpt>
      <trkpt lat="48.83643" lon="2.33091">
        <ele>117.9</ele>
        <time>2015-07-13T20:44:57.747Z</time>
      </trkpt>
      <trkpt lat="48.83648" lon="2.33096">
        <ele>117.7</ele>
        <time>2015-07-13T20:44:58.744Z</time>
      </trkpt>
      <trkpt lat="48.83652" lon="2.331">
        <ele>117.5</ele>
        <time>2015-07-13T20:44:59.866Z</time>
      </trkpt>
      <trkpt lat="48.83658" lon="2.33105">
        <ele>117</ele>
        <time>2015-07-13T20:45:00.745Z</time>
      </trkpt>
      <trkpt lat="48.83663" lon="2.3311">
        <ele>116.9</ele>
        <time>2015-07-13T20:45:01.889Z</time>
      </trkpt>
      <trkpt lat="48.83665" lon="2.33115">
        <ele>117</ele>
        <time>2015-07-13T20:45:02.758Z</time>
      </trkpt>
      <trkpt lat="48.83669" lon="2.33126">
        <ele>117.2</ele>
        <time>2015-07-13T20:45:04.799Z</time>
      </trkpt>
      <trkpt lat="48.83671" lon="2.33132">
        <ele>117.3</ele>
        <time>2015-07-13T20:45:05.800Z</time>
      </trkpt>
      <trkpt lat="48.83677" lon="2.3314">
        <ele>117.9</ele>
        <time>2015-07-13T20:45:07.744Z</time>
      </trkpt>
      <trkpt lat="48.83679" lon="2.33143">
        <ele>118.2</ele>
        <time>2015-07-13T20:45:08.770Z</time>
      </trkpt>
      <trkpt lat="48.83685" lon="2.33152">
        <ele>119.7</ele>
        <time>2015-07-13T20:45:11.836Z</time>
      </trkpt>
      <trkpt lat="48.83689" lon="2.33151">
        <ele>120.1</ele>
        <time>2015-07-13T20:45:12.817Z</time>
      </trkpt>
      <trkpt lat="48.83696" lon="2.33148">
        <ele>120.3</ele>
        <time>2015-07-13T20:45:14.735Z</time>
      </trkpt>
      <trkpt lat="48.837" lon="2.33148">
        <ele>120.5</ele>
        <time>2015-07-13T20:45:15.744Z</time>
      </trkpt>
      <trkpt lat="48.83705" lon="2.33149">
        <ele>120.4</ele>
        <time>2015-07-13T20:45:16.748Z</time>
      </trkpt>
      <trkpt lat="48.83711" lon="2.33147">
        <ele>120.2</ele>
        <time>2015-07-13T20:45:17.752Z</time>
      </trkpt>
      <trkpt lat="48.83717" lon="2.33146">
        <ele>120</ele>
        <time>2015-07-13T20:45:18.782Z</time>
      </trkpt>
      <trkpt lat="48.83722" lon="2.33145">
        <ele>119.9</ele>
        <time>2015-07-13T20:45:19.805Z</time>
      </trkpt>
      <trkpt lat="48.83727" lon="2.33144">
        <ele>120.1</ele>
        <time>2015-07-13T20:45:20.740Z</time>
      </trkpt>
      <trkpt lat="48.83731" lon="2.33142">
        <ele>120.1</ele>
        <time>2015-07-13T20:45:21.780Z</time>
      </trkpt>
      <trkpt lat="48.83738" lon="2.3314">
        <ele>119.4</ele>
        <time>2015-07-13T20:45:23.792Z</time>
      </trkpt>
      <trkpt lat="48.83743" lon="2.33138">
        <ele>119</ele>
        <time>2015-07-13T20:45:24.826Z</time>
      </trkpt>
      <trkpt lat="48.83748" lon="2.33137">
        <ele>119.2</ele>
        <time>2015-07-13T20:45:25.790Z</time>
      </trkpt>
      <trkpt lat="48.83753" lon="2.33135">
        <ele>119.6</ele>
        <time>2015-07-13T20:45:26.754Z</time>
      </trkpt>
      <trkpt lat="48.83761" lon="2.3313">
        <ele>120</ele>
        <time>2015-07-13T20:45:28.753Z</time>
      </trkpt>
      <trkpt lat="48.83766" lon="2.33128">
        <ele>120.5</ele>
        <time>2015-07-13T20:45:29.872Z</time>
      </trkpt>
      <trkpt lat="48.83771" lon="2.33125">
        <ele>121.3</ele>
        <time>2015-07-13T20:45:30.722Z</time>
      </trkpt>
      <trkpt lat="48.83777" lon="2.33123">
        <ele>121.5</ele>
        <time>2015-07-13T20:45:31.739Z</time>
      </trkpt>
      <trkpt lat="48.83783" lon="2.33125">
        <ele>121.1</ele>
        <time>2015-07-13T20:45:32.780Z</time>
      </trkpt>
      <trkpt lat="48.83788" lon="2.33127">
        <ele>120.8</ele>
        <time>2015-07-13T20:45:33.792Z</time>
      </trkpt>
      <trkpt lat="48.83796" lon="2.33133">
        <ele>120.3</ele>
        <time>2015-07-13T20:45:35.820Z</time>
      </trkpt>
      <trkpt lat="48.838" lon="2.33137">
        <ele>120.7</ele>
        <time>2015-07-13T20:45:36.750Z</time>
      </trkpt>
      <trkpt lat="48.83805" lon="2.3314">
        <ele>121</ele>
        <time>2015-07-13T20:45:37.757Z</time>
      </trkpt>
      <trkpt lat="48.83808" lon="2.33145">
        <ele>121</ele>
        <time>2015-07-13T20:45:38.773Z</time>
      </trkpt>
      <trkpt lat="48.83814" lon="2.33153">
        <ele>120.3</ele>
        <time>2015-07-13T20:45:40.829Z</time>
      </trkpt>
      <trkpt lat="48.83817" lon="2.33156">
        <ele>119.8</ele>
        <time>2015-07-13T20:45:41.836Z</time>
      </trkpt>
      <trkpt lat="48.83823" lon="2.33165">
        <ele>119.3</ele>
        <time>2015-07-13T20:45:43.739Z</time>
      </trkpt>
      <trkpt lat="48.83825" lon="2.33173">
        <ele>118.9</ele>
        <time>2015-07-13T20:45:44.784Z</time>
      </trkpt>
      <trkpt lat="48.83827" lon="2.33178">
        <ele>118.9</ele>
        <time>2015-07-13T20:45:45.806Z</time>
      </trkpt>
      <trkpt lat="48.83831" lon="2.33184">
        <ele>118.9</ele>
        <time>2015-07-13T20:45:46.822Z</time>
      </trkpt>
      <trkpt lat="48.83834" lon="2.3319">
        <ele>118.7</ele>
        <time>2015-07-13T20:45:47.837Z</time>
      </trkpt>
      <trkpt lat="48.83837" lon="2.33196">
        <ele>118.4</ele>
        <time>2015-07-13T20:45:48.762Z</time>
      </trkpt>
      <trkpt lat="48.83844" lon="2.33205">
        <ele>118.3</ele>
        <time>2015-07-13T20:45:50.793Z</time>
      </trkpt>
      <trkpt lat="48.83847" lon="2.33211">
        <ele>118.2</ele>
        <time>2015-07-13T20:45:51.850Z</time>
      </trkpt>
      <trkpt lat="48.83852" lon="2.3322">
        <ele>117.6</ele>
        <time>2015-07-13T20:45:53.809Z</time>
      </trkpt>
      <trkpt lat="48.83855" lon="2.33225">
        <ele>117.2</ele>
        <time>2015-07-13T20:45:54.833Z</time>
      </trkpt>
      <trkpt lat="48.83859" lon="2.33229">
        <ele>116.8</ele>
        <time>2015-07-13T20:45:55.750Z</time>
      </trkpt>
      <trkpt lat="48.83863" lon="2.33235">
        <ele>116.6</ele>
        <time>2015-07-13T20:45:56.744Z</time>
      </trkpt>
      <trkpt lat="48.83867" lon="2.3324">
        <ele>116.5</ele>
        <time>2015-07-13T20:45:57.756Z</time>
      </trkpt>
      <trkpt lat="48.8387" lon="2.33246">
        <ele>116.5</ele>
        <time>2015-07-13T20:45:58.772Z</time>
      </trkpt>
      <trkpt lat="48.83873" lon="2.33252">
        <ele>116.3</ele>
        <time>2015-07-13T20:45:59.838Z</time>
      </trkpt>
      <trkpt lat="48.83876" lon="2.33258">
        <ele>116.4</ele>
        <time>2015-07-13T20:46:00.707Z</time>
      </trkpt>
      <trkpt lat="48.8388" lon="2.33263">
        <ele>116.4</ele>
        <time>2015-07-13T20:46:01.725Z</time>
      </trkpt>
      <trkpt lat="48.83883" lon="2.33269">
        <ele>116.5</ele>
        <time>2015-07-13T20:46:02.733Z</time>
      </trkpt>
      <trkpt lat="48.83889" lon="2.33277">
        <ele>117</ele>
        <time>2015-07-13T20:46:04.785Z</time>
      </trkpt>
      <trkpt lat="48.83893" lon="2.33281">
        <ele>116.9</ele>
        <time>2015-07-13T20:46:05.784Z</time>
      </trkpt>
      <trkpt lat="48.839" lon="2.33289">
        <ele>117.2</ele>
        <time>2015-07-13T20:46:07.721Z</time>
      </trkpt>
      <trkpt lat="48.83904" lon="2.33293">
        <ele>117.3</ele>
        <time>2015-07-13T20:46:08.752Z</time>
      </trkpt>
      <trkpt lat="48.83908" lon="2.33298">
        <ele>117.5</ele>
        <time>2015-07-13T20:46:09.804Z</time>
      </trkpt>
      <trkpt lat="48.83912" lon="2.33303">
        <ele>117.8</ele>
        <time>2015-07-13T20:46:10.829Z</time>
      </trkpt>
      <trkpt lat="48.83916" lon="2.33308">
        <ele>118</ele>
        <time>2015-07-13T20:46:11.842Z</time>
      </trkpt>
      <trkpt lat="48.8392" lon="2.33313">
        <ele>117.9</ele>
        <time>2015-07-13T20:46:12.731Z</time>
      </trkpt>
      <trkpt lat="48.83924" lon="2.33319">
        <ele>117.8</ele>
        <time>2015-07-13T20:46:13.738Z</time>
      </trkpt>
      <trkpt lat="48.83929" lon="2.33324">
        <ele>117.7</ele>
        <time>2015-07-13T20:46:14.746Z</time>
      </trkpt>
      <trkpt lat="48.83933" lon="2.33331">
        <ele>117.5</ele>
        <time>2015-07-13T20:46:15.756Z</time>
      </trkpt>
      <trkpt lat="48.83937" lon="2.33337">
        <ele>117.5</ele>
        <time>2015-07-13T20:46:16.762Z</time>
      </trkpt>
      <trkpt lat="48.83941" lon="2.33344">
        <ele>117.2</ele>
        <time>2015-07-13T20:46:17.777Z</time>
      </trkpt>
      <trkpt lat="48.83946" lon="2.33351">
        <ele>116.9</ele>
        <time>2015-07-13T20:46:18.783Z</time>
      </trkpt>
      <trkpt lat="48.83949" lon="2.33358">
        <ele>116.5</ele>
        <time>2015-07-13T20:46:19.811Z</time>
      </trkpt>
      <trkpt lat="48.83952" lon="2.33364">
        <ele>116.2</ele>
        <time>2015-07-13T20:46:20.735Z</time>
      </trkpt>
      <trkpt lat="48.83956" lon="2.3337">
        <ele>116</ele>
        <time>2015-07-13T20:46:21.737Z</time>
      </trkpt>
      <trkpt lat="48.8396" lon="2.33377">
        <ele>116.1</ele>
        <time>2015-07-13T20:46:22.735Z</time>
      </trkpt>
      <trkpt lat="48.83964" lon="2.33385">
        <ele>116.5</ele>
        <time>2015-07-13T20:46:23.781Z</time>
      </trkpt>
      <trkpt lat="48.83969" lon="2.33391">
        <ele>117</ele>
        <time>2015-07-13T20:46:24.778Z</time>
      </trkpt>
      <trkpt lat="48.83973" lon="2.33398">
        <ele>117.6</ele>
        <time>2015-07-13T20:46:25.808Z</time>
      </trkpt>
      <trkpt lat="48.83978" lon="2.33405">
        <ele>117.7</ele>
        <time>2015-07-13T20:46:26.737Z</time>
      </trkpt>
      <trkpt lat="48.83982" lon="2.33413">
        <ele>118.1</ele>
        <time>2015-07-13T20:46:27.738Z</time>
      </trkpt>
      <trkpt lat="48.83987" lon="2.33418">
        <ele>118.5</ele>
        <time>2015-07-13T20:46:28.736Z</time>
      </trkpt>
      <trkpt lat="48.83991" lon="2.33425">
        <ele>118.3</ele>
        <time>2015-07-13T20:46:29.831Z</time>
      </trkpt>
      <trkpt lat="48.83994" lon="2.33432">
        <ele>118.4</ele>
        <time>2015-07-13T20:46:30.730Z</time>
      </trkpt>
      <trkpt lat="48.83998" lon="2.33437">
        <ele>118.6</ele>
        <time>2015-07-13T20:46:31.749Z</time>
      </trkpt>
      <trkpt lat="48.84001" lon="2.33444">
        <ele>118.7</ele>
        <time>2015-07-13T20:46:32.773Z</time>
      </trkpt>
      <trkpt lat="48.84003" lon="2.33452">
        <ele>119.1</ele>
        <time>2015-07-13T20:46:33.793Z</time>
      </trkpt>
      <trkpt lat="48.84006" lon="2.33457">
        <ele>119.2</ele>
        <time>2015-07-13T20:46:34.799Z</time>
      </trkpt>
      <trkpt lat="48.84013" lon="2.33464">
        <ele>119.9</ele>
        <time>2015-07-13T20:46:36.727Z</time>
      </trkpt>
      <trkpt lat="48.84016" lon="2.33467">
        <ele>120.4</ele>
        <time>2015-07-13T20:46:37.768Z</time>
      </trkpt>
      <trkpt lat="48.84024" lon="2.33473">
        <ele>122.1</ele>
        <time>2015-07-13T20:46:46.756Z</time>
      </trkpt>
      <trkpt lat="48.84024" lon="2.33485">
        <ele>123.8</ele>
        <time>2015-07-13T20:46:47.836Z</time>
      </trkpt>
      <trkpt lat="48.84021" lon="2.33495">
        <ele>124</ele>
        <time>2015-07-13T20:46:49.773Z</time>
      </trkpt>
      <trkpt lat="48.84019" lon="2.33499">
        <ele>124</ele>
        <time>2015-07-13T20:46:50.786Z</time>
      </trkpt>
      <trkpt lat="48.84017" lon="2.3351">
        <ele>123.7</ele>
        <time>2015-07-13T20:46:52.840Z</time>
      </trkpt>
      <trkpt lat="48.84016" lon="2.33516">
        <ele>123.7</ele>
        <time>2015-07-13T20:46:53.839Z</time>
      </trkpt>
      <trkpt lat="48.84012" lon="2.33528">
        <ele>124.1</ele>
        <time>2015-07-13T20:46:55.787Z</time>
      </trkpt>
      <trkpt lat="48.84011" lon="2.33535">
        <ele>124.3</ele>
        <time>2015-07-13T20:46:56.844Z</time>
      </trkpt>
      <trkpt lat="48.84007" lon="2.33546">
        <ele>124.3</ele>
        <time>2015-07-13T20:46:58.767Z</time>
      </trkpt>
      <trkpt lat="48.84006" lon="2.33553">
        <ele>124.2</ele>
        <time>2015-07-13T20:46:59.853Z</time>
      </trkpt>
      <trkpt lat="48.84005" lon="2.3356">
        <ele>124.4</ele>
        <time>2015-07-13T20:47:00.736Z</time>
      </trkpt>
      <trkpt lat="48.84004" lon="2.33568">
        <ele>124.3</ele>
        <time>2015-07-13T20:47:01.759Z</time>
      </trkpt>
      <trkpt lat="48.84002" lon="2.33574">
        <ele>124.4</ele>
        <time>2015-07-13T20:47:02.789Z</time>
      </trkpt>
      <trkpt lat="48.84" lon="2.33582">
        <ele>124.4</ele>
        <time>2015-07-13T20:47:03.790Z</time>
      </trkpt>
      <trkpt lat="48.83997" lon="2.33589">
        <ele>124.6</ele>
        <time>2015-07-13T20:47:04.806Z</time>
      </trkpt>
      <trkpt lat="48.83995" lon="2.33597">
        <ele>125.2</ele>
        <time>2015-07-13T20:47:05.824Z</time>
      </trkpt>
      <trkpt lat="48.83991" lon="2.33607">
        <ele>125.5</ele>
        <time>2015-07-13T20:47:07.751Z</time>
      </trkpt>
      <trkpt lat="48.83989" lon="2.33612">
        <ele>125.3</ele>
        <time>2015-07-13T20:47:08.780Z</time>
      </trkpt>
      <trkpt lat="48.83987" lon="2.33619">
        <ele>125.5</ele>
        <time>2015-07-13T20:47:09.779Z</time>
      </trkpt>
      <trkpt lat="48.83985" lon="2.33626">
        <ele>125.4</ele>
        <time>2015-07-13T20:47:10.790Z</time>
      </trkpt>
      <trkpt lat="48.83984" lon="2.33632">
        <ele>125.1</ele>
        <time>2015-07-13T20:47:11.831Z</time>
      </trkpt>
      <trkpt lat="48.83983" lon="2.3364">
        <ele>124.4</ele>
        <time>2015-07-13T20:47:12.757Z</time>
      </trkpt>
      <trkpt lat="48.83984" lon="2.3365">
        <ele>124.3</ele>
        <time>2015-07-13T20:47:14.779Z</time>
      </trkpt>
      <trkpt lat="48.83983" lon="2.33657">
        <ele>124.9</ele>
        <time>2015-07-13T20:47:15.793Z</time>
      </trkpt>
      <trkpt lat="48.83986" lon="2.33669">
        <ele>122.2</ele>
        <time>2015-07-13T20:47:21.787Z</time>
      </trkpt>
      <trkpt lat="48.83987" lon="2.33673">
        <ele>121.9</ele>
        <time>2015-07-13T20:47:22.732Z</time>
      </trkpt>
      <trkpt lat="48.83987" lon="2.33684">
        <ele>119</ele>
        <time>2015-07-13T20:47:26.761Z</time>
      </trkpt>
      <trkpt lat="48.83988" lon="2.33687">
        <ele>119.1</ele>
        <time>2015-07-13T20:47:27.762Z</time>
      </trkpt>
      <trkpt lat="48.83995" lon="2.33695">
        <ele>119.2</ele>
        <time>2015-07-13T20:47:30.790Z</time>
      </trkpt>
      <trkpt lat="48.83998" lon="2.33695">
        <ele>119</ele>
        <time>2015-07-13T20:47:31.804Z</time>
      </trkpt>
      <trkpt lat="48.84006" lon="2.33693">
        <ele>118.1</ele>
        <time>2015-07-13T20:47:33.723Z</time>
      </trkpt>
      <trkpt lat="48.8401" lon="2.33693">
        <ele>118</ele>
        <time>2015-07-13T20:47:34.733Z</time>
      </trkpt>
      <trkpt lat="48.84018" lon="2.33694">
        <ele>117.6</ele>
        <time>2015-07-13T20:47:36.779Z</time>
      </trkpt>
      <trkpt lat="48.84022" lon="2.33695">
        <ele>117.3</ele>
        <time>2015-07-13T20:47:37.792Z</time>
      </trkpt>
      <trkpt lat="48.84029" lon="2.33699">
        <ele>117</ele>
        <time>2015-07-13T20:47:39.913Z</time>
      </trkpt>
      <trkpt lat="48.84033" lon="2.33701">
        <ele>116.9</ele>
        <time>2015-07-13T20:47:40.809Z</time>
      </trkpt>
      <trkpt lat="48.8404" lon="2.33706">
        <ele>116.7</ele>
        <time>2015-07-13T20:47:42.836Z</time>
      </trkpt>
      <trkpt lat="48.84045" lon="2.33708">
        <ele>116.8</ele>
        <time>2015-07-13T20:47:43.737Z</time>
      </trkpt>
      <trkpt lat="48.84049" lon="2.3371">
        <ele>116.9</ele>
        <time>2015-07-13T20:47:44.928Z</time>
      </trkpt>
      <trkpt lat="48.84054" lon="2.33713">
        <ele>117.2</ele>
        <time>2015-07-13T20:47:45.753Z</time>
      </trkpt>
      <trkpt lat="48.84058" lon="2.33714">
        <ele>117.1</ele>
        <time>2015-07-13T20:47:46.760Z</time>
      </trkpt>
      <trkpt lat="48.84063" lon="2.33716">
        <ele>117.3</ele>
        <time>2015-07-13T20:47:47.810Z</time>
      </trkpt>
      <trkpt lat="48.84068" lon="2.33718">
        <ele>117.7</ele>
        <time>2015-07-13T20:47:48.719Z</time>
      </trkpt>
      <trkpt lat="48.84073" lon="2.3372">
        <ele>118.2</ele>
        <time>2015-07-13T20:47:49.743Z</time>
      </trkpt>
      <trkpt lat="48.84077" lon="2.33722">
        <ele>118.7</ele>
        <time>2015-07-13T20:47:50.756Z</time>
      </trkpt>
      <trkpt lat="48.84082" lon="2.33723">
        <ele>119.2</ele>
        <time>2015-07-13T20:47:51.756Z</time>
      </trkpt>
      <trkpt lat="48.84086" lon="2.33725">
        <ele>119.6</ele>
        <time>2015-07-13T20:47:52.770Z</time>
      </trkpt>
      <trkpt lat="48.84091" lon="2.33728">
        <ele>119.9</ele>
        <time>2015-07-13T20:47:53.829Z</time>
      </trkpt>
      <trkpt lat="48.84096" lon="2.3373">
        <ele>119.9</ele>
        <time>2015-07-13T20:47:54.790Z</time>
      </trkpt>
      <trkpt lat="48.84102" lon="2.33733">
        <ele>119.9</ele>
        <time>2015-07-13T20:47:55.711Z</time>
      </trkpt>
      <trkpt lat="48.84107" lon="2.33736">
        <ele>119.9</ele>
        <time>2015-07-13T20:47:56.826Z</time>
      </trkpt>
      <trkpt lat="48.84114" lon="2.33739">
        <ele>119.8</ele>
        <time>2015-07-13T20:47:57.750Z</time>
      </trkpt>
      <trkpt lat="48.84119" lon="2.33742">
        <ele>119.7</ele>
        <time>2015-07-13T20:47:58.771Z</time>
      </trkpt>
      <trkpt lat="48.84123" lon="2.33745">
        <ele>119.7</ele>
        <time>2015-07-13T20:47:59.835Z</time>
      </trkpt>
      <trkpt lat="48.84129" lon="2.33749">
        <ele>119.9</ele>
        <time>2015-07-13T20:48:00.698Z</time>
      </trkpt>
      <trkpt lat="48.84135" lon="2.33753">
        <ele>120.3</ele>
        <time>2015-07-13T20:48:01.728Z</time>
      </trkpt>
      <trkpt lat="48.84141" lon="2.33755">
        <ele>120.2</ele>
        <time>2015-07-13T20:48:02.734Z</time>
      </trkpt>
      <trkpt lat="48.84146" lon="2.33757">
        <ele>120.4</ele>
        <time>2015-07-13T20:48:03.766Z</time>
      </trkpt>
      <trkpt lat="48.84152" lon="2.3376">
        <ele>120.8</ele>
        <time>2015-07-13T20:48:04.770Z</time>
      </trkpt>
      <trkpt lat="48.84159" lon="2.33764">
        <ele>120.7</ele>
        <time>2015-07-13T20:48:05.813Z</time>
      </trkpt>
      <trkpt lat="48.84165" lon="2.33768">
        <ele>121.1</ele>
        <time>2015-07-13T20:48:06.791Z</time>
      </trkpt>
      <trkpt lat="48.84172" lon="2.33774">
        <ele>121.2</ele>
        <time>2015-07-13T20:48:07.809Z</time>
      </trkpt>
      <trkpt lat="48.84177" lon="2.33777">
        <ele>121</ele>
        <time>2015-07-13T20:48:08.831Z</time>
      </trkpt>
      <trkpt lat="48.84181" lon="2.33779">
        <ele>121.3</ele>
        <time>2015-07-13T20:48:09.786Z</time>
      </trkpt>
      <trkpt lat="48.84185" lon="2.3378">
        <ele>121.6</ele>
        <time>2015-07-13T20:48:10.788Z</time>
      </trkpt>
      <trkpt lat="48.8419" lon="2.33783">
        <ele>121.9</ele>
        <time>2015-07-13T20:48:11.790Z</time>
      </trkpt>
      <trkpt lat="48.84194" lon="2.33788">
        <ele>122.1</ele>
        <time>2015-07-13T20:48:12.795Z</time>
      </trkpt>
      <trkpt lat="48.84199" lon="2.33794">
        <ele>122.2</ele>
        <time>2015-07-13T20:48:13.804Z</time>
      </trkpt>
      <trkpt lat="48.84203" lon="2.33799">
        <ele>122.5</ele>
        <time>2015-07-13T20:48:14.749Z</time>
      </trkpt>
      <trkpt lat="48.84209" lon="2.33803">
        <ele>122.7</ele>
        <time>2015-07-13T20:48:15.750Z</time>
      </trkpt>
      <trkpt lat="48.84215" lon="2.33807">
        <ele>122.9</ele>
        <time>2015-07-13T20:48:16.752Z</time>
      </trkpt>
      <trkpt lat="48.84227" lon="2.33806">
        <ele>122.5</ele>
        <time>2015-07-13T20:48:17.769Z</time>
      </trkpt>
      <trkpt lat="48.84233" lon="2.3381">
        <ele>122.4</ele>
        <time>2015-07-13T20:48:18.769Z</time>
      </trkpt>
      <trkpt lat="48.8424" lon="2.33814">
        <ele>122.4</ele>
        <time>2015-07-13T20:48:19.776Z</time>
      </trkpt>
      <trkpt lat="48.84248" lon="2.33818">
        <ele>122.4</ele>
        <time>2015-07-13T20:48:20.828Z</time>
      </trkpt>
      <trkpt lat="48.84255" lon="2.33823">
        <ele>122.2</ele>
        <time>2015-07-13T20:48:21.820Z</time>
      </trkpt>
      <trkpt lat="48.84262" lon="2.33829">
        <ele>122.5</ele>
        <time>2015-07-13T20:48:22.831Z</time>
      </trkpt>
      <trkpt lat="48.8427" lon="2.33832">
        <ele>123</ele>
        <time>2015-07-13T20:48:23.830Z</time>
      </trkpt>
      <trkpt lat="48.84277" lon="2.33835">
        <ele>123.4</ele>
        <time>2015-07-13T20:48:24.742Z</time>
      </trkpt>
      <trkpt lat="48.84283" lon="2.3384">
        <ele>123.8</ele>
        <time>2015-07-13T20:48:25.763Z</time>
      </trkpt>
      <trkpt lat="48.8429" lon="2.33844">
        <ele>124.2</ele>
        <time>2015-07-13T20:48:26.776Z</time>
      </trkpt>
      <trkpt lat="48.84296" lon="2.33848">
        <ele>124.7</ele>
        <time>2015-07-13T20:48:27.831Z</time>
      </trkpt>
      <trkpt lat="48.84302" lon="2.33855">
        <ele>124.8</ele>
        <time>2015-07-13T20:48:29.827Z</time>
      </trkpt>
      <trkpt lat="48.84306" lon="2.3386">
        <ele>124.5</ele>
        <time>2015-07-13T20:48:30.775Z</time>
      </trkpt>
      <trkpt lat="48.8431" lon="2.33864">
        <ele>124.2</ele>
        <time>2015-07-13T20:48:31.735Z</time>
      </trkpt>
      <trkpt lat="48.84315" lon="2.33866">
        <ele>124.1</ele>
        <time>2015-07-13T20:48:32.732Z</time>
      </trkpt>
      <trkpt lat="48.8432" lon="2.33869">
        <ele>123.9</ele>
        <time>2015-07-13T20:48:33.741Z</time>
      </trkpt>
      <trkpt lat="48.84324" lon="2.33873">
        <ele>123.7</ele>
        <time>2015-07-13T20:48:34.750Z</time>
      </trkpt>
      <trkpt lat="48.84329" lon="2.33878">
        <ele>123.6</ele>
        <time>2015-07-13T20:48:35.785Z</time>
      </trkpt>
      <trkpt lat="48.84332" lon="2.33884">
        <ele>123.7</ele>
        <time>2015-07-13T20:48:36.790Z</time>
      </trkpt>
      <trkpt lat="48.84335" lon="2.33889">
        <ele>123.7</ele>
        <time>2015-07-13T20:48:37.806Z</time>
      </trkpt>
      <trkpt lat="48.84341" lon="2.33892">
        <ele>123.6</ele>
        <time>2015-07-13T20:48:38.821Z</time>
      </trkpt>
      <trkpt lat="48.84347" lon="2.33895">
        <ele>123.7</ele>
        <time>2015-07-13T20:48:39.767Z</time>
      </trkpt>
      <trkpt lat="48.84353" lon="2.33896">
        <ele>123.7</ele>
        <time>2015-07-13T20:48:41Z</time>
      </trkpt>
      <trkpt lat="48.84364" lon="2.33895">
        <ele>123.4</ele>
        <time>2015-07-13T20:48:41.804Z</time>
      </trkpt>
      <trkpt lat="48.84375" lon="2.33896">
        <ele>123</ele>
        <time>2015-07-13T20:48:42.792Z</time>
      </trkpt>
      <trkpt lat="48.84384" lon="2.33897">
        <ele>122.8</ele>
        <time>2015-07-13T20:48:43.805Z</time>
      </trkpt>
      <trkpt lat="48.84394" lon="2.339">
        <ele>122.8</ele>
        <time>2015-07-13T20:48:44.807Z</time>
      </trkpt>
      <trkpt lat="48.84401" lon="2.33905">
        <ele>122.7</ele>
        <time>2015-07-13T20:48:45.817Z</time>
      </trkpt>
      <trkpt lat="48.84408" lon="2.33906">
        <ele>122.6</ele>
        <time>2015-07-13T20:48:46.740Z</time>
      </trkpt>
      <trkpt lat="48.84414" lon="2.33908">
        <ele>122.3</ele>
        <time>2015-07-13T20:48:47.853Z</time>
      </trkpt>
      <trkpt lat="48.84421" lon="2.33911">
        <ele>121.8</ele>
        <time>2015-07-13T20:48:48.744Z</time>
      </trkpt>
      <trkpt lat="48.84427" lon="2.33913">
        <ele>121.7</ele>
        <time>2015-07-13T20:48:49.747Z</time>
      </trkpt>
      <trkpt lat="48.84432" lon="2.33915">
        <ele>121.8</ele>
        <time>2015-07-13T20:48:50.750Z</time>
      </trkpt>
      <trkpt lat="48.84437" lon="2.33917">
        <ele>122.5</ele>
        <time>2015-07-13T20:48:51.760Z</time>
      </trkpt>
      <trkpt lat="48.84443" lon="2.33922">
        <ele>122.8</ele>
        <time>2015-07-13T20:48:52.760Z</time>
      </trkpt>
      <trkpt lat="48.84447" lon="2.33927">
        <ele>122.8</ele>
        <time>2015-07-13T20:48:53.795Z</time>
      </trkpt>
      <trkpt lat="48.84452" lon="2.33931">
        <ele>123.1</ele>
        <time>2015-07-13T20:48:54.826Z</time>
      </trkpt>
      <trkpt lat="48.84458" lon="2.33936">
        <ele>123.4</ele>
        <time>2015-07-13T20:48:55.756Z</time>
      </trkpt>
      <trkpt lat="48.84466" lon="2.33939">
        <ele>123.9</ele>
        <time>2015-07-13T20:48:56.754Z</time>
      </trkpt>
      <trkpt lat="48.84474" lon="2.3394">
        <ele>124.1</ele>
        <time>2015-07-13T20:48:57.783Z</time>
      </trkpt>
      <trkpt lat="48.8448" lon="2.33944">
        <ele>124.8</ele>
        <time>2015-07-13T20:48:58.836Z</time>
      </trkpt>
      <trkpt lat="48.84487" lon="2.33947">
        <ele>124.6</ele>
        <time>2015-07-13T20:48:59.853Z</time>
      </trkpt>
      <trkpt lat="48.84494" lon="2.33949">
        <ele>124.3</ele>
        <time>2015-07-13T20:49:00.701Z</time>
      </trkpt>
      <trkpt lat="48.84499" lon="2.33952">
        <ele>123.9</ele>
        <time>2015-07-13T20:49:01.730Z</time>
      </trkpt>
      <trkpt lat="48.84505" lon="2.33955">
        <ele>123.7</ele>
        <time>2015-07-13T20:49:02.740Z</time>
      </trkpt>
      <trkpt lat="48.84511" lon="2.33957">
        <ele>123.3</ele>
        <time>2015-07-13T20:49:03.777Z</time>
      </trkpt>
      <trkpt lat="48.84516" lon="2.3396">
        <ele>123.3</ele>
        <time>2015-07-13T20:49:04.781Z</time>
      </trkpt>
      <trkpt lat="48.84521" lon="2.33962">
        <ele>123.4</ele>
        <time>2015-07-13T20:49:05.800Z</time>
      </trkpt>
      <trkpt lat="48.84526" lon="2.33965">
        <ele>123.4</ele>
        <time>2015-07-13T20:49:06.820Z</time>
      </trkpt>
      <trkpt lat="48.84532" lon="2.33968">
        <ele>123.3</ele>
        <time>2015-07-13T20:49:07.734Z</time>
      </trkpt>
      <trkpt lat="48.84537" lon="2.3397">
        <ele>123.4</ele>
        <time>2015-07-13T20:49:08.732Z</time>
      </trkpt>
      <trkpt lat="48.84544" lon="2.33972">
        <ele>123.4</ele>
        <time>2015-07-13T20:49:09.737Z</time>
      </trkpt>
      <trkpt lat="48.8455" lon="2.33976">
        <ele>123.2</ele>
        <time>2015-07-13T20:49:10.750Z</time>
      </trkpt>
      <trkpt lat="48.84556" lon="2.33979">
        <ele>123</ele>
        <time>2015-07-13T20:49:11.790Z</time>
      </trkpt>
      <trkpt lat="48.84563" lon="2.33984">
        <ele>123.1</ele>
        <time>2015-07-13T20:49:12.818Z</time>
      </trkpt>
      <trkpt lat="48.84571" lon="2.33989">
        <ele>123.1</ele>
        <time>2015-07-13T20:49:13.735Z</time>
      </trkpt>
      <trkpt lat="48.84578" lon="2.33993">
        <ele>123</ele>
        <time>2015-07-13T20:49:14.737Z</time>
      </trkpt>
      <trkpt lat="48.84584" lon="2.33994">
        <ele>122.9</ele>
        <time>2015-07-13T20:49:15.766Z</time>
      </trkpt>
      <trkpt lat="48.8459" lon="2.33997">
        <ele>122.9</ele>
        <time>2015-07-13T20:49:16.779Z</time>
      </trkpt>
      <trkpt lat="48.84596" lon="2.33998">
        <ele>122.9</ele>
        <time>2015-07-13T20:49:17.819Z</time>
      </trkpt>
      <trkpt lat="48.84602" lon="2.34001">
        <ele>122.8</ele>
        <time>2015-07-13T20:49:18.810Z</time>
      </trkpt>
      <trkpt lat="48.84607" lon="2.34004">
        <ele>122.4</ele>
        <time>2015-07-13T20:49:19.734Z</time>
      </trkpt>
      <trkpt lat="48.84611" lon="2.34008">
        <ele>122.4</ele>
        <time>2015-07-13T20:49:20.734Z</time>
      </trkpt>
      <trkpt lat="48.84617" lon="2.34011">
        <ele>122.3</ele>
        <time>2015-07-13T20:49:21.747Z</time>
      </trkpt>
      <trkpt lat="48.84621" lon="2.34013">
        <ele>121.9</ele>
        <time>2015-07-13T20:49:22.758Z</time>
      </trkpt>
      <trkpt lat="48.84625" lon="2.34017">
        <ele>121.3</ele>
        <time>2015-07-13T20:49:23.781Z</time>
      </trkpt>
      <trkpt lat="48.8463" lon="2.34021">
        <ele>121.1</ele>
        <time>2015-07-13T20:49:24.766Z</time>
      </trkpt>
      <trkpt lat="48.84635" lon="2.34025">
        <ele>120.4</ele>
        <time>2015-07-13T20:49:25.782Z</time>
      </trkpt>
      <trkpt lat="48.8464" lon="2.3403">
        <ele>119.6</ele>
        <time>2015-07-13T20:49:26.802Z</time>
      </trkpt>
      <trkpt lat="48.84646" lon="2.34033">
        <ele>119.6</ele>
        <time>2015-07-13T20:49:27.810Z</time>
      </trkpt>
      <trkpt lat="48.84652" lon="2.34037">
        <ele>119.1</ele>
        <time>2015-07-13T20:49:28.819Z</time>
      </trkpt>
      <trkpt lat="48.84657" lon="2.34039">
        <ele>118.5</ele>
        <time>2015-07-13T20:49:29.835Z</time>
      </trkpt>
      <trkpt lat="48.84663" lon="2.34043">
        <ele>118.2</ele>
        <time>2015-07-13T20:49:30.733Z</time>
      </trkpt>
      <trkpt lat="48.84668" lon="2.34047">
        <ele>117.9</ele>
        <time>2015-07-13T20:49:31.747Z</time>
      </trkpt>
      <trkpt lat="48.84673" lon="2.34051">
        <ele>118.1</ele>
        <time>2015-07-13T20:49:32.767Z</time>
      </trkpt>
      <trkpt lat="48.84677" lon="2.34056">
        <ele>117.7</ele>
        <time>2015-07-13T20:49:33.762Z</time>
      </trkpt>
      <trkpt lat="48.84682" lon="2.34062">
        <ele>117.6</ele>
        <time>2015-07-13T20:49:34.777Z</time>
      </trkpt>
      <trkpt lat="48.84686" lon="2.34067">
        <ele>117.6</ele>
        <time>2015-07-13T20:49:35.794Z</time>
      </trkpt>
      <trkpt lat="48.84691" lon="2.34071">
        <ele>117.6</ele>
        <time>2015-07-13T20:49:36.813Z</time>
      </trkpt>
      <trkpt lat="48.84696" lon="2.34071">
        <ele>118.8</ele>
        <time>2015-07-13T20:49:38.734Z</time>
      </trkpt>
      <trkpt lat="48.847" lon="2.34072">
        <ele>119</ele>
        <time>2015-07-13T20:49:39.779Z</time>
      </trkpt>
      <trkpt lat="48.84709" lon="2.34073">
        <ele>121.4</ele>
        <time>2015-07-13T20:49:41.859Z</time>
      </trkpt>
      <trkpt lat="48.84711" lon="2.34074">
        <ele>121.4</ele>
        <time>2015-07-13T20:49:42.768Z</time>
      </trkpt>
      <trkpt lat="48.84719" lon="2.34077">
        <ele>121.8</ele>
        <time>2015-07-13T20:49:45.776Z</time>
      </trkpt>
      <trkpt lat="48.84722" lon="2.34077">
        <ele>121.7</ele>
        <time>2015-07-13T20:49:46.789Z</time>
      </trkpt>
      <trkpt lat="48.84731" lon="2.34077">
        <ele>123.4</ele>
        <time>2015-07-13T20:49:50.723Z</time>
      </trkpt>
      <trkpt lat="48.84733" lon="2.34078">
        <ele>123.8</ele>
        <time>2015-07-13T20:49:51.737Z</time>
      </trkpt>
      <trkpt lat="48.84742" lon="2.34079">
        <ele>125.8</ele>
        <time>2015-07-13T20:49:54.773Z</time>
      </trkpt>
      <trkpt lat="48.84744" lon="2.3408">
        <ele>126.1</ele>
        <time>2015-07-13T20:49:55.789Z</time>
      </trkpt>
      <trkpt lat="48.84746" lon="2.34082">
        <ele>127.2</ele>
        <time>2015-07-13T20:50:14.754Z</time>
      </trkpt>
      <trkpt lat="48.84751" lon="2.34097">
        <ele>124.9</ele>
        <time>2015-07-13T20:50:15.759Z</time>
      </trkpt>
      <trkpt lat="48.84758" lon="2.34098">
        <ele>124.3</ele>
        <time>2015-07-13T20:50:18.823Z</time>
      </trkpt>
      <trkpt lat="48.8476" lon="2.34099">
        <ele>124.5</ele>
        <time>2015-07-13T20:50:19.758Z</time>
      </trkpt>
      <trkpt lat="48.84768" lon="2.34101">
        <ele>126.1</ele>
        <time>2015-07-13T20:50:23.779Z</time>
      </trkpt>
      <trkpt lat="48.84773" lon="2.34103">
        <ele>126.5</ele>
        <time>2015-07-13T20:50:24.792Z</time>
      </trkpt>
      <trkpt lat="48.84778" lon="2.34105">
        <ele>126.5</ele>
        <time>2015-07-13T20:50:25.805Z</time>
      </trkpt>
      <trkpt lat="48.84786" lon="2.34107">
        <ele>126.4</ele>
        <time>2015-07-13T20:50:26.813Z</time>
      </trkpt>
      <trkpt lat="48.84792" lon="2.34111">
        <ele>126.6</ele>
        <time>2015-07-13T20:50:27.919Z</time>
      </trkpt>
      <trkpt lat="48.84798" lon="2.34115">
        <ele>126.7</ele>
        <time>2015-07-13T20:50:28.753Z</time>
      </trkpt>
      <trkpt lat="48.84804" lon="2.34118">
        <ele>126.7</ele>
        <time>2015-07-13T20:50:29.821Z</time>
      </trkpt>
      <trkpt lat="48.84809" lon="2.34121">
        <ele>126.6</ele>
        <time>2015-07-13T20:50:30.803Z</time>
      </trkpt>
      <trkpt lat="48.84813" lon="2.34126">
        <ele>126.6</ele>
        <time>2015-07-13T20:50:31.711Z</time>
      </trkpt>
      <trkpt lat="48.84818" lon="2.34131">
        <ele>126.4</ele>
        <time>2015-07-13T20:50:32.722Z</time>
      </trkpt>
      <trkpt lat="48.84823" lon="2.34136">
        <ele>126.4</ele>
        <time>2015-07-13T20:50:33.742Z</time>
      </trkpt>
      <trkpt lat="48.84827" lon="2.34141">
        <ele>126.3</ele>
        <time>2015-07-13T20:50:34.758Z</time>
      </trkpt>
      <trkpt lat="48.84832" lon="2.34148">
        <ele>126.1</ele>
        <time>2015-07-13T20:50:35.787Z</time>
      </trkpt>
      <trkpt lat="48.84845" lon="2.34157">
        <ele>123.7</ele>
        <time>2015-07-13T20:50:36.794Z</time>
      </trkpt>
      <trkpt lat="48.84853" lon="2.3416">
        <ele>123.3</ele>
        <time>2015-07-13T20:50:37.804Z</time>
      </trkpt>
      <trkpt lat="48.84859" lon="2.34164">
        <ele>123.4</ele>
        <time>2015-07-13T20:50:38.815Z</time>
      </trkpt>
      <trkpt lat="48.84869" lon="2.34164">
        <ele>123.4</ele>
        <time>2015-07-13T20:50:39.765Z</time>
      </trkpt>
      <trkpt lat="48.84875" lon="2.34168">
        <ele>123.6</ele>
        <time>2015-07-13T20:50:40.766Z</time>
      </trkpt>
      <trkpt lat="48.84881" lon="2.34174">
        <ele>123.6</ele>
        <time>2015-07-13T20:50:41.840Z</time>
      </trkpt>
      <trkpt lat="48.84885" lon="2.34179">
        <ele>123.4</ele>
        <time>2015-07-13T20:50:42.784Z</time>
      </trkpt>
      <trkpt lat="48.8489" lon="2.34184">
        <ele>123.6</ele>
        <time>2015-07-13T20:50:43.780Z</time>
      </trkpt>
      <trkpt lat="48.84894" lon="2.34188">
        <ele>123.5</ele>
        <time>2015-07-13T20:50:44.788Z</time>
      </trkpt>
      <trkpt lat="48.84899" lon="2.34194">
        <ele>123.3</ele>
        <time>2015-07-13T20:50:45.798Z</time>
      </trkpt>
      <trkpt lat="48.84904" lon="2.342">
        <ele>123.2</ele>
        <time>2015-07-13T20:50:46.815Z</time>
      </trkpt>
      <trkpt lat="48.8491" lon="2.34205">
        <ele>122.7</ele>
        <time>2015-07-13T20:50:47.824Z</time>
      </trkpt>
      <trkpt lat="48.84916" lon="2.3421">
        <ele>122.2</ele>
        <time>2015-07-13T20:50:48.751Z</time>
      </trkpt>
      <trkpt lat="48.84922" lon="2.34212">
        <ele>122</ele>
        <time>2015-07-13T20:50:49.746Z</time>
      </trkpt>
      <trkpt lat="48.8493" lon="2.34212">
        <ele>121.7</ele>
        <time>2015-07-13T20:50:50.785Z</time>
      </trkpt>
      <trkpt lat="48.84937" lon="2.34213">
        <ele>121.5</ele>
        <time>2015-07-13T20:50:51.784Z</time>
      </trkpt>
      <trkpt lat="48.84944" lon="2.34214">
        <ele>121.3</ele>
        <time>2015-07-13T20:50:52.799Z</time>
      </trkpt>
      <trkpt lat="48.84949" lon="2.34213">
        <ele>121.3</ele>
        <time>2015-07-13T20:50:53.845Z</time>
      </trkpt>
      <trkpt lat="48.84954" lon="2.34215">
        <ele>121.4</ele>
        <time>2015-07-13T20:50:54.739Z</time>
      </trkpt>
      <trkpt lat="48.8496" lon="2.34217">
        <ele>121.8</ele>
        <time>2015-07-13T20:50:55.741Z</time>
      </trkpt>
      <trkpt lat="48.84966" lon="2.34219">
        <ele>122.1</ele>
        <time>2015-07-13T20:50:56.765Z</time>
      </trkpt>
      <trkpt lat="48.84972" lon="2.34222">
        <ele>122.5</ele>
        <time>2015-07-13T20:50:57.772Z</time>
      </trkpt>
      <trkpt lat="48.84978" lon="2.34224">
        <ele>123.2</ele>
        <time>2015-07-13T20:50:58.778Z</time>
      </trkpt>
      <trkpt lat="48.84988" lon="2.34227">
        <ele>124.5</ele>
        <time>2015-07-13T20:50:59.795Z</time>
      </trkpt>
      <trkpt lat="48.84995" lon="2.3423">
        <ele>125</ele>
        <time>2015-07-13T20:51:00.806Z</time>
      </trkpt>
      <trkpt lat="48.85002" lon="2.34233">
        <ele>124.6</ele>
        <time>2015-07-13T20:51:01.825Z</time>
      </trkpt>
      <trkpt lat="48.85013" lon="2.34238">
        <ele>123.3</ele>
        <time>2015-07-13T20:51:02.827Z</time>
      </trkpt>
      <trkpt lat="48.85022" lon="2.34245">
        <ele>121.4</ele>
        <time>2015-07-13T20:51:03.730Z</time>
      </trkpt>
      <trkpt lat="48.85032" lon="2.34252">
        <ele>119.4</ele>
        <time>2015-07-13T20:51:04.730Z</time>
      </trkpt>
      <trkpt lat="48.85042" lon="2.34259">
        <ele>118</ele>
        <time>2015-07-13T20:51:05.783Z</time>
      </trkpt>
      <trkpt lat="48.8505" lon="2.34265">
        <ele>118.7</ele>
        <time>2015-07-13T20:51:06.792Z</time>
      </trkpt>
      <trkpt lat="48.85058" lon="2.34269">
        <ele>119</ele>
        <time>2015-07-13T20:51:07.732Z</time>
      </trkpt>
      <trkpt lat="48.85066" lon="2.34274">
        <ele>119.3</ele>
        <time>2015-07-13T20:51:08.761Z</time>
      </trkpt>
      <trkpt lat="48.85073" lon="2.34278">
        <ele>119.2</ele>
        <time>2015-07-13T20:51:09.777Z</time>
      </trkpt>
      <trkpt lat="48.85079" lon="2.34283">
        <ele>118.6</ele>
        <time>2015-07-13T20:51:10.785Z</time>
      </trkpt>
      <trkpt lat="48.85087" lon="2.34289">
        <ele>118.1</ele>
        <time>2015-07-13T20:51:11.795Z</time>
      </trkpt>
      <trkpt lat="48.85093" lon="2.34295">
        <ele>117.6</ele>
        <time>2015-07-13T20:51:12.808Z</time>
      </trkpt>
      <trkpt lat="48.85101" lon="2.34301">
        <ele>116.3</ele>
        <time>2015-07-13T20:51:13.728Z</time>
      </trkpt>
      <trkpt lat="48.85111" lon="2.34307">
        <ele>115.1</ele>
        <time>2015-07-13T20:51:14.727Z</time>
      </trkpt>
      <trkpt lat="48.85121" lon="2.3431">
        <ele>113.4</ele>
        <time>2015-07-13T20:51:15.738Z</time>
      </trkpt>
      <trkpt lat="48.85126" lon="2.34312">
        <ele>113.3</ele>
        <time>2015-07-13T20:51:16.749Z</time>
      </trkpt>
      <trkpt lat="48.85131" lon="2.34314">
        <ele>113.2</ele>
        <time>2015-07-13T20:51:17.862Z</time>
      </trkpt>
      <trkpt lat="48.85136" lon="2.34315">
        <ele>112.2</ele>
        <time>2015-07-13T20:51:18.736Z</time>
      </trkpt>
      <trkpt lat="48.85141" lon="2.34317">
        <ele>111.9</ele>
        <time>2015-07-13T20:51:19.744Z</time>
      </trkpt>
      <trkpt lat="48.85145" lon="2.3432">
        <ele>111.7</ele>
        <time>2015-07-13T20:51:20.763Z</time>
      </trkpt>
      <trkpt lat="48.8515" lon="2.34323">
        <ele>111.8</ele>
        <time>2015-07-13T20:51:21.772Z</time>
      </trkpt>
      <trkpt lat="48.85154" lon="2.34325">
        <ele>111.7</ele>
        <time>2015-07-13T20:51:22.783Z</time>
      </trkpt>
      <trkpt lat="48.85158" lon="2.34329">
        <ele>112.1</ele>
        <time>2015-07-13T20:51:23.805Z</time>
      </trkpt>
      <trkpt lat="48.85162" lon="2.34332">
        <ele>112</ele>
        <time>2015-07-13T20:51:24.809Z</time>
      </trkpt>
      <trkpt lat="48.85167" lon="2.34336">
        <ele>112.6</ele>
        <time>2015-07-13T20:51:25.838Z</time>
      </trkpt>
      <trkpt lat="48.85176" lon="2.34337">
        <ele>112.6</ele>
        <time>2015-07-13T20:51:26.739Z</time>
      </trkpt>
      <trkpt lat="48.85185" lon="2.3434">
        <ele>112.9</ele>
        <time>2015-07-13T20:51:27.742Z</time>
      </trkpt>
      <trkpt lat="48.85193" lon="2.34342">
        <ele>113</ele>
        <time>2015-07-13T20:51:28.746Z</time>
      </trkpt>
      <trkpt lat="48.85201" lon="2.34345">
        <ele>113.3</ele>
        <time>2015-07-13T20:51:29.799Z</time>
      </trkpt>
      <trkpt lat="48.85208" lon="2.34346">
        <ele>113.4</ele>
        <time>2015-07-13T20:51:30.797Z</time>
      </trkpt>
      <trkpt lat="48.85215" lon="2.34349">
        <ele>113.9</ele>
        <time>2015-07-13T20:51:31.739Z</time>
      </trkpt>
      <trkpt lat="48.85221" lon="2.34352">
        <ele>114</ele>
        <time>2015-07-13T20:51:32.736Z</time>
      </trkpt>
      <trkpt lat="48.85226" lon="2.34354">
        <ele>113.7</ele>
        <time>2015-07-13T20:51:33.740Z</time>
      </trkpt>
      <trkpt lat="48.85233" lon="2.34355">
        <ele>113.3</ele>
        <time>2015-07-13T20:51:34.749Z</time>
      </trkpt>
      <trkpt lat="48.8524" lon="2.34358">
        <ele>113.2</ele>
        <time>2015-07-13T20:51:35.788Z</time>
      </trkpt>
      <trkpt lat="48.85245" lon="2.34362">
        <ele>113.2</ele>
        <time>2015-07-13T20:51:36.794Z</time>
      </trkpt>
      <trkpt lat="48.85249" lon="2.34366">
        <ele>113.1</ele>
        <time>2015-07-13T20:51:37.802Z</time>
      </trkpt>
      <trkpt lat="48.85255" lon="2.34369">
        <ele>113</ele>
        <time>2015-07-13T20:51:38.818Z</time>
      </trkpt>
      <trkpt lat="48.85262" lon="2.34371">
        <ele>112.5</ele>
        <time>2015-07-13T20:51:39.735Z</time>
      </trkpt>
      <trkpt lat="48.85268" lon="2.34374">
        <ele>111.7</ele>
        <time>2015-07-13T20:51:40.741Z</time>
      </trkpt>
      <trkpt lat="48.85275" lon="2.34376">
        <ele>111</ele>
        <time>2015-07-13T20:51:41.785Z</time>
      </trkpt>
      <trkpt lat="48.85282" lon="2.3438">
        <ele>111.1</ele>
        <time>2015-07-13T20:51:42.798Z</time>
      </trkpt>
      <trkpt lat="48.85288" lon="2.34383">
        <ele>111.4</ele>
        <time>2015-07-13T20:51:43.806Z</time>
      </trkpt>
      <trkpt lat="48.85294" lon="2.34387">
        <ele>111.7</ele>
        <time>2015-07-13T20:51:44.813Z</time>
      </trkpt>
      <trkpt lat="48.85302" lon="2.34391">
        <ele>111.4</ele>
        <time>2015-07-13T20:51:45.741Z</time>
      </trkpt>
      <trkpt lat="48.85311" lon="2.34391">
        <ele>110.7</ele>
        <time>2015-07-13T20:51:46.741Z</time>
      </trkpt>
      <trkpt lat="48.8532" lon="2.34391">
        <ele>109.3</ele>
        <time>2015-07-13T20:51:47.784Z</time>
      </trkpt>
      <trkpt lat="48.85326" lon="2.34389">
        <ele>108.8</ele>
        <time>2015-07-13T20:51:48.779Z</time>
      </trkpt>
      <trkpt lat="48.85336" lon="2.34394">
        <ele>107</ele>
        <time>2015-07-13T20:51:49.801Z</time>
      </trkpt>
      <trkpt lat="48.85344" lon="2.34398">
        <ele>106.1</ele>
        <time>2015-07-13T20:51:50.809Z</time>
      </trkpt>
      <trkpt lat="48.85351" lon="2.34403">
        <ele>105.7</ele>
        <time>2015-07-13T20:51:51.819Z</time>
      </trkpt>
      <trkpt lat="48.85358" lon="2.34408">
        <ele>105.4</ele>
        <time>2015-07-13T20:51:52.743Z</time>
      </trkpt>
      <trkpt lat="48.85364" lon="2.34413">
        <ele>105.2</ele>
        <time>2015-07-13T20:51:53.774Z</time>
      </trkpt>
      <trkpt lat="48.85369" lon="2.34418">
        <ele>105</ele>
        <time>2015-07-13T20:51:54.779Z</time>
      </trkpt>
      <trkpt lat="48.85374" lon="2.34423">
        <ele>105.1</ele>
        <time>2015-07-13T20:51:55.786Z</time>
      </trkpt>
      <trkpt lat="48.85379" lon="2.34428">
        <ele>104.5</ele>
        <time>2015-07-13T20:51:56.711Z</time>
      </trkpt>
      <trkpt lat="48.85384" lon="2.34433">
        <ele>104.1</ele>
        <time>2015-07-13T20:51:57.746Z</time>
      </trkpt>
      <trkpt lat="48.8539" lon="2.34438">
        <ele>103.4</ele>
        <time>2015-07-13T20:51:58.749Z</time>
      </trkpt>
      <trkpt lat="48.85394" lon="2.34442">
        <ele>100.9</ele>
        <time>2015-07-13T20:51:59.838Z</time>
      </trkpt>
      <trkpt lat="48.854" lon="2.34446">
        <ele>100.8</ele>
        <time>2015-07-13T20:52:00.744Z</time>
      </trkpt>
      <trkpt lat="48.85405" lon="2.34451">
        <ele>100.8</ele>
        <time>2015-07-13T20:52:01.837Z</time>
      </trkpt>
      <trkpt lat="48.8541" lon="2.34457">
        <ele>100.7</ele>
        <time>2015-07-13T20:52:02.777Z</time>
      </trkpt>
      <trkpt lat="48.85416" lon="2.34463">
        <ele>100.8</ele>
        <time>2015-07-13T20:52:03.793Z</time>
      </trkpt>
      <trkpt lat="48.85421" lon="2.34468">
        <ele>101.1</ele>
        <time>2015-07-13T20:52:04.796Z</time>
      </trkpt>
      <trkpt lat="48.85426" lon="2.34474">
        <ele>101.4</ele>
        <time>2015-07-13T20:52:05.805Z</time>
      </trkpt>
      <trkpt lat="48.85432" lon="2.34479">
        <ele>102</ele>
        <time>2015-07-13T20:52:06.813Z</time>
      </trkpt>
      <trkpt lat="48.85438" lon="2.34483">
        <ele>103.2</ele>
        <time>2015-07-13T20:52:07.825Z</time>
      </trkpt>
      <trkpt lat="48.85444" lon="2.34488">
        <ele>103.9</ele>
        <time>2015-07-13T20:52:08.743Z</time>
      </trkpt>
      <trkpt lat="48.8545" lon="2.34491">
        <ele>104.5</ele>
        <time>2015-07-13T20:52:09.749Z</time>
      </trkpt>
      <trkpt lat="48.85454" lon="2.34496">
        <ele>104.4</ele>
        <time>2015-07-13T20:52:10.766Z</time>
      </trkpt>
      <trkpt lat="48.85457" lon="2.34501">
        <ele>104.1</ele>
        <time>2015-07-13T20:52:11.804Z</time>
      </trkpt>
      <trkpt lat="48.85461" lon="2.34508">
        <ele>103.8</ele>
        <time>2015-07-13T20:52:12.817Z</time>
      </trkpt>
      <trkpt lat="48.85465" lon="2.34516">
        <ele>103.6</ele>
        <time>2015-07-13T20:52:13.838Z</time>
      </trkpt>
      <trkpt lat="48.85469" lon="2.34525">
        <ele>103.7</ele>
        <time>2015-07-13T20:52:14.719Z</time>
      </trkpt>
      <trkpt lat="48.85474" lon="2.34534">
        <ele>103.8</ele>
        <time>2015-07-13T20:52:15.749Z</time>
      </trkpt>
      <trkpt lat="48.85478" lon="2.34543">
        <ele>103.8</ele>
        <time>2015-07-13T20:52:16.756Z</time>
      </trkpt>
      <trkpt lat="48.85483" lon="2.34552">
        <ele>103.9</ele>
        <time>2015-07-13T20:52:17.767Z</time>
      </trkpt>
      <trkpt lat="48.85489" lon="2.34561">
        <ele>104.1</ele>
        <time>2015-07-13T20:52:18.777Z</time>
      </trkpt>
      <trkpt lat="48.85494" lon="2.3457">
        <ele>104.2</ele>
        <time>2015-07-13T20:52:19.783Z</time>
      </trkpt>
      <trkpt lat="48.85499" lon="2.34577">
        <ele>104.2</ele>
        <time>2015-07-13T20:52:20.791Z</time>
      </trkpt>
      <trkpt lat="48.85503" lon="2.34585">
        <ele>104.1</ele>
        <time>2015-07-13T20:52:21.797Z</time>
      </trkpt>
      <trkpt lat="48.85508" lon="2.34592">
        <ele>104.2</ele>
        <time>2015-07-13T20:52:22.799Z</time>
      </trkpt>
      <trkpt lat="48.85512" lon="2.346">
        <ele>104.3</ele>
        <time>2015-07-13T20:52:23.805Z</time>
      </trkpt>
      <trkpt lat="48.85515" lon="2.34608">
        <ele>104.3</ele>
        <time>2015-07-13T20:52:24.718Z</time>
      </trkpt>
      <trkpt lat="48.85526" lon="2.34609">
        <ele>103.6</ele>
        <time>2015-07-13T20:52:25.741Z</time>
      </trkpt>
      <trkpt lat="48.85537" lon="2.34608">
        <ele>102.7</ele>
        <time>2015-07-13T20:52:26.753Z</time>
      </trkpt>
      <trkpt lat="48.85546" lon="2.34608">
        <ele>101.6</ele>
        <time>2015-07-13T20:52:27.764Z</time>
      </trkpt>
      <trkpt lat="48.85554" lon="2.34609">
        <ele>100.6</ele>
        <time>2015-07-13T20:52:28.763Z</time>
      </trkpt>
      <trkpt lat="48.85558" lon="2.34611">
        <ele>100.6</ele>
        <time>2015-07-13T20:52:29.804Z</time>
      </trkpt>
      <trkpt lat="48.85563" lon="2.34619">
        <ele>100.7</ele>
        <time>2015-07-13T20:52:31.827Z</time>
      </trkpt>
      <trkpt lat="48.85568" lon="2.34624">
        <ele>101.2</ele>
        <time>2015-07-13T20:52:32.765Z</time>
      </trkpt>
      <trkpt lat="48.85572" lon="2.34629">
        <ele>101.3</ele>
        <time>2015-07-13T20:52:33.739Z</time>
      </trkpt>
      <trkpt lat="48.85578" lon="2.34634">
        <ele>100.9</ele>
        <time>2015-07-13T20:52:34.745Z</time>
      </trkpt>
      <trkpt lat="48.85585" lon="2.34637">
        <ele>100.1</ele>
        <time>2015-07-13T20:52:35.782Z</time>
      </trkpt>
      <trkpt lat="48.85589" lon="2.34638">
        <ele>99.7</ele>
        <time>2015-07-13T20:52:36.769Z</time>
      </trkpt>
      <trkpt lat="48.85593" lon="2.34639">
        <ele>99.5</ele>
        <time>2015-07-13T20:52:37.771Z</time>
      </trkpt>
      <trkpt lat="48.85599" lon="2.34639">
        <ele>99.2</ele>
        <time>2015-07-13T20:52:38.783Z</time>
      </trkpt>
      <trkpt lat="48.85607" lon="2.3464">
        <ele>98.3</ele>
        <time>2015-07-13T20:52:39.808Z</time>
      </trkpt>
      <trkpt lat="48.85611" lon="2.34642">
        <ele>97.8</ele>
        <time>2015-07-13T20:52:40.816Z</time>
      </trkpt>
      <trkpt lat="48.85616" lon="2.34653">
        <ele>95.5</ele>
        <time>2015-07-13T20:52:42.706Z</time>
      </trkpt>
      <trkpt lat="48.8562" lon="2.34658">
        <ele>94.3</ele>
        <time>2015-07-13T20:52:43.770Z</time>
      </trkpt>
      <trkpt lat="48.85627" lon="2.34665">
        <ele>92.4</ele>
        <time>2015-07-13T20:52:45.738Z</time>
      </trkpt>
      <trkpt lat="48.85631" lon="2.34668">
        <ele>91.3</ele>
        <time>2015-07-13T20:52:46.814Z</time>
      </trkpt>
      <trkpt lat="48.85638" lon="2.34675">
        <ele>90.8</ele>
        <time>2015-07-13T20:52:48.856Z</time>
      </trkpt>
      <trkpt lat="48.85643" lon="2.34677">
        <ele>90.7</ele>
        <time>2015-07-13T20:52:49.838Z</time>
      </trkpt>
      <trkpt lat="48.85647" lon="2.34681">
        <ele>90.7</ele>
        <time>2015-07-13T20:52:50.738Z</time>
      </trkpt>
      <trkpt lat="48.85651" lon="2.34683">
        <ele>90.4</ele>
        <time>2015-07-13T20:52:51.735Z</time>
      </trkpt>
      <trkpt lat="48.85659" lon="2.34688">
        <ele>90.2</ele>
        <time>2015-07-13T20:52:53.845Z</time>
      </trkpt>
      <trkpt lat="48.85663" lon="2.34689">
        <ele>90</ele>
        <time>2015-07-13T20:52:54.774Z</time>
      </trkpt>
      <trkpt lat="48.8567" lon="2.34693">
        <ele>90</ele>
        <time>2015-07-13T20:52:56.822Z</time>
      </trkpt>
      <trkpt lat="48.85673" lon="2.34695">
        <ele>89.9</ele>
        <time>2015-07-13T20:52:57.852Z</time>
      </trkpt>
      <trkpt lat="48.85679" lon="2.34699">
        <ele>89.8</ele>
        <time>2015-07-13T20:52:59.819Z</time>
      </trkpt>
      <trkpt lat="48.85682" lon="2.34701">
        <ele>89.6</ele>
        <time>2015-07-13T20:53:00.849Z</time>
      </trkpt>
      <trkpt lat="48.85688" lon="2.34705">
        <ele>89.5</ele>
        <time>2015-07-13T20:53:02.785Z</time>
      </trkpt>
      <trkpt lat="48.85691" lon="2.34707">
        <ele>89.6</ele>
        <time>2015-07-13T20:53:03.756Z</time>
      </trkpt>
      <trkpt lat="48.85698" lon="2.3471">
        <ele>90.1</ele>
        <time>2015-07-13T20:53:05.824Z</time>
      </trkpt>
      <trkpt lat="48.85701" lon="2.34713">
        <ele>90.7</ele>
        <time>2015-07-13T20:53:06.785Z</time>
      </trkpt>
      <trkpt lat="48.85706" lon="2.34719">
        <ele>91.4</ele>
        <time>2015-07-13T20:53:08.826Z</time>
      </trkpt>
      <trkpt lat="48.85708" lon="2.34721">
        <ele>91.5</ele>
        <time>2015-07-13T20:53:09.783Z</time>
      </trkpt>
      <trkpt lat="48.85714" lon="2.34728">
        <ele>91.9</ele>
        <time>2015-07-13T20:53:20.847Z</time>
      </trkpt>
      <trkpt lat="48.85716" lon="2.34731">
        <ele>90.5</ele>
        <time>2015-07-13T20:53:21.755Z</time>
      </trkpt>
      <trkpt lat="48.8572" lon="2.34738">
        <ele>90.4</ele>
        <time>2015-07-13T20:53:24.782Z</time>
      </trkpt>
      <trkpt lat="48.85722" lon="2.34741">
        <ele>90</ele>
        <time>2015-07-13T20:53:25.800Z</time>
      </trkpt>
      <trkpt lat="48.8573" lon="2.34747">
        <ele>89.8</ele>
        <time>2015-07-13T20:53:27.730Z</time>
      </trkpt>
      <trkpt lat="48.85735" lon="2.34751">
        <ele>89.4</ele>
        <time>2015-07-13T20:53:28.795Z</time>
      </trkpt>
      <trkpt lat="48.85739" lon="2.34754">
        <ele>89.3</ele>
        <time>2015-07-13T20:53:29.861Z</time>
      </trkpt>
      <trkpt lat="48.85744" lon="2.34757">
        <ele>89.2</ele>
        <time>2015-07-13T20:53:30.741Z</time>
      </trkpt>
      <trkpt lat="48.85749" lon="2.3476">
        <ele>89.2</ele>
        <time>2015-07-13T20:53:31.772Z</time>
      </trkpt>
      <trkpt lat="48.85754" lon="2.34762">
        <ele>89.2</ele>
        <time>2015-07-13T20:53:32.779Z</time>
      </trkpt>
      <trkpt lat="48.85759" lon="2.34765">
        <ele>89</ele>
        <time>2015-07-13T20:53:33.794Z</time>
      </trkpt>
      <trkpt lat="48.85763" lon="2.34766">
        <ele>89.2</ele>
        <time>2015-07-13T20:53:34.736Z</time>
      </trkpt>
      <trkpt lat="48.85767" lon="2.34766">
        <ele>89.2</ele>
        <time>2015-07-13T20:53:35.772Z</time>
      </trkpt>
      <trkpt lat="48.85772" lon="2.34763">
        <ele>88.9</ele>
        <time>2015-07-13T20:53:36.722Z</time>
      </trkpt>
      <trkpt lat="48.85777" lon="2.34759">
        <ele>88.9</ele>
        <time>2015-07-13T20:53:37.729Z</time>
      </trkpt>
      <trkpt lat="48.8578" lon="2.34754">
        <ele>88.7</ele>
        <time>2015-07-13T20:53:38.738Z</time>
      </trkpt>
      <trkpt lat="48.85784" lon="2.34749">
        <ele>88.7</ele>
        <time>2015-07-13T20:53:39.751Z</time>
      </trkpt>
      <trkpt lat="48.85787" lon="2.34741">
        <ele>89.1</ele>
        <time>2015-07-13T20:53:40.775Z</time>
      </trkpt>
      <trkpt lat="48.8579" lon="2.34735">
        <ele>89.4</ele>
        <time>2015-07-13T20:53:41.794Z</time>
      </trkpt>
      <trkpt lat="48.85793" lon="2.3473">
        <ele>89.9</ele>
        <time>2015-07-13T20:53:42.797Z</time>
      </trkpt>
      <trkpt lat="48.85797" lon="2.34728">
        <ele>90.4</ele>
        <time>2015-07-13T20:53:43.821Z</time>
      </trkpt>
      <trkpt lat="48.85802" lon="2.34729">
        <ele>91</ele>
        <time>2015-07-13T20:53:44.825Z</time>
      </trkpt>
      <trkpt lat="48.85807" lon="2.34732">
        <ele>91.7</ele>
        <time>2015-07-13T20:53:45.993Z</time>
      </trkpt>
      <trkpt lat="48.85811" lon="2.34735">
        <ele>92.3</ele>
        <time>2015-07-13T20:53:46.809Z</time>
      </trkpt>
      <trkpt lat="48.85814" lon="2.34737">
        <ele>92.8</ele>
        <time>2015-07-13T20:53:47.823Z</time>
      </trkpt>
      <trkpt lat="48.85821" lon="2.34736">
        <ele>92.9</ele>
        <time>2015-07-13T20:53:48.821Z</time>
      </trkpt>
      <trkpt lat="48.85826" lon="2.34739">
        <ele>93.3</ele>
        <time>2015-07-13T20:53:49.829Z</time>
      </trkpt>
      <trkpt lat="48.8583" lon="2.34742">
        <ele>93.7</ele>
        <time>2015-07-13T20:53:50.846Z</time>
      </trkpt>
      <trkpt lat="48.85837" lon="2.34749">
        <ele>94.8</ele>
        <time>2015-07-13T20:53:52.804Z</time>
      </trkpt>
      <trkpt lat="48.85841" lon="2.34751">
        <ele>95.2</ele>
        <time>2015-07-13T20:53:53.826Z</time>
      </trkpt>
      <trkpt lat="48.85849" lon="2.34754">
        <ele>95.9</ele>
        <time>2015-07-13T20:53:55.741Z</time>
      </trkpt>
      <trkpt lat="48.85855" lon="2.3475">
        <ele>95.6</ele>
        <time>2015-07-13T20:53:56.742Z</time>
      </trkpt>
      <trkpt lat="48.85862" lon="2.34745">
        <ele>97.3</ele>
        <time>2015-07-13T20:54:21.803Z</time>
      </trkpt>
      <trkpt lat="48.85876" lon="2.34744">
        <ele>102.8</ele>
        <time>2015-07-13T20:54:22.752Z</time>
      </trkpt>
      <trkpt lat="48.85885" lon="2.34744">
        <ele>104</ele>
        <time>2015-07-13T20:54:25.809Z</time>
      </trkpt>
      <trkpt lat="48.85888" lon="2.34743">
        <ele>104.4</ele>
        <time>2015-07-13T20:54:26.771Z</time>
      </trkpt>
      <trkpt lat="48.85894" lon="2.34742">
        <ele>105</ele>
        <time>2015-07-13T20:54:28.758Z</time>
      </trkpt>
      <trkpt lat="48.85898" lon="2.34742">
        <ele>105.2</ele>
        <time>2015-07-13T20:54:29.878Z</time>
      </trkpt>
      <trkpt lat="48.85903" lon="2.34741">
        <ele>105.5</ele>
        <time>2015-07-13T20:54:30.752Z</time>
      </trkpt>
      <trkpt lat="48.85908" lon="2.34739">
        <ele>105.4</ele>
        <time>2015-07-13T20:54:31.749Z</time>
      </trkpt>
      <trkpt lat="48.85915" lon="2.34736">
        <ele>104.9</ele>
        <time>2015-07-13T20:54:33.785Z</time>
      </trkpt>
      <trkpt lat="48.85919" lon="2.34734">
        <ele>104.6</ele>
        <time>2015-07-13T20:54:34.724Z</time>
      </trkpt>
      <trkpt lat="48.85924" lon="2.34728">
        <ele>104</ele>
        <time>2015-07-13T20:54:36.815Z</time>
      </trkpt>
      <trkpt lat="48.85927" lon="2.34725">
        <ele>103.8</ele>
        <time>2015-07-13T20:54:37.847Z</time>
      </trkpt>
      <trkpt lat="48.85934" lon="2.3472">
        <ele>103.6</ele>
        <time>2015-07-13T20:54:39.788Z</time>
      </trkpt>
      <trkpt lat="48.85938" lon="2.34718">
        <ele>103.6</ele>
        <time>2015-07-13T20:54:40.800Z</time>
      </trkpt>
      <trkpt lat="48.85944" lon="2.34715">
        <ele>103.8</ele>
        <time>2015-07-13T20:54:42.734Z</time>
      </trkpt>
      <trkpt lat="48.85947" lon="2.34714">
        <ele>104.1</ele>
        <time>2015-07-13T20:54:43.723Z</time>
      </trkpt>
      <trkpt lat="48.85955" lon="2.3471">
        <ele>105</ele>
        <time>2015-07-13T20:54:47.864Z</time>
      </trkpt>
      <trkpt lat="48.85956" lon="2.34711">
        <ele>105.1</ele>
        <time>2015-07-13T20:54:48.780Z</time>
      </trkpt>
      <trkpt lat="48.85959" lon="2.34719">
        <ele>106.5</ele>
        <time>2015-07-13T20:56:06.038Z</time>
      </trkpt>
    </trkseg>
  </trk>
  <trk>
    <name><![CDATA[2 Place du Châtelet]]></name>
    <extensions>
      <line xmlns="http://www.topografix.com/GPX/gpx_style/0/2">
        <color>000000</color>
      </line>
    </extensions>
    <trkseg>
      <trkpt lat="48.85742" lon="2.34752">
        <ele>91.2</ele>
        <time>2015-07-20T18:18:33.502Z</time>
      </trkpt>
      <trkpt lat="48.85742" lon="2.34752">
        <ele>91.2</ele>
        <time>2015-07-20T18:19:15.641Z</time>
      </trkpt>
      <trkpt lat="48.85746" lon="2.34733">
        <ele>91.1</ele>
        <time>2015-07-20T18:19:16.574Z</time>
      </trkpt>
      <trkpt lat="48.85746" lon="2.34733">
        <ele>91.3</ele>
        <time>2015-07-20T18:19:17.595Z</time>
      </trkpt>
      <trkpt lat="48.85745" lon="2.34734">
        <ele>91.5</ele>
        <time>2015-07-20T18:19:19.563Z</time>
      </trkpt>
      <trkpt lat="48.85745" lon="2.34735">
        <ele>91.5</ele>
        <time>2015-07-20T18:19:20.565Z</time>
      </trkpt>
      <trkpt lat="48.85745" lon="2.34737">
        <ele>91.5</ele>
        <time>2015-07-20T18:19:23.546Z</time>
      </trkpt>
      <trkpt lat="48.85745" lon="2.34737">
        <ele>91.7</ele>
        <time>2015-07-20T18:19:24.751Z</time>
      </trkpt>
      <trkpt lat="48.85744" lon="2.34737">
        <ele>91.6</ele>
        <time>2015-07-20T18:19:49.581Z</time>
      </trkpt>
      <trkpt lat="48.85746" lon="2.34743">
        <ele>91.1</ele>
        <time>2015-07-20T18:19:50.555Z</time>
      </trkpt>
      <trkpt lat="48.85745" lon="2.34743">
        <ele>90.8</ele>
        <time>2015-07-20T18:19:51.567Z</time>
      </trkpt>
      <trkpt lat="48.85744" lon="2.34743">
        <ele>90.7</ele>
        <time>2015-07-20T18:20:00.615Z</time>
      </trkpt>
      <trkpt lat="48.85742" lon="2.34745">
        <ele>91</ele>
        <time>2015-07-20T18:20:01.534Z</time>
      </trkpt>
      <trkpt lat="48.85741" lon="2.34746">
        <ele>91.3</ele>
        <time>2015-07-20T18:20:05.588Z</time>
      </trkpt>
      <trkpt lat="48.8574" lon="2.34746">
        <ele>91</ele>
        <time>2015-07-20T18:20:06.598Z</time>
      </trkpt>
      <trkpt lat="48.8574" lon="2.34746">
        <ele>90.8</ele>
        <time>2015-07-20T18:20:30.622Z</time>
      </trkpt>
      <trkpt lat="48.85739" lon="2.34744">
        <ele>89.8</ele>
        <time>2015-07-20T18:20:31.617Z</time>
      </trkpt>
      <trkpt lat="48.8574" lon="2.34732">
        <ele>90.4</ele>
        <time>2015-07-20T18:20:35.611Z</time>
      </trkpt>
      <trkpt lat="48.85739" lon="2.34729">
        <ele>90.5</ele>
        <time>2015-07-20T18:20:36.675Z</time>
      </trkpt>
      <trkpt lat="48.85738" lon="2.34717">
        <ele>91.1</ele>
        <time>2015-07-20T18:20:40.575Z</time>
      </trkpt>
      <trkpt lat="48.85738" lon="2.34714">
        <ele>91.4</ele>
        <time>2015-07-20T18:20:41.586Z</time>
      </trkpt>
      <trkpt lat="48.85732" lon="2.34708">
        <ele>91.4</ele>
        <time>2015-07-20T18:20:44.599Z</time>
      </trkpt>
      <trkpt lat="48.85729" lon="2.34706">
        <ele>91.5</ele>
        <time>2015-07-20T18:20:45.636Z</time>
      </trkpt>
      <trkpt lat="48.85723" lon="2.34703">
        <ele>91.8</ele>
        <time>2015-07-20T18:20:47.542Z</time>
      </trkpt>
      <trkpt lat="48.85719" lon="2.34702">
        <ele>92.1</ele>
        <time>2015-07-20T18:20:48.621Z</time>
      </trkpt>
      <trkpt lat="48.85713" lon="2.347">
        <ele>92.3</ele>
        <time>2015-07-20T18:20:50.579Z</time>
      </trkpt>
      <trkpt lat="48.8571" lon="2.34698">
        <ele>92.5</ele>
        <time>2015-07-20T18:20:51.605Z</time>
      </trkpt>
      <trkpt lat="48.85701" lon="2.34693">
        <ele>92.5</ele>
        <time>2015-07-20T18:20:54.631Z</time>
      </trkpt>
      <trkpt lat="48.85698" lon="2.34691">
        <ele>92.4</ele>
        <time>2015-07-20T18:20:55.515Z</time>
      </trkpt>
      <trkpt lat="48.8569" lon="2.34686">
        <ele>92.2</ele>
        <time>2015-07-20T18:20:58.658Z</time>
      </trkpt>
      <trkpt lat="48.85687" lon="2.34684">
        <ele>92.1</ele>
        <time>2015-07-20T18:20:59.910Z</time>
      </trkpt>
      <trkpt lat="48.8568" lon="2.34678">
        <ele>91.3</ele>
        <time>2015-07-20T18:21:02.528Z</time>
      </trkpt>
      <trkpt lat="48.85677" lon="2.34677">
        <ele>91.1</ele>
        <time>2015-07-20T18:21:03.541Z</time>
      </trkpt>
      <trkpt lat="48.85669" lon="2.34671">
        <ele>90.9</ele>
        <time>2015-07-20T18:21:06.608Z</time>
      </trkpt>
      <trkpt lat="48.85666" lon="2.34669">
        <ele>90.9</ele>
        <time>2015-07-20T18:21:07.539Z</time>
      </trkpt>
      <trkpt lat="48.85661" lon="2.34666">
        <ele>90.9</ele>
        <time>2015-07-20T18:21:09.560Z</time>
      </trkpt>
      <trkpt lat="48.85658" lon="2.34664">
        <ele>90.8</ele>
        <time>2015-07-20T18:21:10.527Z</time>
      </trkpt>
      <trkpt lat="48.85652" lon="2.34659">
        <ele>90.8</ele>
        <time>2015-07-20T18:21:12.587Z</time>
      </trkpt>
      <trkpt lat="48.85649" lon="2.34657">
        <ele>90.8</ele>
        <time>2015-07-20T18:21:13.593Z</time>
      </trkpt>
      <trkpt lat="48.85641" lon="2.34651">
        <ele>91.2</ele>
        <time>2015-07-20T18:21:16.565Z</time>
      </trkpt>
      <trkpt lat="48.85639" lon="2.34649">
        <ele>91.3</ele>
        <time>2015-07-20T18:21:17.519Z</time>
      </trkpt>
      <trkpt lat="48.85632" lon="2.34642">
        <ele>90.5</ele>
        <time>2015-07-20T18:21:22.579Z</time>
      </trkpt>
      <trkpt lat="48.85631" lon="2.34641">
        <ele>90</ele>
        <time>2015-07-20T18:21:23.591Z</time>
      </trkpt>
      <trkpt lat="48.85627" lon="2.34642">
        <ele>87.5</ele>
        <time>2015-07-20T18:21:29.601Z</time>
      </trkpt>
      <trkpt lat="48.85626" lon="2.34642">
        <ele>87.3</ele>
        <time>2015-07-20T18:21:30.614Z</time>
      </trkpt>
      <trkpt lat="48.85626" lon="2.34642">
        <ele>86.9</ele>
        <time>2015-07-20T18:21:40.555Z</time>
      </trkpt>
      <trkpt lat="48.85626" lon="2.34643">
        <ele>86.1</ele>
        <time>2015-07-20T18:21:41.565Z</time>
      </trkpt>
      <trkpt lat="48.85618" lon="2.34639">
        <ele>86.3</ele>
        <time>2015-07-20T18:21:46.521Z</time>
      </trkpt>
      <trkpt lat="48.85614" lon="2.34637">
        <ele>86.4</ele>
        <time>2015-07-20T18:21:47.532Z</time>
      </trkpt>
      <trkpt lat="48.85608" lon="2.34632">
        <ele>86.5</ele>
        <time>2015-07-20T18:21:49.583Z</time>
      </trkpt>
      <trkpt lat="48.85604" lon="2.34629">
        <ele>86.6</ele>
        <time>2015-07-20T18:21:50.599Z</time>
      </trkpt>
      <trkpt lat="48.85597" lon="2.34624">
        <ele>86.7</ele>
        <time>2015-07-20T18:21:52.544Z</time>
      </trkpt>
      <trkpt lat="48.85593" lon="2.34622">
        <ele>86.7</ele>
        <time>2015-07-20T18:21:53.573Z</time>
      </trkpt>
      <trkpt lat="48.85585" lon="2.34618">
        <ele>86.9</ele>
        <time>2015-07-20T18:21:55.590Z</time>
      </trkpt>
      <trkpt lat="48.8558" lon="2.34617">
        <ele>86.8</ele>
        <time>2015-07-20T18:21:56.601Z</time>
      </trkpt>
      <trkpt lat="48.85575" lon="2.34615">
        <ele>86.6</ele>
        <time>2015-07-20T18:21:57.630Z</time>
      </trkpt>
      <trkpt lat="48.8557" lon="2.34613">
        <ele>86.5</ele>
        <time>2015-07-20T18:21:58.543Z</time>
      </trkpt>
      <trkpt lat="48.85565" lon="2.34611">
        <ele>86.3</ele>
        <time>2015-07-20T18:21:59.516Z</time>
      </trkpt>
      <trkpt lat="48.85558" lon="2.34608">
        <ele>86</ele>
        <time>2015-07-20T18:22:00.596Z</time>
      </trkpt>
      <trkpt lat="48.85553" lon="2.34605">
        <ele>86.1</ele>
        <time>2015-07-20T18:22:01.534Z</time>
      </trkpt>
      <trkpt lat="48.85548" lon="2.34601">
        <ele>86.2</ele>
        <time>2015-07-20T18:22:02.567Z</time>
      </trkpt>
      <trkpt lat="48.85543" lon="2.34598">
        <ele>86.2</ele>
        <time>2015-07-20T18:22:03.579Z</time>
      </trkpt>
      <trkpt lat="48.85539" lon="2.34594">
        <ele>86.2</ele>
        <time>2015-07-20T18:22:04.585Z</time>
      </trkpt>
      <trkpt lat="48.85534" lon="2.34589">
        <ele>86.8</ele>
        <time>2015-07-20T18:22:05.538Z</time>
      </trkpt>
      <trkpt lat="48.8553" lon="2.34585">
        <ele>87.1</ele>
        <time>2015-07-20T18:22:06.582Z</time>
      </trkpt>
      <trkpt lat="48.85526" lon="2.34582">
        <ele>87.4</ele>
        <time>2015-07-20T18:22:07.591Z</time>
      </trkpt>
      <trkpt lat="48.85521" lon="2.3458">
        <ele>87.7</ele>
        <time>2015-07-20T18:22:08.613Z</time>
      </trkpt>
      <trkpt lat="48.85517" lon="2.34577">
        <ele>87.9</ele>
        <time>2015-07-20T18:22:09.534Z</time>
      </trkpt>
      <trkpt lat="48.85512" lon="2.34574">
        <ele>88.3</ele>
        <time>2015-07-20T18:22:10.540Z</time>
      </trkpt>
      <trkpt lat="48.85507" lon="2.34571">
        <ele>88.5</ele>
        <time>2015-07-20T18:22:11.572Z</time>
      </trkpt>
      <trkpt lat="48.85502" lon="2.34568">
        <ele>88.7</ele>
        <time>2015-07-20T18:22:12.666Z</time>
      </trkpt>
      <trkpt lat="48.85497" lon="2.34565">
        <ele>88.6</ele>
        <time>2015-07-20T18:22:13.536Z</time>
      </trkpt>
      <trkpt lat="48.85493" lon="2.34562">
        <ele>88.6</ele>
        <time>2015-07-20T18:22:14.543Z</time>
      </trkpt>
      <trkpt lat="48.85488" lon="2.34559">
        <ele>88.6</ele>
        <time>2015-07-20T18:22:15.580Z</time>
      </trkpt>
      <trkpt lat="48.85484" lon="2.34555">
        <ele>88.8</ele>
        <time>2015-07-20T18:22:16.581Z</time>
      </trkpt>
      <trkpt lat="48.85479" lon="2.34552">
        <ele>88.9</ele>
        <time>2015-07-20T18:22:17.583Z</time>
      </trkpt>
      <trkpt lat="48.85475" lon="2.3455">
        <ele>88.8</ele>
        <time>2015-07-20T18:22:18.590Z</time>
      </trkpt>
      <trkpt lat="48.8547" lon="2.34547">
        <ele>88.8</ele>
        <time>2015-07-20T18:22:19.596Z</time>
      </trkpt>
      <trkpt lat="48.85466" lon="2.34546">
        <ele>88.8</ele>
        <time>2015-07-20T18:22:20.604Z</time>
      </trkpt>
      <trkpt lat="48.85458" lon="2.34542">
        <ele>88.8</ele>
        <time>2015-07-20T18:22:22.525Z</time>
      </trkpt>
      <trkpt lat="48.85455" lon="2.3454">
        <ele>89</ele>
        <time>2015-07-20T18:22:23.556Z</time>
      </trkpt>
      <trkpt lat="48.85449" lon="2.34535">
        <ele>89.2</ele>
        <time>2015-07-20T18:22:25.529Z</time>
      </trkpt>
      <trkpt lat="48.85447" lon="2.34531">
        <ele>89.3</ele>
        <time>2015-07-20T18:22:26.571Z</time>
      </trkpt>
      <trkpt lat="48.85441" lon="2.34524">
        <ele>89.2</ele>
        <time>2015-07-20T18:22:29.615Z</time>
      </trkpt>
      <trkpt lat="48.85438" lon="2.34522">
        <ele>89.2</ele>
        <time>2015-07-20T18:22:30.645Z</time>
      </trkpt>
      <trkpt lat="48.85436" lon="2.34514">
        <ele>89.8</ele>
        <time>2015-07-20T18:22:32.533Z</time>
      </trkpt>
      <trkpt lat="48.85435" lon="2.34509">
        <ele>90.2</ele>
        <time>2015-07-20T18:22:33.590Z</time>
      </trkpt>
      <trkpt lat="48.85431" lon="2.34502">
        <ele>90.7</ele>
        <time>2015-07-20T18:22:35.546Z</time>
      </trkpt>
      <trkpt lat="48.85429" lon="2.34498">
        <ele>90.8</ele>
        <time>2015-07-20T18:22:36.560Z</time>
      </trkpt>
      <trkpt lat="48.85423" lon="2.34489">
        <ele>90.9</ele>
        <time>2015-07-20T18:22:38.565Z</time>
      </trkpt>
      <trkpt lat="48.8542" lon="2.34484">
        <ele>90.7</ele>
        <time>2015-07-20T18:22:39.568Z</time>
      </trkpt>
      <trkpt lat="48.85414" lon="2.34476">
        <ele>90.4</ele>
        <time>2015-07-20T18:22:41.610Z</time>
      </trkpt>
      <trkpt lat="48.85411" lon="2.34473">
        <ele>90.4</ele>
        <time>2015-07-20T18:22:42.620Z</time>
      </trkpt>
      <trkpt lat="48.85406" lon="2.34467">
        <ele>90</ele>
        <time>2015-07-20T18:22:44.554Z</time>
      </trkpt>
      <trkpt lat="48.85404" lon="2.34464">
        <ele>89.8</ele>
        <time>2015-07-20T18:22:45.559Z</time>
      </trkpt>
      <trkpt lat="48.85397" lon="2.34456">
        <ele>89.4</ele>
        <time>2015-07-20T18:22:49.545Z</time>
      </trkpt>
      <trkpt lat="48.85395" lon="2.34453">
        <ele>89.5</ele>
        <time>2015-07-20T18:22:50.537Z</time>
      </trkpt>
      <trkpt lat="48.85389" lon="2.34445">
        <ele>89.4</ele>
        <time>2015-07-20T18:22:54.673Z</time>
      </trkpt>
      <trkpt lat="48.85388" lon="2.34442">
        <ele>89.1</ele>
        <time>2015-07-20T18:22:55.687Z</time>
      </trkpt>
      <trkpt lat="48.85383" lon="2.34441">
        <ele>88.8</ele>
        <time>2015-07-20T18:22:59.628Z</time>
      </trkpt>
      <trkpt lat="48.85382" lon="2.34441">
        <ele>88.6</ele>
        <time>2015-07-20T18:23:00.627Z</time>
      </trkpt>
      <trkpt lat="48.85381" lon="2.34442">
        <ele>88.8</ele>
        <time>2015-07-20T18:23:01.786Z</time>
      </trkpt>
      <trkpt lat="48.85376" lon="2.34433">
        <ele>88.6</ele>
        <time>2015-07-20T18:23:05.590Z</time>
      </trkpt>
      <trkpt lat="48.85373" lon="2.34429">
        <ele>88.7</ele>
        <time>2015-07-20T18:23:06.605Z</time>
      </trkpt>
      <trkpt lat="48.85368" lon="2.34423">
        <ele>88.9</ele>
        <time>2015-07-20T18:23:08.529Z</time>
      </trkpt>
      <trkpt lat="48.85364" lon="2.34421">
        <ele>88.7</ele>
        <time>2015-07-20T18:23:09.557Z</time>
      </trkpt>
      <trkpt lat="48.85357" lon="2.34418">
        <ele>88.7</ele>
        <time>2015-07-20T18:23:11.593Z</time>
      </trkpt>
      <trkpt lat="48.85353" lon="2.34416">
        <ele>88.9</ele>
        <time>2015-07-20T18:23:12.663Z</time>
      </trkpt>
      <trkpt lat="48.85345" lon="2.34415">
        <ele>89.7</ele>
        <time>2015-07-20T18:23:14.537Z</time>
      </trkpt>
      <trkpt lat="48.85341" lon="2.34414">
        <ele>90.1</ele>
        <time>2015-07-20T18:23:15.569Z</time>
      </trkpt>
      <trkpt lat="48.85336" lon="2.34413">
        <ele>90.2</ele>
        <time>2015-07-20T18:23:16.577Z</time>
      </trkpt>
      <trkpt lat="48.85332" lon="2.34412">
        <ele>90.4</ele>
        <time>2015-07-20T18:23:17.578Z</time>
      </trkpt>
      <trkpt lat="48.85323" lon="2.34408">
        <ele>90.6</ele>
        <time>2015-07-20T18:23:19.617Z</time>
      </trkpt>
      <trkpt lat="48.8532" lon="2.34405">
        <ele>90.8</ele>
        <time>2015-07-20T18:23:20.510Z</time>
      </trkpt>
      <trkpt lat="48.85312" lon="2.34399">
        <ele>91.2</ele>
        <time>2015-07-20T18:23:21.699Z</time>
      </trkpt>
      <trkpt lat="48.85307" lon="2.34396">
        <ele>91.2</ele>
        <time>2015-07-20T18:23:23.562Z</time>
      </trkpt>
      <trkpt lat="48.85299" lon="2.34391">
        <ele>91.2</ele>
        <time>2015-07-20T18:23:26.115Z</time>
      </trkpt>
      <trkpt lat="48.85295" lon="2.34389">
        <ele>91.2</ele>
        <time>2015-07-20T18:23:26.510Z</time>
      </trkpt>
      <trkpt lat="48.8529" lon="2.34388">
        <ele>91.2</ele>
        <time>2015-07-20T18:23:27.553Z</time>
      </trkpt>
      <trkpt lat="48.85285" lon="2.34386">
        <ele>91.1</ele>
        <time>2015-07-20T18:23:28.566Z</time>
      </trkpt>
      <trkpt lat="48.85277" lon="2.34383">
        <ele>91.4</ele>
        <time>2015-07-20T18:23:30.624Z</time>
      </trkpt>
      <trkpt lat="48.85273" lon="2.34381">
        <ele>91.6</ele>
        <time>2015-07-20T18:23:31.563Z</time>
      </trkpt>
      <trkpt lat="48.85265" lon="2.34376">
        <ele>91.7</ele>
        <time>2015-07-20T18:23:33.597Z</time>
      </trkpt>
      <trkpt lat="48.85261" lon="2.34374">
        <ele>91.6</ele>
        <time>2015-07-20T18:23:34.579Z</time>
      </trkpt>
      <trkpt lat="48.85253" lon="2.34369">
        <ele>91.8</ele>
        <time>2015-07-20T18:23:36.645Z</time>
      </trkpt>
      <trkpt lat="48.85249" lon="2.34366">
        <ele>91.9</ele>
        <time>2015-07-20T18:23:37.547Z</time>
      </trkpt>
      <trkpt lat="48.85244" lon="2.34364">
        <ele>91.9</ele>
        <time>2015-07-20T18:23:38.617Z</time>
      </trkpt>
      <trkpt lat="48.8524" lon="2.34362">
        <ele>91.8</ele>
        <time>2015-07-20T18:23:39.524Z</time>
      </trkpt>
      <trkpt lat="48.85235" lon="2.3436">
        <ele>91.8</ele>
        <time>2015-07-20T18:23:40.532Z</time>
      </trkpt>
      <trkpt lat="48.85231" lon="2.34358">
        <ele>91.8</ele>
        <time>2015-07-20T18:23:41.545Z</time>
      </trkpt>
      <trkpt lat="48.85226" lon="2.34357">
        <ele>91.8</ele>
        <time>2015-07-20T18:23:42.577Z</time>
      </trkpt>
      <trkpt lat="48.85221" lon="2.34355">
        <ele>91.8</ele>
        <time>2015-07-20T18:23:43.571Z</time>
      </trkpt>
      <trkpt lat="48.85213" lon="2.3435">
        <ele>91.8</ele>
        <time>2015-07-20T18:23:45.597Z</time>
      </trkpt>
      <trkpt lat="48.8521" lon="2.34348">
        <ele>91.9</ele>
        <time>2015-07-20T18:23:46.601Z</time>
      </trkpt>
      <trkpt lat="48.85202" lon="2.34343">
        <ele>92</ele>
        <time>2015-07-20T18:23:48.566Z</time>
      </trkpt>
      <trkpt lat="48.85199" lon="2.34339">
        <ele>91.9</ele>
        <time>2015-07-20T18:23:49.571Z</time>
      </trkpt>
      <trkpt lat="48.85192" lon="2.34335">
        <ele>92.1</ele>
        <time>2015-07-20T18:23:51.540Z</time>
      </trkpt>
      <trkpt lat="48.85187" lon="2.34335">
        <ele>92.5</ele>
        <time>2015-07-20T18:23:52.574Z</time>
      </trkpt>
      <trkpt lat="48.8518" lon="2.34331">
        <ele>92.5</ele>
        <time>2015-07-20T18:23:54.607Z</time>
      </trkpt>
      <trkpt lat="48.85177" lon="2.34329">
        <ele>92.6</ele>
        <time>2015-07-20T18:23:55.537Z</time>
      </trkpt>
      <trkpt lat="48.8517" lon="2.34327">
        <ele>92.6</ele>
        <time>2015-07-20T18:23:57.697Z</time>
      </trkpt>
      <trkpt lat="48.85166" lon="2.34325">
        <ele>92.5</ele>
        <time>2015-07-20T18:23:58.575Z</time>
      </trkpt>
      <trkpt lat="48.85158" lon="2.3432">
        <ele>92.5</ele>
        <time>2015-07-20T18:24:01.662Z</time>
      </trkpt>
      <trkpt lat="48.85156" lon="2.34318">
        <ele>92.4</ele>
        <time>2015-07-20T18:24:02.565Z</time>
      </trkpt>
      <trkpt lat="48.85148" lon="2.34318">
        <ele>91.8</ele>
        <time>2015-07-20T18:24:06.579Z</time>
      </trkpt>
      <trkpt lat="48.85146" lon="2.34317">
        <ele>91.7</ele>
        <time>2015-07-20T18:24:07.581Z</time>
      </trkpt>
      <trkpt lat="48.8514" lon="2.34312">
        <ele>91.5</ele>
        <time>2015-07-20T18:24:12.672Z</time>
      </trkpt>
      <trkpt lat="48.85138" lon="2.34311">
        <ele>91.5</ele>
        <time>2015-07-20T18:24:13.559Z</time>
      </trkpt>
      <trkpt lat="48.8513" lon="2.34305">
        <ele>90.9</ele>
        <time>2015-07-20T18:24:17.557Z</time>
      </trkpt>
      <trkpt lat="48.85128" lon="2.34303">
        <ele>90.7</ele>
        <time>2015-07-20T18:24:18.556Z</time>
      </trkpt>
      <trkpt lat="48.85121" lon="2.34299">
        <ele>90.2</ele>
        <time>2015-07-20T18:24:21.524Z</time>
      </trkpt>
      <trkpt lat="48.85118" lon="2.34298">
        <ele>90</ele>
        <time>2015-07-20T18:24:22.516Z</time>
      </trkpt>
      <trkpt lat="48.8511" lon="2.34295">
        <ele>89.3</ele>
        <time>2015-07-20T18:24:25.840Z</time>
      </trkpt>
      <trkpt lat="48.85107" lon="2.34294">
        <ele>89.2</ele>
        <time>2015-07-20T18:24:26.525Z</time>
      </trkpt>
      <trkpt lat="48.85101" lon="2.34291">
        <ele>89</ele>
        <time>2015-07-20T18:24:28.583Z</time>
      </trkpt>
      <trkpt lat="48.85097" lon="2.3429">
        <ele>89</ele>
        <time>2015-07-20T18:24:29.516Z</time>
      </trkpt>
      <trkpt lat="48.85091" lon="2.34287">
        <ele>88.8</ele>
        <time>2015-07-20T18:24:31.550Z</time>
      </trkpt>
      <trkpt lat="48.85088" lon="2.34286">
        <ele>88.9</ele>
        <time>2015-07-20T18:24:32.557Z</time>
      </trkpt>
      <trkpt lat="48.8508" lon="2.34283">
        <ele>89.4</ele>
        <time>2015-07-20T18:24:34.584Z</time>
      </trkpt>
      <trkpt lat="48.85076" lon="2.34281">
        <ele>89.3</ele>
        <time>2015-07-20T18:24:35.593Z</time>
      </trkpt>
      <trkpt lat="48.8507" lon="2.34275">
        <ele>89.5</ele>
        <time>2015-07-20T18:24:37.619Z</time>
      </trkpt>
      <trkpt lat="48.85066" lon="2.34273">
        <ele>89.8</ele>
        <time>2015-07-20T18:24:38.636Z</time>
      </trkpt>
      <trkpt lat="48.85059" lon="2.34268">
        <ele>90.2</ele>
        <time>2015-07-20T18:24:40.570Z</time>
      </trkpt>
      <trkpt lat="48.85054" lon="2.34267">
        <ele>90.2</ele>
        <time>2015-07-20T18:24:41.577Z</time>
      </trkpt>
      <trkpt lat="48.85045" lon="2.34264">
        <ele>90.7</ele>
        <time>2015-07-20T18:24:43.573Z</time>
      </trkpt>
      <trkpt lat="48.85041" lon="2.34263">
        <ele>90.8</ele>
        <time>2015-07-20T18:24:44.580Z</time>
      </trkpt>
      <trkpt lat="48.85034" lon="2.34258">
        <ele>91.3</ele>
        <time>2015-07-20T18:24:46.520Z</time>
      </trkpt>
      <trkpt lat="48.85031" lon="2.34257">
        <ele>91.5</ele>
        <time>2015-07-20T18:24:47.626Z</time>
      </trkpt>
      <trkpt lat="48.85024" lon="2.34253">
        <ele>92.2</ele>
        <time>2015-07-20T18:24:49.594Z</time>
      </trkpt>
      <trkpt lat="48.8502" lon="2.3425">
        <ele>92.3</ele>
        <time>2015-07-20T18:24:50.609Z</time>
      </trkpt>
      <trkpt lat="48.85015" lon="2.34244">
        <ele>92.7</ele>
        <time>2015-07-20T18:24:52.869Z</time>
      </trkpt>
      <trkpt lat="48.85013" lon="2.34241">
        <ele>92.9</ele>
        <time>2015-07-20T18:24:53.537Z</time>
      </trkpt>
      <trkpt lat="48.85007" lon="2.34236">
        <ele>93.2</ele>
        <time>2015-07-20T18:24:55.570Z</time>
      </trkpt>
      <trkpt lat="48.85004" lon="2.34233">
        <ele>93.5</ele>
        <time>2015-07-20T18:24:56.572Z</time>
      </trkpt>
      <trkpt lat="48.84997" lon="2.34226">
        <ele>93.6</ele>
        <time>2015-07-20T18:24:58.599Z</time>
      </trkpt>
      <trkpt lat="48.84993" lon="2.34223">
        <ele>93.6</ele>
        <time>2015-07-20T18:24:59.618Z</time>
      </trkpt>
      <trkpt lat="48.84989" lon="2.3422">
        <ele>93.6</ele>
        <time>2015-07-20T18:25:00.635Z</time>
      </trkpt>
      <trkpt lat="48.84985" lon="2.34217">
        <ele>93.6</ele>
        <time>2015-07-20T18:25:01.534Z</time>
      </trkpt>
      <trkpt lat="48.84977" lon="2.34209">
        <ele>94.1</ele>
        <time>2015-07-20T18:25:03.536Z</time>
      </trkpt>
      <trkpt lat="48.84973" lon="2.34205">
        <ele>94.2</ele>
        <time>2015-07-20T18:25:04.552Z</time>
      </trkpt>
      <trkpt lat="48.84967" lon="2.34199">
        <ele>94.6</ele>
        <time>2015-07-20T18:25:06.559Z</time>
      </trkpt>
      <trkpt lat="48.84963" lon="2.34196">
        <ele>94.8</ele>
        <time>2015-07-20T18:25:07.574Z</time>
      </trkpt>
      <trkpt lat="48.84956" lon="2.34191">
        <ele>95.1</ele>
        <time>2015-07-20T18:25:09.604Z</time>
      </trkpt>
      <trkpt lat="48.84953" lon="2.3419">
        <ele>95.3</ele>
        <time>2015-07-20T18:25:10.556Z</time>
      </trkpt>
      <trkpt lat="48.84948" lon="2.34187">
        <ele>95.3</ele>
        <time>2015-07-20T18:25:11.575Z</time>
      </trkpt>
      <trkpt lat="48.84943" lon="2.34185">
        <ele>95.6</ele>
        <time>2015-07-20T18:25:12.579Z</time>
      </trkpt>
      <trkpt lat="48.84938" lon="2.34182">
        <ele>95.7</ele>
        <time>2015-07-20T18:25:13.613Z</time>
      </trkpt>
      <trkpt lat="48.84934" lon="2.3418">
        <ele>95.9</ele>
        <time>2015-07-20T18:25:14.542Z</time>
      </trkpt>
      <trkpt lat="48.84926" lon="2.34174">
        <ele>96.3</ele>
        <time>2015-07-20T18:25:16.559Z</time>
      </trkpt>
      <trkpt lat="48.84923" lon="2.34171">
        <ele>96.5</ele>
        <time>2015-07-20T18:25:17.577Z</time>
      </trkpt>
      <trkpt lat="48.84918" lon="2.3417">
        <ele>96.3</ele>
        <time>2015-07-20T18:25:18.571Z</time>
      </trkpt>
      <trkpt lat="48.84911" lon="2.3417">
        <ele>95.9</ele>
        <time>2015-07-20T18:25:19.598Z</time>
      </trkpt>
      <trkpt lat="48.84903" lon="2.34168">
        <ele>95.7</ele>
        <time>2015-07-20T18:25:21.533Z</time>
      </trkpt>
      <trkpt lat="48.84898" lon="2.34169">
        <ele>95.8</ele>
        <time>2015-07-20T18:25:22.542Z</time>
      </trkpt>
      <trkpt lat="48.84889" lon="2.34166">
        <ele>95.9</ele>
        <time>2015-07-20T18:25:24.570Z</time>
      </trkpt>
      <trkpt lat="48.84885" lon="2.34163">
        <ele>95.9</ele>
        <time>2015-07-20T18:25:25.579Z</time>
      </trkpt>
      <trkpt lat="48.84878" lon="2.34158">
        <ele>96.4</ele>
        <time>2015-07-20T18:25:28.177Z</time>
      </trkpt>
      <trkpt lat="48.84875" lon="2.34155">
        <ele>96.6</ele>
        <time>2015-07-20T18:25:28.567Z</time>
      </trkpt>
      <trkpt lat="48.84869" lon="2.3415">
        <ele>97</ele>
        <time>2015-07-20T18:25:30.609Z</time>
      </trkpt>
      <trkpt lat="48.84865" lon="2.34147">
        <ele>97.3</ele>
        <time>2015-07-20T18:25:31.619Z</time>
      </trkpt>
      <trkpt lat="48.84859" lon="2.34145">
        <ele>97.1</ele>
        <time>2015-07-20T18:25:33.230Z</time>
      </trkpt>
      <trkpt lat="48.84853" lon="2.34143">
        <ele>97</ele>
        <time>2015-07-20T18:25:33.516Z</time>
      </trkpt>
      <trkpt lat="48.84848" lon="2.3414">
        <ele>97</ele>
        <time>2015-07-20T18:25:34.615Z</time>
      </trkpt>
      <trkpt lat="48.84843" lon="2.34137">
        <ele>97.2</ele>
        <time>2015-07-20T18:25:35.623Z</time>
      </trkpt>
      <trkpt lat="48.84835" lon="2.34131">
        <ele>97.7</ele>
        <time>2015-07-20T18:25:37.574Z</time>
      </trkpt>
      <trkpt lat="48.84831" lon="2.34127">
        <ele>98.1</ele>
        <time>2015-07-20T18:25:38.603Z</time>
      </trkpt>
      <trkpt lat="48.84826" lon="2.34122">
        <ele>98.1</ele>
        <time>2015-07-20T18:25:39.613Z</time>
      </trkpt>
      <trkpt lat="48.84822" lon="2.34118">
        <ele>98.3</ele>
        <time>2015-07-20T18:25:40.619Z</time>
      </trkpt>
      <trkpt lat="48.84818" lon="2.34114">
        <ele>98.6</ele>
        <time>2015-07-20T18:25:41.502Z</time>
      </trkpt>
      <trkpt lat="48.84814" lon="2.34111">
        <ele>98.8</ele>
        <time>2015-07-20T18:25:42.592Z</time>
      </trkpt>
      <trkpt lat="48.84806" lon="2.34107">
        <ele>99.4</ele>
        <time>2015-07-20T18:25:44.587Z</time>
      </trkpt>
      <trkpt lat="48.84802" lon="2.34106">
        <ele>99.6</ele>
        <time>2015-07-20T18:25:45.594Z</time>
      </trkpt>
      <trkpt lat="48.84793" lon="2.34106">
        <ele>100</ele>
        <time>2015-07-20T18:25:47.634Z</time>
      </trkpt>
      <trkpt lat="48.8479" lon="2.34105">
        <ele>100.1</ele>
        <time>2015-07-20T18:25:48.652Z</time>
      </trkpt>
      <trkpt lat="48.84782" lon="2.341">
        <ele>100.5</ele>
        <time>2015-07-20T18:25:51.545Z</time>
      </trkpt>
      <trkpt lat="48.8478" lon="2.341">
        <ele>100.6</ele>
        <time>2015-07-20T18:25:52.555Z</time>
      </trkpt>
      <trkpt lat="48.84771" lon="2.34096">
        <ele>101.4</ele>
        <time>2015-07-20T18:25:55.569Z</time>
      </trkpt>
      <trkpt lat="48.84769" lon="2.34095">
        <ele>101.4</ele>
        <time>2015-07-20T18:25:56.583Z</time>
      </trkpt>
      <trkpt lat="48.84761" lon="2.3409">
        <ele>102.1</ele>
        <time>2015-07-20T18:25:59.551Z</time>
      </trkpt>
      <trkpt lat="48.84759" lon="2.34089">
        <ele>102.2</ele>
        <time>2015-07-20T18:26:00.657Z</time>
      </trkpt>
      <trkpt lat="48.84751" lon="2.34085">
        <ele>103.1</ele>
        <time>2015-07-20T18:26:06.631Z</time>
      </trkpt>
      <trkpt lat="48.84751" lon="2.34086">
        <ele>102.9</ele>
        <time>2015-07-20T18:26:07.535Z</time>
      </trkpt>
      <trkpt lat="48.84752" lon="2.34088">
        <ele>102.6</ele>
        <time>2015-07-20T18:26:30.656Z</time>
      </trkpt>
      <trkpt lat="48.84751" lon="2.3409">
        <ele>103.7</ele>
        <time>2015-07-20T18:26:31.543Z</time>
      </trkpt>
      <trkpt lat="48.84743" lon="2.34087">
        <ele>104.2</ele>
        <time>2015-07-20T18:26:35.520Z</time>
      </trkpt>
      <trkpt lat="48.8474" lon="2.34086">
        <ele>104.3</ele>
        <time>2015-07-20T18:26:36.576Z</time>
      </trkpt>
      <trkpt lat="48.84735" lon="2.3408">
        <ele>104.6</ele>
        <time>2015-07-20T18:26:38.696Z</time>
      </trkpt>
      <trkpt lat="48.84732" lon="2.34077">
        <ele>104.7</ele>
        <time>2015-07-20T18:26:39.623Z</time>
      </trkpt>
      <trkpt lat="48.84727" lon="2.34073">
        <ele>104.7</ele>
        <time>2015-07-20T18:26:41.583Z</time>
      </trkpt>
      <trkpt lat="48.84723" lon="2.34071">
        <ele>104.8</ele>
        <time>2015-07-20T18:26:42.677Z</time>
      </trkpt>
      <trkpt lat="48.84716" lon="2.34067">
        <ele>105.1</ele>
        <time>2015-07-20T18:26:44.551Z</time>
      </trkpt>
      <trkpt lat="48.84712" lon="2.34066">
        <ele>105.1</ele>
        <time>2015-07-20T18:26:45.596Z</time>
      </trkpt>
      <trkpt lat="48.84705" lon="2.34062">
        <ele>104.6</ele>
        <time>2015-07-20T18:26:47.535Z</time>
      </trkpt>
      <trkpt lat="48.84701" lon="2.3406">
        <ele>104.4</ele>
        <time>2015-07-20T18:26:48.596Z</time>
      </trkpt>
      <trkpt lat="48.84694" lon="2.34055">
        <ele>104.4</ele>
        <time>2015-07-20T18:26:50.500Z</time>
      </trkpt>
      <trkpt lat="48.8469" lon="2.34053">
        <ele>104.5</ele>
        <time>2015-07-20T18:26:51.566Z</time>
      </trkpt>
      <trkpt lat="48.84682" lon="2.34047">
        <ele>104.8</ele>
        <time>2015-07-20T18:26:54.276Z</time>
      </trkpt>
      <trkpt lat="48.84678" lon="2.34046">
        <ele>104.7</ele>
        <time>2015-07-20T18:26:54.649Z</time>
      </trkpt>
      <trkpt lat="48.84673" lon="2.34043">
        <ele>104.7</ele>
        <time>2015-07-20T18:26:55.525Z</time>
      </trkpt>
      <trkpt lat="48.84669" lon="2.34041">
        <ele>104.9</ele>
        <time>2015-07-20T18:26:56.561Z</time>
      </trkpt>
      <trkpt lat="48.84664" lon="2.34038">
        <ele>105.2</ele>
        <time>2015-07-20T18:26:57.709Z</time>
      </trkpt>
      <trkpt lat="48.8466" lon="2.34036">
        <ele>105.4</ele>
        <time>2015-07-20T18:26:58.588Z</time>
      </trkpt>
      <trkpt lat="48.84652" lon="2.34031">
        <ele>105.8</ele>
        <time>2015-07-20T18:27:00.616Z</time>
      </trkpt>
      <trkpt lat="48.84648" lon="2.34028">
        <ele>105.8</ele>
        <time>2015-07-20T18:27:01.681Z</time>
      </trkpt>
      <trkpt lat="48.8464" lon="2.34026">
        <ele>106.1</ele>
        <time>2015-07-20T18:27:04.369Z</time>
      </trkpt>
      <trkpt lat="48.84635" lon="2.34024">
        <ele>106.4</ele>
        <time>2015-07-20T18:27:04.677Z</time>
      </trkpt>
      <trkpt lat="48.84628" lon="2.34021">
        <ele>106.5</ele>
        <time>2015-07-20T18:27:06.591Z</time>
      </trkpt>
      <trkpt lat="48.84624" lon="2.34017">
        <ele>106.7</ele>
        <time>2015-07-20T18:27:07.606Z</time>
      </trkpt>
      <trkpt lat="48.8462" lon="2.34014">
        <ele>106.9</ele>
        <time>2015-07-20T18:27:08.528Z</time>
      </trkpt>
      <trkpt lat="48.84616" lon="2.34011">
        <ele>107.2</ele>
        <time>2015-07-20T18:27:09.530Z</time>
      </trkpt>
      <trkpt lat="48.84612" lon="2.34007">
        <ele>107.5</ele>
        <time>2015-07-20T18:27:10.530Z</time>
      </trkpt>
      <trkpt lat="48.84608" lon="2.34003">
        <ele>107.8</ele>
        <time>2015-07-20T18:27:11.533Z</time>
      </trkpt>
      <trkpt lat="48.84603" lon="2.34">
        <ele>108.1</ele>
        <time>2015-07-20T18:27:12.597Z</time>
      </trkpt>
      <trkpt lat="48.84598" lon="2.33997">
        <ele>108.4</ele>
        <time>2015-07-20T18:27:13.607Z</time>
      </trkpt>
      <trkpt lat="48.84593" lon="2.33993">
        <ele>108.8</ele>
        <time>2015-07-20T18:27:14.657Z</time>
      </trkpt>
      <trkpt lat="48.84587" lon="2.3399">
        <ele>109.3</ele>
        <time>2015-07-20T18:27:15.560Z</time>
      </trkpt>
      <trkpt lat="48.84581" lon="2.33987">
        <ele>110.1</ele>
        <time>2015-07-20T18:27:16.551Z</time>
      </trkpt>
      <trkpt lat="48.84574" lon="2.33985">
        <ele>110.8</ele>
        <time>2015-07-20T18:27:17.593Z</time>
      </trkpt>
      <trkpt lat="48.84568" lon="2.33982">
        <ele>111.2</ele>
        <time>2015-07-20T18:27:18.601Z</time>
      </trkpt>
      <trkpt lat="48.84562" lon="2.33979">
        <ele>111.5</ele>
        <time>2015-07-20T18:27:19.546Z</time>
      </trkpt>
      <trkpt lat="48.84556" lon="2.33975">
        <ele>111.9</ele>
        <time>2015-07-20T18:27:20.524Z</time>
      </trkpt>
      <trkpt lat="48.8455" lon="2.33973">
        <ele>112.5</ele>
        <time>2015-07-20T18:27:21.522Z</time>
      </trkpt>
      <trkpt lat="48.84544" lon="2.3397">
        <ele>112.8</ele>
        <time>2015-07-20T18:27:22.533Z</time>
      </trkpt>
      <trkpt lat="48.84538" lon="2.33969">
        <ele>113.1</ele>
        <time>2015-07-20T18:27:23.543Z</time>
      </trkpt>
      <trkpt lat="48.84532" lon="2.33968">
        <ele>113.2</ele>
        <time>2015-07-20T18:27:24.591Z</time>
      </trkpt>
      <trkpt lat="48.84526" lon="2.33966">
        <ele>113.4</ele>
        <time>2015-07-20T18:27:25.544Z</time>
      </trkpt>
      <trkpt lat="48.84521" lon="2.33963">
        <ele>113.6</ele>
        <time>2015-07-20T18:27:26.519Z</time>
      </trkpt>
      <trkpt lat="48.84516" lon="2.3396">
        <ele>113.5</ele>
        <time>2015-07-20T18:27:27.533Z</time>
      </trkpt>
      <trkpt lat="48.84511" lon="2.33958">
        <ele>113.5</ele>
        <time>2015-07-20T18:27:28.542Z</time>
      </trkpt>
      <trkpt lat="48.84506" lon="2.33955">
        <ele>113.4</ele>
        <time>2015-07-20T18:27:29.552Z</time>
      </trkpt>
      <trkpt lat="48.84501" lon="2.33952">
        <ele>113.5</ele>
        <time>2015-07-20T18:27:30.596Z</time>
      </trkpt>
      <trkpt lat="48.84496" lon="2.3395">
        <ele>113.5</ele>
        <time>2015-07-20T18:27:31.593Z</time>
      </trkpt>
      <trkpt lat="48.84491" lon="2.33947">
        <ele>113.5</ele>
        <time>2015-07-20T18:27:32.518Z</time>
      </trkpt>
      <trkpt lat="48.84486" lon="2.33944">
        <ele>113.3</ele>
        <time>2015-07-20T18:27:33.508Z</time>
      </trkpt>
      <trkpt lat="48.84481" lon="2.33942">
        <ele>112.8</ele>
        <time>2015-07-20T18:27:34.516Z</time>
      </trkpt>
      <trkpt lat="48.84476" lon="2.33939">
        <ele>112.2</ele>
        <time>2015-07-20T18:27:35.534Z</time>
      </trkpt>
      <trkpt lat="48.84471" lon="2.33936">
        <ele>111.9</ele>
        <time>2015-07-20T18:27:36.547Z</time>
      </trkpt>
      <trkpt lat="48.84466" lon="2.33933">
        <ele>111.6</ele>
        <time>2015-07-20T18:27:37.550Z</time>
      </trkpt>
      <trkpt lat="48.84461" lon="2.33931">
        <ele>110.7</ele>
        <time>2015-07-20T18:27:38.565Z</time>
      </trkpt>
      <trkpt lat="48.84457" lon="2.33928">
        <ele>110.6</ele>
        <time>2015-07-20T18:27:39.572Z</time>
      </trkpt>
      <trkpt lat="48.84453" lon="2.33924">
        <ele>110.5</ele>
        <time>2015-07-20T18:27:40.582Z</time>
      </trkpt>
      <trkpt lat="48.84449" lon="2.3392">
        <ele>110.5</ele>
        <time>2015-07-20T18:27:41.598Z</time>
      </trkpt>
      <trkpt lat="48.84445" lon="2.33917">
        <ele>110.7</ele>
        <time>2015-07-20T18:27:42.601Z</time>
      </trkpt>
      <trkpt lat="48.84441" lon="2.33914">
        <ele>110.5</ele>
        <time>2015-07-20T18:27:43.524Z</time>
      </trkpt>
      <trkpt lat="48.84437" lon="2.33912">
        <ele>110.5</ele>
        <time>2015-07-20T18:27:44.519Z</time>
      </trkpt>
      <trkpt lat="48.84432" lon="2.33909">
        <ele>110.4</ele>
        <time>2015-07-20T18:27:45.527Z</time>
      </trkpt>
      <trkpt lat="48.84427" lon="2.33908">
        <ele>110.3</ele>
        <time>2015-07-20T18:27:46.533Z</time>
      </trkpt>
      <trkpt lat="48.84422" lon="2.33907">
        <ele>110.1</ele>
        <time>2015-07-20T18:27:47.539Z</time>
      </trkpt>
      <trkpt lat="48.84418" lon="2.33905">
        <ele>109.9</ele>
        <time>2015-07-20T18:27:48.566Z</time>
      </trkpt>
      <trkpt lat="48.84414" lon="2.33902">
        <ele>109.5</ele>
        <time>2015-07-20T18:27:49.562Z</time>
      </trkpt>
      <trkpt lat="48.84409" lon="2.339">
        <ele>109.1</ele>
        <time>2015-07-20T18:27:50.566Z</time>
      </trkpt>
      <trkpt lat="48.84405" lon="2.33898">
        <ele>108.4</ele>
        <time>2015-07-20T18:27:51.572Z</time>
      </trkpt>
      <trkpt lat="48.84396" lon="2.33893">
        <ele>108</ele>
        <time>2015-07-20T18:27:53.593Z</time>
      </trkpt>
      <trkpt lat="48.84392" lon="2.3389">
        <ele>108.2</ele>
        <time>2015-07-20T18:27:54.609Z</time>
      </trkpt>
      <trkpt lat="48.84384" lon="2.33883">
        <ele>108.4</ele>
        <time>2015-07-20T18:27:56.561Z</time>
      </trkpt>
      <trkpt lat="48.84381" lon="2.3388">
        <ele>108.6</ele>
        <time>2015-07-20T18:27:57.643Z</time>
      </trkpt>
      <trkpt lat="48.84373" lon="2.33874">
        <ele>108.7</ele>
        <time>2015-07-20T18:27:59.522Z</time>
      </trkpt>
      <trkpt lat="48.84369" lon="2.3387">
        <ele>108.6</ele>
        <time>2015-07-20T18:28:00.666Z</time>
      </trkpt>
      <trkpt lat="48.84363" lon="2.33863">
        <ele>108.7</ele>
        <time>2015-07-20T18:28:02.538Z</time>
      </trkpt>
      <trkpt lat="48.8436" lon="2.3386">
        <ele>108.7</ele>
        <time>2015-07-20T18:28:03.516Z</time>
      </trkpt>
      <trkpt lat="48.84354" lon="2.33857">
        <ele>109</ele>
        <time>2015-07-20T18:28:05.554Z</time>
      </trkpt>
      <trkpt lat="48.84351" lon="2.33855">
        <ele>109.2</ele>
        <time>2015-07-20T18:28:06.568Z</time>
      </trkpt>
      <trkpt lat="48.84344" lon="2.33851">
        <ele>109.5</ele>
        <time>2015-07-20T18:28:08.591Z</time>
      </trkpt>
      <trkpt lat="48.8434" lon="2.3385">
        <ele>109.8</ele>
        <time>2015-07-20T18:28:09.553Z</time>
      </trkpt>
      <trkpt lat="48.84336" lon="2.33848">
        <ele>110.1</ele>
        <time>2015-07-20T18:28:10.517Z</time>
      </trkpt>
      <trkpt lat="48.84331" lon="2.33846">
        <ele>110.4</ele>
        <time>2015-07-20T18:28:11.533Z</time>
      </trkpt>
      <trkpt lat="48.84326" lon="2.33843">
        <ele>110.6</ele>
        <time>2015-07-20T18:28:12.566Z</time>
      </trkpt>
      <trkpt lat="48.8432" lon="2.3384">
        <ele>110.9</ele>
        <time>2015-07-20T18:28:13.576Z</time>
      </trkpt>
      <trkpt lat="48.84314" lon="2.33837">
        <ele>111</ele>
        <time>2015-07-20T18:28:14.590Z</time>
      </trkpt>
      <trkpt lat="48.84308" lon="2.33833">
        <ele>111.2</ele>
        <time>2015-07-20T18:28:15.607Z</time>
      </trkpt>
      <trkpt lat="48.84303" lon="2.33831">
        <ele>111.3</ele>
        <time>2015-07-20T18:28:16.511Z</time>
      </trkpt>
      <trkpt lat="48.84298" lon="2.33829">
        <ele>111.4</ele>
        <time>2015-07-20T18:28:17.518Z</time>
      </trkpt>
      <trkpt lat="48.84292" lon="2.33829">
        <ele>111.8</ele>
        <time>2015-07-20T18:28:18.588Z</time>
      </trkpt>
      <trkpt lat="48.84287" lon="2.33827">
        <ele>111.7</ele>
        <time>2015-07-20T18:28:19.565Z</time>
      </trkpt>
      <trkpt lat="48.84283" lon="2.33825">
        <ele>111.7</ele>
        <time>2015-07-20T18:28:20.587Z</time>
      </trkpt>
      <trkpt lat="48.84277" lon="2.33822">
        <ele>111.9</ele>
        <time>2015-07-20T18:28:21.592Z</time>
      </trkpt>
      <trkpt lat="48.84272" lon="2.3382">
        <ele>112.1</ele>
        <time>2015-07-20T18:28:22.599Z</time>
      </trkpt>
      <trkpt lat="48.84267" lon="2.3382">
        <ele>112.2</ele>
        <time>2015-07-20T18:28:23.521Z</time>
      </trkpt>
      <trkpt lat="48.84262" lon="2.33819">
        <ele>112.4</ele>
        <time>2015-07-20T18:28:24.624Z</time>
      </trkpt>
      <trkpt lat="48.84258" lon="2.3382">
        <ele>112.5</ele>
        <time>2015-07-20T18:28:25.527Z</time>
      </trkpt>
      <trkpt lat="48.8425" lon="2.33815">
        <ele>112.4</ele>
        <time>2015-07-20T18:28:27.548Z</time>
      </trkpt>
      <trkpt lat="48.84246" lon="2.33813">
        <ele>112.4</ele>
        <time>2015-07-20T18:28:28.558Z</time>
      </trkpt>
      <trkpt lat="48.84238" lon="2.33808">
        <ele>112.6</ele>
        <time>2015-07-20T18:28:30.564Z</time>
      </trkpt>
      <trkpt lat="48.84234" lon="2.33805">
        <ele>112.7</ele>
        <time>2015-07-20T18:28:31.572Z</time>
      </trkpt>
      <trkpt lat="48.84228" lon="2.33799">
        <ele>112.9</ele>
        <time>2015-07-20T18:28:33.521Z</time>
      </trkpt>
      <trkpt lat="48.84225" lon="2.33796">
        <ele>113</ele>
        <time>2015-07-20T18:28:34.633Z</time>
      </trkpt>
      <trkpt lat="48.84218" lon="2.3379">
        <ele>113.1</ele>
        <time>2015-07-20T18:28:36.557Z</time>
      </trkpt>
      <trkpt lat="48.84215" lon="2.33787">
        <ele>113.2</ele>
        <time>2015-07-20T18:28:37.584Z</time>
      </trkpt>
      <trkpt lat="48.84208" lon="2.33781">
        <ele>113.6</ele>
        <time>2015-07-20T18:28:39.606Z</time>
      </trkpt>
      <trkpt lat="48.84203" lon="2.33779">
        <ele>113.6</ele>
        <time>2015-07-20T18:28:40.549Z</time>
      </trkpt>
      <trkpt lat="48.84198" lon="2.33778">
        <ele>113.2</ele>
        <time>2015-07-20T18:28:41.528Z</time>
      </trkpt>
      <trkpt lat="48.84193" lon="2.33778">
        <ele>112.6</ele>
        <time>2015-07-20T18:28:42.535Z</time>
      </trkpt>
      <trkpt lat="48.84188" lon="2.33775">
        <ele>112.6</ele>
        <time>2015-07-20T18:28:43.523Z</time>
      </trkpt>
      <trkpt lat="48.84184" lon="2.33772">
        <ele>112.5</ele>
        <time>2015-07-20T18:28:44.516Z</time>
      </trkpt>
      <trkpt lat="48.84177" lon="2.33766">
        <ele>112.5</ele>
        <time>2015-07-20T18:28:46.531Z</time>
      </trkpt>
      <trkpt lat="48.84173" lon="2.33762">
        <ele>112.7</ele>
        <time>2015-07-20T18:28:47.521Z</time>
      </trkpt>
      <trkpt lat="48.84169" lon="2.33758">
        <ele>112.9</ele>
        <time>2015-07-20T18:28:48.550Z</time>
      </trkpt>
      <trkpt lat="48.84165" lon="2.33754">
        <ele>113.1</ele>
        <time>2015-07-20T18:28:49.556Z</time>
      </trkpt>
      <trkpt lat="48.84161" lon="2.33751">
        <ele>113.2</ele>
        <time>2015-07-20T18:28:50.576Z</time>
      </trkpt>
      <trkpt lat="48.84157" lon="2.33749">
        <ele>113.5</ele>
        <time>2015-07-20T18:28:51.521Z</time>
      </trkpt>
      <trkpt lat="48.84152" lon="2.33748">
        <ele>113.7</ele>
        <time>2015-07-20T18:28:52.520Z</time>
      </trkpt>
      <trkpt lat="48.84147" lon="2.33746">
        <ele>113.8</ele>
        <time>2015-07-20T18:28:53.531Z</time>
      </trkpt>
      <trkpt lat="48.84142" lon="2.33744">
        <ele>114.1</ele>
        <time>2015-07-20T18:28:53.379Z</time>
      </trkpt>
      <trkpt lat="48.84138" lon="2.33742">
        <ele>114</ele>
        <time>2015-07-20T18:28:55.545Z</time>
      </trkpt>
      <trkpt lat="48.84133" lon="2.33739">
        <ele>113.9</ele>
        <time>2015-07-20T18:28:56.556Z</time>
      </trkpt>
      <trkpt lat="48.84129" lon="2.33736">
        <ele>113.8</ele>
        <time>2015-07-20T18:28:57.563Z</time>
      </trkpt>
      <trkpt lat="48.84125" lon="2.33734">
        <ele>113.8</ele>
        <time>2015-07-20T18:28:58.582Z</time>
      </trkpt>
      <trkpt lat="48.8412" lon="2.33731">
        <ele>113.8</ele>
        <time>2015-07-20T18:28:59.596Z</time>
      </trkpt>
      <trkpt lat="48.84115" lon="2.33727">
        <ele>114.2</ele>
        <time>2015-07-20T18:29:00.728Z</time>
      </trkpt>
      <trkpt lat="48.8411" lon="2.33723">
        <ele>114.5</ele>
        <time>2015-07-20T18:29:01.612Z</time>
      </trkpt>
      <trkpt lat="48.84105" lon="2.3372">
        <ele>114.5</ele>
        <time>2015-07-20T18:29:02.643Z</time>
      </trkpt>
      <trkpt lat="48.841" lon="2.33717">
        <ele>114.6</ele>
        <time>2015-07-20T18:29:03.720Z</time>
      </trkpt>
      <trkpt lat="48.84096" lon="2.33713">
        <ele>114.7</ele>
        <time>2015-07-20T18:29:04.547Z</time>
      </trkpt>
      <trkpt lat="48.84092" lon="2.3371">
        <ele>114.5</ele>
        <time>2015-07-20T18:29:05.570Z</time>
      </trkpt>
      <trkpt lat="48.84087" lon="2.33709">
        <ele>113.3</ele>
        <time>2015-07-20T18:29:06.575Z</time>
      </trkpt>
      <trkpt lat="48.84083" lon="2.33706">
        <ele>113.2</ele>
        <time>2015-07-20T18:29:07.597Z</time>
      </trkpt>
      <trkpt lat="48.84079" lon="2.33703">
        <ele>112.9</ele>
        <time>2015-07-20T18:29:08.784Z</time>
      </trkpt>
      <trkpt lat="48.84075" lon="2.337">
        <ele>112.5</ele>
        <time>2015-07-20T18:29:09.535Z</time>
      </trkpt>
      <trkpt lat="48.8407" lon="2.33697">
        <ele>112.3</ele>
        <time>2015-07-20T18:29:10.817Z</time>
      </trkpt>
      <trkpt lat="48.84066" lon="2.33694">
        <ele>112.1</ele>
        <time>2015-07-20T18:29:11.551Z</time>
      </trkpt>
      <trkpt lat="48.84061" lon="2.3369">
        <ele>112.1</ele>
        <time>2015-07-20T18:29:12.592Z</time>
      </trkpt>
      <trkpt lat="48.84057" lon="2.33688">
        <ele>112.2</ele>
        <time>2015-07-20T18:29:13.603Z</time>
      </trkpt>
      <trkpt lat="48.8405" lon="2.33681">
        <ele>112.2</ele>
        <time>2015-07-20T18:29:15.530Z</time>
      </trkpt>
      <trkpt lat="48.84047" lon="2.33677">
        <ele>112.2</ele>
        <time>2015-07-20T18:29:16.573Z</time>
      </trkpt>
      <trkpt lat="48.8404" lon="2.3367">
        <ele>112.1</ele>
        <time>2015-07-20T18:29:19.042Z</time>
      </trkpt>
      <trkpt lat="48.84035" lon="2.33668">
        <ele>111.9</ele>
        <time>2015-07-20T18:29:19.529Z</time>
      </trkpt>
      <trkpt lat="48.8403" lon="2.33664">
        <ele>112</ele>
        <time>2015-07-20T18:29:21.562Z</time>
      </trkpt>
      <trkpt lat="48.84027" lon="2.33663">
        <ele>112</ele>
        <time>2015-07-20T18:29:22.568Z</time>
      </trkpt>
      <trkpt lat="48.84019" lon="2.3366">
        <ele>112.2</ele>
        <time>2015-07-20T18:29:24.579Z</time>
      </trkpt>
      <trkpt lat="48.84016" lon="2.33658">
        <ele>112.2</ele>
        <time>2015-07-20T18:29:25.583Z</time>
      </trkpt>
      <trkpt lat="48.84009" lon="2.33654">
        <ele>112.3</ele>
        <time>2015-07-20T18:29:27.601Z</time>
      </trkpt>
      <trkpt lat="48.84006" lon="2.33652">
        <ele>112.6</ele>
        <time>2015-07-20T18:29:28.607Z</time>
      </trkpt>
      <trkpt lat="48.83999" lon="2.33649">
        <ele>113.1</ele>
        <time>2015-07-20T18:29:31.530Z</time>
      </trkpt>
      <trkpt lat="48.83996" lon="2.33648">
        <ele>113.3</ele>
        <time>2015-07-20T18:29:32.582Z</time>
      </trkpt>
      <trkpt lat="48.83988" lon="2.33648">
        <ele>114.2</ele>
        <time>2015-07-20T18:29:36.564Z</time>
      </trkpt>
      <trkpt lat="48.83987" lon="2.33649">
        <ele>114.2</ele>
        <time>2015-07-20T18:29:37.574Z</time>
      </trkpt>
      <trkpt lat="48.83981" lon="2.33657">
        <ele>114.5</ele>
        <time>2015-07-20T18:29:42.580Z</time>
      </trkpt>
      <trkpt lat="48.83979" lon="2.33659">
        <ele>114.5</ele>
        <time>2015-07-20T18:29:43.649Z</time>
      </trkpt>
      <trkpt lat="48.8397" lon="2.33661">
        <ele>115.4</ele>
        <time>2015-07-20T18:29:49.540Z</time>
      </trkpt>
      <trkpt lat="48.8397" lon="2.3366">
        <ele>115.4</ele>
        <time>2015-07-20T18:29:50.564Z</time>
      </trkpt>
      <trkpt lat="48.83972" lon="2.33658">
        <ele>114.9</ele>
        <time>2015-07-20T18:29:59.239Z</time>
      </trkpt>
      <trkpt lat="48.83972" lon="2.33659">
        <ele>114.7</ele>
        <time>2015-07-20T18:29:59.524Z</time>
      </trkpt>
      <trkpt lat="48.83971" lon="2.3366">
        <ele>114.8</ele>
        <time>2015-07-20T18:30:01.583Z</time>
      </trkpt>
      <trkpt lat="48.8397" lon="2.3366">
        <ele>114.9</ele>
        <time>2015-07-20T18:30:02.612Z</time>
      </trkpt>
      <trkpt lat="48.83963" lon="2.3366">
        <ele>115.1</ele>
        <time>2015-07-20T18:30:06.615Z</time>
      </trkpt>
      <trkpt lat="48.8396" lon="2.33661">
        <ele>115.1</ele>
        <time>2015-07-20T18:30:07.586Z</time>
      </trkpt>
      <trkpt lat="48.83954" lon="2.33662">
        <ele>114.4</ele>
        <time>2015-07-20T18:30:09.530Z</time>
      </trkpt>
      <trkpt lat="48.8395" lon="2.33663">
        <ele>114.3</ele>
        <time>2015-07-20T18:30:10.568Z</time>
      </trkpt>
      <trkpt lat="48.83943" lon="2.33664">
        <ele>114.2</ele>
        <time>2015-07-20T18:30:12.559Z</time>
      </trkpt>
      <trkpt lat="48.83939" lon="2.33664">
        <ele>114.3</ele>
        <time>2015-07-20T18:30:13.563Z</time>
      </trkpt>
      <trkpt lat="48.8393" lon="2.33665">
        <ele>114.8</ele>
        <time>2015-07-20T18:30:15.607Z</time>
      </trkpt>
      <trkpt lat="48.83926" lon="2.33666">
        <ele>115.1</ele>
        <time>2015-07-20T18:30:16.483Z</time>
      </trkpt>
      <trkpt lat="48.83921" lon="2.33666">
        <ele>115</ele>
        <time>2015-07-20T18:30:17.533Z</time>
      </trkpt>
      <trkpt lat="48.83916" lon="2.33667">
        <ele>115.2</ele>
        <time>2015-07-20T18:30:18.696Z</time>
      </trkpt>
      <trkpt lat="48.83912" lon="2.33667">
        <ele>115.1</ele>
        <time>2015-07-20T18:30:19.665Z</time>
      </trkpt>
      <trkpt lat="48.83907" lon="2.33667">
        <ele>115.2</ele>
        <time>2015-07-20T18:30:20.529Z</time>
      </trkpt>
      <trkpt lat="48.83902" lon="2.33668">
        <ele>115.9</ele>
        <time>2015-07-20T18:30:21.538Z</time>
      </trkpt>
      <trkpt lat="48.83897" lon="2.33669">
        <ele>116.2</ele>
        <time>2015-07-20T18:30:22.552Z</time>
      </trkpt>
      <trkpt lat="48.83891" lon="2.33671">
        <ele>117.8</ele>
        <time>2015-07-20T18:30:23.562Z</time>
      </trkpt>
      <trkpt lat="48.83885" lon="2.33672">
        <ele>118.7</ele>
        <time>2015-07-20T18:30:24.579Z</time>
      </trkpt>
      <trkpt lat="48.83879" lon="2.33671">
        <ele>118.6</ele>
        <time>2015-07-20T18:30:25.595Z</time>
      </trkpt>
      <trkpt lat="48.83873" lon="2.3367">
        <ele>118.6</ele>
        <time>2015-07-20T18:30:26.601Z</time>
      </trkpt>
      <trkpt lat="48.83867" lon="2.33668">
        <ele>118.6</ele>
        <time>2015-07-20T18:30:27.521Z</time>
      </trkpt>
      <trkpt lat="48.83862" lon="2.33665">
        <ele>118.6</ele>
        <time>2015-07-20T18:30:28.528Z</time>
      </trkpt>
      <trkpt lat="48.83856" lon="2.3366">
        <ele>118.6</ele>
        <time>2015-07-20T18:30:29.712Z</time>
      </trkpt>
      <trkpt lat="48.83849" lon="2.33656">
        <ele>118.7</ele>
        <time>2015-07-20T18:30:30.566Z</time>
      </trkpt>
      <trkpt lat="48.83843" lon="2.33651">
        <ele>118.8</ele>
        <time>2015-07-20T18:30:31.587Z</time>
      </trkpt>
      <trkpt lat="48.83837" lon="2.33646">
        <ele>119</ele>
        <time>2015-07-20T18:30:32.596Z</time>
      </trkpt>
      <trkpt lat="48.8383" lon="2.3364">
        <ele>118.8</ele>
        <time>2015-07-20T18:30:33.517Z</time>
      </trkpt>
      <trkpt lat="48.83824" lon="2.33635">
        <ele>119.1</ele>
        <time>2015-07-20T18:30:34.522Z</time>
      </trkpt>
      <trkpt lat="48.83817" lon="2.33629">
        <ele>119.5</ele>
        <time>2015-07-20T18:30:35.558Z</time>
      </trkpt>
      <trkpt lat="48.83811" lon="2.33623">
        <ele>119.8</ele>
        <time>2015-07-20T18:30:36.567Z</time>
      </trkpt>
      <trkpt lat="48.83804" lon="2.33618">
        <ele>120</ele>
        <time>2015-07-20T18:30:37.585Z</time>
      </trkpt>
      <trkpt lat="48.83797" lon="2.33614">
        <ele>120</ele>
        <time>2015-07-20T18:30:38.623Z</time>
      </trkpt>
      <trkpt lat="48.83788" lon="2.33611">
        <ele>121.8</ele>
        <time>2015-07-20T18:30:39.546Z</time>
      </trkpt>
      <trkpt lat="48.83782" lon="2.33605">
        <ele>121.6</ele>
        <time>2015-07-20T18:30:40.626Z</time>
      </trkpt>
      <trkpt lat="48.83775" lon="2.33597">
        <ele>121.4</ele>
        <time>2015-07-20T18:30:41.644Z</time>
      </trkpt>
      <trkpt lat="48.83769" lon="2.33588">
        <ele>121.5</ele>
        <time>2015-07-20T18:30:42.670Z</time>
      </trkpt>
      <trkpt lat="48.83763" lon="2.33581">
        <ele>122.1</ele>
        <time>2015-07-20T18:30:43.527Z</time>
      </trkpt>
      <trkpt lat="48.83757" lon="2.33573">
        <ele>123</ele>
        <time>2015-07-20T18:30:44.518Z</time>
      </trkpt>
      <trkpt lat="48.83751" lon="2.33566">
        <ele>123.5</ele>
        <time>2015-07-20T18:30:45.547Z</time>
      </trkpt>
      <trkpt lat="48.83745" lon="2.33558">
        <ele>123.8</ele>
        <time>2015-07-20T18:30:46.566Z</time>
      </trkpt>
      <trkpt lat="48.83738" lon="2.33551">
        <ele>124.4</ele>
        <time>2015-07-20T18:30:47.586Z</time>
      </trkpt>
      <trkpt lat="48.83732" lon="2.33543">
        <ele>124.6</ele>
        <time>2015-07-20T18:30:48.582Z</time>
      </trkpt>
      <trkpt lat="48.83726" lon="2.33536">
        <ele>124.6</ele>
        <time>2015-07-20T18:30:49.591Z</time>
      </trkpt>
      <trkpt lat="48.83719" lon="2.33528">
        <ele>124.6</ele>
        <time>2015-07-20T18:30:50.498Z</time>
      </trkpt>
      <trkpt lat="48.83713" lon="2.33521">
        <ele>124.2</ele>
        <time>2015-07-20T18:30:51.530Z</time>
      </trkpt>
      <trkpt lat="48.83707" lon="2.33514">
        <ele>124</ele>
        <time>2015-07-20T18:30:52.538Z</time>
      </trkpt>
      <trkpt lat="48.837" lon="2.33507">
        <ele>123.5</ele>
        <time>2015-07-20T18:30:53.544Z</time>
      </trkpt>
      <trkpt lat="48.83694" lon="2.335">
        <ele>123.7</ele>
        <time>2015-07-20T18:30:54.564Z</time>
      </trkpt>
      <trkpt lat="48.83688" lon="2.33494">
        <ele>124</ele>
        <time>2015-07-20T18:30:55.588Z</time>
      </trkpt>
      <trkpt lat="48.83682" lon="2.33487">
        <ele>123.7</ele>
        <time>2015-07-20T18:30:56.590Z</time>
      </trkpt>
      <trkpt lat="48.83676" lon="2.3348">
        <ele>123.2</ele>
        <time>2015-07-20T18:30:57.521Z</time>
      </trkpt>
      <trkpt lat="48.83669" lon="2.33474">
        <ele>122.9</ele>
        <time>2015-07-20T18:30:58.518Z</time>
      </trkpt>
      <trkpt lat="48.83662" lon="2.33468">
        <ele>122.6</ele>
        <time>2015-07-20T18:30:59.554Z</time>
      </trkpt>
      <trkpt lat="48.83655" lon="2.33462">
        <ele>122.7</ele>
        <time>2015-07-20T18:31:00.553Z</time>
      </trkpt>
      <trkpt lat="48.83649" lon="2.33456">
        <ele>123.2</ele>
        <time>2015-07-20T18:31:01.566Z</time>
      </trkpt>
      <trkpt lat="48.83643" lon="2.33449">
        <ele>123.5</ele>
        <time>2015-07-20T18:31:02.585Z</time>
      </trkpt>
      <trkpt lat="48.83637" lon="2.33442">
        <ele>123.7</ele>
        <time>2015-07-20T18:31:03.590Z</time>
      </trkpt>
      <trkpt lat="48.8363" lon="2.33435">
        <ele>123.9</ele>
        <time>2015-07-20T18:31:04.496Z</time>
      </trkpt>
      <trkpt lat="48.83624" lon="2.33428">
        <ele>124</ele>
        <time>2015-07-20T18:31:05.556Z</time>
      </trkpt>
      <trkpt lat="48.83617" lon="2.33422">
        <ele>124.4</ele>
        <time>2015-07-20T18:31:06.588Z</time>
      </trkpt>
      <trkpt lat="48.8361" lon="2.33415">
        <ele>124.8</ele>
        <time>2015-07-20T18:31:07.582Z</time>
      </trkpt>
      <trkpt lat="48.83602" lon="2.33411">
        <ele>126.9</ele>
        <time>2015-07-20T18:31:08.590Z</time>
      </trkpt>
      <trkpt lat="48.83595" lon="2.33406">
        <ele>127.6</ele>
        <time>2015-07-20T18:31:09.521Z</time>
      </trkpt>
      <trkpt lat="48.83588" lon="2.334">
        <ele>128.5</ele>
        <time>2015-07-20T18:31:10.520Z</time>
      </trkpt>
      <trkpt lat="48.83581" lon="2.33395">
        <ele>128.7</ele>
        <time>2015-07-20T18:31:11.519Z</time>
      </trkpt>
      <trkpt lat="48.83574" lon="2.3339">
        <ele>128.4</ele>
        <time>2015-07-20T18:31:12.586Z</time>
      </trkpt>
      <trkpt lat="48.83568" lon="2.33384">
        <ele>129.1</ele>
        <time>2015-07-20T18:31:13.575Z</time>
      </trkpt>
      <trkpt lat="48.83562" lon="2.33378">
        <ele>129.3</ele>
        <time>2015-07-20T18:31:14.584Z</time>
      </trkpt>
      <trkpt lat="48.83555" lon="2.33372">
        <ele>129.9</ele>
        <time>2015-07-20T18:31:15.590Z</time>
      </trkpt>
      <trkpt lat="48.83548" lon="2.33367">
        <ele>130.3</ele>
        <time>2015-07-20T18:31:16.596Z</time>
      </trkpt>
      <trkpt lat="48.83543" lon="2.3336">
        <ele>130.4</ele>
        <time>2015-07-20T18:31:17.604Z</time>
      </trkpt>
      <trkpt lat="48.83538" lon="2.33353">
        <ele>130.5</ele>
        <time>2015-07-20T18:31:18.619Z</time>
      </trkpt>
      <trkpt lat="48.83532" lon="2.33348">
        <ele>130.8</ele>
        <time>2015-07-20T18:31:19.518Z</time>
      </trkpt>
      <trkpt lat="48.83526" lon="2.33343">
        <ele>130.8</ele>
        <time>2015-07-20T18:31:20.523Z</time>
      </trkpt>
      <trkpt lat="48.83521" lon="2.33339">
        <ele>131.2</ele>
        <time>2015-07-20T18:31:21.542Z</time>
      </trkpt>
      <trkpt lat="48.83516" lon="2.33334">
        <ele>130.8</ele>
        <time>2015-07-20T18:31:22.568Z</time>
      </trkpt>
      <trkpt lat="48.8351" lon="2.33331">
        <ele>130.9</ele>
        <time>2015-07-20T18:31:23.588Z</time>
      </trkpt>
      <trkpt lat="48.83505" lon="2.33327">
        <ele>130.9</ele>
        <time>2015-07-20T18:31:24.615Z</time>
      </trkpt>
      <trkpt lat="48.835" lon="2.33323">
        <ele>130.8</ele>
        <time>2015-07-20T18:31:25.547Z</time>
      </trkpt>
      <trkpt lat="48.83496" lon="2.3332">
        <ele>130.8</ele>
        <time>2015-07-20T18:31:26.543Z</time>
      </trkpt>
      <trkpt lat="48.83491" lon="2.33316">
        <ele>130.7</ele>
        <time>2015-07-20T18:31:27.581Z</time>
      </trkpt>
      <trkpt lat="48.83486" lon="2.33313">
        <ele>130.6</ele>
        <time>2015-07-20T18:31:28.600Z</time>
      </trkpt>
      <trkpt lat="48.83481" lon="2.33311">
        <ele>130.5</ele>
        <time>2015-07-20T18:31:29.520Z</time>
      </trkpt>
      <trkpt lat="48.83477" lon="2.33308">
        <ele>130.4</ele>
        <time>2015-07-20T18:31:30.564Z</time>
      </trkpt>
      <trkpt lat="48.83471" lon="2.33301">
        <ele>130.7</ele>
        <time>2015-07-20T18:31:32.575Z</time>
      </trkpt>
      <trkpt lat="48.83469" lon="2.33296">
        <ele>131.2</ele>
        <time>2015-07-20T18:31:33.613Z</time>
      </trkpt>
      <trkpt lat="48.83465" lon="2.33287">
        <ele>131.2</ele>
        <time>2015-07-20T18:31:35.536Z</time>
      </trkpt>
      <trkpt lat="48.83464" lon="2.33284">
        <ele>131.1</ele>
        <time>2015-07-20T18:31:36.590Z</time>
      </trkpt>
      <trkpt lat="48.83463" lon="2.33279">
        <ele>131.4</ele>
        <time>2015-07-20T18:32:25.500Z</time>
      </trkpt>
      <trkpt lat="48.83477" lon="2.33264">
        <ele>123.4</ele>
        <time>2015-07-20T18:32:26.561Z</time>
      </trkpt>
      <trkpt lat="48.83471" lon="2.33259">
        <ele>122.8</ele>
        <time>2015-07-20T18:32:28.515Z</time>
      </trkpt>
      <trkpt lat="48.83467" lon="2.33255">
        <ele>122.4</ele>
        <time>2015-07-20T18:32:29.576Z</time>
      </trkpt>
      <trkpt lat="48.8346" lon="2.33248">
        <ele>122</ele>
        <time>2015-07-20T18:32:31.517Z</time>
      </trkpt>
      <trkpt lat="48.83455" lon="2.33245">
        <ele>121.8</ele>
        <time>2015-07-20T18:32:32.555Z</time>
      </trkpt>
      <trkpt lat="48.83448" lon="2.33239">
        <ele>121.4</ele>
        <time>2015-07-20T18:32:34.479Z</time>
      </trkpt>
      <trkpt lat="48.83444" lon="2.33237">
        <ele>121.3</ele>
        <time>2015-07-20T18:32:35.537Z</time>
      </trkpt>
      <trkpt lat="48.83436" lon="2.33234">
        <ele>120.8</ele>
        <time>2015-07-20T18:32:37.485Z</time>
      </trkpt>
      <trkpt lat="48.83433" lon="2.33232">
        <ele>120.3</ele>
        <time>2015-07-20T18:32:38.485Z</time>
      </trkpt>
      <trkpt lat="48.83426" lon="2.33229">
        <ele>120.2</ele>
        <time>2015-07-20T18:32:40.557Z</time>
      </trkpt>
      <trkpt lat="48.83423" lon="2.33227">
        <ele>120.2</ele>
        <time>2015-07-20T18:32:41.583Z</time>
      </trkpt>
      <trkpt lat="48.83418" lon="2.33223">
        <ele>120.4</ele>
        <time>2015-07-20T18:32:44.021Z</time>
      </trkpt>
      <trkpt lat="48.83415" lon="2.33221">
        <ele>120</ele>
        <time>2015-07-20T18:32:44.574Z</time>
      </trkpt>
      <trkpt lat="48.83409" lon="2.33216">
        <ele>119.2</ele>
        <time>2015-07-20T18:32:46.538Z</time>
      </trkpt>
      <trkpt lat="48.83405" lon="2.33214">
        <ele>119.1</ele>
        <time>2015-07-20T18:32:47.566Z</time>
      </trkpt>
      <trkpt lat="48.83398" lon="2.33209">
        <ele>118.9</ele>
        <time>2015-07-20T18:32:49.597Z</time>
      </trkpt>
      <trkpt lat="48.83395" lon="2.33206">
        <ele>118.8</ele>
        <time>2015-07-20T18:32:50.526Z</time>
      </trkpt>
      <trkpt lat="48.83388" lon="2.33202">
        <ele>118.6</ele>
        <time>2015-07-20T18:32:54.157Z</time>
      </trkpt>
      <trkpt lat="48.83386" lon="2.332">
        <ele>118.5</ele>
        <time>2015-07-20T18:32:54.603Z</time>
      </trkpt>
      <trkpt lat="48.8338" lon="2.33191">
        <ele>117.7</ele>
        <time>2015-07-20T18:32:59.236Z</time>
      </trkpt>
      <trkpt lat="48.83379" lon="2.33189">
        <ele>117.4</ele>
        <time>2015-07-20T18:32:59.609Z</time>
      </trkpt>
      <trkpt lat="48.83373" lon="2.33182">
        <ele>115.7</ele>
        <time>2015-07-20T18:33:18.651Z</time>
      </trkpt>
      <trkpt lat="48.83371" lon="2.33182">
        <ele>115.9</ele>
        <time>2015-07-20T18:33:19.515Z</time>
      </trkpt>
      <trkpt lat="48.83363" lon="2.33176">
        <ele>115.6</ele>
        <time>2015-07-20T18:33:23.596Z</time>
      </trkpt>
      <trkpt lat="48.8336" lon="2.33175">
        <ele>115.9</ele>
        <time>2015-07-20T18:33:24.596Z</time>
      </trkpt>
      <trkpt lat="48.83355" lon="2.33171">
        <ele>116.4</ele>
        <time>2015-07-20T18:33:26.517Z</time>
      </trkpt>
      <trkpt lat="48.83352" lon="2.33169">
        <ele>116.5</ele>
        <time>2015-07-20T18:33:27.576Z</time>
      </trkpt>
      <trkpt lat="48.83346" lon="2.33164">
        <ele>116.8</ele>
        <time>2015-07-20T18:33:29.484Z</time>
      </trkpt>
      <trkpt lat="48.83343" lon="2.33162">
        <ele>116.8</ele>
        <time>2015-07-20T18:33:30.556Z</time>
      </trkpt>
      <trkpt lat="48.83336" lon="2.33158">
        <ele>116.9</ele>
        <time>2015-07-20T18:33:32.573Z</time>
      </trkpt>
      <trkpt lat="48.83332" lon="2.33157">
        <ele>117.2</ele>
        <time>2015-07-20T18:33:33.495Z</time>
      </trkpt>
      <trkpt lat="48.83325" lon="2.33151">
        <ele>118.3</ele>
        <time>2015-07-20T18:33:35.554Z</time>
      </trkpt>
      <trkpt lat="48.83321" lon="2.33148">
        <ele>119.2</ele>
        <time>2015-07-20T18:33:36.596Z</time>
      </trkpt>
      <trkpt lat="48.83314" lon="2.33143">
        <ele>120.9</ele>
        <time>2015-07-20T18:33:38.537Z</time>
      </trkpt>
      <trkpt lat="48.8331" lon="2.33141">
        <ele>121.5</ele>
        <time>2015-07-20T18:33:39.592Z</time>
      </trkpt>
      <trkpt lat="48.83304" lon="2.33136">
        <ele>121.8</ele>
        <time>2015-07-20T18:33:41.561Z</time>
      </trkpt>
      <trkpt lat="48.83301" lon="2.33134">
        <ele>121.7</ele>
        <time>2015-07-20T18:33:42.613Z</time>
      </trkpt>
      <trkpt lat="48.83294" lon="2.33129">
        <ele>121.5</ele>
        <time>2015-07-20T18:33:44.529Z</time>
      </trkpt>
      <trkpt lat="48.8329" lon="2.33126">
        <ele>121.1</ele>
        <time>2015-07-20T18:33:45.593Z</time>
      </trkpt>
      <trkpt lat="48.83286" lon="2.33123">
        <ele>121.2</ele>
        <time>2015-07-20T18:33:46.555Z</time>
      </trkpt>
      <trkpt lat="48.83282" lon="2.33119">
        <ele>121.4</ele>
        <time>2015-07-20T18:33:47.555Z</time>
      </trkpt>
      <trkpt lat="48.83277" lon="2.33115">
        <ele>121.4</ele>
        <time>2015-07-20T18:33:48.577Z</time>
      </trkpt>
      <trkpt lat="48.83272" lon="2.33112">
        <ele>121.3</ele>
        <time>2015-07-20T18:33:49.614Z</time>
      </trkpt>
      <trkpt lat="48.83268" lon="2.33108">
        <ele>121.3</ele>
        <time>2015-07-20T18:33:50.516Z</time>
      </trkpt>
      <trkpt lat="48.83264" lon="2.33105">
        <ele>121.2</ele>
        <time>2015-07-20T18:33:51.522Z</time>
      </trkpt>
      <trkpt lat="48.83259" lon="2.33102">
        <ele>121.2</ele>
        <time>2015-07-20T18:33:52.552Z</time>
      </trkpt>
      <trkpt lat="48.83254" lon="2.33099">
        <ele>121.2</ele>
        <time>2015-07-20T18:33:53.581Z</time>
      </trkpt>
      <trkpt lat="48.83247" lon="2.33093">
        <ele>121.5</ele>
        <time>2015-07-20T18:33:55.514Z</time>
      </trkpt>
      <trkpt lat="48.83243" lon="2.33089">
        <ele>122.1</ele>
        <time>2015-07-20T18:33:56.545Z</time>
      </trkpt>
      <trkpt lat="48.83238" lon="2.33084">
        <ele>122.7</ele>
        <time>2015-07-20T18:33:58.533Z</time>
      </trkpt>
      <trkpt lat="48.83236" lon="2.33082">
        <ele>122.6</ele>
        <time>2015-07-20T18:33:59.541Z</time>
      </trkpt>
      <trkpt lat="48.83228" lon="2.33076">
        <ele>122.4</ele>
        <time>2015-07-20T18:34:03.537Z</time>
      </trkpt>
      <trkpt lat="48.83226" lon="2.33071">
        <ele>121.9</ele>
        <time>2015-07-20T18:34:04.547Z</time>
      </trkpt>
      <trkpt lat="48.83224" lon="2.33058">
        <ele>120.7</ele>
        <time>2015-07-20T18:34:06.586Z</time>
      </trkpt>
      <trkpt lat="48.83224" lon="2.33051">
        <ele>119.9</ele>
        <time>2015-07-20T18:34:07.598Z</time>
      </trkpt>
      <trkpt lat="48.83225" lon="2.3304">
        <ele>119.7</ele>
        <time>2015-07-20T18:34:09.531Z</time>
      </trkpt>
      <trkpt lat="48.83226" lon="2.33036">
        <ele>120</ele>
        <time>2015-07-20T18:34:10.539Z</time>
      </trkpt>
      <trkpt lat="48.83229" lon="2.33027">
        <ele>119.5</ele>
        <time>2015-07-20T18:34:12.546Z</time>
      </trkpt>
      <trkpt lat="48.83231" lon="2.33023">
        <ele>119</ele>
        <time>2015-07-20T18:34:13.574Z</time>
      </trkpt>
      <trkpt lat="48.83235" lon="2.33015">
        <ele>118.6</ele>
        <time>2015-07-20T18:34:15.506Z</time>
      </trkpt>
      <trkpt lat="48.83237" lon="2.33011">
        <ele>118.4</ele>
        <time>2015-07-20T18:34:16.522Z</time>
      </trkpt>
      <trkpt lat="48.83238" lon="2.33001">
        <ele>118.2</ele>
        <time>2015-07-20T18:34:18.557Z</time>
      </trkpt>
      <trkpt lat="48.83238" lon="2.32995">
        <ele>118.2</ele>
        <time>2015-07-20T18:34:19.567Z</time>
      </trkpt>
      <trkpt lat="48.83237" lon="2.32982">
        <ele>118.3</ele>
        <time>2015-07-20T18:34:21.497Z</time>
      </trkpt>
      <trkpt lat="48.83239" lon="2.32976">
        <ele>118.5</ele>
        <time>2015-07-20T18:34:22.586Z</time>
      </trkpt>
      <trkpt lat="48.83244" lon="2.32965">
        <ele>117.9</ele>
        <time>2015-07-20T18:34:24.549Z</time>
      </trkpt>
      <trkpt lat="48.83244" lon="2.32958">
        <ele>117.7</ele>
        <time>2015-07-20T18:34:25.476Z</time>
      </trkpt>
      <trkpt lat="48.83245" lon="2.32946">
        <ele>117.2</ele>
        <time>2015-07-20T18:34:27.518Z</time>
      </trkpt>
      <trkpt lat="48.83247" lon="2.3294">
        <ele>116.9</ele>
        <time>2015-07-20T18:34:28.520Z</time>
      </trkpt>
      <trkpt lat="48.8325" lon="2.32929">
        <ele>116.4</ele>
        <time>2015-07-20T18:34:30.568Z</time>
      </trkpt>
      <trkpt lat="48.83251" lon="2.32924">
        <ele>116.2</ele>
        <time>2015-07-20T18:34:31.562Z</time>
      </trkpt>
      <trkpt lat="48.83251" lon="2.32913">
        <ele>115.9</ele>
        <time>2015-07-20T18:34:33.519Z</time>
      </trkpt>
      <trkpt lat="48.83252" lon="2.32909">
        <ele>116</ele>
        <time>2015-07-20T18:34:34.534Z</time>
      </trkpt>
      <trkpt lat="48.83257" lon="2.32899">
        <ele>115.8</ele>
        <time>2015-07-20T18:34:36.555Z</time>
      </trkpt>
      <trkpt lat="48.83259" lon="2.32894">
        <ele>115.6</ele>
        <time>2015-07-20T18:34:37.567Z</time>
      </trkpt>
      <trkpt lat="48.83262" lon="2.32883">
        <ele>115.5</ele>
        <time>2015-07-20T18:34:39.502Z</time>
      </trkpt>
      <trkpt lat="48.83263" lon="2.32877">
        <ele>115.7</ele>
        <time>2015-07-20T18:34:40.538Z</time>
      </trkpt>
      <trkpt lat="48.83267" lon="2.32868">
        <ele>115.6</ele>
        <time>2015-07-20T18:34:42.554Z</time>
      </trkpt>
      <trkpt lat="48.83271" lon="2.32862">
        <ele>114.6</ele>
        <time>2015-07-20T18:34:43.568Z</time>
      </trkpt>
      <trkpt lat="48.83274" lon="2.32856">
        <ele>113.8</ele>
        <time>2015-07-20T18:34:44.579Z</time>
      </trkpt>
      <trkpt lat="48.83278" lon="2.32851">
        <ele>113.5</ele>
        <time>2015-07-20T18:34:45.592Z</time>
      </trkpt>
      <trkpt lat="48.83281" lon="2.32845">
        <ele>113.3</ele>
        <time>2015-07-20T18:34:46.507Z</time>
      </trkpt>
      <trkpt lat="48.83285" lon="2.3284">
        <ele>113.6</ele>
        <time>2015-07-20T18:34:47.502Z</time>
      </trkpt>
      <trkpt lat="48.83288" lon="2.32828">
        <ele>114.1</ele>
        <time>2015-07-20T18:34:49.662Z</time>
      </trkpt>
      <trkpt lat="48.83289" lon="2.32822">
        <ele>114.5</ele>
        <time>2015-07-20T18:34:50.546Z</time>
      </trkpt>
      <trkpt lat="48.83291" lon="2.32813">
        <ele>115.5</ele>
        <time>2015-07-20T18:34:52.563Z</time>
      </trkpt>
      <trkpt lat="48.83291" lon="2.32807">
        <ele>115.7</ele>
        <time>2015-07-20T18:34:53.578Z</time>
      </trkpt>
      <trkpt lat="48.83291" lon="2.32795">
        <ele>116.4</ele>
        <time>2015-07-20T18:34:56.525Z</time>
      </trkpt>
      <trkpt lat="48.83293" lon="2.32793">
        <ele>116.3</ele>
        <time>2015-07-20T18:34:57.533Z</time>
      </trkpt>
      <trkpt lat="48.83298" lon="2.32783">
        <ele>116.6</ele>
        <time>2015-07-20T18:35:00.593Z</time>
      </trkpt>
      <trkpt lat="48.83299" lon="2.32779">
        <ele>116.8</ele>
        <time>2015-07-20T18:35:01.524Z</time>
      </trkpt>
      <trkpt lat="48.83302" lon="2.32769">
        <ele>116.9</ele>
        <time>2015-07-20T18:35:04.538Z</time>
      </trkpt>
      <trkpt lat="48.83303" lon="2.32765">
        <ele>117.2</ele>
        <time>2015-07-20T18:35:05.541Z</time>
      </trkpt>
      <trkpt lat="48.833" lon="2.32755">
        <ele>117.7</ele>
        <time>2015-07-20T18:35:08.762Z</time>
      </trkpt>
      <trkpt lat="48.83297" lon="2.32752">
        <ele>117.9</ele>
        <time>2015-07-20T18:35:09.601Z</time>
      </trkpt>
      <trkpt lat="48.8329" lon="2.32746">
        <ele>118.4</ele>
        <time>2015-07-20T18:35:11.584Z</time>
      </trkpt>
      <trkpt lat="48.83286" lon="2.32743">
        <ele>118.6</ele>
        <time>2015-07-20T18:35:12.599Z</time>
      </trkpt>
      <trkpt lat="48.83281" lon="2.32733">
        <ele>119</ele>
        <time>2015-07-20T18:35:14.531Z</time>
      </trkpt>
      <trkpt lat="48.8328" lon="2.32727">
        <ele>119.1</ele>
        <time>2015-07-20T18:35:15.532Z</time>
      </trkpt>
      <trkpt lat="48.83281" lon="2.32719">
        <ele>117.1</ele>
        <time>2015-07-20T18:36:12.599Z</time>
      </trkpt>
      <trkpt lat="48.83277" lon="2.32705">
        <ele>113.7</ele>
        <time>2015-07-20T18:36:13.515Z</time>
      </trkpt>
      <trkpt lat="48.83278" lon="2.32715">
        <ele>112.6</ele>
        <time>2015-07-20T18:36:16.511Z</time>
      </trkpt>
      <trkpt lat="48.83279" lon="2.32719">
        <ele>112.7</ele>
        <time>2015-07-20T18:36:17.581Z</time>
      </trkpt>
      <trkpt lat="48.83283" lon="2.3273">
        <ele>112.4</ele>
        <time>2015-07-20T18:36:20.521Z</time>
      </trkpt>
      <trkpt lat="48.83284" lon="2.32733">
        <ele>112.5</ele>
        <time>2015-07-20T18:36:21.531Z</time>
      </trkpt>
      <trkpt lat="48.83289" lon="2.32744">
        <ele>112.4</ele>
        <time>2015-07-20T18:36:29.588Z</time>
      </trkpt>
      <trkpt lat="48.83291" lon="2.32746">
        <ele>113.1</ele>
        <time>2015-07-20T18:36:30.590Z</time>
      </trkpt>
      <trkpt lat="48.83291" lon="2.32759">
        <ele>114.3</ele>
        <time>2015-07-20T18:36:33.717Z</time>
      </trkpt>
      <trkpt lat="48.83291" lon="2.32766">
        <ele>114.3</ele>
        <time>2015-07-20T18:36:34.600Z</time>
      </trkpt>
      <trkpt lat="48.8329" lon="2.32775">
        <ele>114.2</ele>
        <time>2015-07-20T18:36:35.534Z</time>
      </trkpt>
      <trkpt lat="48.83289" lon="2.32784">
        <ele>114.7</ele>
        <time>2015-07-20T18:36:36.583Z</time>
      </trkpt>
      <trkpt lat="48.83289" lon="2.32793">
        <ele>114.8</ele>
        <time>2015-07-20T18:36:37.602Z</time>
      </trkpt>
      <trkpt lat="48.8329" lon="2.32801">
        <ele>114.9</ele>
        <time>2015-07-20T18:36:38.528Z</time>
      </trkpt>
      <trkpt lat="48.83291" lon="2.32813">
        <ele>115</ele>
        <time>2015-07-20T18:36:41.535Z</time>
      </trkpt>
      <trkpt lat="48.83291" lon="2.32815">
        <ele>115.1</ele>
        <time>2015-07-20T18:36:42.579Z</time>
      </trkpt>
      <trkpt lat="48.83296" lon="2.32823">
        <ele>115.5</ele>
        <time>2015-07-20T18:36:44.593Z</time>
      </trkpt>
      <trkpt lat="48.83299" lon="2.32827">
        <ele>115.6</ele>
        <time>2015-07-20T18:36:45.601Z</time>
      </trkpt>
      <trkpt lat="48.83304" lon="2.32837">
        <ele>115.8</ele>
        <time>2015-07-20T18:36:47.543Z</time>
      </trkpt>
      <trkpt lat="48.83307" lon="2.32842">
        <ele>115.9</ele>
        <time>2015-07-20T18:36:48.574Z</time>
      </trkpt>
      <trkpt lat="48.8331" lon="2.32848">
        <ele>115.9</ele>
        <time>2015-07-20T18:36:49.577Z</time>
      </trkpt>
      <trkpt lat="48.83314" lon="2.32853">
        <ele>115.9</ele>
        <time>2015-07-20T18:36:50.601Z</time>
      </trkpt>
      <trkpt lat="48.83322" lon="2.32859">
        <ele>116.5</ele>
        <time>2015-07-20T18:36:52.522Z</time>
      </trkpt>
      <trkpt lat="48.83332" lon="2.32857">
        <ele>115.8</ele>
        <time>2015-07-20T18:36:53.518Z</time>
      </trkpt>
      <trkpt lat="48.83338" lon="2.32859">
        <ele>115.7</ele>
        <time>2015-07-20T18:36:54.559Z</time>
      </trkpt>
      <trkpt lat="48.83342" lon="2.32863">
        <ele>115.8</ele>
        <time>2015-07-20T18:36:55.559Z</time>
      </trkpt>
      <trkpt lat="48.83346" lon="2.32867">
        <ele>116</ele>
        <time>2015-07-20T18:36:56.561Z</time>
      </trkpt>
      <trkpt lat="48.83349" lon="2.32873">
        <ele>116</ele>
        <time>2015-07-20T18:36:57.576Z</time>
      </trkpt>
      <trkpt lat="48.83355" lon="2.32881">
        <ele>116.2</ele>
        <time>2015-07-20T18:36:59.522Z</time>
      </trkpt>
      <trkpt lat="48.83359" lon="2.32885">
        <ele>116.1</ele>
        <time>2015-07-20T18:37:00.544Z</time>
      </trkpt>
      <trkpt lat="48.83364" lon="2.32888">
        <ele>115.9</ele>
        <time>2015-07-20T18:37:01.568Z</time>
      </trkpt>
      <trkpt lat="48.83371" lon="2.32892">
        <ele>115.8</ele>
        <time>2015-07-20T18:37:02.586Z</time>
      </trkpt>
      <trkpt lat="48.83377" lon="2.32896">
        <ele>115.7</ele>
        <time>2015-07-20T18:37:03.515Z</time>
      </trkpt>
      <trkpt lat="48.83382" lon="2.32899">
        <ele>115.8</ele>
        <time>2015-07-20T18:37:04.516Z</time>
      </trkpt>
      <trkpt lat="48.83386" lon="2.32902">
        <ele>115.8</ele>
        <time>2015-07-20T18:37:05.544Z</time>
      </trkpt>
      <trkpt lat="48.8339" lon="2.32905">
        <ele>116.3</ele>
        <time>2015-07-20T18:37:06.615Z</time>
      </trkpt>
      <trkpt lat="48.83393" lon="2.32906">
        <ele>116.7</ele>
        <time>2015-07-20T18:37:07.517Z</time>
      </trkpt>
      <trkpt lat="48.83399" lon="2.32905">
        <ele>114.6</ele>
        <time>2015-07-20T18:37:08.516Z</time>
      </trkpt>
      <trkpt lat="48.83407" lon="2.32911">
        <ele>115.2</ele>
        <time>2015-07-20T18:37:10.547Z</time>
      </trkpt>
      <trkpt lat="48.83411" lon="2.32916">
        <ele>115.7</ele>
        <time>2015-07-20T18:37:11.565Z</time>
      </trkpt>
      <trkpt lat="48.83415" lon="2.3292">
        <ele>116.1</ele>
        <time>2015-07-20T18:37:12.615Z</time>
      </trkpt>
      <trkpt lat="48.83419" lon="2.32925">
        <ele>116.2</ele>
        <time>2015-07-20T18:37:13.518Z</time>
      </trkpt>
      <trkpt lat="48.83426" lon="2.32932">
        <ele>116.8</ele>
        <time>2015-07-20T18:37:15.514Z</time>
      </trkpt>
      <trkpt lat="48.83429" lon="2.32934">
        <ele>116.9</ele>
        <time>2015-07-20T18:37:16.535Z</time>
      </trkpt>
      <trkpt lat="48.83436" lon="2.32939">
        <ele>117.2</ele>
        <time>2015-07-20T18:37:18.574Z</time>
      </trkpt>
      <trkpt lat="48.83438" lon="2.32941">
        <ele>117.6</ele>
        <time>2015-07-20T18:37:19.593Z</time>
      </trkpt>
      <trkpt lat="48.83444" lon="2.32946">
        <ele>117</ele>
        <time>2015-07-20T18:37:21.513Z</time>
      </trkpt>
      <trkpt lat="48.83448" lon="2.32954">
        <ele>116.6</ele>
        <time>2015-07-20T18:37:22.531Z</time>
      </trkpt>
      <trkpt lat="48.83452" lon="2.32959">
        <ele>116.7</ele>
        <time>2015-07-20T18:37:23.548Z</time>
      </trkpt>
      <trkpt lat="48.83455" lon="2.32963">
        <ele>116.9</ele>
        <time>2015-07-20T18:37:24.564Z</time>
      </trkpt>
      <trkpt lat="48.83459" lon="2.32967">
        <ele>117.2</ele>
        <time>2015-07-20T18:37:25.575Z</time>
      </trkpt>
      <trkpt lat="48.83468" lon="2.32972">
        <ele>117.6</ele>
        <time>2015-07-20T18:37:26.587Z</time>
      </trkpt>
      <trkpt lat="48.83475" lon="2.32976">
        <ele>117.8</ele>
        <time>2015-07-20T18:37:27.650Z</time>
      </trkpt>
      <trkpt lat="48.8348" lon="2.32981">
        <ele>118.2</ele>
        <time>2015-07-20T18:37:28.519Z</time>
      </trkpt>
      <trkpt lat="48.83485" lon="2.32986">
        <ele>118.5</ele>
        <time>2015-07-20T18:37:29.521Z</time>
      </trkpt>
      <trkpt lat="48.83486" lon="2.32991">
        <ele>118.4</ele>
        <time>2015-07-20T18:37:30.576Z</time>
      </trkpt>
      <trkpt lat="48.83486" lon="2.33005">
        <ele>119</ele>
        <time>2015-07-20T18:37:33.608Z</time>
      </trkpt>
      <trkpt lat="48.83484" lon="2.33009">
        <ele>118.6</ele>
        <time>2015-07-20T18:37:34.560Z</time>
      </trkpt>
      <trkpt lat="48.8348" lon="2.33017">
        <ele>118.1</ele>
        <time>2015-07-20T18:37:36.560Z</time>
      </trkpt>
      <trkpt lat="48.83478" lon="2.33022">
        <ele>118.5</ele>
        <time>2015-07-20T18:37:37.570Z</time>
      </trkpt>
      <trkpt lat="48.83474" lon="2.33031">
        <ele>118.4</ele>
        <time>2015-07-20T18:37:39.517Z</time>
      </trkpt>
      <trkpt lat="48.8347" lon="2.33037">
        <ele>118.1</ele>
        <time>2015-07-20T18:37:40.541Z</time>
      </trkpt>
      <trkpt lat="48.83464" lon="2.33046">
        <ele>117.4</ele>
        <time>2015-07-20T18:37:42.558Z</time>
      </trkpt>
      <trkpt lat="48.8346" lon="2.3305">
        <ele>116.9</ele>
        <time>2015-07-20T18:37:43.955Z</time>
      </trkpt>
      <trkpt lat="48.83455" lon="2.33059">
        <ele>116</ele>
        <time>2015-07-20T18:37:45.520Z</time>
      </trkpt>
      <trkpt lat="48.83452" lon="2.33064">
        <ele>115.4</ele>
        <time>2015-07-20T18:37:46.493Z</time>
      </trkpt>
      <trkpt lat="48.83446" lon="2.33069">
        <ele>114.4</ele>
        <time>2015-07-20T18:37:48.559Z</time>
      </trkpt>
      <trkpt lat="48.83444" lon="2.33072">
        <ele>113.9</ele>
        <time>2015-07-20T18:37:49.575Z</time>
      </trkpt>
      <trkpt lat="48.8344" lon="2.3308">
        <ele>113</ele>
        <time>2015-07-20T18:37:51.514Z</time>
      </trkpt>
      <trkpt lat="48.83438" lon="2.33084">
        <ele>112.5</ele>
        <time>2015-07-20T18:37:52.520Z</time>
      </trkpt>
      <trkpt lat="48.83432" lon="2.3309">
        <ele>112.5</ele>
        <time>2015-07-20T18:37:54.575Z</time>
      </trkpt>
      <trkpt lat="48.83429" lon="2.33092">
        <ele>112.4</ele>
        <time>2015-07-20T18:37:55.586Z</time>
      </trkpt>
      <trkpt lat="48.83421" lon="2.33098">
        <ele>111.8</ele>
        <time>2015-07-20T18:37:58.370Z</time>
      </trkpt>
      <trkpt lat="48.83417" lon="2.33101">
        <ele>111.9</ele>
        <time>2015-07-20T18:37:58.490Z</time>
      </trkpt>
      <trkpt lat="48.83413" lon="2.33105">
        <ele>111.7</ele>
        <time>2015-07-20T18:37:59.489Z</time>
      </trkpt>
      <trkpt lat="48.83409" lon="2.33108">
        <ele>111.5</ele>
        <time>2015-07-20T18:38:00.585Z</time>
      </trkpt>
      <trkpt lat="48.83405" lon="2.33117">
        <ele>111.8</ele>
        <time>2015-07-20T18:38:02.501Z</time>
      </trkpt>
      <trkpt lat="48.83403" lon="2.33121">
        <ele>111.9</ele>
        <time>2015-07-20T18:38:03.510Z</time>
      </trkpt>
      <trkpt lat="48.83401" lon="2.33133">
        <ele>111.2</ele>
        <time>2015-07-20T18:38:06.564Z</time>
      </trkpt>
      <trkpt lat="48.834" lon="2.33136">
        <ele>110.9</ele>
        <time>2015-07-20T18:38:07.494Z</time>
      </trkpt>
      <trkpt lat="48.83396" lon="2.33146">
        <ele>110.3</ele>
        <time>2015-07-20T18:38:10.568Z</time>
      </trkpt>
      <trkpt lat="48.83395" lon="2.33149">
        <ele>110.1</ele>
        <time>2015-07-20T18:38:11.594Z</time>
      </trkpt>
      <trkpt lat="48.83393" lon="2.3316">
        <ele>110.3</ele>
        <time>2015-07-20T18:38:14.534Z</time>
      </trkpt>
      <trkpt lat="48.83392" lon="2.33163">
        <ele>110.3</ele>
        <time>2015-07-20T18:38:15.542Z</time>
      </trkpt>
      <trkpt lat="48.83389" lon="2.33171">
        <ele>110.2</ele>
        <time>2015-07-20T18:38:17.570Z</time>
      </trkpt>
      <trkpt lat="48.83387" lon="2.33175">
        <ele>111.2</ele>
        <time>2015-07-20T18:38:18.574Z</time>
      </trkpt>
      <trkpt lat="48.83384" lon="2.33185">
        <ele>111.7</ele>
        <time>2015-07-20T18:38:21.547Z</time>
      </trkpt>
      <trkpt lat="48.83383" lon="2.33189">
        <ele>112</ele>
        <time>2015-07-20T18:38:22.539Z</time>
      </trkpt>
      <trkpt lat="48.83379" lon="2.33199">
        <ele>112</ele>
        <time>2015-07-20T18:38:25.531Z</time>
      </trkpt>
      <trkpt lat="48.83378" lon="2.33202">
        <ele>111.9</ele>
        <time>2015-07-20T18:38:26.534Z</time>
      </trkpt>
      <trkpt lat="48.83373" lon="2.33212">
        <ele>111.9</ele>
        <time>2015-07-20T18:38:29.501Z</time>
      </trkpt>
      <trkpt lat="48.83371" lon="2.33214">
        <ele>111.8</ele>
        <time>2015-07-20T18:38:30.612Z</time>
      </trkpt>
      <trkpt lat="48.83367" lon="2.33225">
        <ele>111.8</ele>
        <time>2015-07-20T18:38:33.772Z</time>
      </trkpt>
      <trkpt lat="48.83365" lon="2.33229">
        <ele>111.8</ele>
        <time>2015-07-20T18:38:34.521Z</time>
      </trkpt>
      <trkpt lat="48.83362" lon="2.33237">
        <ele>111.5</ele>
        <time>2015-07-20T18:38:36.563Z</time>
      </trkpt>
      <trkpt lat="48.83361" lon="2.33242">
        <ele>111.4</ele>
        <time>2015-07-20T18:38:37.570Z</time>
      </trkpt>
      <trkpt lat="48.83359" lon="2.3325">
        <ele>111</ele>
        <time>2015-07-20T18:38:39.521Z</time>
      </trkpt>
      <trkpt lat="48.83357" lon="2.33255">
        <ele>111.2</ele>
        <time>2015-07-20T18:38:40.528Z</time>
      </trkpt>
      <trkpt lat="48.83358" lon="2.33266">
        <ele>109.9</ele>
        <time>2015-07-20T18:38:43.893Z</time>
      </trkpt>
      <trkpt lat="48.83358" lon="2.33272">
        <ele>109.9</ele>
        <time>2015-07-20T18:38:44.574Z</time>
      </trkpt>
      <trkpt lat="48.83359" lon="2.33283">
        <ele>110.2</ele>
        <time>2015-07-20T18:38:46.584Z</time>
      </trkpt>
      <trkpt lat="48.83361" lon="2.33287">
        <ele>109.9</ele>
        <time>2015-07-20T18:38:47.588Z</time>
      </trkpt>
      <trkpt lat="48.83366" lon="2.33296">
        <ele>109.7</ele>
        <time>2015-07-20T18:38:49.515Z</time>
      </trkpt>
      <trkpt lat="48.83369" lon="2.333">
        <ele>109.5</ele>
        <time>2015-07-20T18:38:50.587Z</time>
      </trkpt>
      <trkpt lat="48.83374" lon="2.33306">
        <ele>109.5</ele>
        <time>2015-07-20T18:38:52.523Z</time>
      </trkpt>
      <trkpt lat="48.83375" lon="2.3331">
        <ele>110</ele>
        <time>2015-07-20T18:38:53.519Z</time>
      </trkpt>
      <trkpt lat="48.83378" lon="2.3332">
        <ele>109.2</ele>
        <time>2015-07-20T18:38:56.566Z</time>
      </trkpt>
      <trkpt lat="48.83378" lon="2.33324">
        <ele>108.3</ele>
        <time>2015-07-20T18:38:57.601Z</time>
      </trkpt>
      <trkpt lat="48.83375" lon="2.33335">
        <ele>107.6</ele>
        <time>2015-07-20T18:39:01.542Z</time>
      </trkpt>
      <trkpt lat="48.83374" lon="2.33338">
        <ele>107.8</ele>
        <time>2015-07-20T18:39:02.563Z</time>
      </trkpt>
      <trkpt lat="48.83374" lon="2.3335">
        <ele>106.5</ele>
        <time>2015-07-20T18:39:06.539Z</time>
      </trkpt>
      <trkpt lat="48.83374" lon="2.33354">
        <ele>106.2</ele>
        <time>2015-07-20T18:39:07.554Z</time>
      </trkpt>
      <trkpt lat="48.83372" lon="2.33365">
        <ele>106.1</ele>
        <time>2015-07-20T18:39:10.592Z</time>
      </trkpt>
      <trkpt lat="48.83372" lon="2.33368">
        <ele>105.7</ele>
        <time>2015-07-20T18:39:11.481Z</time>
      </trkpt>
      <trkpt lat="48.83369" lon="2.33379">
        <ele>104.7</ele>
        <time>2015-07-20T18:39:15.566Z</time>
      </trkpt>
      <trkpt lat="48.83368" lon="2.33383">
        <ele>104.6</ele>
        <time>2015-07-20T18:39:16.579Z</time>
      </trkpt>
      <trkpt lat="48.83365" lon="2.33392">
        <ele>104.4</ele>
        <time>2015-07-20T18:39:18.585Z</time>
      </trkpt>
      <trkpt lat="48.83364" lon="2.33396">
        <ele>104.7</ele>
        <time>2015-07-20T18:39:19.479Z</time>
      </trkpt>
      <trkpt lat="48.8336" lon="2.33408">
        <ele>104.9</ele>
        <time>2015-07-20T18:39:21.591Z</time>
      </trkpt>
      <trkpt lat="48.83358" lon="2.33415">
        <ele>104.9</ele>
        <time>2015-07-20T18:39:22.497Z</time>
      </trkpt>
      <trkpt lat="48.83356" lon="2.33422">
        <ele>105</ele>
        <time>2015-07-20T18:39:23.522Z</time>
      </trkpt>
      <trkpt lat="48.83354" lon="2.33428">
        <ele>104.9</ele>
        <time>2015-07-20T18:39:24.607Z</time>
      </trkpt>
      <trkpt lat="48.83353" lon="2.33434">
        <ele>104.9</ele>
        <time>2015-07-20T18:39:25.523Z</time>
      </trkpt>
      <trkpt lat="48.83351" lon="2.33441">
        <ele>104.8</ele>
        <time>2015-07-20T18:39:26.516Z</time>
      </trkpt>
      <trkpt lat="48.83349" lon="2.33448">
        <ele>104.9</ele>
        <time>2015-07-20T18:39:27.523Z</time>
      </trkpt>
      <trkpt lat="48.83347" lon="2.33455">
        <ele>104.9</ele>
        <time>2015-07-20T18:39:28.530Z</time>
      </trkpt>
      <trkpt lat="48.83345" lon="2.33463">
        <ele>105.1</ele>
        <time>2015-07-20T18:39:30.071Z</time>
      </trkpt>
      <trkpt lat="48.83343" lon="2.33471">
        <ele>105.3</ele>
        <time>2015-07-20T18:39:30.592Z</time>
      </trkpt>
      <trkpt lat="48.8334" lon="2.33479">
        <ele>105.3</ele>
        <time>2015-07-20T18:39:31.500Z</time>
      </trkpt>
      <trkpt lat="48.83337" lon="2.33488">
        <ele>105.4</ele>
        <time>2015-07-20T18:39:32.503Z</time>
      </trkpt>
      <trkpt lat="48.83335" lon="2.33498">
        <ele>105.3</ele>
        <time>2015-07-20T18:39:33.486Z</time>
      </trkpt>
      <trkpt lat="48.83332" lon="2.33508">
        <ele>105.1</ele>
        <time>2015-07-20T18:39:34.513Z</time>
      </trkpt>
      <trkpt lat="48.83331" lon="2.33517">
        <ele>105.3</ele>
        <time>2015-07-20T18:39:35.560Z</time>
      </trkpt>
      <trkpt lat="48.83329" lon="2.33525">
        <ele>105.3</ele>
        <time>2015-07-20T18:39:36.588Z</time>
      </trkpt>
      <trkpt lat="48.83326" lon="2.33534">
        <ele>105.7</ele>
        <time>2015-07-20T18:39:37.493Z</time>
      </trkpt>
      <trkpt lat="48.83323" lon="2.33542">
        <ele>106.1</ele>
        <time>2015-07-20T18:39:38.499Z</time>
      </trkpt>
      <trkpt lat="48.83321" lon="2.3355">
        <ele>106.3</ele>
        <time>2015-07-20T18:39:39.519Z</time>
      </trkpt>
      <trkpt lat="48.83318" lon="2.33557">
        <ele>106.3</ele>
        <time>2015-07-20T18:39:40.530Z</time>
      </trkpt>
      <trkpt lat="48.83316" lon="2.33565">
        <ele>106.2</ele>
        <time>2015-07-20T18:39:41.545Z</time>
      </trkpt>
      <trkpt lat="48.83315" lon="2.33572">
        <ele>106</ele>
        <time>2015-07-20T18:39:42.566Z</time>
      </trkpt>
      <trkpt lat="48.83313" lon="2.33578">
        <ele>105.8</ele>
        <time>2015-07-20T18:39:43.469Z</time>
      </trkpt>
      <trkpt lat="48.83312" lon="2.33585">
        <ele>105.5</ele>
        <time>2015-07-20T18:39:44.495Z</time>
      </trkpt>
      <trkpt lat="48.8331" lon="2.33591">
        <ele>105.5</ele>
        <time>2015-07-20T18:39:45.508Z</time>
      </trkpt>
      <trkpt lat="48.83308" lon="2.33598">
        <ele>105.5</ele>
        <time>2015-07-20T18:39:46.512Z</time>
      </trkpt>
      <trkpt lat="48.83305" lon="2.33604">
        <ele>105.4</ele>
        <time>2015-07-20T18:39:47.521Z</time>
      </trkpt>
      <trkpt lat="48.83303" lon="2.33611">
        <ele>105.2</ele>
        <time>2015-07-20T18:39:48.538Z</time>
      </trkpt>
      <trkpt lat="48.83301" lon="2.33619">
        <ele>105.1</ele>
        <time>2015-07-20T18:39:49.554Z</time>
      </trkpt>
      <trkpt lat="48.83298" lon="2.33627">
        <ele>105.1</ele>
        <time>2015-07-20T18:39:50.566Z</time>
      </trkpt>
      <trkpt lat="48.83295" lon="2.33635">
        <ele>105.2</ele>
        <time>2015-07-20T18:39:51.511Z</time>
      </trkpt>
      <trkpt lat="48.83292" lon="2.33644">
        <ele>105.4</ele>
        <time>2015-07-20T18:39:52.501Z</time>
      </trkpt>
      <trkpt lat="48.8329" lon="2.33654">
        <ele>105.9</ele>
        <time>2015-07-20T18:39:53.524Z</time>
      </trkpt>
      <trkpt lat="48.83287" lon="2.33663">
        <ele>106.4</ele>
        <time>2015-07-20T18:39:54.581Z</time>
      </trkpt>
      <trkpt lat="48.83283" lon="2.33672">
        <ele>106.7</ele>
        <time>2015-07-20T18:39:55.513Z</time>
      </trkpt>
      <trkpt lat="48.83281" lon="2.33682">
        <ele>107</ele>
        <time>2015-07-20T18:39:56.503Z</time>
      </trkpt>
      <trkpt lat="48.83278" lon="2.33692">
        <ele>107.5</ele>
        <time>2015-07-20T18:39:57.519Z</time>
      </trkpt>
      <trkpt lat="48.83275" lon="2.33703">
        <ele>107.9</ele>
        <time>2015-07-20T18:39:58.614Z</time>
      </trkpt>
      <trkpt lat="48.83273" lon="2.33715">
        <ele>108.1</ele>
        <time>2015-07-20T18:39:59.505Z</time>
      </trkpt>
      <trkpt lat="48.83271" lon="2.33726">
        <ele>108.2</ele>
        <time>2015-07-20T18:40:00.563Z</time>
      </trkpt>
      <trkpt lat="48.83268" lon="2.33737">
        <ele>108.2</ele>
        <time>2015-07-20T18:40:01.578Z</time>
      </trkpt>
      <trkpt lat="48.83265" lon="2.33747">
        <ele>108.4</ele>
        <time>2015-07-20T18:40:02.507Z</time>
      </trkpt>
      <trkpt lat="48.83263" lon="2.33758">
        <ele>108.4</ele>
        <time>2015-07-20T18:40:03.505Z</time>
      </trkpt>
      <trkpt lat="48.83259" lon="2.3377">
        <ele>108.5</ele>
        <time>2015-07-20T18:40:04.498Z</time>
      </trkpt>
      <trkpt lat="48.83256" lon="2.33782">
        <ele>108.3</ele>
        <time>2015-07-20T18:40:05.504Z</time>
      </trkpt>
      <trkpt lat="48.83252" lon="2.33794">
        <ele>107.9</ele>
        <time>2015-07-20T18:40:06.555Z</time>
      </trkpt>
      <trkpt lat="48.83249" lon="2.33806">
        <ele>107.4</ele>
        <time>2015-07-20T18:40:07.564Z</time>
      </trkpt>
      <trkpt lat="48.83245" lon="2.33818">
        <ele>107.3</ele>
        <time>2015-07-20T18:40:08.474Z</time>
      </trkpt>
      <trkpt lat="48.83243" lon="2.33831">
        <ele>106.8</ele>
        <time>2015-07-20T18:40:09.499Z</time>
      </trkpt>
      <trkpt lat="48.8324" lon="2.33843">
        <ele>106.8</ele>
        <time>2015-07-20T18:40:10.499Z</time>
      </trkpt>
      <trkpt lat="48.83238" lon="2.33855">
        <ele>106.7</ele>
        <time>2015-07-20T18:40:11.521Z</time>
      </trkpt>
      <trkpt lat="48.83236" lon="2.33868">
        <ele>107.1</ele>
        <time>2015-07-20T18:40:12.549Z</time>
      </trkpt>
      <trkpt lat="48.83233" lon="2.33882">
        <ele>107.5</ele>
        <time>2015-07-20T18:40:13.561Z</time>
      </trkpt>
      <trkpt lat="48.83231" lon="2.33894">
        <ele>107.8</ele>
        <time>2015-07-20T18:40:14.576Z</time>
      </trkpt>
      <trkpt lat="48.83228" lon="2.33907">
        <ele>108</ele>
        <time>2015-07-20T18:40:15.580Z</time>
      </trkpt>
      <trkpt lat="48.83225" lon="2.33918">
        <ele>108.1</ele>
        <time>2015-07-20T18:40:16.501Z</time>
      </trkpt>
      <trkpt lat="48.83222" lon="2.33928">
        <ele>108.1</ele>
        <time>2015-07-20T18:40:17.697Z</time>
      </trkpt>
      <trkpt lat="48.83218" lon="2.33938">
        <ele>108.2</ele>
        <time>2015-07-20T18:40:18.540Z</time>
      </trkpt>
      <trkpt lat="48.83214" lon="2.33949">
        <ele>108.1</ele>
        <time>2015-07-20T18:40:19.542Z</time>
      </trkpt>
      <trkpt lat="48.8321" lon="2.33959">
        <ele>108</ele>
        <time>2015-07-20T18:40:20.553Z</time>
      </trkpt>
      <trkpt lat="48.83208" lon="2.33969">
        <ele>108</ele>
        <time>2015-07-20T18:40:21.560Z</time>
      </trkpt>
      <trkpt lat="48.83205" lon="2.33978">
        <ele>107.7</ele>
        <time>2015-07-20T18:40:22.570Z</time>
      </trkpt>
      <trkpt lat="48.83202" lon="2.33988">
        <ele>107.3</ele>
        <time>2015-07-20T18:40:23.509Z</time>
      </trkpt>
      <trkpt lat="48.832" lon="2.33999">
        <ele>107.3</ele>
        <time>2015-07-20T18:40:24.617Z</time>
      </trkpt>
      <trkpt lat="48.83197" lon="2.3401">
        <ele>106.3</ele>
        <time>2015-07-20T18:40:25.497Z</time>
      </trkpt>
      <trkpt lat="48.83194" lon="2.34021">
        <ele>105.6</ele>
        <time>2015-07-20T18:40:26.528Z</time>
      </trkpt>
      <trkpt lat="48.83191" lon="2.34033">
        <ele>105.4</ele>
        <time>2015-07-20T18:40:27.527Z</time>
      </trkpt>
      <trkpt lat="48.83187" lon="2.34045">
        <ele>106.5</ele>
        <time>2015-07-20T18:40:28.536Z</time>
      </trkpt>
      <trkpt lat="48.83184" lon="2.34056">
        <ele>107.1</ele>
        <time>2015-07-20T18:40:29.544Z</time>
      </trkpt>
      <trkpt lat="48.83181" lon="2.34066">
        <ele>107</ele>
        <time>2015-07-20T18:40:30.627Z</time>
      </trkpt>
      <trkpt lat="48.83179" lon="2.34078">
        <ele>107.1</ele>
        <time>2015-07-20T18:40:31.486Z</time>
      </trkpt>
      <trkpt lat="48.83176" lon="2.34089">
        <ele>106.7</ele>
        <time>2015-07-20T18:40:32.523Z</time>
      </trkpt>
      <trkpt lat="48.83174" lon="2.34101">
        <ele>106.4</ele>
        <time>2015-07-20T18:40:33.539Z</time>
      </trkpt>
      <trkpt lat="48.83172" lon="2.34111">
        <ele>105.8</ele>
        <time>2015-07-20T18:40:34.548Z</time>
      </trkpt>
      <trkpt lat="48.83169" lon="2.34121">
        <ele>105.8</ele>
        <time>2015-07-20T18:40:35.555Z</time>
      </trkpt>
      <trkpt lat="48.83166" lon="2.34131">
        <ele>105.2</ele>
        <time>2015-07-20T18:40:36.560Z</time>
      </trkpt>
      <trkpt lat="48.83163" lon="2.34141">
        <ele>105.1</ele>
        <time>2015-07-20T18:40:37.590Z</time>
      </trkpt>
      <trkpt lat="48.83161" lon="2.3415">
        <ele>105.2</ele>
        <time>2015-07-20T18:40:38.491Z</time>
      </trkpt>
      <trkpt lat="48.83159" lon="2.3416">
        <ele>104.7</ele>
        <time>2015-07-20T18:40:39.497Z</time>
      </trkpt>
      <trkpt lat="48.83157" lon="2.34169">
        <ele>105</ele>
        <time>2015-07-20T18:40:40.495Z</time>
      </trkpt>
      <trkpt lat="48.83155" lon="2.34178">
        <ele>105.3</ele>
        <time>2015-07-20T18:40:41.512Z</time>
      </trkpt>
      <trkpt lat="48.83153" lon="2.34187">
        <ele>104.8</ele>
        <time>2015-07-20T18:40:42.543Z</time>
      </trkpt>
      <trkpt lat="48.8315" lon="2.34197">
        <ele>104.3</ele>
        <time>2015-07-20T18:40:43.549Z</time>
      </trkpt>
      <trkpt lat="48.83147" lon="2.34207">
        <ele>103.5</ele>
        <time>2015-07-20T18:40:44.557Z</time>
      </trkpt>
      <trkpt lat="48.83143" lon="2.34218">
        <ele>103.2</ele>
        <time>2015-07-20T18:40:45.469Z</time>
      </trkpt>
      <trkpt lat="48.83141" lon="2.34227">
        <ele>102.5</ele>
        <time>2015-07-20T18:40:46.499Z</time>
      </trkpt>
      <trkpt lat="48.83138" lon="2.34237">
        <ele>101.7</ele>
        <time>2015-07-20T18:40:47.509Z</time>
      </trkpt>
      <trkpt lat="48.83135" lon="2.34246">
        <ele>100.9</ele>
        <time>2015-07-20T18:40:48.539Z</time>
      </trkpt>
      <trkpt lat="48.83132" lon="2.34256">
        <ele>100.3</ele>
        <time>2015-07-20T18:40:49.547Z</time>
      </trkpt>
      <trkpt lat="48.83129" lon="2.34266">
        <ele>99.7</ele>
        <time>2015-07-20T18:40:50.564Z</time>
      </trkpt>
      <trkpt lat="48.83126" lon="2.34274">
        <ele>99</ele>
        <time>2015-07-20T18:40:51.641Z</time>
      </trkpt>
      <trkpt lat="48.83122" lon="2.34283">
        <ele>99</ele>
        <time>2015-07-20T18:40:52.493Z</time>
      </trkpt>
      <trkpt lat="48.83119" lon="2.34291">
        <ele>98.9</ele>
        <time>2015-07-20T18:40:53.526Z</time>
      </trkpt>
      <trkpt lat="48.83116" lon="2.34301">
        <ele>98.3</ele>
        <time>2015-07-20T18:40:54.664Z</time>
      </trkpt>
      <trkpt lat="48.83113" lon="2.34311">
        <ele>97.2</ele>
        <time>2015-07-20T18:40:55.504Z</time>
      </trkpt>
      <trkpt lat="48.8311" lon="2.34322">
        <ele>96.7</ele>
        <time>2015-07-20T18:40:56.513Z</time>
      </trkpt>
      <trkpt lat="48.83108" lon="2.34331">
        <ele>96.3</ele>
        <time>2015-07-20T18:40:57.543Z</time>
      </trkpt>
      <trkpt lat="48.83107" lon="2.34341">
        <ele>96.4</ele>
        <time>2015-07-20T18:40:58.548Z</time>
      </trkpt>
      <trkpt lat="48.83105" lon="2.34351">
        <ele>95.9</ele>
        <time>2015-07-20T18:40:59.555Z</time>
      </trkpt>
      <trkpt lat="48.83103" lon="2.3436">
        <ele>96.2</ele>
        <time>2015-07-20T18:41:00.561Z</time>
      </trkpt>
      <trkpt lat="48.83101" lon="2.3437">
        <ele>95.5</ele>
        <time>2015-07-20T18:41:01.570Z</time>
      </trkpt>
      <trkpt lat="48.83099" lon="2.34378">
        <ele>95.2</ele>
        <time>2015-07-20T18:41:02.571Z</time>
      </trkpt>
      <trkpt lat="48.83097" lon="2.34385">
        <ele>95.3</ele>
        <time>2015-07-20T18:41:03.585Z</time>
      </trkpt>
      <trkpt lat="48.83095" lon="2.34392">
        <ele>94.8</ele>
        <time>2015-07-20T18:41:04.500Z</time>
      </trkpt>
      <trkpt lat="48.83093" lon="2.34399">
        <ele>94.2</ele>
        <time>2015-07-20T18:41:05.513Z</time>
      </trkpt>
      <trkpt lat="48.83092" lon="2.34407">
        <ele>94.9</ele>
        <time>2015-07-20T18:41:06.556Z</time>
      </trkpt>
      <trkpt lat="48.83089" lon="2.34414">
        <ele>94.2</ele>
        <time>2015-07-20T18:41:07.562Z</time>
      </trkpt>
      <trkpt lat="48.83087" lon="2.34422">
        <ele>93.8</ele>
        <time>2015-07-20T18:41:08.562Z</time>
      </trkpt>
      <trkpt lat="48.83085" lon="2.3443">
        <ele>93.8</ele>
        <time>2015-07-20T18:41:09.570Z</time>
      </trkpt>
      <trkpt lat="48.83081" lon="2.34437">
        <ele>93.6</ele>
        <time>2015-07-20T18:41:10.603Z</time>
      </trkpt>
      <trkpt lat="48.83078" lon="2.34445">
        <ele>93.6</ele>
        <time>2015-07-20T18:41:11.495Z</time>
      </trkpt>
      <trkpt lat="48.83075" lon="2.34453">
        <ele>93.6</ele>
        <time>2015-07-20T18:41:12.546Z</time>
      </trkpt>
      <trkpt lat="48.83073" lon="2.34461">
        <ele>93.4</ele>
        <time>2015-07-20T18:41:13.553Z</time>
      </trkpt>
      <trkpt lat="48.83071" lon="2.34469">
        <ele>93.1</ele>
        <time>2015-07-20T18:41:14.562Z</time>
      </trkpt>
      <trkpt lat="48.83069" lon="2.34477">
        <ele>92.6</ele>
        <time>2015-07-20T18:41:15.570Z</time>
      </trkpt>
      <trkpt lat="48.83067" lon="2.34485">
        <ele>92.6</ele>
        <time>2015-07-20T18:41:16.574Z</time>
      </trkpt>
      <trkpt lat="48.83065" lon="2.34493">
        <ele>92</ele>
        <time>2015-07-20T18:41:17.494Z</time>
      </trkpt>
      <trkpt lat="48.83064" lon="2.34501">
        <ele>91.9</ele>
        <time>2015-07-20T18:41:18.599Z</time>
      </trkpt>
      <trkpt lat="48.83062" lon="2.3451">
        <ele>91.5</ele>
        <time>2015-07-20T18:41:19.506Z</time>
      </trkpt>
      <trkpt lat="48.8306" lon="2.34519">
        <ele>91.7</ele>
        <time>2015-07-20T18:41:20.513Z</time>
      </trkpt>
      <trkpt lat="48.83058" lon="2.34528">
        <ele>92.3</ele>
        <time>2015-07-20T18:41:21.529Z</time>
      </trkpt>
      <trkpt lat="48.83055" lon="2.34538">
        <ele>92.2</ele>
        <time>2015-07-20T18:41:22.541Z</time>
      </trkpt>
      <trkpt lat="48.83053" lon="2.34548">
        <ele>92.2</ele>
        <time>2015-07-20T18:41:23.555Z</time>
      </trkpt>
      <trkpt lat="48.83052" lon="2.34557">
        <ele>92.5</ele>
        <time>2015-07-20T18:41:24.561Z</time>
      </trkpt>
      <trkpt lat="48.8305" lon="2.34565">
        <ele>92.6</ele>
        <time>2015-07-20T18:41:25.568Z</time>
      </trkpt>
      <trkpt lat="48.83048" lon="2.34576">
        <ele>93.3</ele>
        <time>2015-07-20T18:41:26.575Z</time>
      </trkpt>
      <trkpt lat="48.83046" lon="2.34588">
        <ele>94.1</ele>
        <time>2015-07-20T18:41:27.580Z</time>
      </trkpt>
      <trkpt lat="48.83042" lon="2.34598">
        <ele>94.3</ele>
        <time>2015-07-20T18:41:28.586Z</time>
      </trkpt>
      <trkpt lat="48.83039" lon="2.34607">
        <ele>94.7</ele>
        <time>2015-07-20T18:41:29.499Z</time>
      </trkpt>
      <trkpt lat="48.83037" lon="2.34616">
        <ele>95.2</ele>
        <time>2015-07-20T18:41:30.553Z</time>
      </trkpt>
      <trkpt lat="48.83034" lon="2.34624">
        <ele>95.3</ele>
        <time>2015-07-20T18:41:31.580Z</time>
      </trkpt>
      <trkpt lat="48.83031" lon="2.34633">
        <ele>95.4</ele>
        <time>2015-07-20T18:41:32.594Z</time>
      </trkpt>
      <trkpt lat="48.83029" lon="2.34642">
        <ele>95.6</ele>
        <time>2015-07-20T18:41:33.508Z</time>
      </trkpt>
      <trkpt lat="48.83027" lon="2.34653">
        <ele>95.7</ele>
        <time>2015-07-20T18:41:34.508Z</time>
      </trkpt>
      <trkpt lat="48.83026" lon="2.34663">
        <ele>95.7</ele>
        <time>2015-07-20T18:41:35.519Z</time>
      </trkpt>
      <trkpt lat="48.83024" lon="2.34672">
        <ele>96</ele>
        <time>2015-07-20T18:41:36.523Z</time>
      </trkpt>
      <trkpt lat="48.83021" lon="2.34682">
        <ele>96.4</ele>
        <time>2015-07-20T18:41:37.588Z</time>
      </trkpt>
      <trkpt lat="48.83018" lon="2.34691">
        <ele>96.8</ele>
        <time>2015-07-20T18:41:38.499Z</time>
      </trkpt>
      <trkpt lat="48.83015" lon="2.34701">
        <ele>96.7</ele>
        <time>2015-07-20T18:41:39.501Z</time>
      </trkpt>
      <trkpt lat="48.83012" lon="2.3471">
        <ele>96.9</ele>
        <time>2015-07-20T18:41:40.505Z</time>
      </trkpt>
      <trkpt lat="48.83009" lon="2.34721">
        <ele>97.2</ele>
        <time>2015-07-20T18:41:41.522Z</time>
      </trkpt>
      <trkpt lat="48.83007" lon="2.34732">
        <ele>97.5</ele>
        <time>2015-07-20T18:41:42.574Z</time>
      </trkpt>
      <trkpt lat="48.83003" lon="2.34741">
        <ele>97.6</ele>
        <time>2015-07-20T18:41:43.490Z</time>
      </trkpt>
      <trkpt lat="48.83002" lon="2.34751">
        <ele>98.3</ele>
        <time>2015-07-20T18:41:44.505Z</time>
      </trkpt>
      <trkpt lat="48.83001" lon="2.34761">
        <ele>98.5</ele>
        <time>2015-07-20T18:41:45.504Z</time>
      </trkpt>
      <trkpt lat="48.82998" lon="2.3477">
        <ele>98.9</ele>
        <time>2015-07-20T18:41:46.510Z</time>
      </trkpt>
      <trkpt lat="48.82995" lon="2.34778">
        <ele>99.1</ele>
        <time>2015-07-20T18:41:47.523Z</time>
      </trkpt>
      <trkpt lat="48.82991" lon="2.34787">
        <ele>99</ele>
        <time>2015-07-20T18:41:48.550Z</time>
      </trkpt>
      <trkpt lat="48.82989" lon="2.34796">
        <ele>98.7</ele>
        <time>2015-07-20T18:41:49.561Z</time>
      </trkpt>
      <trkpt lat="48.82986" lon="2.34805">
        <ele>98.1</ele>
        <time>2015-07-20T18:41:50.575Z</time>
      </trkpt>
      <trkpt lat="48.82983" lon="2.34813">
        <ele>97.9</ele>
        <time>2015-07-20T18:41:51.577Z</time>
      </trkpt>
      <trkpt lat="48.82981" lon="2.34822">
        <ele>98.4</ele>
        <time>2015-07-20T18:41:52.582Z</time>
      </trkpt>
      <trkpt lat="48.82979" lon="2.34831">
        <ele>98.4</ele>
        <time>2015-07-20T18:41:53.506Z</time>
      </trkpt>
      <trkpt lat="48.82976" lon="2.34839">
        <ele>98.5</ele>
        <time>2015-07-20T18:41:54.578Z</time>
      </trkpt>
      <trkpt lat="48.82975" lon="2.34847">
        <ele>98.8</ele>
        <time>2015-07-20T18:41:55.591Z</time>
      </trkpt>
      <trkpt lat="48.82972" lon="2.34855">
        <ele>98.8</ele>
        <time>2015-07-20T18:41:56.506Z</time>
      </trkpt>
      <trkpt lat="48.82969" lon="2.34864">
        <ele>99.1</ele>
        <time>2015-07-20T18:41:57.501Z</time>
      </trkpt>
      <trkpt lat="48.82966" lon="2.34873">
        <ele>99.4</ele>
        <time>2015-07-20T18:41:58.515Z</time>
      </trkpt>
      <trkpt lat="48.82964" lon="2.34881">
        <ele>99.5</ele>
        <time>2015-07-20T18:41:59.524Z</time>
      </trkpt>
      <trkpt lat="48.82961" lon="2.34889">
        <ele>100</ele>
        <time>2015-07-20T18:42:00.562Z</time>
      </trkpt>
      <trkpt lat="48.82959" lon="2.34898">
        <ele>100.5</ele>
        <time>2015-07-20T18:42:01.578Z</time>
      </trkpt>
      <trkpt lat="48.82956" lon="2.34908">
        <ele>100.4</ele>
        <time>2015-07-20T18:42:02.581Z</time>
      </trkpt>
      <trkpt lat="48.82955" lon="2.34918">
        <ele>100.8</ele>
        <time>2015-07-20T18:42:03.535Z</time>
      </trkpt>
      <trkpt lat="48.82954" lon="2.34927">
        <ele>101</ele>
        <time>2015-07-20T18:42:04.503Z</time>
      </trkpt>
      <trkpt lat="48.82954" lon="2.34936">
        <ele>101</ele>
        <time>2015-07-20T18:42:05.562Z</time>
      </trkpt>
      <trkpt lat="48.82953" lon="2.34945">
        <ele>101</ele>
        <time>2015-07-20T18:42:06.540Z</time>
      </trkpt>
      <trkpt lat="48.82954" lon="2.34954">
        <ele>101.1</ele>
        <time>2015-07-20T18:42:07.551Z</time>
      </trkpt>
      <trkpt lat="48.82954" lon="2.34963">
        <ele>101.2</ele>
        <time>2015-07-20T18:42:08.557Z</time>
      </trkpt>
      <trkpt lat="48.82954" lon="2.34971">
        <ele>101</ele>
        <time>2015-07-20T18:42:09.563Z</time>
      </trkpt>
      <trkpt lat="48.82954" lon="2.3498">
        <ele>101</ele>
        <time>2015-07-20T18:42:10.573Z</time>
      </trkpt>
      <trkpt lat="48.82956" lon="2.34989">
        <ele>101.1</ele>
        <time>2015-07-20T18:42:11.578Z</time>
      </trkpt>
      <trkpt lat="48.82957" lon="2.34997">
        <ele>101.4</ele>
        <time>2015-07-20T18:42:12.587Z</time>
      </trkpt>
      <trkpt lat="48.82959" lon="2.35005">
        <ele>101.6</ele>
        <time>2015-07-20T18:42:13.528Z</time>
      </trkpt>
      <trkpt lat="48.8296" lon="2.35013">
        <ele>101.9</ele>
        <time>2015-07-20T18:42:14.503Z</time>
      </trkpt>
      <trkpt lat="48.82963" lon="2.35021">
        <ele>102.2</ele>
        <time>2015-07-20T18:42:15.497Z</time>
      </trkpt>
      <trkpt lat="48.82965" lon="2.3503">
        <ele>102.3</ele>
        <time>2015-07-20T18:42:16.501Z</time>
      </trkpt>
      <trkpt lat="48.82967" lon="2.35039">
        <ele>102.4</ele>
        <time>2015-07-20T18:42:17.513Z</time>
      </trkpt>
      <trkpt lat="48.82969" lon="2.35048">
        <ele>102.8</ele>
        <time>2015-07-20T18:42:18.537Z</time>
      </trkpt>
      <trkpt lat="48.82971" lon="2.35056">
        <ele>103</ele>
        <time>2015-07-20T18:42:19.564Z</time>
      </trkpt>
      <trkpt lat="48.82974" lon="2.35064">
        <ele>103.3</ele>
        <time>2015-07-20T18:42:20.574Z</time>
      </trkpt>
      <trkpt lat="48.82978" lon="2.35071">
        <ele>104.4</ele>
        <time>2015-07-20T18:42:21.541Z</time>
      </trkpt>
      <trkpt lat="48.8298" lon="2.3508">
        <ele>104.6</ele>
        <time>2015-07-20T18:42:22.517Z</time>
      </trkpt>
      <trkpt lat="48.82984" lon="2.35088">
        <ele>105</ele>
        <time>2015-07-20T18:42:23.540Z</time>
      </trkpt>
      <trkpt lat="48.82988" lon="2.35095">
        <ele>104.9</ele>
        <time>2015-07-20T18:42:24.550Z</time>
      </trkpt>
      <trkpt lat="48.82992" lon="2.35103">
        <ele>105</ele>
        <time>2015-07-20T18:42:25.557Z</time>
      </trkpt>
      <trkpt lat="48.82995" lon="2.35112">
        <ele>105.3</ele>
        <time>2015-07-20T18:42:26.500Z</time>
      </trkpt>
      <trkpt lat="48.82996" lon="2.3512">
        <ele>105.6</ele>
        <time>2015-07-20T18:42:27.510Z</time>
      </trkpt>
      <trkpt lat="48.82997" lon="2.35129">
        <ele>106</ele>
        <time>2015-07-20T18:42:28.517Z</time>
      </trkpt>
      <trkpt lat="48.82999" lon="2.35137">
        <ele>106.2</ele>
        <time>2015-07-20T18:42:29.527Z</time>
      </trkpt>
      <trkpt lat="48.83003" lon="2.35144">
        <ele>106.1</ele>
        <time>2015-07-20T18:42:30.580Z</time>
      </trkpt>
      <trkpt lat="48.83006" lon="2.35151">
        <ele>106</ele>
        <time>2015-07-20T18:42:31.490Z</time>
      </trkpt>
      <trkpt lat="48.83009" lon="2.35159">
        <ele>106.7</ele>
        <time>2015-07-20T18:42:32.492Z</time>
      </trkpt>
      <trkpt lat="48.8301" lon="2.35167">
        <ele>107.6</ele>
        <time>2015-07-20T18:42:33.505Z</time>
      </trkpt>
      <trkpt lat="48.83012" lon="2.35175">
        <ele>107.6</ele>
        <time>2015-07-20T18:42:34.514Z</time>
      </trkpt>
      <trkpt lat="48.83015" lon="2.35184">
        <ele>107.5</ele>
        <time>2015-07-20T18:42:35.539Z</time>
      </trkpt>
      <trkpt lat="48.83018" lon="2.35192">
        <ele>107.5</ele>
        <time>2015-07-20T18:42:36.553Z</time>
      </trkpt>
      <trkpt lat="48.83021" lon="2.35201">
        <ele>107.8</ele>
        <time>2015-07-20T18:42:37.559Z</time>
      </trkpt>
      <trkpt lat="48.83024" lon="2.35209">
        <ele>108.5</ele>
        <time>2015-07-20T18:42:38.566Z</time>
      </trkpt>
      <trkpt lat="48.83026" lon="2.35217">
        <ele>108.7</ele>
        <time>2015-07-20T18:42:39.583Z</time>
      </trkpt>
      <trkpt lat="48.83028" lon="2.35225">
        <ele>108.5</ele>
        <time>2015-07-20T18:42:40.492Z</time>
      </trkpt>
      <trkpt lat="48.83031" lon="2.35233">
        <ele>108.2</ele>
        <time>2015-07-20T18:42:41.519Z</time>
      </trkpt>
      <trkpt lat="48.83033" lon="2.35241">
        <ele>108.1</ele>
        <time>2015-07-20T18:42:42.549Z</time>
      </trkpt>
      <trkpt lat="48.83036" lon="2.35248">
        <ele>108.1</ele>
        <time>2015-07-20T18:42:43.559Z</time>
      </trkpt>
      <trkpt lat="48.83039" lon="2.35255">
        <ele>108.3</ele>
        <time>2015-07-20T18:42:44.560Z</time>
      </trkpt>
      <trkpt lat="48.83044" lon="2.35263">
        <ele>108.9</ele>
        <time>2015-07-20T18:42:45.575Z</time>
      </trkpt>
      <trkpt lat="48.83048" lon="2.3527">
        <ele>109.4</ele>
        <time>2015-07-20T18:42:46.579Z</time>
      </trkpt>
      <trkpt lat="48.83053" lon="2.35278">
        <ele>110</ele>
        <time>2015-07-20T18:42:47.512Z</time>
      </trkpt>
      <trkpt lat="48.83057" lon="2.35286">
        <ele>110.3</ele>
        <time>2015-07-20T18:42:48.604Z</time>
      </trkpt>
      <trkpt lat="48.8306" lon="2.35295">
        <ele>110.9</ele>
        <time>2015-07-20T18:42:49.508Z</time>
      </trkpt>
      <trkpt lat="48.83063" lon="2.35303">
        <ele>110.9</ele>
        <time>2015-07-20T18:42:50.507Z</time>
      </trkpt>
      <trkpt lat="48.83064" lon="2.35312">
        <ele>111.3</ele>
        <time>2015-07-20T18:42:51.517Z</time>
      </trkpt>
      <trkpt lat="48.83067" lon="2.35321">
        <ele>111.7</ele>
        <time>2015-07-20T18:42:52.524Z</time>
      </trkpt>
      <trkpt lat="48.83069" lon="2.35329">
        <ele>111.8</ele>
        <time>2015-07-20T18:42:53.540Z</time>
      </trkpt>
      <trkpt lat="48.83071" lon="2.35337">
        <ele>111.9</ele>
        <time>2015-07-20T18:42:54.556Z</time>
      </trkpt>
      <trkpt lat="48.83072" lon="2.35344">
        <ele>111.9</ele>
        <time>2015-07-20T18:42:55.564Z</time>
      </trkpt>
      <trkpt lat="48.83074" lon="2.35353">
        <ele>112</ele>
        <time>2015-07-20T18:42:56.568Z</time>
      </trkpt>
      <trkpt lat="48.83076" lon="2.3536">
        <ele>112.1</ele>
        <time>2015-07-20T18:42:57.502Z</time>
      </trkpt>
      <trkpt lat="48.83078" lon="2.35369">
        <ele>112.3</ele>
        <time>2015-07-20T18:42:58.508Z</time>
      </trkpt>
      <trkpt lat="48.8308" lon="2.35377">
        <ele>112.5</ele>
        <time>2015-07-20T18:42:59.502Z</time>
      </trkpt>
      <trkpt lat="48.83082" lon="2.35384">
        <ele>112.6</ele>
        <time>2015-07-20T18:43:00.523Z</time>
      </trkpt>
      <trkpt lat="48.83084" lon="2.35392">
        <ele>112.6</ele>
        <time>2015-07-20T18:43:01.536Z</time>
      </trkpt>
      <trkpt lat="48.83086" lon="2.35398">
        <ele>112.7</ele>
        <time>2015-07-20T18:43:02.538Z</time>
      </trkpt>
      <trkpt lat="48.83087" lon="2.35405">
        <ele>112.6</ele>
        <time>2015-07-20T18:43:03.564Z</time>
      </trkpt>
      <trkpt lat="48.83089" lon="2.35412">
        <ele>112.6</ele>
        <time>2015-07-20T18:43:04.572Z</time>
      </trkpt>
      <trkpt lat="48.83091" lon="2.35424">
        <ele>112.1</ele>
        <time>2015-07-20T18:43:06.588Z</time>
      </trkpt>
      <trkpt lat="48.83091" lon="2.35431">
        <ele>111.9</ele>
        <time>2015-07-20T18:43:07.528Z</time>
      </trkpt>
      <trkpt lat="48.83093" lon="2.35439">
        <ele>112.1</ele>
        <time>2015-07-20T18:43:09.523Z</time>
      </trkpt>
      <trkpt lat="48.83094" lon="2.35443">
        <ele>112.2</ele>
        <time>2015-07-20T18:43:10.576Z</time>
      </trkpt>
      <trkpt lat="48.83103" lon="2.35445">
        <ele>113.1</ele>
        <time>2015-07-20T18:43:15.586Z</time>
      </trkpt>
      <trkpt lat="48.83104" lon="2.35445">
        <ele>113.4</ele>
        <time>2015-07-20T18:43:16.613Z</time>
      </trkpt>
      <trkpt lat="48.8311" lon="2.35439">
        <ele>115.4</ele>
        <time>2015-07-20T18:44:49.574Z</time>
      </trkpt>
      <trkpt lat="48.83114" lon="2.35438">
        <ele>115.1</ele>
        <time>2015-07-20T18:44:50.586Z</time>
      </trkpt>
      <trkpt lat="48.83121" lon="2.35441">
        <ele>114.9</ele>
        <time>2015-07-20T18:44:53.527Z</time>
      </trkpt>
      <trkpt lat="48.83124" lon="2.35442">
        <ele>115.2</ele>
        <time>2015-07-20T18:44:54.574Z</time>
      </trkpt>
      <trkpt lat="48.83131" lon="2.35441">
        <ele>115.9</ele>
        <time>2015-07-20T18:44:56.504Z</time>
      </trkpt>
      <trkpt lat="48.83134" lon="2.35442">
        <ele>115.9</ele>
        <time>2015-07-20T18:44:57.556Z</time>
      </trkpt>
      <trkpt lat="48.83142" lon="2.35442">
        <ele>116.8</ele>
        <time>2015-07-20T18:44:59.586Z</time>
      </trkpt>
      <trkpt lat="48.83146" lon="2.35442">
        <ele>116.9</ele>
        <time>2015-07-20T18:45:00.669Z</time>
      </trkpt>
      <trkpt lat="48.83152" lon="2.3544">
        <ele>116.2</ele>
        <time>2015-07-20T18:45:01.509Z</time>
      </trkpt>
      <trkpt lat="48.83157" lon="2.35439">
        <ele>116</ele>
        <time>2015-07-20T18:45:02.577Z</time>
      </trkpt>
      <trkpt lat="48.83161" lon="2.3544">
        <ele>115.6</ele>
        <time>2015-07-20T18:45:03.515Z</time>
      </trkpt>
      <trkpt lat="48.83166" lon="2.35441">
        <ele>115.5</ele>
        <time>2015-07-20T18:45:04.524Z</time>
      </trkpt>
      <trkpt lat="48.8317" lon="2.35442">
        <ele>115.4</ele>
        <time>2015-07-20T18:45:05.529Z</time>
      </trkpt>
      <trkpt lat="48.83176" lon="2.35442">
        <ele>114.7</ele>
        <time>2015-07-20T18:45:06.547Z</time>
      </trkpt>
      <trkpt lat="48.83182" lon="2.35444">
        <ele>114.3</ele>
        <time>2015-07-20T18:45:07.548Z</time>
      </trkpt>
      <trkpt lat="48.83186" lon="2.35446">
        <ele>114.2</ele>
        <time>2015-07-20T18:45:08.562Z</time>
      </trkpt>
      <trkpt lat="48.83194" lon="2.35452">
        <ele>114.5</ele>
        <time>2015-07-20T18:45:10.578Z</time>
      </trkpt>
      <trkpt lat="48.83198" lon="2.35455">
        <ele>114.4</ele>
        <time>2015-07-20T18:45:11.551Z</time>
      </trkpt>
      <trkpt lat="48.83204" lon="2.35462">
        <ele>114.2</ele>
        <time>2015-07-20T18:45:13.470Z</time>
      </trkpt>
      <trkpt lat="48.83206" lon="2.35465">
        <ele>114.2</ele>
        <time>2015-07-20T18:45:14.527Z</time>
      </trkpt>
      <trkpt lat="48.83211" lon="2.35473">
        <ele>114.2</ele>
        <time>2015-07-20T18:45:16.560Z</time>
      </trkpt>
      <trkpt lat="48.83213" lon="2.35478">
        <ele>114.2</ele>
        <time>2015-07-20T18:45:17.566Z</time>
      </trkpt>
      <trkpt lat="48.83217" lon="2.35486">
        <ele>114.4</ele>
        <time>2015-07-20T18:45:19.539Z</time>
      </trkpt>
      <trkpt lat="48.83219" lon="2.3549">
        <ele>114.3</ele>
        <time>2015-07-20T18:45:20.477Z</time>
      </trkpt>
      <trkpt lat="48.83222" lon="2.35499">
        <ele>114.6</ele>
        <time>2015-07-20T18:45:22.530Z</time>
      </trkpt>
      <trkpt lat="48.83223" lon="2.35506">
        <ele>115.6</ele>
        <time>2015-07-20T18:45:23.545Z</time>
      </trkpt>
      <trkpt lat="48.83226" lon="2.35518">
        <ele>116.5</ele>
        <time>2015-07-20T18:45:27.502Z</time>
      </trkpt>
      <trkpt lat="48.83227" lon="2.3552">
        <ele>116.2</ele>
        <time>2015-07-20T18:45:28.589Z</time>
      </trkpt>
      <trkpt lat="48.83229" lon="2.35531">
        <ele>114.5</ele>
        <time>2015-07-20T18:46:19.528Z</time>
      </trkpt>
      <trkpt lat="48.83221" lon="2.35541">
        <ele>108</ele>
        <time>2015-07-20T18:46:20.567Z</time>
      </trkpt>
      <trkpt lat="48.83222" lon="2.35553">
        <ele>107.6</ele>
        <time>2015-07-20T18:46:24.541Z</time>
      </trkpt>
      <trkpt lat="48.83223" lon="2.35556">
        <ele>107.4</ele>
        <time>2015-07-20T18:46:25.555Z</time>
      </trkpt>
      <trkpt lat="48.83224" lon="2.35568">
        <ele>107.5</ele>
        <time>2015-07-20T18:46:29.533Z</time>
      </trkpt>
      <trkpt lat="48.83225" lon="2.35572">
        <ele>107.5</ele>
        <time>2015-07-20T18:46:30.585Z</time>
      </trkpt>
      <trkpt lat="48.83224" lon="2.35584">
        <ele>107.5</ele>
        <time>2015-07-20T18:46:34.604Z</time>
      </trkpt>
      <trkpt lat="48.83223" lon="2.35587">
        <ele>107.5</ele>
        <time>2015-07-20T18:46:35.505Z</time>
      </trkpt>
      <trkpt lat="48.83223" lon="2.35589">
        <ele>107.4</ele>
        <time>2015-07-20T18:47:20.529Z</time>
      </trkpt>
      <trkpt lat="48.83217" lon="2.35608">
        <ele>110.4</ele>
        <time>2015-07-20T18:47:21.506Z</time>
      </trkpt>
      <trkpt lat="48.83216" lon="2.3562">
        <ele>111.5</ele>
        <time>2015-07-20T18:47:25.529Z</time>
      </trkpt>
      <trkpt lat="48.83216" lon="2.35622">
        <ele>111.3</ele>
        <time>2015-07-20T18:47:26.541Z</time>
      </trkpt>
      <trkpt lat="48.83213" lon="2.3563">
        <ele>111.8</ele>
        <time>2015-07-20T18:47:28.500Z</time>
      </trkpt>
      <trkpt lat="48.83212" lon="2.35635">
        <ele>112.2</ele>
        <time>2015-07-20T18:47:29.521Z</time>
      </trkpt>
      <trkpt lat="48.83208" lon="2.35644">
        <ele>112.5</ele>
        <time>2015-07-20T18:47:31.506Z</time>
      </trkpt>
      <trkpt lat="48.83206" lon="2.35647">
        <ele>112.5</ele>
        <time>2015-07-20T18:47:32.530Z</time>
      </trkpt>
      <trkpt lat="48.83202" lon="2.35655">
        <ele>112.2</ele>
        <time>2015-07-20T18:47:34.502Z</time>
      </trkpt>
      <trkpt lat="48.83199" lon="2.35658">
        <ele>112.4</ele>
        <time>2015-07-20T18:47:35.510Z</time>
      </trkpt>
      <trkpt lat="48.83194" lon="2.35665">
        <ele>112.3</ele>
        <time>2015-07-20T18:47:37.557Z</time>
      </trkpt>
      <trkpt lat="48.83189" lon="2.35666">
        <ele>112.5</ele>
        <time>2015-07-20T18:47:38.644Z</time>
      </trkpt>
      <trkpt lat="48.83186" lon="2.35668">
        <ele>112.7</ele>
        <time>2015-07-20T18:47:39.524Z</time>
      </trkpt>
      <trkpt lat="48.83179" lon="2.35662">
        <ele>113.2</ele>
        <time>2015-07-20T18:47:40.534Z</time>
      </trkpt>
      <trkpt lat="48.83172" lon="2.35671">
        <ele>115</ele>
        <time>2015-07-20T18:47:43.591Z</time>
      </trkpt>
      <trkpt lat="48.8317" lon="2.35674">
        <ele>115.8</ele>
        <time>2015-07-20T18:47:44.506Z</time>
      </trkpt>
      <trkpt lat="48.83164" lon="2.35678">
        <ele>116.9</ele>
        <time>2015-07-20T18:47:47.563Z</time>
      </trkpt>
      <trkpt lat="48.83161" lon="2.3568">
        <ele>117.1</ele>
        <time>2015-07-20T18:47:48.583Z</time>
      </trkpt>
      <trkpt lat="48.83156" lon="2.35681">
        <ele>117.5</ele>
        <time>2015-07-20T18:47:50.498Z</time>
      </trkpt>
      <trkpt lat="48.83152" lon="2.35682">
        <ele>117.7</ele>
        <time>2015-07-20T18:47:51.521Z</time>
      </trkpt>
      <trkpt lat="48.83146" lon="2.35685">
        <ele>118.7</ele>
        <time>2015-07-20T18:47:53.578Z</time>
      </trkpt>
      <trkpt lat="48.83143" lon="2.35687">
        <ele>119.4</ele>
        <time>2015-07-20T18:47:54.637Z</time>
      </trkpt>
      <trkpt lat="48.83139" lon="2.35696">
        <ele>119.1</ele>
        <time>2015-07-20T18:47:57.561Z</time>
      </trkpt>
      <trkpt lat="48.83137" lon="2.35699">
        <ele>119</ele>
        <time>2015-07-20T18:47:58.571Z</time>
      </trkpt>
      <trkpt lat="48.8313" lon="2.35706">
        <ele>120.1</ele>
        <time>2015-07-20T18:48:02.528Z</time>
      </trkpt>
      <trkpt lat="48.83128" lon="2.35708">
        <ele>120.7</ele>
        <time>2015-07-20T18:48:03.568Z</time>
      </trkpt>
      <trkpt lat="48.83122" lon="2.35717">
        <ele>115.8</ele>
        <time>2015-07-20T18:48:30.549Z</time>
      </trkpt>
      <trkpt lat="48.83123" lon="2.35721">
        <ele>115.6</ele>
        <time>2015-07-20T18:48:31.567Z</time>
      </trkpt>
      <trkpt lat="48.83128" lon="2.35733">
        <ele>115.5</ele>
        <time>2015-07-20T18:48:34.560Z</time>
      </trkpt>
      <trkpt lat="48.83129" lon="2.35738">
        <ele>115.4</ele>
        <time>2015-07-20T18:48:35.572Z</time>
      </trkpt>
      <trkpt lat="48.83133" lon="2.3575">
        <ele>115.2</ele>
        <time>2015-07-20T18:48:37.556Z</time>
      </trkpt>
      <trkpt lat="48.83135" lon="2.35756">
        <ele>115.2</ele>
        <time>2015-07-20T18:48:38.520Z</time>
      </trkpt>
      <trkpt lat="48.83136" lon="2.35763">
        <ele>115.1</ele>
        <time>2015-07-20T18:48:39.752Z</time>
      </trkpt>
      <trkpt lat="48.83138" lon="2.35769">
        <ele>115.1</ele>
        <time>2015-07-20T18:48:40.502Z</time>
      </trkpt>
      <trkpt lat="48.83141" lon="2.35775">
        <ele>115.2</ele>
        <time>2015-07-20T18:48:41.550Z</time>
      </trkpt>
      <trkpt lat="48.83143" lon="2.35782">
        <ele>115.4</ele>
        <time>2015-07-20T18:48:42.575Z</time>
      </trkpt>
      <trkpt lat="48.83146" lon="2.35789">
        <ele>115.6</ele>
        <time>2015-07-20T18:48:43.511Z</time>
      </trkpt>
      <trkpt lat="48.83149" lon="2.35796">
        <ele>115.8</ele>
        <time>2015-07-20T18:48:44.502Z</time>
      </trkpt>
      <trkpt lat="48.83151" lon="2.35804">
        <ele>116</ele>
        <time>2015-07-20T18:48:45.542Z</time>
      </trkpt>
      <trkpt lat="48.83153" lon="2.35811">
        <ele>116.3</ele>
        <time>2015-07-20T18:48:46.546Z</time>
      </trkpt>
      <trkpt lat="48.83156" lon="2.35819">
        <ele>116.1</ele>
        <time>2015-07-20T18:48:47.564Z</time>
      </trkpt>
      <trkpt lat="48.83159" lon="2.35826">
        <ele>116</ele>
        <time>2015-07-20T18:48:48.573Z</time>
      </trkpt>
      <trkpt lat="48.83163" lon="2.35833">
        <ele>115.9</ele>
        <time>2015-07-20T18:48:49.583Z</time>
      </trkpt>
      <trkpt lat="48.83166" lon="2.3584">
        <ele>115.7</ele>
        <time>2015-07-20T18:48:50.498Z</time>
      </trkpt>
      <trkpt lat="48.8317" lon="2.35846">
        <ele>115.7</ele>
        <time>2015-07-20T18:48:51.507Z</time>
      </trkpt>
      <trkpt lat="48.83174" lon="2.35853">
        <ele>115.7</ele>
        <time>2015-07-20T18:48:52.517Z</time>
      </trkpt>
      <trkpt lat="48.83178" lon="2.35861">
        <ele>115.7</ele>
        <time>2015-07-20T18:48:53.528Z</time>
      </trkpt>
      <trkpt lat="48.83181" lon="2.35868">
        <ele>115.6</ele>
        <time>2015-07-20T18:48:54.546Z</time>
      </trkpt>
      <trkpt lat="48.83185" lon="2.35876">
        <ele>115.5</ele>
        <time>2015-07-20T18:48:55.539Z</time>
      </trkpt>
      <trkpt lat="48.83188" lon="2.35884">
        <ele>115.4</ele>
        <time>2015-07-20T18:48:56.544Z</time>
      </trkpt>
      <trkpt lat="48.83192" lon="2.35891">
        <ele>115.2</ele>
        <time>2015-07-20T18:48:57.563Z</time>
      </trkpt>
      <trkpt lat="48.83195" lon="2.35898">
        <ele>115.1</ele>
        <time>2015-07-20T18:48:58.565Z</time>
      </trkpt>
      <trkpt lat="48.83199" lon="2.35906">
        <ele>115.5</ele>
        <time>2015-07-20T18:48:59.583Z</time>
      </trkpt>
      <trkpt lat="48.83202" lon="2.35914">
        <ele>115.7</ele>
        <time>2015-07-20T18:49:00.600Z</time>
      </trkpt>
      <trkpt lat="48.83205" lon="2.35922">
        <ele>116.1</ele>
        <time>2015-07-20T18:49:01.501Z</time>
      </trkpt>
      <trkpt lat="48.83207" lon="2.35931">
        <ele>116.7</ele>
        <time>2015-07-20T18:49:02.540Z</time>
      </trkpt>
      <trkpt lat="48.8321" lon="2.35939">
        <ele>116.6</ele>
        <time>2015-07-20T18:49:03.524Z</time>
      </trkpt>
      <trkpt lat="48.83213" lon="2.35946">
        <ele>116.7</ele>
        <time>2015-07-20T18:49:04.539Z</time>
      </trkpt>
      <trkpt lat="48.83215" lon="2.35954">
        <ele>116.8</ele>
        <time>2015-07-20T18:49:05.550Z</time>
      </trkpt>
      <trkpt lat="48.83217" lon="2.35962">
        <ele>116.9</ele>
        <time>2015-07-20T18:49:06.558Z</time>
      </trkpt>
      <trkpt lat="48.83221" lon="2.35971">
        <ele>117.5</ele>
        <time>2015-07-20T18:49:07.569Z</time>
      </trkpt>
      <trkpt lat="48.83223" lon="2.35979">
        <ele>117.1</ele>
        <time>2015-07-20T18:49:08.616Z</time>
      </trkpt>
      <trkpt lat="48.83227" lon="2.35988">
        <ele>117.1</ele>
        <time>2015-07-20T18:49:09.501Z</time>
      </trkpt>
      <trkpt lat="48.8323" lon="2.35998">
        <ele>117.7</ele>
        <time>2015-07-20T18:49:10.509Z</time>
      </trkpt>
      <trkpt lat="48.83234" lon="2.36009">
        <ele>117.9</ele>
        <time>2015-07-20T18:49:11.523Z</time>
      </trkpt>
      <trkpt lat="48.83237" lon="2.36019">
        <ele>117.7</ele>
        <time>2015-07-20T18:49:12.575Z</time>
      </trkpt>
      <trkpt lat="48.83241" lon="2.36029">
        <ele>117.3</ele>
        <time>2015-07-20T18:49:13.569Z</time>
      </trkpt>
      <trkpt lat="48.83244" lon="2.36039">
        <ele>117.3</ele>
        <time>2015-07-20T18:49:14.576Z</time>
      </trkpt>
      <trkpt lat="48.83249" lon="2.36048">
        <ele>117.4</ele>
        <time>2015-07-20T18:49:15.502Z</time>
      </trkpt>
      <trkpt lat="48.83254" lon="2.36058">
        <ele>117.3</ele>
        <time>2015-07-20T18:49:16.497Z</time>
      </trkpt>
      <trkpt lat="48.83261" lon="2.36067">
        <ele>117.5</ele>
        <time>2015-07-20T18:49:17.516Z</time>
      </trkpt>
      <trkpt lat="48.83266" lon="2.36077">
        <ele>117.7</ele>
        <time>2015-07-20T18:49:18.542Z</time>
      </trkpt>
      <trkpt lat="48.83268" lon="2.3609">
        <ele>118</ele>
        <time>2015-07-20T18:49:19.569Z</time>
      </trkpt>
      <trkpt lat="48.83269" lon="2.36102">
        <ele>117.8</ele>
        <time>2015-07-20T18:49:20.572Z</time>
      </trkpt>
      <trkpt lat="48.8327" lon="2.36115">
        <ele>117.4</ele>
        <time>2015-07-20T18:49:21.604Z</time>
      </trkpt>
      <trkpt lat="48.83271" lon="2.36128">
        <ele>117.8</ele>
        <time>2015-07-20T18:49:22.601Z</time>
      </trkpt>
      <trkpt lat="48.83273" lon="2.3614">
        <ele>117.8</ele>
        <time>2015-07-20T18:49:23.499Z</time>
      </trkpt>
      <trkpt lat="48.83274" lon="2.36152">
        <ele>118.2</ele>
        <time>2015-07-20T18:49:24.546Z</time>
      </trkpt>
      <trkpt lat="48.83277" lon="2.36164">
        <ele>117.9</ele>
        <time>2015-07-20T18:49:25.546Z</time>
      </trkpt>
      <trkpt lat="48.83281" lon="2.36174">
        <ele>117.8</ele>
        <time>2015-07-20T18:49:26.555Z</time>
      </trkpt>
      <trkpt lat="48.83283" lon="2.36183">
        <ele>117.7</ele>
        <time>2015-07-20T18:49:27.564Z</time>
      </trkpt>
      <trkpt lat="48.83285" lon="2.3619">
        <ele>117.8</ele>
        <time>2015-07-20T18:49:28.573Z</time>
      </trkpt>
      <trkpt lat="48.83288" lon="2.36201">
        <ele>117.9</ele>
        <time>2015-07-20T18:49:30.594Z</time>
      </trkpt>
      <trkpt lat="48.8329" lon="2.36206">
        <ele>117.7</ele>
        <time>2015-07-20T18:49:31.520Z</time>
      </trkpt>
      <trkpt lat="48.83293" lon="2.36216">
        <ele>117.4</ele>
        <time>2015-07-20T18:49:33.497Z</time>
      </trkpt>
      <trkpt lat="48.83293" lon="2.36221">
        <ele>116.8</ele>
        <time>2015-07-20T18:49:34.518Z</time>
      </trkpt>
      <trkpt lat="48.83295" lon="2.36227">
        <ele>116.7</ele>
        <time>2015-07-20T18:49:35.539Z</time>
      </trkpt>
      <trkpt lat="48.83297" lon="2.36234">
        <ele>116.3</ele>
        <time>2015-07-20T18:49:36.560Z</time>
      </trkpt>
      <trkpt lat="48.83298" lon="2.3624">
        <ele>115.8</ele>
        <time>2015-07-20T18:49:37.490Z</time>
      </trkpt>
      <trkpt lat="48.833" lon="2.36247">
        <ele>115.4</ele>
        <time>2015-07-20T18:49:38.524Z</time>
      </trkpt>
      <trkpt lat="48.83302" lon="2.36254">
        <ele>115.2</ele>
        <time>2015-07-20T18:49:39.532Z</time>
      </trkpt>
      <trkpt lat="48.83303" lon="2.36262">
        <ele>115.2</ele>
        <time>2015-07-20T18:49:40.529Z</time>
      </trkpt>
      <trkpt lat="48.83305" lon="2.36269">
        <ele>115</ele>
        <time>2015-07-20T18:49:41.567Z</time>
      </trkpt>
      <trkpt lat="48.83307" lon="2.36277">
        <ele>114.9</ele>
        <time>2015-07-20T18:49:42.604Z</time>
      </trkpt>
      <trkpt lat="48.8331" lon="2.36285">
        <ele>114.8</ele>
        <time>2015-07-20T18:49:43.501Z</time>
      </trkpt>
      <trkpt lat="48.83313" lon="2.36291">
        <ele>114.7</ele>
        <time>2015-07-20T18:49:44.501Z</time>
      </trkpt>
      <trkpt lat="48.83317" lon="2.36298">
        <ele>114.6</ele>
        <time>2015-07-20T18:49:45.534Z</time>
      </trkpt>
      <trkpt lat="48.8332" lon="2.36306">
        <ele>114.8</ele>
        <time>2015-07-20T18:49:46.547Z</time>
      </trkpt>
      <trkpt lat="48.83324" lon="2.36314">
        <ele>115</ele>
        <time>2015-07-20T18:49:47.506Z</time>
      </trkpt>
      <trkpt lat="48.83328" lon="2.36321">
        <ele>115</ele>
        <time>2015-07-20T18:49:48.554Z</time>
      </trkpt>
      <trkpt lat="48.83331" lon="2.36329">
        <ele>115.3</ele>
        <time>2015-07-20T18:49:49.560Z</time>
      </trkpt>
      <trkpt lat="48.83335" lon="2.36337">
        <ele>115.5</ele>
        <time>2015-07-20T18:49:50.572Z</time>
      </trkpt>
      <trkpt lat="48.83338" lon="2.36345">
        <ele>115.9</ele>
        <time>2015-07-20T18:49:51.499Z</time>
      </trkpt>
      <trkpt lat="48.8334" lon="2.36353">
        <ele>116.3</ele>
        <time>2015-07-20T18:49:52.496Z</time>
      </trkpt>
      <trkpt lat="48.83343" lon="2.36361">
        <ele>116.3</ele>
        <time>2015-07-20T18:49:53.526Z</time>
      </trkpt>
      <trkpt lat="48.83345" lon="2.36369">
        <ele>116.3</ele>
        <time>2015-07-20T18:49:54.575Z</time>
      </trkpt>
      <trkpt lat="48.83347" lon="2.36376">
        <ele>115.8</ele>
        <time>2015-07-20T18:49:55.500Z</time>
      </trkpt>
      <trkpt lat="48.83349" lon="2.36384">
        <ele>115.3</ele>
        <time>2015-07-20T18:49:56.530Z</time>
      </trkpt>
      <trkpt lat="48.83351" lon="2.36391">
        <ele>115.1</ele>
        <time>2015-07-20T18:49:57.571Z</time>
      </trkpt>
      <trkpt lat="48.83353" lon="2.36399">
        <ele>114.7</ele>
        <time>2015-07-20T18:49:58.520Z</time>
      </trkpt>
      <trkpt lat="48.83356" lon="2.36407">
        <ele>114.1</ele>
        <time>2015-07-20T18:49:59.511Z</time>
      </trkpt>
      <trkpt lat="48.83359" lon="2.36414">
        <ele>113.3</ele>
        <time>2015-07-20T18:50:00.557Z</time>
      </trkpt>
      <trkpt lat="48.83363" lon="2.36422">
        <ele>113.1</ele>
        <time>2015-07-20T18:50:01.728Z</time>
      </trkpt>
      <trkpt lat="48.83365" lon="2.36432">
        <ele>113.3</ele>
        <time>2015-07-20T18:50:02.471Z</time>
      </trkpt>
      <trkpt lat="48.83368" lon="2.36441">
        <ele>113.2</ele>
        <time>2015-07-20T18:50:03.487Z</time>
      </trkpt>
      <trkpt lat="48.83371" lon="2.3645">
        <ele>113.2</ele>
        <time>2015-07-20T18:50:04.499Z</time>
      </trkpt>
      <trkpt lat="48.83374" lon="2.36458">
        <ele>113.6</ele>
        <time>2015-07-20T18:50:05.494Z</time>
      </trkpt>
      <trkpt lat="48.83378" lon="2.36467">
        <ele>113.7</ele>
        <time>2015-07-20T18:50:06.531Z</time>
      </trkpt>
      <trkpt lat="48.83383" lon="2.36475">
        <ele>113.7</ele>
        <time>2015-07-20T18:50:07.544Z</time>
      </trkpt>
      <trkpt lat="48.83389" lon="2.36483">
        <ele>113.6</ele>
        <time>2015-07-20T18:50:08.556Z</time>
      </trkpt>
      <trkpt lat="48.83395" lon="2.36491">
        <ele>113.6</ele>
        <time>2015-07-20T18:50:09.469Z</time>
      </trkpt>
      <trkpt lat="48.834" lon="2.365">
        <ele>113.7</ele>
        <time>2015-07-20T18:50:10.491Z</time>
      </trkpt>
      <trkpt lat="48.83405" lon="2.3651">
        <ele>114</ele>
        <time>2015-07-20T18:50:11.501Z</time>
      </trkpt>
      <trkpt lat="48.83407" lon="2.3652">
        <ele>114.2</ele>
        <time>2015-07-20T18:50:12.547Z</time>
      </trkpt>
      <trkpt lat="48.83411" lon="2.36531">
        <ele>114.8</ele>
        <time>2015-07-20T18:50:13.556Z</time>
      </trkpt>
      <trkpt lat="48.83415" lon="2.36542">
        <ele>115.3</ele>
        <time>2015-07-20T18:50:14.561Z</time>
      </trkpt>
      <trkpt lat="48.83418" lon="2.36552">
        <ele>115.5</ele>
        <time>2015-07-20T18:50:15.569Z</time>
      </trkpt>
      <trkpt lat="48.83421" lon="2.36562">
        <ele>115.9</ele>
        <time>2015-07-20T18:50:16.495Z</time>
      </trkpt>
      <trkpt lat="48.83423" lon="2.36573">
        <ele>115.8</ele>
        <time>2015-07-20T18:50:17.500Z</time>
      </trkpt>
      <trkpt lat="48.83426" lon="2.36583">
        <ele>114.9</ele>
        <time>2015-07-20T18:50:18.587Z</time>
      </trkpt>
      <trkpt lat="48.83429" lon="2.36594">
        <ele>114.8</ele>
        <time>2015-07-20T18:50:19.473Z</time>
      </trkpt>
      <trkpt lat="48.83432" lon="2.36604">
        <ele>115</ele>
        <time>2015-07-20T18:50:20.553Z</time>
      </trkpt>
      <trkpt lat="48.83435" lon="2.36614">
        <ele>115.3</ele>
        <time>2015-07-20T18:50:21.519Z</time>
      </trkpt>
      <trkpt lat="48.83438" lon="2.36624">
        <ele>115.4</ele>
        <time>2015-07-20T18:50:22.532Z</time>
      </trkpt>
      <trkpt lat="48.8344" lon="2.36633">
        <ele>115.4</ele>
        <time>2015-07-20T18:50:23.535Z</time>
      </trkpt>
      <trkpt lat="48.83442" lon="2.36643">
        <ele>114.9</ele>
        <time>2015-07-20T18:50:24.558Z</time>
      </trkpt>
      <trkpt lat="48.83444" lon="2.36653">
        <ele>114.2</ele>
        <time>2015-07-20T18:50:25.566Z</time>
      </trkpt>
      <trkpt lat="48.83447" lon="2.36663">
        <ele>113.7</ele>
        <time>2015-07-20T18:50:26.632Z</time>
      </trkpt>
      <trkpt lat="48.83449" lon="2.36673">
        <ele>113.3</ele>
        <time>2015-07-20T18:50:27.472Z</time>
      </trkpt>
      <trkpt lat="48.83452" lon="2.36682">
        <ele>113.2</ele>
        <time>2015-07-20T18:50:28.494Z</time>
      </trkpt>
      <trkpt lat="48.83456" lon="2.36692">
        <ele>113.3</ele>
        <time>2015-07-20T18:50:29.494Z</time>
      </trkpt>
      <trkpt lat="48.8346" lon="2.36701">
        <ele>114.1</ele>
        <time>2015-07-20T18:50:30.546Z</time>
      </trkpt>
      <trkpt lat="48.83463" lon="2.36711">
        <ele>114.3</ele>
        <time>2015-07-20T18:50:31.495Z</time>
      </trkpt>
      <trkpt lat="48.83467" lon="2.36719">
        <ele>114.6</ele>
        <time>2015-07-20T18:50:32.548Z</time>
      </trkpt>
      <trkpt lat="48.83471" lon="2.36728">
        <ele>115</ele>
        <time>2015-07-20T18:50:33.589Z</time>
      </trkpt>
      <trkpt lat="48.83474" lon="2.36737">
        <ele>115.5</ele>
        <time>2015-07-20T18:50:34.501Z</time>
      </trkpt>
      <trkpt lat="48.83476" lon="2.36747">
        <ele>115.5</ele>
        <time>2015-07-20T18:50:35.505Z</time>
      </trkpt>
      <trkpt lat="48.8348" lon="2.36755">
        <ele>115.5</ele>
        <time>2015-07-20T18:50:36.545Z</time>
      </trkpt>
      <trkpt lat="48.83483" lon="2.36763">
        <ele>115.3</ele>
        <time>2015-07-20T18:50:37.571Z</time>
      </trkpt>
      <trkpt lat="48.83487" lon="2.36772">
        <ele>115.5</ele>
        <time>2015-07-20T18:50:38.566Z</time>
      </trkpt>
      <trkpt lat="48.8349" lon="2.3678">
        <ele>115.5</ele>
        <time>2015-07-20T18:50:39.489Z</time>
      </trkpt>
      <trkpt lat="48.83492" lon="2.36789">
        <ele>115.5</ele>
        <time>2015-07-20T18:50:40.494Z</time>
      </trkpt>
      <trkpt lat="48.83495" lon="2.36798">
        <ele>115.4</ele>
        <time>2015-07-20T18:50:41.506Z</time>
      </trkpt>
      <trkpt lat="48.83497" lon="2.36807">
        <ele>115.2</ele>
        <time>2015-07-20T18:50:42.529Z</time>
      </trkpt>
      <trkpt lat="48.83499" lon="2.36816">
        <ele>114.9</ele>
        <time>2015-07-20T18:50:43.541Z</time>
      </trkpt>
      <trkpt lat="48.83501" lon="2.36823">
        <ele>114.9</ele>
        <time>2015-07-20T18:50:44.541Z</time>
      </trkpt>
      <trkpt lat="48.83504" lon="2.36831">
        <ele>115</ele>
        <time>2015-07-20T18:50:45.550Z</time>
      </trkpt>
      <trkpt lat="48.83506" lon="2.3684">
        <ele>115</ele>
        <time>2015-07-20T18:50:46.560Z</time>
      </trkpt>
      <trkpt lat="48.83511" lon="2.36847">
        <ele>114.6</ele>
        <time>2015-07-20T18:50:47.572Z</time>
      </trkpt>
      <trkpt lat="48.83514" lon="2.36855">
        <ele>114.4</ele>
        <time>2015-07-20T18:50:48.583Z</time>
      </trkpt>
      <trkpt lat="48.83517" lon="2.36864">
        <ele>114.3</ele>
        <time>2015-07-20T18:50:49.488Z</time>
      </trkpt>
      <trkpt lat="48.83519" lon="2.36875">
        <ele>114.4</ele>
        <time>2015-07-20T18:50:50.486Z</time>
      </trkpt>
      <trkpt lat="48.83522" lon="2.36885">
        <ele>114.4</ele>
        <time>2015-07-20T18:50:51.500Z</time>
      </trkpt>
      <trkpt lat="48.83526" lon="2.36894">
        <ele>114.7</ele>
        <time>2015-07-20T18:50:52.512Z</time>
      </trkpt>
      <trkpt lat="48.83529" lon="2.36903">
        <ele>114.7</ele>
        <time>2015-07-20T18:50:53.521Z</time>
      </trkpt>
      <trkpt lat="48.83531" lon="2.36911">
        <ele>113.9</ele>
        <time>2015-07-20T18:50:54.547Z</time>
      </trkpt>
      <trkpt lat="48.83532" lon="2.3692">
        <ele>113.6</ele>
        <time>2015-07-20T18:50:55.560Z</time>
      </trkpt>
      <trkpt lat="48.83534" lon="2.36928">
        <ele>113.1</ele>
        <time>2015-07-20T18:50:56.564Z</time>
      </trkpt>
      <trkpt lat="48.83536" lon="2.36937">
        <ele>112.9</ele>
        <time>2015-07-20T18:50:57.574Z</time>
      </trkpt>
      <trkpt lat="48.83539" lon="2.36945">
        <ele>112.7</ele>
        <time>2015-07-20T18:50:58.512Z</time>
      </trkpt>
      <trkpt lat="48.83542" lon="2.36953">
        <ele>112.8</ele>
        <time>2015-07-20T18:50:59.525Z</time>
      </trkpt>
      <trkpt lat="48.83547" lon="2.36961">
        <ele>112.6</ele>
        <time>2015-07-20T18:51:00.532Z</time>
      </trkpt>
      <trkpt lat="48.83552" lon="2.36968">
        <ele>112.7</ele>
        <time>2015-07-20T18:51:01.563Z</time>
      </trkpt>
      <trkpt lat="48.83557" lon="2.36974">
        <ele>112.9</ele>
        <time>2015-07-20T18:51:02.577Z</time>
      </trkpt>
      <trkpt lat="48.83561" lon="2.36981">
        <ele>113.2</ele>
        <time>2015-07-20T18:51:03.489Z</time>
      </trkpt>
      <trkpt lat="48.83565" lon="2.36987">
        <ele>113.4</ele>
        <time>2015-07-20T18:51:04.497Z</time>
      </trkpt>
      <trkpt lat="48.8357" lon="2.36994">
        <ele>113.2</ele>
        <time>2015-07-20T18:51:05.502Z</time>
      </trkpt>
      <trkpt lat="48.83575" lon="2.36999">
        <ele>113.1</ele>
        <time>2015-07-20T18:51:06.550Z</time>
      </trkpt>
      <trkpt lat="48.8358" lon="2.37005">
        <ele>113.1</ele>
        <time>2015-07-20T18:51:07.562Z</time>
      </trkpt>
      <trkpt lat="48.83583" lon="2.37012">
        <ele>112.8</ele>
        <time>2015-07-20T18:51:08.572Z</time>
      </trkpt>
      <trkpt lat="48.83585" lon="2.37019">
        <ele>113</ele>
        <time>2015-07-20T18:51:09.496Z</time>
      </trkpt>
      <trkpt lat="48.83587" lon="2.37026">
        <ele>113.5</ele>
        <time>2015-07-20T18:51:10.470Z</time>
      </trkpt>
      <trkpt lat="48.8359" lon="2.37034">
        <ele>114.2</ele>
        <time>2015-07-20T18:51:11.477Z</time>
      </trkpt>
      <trkpt lat="48.83593" lon="2.37042">
        <ele>114.4</ele>
        <time>2015-07-20T18:51:12.563Z</time>
      </trkpt>
      <trkpt lat="48.83596" lon="2.3705">
        <ele>114.9</ele>
        <time>2015-07-20T18:51:13.495Z</time>
      </trkpt>
      <trkpt lat="48.836" lon="2.37058">
        <ele>115.1</ele>
        <time>2015-07-20T18:51:14.500Z</time>
      </trkpt>
      <trkpt lat="48.83602" lon="2.37067">
        <ele>115.2</ele>
        <time>2015-07-20T18:51:15.511Z</time>
      </trkpt>
      <trkpt lat="48.83605" lon="2.37074">
        <ele>115.5</ele>
        <time>2015-07-20T18:51:16.526Z</time>
      </trkpt>
      <trkpt lat="48.83607" lon="2.37081">
        <ele>115.6</ele>
        <time>2015-07-20T18:51:17.547Z</time>
      </trkpt>
      <trkpt lat="48.8361" lon="2.37088">
        <ele>115.9</ele>
        <time>2015-07-20T18:51:18.554Z</time>
      </trkpt>
      <trkpt lat="48.83611" lon="2.37101">
        <ele>115.6</ele>
        <time>2015-07-20T18:51:20.495Z</time>
      </trkpt>
      <trkpt lat="48.83611" lon="2.37107">
        <ele>114.8</ele>
        <time>2015-07-20T18:51:21.518Z</time>
      </trkpt>
      <trkpt lat="48.83613" lon="2.37119">
        <ele>113.9</ele>
        <time>2015-07-20T18:51:23.534Z</time>
      </trkpt>
      <trkpt lat="48.83614" lon="2.37125">
        <ele>113.4</ele>
        <time>2015-07-20T18:51:24.588Z</time>
      </trkpt>
      <trkpt lat="48.83617" lon="2.37137">
        <ele>112.9</ele>
        <time>2015-07-20T18:51:26.498Z</time>
      </trkpt>
      <trkpt lat="48.83618" lon="2.37143">
        <ele>112.5</ele>
        <time>2015-07-20T18:51:27.561Z</time>
      </trkpt>
      <trkpt lat="48.83622" lon="2.37152">
        <ele>111.8</ele>
        <time>2015-07-20T18:51:29.539Z</time>
      </trkpt>
      <trkpt lat="48.83624" lon="2.37157">
        <ele>111.3</ele>
        <time>2015-07-20T18:51:30.607Z</time>
      </trkpt>
      <trkpt lat="48.83629" lon="2.37168">
        <ele>110.4</ele>
        <time>2015-07-20T18:51:32.525Z</time>
      </trkpt>
      <trkpt lat="48.83632" lon="2.37174">
        <ele>110.2</ele>
        <time>2015-07-20T18:51:33.608Z</time>
      </trkpt>
      <trkpt lat="48.83637" lon="2.3718">
        <ele>110.1</ele>
        <time>2015-07-20T18:51:34.521Z</time>
      </trkpt>
      <trkpt lat="48.83642" lon="2.37186">
        <ele>109.9</ele>
        <time>2015-07-20T18:51:35.534Z</time>
      </trkpt>
      <trkpt lat="48.83648" lon="2.37192">
        <ele>109.5</ele>
        <time>2015-07-20T18:51:36.560Z</time>
      </trkpt>
      <trkpt lat="48.83654" lon="2.37198">
        <ele>109.5</ele>
        <time>2015-07-20T18:51:37.579Z</time>
      </trkpt>
      <trkpt lat="48.83659" lon="2.37206">
        <ele>109.7</ele>
        <time>2015-07-20T18:51:38.588Z</time>
      </trkpt>
      <trkpt lat="48.83664" lon="2.37213">
        <ele>110.1</ele>
        <time>2015-07-20T18:51:39.495Z</time>
      </trkpt>
      <trkpt lat="48.8367" lon="2.3722">
        <ele>110.3</ele>
        <time>2015-07-20T18:51:40.499Z</time>
      </trkpt>
      <trkpt lat="48.83676" lon="2.37227">
        <ele>110</ele>
        <time>2015-07-20T18:51:41.528Z</time>
      </trkpt>
      <trkpt lat="48.83682" lon="2.37232">
        <ele>109.8</ele>
        <time>2015-07-20T18:51:42.550Z</time>
      </trkpt>
      <trkpt lat="48.83688" lon="2.37239">
        <ele>109.8</ele>
        <time>2015-07-20T18:51:43.563Z</time>
      </trkpt>
      <trkpt lat="48.83692" lon="2.37246">
        <ele>109.7</ele>
        <time>2015-07-20T18:51:44.635Z</time>
      </trkpt>
      <trkpt lat="48.83695" lon="2.37253">
        <ele>109.7</ele>
        <time>2015-07-20T18:51:45.524Z</time>
      </trkpt>
      <trkpt lat="48.83699" lon="2.3726">
        <ele>109.6</ele>
        <time>2015-07-20T18:51:46.545Z</time>
      </trkpt>
      <trkpt lat="48.83702" lon="2.37268">
        <ele>109.7</ele>
        <time>2015-07-20T18:51:47.557Z</time>
      </trkpt>
      <trkpt lat="48.83706" lon="2.37276">
        <ele>110</ele>
        <time>2015-07-20T18:51:48.618Z</time>
      </trkpt>
      <trkpt lat="48.83709" lon="2.37283">
        <ele>110.2</ele>
        <time>2015-07-20T18:51:49.482Z</time>
      </trkpt>
      <trkpt lat="48.83712" lon="2.3729">
        <ele>110.4</ele>
        <time>2015-07-20T18:51:50.569Z</time>
      </trkpt>
      <trkpt lat="48.83714" lon="2.37298">
        <ele>110.5</ele>
        <time>2015-07-20T18:51:51.591Z</time>
      </trkpt>
      <trkpt lat="48.83718" lon="2.37305">
        <ele>110.3</ele>
        <time>2015-07-20T18:51:52.548Z</time>
      </trkpt>
      <trkpt lat="48.83722" lon="2.37312">
        <ele>110.3</ele>
        <time>2015-07-20T18:51:53.527Z</time>
      </trkpt>
      <trkpt lat="48.83726" lon="2.37318">
        <ele>110.3</ele>
        <time>2015-07-20T18:51:54.567Z</time>
      </trkpt>
      <trkpt lat="48.83729" lon="2.37325">
        <ele>110.2</ele>
        <time>2015-07-20T18:51:55.554Z</time>
      </trkpt>
      <trkpt lat="48.83729" lon="2.37333">
        <ele>109.9</ele>
        <time>2015-07-20T18:51:56.520Z</time>
      </trkpt>
      <trkpt lat="48.83731" lon="2.37341">
        <ele>110</ele>
        <time>2015-07-20T18:51:57.623Z</time>
      </trkpt>
      <trkpt lat="48.83734" lon="2.37348">
        <ele>110</ele>
        <time>2015-07-20T18:51:58.544Z</time>
      </trkpt>
      <trkpt lat="48.83737" lon="2.37356">
        <ele>110.2</ele>
        <time>2015-07-20T18:51:59.551Z</time>
      </trkpt>
      <trkpt lat="48.83739" lon="2.37364">
        <ele>109.9</ele>
        <time>2015-07-20T18:52:00.576Z</time>
      </trkpt>
      <trkpt lat="48.83743" lon="2.37372">
        <ele>109.6</ele>
        <time>2015-07-20T18:52:01.573Z</time>
      </trkpt>
      <trkpt lat="48.83747" lon="2.37378">
        <ele>109.4</ele>
        <time>2015-07-20T18:52:02.505Z</time>
      </trkpt>
      <trkpt lat="48.83749" lon="2.37385">
        <ele>108.3</ele>
        <time>2015-07-20T18:52:03.518Z</time>
      </trkpt>
      <trkpt lat="48.83751" lon="2.37398">
        <ele>105.3</ele>
        <time>2015-07-20T18:52:05.515Z</time>
      </trkpt>
      <trkpt lat="48.83752" lon="2.37404">
        <ele>104.7</ele>
        <time>2015-07-20T18:52:06.626Z</time>
      </trkpt>
      <trkpt lat="48.83757" lon="2.37415">
        <ele>103.7</ele>
        <time>2015-07-20T18:52:08.517Z</time>
      </trkpt>
      <trkpt lat="48.8376" lon="2.37421">
        <ele>103.4</ele>
        <time>2015-07-20T18:52:09.589Z</time>
      </trkpt>
      <trkpt lat="48.83762" lon="2.37427">
        <ele>102.9</ele>
        <time>2015-07-20T18:52:10.496Z</time>
      </trkpt>
      <trkpt lat="48.83764" lon="2.37433">
        <ele>102.2</ele>
        <time>2015-07-20T18:52:11.517Z</time>
      </trkpt>
      <trkpt lat="48.83767" lon="2.3744">
        <ele>102.2</ele>
        <time>2015-07-20T18:52:12.594Z</time>
      </trkpt>
      <trkpt lat="48.8377" lon="2.37446">
        <ele>101.9</ele>
        <time>2015-07-20T18:52:13.562Z</time>
      </trkpt>
      <trkpt lat="48.83774" lon="2.37451">
        <ele>101.8</ele>
        <time>2015-07-20T18:52:14.494Z</time>
      </trkpt>
      <trkpt lat="48.83777" lon="2.37457">
        <ele>101.7</ele>
        <time>2015-07-20T18:52:15.494Z</time>
      </trkpt>
      <trkpt lat="48.83781" lon="2.37463">
        <ele>101.7</ele>
        <time>2015-07-20T18:52:16.576Z</time>
      </trkpt>
      <trkpt lat="48.83785" lon="2.37469">
        <ele>101.9</ele>
        <time>2015-07-20T18:52:17.564Z</time>
      </trkpt>
      <trkpt lat="48.83789" lon="2.37474">
        <ele>102</ele>
        <time>2015-07-20T18:52:18.614Z</time>
      </trkpt>
      <trkpt lat="48.83793" lon="2.3748">
        <ele>101.9</ele>
        <time>2015-07-20T18:52:19.497Z</time>
      </trkpt>
      <trkpt lat="48.83796" lon="2.37486">
        <ele>101.7</ele>
        <time>2015-07-20T18:52:20.583Z</time>
      </trkpt>
      <trkpt lat="48.83799" lon="2.37491">
        <ele>101.3</ele>
        <time>2015-07-20T18:52:21.517Z</time>
      </trkpt>
      <trkpt lat="48.83802" lon="2.37497">
        <ele>100.7</ele>
        <time>2015-07-20T18:52:22.496Z</time>
      </trkpt>
      <trkpt lat="48.83805" lon="2.37503">
        <ele>100.3</ele>
        <time>2015-07-20T18:52:23.498Z</time>
      </trkpt>
      <trkpt lat="48.83808" lon="2.37509">
        <ele>99.9</ele>
        <time>2015-07-20T18:52:24.540Z</time>
      </trkpt>
      <trkpt lat="48.83812" lon="2.37514">
        <ele>99.8</ele>
        <time>2015-07-20T18:52:25.530Z</time>
      </trkpt>
      <trkpt lat="48.83816" lon="2.3752">
        <ele>99.7</ele>
        <time>2015-07-20T18:52:26.543Z</time>
      </trkpt>
      <trkpt lat="48.83819" lon="2.37525">
        <ele>99.4</ele>
        <time>2015-07-20T18:52:27.560Z</time>
      </trkpt>
      <trkpt lat="48.83822" lon="2.37531">
        <ele>99.2</ele>
        <time>2015-07-20T18:52:28.585Z</time>
      </trkpt>
      <trkpt lat="48.83825" lon="2.37537">
        <ele>99.1</ele>
        <time>2015-07-20T18:52:29.573Z</time>
      </trkpt>
      <trkpt lat="48.83827" lon="2.37543">
        <ele>99</ele>
        <time>2015-07-20T18:52:30.580Z</time>
      </trkpt>
      <trkpt lat="48.8383" lon="2.3755">
        <ele>99</ele>
        <time>2015-07-20T18:52:31.465Z</time>
      </trkpt>
      <trkpt lat="48.83833" lon="2.37556">
        <ele>98.8</ele>
        <time>2015-07-20T18:52:32.555Z</time>
      </trkpt>
      <trkpt lat="48.83837" lon="2.37562">
        <ele>98.4</ele>
        <time>2015-07-20T18:52:33.568Z</time>
      </trkpt>
      <trkpt lat="48.8384" lon="2.37568">
        <ele>98.2</ele>
        <time>2015-07-20T18:52:34.491Z</time>
      </trkpt>
      <trkpt lat="48.83843" lon="2.37574">
        <ele>98</ele>
        <time>2015-07-20T18:52:35.486Z</time>
      </trkpt>
      <trkpt lat="48.83847" lon="2.3758">
        <ele>98</ele>
        <time>2015-07-20T18:52:36.543Z</time>
      </trkpt>
      <trkpt lat="48.83851" lon="2.37586">
        <ele>98</ele>
        <time>2015-07-20T18:52:37.534Z</time>
      </trkpt>
      <trkpt lat="48.83854" lon="2.37593">
        <ele>97.9</ele>
        <time>2015-07-20T18:52:38.495Z</time>
      </trkpt>
      <trkpt lat="48.83858" lon="2.376">
        <ele>98</ele>
        <time>2015-07-20T18:52:39.492Z</time>
      </trkpt>
      <trkpt lat="48.83861" lon="2.37606">
        <ele>98.2</ele>
        <time>2015-07-20T18:52:40.518Z</time>
      </trkpt>
      <trkpt lat="48.83865" lon="2.37613">
        <ele>98.3</ele>
        <time>2015-07-20T18:52:41.531Z</time>
      </trkpt>
      <trkpt lat="48.83869" lon="2.3762">
        <ele>98.4</ele>
        <time>2015-07-20T18:52:42.578Z</time>
      </trkpt>
      <trkpt lat="48.83872" lon="2.37627">
        <ele>98.1</ele>
        <time>2015-07-20T18:52:43.501Z</time>
      </trkpt>
      <trkpt lat="48.83875" lon="2.37634">
        <ele>97.8</ele>
        <time>2015-07-20T18:52:44.496Z</time>
      </trkpt>
      <trkpt lat="48.83879" lon="2.3764">
        <ele>97.5</ele>
        <time>2015-07-20T18:52:45.498Z</time>
      </trkpt>
      <trkpt lat="48.83883" lon="2.37647">
        <ele>97.6</ele>
        <time>2015-07-20T18:52:46.517Z</time>
      </trkpt>
      <trkpt lat="48.83887" lon="2.37655">
        <ele>97.7</ele>
        <time>2015-07-20T18:52:47.529Z</time>
      </trkpt>
      <trkpt lat="48.8389" lon="2.37664">
        <ele>97.8</ele>
        <time>2015-07-20T18:52:48.542Z</time>
      </trkpt>
      <trkpt lat="48.83895" lon="2.37672">
        <ele>97.5</ele>
        <time>2015-07-20T18:52:49.555Z</time>
      </trkpt>
      <trkpt lat="48.839" lon="2.3768">
        <ele>97.6</ele>
        <time>2015-07-20T18:52:50.569Z</time>
      </trkpt>
      <trkpt lat="48.83904" lon="2.37689">
        <ele>97.2</ele>
        <time>2015-07-20T18:52:51.576Z</time>
      </trkpt>
      <trkpt lat="48.83908" lon="2.37698">
        <ele>97</ele>
        <time>2015-07-20T18:52:52.497Z</time>
      </trkpt>
      <trkpt lat="48.83913" lon="2.37706">
        <ele>96.8</ele>
        <time>2015-07-20T18:52:53.491Z</time>
      </trkpt>
      <trkpt lat="48.83919" lon="2.37716">
        <ele>96.5</ele>
        <time>2015-07-20T18:52:54.545Z</time>
      </trkpt>
      <trkpt lat="48.83925" lon="2.37725">
        <ele>96.4</ele>
        <time>2015-07-20T18:52:55.553Z</time>
      </trkpt>
      <trkpt lat="48.83931" lon="2.37735">
        <ele>96.3</ele>
        <time>2015-07-20T18:52:56.558Z</time>
      </trkpt>
      <trkpt lat="48.83937" lon="2.37745">
        <ele>96.1</ele>
        <time>2015-07-20T18:52:57.571Z</time>
      </trkpt>
      <trkpt lat="48.83943" lon="2.37755">
        <ele>96</ele>
        <time>2015-07-20T18:52:58.487Z</time>
      </trkpt>
      <trkpt lat="48.8395" lon="2.37764">
        <ele>95.9</ele>
        <time>2015-07-20T18:52:59.518Z</time>
      </trkpt>
      <trkpt lat="48.83955" lon="2.37773">
        <ele>95.7</ele>
        <time>2015-07-20T18:53:00.656Z</time>
      </trkpt>
      <trkpt lat="48.83961" lon="2.37783">
        <ele>95.8</ele>
        <time>2015-07-20T18:53:01.490Z</time>
      </trkpt>
      <trkpt lat="48.83966" lon="2.37793">
        <ele>95.8</ele>
        <time>2015-07-20T18:53:02.503Z</time>
      </trkpt>
      <trkpt lat="48.83971" lon="2.37802">
        <ele>96</ele>
        <time>2015-07-20T18:53:03.505Z</time>
      </trkpt>
      <trkpt lat="48.83977" lon="2.37811">
        <ele>96.7</ele>
        <time>2015-07-20T18:53:04.525Z</time>
      </trkpt>
      <trkpt lat="48.83982" lon="2.3782">
        <ele>97.5</ele>
        <time>2015-07-20T18:53:05.530Z</time>
      </trkpt>
      <trkpt lat="48.83987" lon="2.37828">
        <ele>98.5</ele>
        <time>2015-07-20T18:53:06.566Z</time>
      </trkpt>
      <trkpt lat="48.8399" lon="2.37835">
        <ele>99.3</ele>
        <time>2015-07-20T18:53:07.480Z</time>
      </trkpt>
      <trkpt lat="48.83993" lon="2.37842">
        <ele>100.1</ele>
        <time>2015-07-20T18:53:08.512Z</time>
      </trkpt>
      <trkpt lat="48.83995" lon="2.37849">
        <ele>100.5</ele>
        <time>2015-07-20T18:53:09.506Z</time>
      </trkpt>
      <trkpt lat="48.83999" lon="2.37857">
        <ele>100.7</ele>
        <time>2015-07-20T18:53:10.534Z</time>
      </trkpt>
      <trkpt lat="48.84003" lon="2.37867">
        <ele>101.1</ele>
        <time>2015-07-20T18:53:11.533Z</time>
      </trkpt>
      <trkpt lat="48.84009" lon="2.3788">
        <ele>100.7</ele>
        <time>2015-07-20T18:53:12.542Z</time>
      </trkpt>
      <trkpt lat="48.84013" lon="2.37893">
        <ele>100.3</ele>
        <time>2015-07-20T18:53:13.547Z</time>
      </trkpt>
      <trkpt lat="48.84017" lon="2.37902">
        <ele>99.9</ele>
        <time>2015-07-20T18:53:14.553Z</time>
      </trkpt>
      <trkpt lat="48.84022" lon="2.37911">
        <ele>99</ele>
        <time>2015-07-20T18:53:15.560Z</time>
      </trkpt>
      <trkpt lat="48.84027" lon="2.37915">
        <ele>97</ele>
        <time>2015-07-20T18:53:16.572Z</time>
      </trkpt>
      <trkpt lat="48.84031" lon="2.37918">
        <ele>96</ele>
        <time>2015-07-20T18:53:17.577Z</time>
      </trkpt>
      <trkpt lat="48.84038" lon="2.37923">
        <ele>94</ele>
        <time>2015-07-20T18:53:20.525Z</time>
      </trkpt>
      <trkpt lat="48.84039" lon="2.37923">
        <ele>93.7</ele>
        <time>2015-07-20T18:53:21.577Z</time>
      </trkpt>
      <trkpt lat="48.84046" lon="2.37931">
        <ele>95</ele>
        <time>2015-07-20T18:53:24.523Z</time>
      </trkpt>
      <trkpt lat="48.84049" lon="2.37937">
        <ele>95.3</ele>
        <time>2015-07-20T18:53:25.533Z</time>
      </trkpt>
      <trkpt lat="48.84051" lon="2.3795">
        <ele>95.2</ele>
        <time>2015-07-20T18:53:27.567Z</time>
      </trkpt>
      <trkpt lat="48.84052" lon="2.37957">
        <ele>94.8</ele>
        <time>2015-07-20T18:53:28.568Z</time>
      </trkpt>
      <trkpt lat="48.84052" lon="2.37964">
        <ele>93.3</ele>
        <time>2015-07-20T18:53:29.505Z</time>
      </trkpt>
      <trkpt lat="48.8405" lon="2.37971">
        <ele>91.1</ele>
        <time>2015-07-20T18:53:30.544Z</time>
      </trkpt>
      <trkpt lat="48.84049" lon="2.37977">
        <ele>89.9</ele>
        <time>2015-07-20T18:53:31.537Z</time>
      </trkpt>
      <trkpt lat="48.84047" lon="2.37985">
        <ele>89.1</ele>
        <time>2015-07-20T18:53:32.558Z</time>
      </trkpt>
      <trkpt lat="48.84046" lon="2.37993">
        <ele>89.4</ele>
        <time>2015-07-20T18:53:33.645Z</time>
      </trkpt>
      <trkpt lat="48.84045" lon="2.38001">
        <ele>89.6</ele>
        <time>2015-07-20T18:53:34.493Z</time>
      </trkpt>
      <trkpt lat="48.84045" lon="2.38009">
        <ele>89.6</ele>
        <time>2015-07-20T18:53:35.494Z</time>
      </trkpt>
      <trkpt lat="48.84044" lon="2.38017">
        <ele>89.5</ele>
        <time>2015-07-20T18:53:36.539Z</time>
      </trkpt>
      <trkpt lat="48.84041" lon="2.38029">
        <ele>89.9</ele>
        <time>2015-07-20T18:53:38.464Z</time>
      </trkpt>
      <trkpt lat="48.8404" lon="2.38035">
        <ele>90.2</ele>
        <time>2015-07-20T18:53:39.505Z</time>
      </trkpt>
      <trkpt lat="48.84038" lon="2.38042">
        <ele>90.5</ele>
        <time>2015-07-20T18:53:40.511Z</time>
      </trkpt>
      <trkpt lat="48.84036" lon="2.38049">
        <ele>90.8</ele>
        <time>2015-07-20T18:53:41.566Z</time>
      </trkpt>
      <trkpt lat="48.84032" lon="2.38055">
        <ele>91</ele>
        <time>2015-07-20T18:53:42.638Z</time>
      </trkpt>
      <trkpt lat="48.84029" lon="2.3806">
        <ele>91.1</ele>
        <time>2015-07-20T18:53:43.467Z</time>
      </trkpt>
      <trkpt lat="48.84028" lon="2.38069">
        <ele>91.2</ele>
        <time>2015-07-20T18:53:44.386Z</time>
      </trkpt>
      <trkpt lat="48.84027" lon="2.38077">
        <ele>91</ele>
        <time>2015-07-20T18:53:45.499Z</time>
      </trkpt>
      <trkpt lat="48.84025" lon="2.38086">
        <ele>90.9</ele>
        <time>2015-07-20T18:53:46.528Z</time>
      </trkpt>
      <trkpt lat="48.84023" lon="2.38094">
        <ele>91</ele>
        <time>2015-07-20T18:53:47.536Z</time>
      </trkpt>
      <trkpt lat="48.84022" lon="2.38102">
        <ele>91.3</ele>
        <time>2015-07-20T18:53:48.512Z</time>
      </trkpt>
      <trkpt lat="48.84021" lon="2.38109">
        <ele>91.6</ele>
        <time>2015-07-20T18:53:49.577Z</time>
      </trkpt>
      <trkpt lat="48.84018" lon="2.38116">
        <ele>91.9</ele>
        <time>2015-07-20T18:53:50.470Z</time>
      </trkpt>
      <trkpt lat="48.84016" lon="2.38123">
        <ele>92</ele>
        <time>2015-07-20T18:53:51.494Z</time>
      </trkpt>
      <trkpt lat="48.84015" lon="2.38134">
        <ele>92</ele>
        <time>2015-07-20T18:53:52.501Z</time>
      </trkpt>
      <trkpt lat="48.84014" lon="2.38145">
        <ele>92.2</ele>
        <time>2015-07-20T18:53:53.512Z</time>
      </trkpt>
      <trkpt lat="48.84012" lon="2.38153">
        <ele>92.3</ele>
        <time>2015-07-20T18:53:54.541Z</time>
      </trkpt>
      <trkpt lat="48.84012" lon="2.38161">
        <ele>91.8</ele>
        <time>2015-07-20T18:53:55.536Z</time>
      </trkpt>
      <trkpt lat="48.84012" lon="2.3817">
        <ele>91.4</ele>
        <time>2015-07-20T18:53:56.549Z</time>
      </trkpt>
      <trkpt lat="48.84012" lon="2.38178">
        <ele>91</ele>
        <time>2015-07-20T18:53:57.562Z</time>
      </trkpt>
      <trkpt lat="48.84011" lon="2.38185">
        <ele>90.6</ele>
        <time>2015-07-20T18:53:58.570Z</time>
      </trkpt>
      <trkpt lat="48.84008" lon="2.38193">
        <ele>89.6</ele>
        <time>2015-07-20T18:53:59.577Z</time>
      </trkpt>
      <trkpt lat="48.84005" lon="2.382">
        <ele>89.1</ele>
        <time>2015-07-20T18:54:00.581Z</time>
      </trkpt>
      <trkpt lat="48.84003" lon="2.38207">
        <ele>88.7</ele>
        <time>2015-07-20T18:54:01.497Z</time>
      </trkpt>
      <trkpt lat="48.84001" lon="2.38215">
        <ele>88.4</ele>
        <time>2015-07-20T18:54:02.493Z</time>
      </trkpt>
      <trkpt lat="48.83999" lon="2.38222">
        <ele>88.4</ele>
        <time>2015-07-20T18:54:03.501Z</time>
      </trkpt>
      <trkpt lat="48.83997" lon="2.3823">
        <ele>88.2</ele>
        <time>2015-07-20T18:54:04.534Z</time>
      </trkpt>
      <trkpt lat="48.83996" lon="2.38237">
        <ele>87.6</ele>
        <time>2015-07-20T18:54:05.545Z</time>
      </trkpt>
      <trkpt lat="48.83993" lon="2.38245">
        <ele>87.1</ele>
        <time>2015-07-20T18:54:06.558Z</time>
      </trkpt>
      <trkpt lat="48.83992" lon="2.38253">
        <ele>87.1</ele>
        <time>2015-07-20T18:54:07.572Z</time>
      </trkpt>
      <trkpt lat="48.8399" lon="2.3826">
        <ele>86.3</ele>
        <time>2015-07-20T18:54:08.497Z</time>
      </trkpt>
      <trkpt lat="48.83988" lon="2.38268">
        <ele>86.1</ele>
        <time>2015-07-20T18:54:09.495Z</time>
      </trkpt>
      <trkpt lat="48.83986" lon="2.38275">
        <ele>85.9</ele>
        <time>2015-07-20T18:54:10.494Z</time>
      </trkpt>
      <trkpt lat="48.83983" lon="2.38282">
        <ele>86.4</ele>
        <time>2015-07-20T18:54:11.515Z</time>
      </trkpt>
      <trkpt lat="48.83981" lon="2.38289">
        <ele>86.1</ele>
        <time>2015-07-20T18:54:12.538Z</time>
      </trkpt>
      <trkpt lat="48.83979" lon="2.38296">
        <ele>85.7</ele>
        <time>2015-07-20T18:54:13.544Z</time>
      </trkpt>
      <trkpt lat="48.83963" lon="2.38367">
        <ele>86.3</ele>
        <time>2015-07-20T18:54:21.482Z</time>
      </trkpt>
      <trkpt lat="48.83967" lon="2.38381">
        <ele>86.6</ele>
        <time>2015-07-20T18:54:22.487Z</time>
      </trkpt>
      <trkpt lat="48.8397" lon="2.38417">
        <ele>86.2</ele>
        <time>2015-07-20T18:54:25.562Z</time>
      </trkpt>
      <trkpt lat="48.83968" lon="2.38428">
        <ele>88.8</ele>
        <time>2015-07-20T18:54:26.491Z</time>
      </trkpt>
      <trkpt lat="48.83967" lon="2.38435">
        <ele>88</ele>
        <time>2015-07-20T18:54:27.495Z</time>
      </trkpt>
      <trkpt lat="48.83963" lon="2.38444">
        <ele>84.7</ele>
        <time>2015-07-20T18:54:28.510Z</time>
      </trkpt>
      <trkpt lat="48.83961" lon="2.38452">
        <ele>84.8</ele>
        <time>2015-07-20T18:54:29.516Z</time>
      </trkpt>
      <trkpt lat="48.8396" lon="2.3846">
        <ele>83.9</ele>
        <time>2015-07-20T18:54:30.536Z</time>
      </trkpt>
      <trkpt lat="48.83958" lon="2.38468">
        <ele>84.5</ele>
        <time>2015-07-20T18:54:31.548Z</time>
      </trkpt>
      <trkpt lat="48.83956" lon="2.38478">
        <ele>85.6</ele>
        <time>2015-07-20T18:54:32.559Z</time>
      </trkpt>
      <trkpt lat="48.83954" lon="2.38487">
        <ele>85.4</ele>
        <time>2015-07-20T18:54:33.603Z</time>
      </trkpt>
      <trkpt lat="48.83953" lon="2.38497">
        <ele>85.8</ele>
        <time>2015-07-20T18:54:34.466Z</time>
      </trkpt>
      <trkpt lat="48.8395" lon="2.38506">
        <ele>85.9</ele>
        <time>2015-07-20T18:54:35.468Z</time>
      </trkpt>
      <trkpt lat="48.83947" lon="2.38515">
        <ele>86.1</ele>
        <time>2015-07-20T18:54:36.671Z</time>
      </trkpt>
      <trkpt lat="48.83944" lon="2.38523">
        <ele>85.3</ele>
        <time>2015-07-20T18:54:37.494Z</time>
      </trkpt>
      <trkpt lat="48.83941" lon="2.38531">
        <ele>86.1</ele>
        <time>2015-07-20T18:54:38.506Z</time>
      </trkpt>
      <trkpt lat="48.83936" lon="2.38539">
        <ele>87.6</ele>
        <time>2015-07-20T18:54:39.569Z</time>
      </trkpt>
      <trkpt lat="48.83914" lon="2.38573">
        <ele>90.3</ele>
        <time>2015-07-20T18:54:44.516Z</time>
      </trkpt>
      <trkpt lat="48.8391" lon="2.38579">
        <ele>91.1</ele>
        <time>2015-07-20T18:54:45.538Z</time>
      </trkpt>
      <trkpt lat="48.83908" lon="2.38589">
        <ele>90.9</ele>
        <time>2015-07-20T18:54:46.515Z</time>
      </trkpt>
      <trkpt lat="48.83907" lon="2.38596">
        <ele>90.6</ele>
        <time>2015-07-20T18:54:47.495Z</time>
      </trkpt>
      <trkpt lat="48.83905" lon="2.38603">
        <ele>89.9</ele>
        <time>2015-07-20T18:54:48.536Z</time>
      </trkpt>
      <trkpt lat="48.83901" lon="2.38612">
        <ele>90.5</ele>
        <time>2015-07-20T18:54:49.546Z</time>
      </trkpt>
      <trkpt lat="48.83897" lon="2.38625">
        <ele>90.8</ele>
        <time>2015-07-20T18:54:50.548Z</time>
      </trkpt>
      <trkpt lat="48.83894" lon="2.38637">
        <ele>90.7</ele>
        <time>2015-07-20T18:54:51.559Z</time>
      </trkpt>
      <trkpt lat="48.83892" lon="2.38647">
        <ele>89.7</ele>
        <time>2015-07-20T18:54:52.569Z</time>
      </trkpt>
      <trkpt lat="48.83892" lon="2.38657">
        <ele>89.8</ele>
        <time>2015-07-20T18:54:53.580Z</time>
      </trkpt>
      <trkpt lat="48.83896" lon="2.3867">
        <ele>89.2</ele>
        <time>2015-07-20T18:54:54.600Z</time>
      </trkpt>
      <trkpt lat="48.83902" lon="2.38684">
        <ele>88.5</ele>
        <time>2015-07-20T18:54:55.494Z</time>
      </trkpt>
      <trkpt lat="48.83905" lon="2.38707">
        <ele>91.5</ele>
        <time>2015-07-20T18:54:56.501Z</time>
      </trkpt>
      <trkpt lat="48.83907" lon="2.3872">
        <ele>91.8</ele>
        <time>2015-07-20T18:54:57.514Z</time>
      </trkpt>
      <trkpt lat="48.83907" lon="2.38735">
        <ele>89.9</ele>
        <time>2015-07-20T18:54:58.538Z</time>
      </trkpt>
      <trkpt lat="48.83907" lon="2.38745">
        <ele>89.8</ele>
        <time>2015-07-20T18:54:59.547Z</time>
      </trkpt>
      <trkpt lat="48.83907" lon="2.38756">
        <ele>90</ele>
        <time>2015-07-20T18:55:00.562Z</time>
      </trkpt>
      <trkpt lat="48.83909" lon="2.38766">
        <ele>95.2</ele>
        <time>2015-07-20T18:55:01.486Z</time>
      </trkpt>
      <trkpt lat="48.83909" lon="2.38776">
        <ele>97.7</ele>
        <time>2015-07-20T18:55:02.489Z</time>
      </trkpt>
      <trkpt lat="48.83909" lon="2.38786">
        <ele>100.3</ele>
        <time>2015-07-20T18:55:03.595Z</time>
      </trkpt>
      <trkpt lat="48.83907" lon="2.38796">
        <ele>101.3</ele>
        <time>2015-07-20T18:55:04.519Z</time>
      </trkpt>
      <trkpt lat="48.83904" lon="2.38805">
        <ele>101.6</ele>
        <time>2015-07-20T18:55:05.526Z</time>
      </trkpt>
      <trkpt lat="48.83903" lon="2.38814">
        <ele>101.3</ele>
        <time>2015-07-20T18:55:06.536Z</time>
      </trkpt>
      <trkpt lat="48.83901" lon="2.38822">
        <ele>101.3</ele>
        <time>2015-07-20T18:55:07.542Z</time>
      </trkpt>
      <trkpt lat="48.83901" lon="2.38832">
        <ele>102</ele>
        <time>2015-07-20T18:55:08.499Z</time>
      </trkpt>
      <trkpt lat="48.839" lon="2.3884">
        <ele>101.3</ele>
        <time>2015-07-20T18:55:09.513Z</time>
      </trkpt>
      <trkpt lat="48.83899" lon="2.38848">
        <ele>100.2</ele>
        <time>2015-07-20T18:55:10.520Z</time>
      </trkpt>
      <trkpt lat="48.83898" lon="2.38855">
        <ele>99.4</ele>
        <time>2015-07-20T18:55:11.551Z</time>
      </trkpt>
      <trkpt lat="48.83897" lon="2.38863">
        <ele>98.9</ele>
        <time>2015-07-20T18:55:12.559Z</time>
      </trkpt>
      <trkpt lat="48.83897" lon="2.3887">
        <ele>98.4</ele>
        <time>2015-07-20T18:55:13.575Z</time>
      </trkpt>
      <trkpt lat="48.83897" lon="2.38877">
        <ele>98.1</ele>
        <time>2015-07-20T18:55:14.515Z</time>
      </trkpt>
      <trkpt lat="48.83898" lon="2.3889">
        <ele>95.9</ele>
        <time>2015-07-20T18:55:16.520Z</time>
      </trkpt>
      <trkpt lat="48.83898" lon="2.38896">
        <ele>94.8</ele>
        <time>2015-07-20T18:55:17.534Z</time>
      </trkpt>
      <trkpt lat="48.83899" lon="2.38906">
        <ele>94.4</ele>
        <time>2015-07-20T18:55:19.558Z</time>
      </trkpt>
      <trkpt lat="48.83899" lon="2.3891">
        <ele>94.7</ele>
        <time>2015-07-20T18:55:20.642Z</time>
      </trkpt>
      <trkpt lat="48.83906" lon="2.38908">
        <ele>99.4</ele>
        <time>2015-07-20T18:55:38.524Z</time>
      </trkpt>
      <trkpt lat="48.83908" lon="2.38906">
        <ele>100</ele>
        <time>2015-07-20T18:55:39.539Z</time>
      </trkpt>
      <trkpt lat="48.83914" lon="2.38905">
        <ele>103.1</ele>
        <time>2015-07-20T18:57:16.560Z</time>
      </trkpt>
      <trkpt lat="48.83923" lon="2.38911">
        <ele>110.7</ele>
        <time>2015-07-20T18:57:17.579Z</time>
      </trkpt>
      <trkpt lat="48.83929" lon="2.38905">
        <ele>110.8</ele>
        <time>2015-07-20T18:57:19.526Z</time>
      </trkpt>
      <trkpt lat="48.83933" lon="2.38901">
        <ele>110.6</ele>
        <time>2015-07-20T18:57:20.541Z</time>
      </trkpt>
      <trkpt lat="48.83937" lon="2.38896">
        <ele>109.7</ele>
        <time>2015-07-20T18:57:21.567Z</time>
      </trkpt>
      <trkpt lat="48.8394" lon="2.3889">
        <ele>109.5</ele>
        <time>2015-07-20T18:57:22.571Z</time>
      </trkpt>
      <trkpt lat="48.83945" lon="2.38881">
        <ele>109.8</ele>
        <time>2015-07-20T18:57:24.547Z</time>
      </trkpt>
      <trkpt lat="48.83945" lon="2.38874">
        <ele>110.3</ele>
        <time>2015-07-20T18:57:25.533Z</time>
      </trkpt>
      <trkpt lat="48.83949" lon="2.38863">
        <ele>110.9</ele>
        <time>2015-07-20T18:57:27.571Z</time>
      </trkpt>
      <trkpt lat="48.83953" lon="2.38859">
        <ele>111</ele>
        <time>2015-07-20T18:57:28.580Z</time>
      </trkpt>
      <trkpt lat="48.83961" lon="2.38854">
        <ele>110.9</ele>
        <time>2015-07-20T18:57:30.584Z</time>
      </trkpt>
      <trkpt lat="48.83965" lon="2.38853">
        <ele>111</ele>
        <time>2015-07-20T18:57:31.484Z</time>
      </trkpt>
      <trkpt lat="48.83973" lon="2.38849">
        <ele>111.4</ele>
        <time>2015-07-20T18:57:33.519Z</time>
      </trkpt>
      <trkpt lat="48.83978" lon="2.38846">
        <ele>111.3</ele>
        <time>2015-07-20T18:57:34.532Z</time>
      </trkpt>
      <trkpt lat="48.83982" lon="2.38843">
        <ele>111.2</ele>
        <time>2015-07-20T18:57:35.547Z</time>
      </trkpt>
      <trkpt lat="48.83987" lon="2.3884">
        <ele>110.9</ele>
        <time>2015-07-20T18:57:36.559Z</time>
      </trkpt>
      <trkpt lat="48.83991" lon="2.38837">
        <ele>110.8</ele>
        <time>2015-07-20T18:57:37.467Z</time>
      </trkpt>
      <trkpt lat="48.83995" lon="2.38833">
        <ele>110.7</ele>
        <time>2015-07-20T18:57:38.493Z</time>
      </trkpt>
      <trkpt lat="48.84" lon="2.3883">
        <ele>110.5</ele>
        <time>2015-07-20T18:57:39.488Z</time>
      </trkpt>
      <trkpt lat="48.84004" lon="2.38827">
        <ele>110</ele>
        <time>2015-07-20T18:57:40.504Z</time>
      </trkpt>
      <trkpt lat="48.84009" lon="2.38825">
        <ele>109.7</ele>
        <time>2015-07-20T18:57:41.516Z</time>
      </trkpt>
      <trkpt lat="48.84014" lon="2.38824">
        <ele>109.5</ele>
        <time>2015-07-20T18:57:42.546Z</time>
      </trkpt>
      <trkpt lat="48.84022" lon="2.38819">
        <ele>109.2</ele>
        <time>2015-07-20T18:57:44.554Z</time>
      </trkpt>
      <trkpt lat="48.84026" lon="2.38817">
        <ele>109.2</ele>
        <time>2015-07-20T18:57:45.578Z</time>
      </trkpt>
      <trkpt lat="48.84031" lon="2.38815">
        <ele>109.1</ele>
        <time>2015-07-20T18:57:46.487Z</time>
      </trkpt>
      <trkpt lat="48.84035" lon="2.38812">
        <ele>109.5</ele>
        <time>2015-07-20T18:57:47.502Z</time>
      </trkpt>
      <trkpt lat="48.84042" lon="2.38807">
        <ele>109.8</ele>
        <time>2015-07-20T18:57:49.870Z</time>
      </trkpt>
      <trkpt lat="48.84046" lon="2.38803">
        <ele>109.9</ele>
        <time>2015-07-20T18:57:50.552Z</time>
      </trkpt>
      <trkpt lat="48.84053" lon="2.38796">
        <ele>109.3</ele>
        <time>2015-07-20T18:57:52.504Z</time>
      </trkpt>
      <trkpt lat="48.84057" lon="2.38792">
        <ele>109.3</ele>
        <time>2015-07-20T18:57:53.511Z</time>
      </trkpt>
      <trkpt lat="48.8406" lon="2.38787">
        <ele>109.3</ele>
        <time>2015-07-20T18:57:54.544Z</time>
      </trkpt>
      <trkpt lat="48.84064" lon="2.38782">
        <ele>109.5</ele>
        <time>2015-07-20T18:57:55.555Z</time>
      </trkpt>
      <trkpt lat="48.84068" lon="2.38777">
        <ele>109.9</ele>
        <time>2015-07-20T18:57:56.558Z</time>
      </trkpt>
      <trkpt lat="48.84072" lon="2.38772">
        <ele>109.9</ele>
        <time>2015-07-20T18:57:57.570Z</time>
      </trkpt>
      <trkpt lat="48.84079" lon="2.38765">
        <ele>109.6</ele>
        <time>2015-07-20T18:57:59.462Z</time>
      </trkpt>
      <trkpt lat="48.84082" lon="2.38762">
        <ele>109.6</ele>
        <time>2015-07-20T18:58:00.517Z</time>
      </trkpt>
      <trkpt lat="48.84089" lon="2.38764">
        <ele>108.5</ele>
        <time>2015-07-20T18:58:02.531Z</time>
      </trkpt>
      <trkpt lat="48.84093" lon="2.38767">
        <ele>108.5</ele>
        <time>2015-07-20T18:58:03.539Z</time>
      </trkpt>
      <trkpt lat="48.84099" lon="2.38771">
        <ele>106.8</ele>
        <time>2015-07-20T18:58:04.448Z</time>
      </trkpt>
      <trkpt lat="48.84104" lon="2.38775">
        <ele>105.8</ele>
        <time>2015-07-20T18:58:05.476Z</time>
      </trkpt>
      <trkpt lat="48.8411" lon="2.38784">
        <ele>105.1</ele>
        <time>2015-07-20T18:58:08.543Z</time>
      </trkpt>
      <trkpt lat="48.84112" lon="2.38786">
        <ele>105.2</ele>
        <time>2015-07-20T18:58:09.567Z</time>
      </trkpt>
      <trkpt lat="48.84112" lon="2.38791">
        <ele>105.1</ele>
        <time>2015-07-20T18:59:51.517Z</time>
      </trkpt>
      <trkpt lat="48.84134" lon="2.38756">
        <ele>115.5</ele>
        <time>2015-07-20T18:59:52.572Z</time>
      </trkpt>
      <trkpt lat="48.84139" lon="2.38746">
        <ele>113.7</ele>
        <time>2015-07-20T18:59:56.521Z</time>
      </trkpt>
      <trkpt lat="48.8414" lon="2.38743">
        <ele>113.3</ele>
        <time>2015-07-20T18:59:57.516Z</time>
      </trkpt>
      <trkpt lat="48.84144" lon="2.38731">
        <ele>111.8</ele>
        <time>2015-07-20T19:00:01.483Z</time>
      </trkpt>
      <trkpt lat="48.84146" lon="2.3873">
        <ele>111.6</ele>
        <time>2015-07-20T19:00:02.508Z</time>
      </trkpt>
      <trkpt lat="48.8415" lon="2.38735">
        <ele>111.2</ele>
        <time>2015-07-20T19:00:03.542Z</time>
      </trkpt>
      <trkpt lat="48.84154" lon="2.38742">
        <ele>110.5</ele>
        <time>2015-07-20T19:00:04.547Z</time>
      </trkpt>
      <trkpt lat="48.84159" lon="2.38752">
        <ele>108.8</ele>
        <time>2015-07-20T19:02:42.553Z</time>
      </trkpt>
      <trkpt lat="48.84159" lon="2.38762">
        <ele>102.6</ele>
        <time>2015-07-20T19:02:43.561Z</time>
      </trkpt>
      <trkpt lat="48.84165" lon="2.38751">
        <ele>100.5</ele>
        <time>2015-07-20T19:02:46.590Z</time>
      </trkpt>
      <trkpt lat="48.84167" lon="2.38747">
        <ele>99.8</ele>
        <time>2015-07-20T19:02:47.606Z</time>
      </trkpt>
      <trkpt lat="48.8417" lon="2.38734">
        <ele>98.8</ele>
        <time>2015-07-20T19:02:49.540Z</time>
      </trkpt>
      <trkpt lat="48.84171" lon="2.38728">
        <ele>98.8</ele>
        <time>2015-07-20T19:02:50.592Z</time>
      </trkpt>
      <trkpt lat="48.84172" lon="2.38721">
        <ele>98.5</ele>
        <time>2015-07-20T19:02:51.518Z</time>
      </trkpt>
      <trkpt lat="48.84172" lon="2.38713">
        <ele>98.6</ele>
        <time>2015-07-20T19:02:52.491Z</time>
      </trkpt>
      <trkpt lat="48.84172" lon="2.38704">
        <ele>98.7</ele>
        <time>2015-07-20T19:02:53.542Z</time>
      </trkpt>
      <trkpt lat="48.84172" lon="2.38697">
        <ele>98.5</ele>
        <time>2015-07-20T19:02:54.559Z</time>
      </trkpt>
      <trkpt lat="48.84172" lon="2.3869">
        <ele>98.3</ele>
        <time>2015-07-20T19:02:55.557Z</time>
      </trkpt>
      <trkpt lat="48.84173" lon="2.38681">
        <ele>98.2</ele>
        <time>2015-07-20T19:02:56.490Z</time>
      </trkpt>
      <trkpt lat="48.84173" lon="2.38672">
        <ele>98</ele>
        <time>2015-07-20T19:02:57.494Z</time>
      </trkpt>
      <trkpt lat="48.84176" lon="2.38667">
        <ele>97.9</ele>
        <time>2015-07-20T19:02:58.507Z</time>
      </trkpt>
      <trkpt lat="48.8418" lon="2.38662">
        <ele>97.5</ele>
        <time>2015-07-20T19:02:59.515Z</time>
      </trkpt>
      <trkpt lat="48.84183" lon="2.38655">
        <ele>96.8</ele>
        <time>2015-07-20T19:03:00.536Z</time>
      </trkpt>
      <trkpt lat="48.84185" lon="2.38648">
        <ele>96.5</ele>
        <time>2015-07-20T19:03:01.549Z</time>
      </trkpt>
      <trkpt lat="48.84188" lon="2.38642">
        <ele>96.3</ele>
        <time>2015-07-20T19:03:02.554Z</time>
      </trkpt>
      <trkpt lat="48.84194" lon="2.38633">
        <ele>95.6</ele>
        <time>2015-07-20T19:03:04.502Z</time>
      </trkpt>
      <trkpt lat="48.84197" lon="2.38629">
        <ele>95.6</ele>
        <time>2015-07-20T19:03:05.599Z</time>
      </trkpt>
      <trkpt lat="48.84202" lon="2.38623">
        <ele>96.1</ele>
        <time>2015-07-20T19:03:07.488Z</time>
      </trkpt>
      <trkpt lat="48.84204" lon="2.38621">
        <ele>96.1</ele>
        <time>2015-07-20T19:03:08.492Z</time>
      </trkpt>
      <trkpt lat="48.8421" lon="2.38616">
        <ele>96.1</ele>
        <time>2015-07-20T19:03:10.519Z</time>
      </trkpt>
      <trkpt lat="48.84214" lon="2.38613">
        <ele>96.1</ele>
        <time>2015-07-20T19:03:11.523Z</time>
      </trkpt>
      <trkpt lat="48.84219" lon="2.38606">
        <ele>96.2</ele>
        <time>2015-07-20T19:03:13.535Z</time>
      </trkpt>
      <trkpt lat="48.84222" lon="2.38603">
        <ele>96.2</ele>
        <time>2015-07-20T19:03:14.548Z</time>
      </trkpt>
      <trkpt lat="48.84229" lon="2.38597">
        <ele>96.3</ele>
        <time>2015-07-20T19:03:16.485Z</time>
      </trkpt>
      <trkpt lat="48.84232" lon="2.38594">
        <ele>96.8</ele>
        <time>2015-07-20T19:03:17.516Z</time>
      </trkpt>
      <trkpt lat="48.8424" lon="2.38591">
        <ele>98.1</ele>
        <time>2015-07-20T19:03:19.489Z</time>
      </trkpt>
      <trkpt lat="48.84245" lon="2.3859">
        <ele>99</ele>
        <time>2015-07-20T19:03:20.511Z</time>
      </trkpt>
      <trkpt lat="48.84252" lon="2.3859">
        <ele>100.9</ele>
        <time>2015-07-20T19:03:22.537Z</time>
      </trkpt>
      <trkpt lat="48.84255" lon="2.38587">
        <ele>101.3</ele>
        <time>2015-07-20T19:03:23.553Z</time>
      </trkpt>
      <trkpt lat="48.84261" lon="2.38581">
        <ele>100.7</ele>
        <time>2015-07-20T19:03:27.530Z</time>
      </trkpt>
      <trkpt lat="48.84263" lon="2.38579">
        <ele>100.3</ele>
        <time>2015-07-20T19:03:28.552Z</time>
      </trkpt>
      <trkpt lat="48.84269" lon="2.38576">
        <ele>99.9</ele>
        <time>2015-07-20T19:03:30.545Z</time>
      </trkpt>
      <trkpt lat="48.84272" lon="2.38574">
        <ele>99.8</ele>
        <time>2015-07-20T19:03:31.465Z</time>
      </trkpt>
      <trkpt lat="48.84279" lon="2.3857">
        <ele>99.8</ele>
        <time>2015-07-20T19:03:33.498Z</time>
      </trkpt>
      <trkpt lat="48.84283" lon="2.38568">
        <ele>99.8</ele>
        <time>2015-07-20T19:03:34.516Z</time>
      </trkpt>
      <trkpt lat="48.8429" lon="2.38563">
        <ele>99.7</ele>
        <time>2015-07-20T19:03:36.588Z</time>
      </trkpt>
      <trkpt lat="48.84291" lon="2.3856">
        <ele>99.7</ele>
        <time>2015-07-20T19:03:37.480Z</time>
      </trkpt>
      <trkpt lat="48.84296" lon="2.38553">
        <ele>99.6</ele>
        <time>2015-07-20T19:03:39.478Z</time>
      </trkpt>
      <trkpt lat="48.84298" lon="2.38549">
        <ele>99.5</ele>
        <time>2015-07-20T19:03:40.498Z</time>
      </trkpt>
      <trkpt lat="48.84303" lon="2.38539">
        <ele>99.6</ele>
        <time>2015-07-20T19:03:42.540Z</time>
      </trkpt>
      <trkpt lat="48.84305" lon="2.38534">
        <ele>99.5</ele>
        <time>2015-07-20T19:03:43.547Z</time>
      </trkpt>
      <trkpt lat="48.84312" lon="2.38526">
        <ele>99.1</ele>
        <time>2015-07-20T19:03:45.469Z</time>
      </trkpt>
      <trkpt lat="48.84316" lon="2.38525">
        <ele>98.9</ele>
        <time>2015-07-20T19:03:46.489Z</time>
      </trkpt>
      <trkpt lat="48.84324" lon="2.38518">
        <ele>99.1</ele>
        <time>2015-07-20T19:03:48.514Z</time>
      </trkpt>
      <trkpt lat="48.84329" lon="2.38516">
        <ele>98.9</ele>
        <time>2015-07-20T19:03:49.577Z</time>
      </trkpt>
      <trkpt lat="48.84333" lon="2.38514">
        <ele>98.8</ele>
        <time>2015-07-20T19:03:50.513Z</time>
      </trkpt>
      <trkpt lat="48.84338" lon="2.38512">
        <ele>98.7</ele>
        <time>2015-07-20T19:03:51.504Z</time>
      </trkpt>
      <trkpt lat="48.84342" lon="2.38508">
        <ele>99</ele>
        <time>2015-07-20T19:03:52.511Z</time>
      </trkpt>
      <trkpt lat="48.84346" lon="2.38504">
        <ele>99.4</ele>
        <time>2015-07-20T19:03:53.537Z</time>
      </trkpt>
      <trkpt lat="48.8435" lon="2.38499">
        <ele>99.8</ele>
        <time>2015-07-20T19:03:54.530Z</time>
      </trkpt>
      <trkpt lat="48.84353" lon="2.38496">
        <ele>99.9</ele>
        <time>2015-07-20T19:03:55.711Z</time>
      </trkpt>
      <trkpt lat="48.84357" lon="2.38492">
        <ele>100.4</ele>
        <time>2015-07-20T19:03:56.555Z</time>
      </trkpt>
      <trkpt lat="48.84362" lon="2.38489">
        <ele>100.7</ele>
        <time>2015-07-20T19:03:57.562Z</time>
      </trkpt>
      <trkpt lat="48.84366" lon="2.38485">
        <ele>100.6</ele>
        <time>2015-07-20T19:03:58.551Z</time>
      </trkpt>
      <trkpt lat="48.84371" lon="2.38482">
        <ele>100.2</ele>
        <time>2015-07-20T19:03:59.558Z</time>
      </trkpt>
      <trkpt lat="48.84377" lon="2.38475">
        <ele>100</ele>
        <time>2015-07-20T19:04:01.496Z</time>
      </trkpt>
      <trkpt lat="48.8438" lon="2.38471">
        <ele>100</ele>
        <time>2015-07-20T19:04:02.573Z</time>
      </trkpt>
      <trkpt lat="48.84386" lon="2.38465">
        <ele>99.9</ele>
        <time>2015-07-20T19:04:04.558Z</time>
      </trkpt>
      <trkpt lat="48.84389" lon="2.38462">
        <ele>99.8</ele>
        <time>2015-07-20T19:04:05.477Z</time>
      </trkpt>
      <trkpt lat="48.84395" lon="2.38455">
        <ele>99.5</ele>
        <time>2015-07-20T19:04:07.540Z</time>
      </trkpt>
      <trkpt lat="48.84399" lon="2.3845">
        <ele>99.7</ele>
        <time>2015-07-20T19:04:08.711Z</time>
      </trkpt>
      <trkpt lat="48.84404" lon="2.38441">
        <ele>99.7</ele>
        <time>2015-07-20T19:04:10.524Z</time>
      </trkpt>
      <trkpt lat="48.84406" lon="2.38435">
        <ele>100.2</ele>
        <time>2015-07-20T19:04:11.529Z</time>
      </trkpt>
      <trkpt lat="48.8441" lon="2.38426">
        <ele>101</ele>
        <time>2015-07-20T19:04:13.579Z</time>
      </trkpt>
      <trkpt lat="48.84414" lon="2.38422">
        <ele>101.1</ele>
        <time>2015-07-20T19:04:14.561Z</time>
      </trkpt>
      <trkpt lat="48.84421" lon="2.38418">
        <ele>100.6</ele>
        <time>2015-07-20T19:04:15.505Z</time>
      </trkpt>
      <trkpt lat="48.84424" lon="2.38413">
        <ele>100.5</ele>
        <time>2015-07-20T19:04:16.506Z</time>
      </trkpt>
      <trkpt lat="48.84431" lon="2.38408">
        <ele>100.9</ele>
        <time>2015-07-20T19:04:18.531Z</time>
      </trkpt>
      <trkpt lat="48.84434" lon="2.38405">
        <ele>101.4</ele>
        <time>2015-07-20T19:04:19.467Z</time>
      </trkpt>
      <trkpt lat="48.84442" lon="2.38398">
        <ele>102.6</ele>
        <time>2015-07-20T19:04:22.030Z</time>
      </trkpt>
      <trkpt lat="48.84445" lon="2.38395">
        <ele>102.9</ele>
        <time>2015-07-20T19:04:22.502Z</time>
      </trkpt>
      <trkpt lat="48.84452" lon="2.3839">
        <ele>102.7</ele>
        <time>2015-07-20T19:04:25.499Z</time>
      </trkpt>
      <trkpt lat="48.84455" lon="2.38388">
        <ele>102.2</ele>
        <time>2015-07-20T19:04:26.497Z</time>
      </trkpt>
      <trkpt lat="48.84459" lon="2.38377">
        <ele>100.9</ele>
        <time>2015-07-20T19:04:28.556Z</time>
      </trkpt>
      <trkpt lat="48.84461" lon="2.38372">
        <ele>100.4</ele>
        <time>2015-07-20T19:04:29.559Z</time>
      </trkpt>
      <trkpt lat="48.84465" lon="2.38363">
        <ele>100.2</ele>
        <time>2015-07-20T19:04:32.114Z</time>
      </trkpt>
      <trkpt lat="48.84468" lon="2.38359">
        <ele>100</ele>
        <time>2015-07-20T19:04:32.555Z</time>
      </trkpt>
      <trkpt lat="48.84473" lon="2.38352">
        <ele>99</ele>
        <time>2015-07-20T19:04:34.546Z</time>
      </trkpt>
      <trkpt lat="48.84475" lon="2.38347">
        <ele>98.7</ele>
        <time>2015-07-20T19:04:35.562Z</time>
      </trkpt>
      <trkpt lat="48.8448" lon="2.38337">
        <ele>98.5</ele>
        <time>2015-07-20T19:04:38.510Z</time>
      </trkpt>
      <trkpt lat="48.84484" lon="2.38338">
        <ele>97.8</ele>
        <time>2015-07-20T19:04:39.523Z</time>
      </trkpt>
      <trkpt lat="48.84492" lon="2.38339">
        <ele>96.9</ele>
        <time>2015-07-20T19:04:41.561Z</time>
      </trkpt>
      <trkpt lat="48.84496" lon="2.38339">
        <ele>96.5</ele>
        <time>2015-07-20T19:04:42.580Z</time>
      </trkpt>
      <trkpt lat="48.84502" lon="2.38334">
        <ele>95.7</ele>
        <time>2015-07-20T19:04:44.490Z</time>
      </trkpt>
      <trkpt lat="48.84503" lon="2.3833">
        <ele>95.2</ele>
        <time>2015-07-20T19:04:45.494Z</time>
      </trkpt>
      <trkpt lat="48.84505" lon="2.38319">
        <ele>94.7</ele>
        <time>2015-07-20T19:04:47.570Z</time>
      </trkpt>
      <trkpt lat="48.84505" lon="2.38313">
        <ele>94.4</ele>
        <time>2015-07-20T19:04:48.571Z</time>
      </trkpt>
      <trkpt lat="48.84509" lon="2.38303">
        <ele>94.5</ele>
        <time>2015-07-20T19:04:50.492Z</time>
      </trkpt>
      <trkpt lat="48.84511" lon="2.38298">
        <ele>94.6</ele>
        <time>2015-07-20T19:04:51.521Z</time>
      </trkpt>
      <trkpt lat="48.84516" lon="2.38292">
        <ele>95</ele>
        <time>2015-07-20T19:04:53.531Z</time>
      </trkpt>
      <trkpt lat="48.8452" lon="2.38291">
        <ele>95.2</ele>
        <time>2015-07-20T19:04:54.593Z</time>
      </trkpt>
      <trkpt lat="48.84527" lon="2.38286">
        <ele>95.6</ele>
        <time>2015-07-20T19:04:56.524Z</time>
      </trkpt>
      <trkpt lat="48.8453" lon="2.38282">
        <ele>95.8</ele>
        <time>2015-07-20T19:04:57.538Z</time>
      </trkpt>
      <trkpt lat="48.84535" lon="2.38278">
        <ele>96</ele>
        <time>2015-07-20T19:04:58.554Z</time>
      </trkpt>
      <trkpt lat="48.84538" lon="2.38274">
        <ele>96.2</ele>
        <time>2015-07-20T19:04:59.496Z</time>
      </trkpt>
      <trkpt lat="48.84544" lon="2.38267">
        <ele>96.5</ele>
        <time>2015-07-20T19:05:01.561Z</time>
      </trkpt>
      <trkpt lat="48.84547" lon="2.38264">
        <ele>96.6</ele>
        <time>2015-07-20T19:05:02.549Z</time>
      </trkpt>
      <trkpt lat="48.84552" lon="2.38262">
        <ele>96.9</ele>
        <time>2015-07-20T19:05:03.505Z</time>
      </trkpt>
      <trkpt lat="48.84556" lon="2.3826">
        <ele>97.2</ele>
        <time>2015-07-20T19:05:04.505Z</time>
      </trkpt>
      <trkpt lat="48.84561" lon="2.38258">
        <ele>97.4</ele>
        <time>2015-07-20T19:05:05.836Z</time>
      </trkpt>
      <trkpt lat="48.84566" lon="2.38255">
        <ele>97.5</ele>
        <time>2015-07-20T19:05:06.594Z</time>
      </trkpt>
      <trkpt lat="48.8457" lon="2.38252">
        <ele>97.9</ele>
        <time>2015-07-20T19:05:07.506Z</time>
      </trkpt>
      <trkpt lat="48.84574" lon="2.38248">
        <ele>98.3</ele>
        <time>2015-07-20T19:05:08.495Z</time>
      </trkpt>
      <trkpt lat="48.8458" lon="2.38244">
        <ele>98.5</ele>
        <time>2015-07-20T19:05:09.499Z</time>
      </trkpt>
      <trkpt lat="48.84585" lon="2.3824">
        <ele>98.8</ele>
        <time>2015-07-20T19:05:10.506Z</time>
      </trkpt>
      <trkpt lat="48.8459" lon="2.38238">
        <ele>99.1</ele>
        <time>2015-07-20T19:05:11.530Z</time>
      </trkpt>
      <trkpt lat="48.84593" lon="2.38235">
        <ele>98.9</ele>
        <time>2015-07-20T19:05:12.577Z</time>
      </trkpt>
      <trkpt lat="48.84598" lon="2.38231">
        <ele>98.4</ele>
        <time>2015-07-20T19:05:13.501Z</time>
      </trkpt>
      <trkpt lat="48.84602" lon="2.38227">
        <ele>97.7</ele>
        <time>2015-07-20T19:05:14.486Z</time>
      </trkpt>
      <trkpt lat="48.8461" lon="2.3822">
        <ele>97.8</ele>
        <time>2015-07-20T19:05:16.542Z</time>
      </trkpt>
      <trkpt lat="48.84613" lon="2.38216">
        <ele>98.1</ele>
        <time>2015-07-20T19:05:17.584Z</time>
      </trkpt>
      <trkpt lat="48.84617" lon="2.38212">
        <ele>98.3</ele>
        <time>2015-07-20T19:05:18.577Z</time>
      </trkpt>
      <trkpt lat="48.84622" lon="2.38207">
        <ele>98.6</ele>
        <time>2015-07-20T19:05:19.465Z</time>
      </trkpt>
      <trkpt lat="48.84626" lon="2.38203">
        <ele>98.9</ele>
        <time>2015-07-20T19:05:20.528Z</time>
      </trkpt>
      <trkpt lat="48.8463" lon="2.38199">
        <ele>99.1</ele>
        <time>2015-07-20T19:05:21.540Z</time>
      </trkpt>
      <trkpt lat="48.84634" lon="2.38195">
        <ele>99</ele>
        <time>2015-07-20T19:05:22.691Z</time>
      </trkpt>
      <trkpt lat="48.8464" lon="2.38193">
        <ele>99</ele>
        <time>2015-07-20T19:05:23.552Z</time>
      </trkpt>
      <trkpt lat="48.84647" lon="2.38189">
        <ele>99.4</ele>
        <time>2015-07-20T19:05:25.565Z</time>
      </trkpt>
      <trkpt lat="48.84651" lon="2.38186">
        <ele>99.2</ele>
        <time>2015-07-20T19:05:26.452Z</time>
      </trkpt>
      <trkpt lat="48.84657" lon="2.3818">
        <ele>99.3</ele>
        <time>2015-07-20T19:05:28.504Z</time>
      </trkpt>
      <trkpt lat="48.8466" lon="2.38177">
        <ele>99</ele>
        <time>2015-07-20T19:05:29.594Z</time>
      </trkpt>
      <trkpt lat="48.84668" lon="2.38172">
        <ele>98.4</ele>
        <time>2015-07-20T19:05:31.556Z</time>
      </trkpt>
      <trkpt lat="48.84672" lon="2.3817">
        <ele>98.2</ele>
        <time>2015-07-20T19:05:32.449Z</time>
      </trkpt>
      <trkpt lat="48.84678" lon="2.38166">
        <ele>98.1</ele>
        <time>2015-07-20T19:05:34.495Z</time>
      </trkpt>
      <trkpt lat="48.84681" lon="2.38163">
        <ele>97.9</ele>
        <time>2015-07-20T19:05:35.506Z</time>
      </trkpt>
      <trkpt lat="48.84689" lon="2.3816">
        <ele>98.1</ele>
        <time>2015-07-20T19:05:37.544Z</time>
      </trkpt>
      <trkpt lat="48.84693" lon="2.38158">
        <ele>98</ele>
        <time>2015-07-20T19:05:38.554Z</time>
      </trkpt>
      <trkpt lat="48.84701" lon="2.38154">
        <ele>97.9</ele>
        <time>2015-07-20T19:05:40.560Z</time>
      </trkpt>
      <trkpt lat="48.84705" lon="2.38152">
        <ele>98.2</ele>
        <time>2015-07-20T19:05:41.510Z</time>
      </trkpt>
      <trkpt lat="48.8471" lon="2.3815">
        <ele>98.4</ele>
        <time>2015-07-20T19:05:42.518Z</time>
      </trkpt>
      <trkpt lat="48.84714" lon="2.38147">
        <ele>98.4</ele>
        <time>2015-07-20T19:05:43.565Z</time>
      </trkpt>
      <trkpt lat="48.84721" lon="2.38141">
        <ele>99</ele>
        <time>2015-07-20T19:05:45.495Z</time>
      </trkpt>
      <trkpt lat="48.84725" lon="2.38138">
        <ele>98.9</ele>
        <time>2015-07-20T19:05:46.499Z</time>
      </trkpt>
      <trkpt lat="48.84733" lon="2.38134">
        <ele>99</ele>
        <time>2015-07-20T19:05:48.978Z</time>
      </trkpt>
      <trkpt lat="48.84738" lon="2.38132">
        <ele>98.9</ele>
        <time>2015-07-20T19:05:49.590Z</time>
      </trkpt>
      <trkpt lat="48.84743" lon="2.38127">
        <ele>98</ele>
        <time>2015-07-20T19:05:50.548Z</time>
      </trkpt>
      <trkpt lat="48.84749" lon="2.38122">
        <ele>97.2</ele>
        <time>2015-07-20T19:05:51.564Z</time>
      </trkpt>
      <trkpt lat="48.84753" lon="2.38118">
        <ele>97.6</ele>
        <time>2015-07-20T19:05:52.486Z</time>
      </trkpt>
      <trkpt lat="48.84756" lon="2.38112">
        <ele>98.4</ele>
        <time>2015-07-20T19:05:53.464Z</time>
      </trkpt>
      <trkpt lat="48.8476" lon="2.38107">
        <ele>98.7</ele>
        <time>2015-07-20T19:05:54.526Z</time>
      </trkpt>
      <trkpt lat="48.84764" lon="2.38104">
        <ele>98.5</ele>
        <time>2015-07-20T19:05:55.538Z</time>
      </trkpt>
      <trkpt lat="48.84768" lon="2.38101">
        <ele>98.7</ele>
        <time>2015-07-20T19:05:56.551Z</time>
      </trkpt>
      <trkpt lat="48.84773" lon="2.38098">
        <ele>98.6</ele>
        <time>2015-07-20T19:05:57.459Z</time>
      </trkpt>
      <trkpt lat="48.84779" lon="2.38094">
        <ele>98.6</ele>
        <time>2015-07-20T19:05:58.765Z</time>
      </trkpt>
      <trkpt lat="48.84784" lon="2.3809">
        <ele>98.4</ele>
        <time>2015-07-20T19:05:59.460Z</time>
      </trkpt>
      <trkpt lat="48.84788" lon="2.38086">
        <ele>98.1</ele>
        <time>2015-07-20T19:06:00.514Z</time>
      </trkpt>
      <trkpt lat="48.84792" lon="2.38082">
        <ele>98.2</ele>
        <time>2015-07-20T19:06:01.512Z</time>
      </trkpt>
      <trkpt lat="48.84798" lon="2.38076">
        <ele>98.9</ele>
        <time>2015-07-20T19:06:03.532Z</time>
      </trkpt>
      <trkpt lat="48.848" lon="2.38073">
        <ele>98.8</ele>
        <time>2015-07-20T19:06:04.538Z</time>
      </trkpt>
      <trkpt lat="48.84805" lon="2.38069">
        <ele>98.8</ele>
        <time>2015-07-20T19:06:05.486Z</time>
      </trkpt>
      <trkpt lat="48.84808" lon="2.38064">
        <ele>99</ele>
        <time>2015-07-20T19:06:06.587Z</time>
      </trkpt>
      <trkpt lat="48.84812" lon="2.38059">
        <ele>99.3</ele>
        <time>2015-07-20T19:06:07.573Z</time>
      </trkpt>
      <trkpt lat="48.84816" lon="2.38055">
        <ele>99.3</ele>
        <time>2015-07-20T19:06:08.565Z</time>
      </trkpt>
      <trkpt lat="48.84821" lon="2.38052">
        <ele>99.2</ele>
        <time>2015-07-20T19:06:10.272Z</time>
      </trkpt>
      <trkpt lat="48.84826" lon="2.38049">
        <ele>99.1</ele>
        <time>2015-07-20T19:06:10.464Z</time>
      </trkpt>
      <trkpt lat="48.84831" lon="2.38047">
        <ele>98.7</ele>
        <time>2015-07-20T19:06:11.485Z</time>
      </trkpt>
      <trkpt lat="48.84834" lon="2.38043">
        <ele>98.6</ele>
        <time>2015-07-20T19:06:12.527Z</time>
      </trkpt>
      <trkpt lat="48.84839" lon="2.38039">
        <ele>98.4</ele>
        <time>2015-07-20T19:06:13.519Z</time>
      </trkpt>
      <trkpt lat="48.84844" lon="2.38035">
        <ele>98.2</ele>
        <time>2015-07-20T19:06:14.537Z</time>
      </trkpt>
      <trkpt lat="48.84849" lon="2.38032">
        <ele>98.5</ele>
        <time>2015-07-20T19:06:15.541Z</time>
      </trkpt>
      <trkpt lat="48.84854" lon="2.38028">
        <ele>98.6</ele>
        <time>2015-07-20T19:06:16.702Z</time>
      </trkpt>
      <trkpt lat="48.84859" lon="2.38023">
        <ele>98.4</ele>
        <time>2015-07-20T19:06:17.560Z</time>
      </trkpt>
      <trkpt lat="48.84864" lon="2.38019">
        <ele>98.3</ele>
        <time>2015-07-20T19:06:18.522Z</time>
      </trkpt>
      <trkpt lat="48.84869" lon="2.38015">
        <ele>98.2</ele>
        <time>2015-07-20T19:06:19.526Z</time>
      </trkpt>
      <trkpt lat="48.84873" lon="2.3801">
        <ele>98</ele>
        <time>2015-07-20T19:06:20.528Z</time>
      </trkpt>
      <trkpt lat="48.84877" lon="2.38005">
        <ele>97.9</ele>
        <time>2015-07-20T19:06:21.541Z</time>
      </trkpt>
      <trkpt lat="48.84882" lon="2.38001">
        <ele>97.8</ele>
        <time>2015-07-20T19:06:22.550Z</time>
      </trkpt>
      <trkpt lat="48.84887" lon="2.37997">
        <ele>97.6</ele>
        <time>2015-07-20T19:06:23.484Z</time>
      </trkpt>
      <trkpt lat="48.84892" lon="2.37993">
        <ele>97.3</ele>
        <time>2015-07-20T19:06:24.532Z</time>
      </trkpt>
      <trkpt lat="48.84897" lon="2.37987">
        <ele>97.1</ele>
        <time>2015-07-20T19:06:25.539Z</time>
      </trkpt>
      <trkpt lat="48.84903" lon="2.37982">
        <ele>97.1</ele>
        <time>2015-07-20T19:06:26.557Z</time>
      </trkpt>
      <trkpt lat="48.84908" lon="2.37976">
        <ele>96.9</ele>
        <time>2015-07-20T19:06:27.579Z</time>
      </trkpt>
      <trkpt lat="48.84913" lon="2.37971">
        <ele>96.9</ele>
        <time>2015-07-20T19:06:28.574Z</time>
      </trkpt>
      <trkpt lat="48.84918" lon="2.37965">
        <ele>96.9</ele>
        <time>2015-07-20T19:06:29.483Z</time>
      </trkpt>
      <trkpt lat="48.84924" lon="2.37961">
        <ele>96.9</ele>
        <time>2015-07-20T19:06:30.532Z</time>
      </trkpt>
      <trkpt lat="48.84929" lon="2.37957">
        <ele>97.4</ele>
        <time>2015-07-20T19:06:31.544Z</time>
      </trkpt>
      <trkpt lat="48.84936" lon="2.37954">
        <ele>97.3</ele>
        <time>2015-07-20T19:06:32.551Z</time>
      </trkpt>
      <trkpt lat="48.84943" lon="2.37951">
        <ele>97.6</ele>
        <time>2015-07-20T19:06:33.551Z</time>
      </trkpt>
      <trkpt lat="48.8495" lon="2.37948">
        <ele>97.5</ele>
        <time>2015-07-20T19:06:34.570Z</time>
      </trkpt>
      <trkpt lat="48.84956" lon="2.37944">
        <ele>97.8</ele>
        <time>2015-07-20T19:06:35.494Z</time>
      </trkpt>
      <trkpt lat="48.84962" lon="2.3794">
        <ele>98</ele>
        <time>2015-07-20T19:06:36.538Z</time>
      </trkpt>
      <trkpt lat="48.84969" lon="2.37936">
        <ele>98.7</ele>
        <time>2015-07-20T19:06:37.536Z</time>
      </trkpt>
      <trkpt lat="48.84975" lon="2.37933">
        <ele>99</ele>
        <time>2015-07-20T19:06:38.547Z</time>
      </trkpt>
      <trkpt lat="48.8498" lon="2.37928">
        <ele>99.1</ele>
        <time>2015-07-20T19:06:39.557Z</time>
      </trkpt>
      <trkpt lat="48.84986" lon="2.37921">
        <ele>98.1</ele>
        <time>2015-07-20T19:06:40.477Z</time>
      </trkpt>
      <trkpt lat="48.84991" lon="2.37917">
        <ele>98.5</ele>
        <time>2015-07-20T19:06:41.504Z</time>
      </trkpt>
      <trkpt lat="48.84996" lon="2.37911">
        <ele>99</ele>
        <time>2015-07-20T19:06:42.608Z</time>
      </trkpt>
      <trkpt lat="48.85001" lon="2.37906">
        <ele>99.4</ele>
        <time>2015-07-20T19:06:43.496Z</time>
      </trkpt>
      <trkpt lat="48.85007" lon="2.37902">
        <ele>99.5</ele>
        <time>2015-07-20T19:06:44.498Z</time>
      </trkpt>
      <trkpt lat="48.85012" lon="2.37898">
        <ele>99.6</ele>
        <time>2015-07-20T19:06:45.513Z</time>
      </trkpt>
      <trkpt lat="48.85016" lon="2.37894">
        <ele>99.7</ele>
        <time>2015-07-20T19:06:46.520Z</time>
      </trkpt>
      <trkpt lat="48.8502" lon="2.37888">
        <ele>99.9</ele>
        <time>2015-07-20T19:06:47.532Z</time>
      </trkpt>
      <trkpt lat="48.85022" lon="2.37884">
        <ele>100.2</ele>
        <time>2015-07-20T19:06:48.536Z</time>
      </trkpt>
      <trkpt lat="48.85029" lon="2.37876">
        <ele>100.3</ele>
        <time>2015-07-20T19:06:50.546Z</time>
      </trkpt>
      <trkpt lat="48.85033" lon="2.37873">
        <ele>100.4</ele>
        <time>2015-07-20T19:06:51.459Z</time>
      </trkpt>
      <trkpt lat="48.85039" lon="2.37872">
        <ele>100.9</ele>
        <time>2015-07-20T19:06:52.494Z</time>
      </trkpt>
      <trkpt lat="48.85044" lon="2.3787">
        <ele>100.7</ele>
        <time>2015-07-20T19:06:53.504Z</time>
      </trkpt>
      <trkpt lat="48.85049" lon="2.37867">
        <ele>100</ele>
        <time>2015-07-20T19:06:54.548Z</time>
      </trkpt>
      <trkpt lat="48.85054" lon="2.37868">
        <ele>99.6</ele>
        <time>2015-07-20T19:06:55.556Z</time>
      </trkpt>
      <trkpt lat="48.85062" lon="2.37862">
        <ele>100.4</ele>
        <time>2015-07-20T19:06:57.584Z</time>
      </trkpt>
      <trkpt lat="48.85064" lon="2.3786">
        <ele>100.6</ele>
        <time>2015-07-20T19:06:58.598Z</time>
      </trkpt>
      <trkpt lat="48.85067" lon="2.3785">
        <ele>100.2</ele>
        <time>2015-07-20T19:07:02.505Z</time>
      </trkpt>
      <trkpt lat="48.85068" lon="2.37846">
        <ele>100</ele>
        <time>2015-07-20T19:07:03.505Z</time>
      </trkpt>
      <trkpt lat="48.85073" lon="2.37837">
        <ele>100.2</ele>
        <time>2015-07-20T19:07:06.598Z</time>
      </trkpt>
      <trkpt lat="48.85076" lon="2.37837">
        <ele>100.1</ele>
        <time>2015-07-20T19:07:07.518Z</time>
      </trkpt>
      <trkpt lat="48.85083" lon="2.37839">
        <ele>100.5</ele>
        <time>2015-07-20T19:07:10.585Z</time>
      </trkpt>
      <trkpt lat="48.85085" lon="2.3784">
        <ele>100.4</ele>
        <time>2015-07-20T19:07:11.512Z</time>
      </trkpt>
      <trkpt lat="48.85092" lon="2.37848">
        <ele>100.8</ele>
        <time>2015-07-20T19:07:14.544Z</time>
      </trkpt>
      <trkpt lat="48.85094" lon="2.3785">
        <ele>100.9</ele>
        <time>2015-07-20T19:07:15.486Z</time>
      </trkpt>
      <trkpt lat="48.85099" lon="2.37857">
        <ele>101.6</ele>
        <time>2015-07-20T19:07:18.533Z</time>
      </trkpt>
      <trkpt lat="48.85101" lon="2.37859">
        <ele>101.7</ele>
        <time>2015-07-20T19:07:19.534Z</time>
      </trkpt>
      <trkpt lat="48.85108" lon="2.37862">
        <ele>101.8</ele>
        <time>2015-07-20T19:07:21.554Z</time>
      </trkpt>
      <trkpt lat="48.85112" lon="2.37863">
        <ele>101.8</ele>
        <time>2015-07-20T19:07:22.479Z</time>
      </trkpt>
      <trkpt lat="48.85116" lon="2.37865">
        <ele>101.7</ele>
        <time>2015-07-20T19:07:23.485Z</time>
      </trkpt>
      <trkpt lat="48.85122" lon="2.37866">
        <ele>101.7</ele>
        <time>2015-07-20T19:07:24.594Z</time>
      </trkpt>
      <trkpt lat="48.85127" lon="2.37866">
        <ele>101.7</ele>
        <time>2015-07-20T19:07:25.462Z</time>
      </trkpt>
      <trkpt lat="48.85132" lon="2.37867">
        <ele>101.8</ele>
        <time>2015-07-20T19:07:26.467Z</time>
      </trkpt>
      <trkpt lat="48.85137" lon="2.37869">
        <ele>102</ele>
        <time>2015-07-20T19:07:27.514Z</time>
      </trkpt>
      <trkpt lat="48.85142" lon="2.37869">
        <ele>102.2</ele>
        <time>2015-07-20T19:07:28.527Z</time>
      </trkpt>
      <trkpt lat="48.85148" lon="2.3787">
        <ele>102.5</ele>
        <time>2015-07-20T19:07:29.550Z</time>
      </trkpt>
      <trkpt lat="48.85153" lon="2.37871">
        <ele>102.8</ele>
        <time>2015-07-20T19:07:30.568Z</time>
      </trkpt>
      <trkpt lat="48.85162" lon="2.37874">
        <ele>103.3</ele>
        <time>2015-07-20T19:07:32.460Z</time>
      </trkpt>
      <trkpt lat="48.85167" lon="2.37876">
        <ele>103.3</ele>
        <time>2015-07-20T19:07:33.468Z</time>
      </trkpt>
      <trkpt lat="48.85173" lon="2.37881">
        <ele>103.1</ele>
        <time>2015-07-20T19:07:35.528Z</time>
      </trkpt>
      <trkpt lat="48.85175" lon="2.37884">
        <ele>103.1</ele>
        <time>2015-07-20T19:07:36.549Z</time>
      </trkpt>
      <trkpt lat="48.8518" lon="2.37888">
        <ele>102.8</ele>
        <time>2015-07-20T19:07:37.456Z</time>
      </trkpt>
      <trkpt lat="48.85185" lon="2.3789">
        <ele>102.7</ele>
        <time>2015-07-20T19:07:38.457Z</time>
      </trkpt>
      <trkpt lat="48.8519" lon="2.37891">
        <ele>102.6</ele>
        <time>2015-07-20T19:07:39.495Z</time>
      </trkpt>
      <trkpt lat="48.85195" lon="2.37893">
        <ele>102.5</ele>
        <time>2015-07-20T19:07:40.498Z</time>
      </trkpt>
      <trkpt lat="48.85199" lon="2.37892">
        <ele>102.7</ele>
        <time>2015-07-20T19:07:41.523Z</time>
      </trkpt>
      <trkpt lat="48.85204" lon="2.37892">
        <ele>102.6</ele>
        <time>2015-07-20T19:07:42.561Z</time>
      </trkpt>
      <trkpt lat="48.85212" lon="2.37894">
        <ele>102.4</ele>
        <time>2015-07-20T19:07:44.462Z</time>
      </trkpt>
      <trkpt lat="48.85216" lon="2.37896">
        <ele>102.3</ele>
        <time>2015-07-20T19:07:45.479Z</time>
      </trkpt>
      <trkpt lat="48.85222" lon="2.37898">
        <ele>102.2</ele>
        <time>2015-07-20T19:07:47.276Z</time>
      </trkpt>
      <trkpt lat="48.85228" lon="2.37899">
        <ele>102.3</ele>
        <time>2015-07-20T19:07:47.456Z</time>
      </trkpt>
      <trkpt lat="48.85236" lon="2.37904">
        <ele>102.4</ele>
        <time>2015-07-20T19:07:49.519Z</time>
      </trkpt>
      <trkpt lat="48.85241" lon="2.37906">
        <ele>102.6</ele>
        <time>2015-07-20T19:07:50.533Z</time>
      </trkpt>
      <trkpt lat="48.85247" lon="2.37909">
        <ele>102.7</ele>
        <time>2015-07-20T19:07:52.339Z</time>
      </trkpt>
      <trkpt lat="48.85253" lon="2.37911">
        <ele>102.8</ele>
        <time>2015-07-20T19:07:52.452Z</time>
      </trkpt>
      <trkpt lat="48.85258" lon="2.37911">
        <ele>103</ele>
        <time>2015-07-20T19:07:53.462Z</time>
      </trkpt>
      <trkpt lat="48.85263" lon="2.37911">
        <ele>103.3</ele>
        <time>2015-07-20T19:07:54.530Z</time>
      </trkpt>
      <trkpt lat="48.85268" lon="2.37911">
        <ele>103.8</ele>
        <time>2015-07-20T19:07:55.524Z</time>
      </trkpt>
      <trkpt lat="48.85273" lon="2.37911">
        <ele>104.3</ele>
        <time>2015-07-20T19:07:56.451Z</time>
      </trkpt>
      <trkpt lat="48.85281" lon="2.37912">
        <ele>104.8</ele>
        <time>2015-07-20T19:07:58.523Z</time>
      </trkpt>
      <trkpt lat="48.85287" lon="2.37913">
        <ele>105.1</ele>
        <time>2015-07-20T19:07:59.536Z</time>
      </trkpt>
      <trkpt lat="48.85291" lon="2.37915">
        <ele>105.3</ele>
        <time>2015-07-20T19:08:00.580Z</time>
      </trkpt>
      <trkpt lat="48.85296" lon="2.37919">
        <ele>105.5</ele>
        <time>2015-07-20T19:08:01.454Z</time>
      </trkpt>
      <trkpt lat="48.85301" lon="2.37922">
        <ele>105.8</ele>
        <time>2015-07-20T19:08:02.461Z</time>
      </trkpt>
      <trkpt lat="48.85305" lon="2.37925">
        <ele>105.9</ele>
        <time>2015-07-20T19:08:03.463Z</time>
      </trkpt>
      <trkpt lat="48.8531" lon="2.37927">
        <ele>106.1</ele>
        <time>2015-07-20T19:08:04.469Z</time>
      </trkpt>
      <trkpt lat="48.85315" lon="2.37929">
        <ele>106.2</ele>
        <time>2015-07-20T19:08:05.511Z</time>
      </trkpt>
      <trkpt lat="48.85322" lon="2.37932">
        <ele>106.4</ele>
        <time>2015-07-20T19:08:07.497Z</time>
      </trkpt>
      <trkpt lat="48.85325" lon="2.37933">
        <ele>106.5</ele>
        <time>2015-07-20T19:08:08.523Z</time>
      </trkpt>
      <trkpt lat="48.8533" lon="2.37934">
        <ele>106.2</ele>
        <time>2015-07-20T19:08:10.581Z</time>
      </trkpt>
      <trkpt lat="48.85336" lon="2.37936">
        <ele>105.7</ele>
        <time>2015-07-20T19:08:11.502Z</time>
      </trkpt>
      <trkpt lat="48.85341" lon="2.37924">
        <ele>106.2</ele>
        <time>2015-07-20T19:08:22.729Z</time>
      </trkpt>
      <trkpt lat="48.85339" lon="2.37919">
        <ele>105.6</ele>
        <time>2015-07-20T19:08:23.486Z</time>
      </trkpt>
      <trkpt lat="48.85339" lon="2.37912">
        <ele>105.3</ele>
        <time>2015-07-20T19:08:24.528Z</time>
      </trkpt>
      <trkpt lat="48.85337" lon="2.37904">
        <ele>104.7</ele>
        <time>2015-07-20T19:08:25.538Z</time>
      </trkpt>
      <trkpt lat="48.85336" lon="2.37891">
        <ele>104.5</ele>
        <time>2015-07-20T19:08:27.484Z</time>
      </trkpt>
      <trkpt lat="48.85335" lon="2.37884">
        <ele>104.6</ele>
        <time>2015-07-20T19:08:28.513Z</time>
      </trkpt>
      <trkpt lat="48.85334" lon="2.37878">
        <ele>104.6</ele>
        <time>2015-07-20T19:08:29.552Z</time>
      </trkpt>
      <trkpt lat="48.85332" lon="2.3787">
        <ele>104.4</ele>
        <time>2015-07-20T19:08:30.564Z</time>
      </trkpt>
      <trkpt lat="48.85332" lon="2.37862">
        <ele>104.6</ele>
        <time>2015-07-20T19:08:31.484Z</time>
      </trkpt>
      <trkpt lat="48.85331" lon="2.37855">
        <ele>105</ele>
        <time>2015-07-20T19:08:32.492Z</time>
      </trkpt>
      <trkpt lat="48.85331" lon="2.37847">
        <ele>105.2</ele>
        <time>2015-07-20T19:08:33.508Z</time>
      </trkpt>
      <trkpt lat="48.85331" lon="2.3784">
        <ele>105.3</ele>
        <time>2015-07-20T19:08:34.531Z</time>
      </trkpt>
      <trkpt lat="48.85329" lon="2.37828">
        <ele>105.7</ele>
        <time>2015-07-20T19:08:36.560Z</time>
      </trkpt>
      <trkpt lat="48.85328" lon="2.37823">
        <ele>105.6</ele>
        <time>2015-07-20T19:08:37.514Z</time>
      </trkpt>
      <trkpt lat="48.85327" lon="2.3781">
        <ele>105.6</ele>
        <time>2015-07-20T19:08:39.489Z</time>
      </trkpt>
      <trkpt lat="48.85327" lon="2.37802">
        <ele>105.3</ele>
        <time>2015-07-20T19:08:40.500Z</time>
      </trkpt>
      <trkpt lat="48.85327" lon="2.37794">
        <ele>104.6</ele>
        <time>2015-07-20T19:08:41.510Z</time>
      </trkpt>
      <trkpt lat="48.85327" lon="2.37786">
        <ele>104.5</ele>
        <time>2015-07-20T19:08:42.551Z</time>
      </trkpt>
      <trkpt lat="48.85327" lon="2.37777">
        <ele>103.9</ele>
        <time>2015-07-20T19:08:43.486Z</time>
      </trkpt>
      <trkpt lat="48.85327" lon="2.37769">
        <ele>104.1</ele>
        <time>2015-07-20T19:08:44.484Z</time>
      </trkpt>
      <trkpt lat="48.85327" lon="2.3776">
        <ele>103</ele>
        <time>2015-07-20T19:08:45.506Z</time>
      </trkpt>
      <trkpt lat="48.85327" lon="2.37753">
        <ele>103.1</ele>
        <time>2015-07-20T19:08:46.535Z</time>
      </trkpt>
      <trkpt lat="48.85326" lon="2.37743">
        <ele>103</ele>
        <time>2015-07-20T19:08:48.551Z</time>
      </trkpt>
      <trkpt lat="48.85326" lon="2.37739">
        <ele>103.3</ele>
        <time>2015-07-20T19:08:49.564Z</time>
      </trkpt>
      <trkpt lat="48.85329" lon="2.37732">
        <ele>104.8</ele>
        <time>2015-07-20T19:08:58.556Z</time>
      </trkpt>
      <trkpt lat="48.85334" lon="2.37723">
        <ele>109.1</ele>
        <time>2015-07-20T19:08:59.482Z</time>
      </trkpt>
      <trkpt lat="48.85341" lon="2.37723">
        <ele>110.2</ele>
        <time>2015-07-20T19:09:02.477Z</time>
      </trkpt>
      <trkpt lat="48.85343" lon="2.37724">
        <ele>110.4</ele>
        <time>2015-07-20T19:09:03.481Z</time>
      </trkpt>
      <trkpt lat="48.85348" lon="2.37725">
        <ele>110.2</ele>
        <time>2015-07-20T19:09:04.488Z</time>
      </trkpt>
      <trkpt lat="48.85354" lon="2.37726">
        <ele>110.4</ele>
        <time>2015-07-20T19:09:05.557Z</time>
      </trkpt>
      <trkpt lat="48.85359" lon="2.37728">
        <ele>110.7</ele>
        <time>2015-07-20T19:09:06.512Z</time>
      </trkpt>
      <trkpt lat="48.85367" lon="2.37731">
        <ele>111.2</ele>
        <time>2015-07-20T19:09:07.525Z</time>
      </trkpt>
      <trkpt lat="48.85374" lon="2.37737">
        <ele>111.3</ele>
        <time>2015-07-20T19:09:09.540Z</time>
      </trkpt>
      <trkpt lat="48.85377" lon="2.37741">
        <ele>111.6</ele>
        <time>2015-07-20T19:09:10.549Z</time>
      </trkpt>
      <trkpt lat="48.85385" lon="2.37749">
        <ele>111.5</ele>
        <time>2015-07-20T19:09:12.614Z</time>
      </trkpt>
      <trkpt lat="48.85389" lon="2.37751">
        <ele>111.4</ele>
        <time>2015-07-20T19:09:13.507Z</time>
      </trkpt>
      <trkpt lat="48.85397" lon="2.37757">
        <ele>111.4</ele>
        <time>2015-07-20T19:09:15.547Z</time>
      </trkpt>
      <trkpt lat="48.85401" lon="2.37759">
        <ele>111.3</ele>
        <time>2015-07-20T19:09:16.552Z</time>
      </trkpt>
      <trkpt lat="48.85405" lon="2.37762">
        <ele>111</ele>
        <time>2015-07-20T19:09:17.454Z</time>
      </trkpt>
      <trkpt lat="48.8541" lon="2.37765">
        <ele>111</ele>
        <time>2015-07-20T19:09:18.695Z</time>
      </trkpt>
      <trkpt lat="48.85415" lon="2.37768">
        <ele>111</ele>
        <time>2015-07-20T19:09:19.465Z</time>
      </trkpt>
      <trkpt lat="48.8542" lon="2.37773">
        <ele>110.6</ele>
        <time>2015-07-20T19:09:20.485Z</time>
      </trkpt>
      <trkpt lat="48.85425" lon="2.37778">
        <ele>110.2</ele>
        <time>2015-07-20T19:09:21.511Z</time>
      </trkpt>
      <trkpt lat="48.8543" lon="2.37783">
        <ele>110</ele>
        <time>2015-07-20T19:09:22.525Z</time>
      </trkpt>
      <trkpt lat="48.85438" lon="2.37788">
        <ele>110.7</ele>
        <time>2015-07-20T19:09:24.550Z</time>
      </trkpt>
      <trkpt lat="48.85441" lon="2.37791">
        <ele>111</ele>
        <time>2015-07-20T19:09:25.730Z</time>
      </trkpt>
      <trkpt lat="48.85449" lon="2.37798">
        <ele>111.3</ele>
        <time>2015-07-20T19:09:27.466Z</time>
      </trkpt>
      <trkpt lat="48.85453" lon="2.378">
        <ele>111.7</ele>
        <time>2015-07-20T19:09:28.465Z</time>
      </trkpt>
      <trkpt lat="48.85458" lon="2.37805">
        <ele>111.5</ele>
        <time>2015-07-20T19:09:30.528Z</time>
      </trkpt>
      <trkpt lat="48.85462" lon="2.37806">
        <ele>110.7</ele>
        <time>2015-07-20T19:09:31.539Z</time>
      </trkpt>
      <trkpt lat="48.85471" lon="2.37809">
        <ele>110.7</ele>
        <time>2015-07-20T19:09:33.453Z</time>
      </trkpt>
      <trkpt lat="48.85476" lon="2.37811">
        <ele>110.9</ele>
        <time>2015-07-20T19:09:34.457Z</time>
      </trkpt>
      <trkpt lat="48.85482" lon="2.37814">
        <ele>111.1</ele>
        <time>2015-07-20T19:09:35.472Z</time>
      </trkpt>
      <trkpt lat="48.85488" lon="2.37817">
        <ele>111.1</ele>
        <time>2015-07-20T19:09:36.553Z</time>
      </trkpt>
      <trkpt lat="48.85495" lon="2.3782">
        <ele>111.2</ele>
        <time>2015-07-20T19:09:37.449Z</time>
      </trkpt>
      <trkpt lat="48.855" lon="2.37823">
        <ele>111.5</ele>
        <time>2015-07-20T19:09:38.480Z</time>
      </trkpt>
      <trkpt lat="48.85507" lon="2.37826">
        <ele>111.7</ele>
        <time>2015-07-20T19:09:39.491Z</time>
      </trkpt>
      <trkpt lat="48.85514" lon="2.37829">
        <ele>111.8</ele>
        <time>2015-07-20T19:09:40.501Z</time>
      </trkpt>
      <trkpt lat="48.8552" lon="2.37833">
        <ele>112</ele>
        <time>2015-07-20T19:09:41.509Z</time>
      </trkpt>
      <trkpt lat="48.85526" lon="2.37836">
        <ele>111.8</ele>
        <time>2015-07-20T19:09:42.530Z</time>
      </trkpt>
      <trkpt lat="48.85529" lon="2.37841">
        <ele>111.7</ele>
        <time>2015-07-20T19:09:43.524Z</time>
      </trkpt>
      <trkpt lat="48.85535" lon="2.37844">
        <ele>111.6</ele>
        <time>2015-07-20T19:09:44.537Z</time>
      </trkpt>
      <trkpt lat="48.85541" lon="2.37848">
        <ele>111.5</ele>
        <time>2015-07-20T19:09:45.541Z</time>
      </trkpt>
      <trkpt lat="48.85546" lon="2.3785">
        <ele>111.3</ele>
        <time>2015-07-20T19:09:46.557Z</time>
      </trkpt>
      <trkpt lat="48.85552" lon="2.3786">
        <ele>111.1</ele>
        <time>2015-07-20T19:09:49.493Z</time>
      </trkpt>
      <trkpt lat="48.85554" lon="2.37862">
        <ele>111.1</ele>
        <time>2015-07-20T19:09:50.513Z</time>
      </trkpt>
      <trkpt lat="48.85561" lon="2.37867">
        <ele>111</ele>
        <time>2015-07-20T19:09:53.758Z</time>
      </trkpt>
      <trkpt lat="48.85565" lon="2.37868">
        <ele>110.5</ele>
        <time>2015-07-20T19:09:54.559Z</time>
      </trkpt>
      <trkpt lat="48.85569" lon="2.37871">
        <ele>110.3</ele>
        <time>2015-07-20T19:09:55.575Z</time>
      </trkpt>
      <trkpt lat="48.85575" lon="2.37876">
        <ele>109.9</ele>
        <time>2015-07-20T19:09:56.491Z</time>
      </trkpt>
      <trkpt lat="48.85581" lon="2.37882">
        <ele>109.6</ele>
        <time>2015-07-20T19:09:57.499Z</time>
      </trkpt>
      <trkpt lat="48.85588" lon="2.37887">
        <ele>109.3</ele>
        <time>2015-07-20T19:09:58.518Z</time>
      </trkpt>
      <trkpt lat="48.85594" lon="2.37891">
        <ele>109.2</ele>
        <time>2015-07-20T19:09:59.511Z</time>
      </trkpt>
      <trkpt lat="48.85603" lon="2.37895">
        <ele>109.3</ele>
        <time>2015-07-20T19:10:00.538Z</time>
      </trkpt>
      <trkpt lat="48.85611" lon="2.37898">
        <ele>109.4</ele>
        <time>2015-07-20T19:10:01.569Z</time>
      </trkpt>
      <trkpt lat="48.85618" lon="2.37902">
        <ele>109.6</ele>
        <time>2015-07-20T19:10:02.451Z</time>
      </trkpt>
      <trkpt lat="48.85624" lon="2.37905">
        <ele>109.8</ele>
        <time>2015-07-20T19:10:03.952Z</time>
      </trkpt>
      <trkpt lat="48.8563" lon="2.37908">
        <ele>109.9</ele>
        <time>2015-07-20T19:10:04.516Z</time>
      </trkpt>
      <trkpt lat="48.85636" lon="2.37912">
        <ele>109.8</ele>
        <time>2015-07-20T19:10:05.559Z</time>
      </trkpt>
      <trkpt lat="48.85642" lon="2.37916">
        <ele>110.2</ele>
        <time>2015-07-20T19:10:06.588Z</time>
      </trkpt>
      <trkpt lat="48.85649" lon="2.37918">
        <ele>110.3</ele>
        <time>2015-07-20T19:10:07.480Z</time>
      </trkpt>
      <trkpt lat="48.85655" lon="2.3792">
        <ele>110.4</ele>
        <time>2015-07-20T19:10:08.487Z</time>
      </trkpt>
      <trkpt lat="48.85663" lon="2.37925">
        <ele>110.5</ele>
        <time>2015-07-20T19:10:10.506Z</time>
      </trkpt>
      <trkpt lat="48.85667" lon="2.37927">
        <ele>110.9</ele>
        <time>2015-07-20T19:10:11.515Z</time>
      </trkpt>
      <trkpt lat="48.85674" lon="2.37931">
        <ele>111.1</ele>
        <time>2015-07-20T19:10:13.448Z</time>
      </trkpt>
      <trkpt lat="48.85679" lon="2.37932">
        <ele>110.5</ele>
        <time>2015-07-20T19:10:14.523Z</time>
      </trkpt>
      <trkpt lat="48.85683" lon="2.37932">
        <ele>109.3</ele>
        <time>2015-07-20T19:10:15.485Z</time>
      </trkpt>
      <trkpt lat="48.85689" lon="2.37933">
        <ele>108.2</ele>
        <time>2015-07-20T19:10:16.591Z</time>
      </trkpt>
      <trkpt lat="48.85693" lon="2.37935">
        <ele>107.9</ele>
        <time>2015-07-20T19:10:17.483Z</time>
      </trkpt>
      <trkpt lat="48.85697" lon="2.37939">
        <ele>108</ele>
        <time>2015-07-20T19:10:18.527Z</time>
      </trkpt>
      <trkpt lat="48.85702" lon="2.37942">
        <ele>107.9</ele>
        <time>2015-07-20T19:10:19.518Z</time>
      </trkpt>
      <trkpt lat="48.85707" lon="2.37944">
        <ele>108</ele>
        <time>2015-07-20T19:10:20.528Z</time>
      </trkpt>
      <trkpt lat="48.85712" lon="2.37946">
        <ele>108.8</ele>
        <time>2015-07-20T19:10:21.534Z</time>
      </trkpt>
      <trkpt lat="48.85718" lon="2.3795">
        <ele>109.7</ele>
        <time>2015-07-20T19:10:22.539Z</time>
      </trkpt>
      <trkpt lat="48.85726" lon="2.37953">
        <ele>110.6</ele>
        <time>2015-07-20T19:10:23.557Z</time>
      </trkpt>
      <trkpt lat="48.85732" lon="2.37956">
        <ele>111.2</ele>
        <time>2015-07-20T19:10:24.566Z</time>
      </trkpt>
      <trkpt lat="48.85737" lon="2.37958">
        <ele>111.2</ele>
        <time>2015-07-20T19:10:25.481Z</time>
      </trkpt>
      <trkpt lat="48.85743" lon="2.37962">
        <ele>110.2</ele>
        <time>2015-07-20T19:10:26.483Z</time>
      </trkpt>
      <trkpt lat="48.85749" lon="2.37968">
        <ele>108</ele>
        <time>2015-07-20T19:10:27.485Z</time>
      </trkpt>
      <trkpt lat="48.85755" lon="2.37973">
        <ele>106.4</ele>
        <time>2015-07-20T19:10:28.490Z</time>
      </trkpt>
      <trkpt lat="48.85761" lon="2.37981">
        <ele>105.3</ele>
        <time>2015-07-20T19:10:30.546Z</time>
      </trkpt>
      <trkpt lat="48.85764" lon="2.37985">
        <ele>104.8</ele>
        <time>2015-07-20T19:10:31.567Z</time>
      </trkpt>
      <trkpt lat="48.85768" lon="2.37992">
        <ele>104.2</ele>
        <time>2015-07-20T19:10:33.480Z</time>
      </trkpt>
      <trkpt lat="48.8577" lon="2.37995">
        <ele>103.9</ele>
        <time>2015-07-20T19:10:34.513Z</time>
      </trkpt>
      <trkpt lat="48.85777" lon="2.38004">
        <ele>103.3</ele>
        <time>2015-07-20T19:10:37.555Z</time>
      </trkpt>
      <trkpt lat="48.85779" lon="2.38005">
        <ele>102.8</ele>
        <time>2015-07-20T19:10:38.514Z</time>
      </trkpt>
      <trkpt lat="48.85784" lon="2.37997">
        <ele>99</ele>
        <time>2015-07-20T19:10:43.451Z</time>
      </trkpt>
      <trkpt lat="48.85786" lon="2.37995">
        <ele>98.6</ele>
        <time>2015-07-20T19:10:44.499Z</time>
      </trkpt>
      <trkpt lat="48.85791" lon="2.37988">
        <ele>98</ele>
        <time>2015-07-20T19:10:53.503Z</time>
      </trkpt>
      <trkpt lat="48.85796" lon="2.37978">
        <ele>95.1</ele>
        <time>2015-07-20T19:10:54.692Z</time>
      </trkpt>
      <trkpt lat="48.85803" lon="2.37975">
        <ele>94.4</ele>
        <time>2015-07-20T19:11:09.556Z</time>
      </trkpt>
      <trkpt lat="48.85825" lon="2.37975">
        <ele>92.2</ele>
        <time>2015-07-20T19:11:10.595Z</time>
      </trkpt>
      <trkpt lat="48.85833" lon="2.37973">
        <ele>92.9</ele>
        <time>2015-07-20T19:12:18.550Z</time>
      </trkpt>
      <trkpt lat="48.85848" lon="2.37967">
        <ele>97.7</ele>
        <time>2015-07-20T19:12:19.575Z</time>
      </trkpt>
      <trkpt lat="48.85844" lon="2.3796">
        <ele>97.7</ele>
        <time>2015-07-20T19:12:21.500Z</time>
      </trkpt>
      <trkpt lat="48.85841" lon="2.37957">
        <ele>97.6</ele>
        <time>2015-07-20T19:12:22.520Z</time>
      </trkpt>
      <trkpt lat="48.85839" lon="2.37949">
        <ele>96</ele>
        <time>2015-07-20T19:12:24.571Z</time>
      </trkpt>
      <trkpt lat="48.85838" lon="2.37943">
        <ele>96.1</ele>
        <time>2015-07-20T19:12:25.514Z</time>
      </trkpt>
      <trkpt lat="48.8584" lon="2.37933">
        <ele>95.1</ele>
        <time>2015-07-20T19:12:28.511Z</time>
      </trkpt>
      <trkpt lat="48.8584" lon="2.3793">
        <ele>94.9</ele>
        <time>2015-07-20T19:12:29.524Z</time>
      </trkpt>
      <trkpt lat="48.85845" lon="2.37919">
        <ele>93.5</ele>
        <time>2015-07-20T19:13:58.549Z</time>
      </trkpt>
      <trkpt lat="48.85846" lon="2.37917">
        <ele>93.4</ele>
        <time>2015-07-20T19:13:59.466Z</time>
      </trkpt>
      <trkpt lat="48.85847" lon="2.37906">
        <ele>93.8</ele>
        <time>2015-07-20T19:14:02.458Z</time>
      </trkpt>
      <trkpt lat="48.85848" lon="2.37903">
        <ele>94.1</ele>
        <time>2015-07-20T19:14:03.483Z</time>
      </trkpt>
      <trkpt lat="48.85853" lon="2.37893">
        <ele>95.4</ele>
        <time>2015-07-20T19:14:07.456Z</time>
      </trkpt>
      <trkpt lat="48.85854" lon="2.3789">
        <ele>95.4</ele>
        <time>2015-07-20T19:14:08.462Z</time>
      </trkpt>
      <trkpt lat="48.85856" lon="2.37878">
        <ele>96.8</ele>
        <time>2015-07-20T19:14:12.526Z</time>
      </trkpt>
      <trkpt lat="48.85858" lon="2.37876">
        <ele>97.1</ele>
        <time>2015-07-20T19:14:13.533Z</time>
      </trkpt>
      <trkpt lat="48.85861" lon="2.37864">
        <ele>97</ele>
        <time>2015-07-20T19:14:17.493Z</time>
      </trkpt>
      <trkpt lat="48.85863" lon="2.37862">
        <ele>97.2</ele>
        <time>2015-07-20T19:14:18.505Z</time>
      </trkpt>
      <trkpt lat="48.85868" lon="2.37857">
        <ele>97.7</ele>
        <time>2015-07-20T19:14:21.580Z</time>
      </trkpt>
      <trkpt lat="48.85871" lon="2.37857">
        <ele>97.2</ele>
        <time>2015-07-20T19:14:22.446Z</time>
      </trkpt>
      <trkpt lat="48.85876" lon="2.37847">
        <ele>96</ele>
        <time>2015-07-20T19:14:25.506Z</time>
      </trkpt>
      <trkpt lat="48.85878" lon="2.37842">
        <ele>96.2</ele>
        <time>2015-07-20T19:14:26.508Z</time>
      </trkpt>
      <trkpt lat="48.85882" lon="2.37835">
        <ele>95.6</ele>
        <time>2015-07-20T19:14:28.525Z</time>
      </trkpt>
      <trkpt lat="48.85884" lon="2.37831">
        <ele>95.7</ele>
        <time>2015-07-20T19:14:29.718Z</time>
      </trkpt>
      <trkpt lat="48.85889" lon="2.37824">
        <ele>96.1</ele>
        <time>2015-07-20T19:14:31.553Z</time>
      </trkpt>
      <trkpt lat="48.85891" lon="2.37821">
        <ele>96.1</ele>
        <time>2015-07-20T19:14:32.558Z</time>
      </trkpt>
      <trkpt lat="48.85895" lon="2.37813">
        <ele>95.9</ele>
        <time>2015-07-20T19:14:34.470Z</time>
      </trkpt>
      <trkpt lat="48.85898" lon="2.37809">
        <ele>95.8</ele>
        <time>2015-07-20T19:14:35.458Z</time>
      </trkpt>
      <trkpt lat="48.85902" lon="2.37801">
        <ele>96.1</ele>
        <time>2015-07-20T19:14:37.597Z</time>
      </trkpt>
      <trkpt lat="48.85904" lon="2.37798">
        <ele>96</ele>
        <time>2015-07-20T19:14:38.525Z</time>
      </trkpt>
      <trkpt lat="48.85908" lon="2.37792">
        <ele>95.7</ele>
        <time>2015-07-20T19:14:40.446Z</time>
      </trkpt>
      <trkpt lat="48.85911" lon="2.37786">
        <ele>95.7</ele>
        <time>2015-07-20T19:14:41.477Z</time>
      </trkpt>
      <trkpt lat="48.85912" lon="2.37776">
        <ele>96</ele>
        <time>2015-07-20T19:14:42.524Z</time>
      </trkpt>
      <trkpt lat="48.85915" lon="2.3777">
        <ele>95.9</ele>
        <time>2015-07-20T19:14:43.534Z</time>
      </trkpt>
      <trkpt lat="48.85919" lon="2.37764">
        <ele>95.9</ele>
        <time>2015-07-20T19:14:44.460Z</time>
      </trkpt>
      <trkpt lat="48.85921" lon="2.37757">
        <ele>96.2</ele>
        <time>2015-07-20T19:14:45.513Z</time>
      </trkpt>
      <trkpt lat="48.85924" lon="2.3775">
        <ele>96.2</ele>
        <time>2015-07-20T19:14:46.524Z</time>
      </trkpt>
      <trkpt lat="48.85927" lon="2.37742">
        <ele>96.3</ele>
        <time>2015-07-20T19:14:47.526Z</time>
      </trkpt>
      <trkpt lat="48.85931" lon="2.37736">
        <ele>96.3</ele>
        <time>2015-07-20T19:14:48.593Z</time>
      </trkpt>
      <trkpt lat="48.85937" lon="2.37731">
        <ele>96.6</ele>
        <time>2015-07-20T19:14:49.460Z</time>
      </trkpt>
      <trkpt lat="48.85942" lon="2.37725">
        <ele>97</ele>
        <time>2015-07-20T19:14:50.512Z</time>
      </trkpt>
      <trkpt lat="48.85946" lon="2.37718">
        <ele>97.1</ele>
        <time>2015-07-20T19:14:51.515Z</time>
      </trkpt>
      <trkpt lat="48.85952" lon="2.37713">
        <ele>97.2</ele>
        <time>2015-07-20T19:14:52.522Z</time>
      </trkpt>
      <trkpt lat="48.85957" lon="2.37707">
        <ele>97.4</ele>
        <time>2015-07-20T19:14:53.443Z</time>
      </trkpt>
      <trkpt lat="48.85962" lon="2.377">
        <ele>97.4</ele>
        <time>2015-07-20T19:14:54.538Z</time>
      </trkpt>
      <trkpt lat="48.85967" lon="2.37695">
        <ele>97.5</ele>
        <time>2015-07-20T19:14:55.465Z</time>
      </trkpt>
      <trkpt lat="48.85972" lon="2.37688">
        <ele>97.6</ele>
        <time>2015-07-20T19:14:56.457Z</time>
      </trkpt>
      <trkpt lat="48.85977" lon="2.37683">
        <ele>97.8</ele>
        <time>2015-07-20T19:14:57.496Z</time>
      </trkpt>
      <trkpt lat="48.85982" lon="2.37677">
        <ele>97.7</ele>
        <time>2015-07-20T19:14:58.511Z</time>
      </trkpt>
      <trkpt lat="48.85984" lon="2.37671">
        <ele>97.7</ele>
        <time>2015-07-20T19:14:59.523Z</time>
      </trkpt>
      <trkpt lat="48.85988" lon="2.37665">
        <ele>97.7</ele>
        <time>2015-07-20T19:15:00.547Z</time>
      </trkpt>
      <trkpt lat="48.85992" lon="2.37658">
        <ele>97.9</ele>
        <time>2015-07-20T19:15:01.554Z</time>
      </trkpt>
      <trkpt lat="48.85997" lon="2.37651">
        <ele>97.9</ele>
        <time>2015-07-20T19:15:02.442Z</time>
      </trkpt>
      <trkpt lat="48.85999" lon="2.37643">
        <ele>98</ele>
        <time>2015-07-20T19:15:03.455Z</time>
      </trkpt>
      <trkpt lat="48.86003" lon="2.37636">
        <ele>98</ele>
        <time>2015-07-20T19:15:04.499Z</time>
      </trkpt>
      <trkpt lat="48.86006" lon="2.3763">
        <ele>98.1</ele>
        <time>2015-07-20T19:15:05.527Z</time>
      </trkpt>
      <trkpt lat="48.8601" lon="2.37624">
        <ele>98.2</ele>
        <time>2015-07-20T19:15:06.539Z</time>
      </trkpt>
      <trkpt lat="48.86013" lon="2.37617">
        <ele>98.3</ele>
        <time>2015-07-20T19:15:07.556Z</time>
      </trkpt>
      <trkpt lat="48.86017" lon="2.37611">
        <ele>98</ele>
        <time>2015-07-20T19:15:08.454Z</time>
      </trkpt>
      <trkpt lat="48.8602" lon="2.37605">
        <ele>98.4</ele>
        <time>2015-07-20T19:15:09.506Z</time>
      </trkpt>
      <trkpt lat="48.86022" lon="2.37598">
        <ele>98.8</ele>
        <time>2015-07-20T19:15:10.526Z</time>
      </trkpt>
      <trkpt lat="48.86025" lon="2.37591">
        <ele>99.2</ele>
        <time>2015-07-20T19:15:11.476Z</time>
      </trkpt>
      <trkpt lat="48.86025" lon="2.37583">
        <ele>100.1</ele>
        <time>2015-07-20T19:15:12.528Z</time>
      </trkpt>
      <trkpt lat="48.86026" lon="2.37575">
        <ele>100.4</ele>
        <time>2015-07-20T19:15:13.533Z</time>
      </trkpt>
      <trkpt lat="48.86028" lon="2.37566">
        <ele>100.4</ele>
        <time>2015-07-20T19:15:14.536Z</time>
      </trkpt>
      <trkpt lat="48.86029" lon="2.37557">
        <ele>100.6</ele>
        <time>2015-07-20T19:15:15.541Z</time>
      </trkpt>
      <trkpt lat="48.86035" lon="2.3755">
        <ele>101.5</ele>
        <time>2015-07-20T19:15:16.446Z</time>
      </trkpt>
      <trkpt lat="48.8604" lon="2.37542">
        <ele>102.5</ele>
        <time>2015-07-20T19:15:17.458Z</time>
      </trkpt>
      <trkpt lat="48.86044" lon="2.37534">
        <ele>103</ele>
        <time>2015-07-20T19:15:18.520Z</time>
      </trkpt>
      <trkpt lat="48.86046" lon="2.37526">
        <ele>103.2</ele>
        <time>2015-07-20T19:15:19.505Z</time>
      </trkpt>
      <trkpt lat="48.86048" lon="2.37519">
        <ele>103.5</ele>
        <time>2015-07-20T19:15:20.536Z</time>
      </trkpt>
      <trkpt lat="48.86052" lon="2.37513">
        <ele>103.9</ele>
        <time>2015-07-20T19:15:21.479Z</time>
      </trkpt>
      <trkpt lat="48.86056" lon="2.37508">
        <ele>103.9</ele>
        <time>2015-07-20T19:15:22.474Z</time>
      </trkpt>
      <trkpt lat="48.86059" lon="2.37503">
        <ele>103.6</ele>
        <time>2015-07-20T19:15:23.498Z</time>
      </trkpt>
      <trkpt lat="48.86063" lon="2.37499">
        <ele>103.2</ele>
        <time>2015-07-20T19:15:24.535Z</time>
      </trkpt>
      <trkpt lat="48.86068" lon="2.37494">
        <ele>102.5</ele>
        <time>2015-07-20T19:15:25.551Z</time>
      </trkpt>
      <trkpt lat="48.86072" lon="2.37489">
        <ele>102.4</ele>
        <time>2015-07-20T19:15:26.575Z</time>
      </trkpt>
      <trkpt lat="48.86076" lon="2.37483">
        <ele>102.3</ele>
        <time>2015-07-20T19:15:27.492Z</time>
      </trkpt>
      <trkpt lat="48.8608" lon="2.37477">
        <ele>102.7</ele>
        <time>2015-07-20T19:15:28.474Z</time>
      </trkpt>
      <trkpt lat="48.86085" lon="2.37471">
        <ele>102.5</ele>
        <time>2015-07-20T19:15:29.500Z</time>
      </trkpt>
      <trkpt lat="48.86091" lon="2.37467">
        <ele>102.3</ele>
        <time>2015-07-20T19:15:30.516Z</time>
      </trkpt>
      <trkpt lat="48.86096" lon="2.37463">
        <ele>102.2</ele>
        <time>2015-07-20T19:15:31.523Z</time>
      </trkpt>
      <trkpt lat="48.86101" lon="2.37457">
        <ele>102.2</ele>
        <time>2015-07-20T19:15:32.532Z</time>
      </trkpt>
      <trkpt lat="48.86106" lon="2.37451">
        <ele>102.1</ele>
        <time>2015-07-20T19:15:33.542Z</time>
      </trkpt>
      <trkpt lat="48.8611" lon="2.37444">
        <ele>101.9</ele>
        <time>2015-07-20T19:15:34.554Z</time>
      </trkpt>
      <trkpt lat="48.86113" lon="2.37437">
        <ele>101.8</ele>
        <time>2015-07-20T19:15:35.443Z</time>
      </trkpt>
      <trkpt lat="48.86117" lon="2.37429">
        <ele>101.8</ele>
        <time>2015-07-20T19:15:36.528Z</time>
      </trkpt>
      <trkpt lat="48.86121" lon="2.37421">
        <ele>101.8</ele>
        <time>2015-07-20T19:15:37.527Z</time>
      </trkpt>
      <trkpt lat="48.86124" lon="2.37413">
        <ele>101.8</ele>
        <time>2015-07-20T19:15:38.464Z</time>
      </trkpt>
      <trkpt lat="48.86127" lon="2.37405">
        <ele>101.6</ele>
        <time>2015-07-20T19:15:39.752Z</time>
      </trkpt>
      <trkpt lat="48.86129" lon="2.37397">
        <ele>101.7</ele>
        <time>2015-07-20T19:15:40.482Z</time>
      </trkpt>
      <trkpt lat="48.86132" lon="2.3739">
        <ele>101.6</ele>
        <time>2015-07-20T19:15:41.473Z</time>
      </trkpt>
      <trkpt lat="48.86134" lon="2.37381">
        <ele>101.8</ele>
        <time>2015-07-20T19:15:42.579Z</time>
      </trkpt>
      <trkpt lat="48.86137" lon="2.37373">
        <ele>101.9</ele>
        <time>2015-07-20T19:15:43.475Z</time>
      </trkpt>
      <trkpt lat="48.86141" lon="2.37366">
        <ele>102.2</ele>
        <time>2015-07-20T19:15:44.473Z</time>
      </trkpt>
      <trkpt lat="48.86144" lon="2.37358">
        <ele>102.7</ele>
        <time>2015-07-20T19:15:45.482Z</time>
      </trkpt>
      <trkpt lat="48.86149" lon="2.37353">
        <ele>103.1</ele>
        <time>2015-07-20T19:15:46.489Z</time>
      </trkpt>
      <trkpt lat="48.86153" lon="2.37345">
        <ele>103.4</ele>
        <time>2015-07-20T19:15:47.495Z</time>
      </trkpt>
      <trkpt lat="48.86156" lon="2.37338">
        <ele>103.8</ele>
        <time>2015-07-20T19:15:48.542Z</time>
      </trkpt>
      <trkpt lat="48.86158" lon="2.3733">
        <ele>104</ele>
        <time>2015-07-20T19:15:49.547Z</time>
      </trkpt>
      <trkpt lat="48.86161" lon="2.37323">
        <ele>104.1</ele>
        <time>2015-07-20T19:15:50.484Z</time>
      </trkpt>
      <trkpt lat="48.86164" lon="2.37315">
        <ele>104.1</ele>
        <time>2015-07-20T19:15:51.477Z</time>
      </trkpt>
      <trkpt lat="48.86167" lon="2.37309">
        <ele>103.8</ele>
        <time>2015-07-20T19:15:52.470Z</time>
      </trkpt>
      <trkpt lat="48.86172" lon="2.37303">
        <ele>103.6</ele>
        <time>2015-07-20T19:15:53.483Z</time>
      </trkpt>
      <trkpt lat="48.86177" lon="2.37298">
        <ele>103.2</ele>
        <time>2015-07-20T19:15:54.533Z</time>
      </trkpt>
      <trkpt lat="48.8618" lon="2.37292">
        <ele>102.8</ele>
        <time>2015-07-20T19:15:55.543Z</time>
      </trkpt>
      <trkpt lat="48.86184" lon="2.37286">
        <ele>102.6</ele>
        <time>2015-07-20T19:15:56.549Z</time>
      </trkpt>
      <trkpt lat="48.86189" lon="2.37279">
        <ele>102.7</ele>
        <time>2015-07-20T19:15:57.556Z</time>
      </trkpt>
      <trkpt lat="48.86198" lon="2.37276">
        <ele>103.3</ele>
        <time>2015-07-20T19:15:58.551Z</time>
      </trkpt>
      <trkpt lat="48.86203" lon="2.3727">
        <ele>103.4</ele>
        <time>2015-07-20T19:15:59.502Z</time>
      </trkpt>
      <trkpt lat="48.86208" lon="2.37264">
        <ele>103.6</ele>
        <time>2015-07-20T19:16:00.529Z</time>
      </trkpt>
      <trkpt lat="48.86213" lon="2.3726">
        <ele>103.4</ele>
        <time>2015-07-20T19:16:01.536Z</time>
      </trkpt>
      <trkpt lat="48.86217" lon="2.37255">
        <ele>103.2</ele>
        <time>2015-07-20T19:16:02.548Z</time>
      </trkpt>
      <trkpt lat="48.86221" lon="2.3725">
        <ele>102.8</ele>
        <time>2015-07-20T19:16:03.476Z</time>
      </trkpt>
      <trkpt lat="48.86227" lon="2.37245">
        <ele>102.7</ele>
        <time>2015-07-20T19:16:04.473Z</time>
      </trkpt>
      <trkpt lat="48.86231" lon="2.37239">
        <ele>102.8</ele>
        <time>2015-07-20T19:16:05.479Z</time>
      </trkpt>
      <trkpt lat="48.86236" lon="2.37233">
        <ele>102.7</ele>
        <time>2015-07-20T19:16:06.521Z</time>
      </trkpt>
      <trkpt lat="48.8624" lon="2.37227">
        <ele>103.1</ele>
        <time>2015-07-20T19:16:07.530Z</time>
      </trkpt>
      <trkpt lat="48.86244" lon="2.3722">
        <ele>103.6</ele>
        <time>2015-07-20T19:16:08.531Z</time>
      </trkpt>
      <trkpt lat="48.86247" lon="2.37213">
        <ele>104</ele>
        <time>2015-07-20T19:16:09.545Z</time>
      </trkpt>
      <trkpt lat="48.8625" lon="2.37206">
        <ele>104.3</ele>
        <time>2015-07-20T19:16:10.450Z</time>
      </trkpt>
      <trkpt lat="48.86254" lon="2.37198">
        <ele>104.6</ele>
        <time>2015-07-20T19:16:11.461Z</time>
      </trkpt>
      <trkpt lat="48.86257" lon="2.37192">
        <ele>104.6</ele>
        <time>2015-07-20T19:16:12.533Z</time>
      </trkpt>
      <trkpt lat="48.8626" lon="2.37184">
        <ele>105.2</ele>
        <time>2015-07-20T19:16:13.530Z</time>
      </trkpt>
      <trkpt lat="48.86263" lon="2.37176">
        <ele>106.2</ele>
        <time>2015-07-20T19:16:14.541Z</time>
      </trkpt>
      <trkpt lat="48.86264" lon="2.37168">
        <ele>107.1</ele>
        <time>2015-07-20T19:16:15.453Z</time>
      </trkpt>
      <trkpt lat="48.86267" lon="2.37159">
        <ele>108.2</ele>
        <time>2015-07-20T19:16:16.453Z</time>
      </trkpt>
      <trkpt lat="48.86269" lon="2.37151">
        <ele>109</ele>
        <time>2015-07-20T19:16:17.483Z</time>
      </trkpt>
      <trkpt lat="48.86271" lon="2.37145">
        <ele>109.2</ele>
        <time>2015-07-20T19:16:18.540Z</time>
      </trkpt>
      <trkpt lat="48.86274" lon="2.3714">
        <ele>109</ele>
        <time>2015-07-20T19:16:19.547Z</time>
      </trkpt>
      <trkpt lat="48.86278" lon="2.37135">
        <ele>108.9</ele>
        <time>2015-07-20T19:16:20.554Z</time>
      </trkpt>
      <trkpt lat="48.86284" lon="2.37133">
        <ele>108.3</ele>
        <time>2015-07-20T19:16:21.567Z</time>
      </trkpt>
      <trkpt lat="48.86288" lon="2.37131">
        <ele>108.1</ele>
        <time>2015-07-20T19:16:22.463Z</time>
      </trkpt>
      <trkpt lat="48.86295" lon="2.37125">
        <ele>107.3</ele>
        <time>2015-07-20T19:16:25.556Z</time>
      </trkpt>
      <trkpt lat="48.86298" lon="2.37123">
        <ele>107.1</ele>
        <time>2015-07-20T19:16:26.563Z</time>
      </trkpt>
      <trkpt lat="48.86303" lon="2.37118">
        <ele>106.9</ele>
        <time>2015-07-20T19:16:34.539Z</time>
      </trkpt>
      <trkpt lat="48.86308" lon="2.37111">
        <ele>106.6</ele>
        <time>2015-07-20T19:16:35.560Z</time>
      </trkpt>
      <trkpt lat="48.86312" lon="2.37101">
        <ele>105.9</ele>
        <time>2015-07-20T19:16:38.520Z</time>
      </trkpt>
      <trkpt lat="48.86313" lon="2.37097">
        <ele>105.9</ele>
        <time>2015-07-20T19:16:39.529Z</time>
      </trkpt>
      <trkpt lat="48.86315" lon="2.37085">
        <ele>104.7</ele>
        <time>2015-07-20T19:16:41.483Z</time>
      </trkpt>
      <trkpt lat="48.86318" lon="2.37081">
        <ele>104</ele>
        <time>2015-07-20T19:16:42.561Z</time>
      </trkpt>
      <trkpt lat="48.86323" lon="2.37074">
        <ele>103.6</ele>
        <time>2015-07-20T19:16:44.551Z</time>
      </trkpt>
      <trkpt lat="48.86325" lon="2.37068">
        <ele>103.4</ele>
        <time>2015-07-20T19:16:45.595Z</time>
      </trkpt>
      <trkpt lat="48.86329" lon="2.37058">
        <ele>103</ele>
        <time>2015-07-20T19:16:47.488Z</time>
      </trkpt>
      <trkpt lat="48.86333" lon="2.37053">
        <ele>103.1</ele>
        <time>2015-07-20T19:16:48.653Z</time>
      </trkpt>
      <trkpt lat="48.86338" lon="2.37044">
        <ele>102.5</ele>
        <time>2015-07-20T19:16:50.498Z</time>
      </trkpt>
      <trkpt lat="48.86342" lon="2.37038">
        <ele>102.4</ele>
        <time>2015-07-20T19:16:51.582Z</time>
      </trkpt>
      <trkpt lat="48.86345" lon="2.37032">
        <ele>102.1</ele>
        <time>2015-07-20T19:16:52.485Z</time>
      </trkpt>
      <trkpt lat="48.86348" lon="2.37025">
        <ele>102</ele>
        <time>2015-07-20T19:16:53.495Z</time>
      </trkpt>
      <trkpt lat="48.8635" lon="2.37018">
        <ele>102</ele>
        <time>2015-07-20T19:16:54.535Z</time>
      </trkpt>
      <trkpt lat="48.86352" lon="2.37011">
        <ele>101.9</ele>
        <time>2015-07-20T19:16:55.535Z</time>
      </trkpt>
      <trkpt lat="48.86356" lon="2.37004">
        <ele>102.1</ele>
        <time>2015-07-20T19:16:56.554Z</time>
      </trkpt>
      <trkpt lat="48.86359" lon="2.36998">
        <ele>102.2</ele>
        <time>2015-07-20T19:16:57.569Z</time>
      </trkpt>
      <trkpt lat="48.86364" lon="2.36992">
        <ele>102</ele>
        <time>2015-07-20T19:16:58.491Z</time>
      </trkpt>
      <trkpt lat="48.86371" lon="2.36989">
        <ele>101.9</ele>
        <time>2015-07-20T19:16:59.494Z</time>
      </trkpt>
      <trkpt lat="48.86375" lon="2.36983">
        <ele>102</ele>
        <time>2015-07-20T19:17:00.642Z</time>
      </trkpt>
      <trkpt lat="48.8638" lon="2.36978">
        <ele>101.9</ele>
        <time>2015-07-20T19:17:01.621Z</time>
      </trkpt>
      <trkpt lat="48.86384" lon="2.36971">
        <ele>101.9</ele>
        <time>2015-07-20T19:17:02.479Z</time>
      </trkpt>
      <trkpt lat="48.86388" lon="2.36964">
        <ele>102.1</ele>
        <time>2015-07-20T19:17:03.511Z</time>
      </trkpt>
      <trkpt lat="48.86392" lon="2.36956">
        <ele>101.6</ele>
        <time>2015-07-20T19:17:04.507Z</time>
      </trkpt>
      <trkpt lat="48.86398" lon="2.36949">
        <ele>101.2</ele>
        <time>2015-07-20T19:17:05.505Z</time>
      </trkpt>
      <trkpt lat="48.86403" lon="2.3694">
        <ele>101.2</ele>
        <time>2015-07-20T19:17:06.520Z</time>
      </trkpt>
      <trkpt lat="48.86408" lon="2.36931">
        <ele>100.7</ele>
        <time>2015-07-20T19:17:07.529Z</time>
      </trkpt>
      <trkpt lat="48.86414" lon="2.36923">
        <ele>100.2</ele>
        <time>2015-07-20T19:17:08.452Z</time>
      </trkpt>
      <trkpt lat="48.8642" lon="2.36914">
        <ele>99.9</ele>
        <time>2015-07-20T19:17:09.475Z</time>
      </trkpt>
      <trkpt lat="48.86426" lon="2.36906">
        <ele>99.3</ele>
        <time>2015-07-20T19:17:10.497Z</time>
      </trkpt>
      <trkpt lat="48.86431" lon="2.36896">
        <ele>99.3</ele>
        <time>2015-07-20T19:17:11.510Z</time>
      </trkpt>
      <trkpt lat="48.86437" lon="2.36887">
        <ele>98.6</ele>
        <time>2015-07-20T19:17:12.525Z</time>
      </trkpt>
      <trkpt lat="48.86443" lon="2.36879">
        <ele>98</ele>
        <time>2015-07-20T19:17:13.521Z</time>
      </trkpt>
      <trkpt lat="48.86449" lon="2.36869">
        <ele>97.8</ele>
        <time>2015-07-20T19:17:14.534Z</time>
      </trkpt>
      <trkpt lat="48.86454" lon="2.36859">
        <ele>97.7</ele>
        <time>2015-07-20T19:17:15.555Z</time>
      </trkpt>
      <trkpt lat="48.86459" lon="2.36848">
        <ele>98</ele>
        <time>2015-07-20T19:17:16.578Z</time>
      </trkpt>
      <trkpt lat="48.86465" lon="2.36838">
        <ele>98</ele>
        <time>2015-07-20T19:17:17.587Z</time>
      </trkpt>
      <trkpt lat="48.8647" lon="2.36829">
        <ele>97.3</ele>
        <time>2015-07-20T19:17:18.597Z</time>
      </trkpt>
      <trkpt lat="48.86476" lon="2.36819">
        <ele>97.5</ele>
        <time>2015-07-20T19:17:19.471Z</time>
      </trkpt>
      <trkpt lat="48.86482" lon="2.3681">
        <ele>97.7</ele>
        <time>2015-07-20T19:17:20.472Z</time>
      </trkpt>
      <trkpt lat="48.86488" lon="2.36801">
        <ele>97.6</ele>
        <time>2015-07-20T19:17:21.501Z</time>
      </trkpt>
      <trkpt lat="48.86494" lon="2.36792">
        <ele>97.4</ele>
        <time>2015-07-20T19:17:22.539Z</time>
      </trkpt>
      <trkpt lat="48.86499" lon="2.36784">
        <ele>97.3</ele>
        <time>2015-07-20T19:17:23.544Z</time>
      </trkpt>
      <trkpt lat="48.86505" lon="2.36777">
        <ele>97.1</ele>
        <time>2015-07-20T19:17:24.558Z</time>
      </trkpt>
      <trkpt lat="48.8651" lon="2.3677">
        <ele>96.5</ele>
        <time>2015-07-20T19:17:25.567Z</time>
      </trkpt>
      <trkpt lat="48.86515" lon="2.36763">
        <ele>96.2</ele>
        <time>2015-07-20T19:17:26.480Z</time>
      </trkpt>
      <trkpt lat="48.86519" lon="2.36756">
        <ele>96</ele>
        <time>2015-07-20T19:17:27.516Z</time>
      </trkpt>
      <trkpt lat="48.86524" lon="2.36749">
        <ele>96.3</ele>
        <time>2015-07-20T19:17:28.526Z</time>
      </trkpt>
      <trkpt lat="48.86528" lon="2.36741">
        <ele>96.5</ele>
        <time>2015-07-20T19:17:29.535Z</time>
      </trkpt>
      <trkpt lat="48.86532" lon="2.36733">
        <ele>96.2</ele>
        <time>2015-07-20T19:17:30.602Z</time>
      </trkpt>
      <trkpt lat="48.86536" lon="2.36724">
        <ele>95.9</ele>
        <time>2015-07-20T19:17:31.476Z</time>
      </trkpt>
      <trkpt lat="48.86538" lon="2.36716">
        <ele>95.7</ele>
        <time>2015-07-20T19:17:32.502Z</time>
      </trkpt>
      <trkpt lat="48.8654" lon="2.36707">
        <ele>95.3</ele>
        <time>2015-07-20T19:17:33.516Z</time>
      </trkpt>
      <trkpt lat="48.86543" lon="2.36699">
        <ele>95.5</ele>
        <time>2015-07-20T19:17:34.469Z</time>
      </trkpt>
      <trkpt lat="48.86545" lon="2.3669">
        <ele>95.7</ele>
        <time>2015-07-20T19:17:35.479Z</time>
      </trkpt>
      <trkpt lat="48.86548" lon="2.36682">
        <ele>95.8</ele>
        <time>2015-07-20T19:17:36.505Z</time>
      </trkpt>
      <trkpt lat="48.86552" lon="2.36676">
        <ele>95.3</ele>
        <time>2015-07-20T19:17:37.512Z</time>
      </trkpt>
      <trkpt lat="48.86556" lon="2.3667">
        <ele>95</ele>
        <time>2015-07-20T19:17:38.533Z</time>
      </trkpt>
      <trkpt lat="48.8656" lon="2.36664">
        <ele>94.9</ele>
        <time>2015-07-20T19:17:39.539Z</time>
      </trkpt>
      <trkpt lat="48.86565" lon="2.36658">
        <ele>94.7</ele>
        <time>2015-07-20T19:17:40.436Z</time>
      </trkpt>
      <trkpt lat="48.86569" lon="2.36652">
        <ele>94.5</ele>
        <time>2015-07-20T19:17:41.484Z</time>
      </trkpt>
      <trkpt lat="48.86574" lon="2.36646">
        <ele>94.5</ele>
        <time>2015-07-20T19:17:42.502Z</time>
      </trkpt>
      <trkpt lat="48.86578" lon="2.3664">
        <ele>94.3</ele>
        <time>2015-07-20T19:17:43.510Z</time>
      </trkpt>
      <trkpt lat="48.86581" lon="2.36634">
        <ele>94.7</ele>
        <time>2015-07-20T19:17:44.529Z</time>
      </trkpt>
      <trkpt lat="48.86584" lon="2.36626">
        <ele>95.9</ele>
        <time>2015-07-20T19:17:45.536Z</time>
      </trkpt>
      <trkpt lat="48.86589" lon="2.36621">
        <ele>96.6</ele>
        <time>2015-07-20T19:17:46.549Z</time>
      </trkpt>
      <trkpt lat="48.86594" lon="2.36616">
        <ele>96.9</ele>
        <time>2015-07-20T19:17:47.560Z</time>
      </trkpt>
      <trkpt lat="48.86598" lon="2.36609">
        <ele>97.4</ele>
        <time>2015-07-20T19:17:48.611Z</time>
      </trkpt>
      <trkpt lat="48.86601" lon="2.36603">
        <ele>97.6</ele>
        <time>2015-07-20T19:17:49.489Z</time>
      </trkpt>
      <trkpt lat="48.86604" lon="2.36598">
        <ele>97.6</ele>
        <time>2015-07-20T19:17:50.519Z</time>
      </trkpt>
      <trkpt lat="48.86609" lon="2.36594">
        <ele>97.8</ele>
        <time>2015-07-20T19:17:51.564Z</time>
      </trkpt>
      <trkpt lat="48.86614" lon="2.36583">
        <ele>98</ele>
        <time>2015-07-20T19:17:53.480Z</time>
      </trkpt>
      <trkpt lat="48.86616" lon="2.36577">
        <ele>97.9</ele>
        <time>2015-07-20T19:17:54.526Z</time>
      </trkpt>
      <trkpt lat="48.86621" lon="2.36566">
        <ele>98.1</ele>
        <time>2015-07-20T19:17:56.659Z</time>
      </trkpt>
      <trkpt lat="48.86625" lon="2.36562">
        <ele>98.3</ele>
        <time>2015-07-20T19:17:57.566Z</time>
      </trkpt>
      <trkpt lat="48.86631" lon="2.36552">
        <ele>98.7</ele>
        <time>2015-07-20T19:17:59.487Z</time>
      </trkpt>
      <trkpt lat="48.86633" lon="2.36547">
        <ele>99.1</ele>
        <time>2015-07-20T19:18:00.542Z</time>
      </trkpt>
      <trkpt lat="48.86637" lon="2.36536">
        <ele>99.1</ele>
        <time>2015-07-20T19:18:02.566Z</time>
      </trkpt>
      <trkpt lat="48.86638" lon="2.3653">
        <ele>99.1</ele>
        <time>2015-07-20T19:18:03.490Z</time>
      </trkpt>
      <trkpt lat="48.86641" lon="2.36519">
        <ele>99.4</ele>
        <time>2015-07-20T19:18:05.347Z</time>
      </trkpt>
      <trkpt lat="48.86647" lon="2.36518">
        <ele>99.4</ele>
        <time>2015-07-20T19:18:06.552Z</time>
      </trkpt>
      <trkpt lat="48.86653" lon="2.36511">
        <ele>99.7</ele>
        <time>2015-07-20T19:18:08.572Z</time>
      </trkpt>
      <trkpt lat="48.86657" lon="2.36507">
        <ele>99.7</ele>
        <time>2015-07-20T19:18:09.477Z</time>
      </trkpt>
      <trkpt lat="48.86664" lon="2.36502">
        <ele>99.6</ele>
        <time>2015-07-20T19:18:11.545Z</time>
      </trkpt>
      <trkpt lat="48.86667" lon="2.365">
        <ele>99.5</ele>
        <time>2015-07-20T19:18:12.527Z</time>
      </trkpt>
      <trkpt lat="48.86675" lon="2.36493">
        <ele>99.7</ele>
        <time>2015-07-20T19:18:15.551Z</time>
      </trkpt>
      <trkpt lat="48.86677" lon="2.36489">
        <ele>99.8</ele>
        <time>2015-07-20T19:18:16.564Z</time>
      </trkpt>
      <trkpt lat="48.86684" lon="2.36488">
        <ele>97.7</ele>
        <time>2015-07-20T19:18:21.571Z</time>
      </trkpt>
      <trkpt lat="48.86686" lon="2.36493">
        <ele>95.4</ele>
        <time>2015-07-20T19:18:22.481Z</time>
      </trkpt>
      <trkpt lat="48.86686" lon="2.36493">
        <ele>95.4</ele>
        <time>2015-07-20T19:18:59.479Z</time>
      </trkpt>
      <trkpt lat="48.86696" lon="2.36487">
        <ele>93.1</ele>
        <time>2015-07-20T19:19:00.549Z</time>
      </trkpt>
      <trkpt lat="48.86703" lon="2.36481">
        <ele>92.3</ele>
        <time>2015-07-20T19:19:04.470Z</time>
      </trkpt>
      <trkpt lat="48.86704" lon="2.36479">
        <ele>92.1</ele>
        <time>2015-07-20T19:19:05.489Z</time>
      </trkpt>
      <trkpt lat="48.86711" lon="2.36471">
        <ele>91.5</ele>
        <time>2015-07-20T19:19:09.461Z</time>
      </trkpt>
      <trkpt lat="48.86712" lon="2.36469">
        <ele>91.5</ele>
        <time>2015-07-20T19:19:10.490Z</time>
      </trkpt>
      <trkpt lat="48.86716" lon="2.36459">
        <ele>91.7</ele>
        <time>2015-07-20T19:19:14.623Z</time>
      </trkpt>
      <trkpt lat="48.86717" lon="2.36457">
        <ele>91.7</ele>
        <time>2015-07-20T19:19:15.566Z</time>
      </trkpt>
      <trkpt lat="48.86719" lon="2.36451">
        <ele>91.9</ele>
        <time>2015-07-20T19:19:21.568Z</time>
      </trkpt>
      <trkpt lat="48.86723" lon="2.36446">
        <ele>92.5</ele>
        <time>2015-07-20T19:19:22.555Z</time>
      </trkpt>
      <trkpt lat="48.86728" lon="2.36437">
        <ele>92.6</ele>
        <time>2015-07-20T19:19:26.553Z</time>
      </trkpt>
      <trkpt lat="48.86729" lon="2.36435">
        <ele>92.5</ele>
        <time>2015-07-20T19:19:27.574Z</time>
      </trkpt>
      <trkpt lat="48.86734" lon="2.36428">
        <ele>93.2</ele>
        <time>2015-07-20T19:19:30.546Z</time>
      </trkpt>
      <trkpt lat="48.86736" lon="2.36426">
        <ele>93.2</ele>
        <time>2015-07-20T19:19:31.553Z</time>
      </trkpt>
      <trkpt lat="48.86743" lon="2.36422">
        <ele>94</ele>
        <time>2015-07-20T19:19:34.571Z</time>
      </trkpt>
      <trkpt lat="48.86745" lon="2.3642">
        <ele>94.3</ele>
        <time>2015-07-20T19:19:35.496Z</time>
      </trkpt>
      <trkpt lat="48.86751" lon="2.36413">
        <ele>94.9</ele>
        <time>2015-07-20T19:19:38.688Z</time>
      </trkpt>
      <trkpt lat="48.86753" lon="2.36409">
        <ele>95.4</ele>
        <time>2015-07-20T19:19:39.561Z</time>
      </trkpt>
      <trkpt lat="48.86757" lon="2.36397">
        <ele>96.3</ele>
        <time>2015-07-20T19:19:42.570Z</time>
      </trkpt>
      <trkpt lat="48.86759" lon="2.36394">
        <ele>96.2</ele>
        <time>2015-07-20T19:19:43.497Z</time>
      </trkpt>
      <trkpt lat="48.86762" lon="2.36387">
        <ele>96</ele>
        <time>2015-07-20T19:19:45.505Z</time>
      </trkpt>
      <trkpt lat="48.86764" lon="2.36383">
        <ele>95.8</ele>
        <time>2015-07-20T19:19:46.510Z</time>
      </trkpt>
      <trkpt lat="48.86767" lon="2.36375">
        <ele>95.4</ele>
        <time>2015-07-20T19:19:48.778Z</time>
      </trkpt>
      <trkpt lat="48.86769" lon="2.36371">
        <ele>95.2</ele>
        <time>2015-07-20T19:19:49.541Z</time>
      </trkpt>
      <trkpt lat="48.86771" lon="2.36362">
        <ele>96.1</ele>
        <time>2015-07-20T19:19:51.553Z</time>
      </trkpt>
      <trkpt lat="48.86772" lon="2.36358">
        <ele>96</ele>
        <time>2015-07-20T19:19:52.471Z</time>
      </trkpt>
      <trkpt lat="48.86775" lon="2.36346">
        <ele>95.7</ele>
        <time>2015-07-20T19:19:55.543Z</time>
      </trkpt>
      <trkpt lat="48.86777" lon="2.36342">
        <ele>95.9</ele>
        <time>2015-07-20T19:19:56.616Z</time>
      </trkpt>
      <trkpt lat="48.86781" lon="2.3633">
        <ele>96.7</ele>
        <time>2015-07-20T19:19:59.517Z</time>
      </trkpt>
      <trkpt lat="48.86782" lon="2.36326">
        <ele>97.1</ele>
        <time>2015-07-20T19:20:00.540Z</time>
      </trkpt>
      <trkpt lat="48.86784" lon="2.36315">
        <ele>97.7</ele>
        <time>2015-07-20T19:20:03.995Z</time>
      </trkpt>
      <trkpt lat="48.86786" lon="2.36312">
        <ele>97.9</ele>
        <time>2015-07-20T19:20:04.448Z</time>
      </trkpt>
      <trkpt lat="48.8679" lon="2.36303">
        <ele>98.8</ele>
        <time>2015-07-20T19:20:07.513Z</time>
      </trkpt>
      <trkpt lat="48.86792" lon="2.36301">
        <ele>99.1</ele>
        <time>2015-07-20T19:20:08.528Z</time>
      </trkpt>
      <trkpt lat="48.86799" lon="2.36294">
        <ele>98.7</ele>
        <time>2015-07-20T19:20:11.586Z</time>
      </trkpt>
      <trkpt lat="48.86802" lon="2.36291">
        <ele>98.5</ele>
        <time>2015-07-20T19:20:12.614Z</time>
      </trkpt>
      <trkpt lat="48.8681" lon="2.36288">
        <ele>98.2</ele>
        <time>2015-07-20T19:20:15.481Z</time>
      </trkpt>
      <trkpt lat="48.86812" lon="2.36286">
        <ele>98.2</ele>
        <time>2015-07-20T19:20:16.508Z</time>
      </trkpt>
      <trkpt lat="48.86819" lon="2.36289">
        <ele>98</ele>
        <time>2015-07-20T19:20:19.452Z</time>
      </trkpt>
      <trkpt lat="48.86822" lon="2.3629">
        <ele>97.9</ele>
        <time>2015-07-20T19:20:20.457Z</time>
      </trkpt>
      <trkpt lat="48.86823" lon="2.36291">
        <ele>98</ele>
        <time>2015-07-20T19:21:00.511Z</time>
      </trkpt>
      <trkpt lat="48.86831" lon="2.36268">
        <ele>96.4</ele>
        <time>2015-07-20T19:21:01.521Z</time>
      </trkpt>
      <trkpt lat="48.86836" lon="2.36263">
        <ele>98</ele>
        <time>2015-07-20T19:21:17.556Z</time>
      </trkpt>
      <trkpt lat="48.86857" lon="2.36279">
        <ele>94.9</ele>
        <time>2015-07-20T19:21:18.571Z</time>
      </trkpt>
      <trkpt lat="48.86863" lon="2.36275">
        <ele>96.3</ele>
        <time>2015-07-20T19:21:25.504Z</time>
      </trkpt>
      <trkpt lat="48.86872" lon="2.36272">
        <ele>97.3</ele>
        <time>2015-07-20T19:21:26.513Z</time>
      </trkpt>
      <trkpt lat="48.8688" lon="2.3627">
        <ele>97.8</ele>
        <time>2015-07-20T19:21:28.480Z</time>
      </trkpt>
      <trkpt lat="48.86883" lon="2.36268">
        <ele>97.8</ele>
        <time>2015-07-20T19:21:29.506Z</time>
      </trkpt>
      <trkpt lat="48.86888" lon="2.36267">
        <ele>98.1</ele>
        <time>2015-07-20T19:21:30.564Z</time>
      </trkpt>
      <trkpt lat="48.86892" lon="2.36265">
        <ele>98.3</ele>
        <time>2015-07-20T19:21:31.568Z</time>
      </trkpt>
      <trkpt lat="48.86899" lon="2.36259">
        <ele>98.4</ele>
        <time>2015-07-20T19:21:33.483Z</time>
      </trkpt>
      <trkpt lat="48.86902" lon="2.36256">
        <ele>98.8</ele>
        <time>2015-07-20T19:21:34.506Z</time>
      </trkpt>
      <trkpt lat="48.86905" lon="2.36253">
        <ele>99.1</ele>
        <time>2015-07-20T19:21:35.501Z</time>
      </trkpt>
      <trkpt lat="48.86911" lon="2.3625">
        <ele>99.4</ele>
        <time>2015-07-20T19:21:36.529Z</time>
      </trkpt>
      <trkpt lat="48.86916" lon="2.36246">
        <ele>99.5</ele>
        <time>2015-07-20T19:21:37.551Z</time>
      </trkpt>
      <trkpt lat="48.86921" lon="2.36241">
        <ele>99.1</ele>
        <time>2015-07-20T19:21:38.474Z</time>
      </trkpt>
      <trkpt lat="48.86927" lon="2.36233">
        <ele>99</ele>
        <time>2015-07-20T19:21:40.505Z</time>
      </trkpt>
      <trkpt lat="48.8693" lon="2.3623">
        <ele>99.2</ele>
        <time>2015-07-20T19:21:41.495Z</time>
      </trkpt>
      <trkpt lat="48.86935" lon="2.36222">
        <ele>99.3</ele>
        <time>2015-07-20T19:21:43.553Z</time>
      </trkpt>
      <trkpt lat="48.86936" lon="2.36218">
        <ele>99</ele>
        <time>2015-07-20T19:21:44.493Z</time>
      </trkpt>
      <trkpt lat="48.86937" lon="2.36209">
        <ele>98.5</ele>
        <time>2015-07-20T19:21:46.463Z</time>
      </trkpt>
      <trkpt lat="48.86939" lon="2.36204">
        <ele>98.4</ele>
        <time>2015-07-20T19:21:47.476Z</time>
      </trkpt>
      <trkpt lat="48.86944" lon="2.36194">
        <ele>98.2</ele>
        <time>2015-07-20T19:21:49.523Z</time>
      </trkpt>
      <trkpt lat="48.86947" lon="2.36189">
        <ele>98.1</ele>
        <time>2015-07-20T19:21:50.529Z</time>
      </trkpt>
      <trkpt lat="48.86951" lon="2.36184">
        <ele>98</ele>
        <time>2015-07-20T19:21:51.560Z</time>
      </trkpt>
      <trkpt lat="48.86953" lon="2.36177">
        <ele>97.8</ele>
        <time>2015-07-20T19:21:52.458Z</time>
      </trkpt>
      <trkpt lat="48.86956" lon="2.36171">
        <ele>97.9</ele>
        <time>2015-07-20T19:21:53.488Z</time>
      </trkpt>
      <trkpt lat="48.8696" lon="2.36165">
        <ele>98</ele>
        <time>2015-07-20T19:21:54.507Z</time>
      </trkpt>
      <trkpt lat="48.86963" lon="2.36159">
        <ele>97.9</ele>
        <time>2015-07-20T19:21:55.524Z</time>
      </trkpt>
      <trkpt lat="48.86966" lon="2.36153">
        <ele>97.8</ele>
        <time>2015-07-20T19:21:56.534Z</time>
      </trkpt>
      <trkpt lat="48.86969" lon="2.36148">
        <ele>97.6</ele>
        <time>2015-07-20T19:21:57.461Z</time>
      </trkpt>
      <trkpt lat="48.86972" lon="2.36141">
        <ele>97.4</ele>
        <time>2015-07-20T19:21:58.467Z</time>
      </trkpt>
      <trkpt lat="48.86975" lon="2.36135">
        <ele>97.3</ele>
        <time>2015-07-20T19:21:59.480Z</time>
      </trkpt>
      <trkpt lat="48.86977" lon="2.36128">
        <ele>97.3</ele>
        <time>2015-07-20T19:22:00.523Z</time>
      </trkpt>
      <trkpt lat="48.86979" lon="2.36121">
        <ele>97.4</ele>
        <time>2015-07-20T19:22:01.459Z</time>
      </trkpt>
      <trkpt lat="48.86981" lon="2.36113">
        <ele>97.1</ele>
        <time>2015-07-20T19:22:02.454Z</time>
      </trkpt>
      <trkpt lat="48.86984" lon="2.36106">
        <ele>96.8</ele>
        <time>2015-07-20T19:22:03.459Z</time>
      </trkpt>
      <trkpt lat="48.86984" lon="2.36099">
        <ele>96.9</ele>
        <time>2015-07-20T19:22:04.468Z</time>
      </trkpt>
      <trkpt lat="48.86985" lon="2.36091">
        <ele>97.8</ele>
        <time>2015-07-20T19:22:05.494Z</time>
      </trkpt>
      <trkpt lat="48.86984" lon="2.36082">
        <ele>98.3</ele>
        <time>2015-07-20T19:22:06.506Z</time>
      </trkpt>
      <trkpt lat="48.86988" lon="2.3607">
        <ele>99</ele>
        <time>2015-07-20T19:22:08.522Z</time>
      </trkpt>
      <trkpt lat="48.8699" lon="2.36063">
        <ele>98.9</ele>
        <time>2015-07-20T19:22:09.534Z</time>
      </trkpt>
      <trkpt lat="48.86994" lon="2.36056">
        <ele>98.8</ele>
        <time>2015-07-20T19:22:10.464Z</time>
      </trkpt>
      <trkpt lat="48.86997" lon="2.36049">
        <ele>99</ele>
        <time>2015-07-20T19:22:11.432Z</time>
      </trkpt>
      <trkpt lat="48.87002" lon="2.36043">
        <ele>98.9</ele>
        <time>2015-07-20T19:22:12.500Z</time>
      </trkpt>
      <trkpt lat="48.87006" lon="2.36037">
        <ele>99</ele>
        <time>2015-07-20T19:22:13.495Z</time>
      </trkpt>
      <trkpt lat="48.8701" lon="2.36032">
        <ele>99.1</ele>
        <time>2015-07-20T19:22:14.503Z</time>
      </trkpt>
      <trkpt lat="48.87014" lon="2.36025">
        <ele>98.9</ele>
        <time>2015-07-20T19:22:15.500Z</time>
      </trkpt>
      <trkpt lat="48.87019" lon="2.3602">
        <ele>98.4</ele>
        <time>2015-07-20T19:22:16.512Z</time>
      </trkpt>
      <trkpt lat="48.87023" lon="2.36013">
        <ele>98.2</ele>
        <time>2015-07-20T19:22:17.593Z</time>
      </trkpt>
      <trkpt lat="48.87027" lon="2.36008">
        <ele>97.8</ele>
        <time>2015-07-20T19:22:18.473Z</time>
      </trkpt>
      <trkpt lat="48.87031" lon="2.36002">
        <ele>97.6</ele>
        <time>2015-07-20T19:22:19.472Z</time>
      </trkpt>
      <trkpt lat="48.87035" lon="2.35995">
        <ele>97.2</ele>
        <time>2015-07-20T19:22:20.595Z</time>
      </trkpt>
      <trkpt lat="48.87038" lon="2.3599">
        <ele>97.2</ele>
        <time>2015-07-20T19:22:21.486Z</time>
      </trkpt>
      <trkpt lat="48.87042" lon="2.35985">
        <ele>97.3</ele>
        <time>2015-07-20T19:22:22.497Z</time>
      </trkpt>
      <trkpt lat="48.87045" lon="2.3598">
        <ele>97.5</ele>
        <time>2015-07-20T19:22:23.511Z</time>
      </trkpt>
      <trkpt lat="48.87047" lon="2.3597">
        <ele>98.4</ele>
        <time>2015-07-20T19:22:25.431Z</time>
      </trkpt>
      <trkpt lat="48.87048" lon="2.35966">
        <ele>98.9</ele>
        <time>2015-07-20T19:22:26.487Z</time>
      </trkpt>
      <trkpt lat="48.87052" lon="2.35959">
        <ele>99.3</ele>
        <time>2015-07-20T19:22:28.522Z</time>
      </trkpt>
      <trkpt lat="48.87055" lon="2.35957">
        <ele>99.6</ele>
        <time>2015-07-20T19:22:29.432Z</time>
      </trkpt>
      <trkpt lat="48.87059" lon="2.35947">
        <ele>100</ele>
        <time>2015-07-20T19:22:32.461Z</time>
      </trkpt>
      <trkpt lat="48.87061" lon="2.35944">
        <ele>99.8</ele>
        <time>2015-07-20T19:22:33.483Z</time>
      </trkpt>
      <trkpt lat="48.87065" lon="2.35937">
        <ele>100.3</ele>
        <time>2015-07-20T19:22:35.425Z</time>
      </trkpt>
      <trkpt lat="48.87068" lon="2.35934">
        <ele>100.1</ele>
        <time>2015-07-20T19:22:36.593Z</time>
      </trkpt>
      <trkpt lat="48.87073" lon="2.35927">
        <ele>100.3</ele>
        <time>2015-07-20T19:22:38.559Z</time>
      </trkpt>
      <trkpt lat="48.87075" lon="2.35924">
        <ele>100.3</ele>
        <time>2015-07-20T19:22:39.481Z</time>
      </trkpt>
      <trkpt lat="48.87078" lon="2.35913">
        <ele>100</ele>
        <time>2015-07-20T19:22:41.487Z</time>
      </trkpt>
      <trkpt lat="48.8708" lon="2.35908">
        <ele>100</ele>
        <time>2015-07-20T19:22:42.569Z</time>
      </trkpt>
      <trkpt lat="48.87083" lon="2.35903">
        <ele>99.7</ele>
        <time>2015-07-20T19:22:43.465Z</time>
      </trkpt>
      <trkpt lat="48.87086" lon="2.35897">
        <ele>99.4</ele>
        <time>2015-07-20T19:22:44.473Z</time>
      </trkpt>
      <trkpt lat="48.87089" lon="2.35886">
        <ele>99</ele>
        <time>2015-07-20T19:22:46.498Z</time>
      </trkpt>
      <trkpt lat="48.8709" lon="2.3588">
        <ele>99</ele>
        <time>2015-07-20T19:22:47.519Z</time>
      </trkpt>
      <trkpt lat="48.87096" lon="2.3587">
        <ele>98.2</ele>
        <time>2015-07-20T19:22:49.466Z</time>
      </trkpt>
      <trkpt lat="48.87099" lon="2.35865">
        <ele>98.1</ele>
        <time>2015-07-20T19:22:50.539Z</time>
      </trkpt>
      <trkpt lat="48.87103" lon="2.35859">
        <ele>98.1</ele>
        <time>2015-07-20T19:22:51.461Z</time>
      </trkpt>
      <trkpt lat="48.87107" lon="2.35854">
        <ele>97.7</ele>
        <time>2015-07-20T19:22:52.473Z</time>
      </trkpt>
      <trkpt lat="48.8711" lon="2.35848">
        <ele>97.6</ele>
        <time>2015-07-20T19:22:53.475Z</time>
      </trkpt>
      <trkpt lat="48.87113" lon="2.35843">
        <ele>97.6</ele>
        <time>2015-07-20T19:22:54.564Z</time>
      </trkpt>
      <trkpt lat="48.87116" lon="2.35835">
        <ele>98</ele>
        <time>2015-07-20T19:22:56.466Z</time>
      </trkpt>
      <trkpt lat="48.87119" lon="2.35831">
        <ele>98.2</ele>
        <time>2015-07-20T19:22:57.538Z</time>
      </trkpt>
      <trkpt lat="48.87122" lon="2.35821">
        <ele>98.4</ele>
        <time>2015-07-20T19:22:59.467Z</time>
      </trkpt>
      <trkpt lat="48.87123" lon="2.35816">
        <ele>99</ele>
        <time>2015-07-20T19:23:00.531Z</time>
      </trkpt>
      <trkpt lat="48.87127" lon="2.35804">
        <ele>99.2</ele>
        <time>2015-07-20T19:23:03.469Z</time>
      </trkpt>
      <trkpt lat="48.87131" lon="2.35803">
        <ele>99.3</ele>
        <time>2015-07-20T19:23:04.491Z</time>
      </trkpt>
      <trkpt lat="48.87136" lon="2.35802">
        <ele>99.6</ele>
        <time>2015-07-20T19:23:05.516Z</time>
      </trkpt>
      <trkpt lat="48.8714" lon="2.35799">
        <ele>99.5</ele>
        <time>2015-07-20T19:23:06.603Z</time>
      </trkpt>
      <trkpt lat="48.87146" lon="2.35792">
        <ele>100</ele>
        <time>2015-07-20T19:23:08.425Z</time>
      </trkpt>
      <trkpt lat="48.87149" lon="2.35787">
        <ele>100.3</ele>
        <time>2015-07-20T19:23:09.490Z</time>
      </trkpt>
      <trkpt lat="48.87154" lon="2.35779">
        <ele>100.7</ele>
        <time>2015-07-20T19:23:11.503Z</time>
      </trkpt>
      <trkpt lat="48.87158" lon="2.35776">
        <ele>100.7</ele>
        <time>2015-07-20T19:23:12.598Z</time>
      </trkpt>
      <trkpt lat="48.87165" lon="2.35769">
        <ele>100.2</ele>
        <time>2015-07-20T19:23:14.497Z</time>
      </trkpt>
      <trkpt lat="48.87168" lon="2.35765">
        <ele>100</ele>
        <time>2015-07-20T19:23:15.515Z</time>
      </trkpt>
      <trkpt lat="48.87171" lon="2.35753">
        <ele>99.4</ele>
        <time>2015-07-20T19:23:18.551Z</time>
      </trkpt>
      <trkpt lat="48.87172" lon="2.3575">
        <ele>99.4</ele>
        <time>2015-07-20T19:23:19.561Z</time>
      </trkpt>
      <trkpt lat="48.87171" lon="2.35748">
        <ele>99.3</ele>
        <time>2015-07-20T19:23:30.579Z</time>
      </trkpt>
      <trkpt lat="48.8716" lon="2.35759">
        <ele>99.6</ele>
        <time>2015-07-20T19:23:31.475Z</time>
      </trkpt>
      <trkpt lat="48.87154" lon="2.35768">
        <ele>99.4</ele>
        <time>2015-07-20T19:23:34.477Z</time>
      </trkpt>
      <trkpt lat="48.87151" lon="2.3577">
        <ele>99</ele>
        <time>2015-07-20T19:23:35.481Z</time>
      </trkpt>
      <trkpt lat="48.87147" lon="2.35779">
        <ele>98.6</ele>
        <time>2015-07-20T19:23:38.746Z</time>
      </trkpt>
      <trkpt lat="48.87147" lon="2.35782">
        <ele>98.1</ele>
        <time>2015-07-20T19:23:39.542Z</time>
      </trkpt>
      <trkpt lat="48.87142" lon="2.35771">
        <ele>99.9</ele>
        <time>2015-07-20T19:24:57.546Z</time>
      </trkpt>
      <trkpt lat="48.87144" lon="2.35768">
        <ele>99.8</ele>
        <time>2015-07-20T19:24:58.464Z</time>
      </trkpt>
      <trkpt lat="48.87149" lon="2.35761">
        <ele>99.6</ele>
        <time>2015-07-20T19:25:00.547Z</time>
      </trkpt>
      <trkpt lat="48.87151" lon="2.35759">
        <ele>99.4</ele>
        <time>2015-07-20T19:25:01.471Z</time>
      </trkpt>
      <trkpt lat="48.87156" lon="2.3575">
        <ele>99.4</ele>
        <time>2015-07-20T19:25:04.548Z</time>
      </trkpt>
      <trkpt lat="48.87158" lon="2.35747">
        <ele>99.5</ele>
        <time>2015-07-20T19:25:05.456Z</time>
      </trkpt>
      <trkpt lat="48.87163" lon="2.35741">
        <ele>99.8</ele>
        <time>2015-07-20T19:25:07.498Z</time>
      </trkpt>
      <trkpt lat="48.87165" lon="2.35738">
        <ele>99.9</ele>
        <time>2015-07-20T19:25:08.508Z</time>
      </trkpt>
      <trkpt lat="48.87165" lon="2.35728">
        <ele>100.1</ele>
        <time>2015-07-20T19:25:11.565Z</time>
      </trkpt>
      <trkpt lat="48.87166" lon="2.35724">
        <ele>99.7</ele>
        <time>2015-07-20T19:25:12.564Z</time>
      </trkpt>
      <trkpt lat="48.8717" lon="2.35712">
        <ele>99.9</ele>
        <time>2015-07-20T19:25:15.540Z</time>
      </trkpt>
      <trkpt lat="48.87171" lon="2.3571">
        <ele>99.7</ele>
        <time>2015-07-20T19:25:16.465Z</time>
      </trkpt>
    </trkseg>
  </trk>
  <trk>
    <name><![CDATA[lundi 2015 07 27]]></name>
    <extensions>
      <line xmlns="http://www.topografix.com/GPX/gpx_style/0/2">
        <color>000000</color>
      </line>
    </extensions>
    <trkseg>
      <trkpt lat="48.85739" lon="2.34748">
        <ele>52.400001525879</ele>
        <time>2015-07-27T18:20:34Z</time>
      </trkpt>
      <trkpt lat="48.85739" lon="2.34749">
        <ele>52.400001525879</ele>
        <time>2015-07-27T18:20:36Z</time>
      </trkpt>
      <trkpt lat="48.85743" lon="2.34755">
        <ele>52.79999923706</ele>
        <time>2015-07-27T18:20:41Z</time>
      </trkpt>
      <trkpt lat="48.85751" lon="2.3476">
        <ele>52.599998474121</ele>
        <time>2015-07-27T18:20:46Z</time>
      </trkpt>
      <trkpt lat="48.85753" lon="2.3476">
        <ele>52.400001525879</ele>
        <time>2015-07-27T18:20:47Z</time>
      </trkpt>
      <trkpt lat="48.85762" lon="2.34764">
        <ele>51.20000076294</ele>
        <time>2015-07-27T18:20:54Z</time>
      </trkpt>
      <trkpt lat="48.85763" lon="2.34764">
        <ele>51</ele>
        <time>2015-07-27T18:20:55Z</time>
      </trkpt>
      <trkpt lat="48.85766" lon="2.34771">
        <ele>50</ele>
        <time>2015-07-27T18:21:01Z</time>
      </trkpt>
      <trkpt lat="48.8577" lon="2.34773">
        <ele>49.599998474121</ele>
        <time>2015-07-27T18:21:03Z</time>
      </trkpt>
      <trkpt lat="48.85787" lon="2.34784">
        <ele>48.20000076294</ele>
        <time>2015-07-27T18:21:10Z</time>
      </trkpt>
      <trkpt lat="48.85805" lon="2.34795">
        <ele>47.599998474121</ele>
        <time>2015-07-27T18:21:16Z</time>
      </trkpt>
      <trkpt lat="48.85824" lon="2.34808">
        <ele>47.20000076294</ele>
        <time>2015-07-27T18:21:22Z</time>
      </trkpt>
      <trkpt lat="48.85845" lon="2.34816">
        <ele>46.79999923706</ele>
        <time>2015-07-27T18:21:27Z</time>
      </trkpt>
      <trkpt lat="48.85854" lon="2.34819">
        <ele>46.400001525879</ele>
        <time>2015-07-27T18:21:29Z</time>
      </trkpt>
      <trkpt lat="48.85868" lon="2.34831">
        <ele>45.79999923706</ele>
        <time>2015-07-27T18:21:33Z</time>
      </trkpt>
      <trkpt lat="48.85893" lon="2.34848">
        <ele>45.400001525879</ele>
        <time>2015-07-27T18:21:40Z</time>
      </trkpt>
      <trkpt lat="48.85896" lon="2.34851">
        <ele>45.20000076294</ele>
        <time>2015-07-27T18:21:41Z</time>
      </trkpt>
      <trkpt lat="48.85899" lon="2.34854">
        <ele>45.20000076294</ele>
        <time>2015-07-27T18:21:42Z</time>
      </trkpt>
      <trkpt lat="48.85922" lon="2.34867">
        <ele>45</ele>
        <time>2015-07-27T18:21:48Z</time>
      </trkpt>
      <trkpt lat="48.8594" lon="2.34876">
        <ele>45.599998474121</ele>
        <time>2015-07-27T18:21:53Z</time>
      </trkpt>
      <trkpt lat="48.85958" lon="2.34882">
        <ele>46.20000076294</ele>
        <time>2015-07-27T18:21:58Z</time>
      </trkpt>
      <trkpt lat="48.85978" lon="2.34891">
        <ele>47</ele>
        <time>2015-07-27T18:22:03Z</time>
      </trkpt>
      <trkpt lat="48.85995" lon="2.34899">
        <ele>47.79999923706</ele>
        <time>2015-07-27T18:22:07Z</time>
      </trkpt>
      <trkpt lat="48.85999" lon="2.34901">
        <ele>48</ele>
        <time>2015-07-27T18:22:08Z</time>
      </trkpt>
      <trkpt lat="48.8601" lon="2.34907">
        <ele>48.20000076294</ele>
        <time>2015-07-27T18:22:11Z</time>
      </trkpt>
      <trkpt lat="48.86033" lon="2.34918">
        <ele>49.20000076294</ele>
        <time>2015-07-27T18:22:17Z</time>
      </trkpt>
      <trkpt lat="48.86045" lon="2.34926">
        <ele>50</ele>
        <time>2015-07-27T18:22:22Z</time>
      </trkpt>
      <trkpt lat="48.86061" lon="2.34933">
        <ele>50.79999923706</ele>
        <time>2015-07-27T18:22:28Z</time>
      </trkpt>
      <trkpt lat="48.86078" lon="2.34941">
        <ele>52</ele>
        <time>2015-07-27T18:22:33Z</time>
      </trkpt>
      <trkpt lat="48.86105" lon="2.34955">
        <ele>52.599998474121</ele>
        <time>2015-07-27T18:22:40Z</time>
      </trkpt>
      <trkpt lat="48.86122" lon="2.34964">
        <ele>53.599998474121</ele>
        <time>2015-07-27T18:22:44Z</time>
      </trkpt>
      <trkpt lat="48.86139" lon="2.34974">
        <ele>54.20000076294</ele>
        <time>2015-07-27T18:22:48Z</time>
      </trkpt>
      <trkpt lat="48.86156" lon="2.34983">
        <ele>54.599998474121</ele>
        <time>2015-07-27T18:22:52Z</time>
      </trkpt>
      <trkpt lat="48.86173" lon="2.34993">
        <ele>55</ele>
        <time>2015-07-27T18:22:56Z</time>
      </trkpt>
      <trkpt lat="48.86191" lon="2.35003">
        <ele>55.79999923706</ele>
        <time>2015-07-27T18:23:00Z</time>
      </trkpt>
      <trkpt lat="48.86205" lon="2.35011">
        <ele>56.400001525879</ele>
        <time>2015-07-27T18:23:04Z</time>
      </trkpt>
      <trkpt lat="48.86208" lon="2.35013">
        <ele>56.599998474121</ele>
        <time>2015-07-27T18:23:05Z</time>
      </trkpt>
      <trkpt lat="48.8622" lon="2.35021">
        <ele>56.79999923706</ele>
        <time>2015-07-27T18:23:08Z</time>
      </trkpt>
      <trkpt lat="48.86243" lon="2.35031">
        <ele>57.20000076294</ele>
        <time>2015-07-27T18:23:13Z</time>
      </trkpt>
      <trkpt lat="48.86256" lon="2.35038">
        <ele>57.20000076294</ele>
        <time>2015-07-27T18:23:16Z</time>
      </trkpt>
      <trkpt lat="48.86275" lon="2.35047">
        <ele>57.400001525879</ele>
        <time>2015-07-27T18:23:20Z</time>
      </trkpt>
      <trkpt lat="48.86294" lon="2.35058">
        <ele>57.400001525879</ele>
        <time>2015-07-27T18:23:24Z</time>
      </trkpt>
      <trkpt lat="48.86298" lon="2.3506">
        <ele>57.400001525879</ele>
        <time>2015-07-27T18:23:25Z</time>
      </trkpt>
      <trkpt lat="48.8632" lon="2.35074">
        <ele>57.400001525879</ele>
        <time>2015-07-27T18:23:29Z</time>
      </trkpt>
      <trkpt lat="48.86338" lon="2.35085">
        <ele>57.400001525879</ele>
        <time>2015-07-27T18:23:32Z</time>
      </trkpt>
      <trkpt lat="48.86344" lon="2.35088">
        <ele>57.400001525879</ele>
        <time>2015-07-27T18:23:33Z</time>
      </trkpt>
      <trkpt lat="48.8637" lon="2.35102">
        <ele>57.599998474121</ele>
        <time>2015-07-27T18:23:38Z</time>
      </trkpt>
      <trkpt lat="48.86391" lon="2.35113">
        <ele>57.599998474121</ele>
        <time>2015-07-27T18:23:42Z</time>
      </trkpt>
      <trkpt lat="48.86409" lon="2.35123">
        <ele>57.599998474121</ele>
        <time>2015-07-27T18:23:46Z</time>
      </trkpt>
      <trkpt lat="48.86427" lon="2.35131">
        <ele>57.599998474121</ele>
        <time>2015-07-27T18:23:49Z</time>
      </trkpt>
      <trkpt lat="48.86448" lon="2.35145">
        <ele>57.599998474121</ele>
        <time>2015-07-27T18:23:53Z</time>
      </trkpt>
      <trkpt lat="48.86467" lon="2.35157">
        <ele>57.599998474121</ele>
        <time>2015-07-27T18:23:57Z</time>
      </trkpt>
      <trkpt lat="48.86485" lon="2.35167">
        <ele>57.599998474121</ele>
        <time>2015-07-27T18:24:01Z</time>
      </trkpt>
      <trkpt lat="48.86505" lon="2.35177">
        <ele>57.599998474121</ele>
        <time>2015-07-27T18:24:05Z</time>
      </trkpt>
      <trkpt lat="48.86514" lon="2.35183">
        <ele>57.599998474121</ele>
        <time>2015-07-27T18:24:07Z</time>
      </trkpt>
      <trkpt lat="48.86525" lon="2.3519">
        <ele>57.599998474121</ele>
        <time>2015-07-27T18:24:09Z</time>
      </trkpt>
      <trkpt lat="48.86543" lon="2.35202">
        <ele>57.599998474121</ele>
        <time>2015-07-27T18:24:13Z</time>
      </trkpt>
      <trkpt lat="48.86561" lon="2.35211">
        <ele>57.599998474121</ele>
        <time>2015-07-27T18:24:17Z</time>
      </trkpt>
      <trkpt lat="48.86576" lon="2.3522">
        <ele>57.599998474121</ele>
        <time>2015-07-27T18:24:21Z</time>
      </trkpt>
      <trkpt lat="48.86584" lon="2.35222">
        <ele>57.599998474121</ele>
        <time>2015-07-27T18:24:23Z</time>
      </trkpt>
      <trkpt lat="48.86591" lon="2.35225">
        <ele>57.599998474121</ele>
        <time>2015-07-27T18:24:25Z</time>
      </trkpt>
      <trkpt lat="48.8661" lon="2.35239">
        <ele>57.599998474121</ele>
        <time>2015-07-27T18:24:32Z</time>
      </trkpt>
      <trkpt lat="48.86612" lon="2.35241">
        <ele>57.599998474121</ele>
        <time>2015-07-27T18:24:33Z</time>
      </trkpt>
      <trkpt lat="48.86617" lon="2.35252">
        <ele>57.599998474121</ele>
        <time>2015-07-27T18:24:37Z</time>
      </trkpt>
      <trkpt lat="48.86616" lon="2.35284">
        <ele>57.599998474121</ele>
        <time>2015-07-27T18:24:44Z</time>
      </trkpt>
      <trkpt lat="48.86611" lon="2.35313">
        <ele>57.599998474121</ele>
        <time>2015-07-27T18:24:49Z</time>
      </trkpt>
      <trkpt lat="48.86604" lon="2.35343">
        <ele>57.20000076294</ele>
        <time>2015-07-27T18:24:54Z</time>
      </trkpt>
      <trkpt lat="48.86604" lon="2.35355">
        <ele>56.599998474121</ele>
        <time>2015-07-27T18:24:58Z</time>
      </trkpt>
      <trkpt lat="48.86604" lon="2.35356">
        <ele>56.400001525879</ele>
        <time>2015-07-27T18:24:59Z</time>
      </trkpt>
      <trkpt lat="48.86604" lon="2.35361">
        <ele>55.400001525879</ele>
        <time>2015-07-27T18:25:04Z</time>
      </trkpt>
      <trkpt lat="48.86605" lon="2.35373">
        <ele>52</ele>
        <time>2015-07-27T18:25:26Z</time>
      </trkpt>
      <trkpt lat="48.86598" lon="2.35396">
        <ele>51.599998474121</ele>
        <time>2015-07-27T18:25:31Z</time>
      </trkpt>
      <trkpt lat="48.86592" lon="2.35428">
        <ele>51.400001525879</ele>
        <time>2015-07-27T18:25:37Z</time>
      </trkpt>
      <trkpt lat="48.86589" lon="2.35452">
        <ele>51.400001525879</ele>
        <time>2015-07-27T18:25:41Z</time>
      </trkpt>
      <trkpt lat="48.86583" lon="2.35489">
        <ele>51.400001525879</ele>
        <time>2015-07-27T18:25:47Z</time>
      </trkpt>
      <trkpt lat="48.86581" lon="2.35502">
        <ele>51.400001525879</ele>
        <time>2015-07-27T18:25:49Z</time>
      </trkpt>
      <trkpt lat="48.86579" lon="2.35514">
        <ele>51.400001525879</ele>
        <time>2015-07-27T18:25:51Z</time>
      </trkpt>
      <trkpt lat="48.86571" lon="2.35553">
        <ele>51.20000076294</ele>
        <time>2015-07-27T18:25:57Z</time>
      </trkpt>
      <trkpt lat="48.86569" lon="2.3556">
        <ele>51.20000076294</ele>
        <time>2015-07-27T18:25:58Z</time>
      </trkpt>
      <trkpt lat="48.86562" lon="2.35588">
        <ele>51.20000076294</ele>
        <time>2015-07-27T18:26:02Z</time>
      </trkpt>
      <trkpt lat="48.86555" lon="2.35616">
        <ele>51.20000076294</ele>
        <time>2015-07-27T18:26:06Z</time>
      </trkpt>
      <trkpt lat="48.8655" lon="2.35646">
        <ele>51.20000076294</ele>
        <time>2015-07-27T18:26:10Z</time>
      </trkpt>
      <trkpt lat="48.86542" lon="2.35673">
        <ele>51.20000076294</ele>
        <time>2015-07-27T18:26:14Z</time>
      </trkpt>
      <trkpt lat="48.86536" lon="2.35703">
        <ele>51.20000076294</ele>
        <time>2015-07-27T18:26:18Z</time>
      </trkpt>
      <trkpt lat="48.86532" lon="2.35734">
        <ele>51.20000076294</ele>
        <time>2015-07-27T18:26:22Z</time>
      </trkpt>
      <trkpt lat="48.86527" lon="2.35766">
        <ele>51.20000076294</ele>
        <time>2015-07-27T18:26:26Z</time>
      </trkpt>
      <trkpt lat="48.86519" lon="2.35799">
        <ele>51.20000076294</ele>
        <time>2015-07-27T18:26:30Z</time>
      </trkpt>
      <trkpt lat="48.86512" lon="2.35827">
        <ele>51.20000076294</ele>
        <time>2015-07-27T18:26:34Z</time>
      </trkpt>
      <trkpt lat="48.86509" lon="2.3584">
        <ele>51.20000076294</ele>
        <time>2015-07-27T18:26:36Z</time>
      </trkpt>
      <trkpt lat="48.865" lon="2.35873">
        <ele>51.20000076294</ele>
        <time>2015-07-27T18:26:41Z</time>
      </trkpt>
      <trkpt lat="48.86492" lon="2.35901">
        <ele>51.20000076294</ele>
        <time>2015-07-27T18:26:46Z</time>
      </trkpt>
      <trkpt lat="48.86491" lon="2.35906">
        <ele>51.20000076294</ele>
        <time>2015-07-27T18:26:47Z</time>
      </trkpt>
      <trkpt lat="48.86483" lon="2.35926">
        <ele>51.79999923706</ele>
        <time>2015-07-27T18:26:52Z</time>
      </trkpt>
      <trkpt lat="48.86481" lon="2.35936">
        <ele>52.20000076294</ele>
        <time>2015-07-27T18:26:55Z</time>
      </trkpt>
      <trkpt lat="48.86479" lon="2.3594">
        <ele>52.400001525879</ele>
        <time>2015-07-27T18:26:56Z</time>
      </trkpt>
      <trkpt lat="48.86477" lon="2.3595">
        <ele>52.400001525879</ele>
        <time>2015-07-27T18:26:58Z</time>
      </trkpt>
      <trkpt lat="48.86484" lon="2.35973">
        <ele>52.79999923706</ele>
        <time>2015-07-27T18:27:03Z</time>
      </trkpt>
      <trkpt lat="48.865" lon="2.35996">
        <ele>53</ele>
        <time>2015-07-27T18:27:07Z</time>
      </trkpt>
      <trkpt lat="48.86505" lon="2.36001">
        <ele>53</ele>
        <time>2015-07-27T18:27:08Z</time>
      </trkpt>
      <trkpt lat="48.86529" lon="2.36028">
        <ele>53.20000076294</ele>
        <time>2015-07-27T18:27:13Z</time>
      </trkpt>
      <trkpt lat="48.86548" lon="2.36048">
        <ele>53.20000076294</ele>
        <time>2015-07-27T18:27:17Z</time>
      </trkpt>
      <trkpt lat="48.86565" lon="2.36065">
        <ele>53.20000076294</ele>
        <time>2015-07-27T18:27:21Z</time>
      </trkpt>
      <trkpt lat="48.8657" lon="2.3607">
        <ele>53.20000076294</ele>
        <time>2015-07-27T18:27:22Z</time>
      </trkpt>
      <trkpt lat="48.8658" lon="2.36089">
        <ele>53.20000076294</ele>
        <time>2015-07-27T18:27:26Z</time>
      </trkpt>
      <trkpt lat="48.86573" lon="2.36105">
        <ele>53.20000076294</ele>
        <time>2015-07-27T18:27:29Z</time>
      </trkpt>
      <trkpt lat="48.86566" lon="2.36116">
        <ele>53.20000076294</ele>
        <time>2015-07-27T18:27:31Z</time>
      </trkpt>
      <trkpt lat="48.8656" lon="2.36128">
        <ele>53</ele>
        <time>2015-07-27T18:27:33Z</time>
      </trkpt>
      <trkpt lat="48.86548" lon="2.36148">
        <ele>52.400001525879</ele>
        <time>2015-07-27T18:27:37Z</time>
      </trkpt>
      <trkpt lat="48.86532" lon="2.3617">
        <ele>52</ele>
        <time>2015-07-27T18:27:42Z</time>
      </trkpt>
      <trkpt lat="48.8652" lon="2.36192">
        <ele>51.79999923706</ele>
        <time>2015-07-27T18:27:46Z</time>
      </trkpt>
      <trkpt lat="48.86517" lon="2.36198">
        <ele>51.79999923706</ele>
        <time>2015-07-27T18:27:47Z</time>
      </trkpt>
      <trkpt lat="48.86504" lon="2.36226">
        <ele>51.599998474121</ele>
        <time>2015-07-27T18:27:52Z</time>
      </trkpt>
      <trkpt lat="48.86502" lon="2.36232">
        <ele>51.400001525879</ele>
        <time>2015-07-27T18:27:53Z</time>
      </trkpt>
      <trkpt lat="48.86503" lon="2.36258">
        <ele>51.20000076294</ele>
        <time>2015-07-27T18:27:57Z</time>
      </trkpt>
      <trkpt lat="48.86508" lon="2.36278">
        <ele>50.599998474121</ele>
        <time>2015-07-27T18:28:00Z</time>
      </trkpt>
      <trkpt lat="48.8651" lon="2.36283">
        <ele>50.400001525879</ele>
        <time>2015-07-27T18:28:01Z</time>
      </trkpt>
      <trkpt lat="48.86511" lon="2.36288">
        <ele>50.400001525879</ele>
        <time>2015-07-27T18:28:02Z</time>
      </trkpt>
      <trkpt lat="48.86517" lon="2.36305">
        <ele>49.79999923706</ele>
        <time>2015-07-27T18:28:05Z</time>
      </trkpt>
      <trkpt lat="48.86525" lon="2.36339">
        <ele>48.400001525879</ele>
        <time>2015-07-27T18:28:12Z</time>
      </trkpt>
      <trkpt lat="48.86531" lon="2.36364">
        <ele>47.79999923706</ele>
        <time>2015-07-27T18:28:17Z</time>
      </trkpt>
      <trkpt lat="48.86537" lon="2.36384">
        <ele>47.400001525879</ele>
        <time>2015-07-27T18:28:21Z</time>
      </trkpt>
      <trkpt lat="48.86539" lon="2.36402">
        <ele>47.20000076294</ele>
        <time>2015-07-27T18:28:25Z</time>
      </trkpt>
      <trkpt lat="48.86539" lon="2.36405">
        <ele>47.20000076294</ele>
        <time>2015-07-27T18:28:26Z</time>
      </trkpt>
      <trkpt lat="48.86553" lon="2.36402">
        <ele>47.20000076294</ele>
        <time>2015-07-27T18:28:30Z</time>
      </trkpt>
      <trkpt lat="48.86557" lon="2.364">
        <ele>47.20000076294</ele>
        <time>2015-07-27T18:28:31Z</time>
      </trkpt>
      <trkpt lat="48.86575" lon="2.3639">
        <ele>47</ele>
        <time>2015-07-27T18:28:36Z</time>
      </trkpt>
      <trkpt lat="48.86594" lon="2.3638">
        <ele>47</ele>
        <time>2015-07-27T18:28:41Z</time>
      </trkpt>
      <trkpt lat="48.86614" lon="2.36368">
        <ele>47</ele>
        <time>2015-07-27T18:28:46Z</time>
      </trkpt>
      <trkpt lat="48.86631" lon="2.36356">
        <ele>47</ele>
        <time>2015-07-27T18:28:51Z</time>
      </trkpt>
      <trkpt lat="48.8665" lon="2.36341">
        <ele>47</ele>
        <time>2015-07-27T18:28:57Z</time>
      </trkpt>
      <trkpt lat="48.86666" lon="2.36328">
        <ele>47</ele>
        <time>2015-07-27T18:29:02Z</time>
      </trkpt>
      <trkpt lat="48.86684" lon="2.36316">
        <ele>47.599998474121</ele>
        <time>2015-07-27T18:29:08Z</time>
      </trkpt>
      <trkpt lat="48.86695" lon="2.3631">
        <ele>48.20000076294</ele>
        <time>2015-07-27T18:29:13Z</time>
      </trkpt>
      <trkpt lat="48.86697" lon="2.36309">
        <ele>48.400001525879</ele>
        <time>2015-07-27T18:29:14Z</time>
      </trkpt>
      <trkpt lat="48.86706" lon="2.36319">
        <ele>48.599998474121</ele>
        <time>2015-07-27T18:29:18Z</time>
      </trkpt>
      <trkpt lat="48.86708" lon="2.36322">
        <ele>48.599998474121</ele>
        <time>2015-07-27T18:29:19Z</time>
      </trkpt>
      <trkpt lat="48.86714" lon="2.36335">
        <ele>48.79999923706</ele>
        <time>2015-07-27T18:29:23Z</time>
      </trkpt>
      <trkpt lat="48.86721" lon="2.36339">
        <ele>49</ele>
        <time>2015-07-27T18:29:31Z</time>
      </trkpt>
      <trkpt lat="48.86731" lon="2.36355">
        <ele>49</ele>
        <time>2015-07-27T18:29:36Z</time>
      </trkpt>
      <trkpt lat="48.86738" lon="2.36369">
        <ele>49</ele>
        <time>2015-07-27T18:29:40Z</time>
      </trkpt>
      <trkpt lat="48.8674" lon="2.36386">
        <ele>49</ele>
        <time>2015-07-27T18:29:45Z</time>
      </trkpt>
      <trkpt lat="48.86741" lon="2.36393">
        <ele>49</ele>
        <time>2015-07-27T18:29:47Z</time>
      </trkpt>
      <trkpt lat="48.86735" lon="2.36403">
        <ele>49</ele>
        <time>2015-07-27T18:29:52Z</time>
      </trkpt>
      <trkpt lat="48.8673" lon="2.3641">
        <ele>49</ele>
        <time>2015-07-27T18:29:55Z</time>
      </trkpt>
      <trkpt lat="48.86724" lon="2.36426">
        <ele>49</ele>
        <time>2015-07-27T18:30:00Z</time>
      </trkpt>
      <trkpt lat="48.86721" lon="2.36438">
        <ele>48.599998474121</ele>
        <time>2015-07-27T18:30:03Z</time>
      </trkpt>
      <trkpt lat="48.86715" lon="2.36461">
        <ele>47.79999923706</ele>
        <time>2015-07-27T18:30:09Z</time>
      </trkpt>
      <trkpt lat="48.86714" lon="2.3648">
        <ele>47.599998474121</ele>
        <time>2015-07-27T18:30:13Z</time>
      </trkpt>
      <trkpt lat="48.86713" lon="2.36484">
        <ele>47.400001525879</ele>
        <time>2015-07-27T18:30:14Z</time>
      </trkpt>
      <trkpt lat="48.86703" lon="2.36507">
        <ele>46.400001525879</ele>
        <time>2015-07-27T18:30:20Z</time>
      </trkpt>
      <trkpt lat="48.867" lon="2.36514">
        <ele>46.20000076294</ele>
        <time>2015-07-27T18:30:22Z</time>
      </trkpt>
      <trkpt lat="48.86694" lon="2.36531">
        <ele>45.79999923706</ele>
        <time>2015-07-27T18:30:27Z</time>
      </trkpt>
      <trkpt lat="48.86693" lon="2.36543">
        <ele>45.400001525879</ele>
        <time>2015-07-27T18:30:31Z</time>
      </trkpt>
      <trkpt lat="48.86692" lon="2.36577">
        <ele>45.20000076294</ele>
        <time>2015-07-27T18:30:39Z</time>
      </trkpt>
      <trkpt lat="48.86687" lon="2.36614">
        <ele>45.20000076294</ele>
        <time>2015-07-27T18:30:45Z</time>
      </trkpt>
      <trkpt lat="48.86686" lon="2.3662">
        <ele>45.20000076294</ele>
        <time>2015-07-27T18:30:46Z</time>
      </trkpt>
      <trkpt lat="48.86681" lon="2.3664">
        <ele>45.20000076294</ele>
        <time>2015-07-27T18:30:49Z</time>
      </trkpt>
      <trkpt lat="48.86675" lon="2.36674">
        <ele>45</ele>
        <time>2015-07-27T18:30:54Z</time>
      </trkpt>
      <trkpt lat="48.86675" lon="2.36696">
        <ele>45</ele>
        <time>2015-07-27T18:30:57Z</time>
      </trkpt>
      <trkpt lat="48.86669" lon="2.36733">
        <ele>45</ele>
        <time>2015-07-27T18:31:02Z</time>
      </trkpt>
      <trkpt lat="48.86667" lon="2.36741">
        <ele>45</ele>
        <time>2015-07-27T18:31:03Z</time>
      </trkpt>
      <trkpt lat="48.86661" lon="2.36775">
        <ele>45</ele>
        <time>2015-07-27T18:31:07Z</time>
      </trkpt>
      <trkpt lat="48.86657" lon="2.36793">
        <ele>45</ele>
        <time>2015-07-27T18:31:09Z</time>
      </trkpt>
      <trkpt lat="48.86654" lon="2.3681">
        <ele>45</ele>
        <time>2015-07-27T18:31:11Z</time>
      </trkpt>
      <trkpt lat="48.86648" lon="2.36837">
        <ele>45</ele>
        <time>2015-07-27T18:31:14Z</time>
      </trkpt>
      <trkpt lat="48.86642" lon="2.36874">
        <ele>45.599998474121</ele>
        <time>2015-07-27T18:31:18Z</time>
      </trkpt>
      <trkpt lat="48.86634" lon="2.36905">
        <ele>46</ele>
        <time>2015-07-27T18:31:22Z</time>
      </trkpt>
      <trkpt lat="48.86629" lon="2.36934">
        <ele>46.400001525879</ele>
        <time>2015-07-27T18:31:26Z</time>
      </trkpt>
      <trkpt lat="48.86627" lon="2.36942">
        <ele>46.400001525879</ele>
        <time>2015-07-27T18:31:27Z</time>
      </trkpt>
      <trkpt lat="48.8662" lon="2.3698">
        <ele>46.79999923706</ele>
        <time>2015-07-27T18:31:32Z</time>
      </trkpt>
      <trkpt lat="48.86613" lon="2.37016">
        <ele>46.79999923706</ele>
        <time>2015-07-27T18:31:37Z</time>
      </trkpt>
      <trkpt lat="48.86607" lon="2.37045">
        <ele>46.79999923706</ele>
        <time>2015-07-27T18:31:41Z</time>
      </trkpt>
      <trkpt lat="48.86613" lon="2.371">
        <ele>47</ele>
        <time>2015-07-27T18:31:50Z</time>
      </trkpt>
      <trkpt lat="48.8662" lon="2.37123">
        <ele>47</ele>
        <time>2015-07-27T18:31:54Z</time>
      </trkpt>
      <trkpt lat="48.86622" lon="2.37133">
        <ele>47</ele>
        <time>2015-07-27T18:31:56Z</time>
      </trkpt>
      <trkpt lat="48.86626" lon="2.37147">
        <ele>47</ele>
        <time>2015-07-27T18:31:58Z</time>
      </trkpt>
      <trkpt lat="48.86631" lon="2.37164">
        <ele>47</ele>
        <time>2015-07-27T18:32:01Z</time>
      </trkpt>
      <trkpt lat="48.86641" lon="2.37183">
        <ele>47</ele>
        <time>2015-07-27T18:32:06Z</time>
      </trkpt>
      <trkpt lat="48.86646" lon="2.37203">
        <ele>47</ele>
        <time>2015-07-27T18:32:11Z</time>
      </trkpt>
      <trkpt lat="48.86647" lon="2.37207">
        <ele>47</ele>
        <time>2015-07-27T18:32:12Z</time>
      </trkpt>
      <trkpt lat="48.86654" lon="2.37233">
        <ele>47</ele>
        <time>2015-07-27T18:32:18Z</time>
      </trkpt>
      <trkpt lat="48.86655" lon="2.37238">
        <ele>47</ele>
        <time>2015-07-27T18:32:19Z</time>
      </trkpt>
      <trkpt lat="48.86661" lon="2.37256">
        <ele>47</ele>
        <time>2015-07-27T18:32:22Z</time>
      </trkpt>
      <trkpt lat="48.86666" lon="2.37275">
        <ele>47</ele>
        <time>2015-07-27T18:32:26Z</time>
      </trkpt>
      <trkpt lat="48.86673" lon="2.37299">
        <ele>47</ele>
        <time>2015-07-27T18:32:31Z</time>
      </trkpt>
      <trkpt lat="48.86679" lon="2.37315">
        <ele>47</ele>
        <time>2015-07-27T18:32:36Z</time>
      </trkpt>
      <trkpt lat="48.86686" lon="2.37331">
        <ele>47</ele>
        <time>2015-07-27T18:32:41Z</time>
      </trkpt>
      <trkpt lat="48.86686" lon="2.37335">
        <ele>47</ele>
        <time>2015-07-27T18:32:42Z</time>
      </trkpt>
      <trkpt lat="48.86674" lon="2.37351">
        <ele>47</ele>
        <time>2015-07-27T18:32:46Z</time>
      </trkpt>
      <trkpt lat="48.86669" lon="2.37371">
        <ele>47</ele>
        <time>2015-07-27T18:32:50Z</time>
      </trkpt>
      <trkpt lat="48.86672" lon="2.37385">
        <ele>47</ele>
        <time>2015-07-27T18:32:52Z</time>
      </trkpt>
      <trkpt lat="48.86676" lon="2.37397">
        <ele>47</ele>
        <time>2015-07-27T18:32:54Z</time>
      </trkpt>
      <trkpt lat="48.86683" lon="2.37421">
        <ele>47</ele>
        <time>2015-07-27T18:32:58Z</time>
      </trkpt>
      <trkpt lat="48.86692" lon="2.3746">
        <ele>47</ele>
        <time>2015-07-27T18:33:04Z</time>
      </trkpt>
      <trkpt lat="48.86697" lon="2.37479">
        <ele>47</ele>
        <time>2015-07-27T18:33:07Z</time>
      </trkpt>
      <trkpt lat="48.86701" lon="2.37491">
        <ele>47</ele>
        <time>2015-07-27T18:33:09Z</time>
      </trkpt>
      <trkpt lat="48.86707" lon="2.37517">
        <ele>47</ele>
        <time>2015-07-27T18:33:14Z</time>
      </trkpt>
      <trkpt lat="48.86711" lon="2.37541">
        <ele>47</ele>
        <time>2015-07-27T18:33:19Z</time>
      </trkpt>
      <trkpt lat="48.86715" lon="2.37563">
        <ele>47</ele>
        <time>2015-07-27T18:33:23Z</time>
      </trkpt>
      <trkpt lat="48.86719" lon="2.37578">
        <ele>47</ele>
        <time>2015-07-27T18:33:26Z</time>
      </trkpt>
      <trkpt lat="48.86728" lon="2.37599">
        <ele>47</ele>
        <time>2015-07-27T18:33:30Z</time>
      </trkpt>
      <trkpt lat="48.86737" lon="2.37631">
        <ele>47</ele>
        <time>2015-07-27T18:33:35Z</time>
      </trkpt>
      <trkpt lat="48.8674" lon="2.37645">
        <ele>47</ele>
        <time>2015-07-27T18:33:37Z</time>
      </trkpt>
      <trkpt lat="48.86748" lon="2.3768">
        <ele>47</ele>
        <time>2015-07-27T18:33:42Z</time>
      </trkpt>
      <trkpt lat="48.8675" lon="2.37687">
        <ele>47</ele>
        <time>2015-07-27T18:33:43Z</time>
      </trkpt>
      <trkpt lat="48.86752" lon="2.37702">
        <ele>47</ele>
        <time>2015-07-27T18:33:45Z</time>
      </trkpt>
      <trkpt lat="48.8676" lon="2.37727">
        <ele>47</ele>
        <time>2015-07-27T18:33:49Z</time>
      </trkpt>
      <trkpt lat="48.86773" lon="2.37746">
        <ele>47</ele>
        <time>2015-07-27T18:33:54Z</time>
      </trkpt>
      <trkpt lat="48.86774" lon="2.37751">
        <ele>47</ele>
        <time>2015-07-27T18:33:55Z</time>
      </trkpt>
      <trkpt lat="48.86784" lon="2.37778">
        <ele>47</ele>
        <time>2015-07-27T18:34:01Z</time>
      </trkpt>
      <trkpt lat="48.8679" lon="2.37805">
        <ele>47</ele>
        <time>2015-07-27T18:34:06Z</time>
      </trkpt>
      <trkpt lat="48.86794" lon="2.37828">
        <ele>47.79999923706</ele>
        <time>2015-07-27T18:34:11Z</time>
      </trkpt>
      <trkpt lat="48.86794" lon="2.37832">
        <ele>47.79999923706</ele>
        <time>2015-07-27T18:34:12Z</time>
      </trkpt>
      <trkpt lat="48.86804" lon="2.37853">
        <ele>48.400001525879</ele>
        <time>2015-07-27T18:34:17Z</time>
      </trkpt>
      <trkpt lat="48.86805" lon="2.37858">
        <ele>48.599998474121</ele>
        <time>2015-07-27T18:34:18Z</time>
      </trkpt>
      <trkpt lat="48.86811" lon="2.37884">
        <ele>49.79999923706</ele>
        <time>2015-07-27T18:34:23Z</time>
      </trkpt>
      <trkpt lat="48.86817" lon="2.37908">
        <ele>50.400001525879</ele>
        <time>2015-07-27T18:34:28Z</time>
      </trkpt>
      <trkpt lat="48.86828" lon="2.37936">
        <ele>51.79999923706</ele>
        <time>2015-07-27T18:34:34Z</time>
      </trkpt>
      <trkpt lat="48.86842" lon="2.37961">
        <ele>52.400001525879</ele>
        <time>2015-07-27T18:34:40Z</time>
      </trkpt>
      <trkpt lat="48.86844" lon="2.37966">
        <ele>52.599998474121</ele>
        <time>2015-07-27T18:34:41Z</time>
      </trkpt>
      <trkpt lat="48.8686" lon="2.37997">
        <ele>53.79999923706</ele>
        <time>2015-07-27T18:34:49Z</time>
      </trkpt>
      <trkpt lat="48.8687" lon="2.38016">
        <ele>54.599998474121</ele>
        <time>2015-07-27T18:34:54Z</time>
      </trkpt>
      <trkpt lat="48.86879" lon="2.38033">
        <ele>55</ele>
        <time>2015-07-27T18:34:59Z</time>
      </trkpt>
      <trkpt lat="48.86884" lon="2.38043">
        <ele>55.20000076294</ele>
        <time>2015-07-27T18:35:03Z</time>
      </trkpt>
      <trkpt lat="48.86885" lon="2.38044">
        <ele>55.400001525879</ele>
        <time>2015-07-27T18:35:04Z</time>
      </trkpt>
      <trkpt lat="48.86887" lon="2.38047">
        <ele>56.400001525879</ele>
        <time>2015-07-27T18:35:09Z</time>
      </trkpt>
      <trkpt lat="48.86889" lon="2.38055">
        <ele>57</ele>
        <time>2015-07-27T18:35:15Z</time>
      </trkpt>
      <trkpt lat="48.86895" lon="2.38068">
        <ele>57.20000076294</ele>
        <time>2015-07-27T18:35:19Z</time>
      </trkpt>
      <trkpt lat="48.86899" lon="2.38079">
        <ele>57.599998474121</ele>
        <time>2015-07-27T18:35:22Z</time>
      </trkpt>
      <trkpt lat="48.86913" lon="2.38094">
        <ele>58.79999923706</ele>
        <time>2015-07-27T18:35:29Z</time>
      </trkpt>
      <trkpt lat="48.86923" lon="2.38111">
        <ele>59</ele>
        <time>2015-07-27T18:35:34Z</time>
      </trkpt>
      <trkpt lat="48.86931" lon="2.38131">
        <ele>59.400001525879</ele>
        <time>2015-07-27T18:35:39Z</time>
      </trkpt>
      <trkpt lat="48.86939" lon="2.38147">
        <ele>59.400001525879</ele>
        <time>2015-07-27T18:35:43Z</time>
      </trkpt>
      <trkpt lat="48.86949" lon="2.38174">
        <ele>59.599998474121</ele>
        <time>2015-07-27T18:35:47Z</time>
      </trkpt>
      <trkpt lat="48.86958" lon="2.38196">
        <ele>59.599998474121</ele>
        <time>2015-07-27T18:35:51Z</time>
      </trkpt>
      <trkpt lat="48.86964" lon="2.38211">
        <ele>59.599998474121</ele>
        <time>2015-07-27T18:35:54Z</time>
      </trkpt>
      <trkpt lat="48.86973" lon="2.38241">
        <ele>60</ele>
        <time>2015-07-27T18:35:59Z</time>
      </trkpt>
      <trkpt lat="48.86982" lon="2.38264">
        <ele>60.599998474121</ele>
        <time>2015-07-27T18:36:03Z</time>
      </trkpt>
      <trkpt lat="48.86988" lon="2.38284">
        <ele>61</ele>
        <time>2015-07-27T18:36:07Z</time>
      </trkpt>
      <trkpt lat="48.86999" lon="2.38317">
        <ele>61.400001525879</ele>
        <time>2015-07-27T18:36:14Z</time>
      </trkpt>
      <trkpt lat="48.87003" lon="2.38348">
        <ele>62.20000076294</ele>
        <time>2015-07-27T18:36:20Z</time>
      </trkpt>
      <trkpt lat="48.87009" lon="2.38375">
        <ele>62.79999923706</ele>
        <time>2015-07-27T18:36:24Z</time>
      </trkpt>
      <trkpt lat="48.87012" lon="2.38388">
        <ele>63</ele>
        <time>2015-07-27T18:36:26Z</time>
      </trkpt>
      <trkpt lat="48.87014" lon="2.38401">
        <ele>63.20000076294</ele>
        <time>2015-07-27T18:36:28Z</time>
      </trkpt>
      <trkpt lat="48.87015" lon="2.38407">
        <ele>63.599998474121</ele>
        <time>2015-07-27T18:36:29Z</time>
      </trkpt>
      <trkpt lat="48.87017" lon="2.3842">
        <ele>64</ele>
        <time>2015-07-27T18:36:31Z</time>
      </trkpt>
      <trkpt lat="48.87018" lon="2.38442">
        <ele>64.599998474121</ele>
        <time>2015-07-27T18:36:35Z</time>
      </trkpt>
      <trkpt lat="48.87018" lon="2.38445">
        <ele>64.800003051758</ele>
        <time>2015-07-27T18:36:36Z</time>
      </trkpt>
      <trkpt lat="48.87017" lon="2.38456">
        <ele>65.800003051758</ele>
        <time>2015-07-27T18:36:40Z</time>
      </trkpt>
      <trkpt lat="48.87016" lon="2.38458">
        <ele>66.800003051758</ele>
        <time>2015-07-27T18:36:47Z</time>
      </trkpt>
      <trkpt lat="48.87018" lon="2.38456">
        <ele>68.199996948242</ele>
        <time>2015-07-27T18:36:54Z</time>
      </trkpt>
      <trkpt lat="48.87021" lon="2.38453">
        <ele>69</ele>
        <time>2015-07-27T18:36:59Z</time>
      </trkpt>
      <trkpt lat="48.87021" lon="2.3845">
        <ele>69.199996948242</ele>
        <time>2015-07-27T18:37:01Z</time>
      </trkpt>
      <trkpt lat="48.87024" lon="2.38435">
        <ele>69.400001525879</ele>
        <time>2015-07-27T18:37:05Z</time>
      </trkpt>
      <trkpt lat="48.87037" lon="2.38422">
        <ele>70.199996948242</ele>
        <time>2015-07-27T18:37:09Z</time>
      </trkpt>
      <trkpt lat="48.8704" lon="2.3842">
        <ele>70.400001525879</ele>
        <time>2015-07-27T18:37:10Z</time>
      </trkpt>
      <trkpt lat="48.87044" lon="2.38416">
        <ele>70.800003051758</ele>
        <time>2015-07-27T18:37:12Z</time>
      </trkpt>
      <trkpt lat="48.87051" lon="2.3841">
        <ele>71.199996948242</ele>
        <time>2015-07-27T18:37:16Z</time>
      </trkpt>
      <trkpt lat="48.87057" lon="2.38396">
        <ele>71.599998474121</ele>
        <time>2015-07-27T18:37:21Z</time>
      </trkpt>
      <trkpt lat="48.87062" lon="2.3839">
        <ele>71.800003051758</ele>
        <time>2015-07-27T18:37:25Z</time>
      </trkpt>
      <trkpt lat="48.87073" lon="2.38374">
        <ele>72</ele>
        <time>2015-07-27T18:37:31Z</time>
      </trkpt>
      <trkpt lat="48.87082" lon="2.38356">
        <ele>72</ele>
        <time>2015-07-27T18:37:37Z</time>
      </trkpt>
      <trkpt lat="48.87088" lon="2.38344">
        <ele>72</ele>
        <time>2015-07-27T18:37:42Z</time>
      </trkpt>
      <trkpt lat="48.87092" lon="2.38342">
        <ele>72</ele>
        <time>2015-07-27T18:37:46Z</time>
      </trkpt>
      <trkpt lat="48.87095" lon="2.38347">
        <ele>72</ele>
        <time>2015-07-27T18:37:53Z</time>
      </trkpt>
      <trkpt lat="48.87094" lon="2.38361">
        <ele>72.199996948242</ele>
        <time>2015-07-27T18:37:58Z</time>
      </trkpt>
      <trkpt lat="48.87095" lon="2.38364">
        <ele>72.199996948242</ele>
        <time>2015-07-27T18:37:59Z</time>
      </trkpt>
      <trkpt lat="48.87096" lon="2.38364">
        <ele>72.199996948242</ele>
        <time>2015-07-27T18:38:00Z</time>
      </trkpt>
      <trkpt lat="48.87102" lon="2.38362">
        <ele>72.199996948242</ele>
        <time>2015-07-27T18:38:07Z</time>
      </trkpt>
      <trkpt lat="48.87106" lon="2.3836">
        <ele>72.199996948242</ele>
        <time>2015-07-27T18:38:11Z</time>
      </trkpt>
      <trkpt lat="48.87111" lon="2.38366">
        <ele>72.199996948242</ele>
        <time>2015-07-27T18:38:16Z</time>
      </trkpt>
      <trkpt lat="48.87111" lon="2.38368">
        <ele>72.199996948242</ele>
        <time>2015-07-27T18:38:17Z</time>
      </trkpt>
      <trkpt lat="48.87116" lon="2.38378">
        <ele>72.199996948242</ele>
        <time>2015-07-27T18:38:24Z</time>
      </trkpt>
      <trkpt lat="48.87117" lon="2.38378">
        <ele>72.199996948242</ele>
        <time>2015-07-27T18:38:25Z</time>
      </trkpt>
      <trkpt lat="48.87118" lon="2.38381">
        <ele>72.199996948242</ele>
        <time>2015-07-27T18:38:30Z</time>
      </trkpt>
      <trkpt lat="48.8712" lon="2.3839">
        <ele>72.199996948242</ele>
        <time>2015-07-27T18:38:38Z</time>
      </trkpt>
      <trkpt lat="48.87122" lon="2.38394">
        <ele>72.199996948242</ele>
        <time>2015-07-27T18:38:41Z</time>
      </trkpt>
      <trkpt lat="48.87124" lon="2.38396">
        <ele>72.199996948242</ele>
        <time>2015-07-27T18:38:44Z</time>
      </trkpt>
      <trkpt lat="48.87126" lon="2.38403">
        <ele>72.199996948242</ele>
        <time>2015-07-27T18:38:49Z</time>
      </trkpt>
      <trkpt lat="48.87126" lon="2.38404">
        <ele>72.199996948242</ele>
        <time>2015-07-27T18:38:50Z</time>
      </trkpt>
      <trkpt lat="48.87129" lon="2.38407">
        <ele>72.199996948242</ele>
        <time>2015-07-27T18:38:56Z</time>
      </trkpt>
      <trkpt lat="48.87131" lon="2.38411">
        <ele>72.199996948242</ele>
        <time>2015-07-27T18:39:00Z</time>
      </trkpt>
      <trkpt lat="48.87134" lon="2.38416">
        <ele>72.199996948242</ele>
        <time>2015-07-27T18:39:07Z</time>
      </trkpt>
      <trkpt lat="48.87137" lon="2.3842">
        <ele>72.199996948242</ele>
        <time>2015-07-27T18:39:13Z</time>
      </trkpt>
      <trkpt lat="48.87137" lon="2.38428">
        <ele>72.599998474121</ele>
        <time>2015-07-27T18:39:18Z</time>
      </trkpt>
      <trkpt lat="48.87138" lon="2.38441">
        <ele>73.199996948242</ele>
        <time>2015-07-27T18:39:24Z</time>
      </trkpt>
      <trkpt lat="48.8714" lon="2.38446">
        <ele>73.800003051758</ele>
        <time>2015-07-27T18:39:28Z</time>
      </trkpt>
      <trkpt lat="48.87139" lon="2.38472">
        <ele>77</ele>
        <time>2015-07-27T18:39:46Z</time>
      </trkpt>
      <trkpt lat="48.87134" lon="2.38492">
        <ele>77.800003051758</ele>
        <time>2015-07-27T18:39:53Z</time>
      </trkpt>
      <trkpt lat="48.87131" lon="2.385">
        <ele>78.599998474121</ele>
        <time>2015-07-27T18:39:56Z</time>
      </trkpt>
      <trkpt lat="48.8713" lon="2.38524">
        <ele>79.400001525879</ele>
        <time>2015-07-27T18:40:02Z</time>
      </trkpt>
      <trkpt lat="48.87125" lon="2.38547">
        <ele>80.400001525879</ele>
        <time>2015-07-27T18:40:08Z</time>
      </trkpt>
      <trkpt lat="48.87124" lon="2.3855">
        <ele>80.599998474121</ele>
        <time>2015-07-27T18:40:09Z</time>
      </trkpt>
      <trkpt lat="48.87125" lon="2.38555">
        <ele>81.400001525879</ele>
        <time>2015-07-27T18:40:14Z</time>
      </trkpt>
      <trkpt lat="48.87127" lon="2.38556">
        <ele>82.800003051758</ele>
        <time>2015-07-27T18:40:22Z</time>
      </trkpt>
      <trkpt lat="48.87129" lon="2.38558">
        <ele>83.599998474121</ele>
        <time>2015-07-27T18:40:28Z</time>
      </trkpt>
      <trkpt lat="48.87134" lon="2.38563">
        <ele>84.199996948242</ele>
        <time>2015-07-27T18:40:33Z</time>
      </trkpt>
      <trkpt lat="48.87135" lon="2.38563">
        <ele>84.199996948242</ele>
        <time>2015-07-27T18:40:34Z</time>
      </trkpt>
      <trkpt lat="48.87142" lon="2.38559">
        <ele>86</ele>
        <time>2015-07-27T18:40:47Z</time>
      </trkpt>
      <trkpt lat="48.87144" lon="2.38558">
        <ele>86.199996948242</ele>
        <time>2015-07-27T18:40:49Z</time>
      </trkpt>
      <trkpt lat="48.87148" lon="2.38552">
        <ele>87</ele>
        <time>2015-07-27T18:40:54Z</time>
      </trkpt>
      <trkpt lat="48.87152" lon="2.38544">
        <ele>87.800003051758</ele>
        <time>2015-07-27T18:40:59Z</time>
      </trkpt>
      <trkpt lat="48.87154" lon="2.38525">
        <ele>88.199996948242</ele>
        <time>2015-07-27T18:41:05Z</time>
      </trkpt>
      <trkpt lat="48.87154" lon="2.38522">
        <ele>88.400001525879</ele>
        <time>2015-07-27T18:41:06Z</time>
      </trkpt>
      <trkpt lat="48.87157" lon="2.38506">
        <ele>88.599998474121</ele>
        <time>2015-07-27T18:41:11Z</time>
      </trkpt>
      <trkpt lat="48.87158" lon="2.385">
        <ele>88.800003051758</ele>
        <time>2015-07-27T18:41:13Z</time>
      </trkpt>
      <trkpt lat="48.87159" lon="2.38497">
        <ele>89.599998474121</ele>
        <time>2015-07-27T18:41:18Z</time>
      </trkpt>
      <trkpt lat="48.8716" lon="2.38498">
        <ele>91.400001525879</ele>
        <time>2015-07-27T18:41:48Z</time>
      </trkpt>
      <trkpt lat="48.87162" lon="2.38497">
        <ele>92.199996948242</ele>
        <time>2015-07-27T18:41:55Z</time>
      </trkpt>
      <trkpt lat="48.87162" lon="2.38497">
        <ele>92.599998474121</ele>
        <time>2015-07-27T18:42:02Z</time>
      </trkpt>
      <trkpt lat="48.8716" lon="2.38503">
        <ele>93.800003051758</ele>
        <time>2015-07-27T18:42:15Z</time>
      </trkpt>
      <trkpt lat="48.87159" lon="2.38506">
        <ele>94.199996948242</ele>
        <time>2015-07-27T18:42:20Z</time>
      </trkpt>
      <trkpt lat="48.8716" lon="2.38506">
        <ele>94.599998474121</ele>
        <time>2015-07-27T18:42:26Z</time>
      </trkpt>
      <trkpt lat="48.8716" lon="2.38505">
        <ele>94.800003051758</ele>
        <time>2015-07-27T18:42:37Z</time>
      </trkpt>
      <trkpt lat="48.87161" lon="2.38507">
        <ele>94.800003051758</ele>
        <time>2015-07-27T18:42:45Z</time>
      </trkpt>
      <trkpt lat="48.8716" lon="2.38502">
        <ele>94.800003051758</ele>
        <time>2015-07-27T18:42:52Z</time>
      </trkpt>
      <trkpt lat="48.87159" lon="2.38501">
        <ele>94.800003051758</ele>
        <time>2015-07-27T18:43:03Z</time>
      </trkpt>
      <trkpt lat="48.8716" lon="2.38499">
        <ele>94.800003051758</ele>
        <time>2015-07-27T18:44:42Z</time>
      </trkpt>
      <trkpt lat="48.8716" lon="2.38502">
        <ele>94.800003051758</ele>
        <time>2015-07-27T18:44:46Z</time>
      </trkpt>
      <trkpt lat="48.87161" lon="2.38506">
        <ele>94.800003051758</ele>
        <time>2015-07-27T18:44:48Z</time>
      </trkpt>
      <trkpt lat="48.87164" lon="2.38522">
        <ele>94.800003051758</ele>
        <time>2015-07-27T18:44:54Z</time>
      </trkpt>
      <trkpt lat="48.87164" lon="2.38525">
        <ele>94.800003051758</ele>
        <time>2015-07-27T18:44:55Z</time>
      </trkpt>
      <trkpt lat="48.87164" lon="2.38533">
        <ele>94.800003051758</ele>
        <time>2015-07-27T18:44:58Z</time>
      </trkpt>
      <trkpt lat="48.8716" lon="2.38544">
        <ele>94.800003051758</ele>
        <time>2015-07-27T18:45:02Z</time>
      </trkpt>
      <trkpt lat="48.87148" lon="2.38569">
        <ele>94.800003051758</ele>
        <time>2015-07-27T18:45:09Z</time>
      </trkpt>
      <trkpt lat="48.87147" lon="2.38594">
        <ele>94.800003051758</ele>
        <time>2015-07-27T18:45:14Z</time>
      </trkpt>
      <trkpt lat="48.87149" lon="2.38597">
        <ele>94.800003051758</ele>
        <time>2015-07-27T18:45:15Z</time>
      </trkpt>
      <trkpt lat="48.87157" lon="2.38603">
        <ele>94.800003051758</ele>
        <time>2015-07-27T18:45:18Z</time>
      </trkpt>
      <trkpt lat="48.87161" lon="2.38612">
        <ele>94.800003051758</ele>
        <time>2015-07-27T18:45:20Z</time>
      </trkpt>
      <trkpt lat="48.87174" lon="2.38639">
        <ele>94.800003051758</ele>
        <time>2015-07-27T18:45:26Z</time>
      </trkpt>
      <trkpt lat="48.87186" lon="2.38661">
        <ele>94.800003051758</ele>
        <time>2015-07-27T18:45:31Z</time>
      </trkpt>
      <trkpt lat="48.87196" lon="2.38689">
        <ele>94.800003051758</ele>
        <time>2015-07-27T18:45:36Z</time>
      </trkpt>
      <trkpt lat="48.87207" lon="2.38711">
        <ele>94.199996948242</ele>
        <time>2015-07-27T18:45:40Z</time>
      </trkpt>
      <trkpt lat="48.87209" lon="2.38716">
        <ele>94</ele>
        <time>2015-07-27T18:45:41Z</time>
      </trkpt>
      <trkpt lat="48.87227" lon="2.38764">
        <ele>93.199996948242</ele>
        <time>2015-07-27T18:45:50Z</time>
      </trkpt>
      <trkpt lat="48.87232" lon="2.38791">
        <ele>93</ele>
        <time>2015-07-27T18:45:54Z</time>
      </trkpt>
      <trkpt lat="48.87234" lon="2.38798">
        <ele>93</ele>
        <time>2015-07-27T18:45:55Z</time>
      </trkpt>
      <trkpt lat="48.87242" lon="2.38838">
        <ele>93</ele>
        <time>2015-07-27T18:46:00Z</time>
      </trkpt>
      <trkpt lat="48.87251" lon="2.38863">
        <ele>93</ele>
        <time>2015-07-27T18:46:03Z</time>
      </trkpt>
      <trkpt lat="48.87254" lon="2.3887">
        <ele>92.800003051758</ele>
        <time>2015-07-27T18:46:04Z</time>
      </trkpt>
      <trkpt lat="48.87271" lon="2.38902">
        <ele>92.400001525879</ele>
        <time>2015-07-27T18:46:09Z</time>
      </trkpt>
      <trkpt lat="48.87281" lon="2.38928">
        <ele>91.800003051758</ele>
        <time>2015-07-27T18:46:13Z</time>
      </trkpt>
      <trkpt lat="48.87288" lon="2.38946">
        <ele>91.400001525879</ele>
        <time>2015-07-27T18:46:18Z</time>
      </trkpt>
      <trkpt lat="48.87289" lon="2.38949">
        <ele>91.199996948242</ele>
        <time>2015-07-27T18:46:20Z</time>
      </trkpt>
      <trkpt lat="48.8729" lon="2.38949">
        <ele>91</ele>
        <time>2015-07-27T18:46:25Z</time>
      </trkpt>
      <trkpt lat="48.8729" lon="2.38955">
        <ele>91</ele>
        <time>2015-07-27T18:46:28Z</time>
      </trkpt>
      <trkpt lat="48.87299" lon="2.38966">
        <ele>90.400001525879</ele>
        <time>2015-07-27T18:46:33Z</time>
      </trkpt>
      <trkpt lat="48.87304" lon="2.38982">
        <ele>89.599998474121</ele>
        <time>2015-07-27T18:46:38Z</time>
      </trkpt>
      <trkpt lat="48.87307" lon="2.38988">
        <ele>89.400001525879</ele>
        <time>2015-07-27T18:46:40Z</time>
      </trkpt>
      <trkpt lat="48.87309" lon="2.38992">
        <ele>89.199996948242</ele>
        <time>2015-07-27T18:46:45Z</time>
      </trkpt>
      <trkpt lat="48.8731" lon="2.38993">
        <ele>88.800003051758</ele>
        <time>2015-07-27T18:46:52Z</time>
      </trkpt>
      <trkpt lat="48.87315" lon="2.3899">
        <ele>88.599998474121</ele>
        <time>2015-07-27T18:47:03Z</time>
      </trkpt>
      <trkpt lat="48.87318" lon="2.38992">
        <ele>88.599998474121</ele>
        <time>2015-07-27T18:47:09Z</time>
      </trkpt>
      <trkpt lat="48.87322" lon="2.38995">
        <ele>88.800003051758</ele>
        <time>2015-07-27T18:47:14Z</time>
      </trkpt>
      <trkpt lat="48.87323" lon="2.38997">
        <ele>89</ele>
        <time>2015-07-27T18:47:15Z</time>
      </trkpt>
      <trkpt lat="48.87325" lon="2.39006">
        <ele>89.599998474121</ele>
        <time>2015-07-27T18:47:18Z</time>
      </trkpt>
      <trkpt lat="48.87337" lon="2.39011">
        <ele>90</ele>
        <time>2015-07-27T18:47:22Z</time>
      </trkpt>
      <trkpt lat="48.87347" lon="2.39022">
        <ele>90.800003051758</ele>
        <time>2015-07-27T18:47:26Z</time>
      </trkpt>
      <trkpt lat="48.87351" lon="2.39026">
        <ele>91</ele>
        <time>2015-07-27T18:47:27Z</time>
      </trkpt>
      <trkpt lat="48.87373" lon="2.3905">
        <ele>92.199996948242</ele>
        <time>2015-07-27T18:47:33Z</time>
      </trkpt>
      <trkpt lat="48.87378" lon="2.39057">
        <ele>92.599998474121</ele>
        <time>2015-07-27T18:47:35Z</time>
      </trkpt>
      <trkpt lat="48.87384" lon="2.39065">
        <ele>93.199996948242</ele>
        <time>2015-07-27T18:47:37Z</time>
      </trkpt>
      <trkpt lat="48.87386" lon="2.39068">
        <ele>93.400001525879</ele>
        <time>2015-07-27T18:47:38Z</time>
      </trkpt>
      <trkpt lat="48.87408" lon="2.39095">
        <ele>94.599998474121</ele>
        <time>2015-07-27T18:47:47Z</time>
      </trkpt>
      <trkpt lat="48.87418" lon="2.39109">
        <ele>95.599998474121</ele>
        <time>2015-07-27T18:47:52Z</time>
      </trkpt>
      <trkpt lat="48.87431" lon="2.39125">
        <ele>96.199996948242</ele>
        <time>2015-07-27T18:47:58Z</time>
      </trkpt>
      <trkpt lat="48.87445" lon="2.39144">
        <ele>96.800003051758</ele>
        <time>2015-07-27T18:48:04Z</time>
      </trkpt>
      <trkpt lat="48.87457" lon="2.39162">
        <ele>98</ele>
        <time>2015-07-27T18:48:10Z</time>
      </trkpt>
      <trkpt lat="48.87471" lon="2.39178">
        <ele>98.599998474121</ele>
        <time>2015-07-27T18:48:16Z</time>
      </trkpt>
      <trkpt lat="48.8748" lon="2.3919">
        <ele>99.599998474121</ele>
        <time>2015-07-27T18:48:20Z</time>
      </trkpt>
      <trkpt lat="48.87492" lon="2.39206">
        <ele>100.40000152588</ele>
        <time>2015-07-27T18:48:26Z</time>
      </trkpt>
      <trkpt lat="48.87501" lon="2.39217">
        <ele>101.19999694824</ele>
        <time>2015-07-27T18:48:30Z</time>
      </trkpt>
      <trkpt lat="48.8751" lon="2.39235">
        <ele>103.59999847412</ele>
        <time>2015-07-27T18:48:43Z</time>
      </trkpt>
      <trkpt lat="48.87509" lon="2.39238">
        <ele>107.80000305176</ele>
        <time>2015-07-27T18:49:01Z</time>
      </trkpt>
      <trkpt lat="48.87518" lon="2.39239">
        <ele>109.59999847412</ele>
        <time>2015-07-27T18:49:07Z</time>
      </trkpt>
      <trkpt lat="48.87527" lon="2.39234">
        <ele>111</ele>
        <time>2015-07-27T18:49:12Z</time>
      </trkpt>
      <trkpt lat="48.87528" lon="2.39233">
        <ele>111.40000152588</ele>
        <time>2015-07-27T18:49:13Z</time>
      </trkpt>
      <trkpt lat="48.8753" lon="2.39233">
        <ele>112.40000152588</ele>
        <time>2015-07-27T18:49:18Z</time>
      </trkpt>
      <trkpt lat="48.87535" lon="2.39236">
        <ele>113.80000305176</ele>
        <time>2015-07-27T18:49:46Z</time>
      </trkpt>
      <trkpt lat="48.87543" lon="2.39234">
        <ele>113.80000305176</ele>
        <time>2015-07-27T18:49:50Z</time>
      </trkpt>
      <trkpt lat="48.87557" lon="2.39234">
        <ele>113.80000305176</ele>
        <time>2015-07-27T18:49:55Z</time>
      </trkpt>
      <trkpt lat="48.87559" lon="2.39234">
        <ele>113.80000305176</ele>
        <time>2015-07-27T18:49:56Z</time>
      </trkpt>
      <trkpt lat="48.87568" lon="2.39244">
        <ele>113.80000305176</ele>
        <time>2015-07-27T18:50:01Z</time>
      </trkpt>
      <trkpt lat="48.87578" lon="2.39255">
        <ele>113.80000305176</ele>
        <time>2015-07-27T18:50:06Z</time>
      </trkpt>
      <trkpt lat="48.87589" lon="2.39262">
        <ele>113.80000305176</ele>
        <time>2015-07-27T18:50:11Z</time>
      </trkpt>
      <trkpt lat="48.87599" lon="2.39268">
        <ele>113.80000305176</ele>
        <time>2015-07-27T18:50:15Z</time>
      </trkpt>
      <trkpt lat="48.87614" lon="2.39289">
        <ele>115</ele>
        <time>2015-07-27T18:50:22Z</time>
      </trkpt>
      <trkpt lat="48.87625" lon="2.39304">
        <ele>115.40000152588</ele>
        <time>2015-07-27T18:50:27Z</time>
      </trkpt>
      <trkpt lat="48.87632" lon="2.39307">
        <ele>115.80000305176</ele>
        <time>2015-07-27T18:50:30Z</time>
      </trkpt>
      <trkpt lat="48.87639" lon="2.3931">
        <ele>116.59999847412</ele>
        <time>2015-07-27T18:50:34Z</time>
      </trkpt>
      <trkpt lat="48.8765" lon="2.3932">
        <ele>117.19999694824</ele>
        <time>2015-07-27T18:50:39Z</time>
      </trkpt>
      <trkpt lat="48.87656" lon="2.39328">
        <ele>117.40000152588</ele>
        <time>2015-07-27T18:50:42Z</time>
      </trkpt>
      <trkpt lat="48.87669" lon="2.39343">
        <ele>117.59999847412</ele>
        <time>2015-07-27T18:50:47Z</time>
      </trkpt>
      <trkpt lat="48.87681" lon="2.39362">
        <ele>117.80000305176</ele>
        <time>2015-07-27T18:50:53Z</time>
      </trkpt>
      <trkpt lat="48.87686" lon="2.3937">
        <ele>117.80000305176</ele>
        <time>2015-07-27T18:50:56Z</time>
      </trkpt>
      <trkpt lat="48.87702" lon="2.39388">
        <ele>117</ele>
        <time>2015-07-27T18:51:01Z</time>
      </trkpt>
      <trkpt lat="48.8772" lon="2.39408">
        <ele>116.40000152588</ele>
        <time>2015-07-27T18:51:07Z</time>
      </trkpt>
      <trkpt lat="48.87721" lon="2.39411">
        <ele>116.40000152588</ele>
        <time>2015-07-27T18:51:08Z</time>
      </trkpt>
      <trkpt lat="48.87726" lon="2.3943">
        <ele>116.19999694824</ele>
        <time>2015-07-27T18:51:12Z</time>
      </trkpt>
      <trkpt lat="48.87731" lon="2.3946">
        <ele>116</ele>
        <time>2015-07-27T18:51:18Z</time>
      </trkpt>
      <trkpt lat="48.87733" lon="2.39482">
        <ele>116</ele>
        <time>2015-07-27T18:51:23Z</time>
      </trkpt>
      <trkpt lat="48.87736" lon="2.39486">
        <ele>116</ele>
        <time>2015-07-27T18:51:25Z</time>
      </trkpt>
      <trkpt lat="48.87749" lon="2.39499">
        <ele>116</ele>
        <time>2015-07-27T18:51:31Z</time>
      </trkpt>
      <trkpt lat="48.87756" lon="2.39518">
        <ele>115.80000305176</ele>
        <time>2015-07-27T18:51:37Z</time>
      </trkpt>
      <trkpt lat="48.87756" lon="2.39528">
        <ele>115.80000305176</ele>
        <time>2015-07-27T18:51:40Z</time>
      </trkpt>
      <trkpt lat="48.87765" lon="2.39537">
        <ele>115.80000305176</ele>
        <time>2015-07-27T18:51:45Z</time>
      </trkpt>
      <trkpt lat="48.87769" lon="2.39538">
        <ele>116</ele>
        <time>2015-07-27T18:51:47Z</time>
      </trkpt>
      <trkpt lat="48.87781" lon="2.39557">
        <ele>117</ele>
        <time>2015-07-27T18:51:54Z</time>
      </trkpt>
      <trkpt lat="48.87786" lon="2.39561">
        <ele>117.19999694824</ele>
        <time>2015-07-27T18:51:56Z</time>
      </trkpt>
      <trkpt lat="48.87805" lon="2.39561">
        <ele>117.40000152588</ele>
        <time>2015-07-27T18:52:01Z</time>
      </trkpt>
      <trkpt lat="48.87808" lon="2.39562">
        <ele>117.59999847412</ele>
        <time>2015-07-27T18:52:02Z</time>
      </trkpt>
      <trkpt lat="48.87822" lon="2.39567">
        <ele>117.59999847412</ele>
        <time>2015-07-27T18:52:07Z</time>
      </trkpt>
      <trkpt lat="48.87841" lon="2.39573">
        <ele>118.19999694824</ele>
        <time>2015-07-27T18:52:13Z</time>
      </trkpt>
      <trkpt lat="48.87855" lon="2.39581">
        <ele>119</ele>
        <time>2015-07-27T18:52:18Z</time>
      </trkpt>
      <trkpt lat="48.87873" lon="2.39592">
        <ele>120</ele>
        <time>2015-07-27T18:52:23Z</time>
      </trkpt>
      <trkpt lat="48.87889" lon="2.39604">
        <ele>120.80000305176</ele>
        <time>2015-07-27T18:52:28Z</time>
      </trkpt>
      <trkpt lat="48.87914" lon="2.39615">
        <ele>122.40000152588</ele>
        <time>2015-07-27T18:52:36Z</time>
      </trkpt>
      <trkpt lat="48.8793" lon="2.39629">
        <ele>123.19999694824</ele>
        <time>2015-07-27T18:52:40Z</time>
      </trkpt>
      <trkpt lat="48.87934" lon="2.39632">
        <ele>123.19999694824</ele>
        <time>2015-07-27T18:52:41Z</time>
      </trkpt>
      <trkpt lat="48.87949" lon="2.39637">
        <ele>123.59999847412</ele>
        <time>2015-07-27T18:52:44Z</time>
      </trkpt>
      <trkpt lat="48.87974" lon="2.39641">
        <ele>124.59999847412</ele>
        <time>2015-07-27T18:52:49Z</time>
      </trkpt>
      <trkpt lat="48.87979" lon="2.39644">
        <ele>124.80000305176</ele>
        <time>2015-07-27T18:52:50Z</time>
      </trkpt>
      <trkpt lat="48.87988" lon="2.39651">
        <ele>125.19999694824</ele>
        <time>2015-07-27T18:52:53Z</time>
      </trkpt>
      <trkpt lat="48.87991" lon="2.39653">
        <ele>125.40000152588</ele>
        <time>2015-07-27T18:52:54Z</time>
      </trkpt>
      <trkpt lat="48.87998" lon="2.39655">
        <ele>125.59999847412</ele>
        <time>2015-07-27T18:52:56Z</time>
      </trkpt>
      <trkpt lat="48.88009" lon="2.39657">
        <ele>125.80000305176</ele>
        <time>2015-07-27T18:52:59Z</time>
      </trkpt>
      <trkpt lat="48.88033" lon="2.3967">
        <ele>126.80000305176</ele>
        <time>2015-07-27T18:53:05Z</time>
      </trkpt>
      <trkpt lat="48.88037" lon="2.39674">
        <ele>127</ele>
        <time>2015-07-27T18:53:06Z</time>
      </trkpt>
      <trkpt lat="48.88042" lon="2.39694">
        <ele>127.40000152588</ele>
        <time>2015-07-27T18:53:09Z</time>
      </trkpt>
      <trkpt lat="48.88041" lon="2.39732">
        <ele>127.80000305176</ele>
        <time>2015-07-27T18:53:14Z</time>
      </trkpt>
      <trkpt lat="48.88041" lon="2.39744">
        <ele>128</ele>
        <time>2015-07-27T18:53:16Z</time>
      </trkpt>
      <trkpt lat="48.88041" lon="2.39762">
        <ele>127.59999847412</ele>
        <time>2015-07-27T18:53:19Z</time>
      </trkpt>
      <trkpt lat="48.8803" lon="2.39801">
        <ele>127.19999694824</ele>
        <time>2015-07-27T18:53:24Z</time>
      </trkpt>
      <trkpt lat="48.88029" lon="2.39807">
        <ele>127</ele>
        <time>2015-07-27T18:53:25Z</time>
      </trkpt>
      <trkpt lat="48.88025" lon="2.39818">
        <ele>127</ele>
        <time>2015-07-27T18:53:27Z</time>
      </trkpt>
      <trkpt lat="48.88021" lon="2.39832">
        <ele>126.59999847412</ele>
        <time>2015-07-27T18:53:31Z</time>
      </trkpt>
      <trkpt lat="48.8802" lon="2.3984">
        <ele>125.40000152588</ele>
        <time>2015-07-27T18:53:37Z</time>
      </trkpt>
      <trkpt lat="48.8802" lon="2.39842">
        <ele>125.19999694824</ele>
        <time>2015-07-27T18:53:38Z</time>
      </trkpt>
      <trkpt lat="48.88018" lon="2.39857">
        <ele>125</ele>
        <time>2015-07-27T18:53:42Z</time>
      </trkpt>
      <trkpt lat="48.8801" lon="2.39882">
        <ele>124.59999847412</ele>
        <time>2015-07-27T18:53:47Z</time>
      </trkpt>
      <trkpt lat="48.88" lon="2.3991">
        <ele>124.40000152588</ele>
        <time>2015-07-27T18:53:52Z</time>
      </trkpt>
      <trkpt lat="48.87989" lon="2.39941">
        <ele>124.40000152588</ele>
        <time>2015-07-27T18:53:57Z</time>
      </trkpt>
      <trkpt lat="48.87978" lon="2.39963">
        <ele>124.19999694824</ele>
        <time>2015-07-27T18:54:01Z</time>
      </trkpt>
      <trkpt lat="48.87965" lon="2.39986">
        <ele>124.19999694824</ele>
        <time>2015-07-27T18:54:05Z</time>
      </trkpt>
      <trkpt lat="48.87962" lon="2.3999">
        <ele>124.19999694824</ele>
        <time>2015-07-27T18:54:06Z</time>
      </trkpt>
      <trkpt lat="48.8795" lon="2.40012">
        <ele>124.19999694824</ele>
        <time>2015-07-27T18:54:10Z</time>
      </trkpt>
      <trkpt lat="48.87939" lon="2.40038">
        <ele>124.19999694824</ele>
        <time>2015-07-27T18:54:14Z</time>
      </trkpt>
      <trkpt lat="48.87927" lon="2.40066">
        <ele>123.59999847412</ele>
        <time>2015-07-27T18:54:18Z</time>
      </trkpt>
      <trkpt lat="48.87914" lon="2.40092">
        <ele>123.19999694824</ele>
        <time>2015-07-27T18:54:22Z</time>
      </trkpt>
      <trkpt lat="48.87903" lon="2.40116">
        <ele>122.59999847412</ele>
        <time>2015-07-27T18:54:27Z</time>
      </trkpt>
      <trkpt lat="48.879" lon="2.4012">
        <ele>122.59999847412</ele>
        <time>2015-07-27T18:54:28Z</time>
      </trkpt>
      <trkpt lat="48.87896" lon="2.40126">
        <ele>122.40000152588</ele>
        <time>2015-07-27T18:54:30Z</time>
      </trkpt>
      <trkpt lat="48.87889" lon="2.40137">
        <ele>121.40000152588</ele>
        <time>2015-07-27T18:54:35Z</time>
      </trkpt>
      <trkpt lat="48.87882" lon="2.40142">
        <ele>114</ele>
        <time>2015-07-27T18:55:21Z</time>
      </trkpt>
      <trkpt lat="48.87877" lon="2.40154">
        <ele>113.59999847412</ele>
        <time>2015-07-27T18:55:25Z</time>
      </trkpt>
      <trkpt lat="48.87867" lon="2.40184">
        <ele>112.80000305176</ele>
        <time>2015-07-27T18:55:31Z</time>
      </trkpt>
      <trkpt lat="48.87858" lon="2.40203">
        <ele>112.40000152588</ele>
        <time>2015-07-27T18:55:35Z</time>
      </trkpt>
      <trkpt lat="48.87848" lon="2.40228">
        <ele>112.19999694824</ele>
        <time>2015-07-27T18:55:39Z</time>
      </trkpt>
      <trkpt lat="48.87844" lon="2.40239">
        <ele>112</ele>
        <time>2015-07-27T18:55:41Z</time>
      </trkpt>
      <trkpt lat="48.87837" lon="2.40266">
        <ele>112</ele>
        <time>2015-07-27T18:55:46Z</time>
      </trkpt>
      <trkpt lat="48.87833" lon="2.4029">
        <ele>111.19999694824</ele>
        <time>2015-07-27T18:55:50Z</time>
      </trkpt>
      <trkpt lat="48.87829" lon="2.40314">
        <ele>110.59999847412</ele>
        <time>2015-07-27T18:55:54Z</time>
      </trkpt>
      <trkpt lat="48.87823" lon="2.40343">
        <ele>110.19999694824</ele>
        <time>2015-07-27T18:55:59Z</time>
      </trkpt>
      <trkpt lat="48.87821" lon="2.4036">
        <ele>110</ele>
        <time>2015-07-27T18:56:03Z</time>
      </trkpt>
      <trkpt lat="48.87818" lon="2.40382">
        <ele>109.80000305176</ele>
        <time>2015-07-27T18:56:07Z</time>
      </trkpt>
      <trkpt lat="48.87815" lon="2.40403">
        <ele>109.80000305176</ele>
        <time>2015-07-27T18:56:12Z</time>
      </trkpt>
      <trkpt lat="48.87812" lon="2.40419">
        <ele>109.80000305176</ele>
        <time>2015-07-27T18:56:16Z</time>
      </trkpt>
      <trkpt lat="48.8781" lon="2.4044">
        <ele>110.40000152588</ele>
        <time>2015-07-27T18:56:21Z</time>
      </trkpt>
      <trkpt lat="48.87808" lon="2.40455">
        <ele>110.80000305176</ele>
        <time>2015-07-27T18:56:24Z</time>
      </trkpt>
      <trkpt lat="48.87806" lon="2.40473">
        <ele>111.59999847412</ele>
        <time>2015-07-27T18:56:28Z</time>
      </trkpt>
      <trkpt lat="48.87802" lon="2.40507">
        <ele>113.19999694824</ele>
        <time>2015-07-27T18:56:35Z</time>
      </trkpt>
      <trkpt lat="48.87795" lon="2.40532">
        <ele>114.40000152588</ele>
        <time>2015-07-27T18:56:40Z</time>
      </trkpt>
      <trkpt lat="48.87789" lon="2.4056">
        <ele>116</ele>
        <time>2015-07-27T18:56:46Z</time>
      </trkpt>
      <trkpt lat="48.87783" lon="2.40584">
        <ele>117.19999694824</ele>
        <time>2015-07-27T18:56:52Z</time>
      </trkpt>
      <trkpt lat="48.8778" lon="2.406">
        <ele>118</ele>
        <time>2015-07-27T18:56:56Z</time>
      </trkpt>
      <trkpt lat="48.87769" lon="2.40622">
        <ele>119</ele>
        <time>2015-07-27T18:57:01Z</time>
      </trkpt>
      <trkpt lat="48.87755" lon="2.40637">
        <ele>119.59999847412</ele>
        <time>2015-07-27T18:57:06Z</time>
      </trkpt>
      <trkpt lat="48.87743" lon="2.40646">
        <ele>119.80000305176</ele>
        <time>2015-07-27T18:57:11Z</time>
      </trkpt>
      <trkpt lat="48.87731" lon="2.40654">
        <ele>120</ele>
        <time>2015-07-27T18:57:17Z</time>
      </trkpt>
      <trkpt lat="48.87728" lon="2.40656">
        <ele>120.19999694824</ele>
        <time>2015-07-27T18:57:19Z</time>
      </trkpt>
      <trkpt lat="48.87723" lon="2.40655">
        <ele>121</ele>
        <time>2015-07-27T18:57:23Z</time>
      </trkpt>
      <trkpt lat="48.87722" lon="2.40658">
        <ele>121.59999847412</ele>
        <time>2015-07-27T18:57:28Z</time>
      </trkpt>
      <trkpt lat="48.87725" lon="2.40672">
        <ele>122.40000152588</ele>
        <time>2015-07-27T18:57:34Z</time>
      </trkpt>
      <trkpt lat="48.87732" lon="2.40686">
        <ele>123.40000152588</ele>
        <time>2015-07-27T18:57:42Z</time>
      </trkpt>
      <trkpt lat="48.87735" lon="2.40681">
        <ele>124</ele>
        <time>2015-07-27T18:57:51Z</time>
      </trkpt>
      <trkpt lat="48.87736" lon="2.40679">
        <ele>124</ele>
        <time>2015-07-27T18:57:56Z</time>
      </trkpt>
      <trkpt lat="48.87742" lon="2.4067">
        <ele>124.19999694824</ele>
        <time>2015-07-27T18:58:01Z</time>
      </trkpt>
      <trkpt lat="48.87756" lon="2.40653">
        <ele>124.19999694824</ele>
        <time>2015-07-27T18:58:07Z</time>
      </trkpt>
      <trkpt lat="48.8777" lon="2.40632">
        <ele>124.19999694824</ele>
        <time>2015-07-27T18:58:12Z</time>
      </trkpt>
      <trkpt lat="48.87779" lon="2.40608">
        <ele>124.19999694824</ele>
        <time>2015-07-27T18:58:16Z</time>
      </trkpt>
      <trkpt lat="48.87782" lon="2.40601">
        <ele>124.19999694824</ele>
        <time>2015-07-27T18:58:17Z</time>
      </trkpt>
      <trkpt lat="48.87789" lon="2.40563">
        <ele>124.19999694824</ele>
        <time>2015-07-27T18:58:22Z</time>
      </trkpt>
      <trkpt lat="48.87796" lon="2.40531">
        <ele>124.19999694824</ele>
        <time>2015-07-27T18:58:26Z</time>
      </trkpt>
      <trkpt lat="48.87801" lon="2.40505">
        <ele>124.40000152588</ele>
        <time>2015-07-27T18:58:29Z</time>
      </trkpt>
      <trkpt lat="48.87806" lon="2.40478">
        <ele>124.40000152588</ele>
        <time>2015-07-27T18:58:32Z</time>
      </trkpt>
      <trkpt lat="48.87811" lon="2.40451">
        <ele>123.80000305176</ele>
        <time>2015-07-27T18:58:35Z</time>
      </trkpt>
      <trkpt lat="48.87817" lon="2.40422">
        <ele>123.19999694824</ele>
        <time>2015-07-27T18:58:38Z</time>
      </trkpt>
      <trkpt lat="48.87822" lon="2.404">
        <ele>122.59999847412</ele>
        <time>2015-07-27T18:58:40Z</time>
      </trkpt>
      <trkpt lat="48.87824" lon="2.40391">
        <ele>122.40000152588</ele>
        <time>2015-07-27T18:58:41Z</time>
      </trkpt>
      <trkpt lat="48.87825" lon="2.40381">
        <ele>122.19999694824</ele>
        <time>2015-07-27T18:58:42Z</time>
      </trkpt>
      <trkpt lat="48.8783" lon="2.4035">
        <ele>121.40000152588</ele>
        <time>2015-07-27T18:58:45Z</time>
      </trkpt>
      <trkpt lat="48.87837" lon="2.40324">
        <ele>120.80000305176</ele>
        <time>2015-07-27T18:58:47Z</time>
      </trkpt>
      <trkpt lat="48.87845" lon="2.40292">
        <ele>119.80000305176</ele>
        <time>2015-07-27T18:58:50Z</time>
      </trkpt>
      <trkpt lat="48.8785" lon="2.40263">
        <ele>118.80000305176</ele>
        <time>2015-07-27T18:58:53Z</time>
      </trkpt>
      <trkpt lat="48.87857" lon="2.40234">
        <ele>117.40000152588</ele>
        <time>2015-07-27T18:58:56Z</time>
      </trkpt>
      <trkpt lat="48.87866" lon="2.40205">
        <ele>116.40000152588</ele>
        <time>2015-07-27T18:58:59Z</time>
      </trkpt>
      <trkpt lat="48.8787" lon="2.40197">
        <ele>116.19999694824</ele>
        <time>2015-07-27T18:59:00Z</time>
      </trkpt>
      <trkpt lat="48.87883" lon="2.40176">
        <ele>114.80000305176</ele>
        <time>2015-07-27T18:59:03Z</time>
      </trkpt>
      <trkpt lat="48.87887" lon="2.4017">
        <ele>114.59999847412</ele>
        <time>2015-07-27T18:59:04Z</time>
      </trkpt>
      <trkpt lat="48.87897" lon="2.40148">
        <ele>113.59999847412</ele>
        <time>2015-07-27T18:59:07Z</time>
      </trkpt>
      <trkpt lat="48.87904" lon="2.40133">
        <ele>113</ele>
        <time>2015-07-27T18:59:09Z</time>
      </trkpt>
      <trkpt lat="48.87926" lon="2.40111">
        <ele>111.80000305176</ele>
        <time>2015-07-27T18:59:13Z</time>
      </trkpt>
      <trkpt lat="48.87945" lon="2.40097">
        <ele>110.80000305176</ele>
        <time>2015-07-27T18:59:16Z</time>
      </trkpt>
      <trkpt lat="48.87963" lon="2.40084">
        <ele>109.80000305176</ele>
        <time>2015-07-27T18:59:19Z</time>
      </trkpt>
      <trkpt lat="48.8798" lon="2.40071">
        <ele>109</ele>
        <time>2015-07-27T18:59:22Z</time>
      </trkpt>
      <trkpt lat="48.88" lon="2.40057">
        <ele>108.19999694824</ele>
        <time>2015-07-27T18:59:26Z</time>
      </trkpt>
      <trkpt lat="48.88019" lon="2.40044">
        <ele>107</ele>
        <time>2015-07-27T18:59:30Z</time>
      </trkpt>
      <trkpt lat="48.8803" lon="2.4004">
        <ele>105.40000152588</ele>
        <time>2015-07-27T18:59:38Z</time>
      </trkpt>
      <trkpt lat="48.88027" lon="2.4004">
        <ele>103.59999847412</ele>
        <time>2015-07-27T18:59:49Z</time>
      </trkpt>
      <trkpt lat="48.88036" lon="2.40031">
        <ele>103.40000152588</ele>
        <time>2015-07-27T18:59:54Z</time>
      </trkpt>
      <trkpt lat="48.88055" lon="2.40015">
        <ele>103.19999694824</ele>
        <time>2015-07-27T19:00:00Z</time>
      </trkpt>
      <trkpt lat="48.88075" lon="2.40002">
        <ele>103</ele>
        <time>2015-07-27T19:00:05Z</time>
      </trkpt>
      <trkpt lat="48.88079" lon="2.40001">
        <ele>103</ele>
        <time>2015-07-27T19:00:06Z</time>
      </trkpt>
      <trkpt lat="48.88086" lon="2.4">
        <ele>103</ele>
        <time>2015-07-27T19:00:07Z</time>
      </trkpt>
      <trkpt lat="48.88111" lon="2.40006">
        <ele>103</ele>
        <time>2015-07-27T19:00:11Z</time>
      </trkpt>
      <trkpt lat="48.88131" lon="2.40023">
        <ele>103</ele>
        <time>2015-07-27T19:00:14Z</time>
      </trkpt>
      <trkpt lat="48.88138" lon="2.40031">
        <ele>103</ele>
        <time>2015-07-27T19:00:15Z</time>
      </trkpt>
      <trkpt lat="48.8816" lon="2.40052">
        <ele>102.59999847412</ele>
        <time>2015-07-27T19:00:18Z</time>
      </trkpt>
      <trkpt lat="48.88169" lon="2.40057">
        <ele>102.40000152588</ele>
        <time>2015-07-27T19:00:19Z</time>
      </trkpt>
      <trkpt lat="48.88195" lon="2.40062">
        <ele>101.80000305176</ele>
        <time>2015-07-27T19:00:22Z</time>
      </trkpt>
      <trkpt lat="48.88213" lon="2.40055">
        <ele>101.19999694824</ele>
        <time>2015-07-27T19:00:24Z</time>
      </trkpt>
      <trkpt lat="48.88235" lon="2.40035">
        <ele>100.19999694824</ele>
        <time>2015-07-27T19:00:27Z</time>
      </trkpt>
      <trkpt lat="48.88246" lon="2.40016">
        <ele>99.599998474121</ele>
        <time>2015-07-27T19:00:29Z</time>
      </trkpt>
      <trkpt lat="48.88268" lon="2.39954">
        <ele>97.400001525879</ele>
        <time>2015-07-27T19:00:35Z</time>
      </trkpt>
      <trkpt lat="48.88273" lon="2.3992">
        <ele>96.199996948242</ele>
        <time>2015-07-27T19:00:38Z</time>
      </trkpt>
      <trkpt lat="48.88277" lon="2.39886">
        <ele>95</ele>
        <time>2015-07-27T19:00:41Z</time>
      </trkpt>
      <trkpt lat="48.88281" lon="2.39853">
        <ele>93.800003051758</ele>
        <time>2015-07-27T19:00:44Z</time>
      </trkpt>
      <trkpt lat="48.88284" lon="2.39841">
        <ele>93.400001525879</ele>
        <time>2015-07-27T19:00:45Z</time>
      </trkpt>
      <trkpt lat="48.88292" lon="2.39806">
        <ele>91.800003051758</ele>
        <time>2015-07-27T19:00:48Z</time>
      </trkpt>
      <trkpt lat="48.88295" lon="2.39796">
        <ele>91.400001525879</ele>
        <time>2015-07-27T19:00:49Z</time>
      </trkpt>
      <trkpt lat="48.88302" lon="2.39776">
        <ele>90.599998474121</ele>
        <time>2015-07-27T19:00:51Z</time>
      </trkpt>
      <trkpt lat="48.88322" lon="2.39743">
        <ele>88.800003051758</ele>
        <time>2015-07-27T19:00:55Z</time>
      </trkpt>
      <trkpt lat="48.88336" lon="2.3973">
        <ele>88.199996948242</ele>
        <time>2015-07-27T19:00:57Z</time>
      </trkpt>
      <trkpt lat="48.88361" lon="2.39713">
        <ele>86.599998474121</ele>
        <time>2015-07-27T19:01:01Z</time>
      </trkpt>
      <trkpt lat="48.8838" lon="2.39706">
        <ele>85.800003051758</ele>
        <time>2015-07-27T19:01:04Z</time>
      </trkpt>
      <trkpt lat="48.88402" lon="2.39697">
        <ele>85</ele>
        <time>2015-07-27T19:01:08Z</time>
      </trkpt>
      <trkpt lat="48.88415" lon="2.39691">
        <ele>84.800003051758</ele>
        <time>2015-07-27T19:01:10Z</time>
      </trkpt>
      <trkpt lat="48.88425" lon="2.39684">
        <ele>84.599998474121</ele>
        <time>2015-07-27T19:01:13Z</time>
      </trkpt>
      <trkpt lat="48.88434" lon="2.3968">
        <ele>84.400001525879</ele>
        <time>2015-07-27T19:01:14Z</time>
      </trkpt>
      <trkpt lat="48.88454" lon="2.39659">
        <ele>84</ele>
        <time>2015-07-27T19:01:20Z</time>
      </trkpt>
      <trkpt lat="48.88462" lon="2.39658">
        <ele>84</ele>
        <time>2015-07-27T19:01:21Z</time>
      </trkpt>
      <trkpt lat="48.88482" lon="2.39655">
        <ele>83.800003051758</ele>
        <time>2015-07-27T19:01:24Z</time>
      </trkpt>
      <trkpt lat="48.88508" lon="2.39653">
        <ele>83.800003051758</ele>
        <time>2015-07-27T19:01:26Z</time>
      </trkpt>
      <trkpt lat="48.8853" lon="2.39651">
        <ele>84</ele>
        <time>2015-07-27T19:01:28Z</time>
      </trkpt>
      <trkpt lat="48.88549" lon="2.3965">
        <ele>84.400001525879</ele>
        <time>2015-07-27T19:01:31Z</time>
      </trkpt>
      <trkpt lat="48.8856" lon="2.39649">
        <ele>84.599998474121</ele>
        <time>2015-07-27T19:01:33Z</time>
      </trkpt>
      <trkpt lat="48.88584" lon="2.39655">
        <ele>85</ele>
        <time>2015-07-27T19:01:37Z</time>
      </trkpt>
      <trkpt lat="48.88587" lon="2.39655">
        <ele>85</ele>
        <time>2015-07-27T19:01:38Z</time>
      </trkpt>
      <trkpt lat="48.88598" lon="2.39663">
        <ele>84.800003051758</ele>
        <time>2015-07-27T19:01:54Z</time>
      </trkpt>
      <trkpt lat="48.88598" lon="2.39664">
        <ele>84</ele>
        <time>2015-07-27T19:02:01Z</time>
      </trkpt>
      <trkpt lat="48.88598" lon="2.39665">
        <ele>83.400001525879</ele>
        <time>2015-07-27T19:02:12Z</time>
      </trkpt>
      <trkpt lat="48.88598" lon="2.39655">
        <ele>82.400001525879</ele>
        <time>2015-07-27T19:02:17Z</time>
      </trkpt>
      <trkpt lat="48.88599" lon="2.39651">
        <ele>82.199996948242</ele>
        <time>2015-07-27T19:02:19Z</time>
      </trkpt>
      <trkpt lat="48.8861" lon="2.39638">
        <ele>81.800003051758</ele>
        <time>2015-07-27T19:02:25Z</time>
      </trkpt>
      <trkpt lat="48.88623" lon="2.39632">
        <ele>81.599998474121</ele>
        <time>2015-07-27T19:02:30Z</time>
      </trkpt>
      <trkpt lat="48.88627" lon="2.39632">
        <ele>81.400001525879</ele>
        <time>2015-07-27T19:02:32Z</time>
      </trkpt>
      <trkpt lat="48.88676" lon="2.39628">
        <ele>79.599998474121</ele>
        <time>2015-07-27T19:02:48Z</time>
      </trkpt>
      <trkpt lat="48.88695" lon="2.39624">
        <ele>79.400001525879</ele>
        <time>2015-07-27T19:02:53Z</time>
      </trkpt>
      <trkpt lat="48.88715" lon="2.39618">
        <ele>78.800003051758</ele>
        <time>2015-07-27T19:02:58Z</time>
      </trkpt>
      <trkpt lat="48.88734" lon="2.39613">
        <ele>78</ele>
        <time>2015-07-27T19:03:03Z</time>
      </trkpt>
      <trkpt lat="48.88755" lon="2.39607">
        <ele>77.599998474121</ele>
        <time>2015-07-27T19:03:08Z</time>
      </trkpt>
      <trkpt lat="48.88759" lon="2.39607">
        <ele>77.599998474121</ele>
        <time>2015-07-27T19:03:09Z</time>
      </trkpt>
      <trkpt lat="48.88779" lon="2.39602">
        <ele>77.400001525879</ele>
        <time>2015-07-27T19:03:14Z</time>
      </trkpt>
      <trkpt lat="48.88799" lon="2.39596">
        <ele>76.800003051758</ele>
        <time>2015-07-27T19:03:19Z</time>
      </trkpt>
      <trkpt lat="48.88803" lon="2.39594">
        <ele>76.599998474121</ele>
        <time>2015-07-27T19:03:20Z</time>
      </trkpt>
      <trkpt lat="48.88813" lon="2.39588">
        <ele>76.199996948242</ele>
        <time>2015-07-27T19:03:23Z</time>
      </trkpt>
      <trkpt lat="48.88827" lon="2.39588">
        <ele>75.800003051758</ele>
        <time>2015-07-27T19:03:28Z</time>
      </trkpt>
      <trkpt lat="48.88838" lon="2.39591">
        <ele>75.599998474121</ele>
        <time>2015-07-27T19:03:31Z</time>
      </trkpt>
      <trkpt lat="48.88858" lon="2.39579">
        <ele>74.599998474121</ele>
        <time>2015-07-27T19:03:36Z</time>
      </trkpt>
      <trkpt lat="48.88871" lon="2.39574">
        <ele>74.199996948242</ele>
        <time>2015-07-27T19:03:39Z</time>
      </trkpt>
      <trkpt lat="48.88885" lon="2.39567">
        <ele>73.400001525879</ele>
        <time>2015-07-27T19:03:43Z</time>
      </trkpt>
      <trkpt lat="48.88898" lon="2.39558">
        <ele>72.599998474121</ele>
        <time>2015-07-27T19:03:47Z</time>
      </trkpt>
      <trkpt lat="48.8892" lon="2.39549">
        <ele>70.800003051758</ele>
        <time>2015-07-27T19:03:54Z</time>
      </trkpt>
      <trkpt lat="48.88933" lon="2.39545">
        <ele>70</ele>
        <time>2015-07-27T19:03:59Z</time>
      </trkpt>
      <trkpt lat="48.88946" lon="2.39539">
        <ele>68.599998474121</ele>
        <time>2015-07-27T19:04:05Z</time>
      </trkpt>
      <trkpt lat="48.88953" lon="2.39538">
        <ele>68</ele>
        <time>2015-07-27T19:04:08Z</time>
      </trkpt>
      <trkpt lat="48.88964" lon="2.39537">
        <ele>67.599998474121</ele>
        <time>2015-07-27T19:04:13Z</time>
      </trkpt>
      <trkpt lat="48.88967" lon="2.39536">
        <ele>67.400001525879</ele>
        <time>2015-07-27T19:04:14Z</time>
      </trkpt>
      <trkpt lat="48.88981" lon="2.39529">
        <ele>66.400001525879</ele>
        <time>2015-07-27T19:04:19Z</time>
      </trkpt>
      <trkpt lat="48.88984" lon="2.39528">
        <ele>66.199996948242</ele>
        <time>2015-07-27T19:04:20Z</time>
      </trkpt>
      <trkpt lat="48.88994" lon="2.39536">
        <ele>65.599998474121</ele>
        <time>2015-07-27T19:04:25Z</time>
      </trkpt>
      <trkpt lat="48.89001" lon="2.39542">
        <ele>65.199996948242</ele>
        <time>2015-07-27T19:04:29Z</time>
      </trkpt>
      <trkpt lat="48.89002" lon="2.39541">
        <ele>63.400001525879</ele>
        <time>2015-07-27T19:04:49Z</time>
      </trkpt>
      <trkpt lat="48.89002" lon="2.39539">
        <ele>63</ele>
        <time>2015-07-27T19:04:57Z</time>
      </trkpt>
      <trkpt lat="48.89019" lon="2.39527">
        <ele>63</ele>
        <time>2015-07-27T19:05:02Z</time>
      </trkpt>
      <trkpt lat="48.89038" lon="2.3952">
        <ele>62.79999923706</ele>
        <time>2015-07-27T19:05:05Z</time>
      </trkpt>
      <trkpt lat="48.89057" lon="2.39514">
        <ele>62.79999923706</ele>
        <time>2015-07-27T19:05:08Z</time>
      </trkpt>
      <trkpt lat="48.89077" lon="2.3951">
        <ele>62.79999923706</ele>
        <time>2015-07-27T19:05:11Z</time>
      </trkpt>
      <trkpt lat="48.89096" lon="2.39506">
        <ele>62.79999923706</ele>
        <time>2015-07-27T19:05:14Z</time>
      </trkpt>
      <trkpt lat="48.89115" lon="2.39502">
        <ele>62.79999923706</ele>
        <time>2015-07-27T19:05:17Z</time>
      </trkpt>
      <trkpt lat="48.89132" lon="2.39498">
        <ele>62.79999923706</ele>
        <time>2015-07-27T19:05:20Z</time>
      </trkpt>
      <trkpt lat="48.89154" lon="2.39493">
        <ele>62.79999923706</ele>
        <time>2015-07-27T19:05:24Z</time>
      </trkpt>
      <trkpt lat="48.89165" lon="2.39492">
        <ele>62.79999923706</ele>
        <time>2015-07-27T19:05:28Z</time>
      </trkpt>
      <trkpt lat="48.89168" lon="2.39492">
        <ele>62.79999923706</ele>
        <time>2015-07-27T19:05:29Z</time>
      </trkpt>
      <trkpt lat="48.89171" lon="2.39491">
        <ele>62.79999923706</ele>
        <time>2015-07-27T19:05:30Z</time>
      </trkpt>
      <trkpt lat="48.8918" lon="2.39491">
        <ele>62.79999923706</ele>
        <time>2015-07-27T19:05:34Z</time>
      </trkpt>
      <trkpt lat="48.89188" lon="2.395">
        <ele>62.79999923706</ele>
        <time>2015-07-27T19:05:40Z</time>
      </trkpt>
      <trkpt lat="48.89198" lon="2.39498">
        <ele>62.79999923706</ele>
        <time>2015-07-27T19:05:43Z</time>
      </trkpt>
      <trkpt lat="48.89218" lon="2.3949">
        <ele>62.79999923706</ele>
        <time>2015-07-27T19:05:48Z</time>
      </trkpt>
      <trkpt lat="48.89227" lon="2.39484">
        <ele>62.79999923706</ele>
        <time>2015-07-27T19:05:49Z</time>
      </trkpt>
      <trkpt lat="48.89251" lon="2.39474">
        <ele>62.79999923706</ele>
        <time>2015-07-27T19:05:52Z</time>
      </trkpt>
      <trkpt lat="48.89266" lon="2.39467">
        <ele>62.400001525879</ele>
        <time>2015-07-27T19:05:54Z</time>
      </trkpt>
      <trkpt lat="48.89277" lon="2.39464">
        <ele>62.20000076294</ele>
        <time>2015-07-27T19:05:56Z</time>
      </trkpt>
      <trkpt lat="48.89293" lon="2.3946">
        <ele>61.599998474121</ele>
        <time>2015-07-27T19:05:59Z</time>
      </trkpt>
      <trkpt lat="48.89311" lon="2.39454">
        <ele>61.20000076294</ele>
        <time>2015-07-27T19:06:03Z</time>
      </trkpt>
      <trkpt lat="48.8933" lon="2.3945">
        <ele>61</ele>
        <time>2015-07-27T19:06:07Z</time>
      </trkpt>
      <trkpt lat="48.89349" lon="2.39445">
        <ele>60.599998474121</ele>
        <time>2015-07-27T19:06:11Z</time>
      </trkpt>
      <trkpt lat="48.89368" lon="2.39441">
        <ele>59.79999923706</ele>
        <time>2015-07-27T19:06:15Z</time>
      </trkpt>
      <trkpt lat="48.89387" lon="2.39437">
        <ele>59.400001525879</ele>
        <time>2015-07-27T19:06:19Z</time>
      </trkpt>
      <trkpt lat="48.89391" lon="2.39435">
        <ele>59.400001525879</ele>
        <time>2015-07-27T19:06:20Z</time>
      </trkpt>
      <trkpt lat="48.89404" lon="2.39434">
        <ele>59</ele>
        <time>2015-07-27T19:06:23Z</time>
      </trkpt>
      <trkpt lat="48.8943" lon="2.39427">
        <ele>58.79999923706</ele>
        <time>2015-07-27T19:06:29Z</time>
      </trkpt>
      <trkpt lat="48.8945" lon="2.39422">
        <ele>58.599998474121</ele>
        <time>2015-07-27T19:06:34Z</time>
      </trkpt>
      <trkpt lat="48.8947" lon="2.39417">
        <ele>58.599998474121</ele>
        <time>2015-07-27T19:06:39Z</time>
      </trkpt>
      <trkpt lat="48.89505" lon="2.39406">
        <ele>58.599998474121</ele>
        <time>2015-07-27T19:06:48Z</time>
      </trkpt>
      <trkpt lat="48.89537" lon="2.39392">
        <ele>58.400001525879</ele>
        <time>2015-07-27T19:06:57Z</time>
      </trkpt>
      <trkpt lat="48.89555" lon="2.39381">
        <ele>58.400001525879</ele>
        <time>2015-07-27T19:07:03Z</time>
      </trkpt>
      <trkpt lat="48.89568" lon="2.39378">
        <ele>58.400001525879</ele>
        <time>2015-07-27T19:07:07Z</time>
      </trkpt>
      <trkpt lat="48.89581" lon="2.39373">
        <ele>59</ele>
        <time>2015-07-27T19:07:11Z</time>
      </trkpt>
      <trkpt lat="48.89585" lon="2.39371">
        <ele>59.20000076294</ele>
        <time>2015-07-27T19:07:12Z</time>
      </trkpt>
      <trkpt lat="48.89603" lon="2.39358">
        <ele>59.79999923706</ele>
        <time>2015-07-27T19:07:17Z</time>
      </trkpt>
      <trkpt lat="48.89622" lon="2.39341">
        <ele>60</ele>
        <time>2015-07-27T19:07:22Z</time>
      </trkpt>
      <trkpt lat="48.89625" lon="2.39337">
        <ele>60</ele>
        <time>2015-07-27T19:07:23Z</time>
      </trkpt>
      <trkpt lat="48.89643" lon="2.39317">
        <ele>60.20000076294</ele>
        <time>2015-07-27T19:07:28Z</time>
      </trkpt>
      <trkpt lat="48.89645" lon="2.39312">
        <ele>60.20000076294</ele>
        <time>2015-07-27T19:07:29Z</time>
      </trkpt>
      <trkpt lat="48.8965" lon="2.39298">
        <ele>60.400001525879</ele>
        <time>2015-07-27T19:07:32Z</time>
      </trkpt>
      <trkpt lat="48.89663" lon="2.39274">
        <ele>60.400001525879</ele>
        <time>2015-07-27T19:07:37Z</time>
      </trkpt>
      <trkpt lat="48.89673" lon="2.39257">
        <ele>60.400001525879</ele>
        <time>2015-07-27T19:07:41Z</time>
      </trkpt>
      <trkpt lat="48.8968" lon="2.39243">
        <ele>60.20000076294</ele>
        <time>2015-07-27T19:07:44Z</time>
      </trkpt>
      <trkpt lat="48.8969" lon="2.39215">
        <ele>59.400001525879</ele>
        <time>2015-07-27T19:07:50Z</time>
      </trkpt>
      <trkpt lat="48.89693" lon="2.39205">
        <ele>59</ele>
        <time>2015-07-27T19:07:55Z</time>
      </trkpt>
      <trkpt lat="48.89693" lon="2.39204">
        <ele>59</ele>
        <time>2015-07-27T19:07:56Z</time>
      </trkpt>
      <trkpt lat="48.89697" lon="2.39193">
        <ele>58.79999923706</ele>
        <time>2015-07-27T19:08:00Z</time>
      </trkpt>
      <trkpt lat="48.89698" lon="2.39189">
        <ele>58.79999923706</ele>
        <time>2015-07-27T19:08:01Z</time>
      </trkpt>
      <trkpt lat="48.89706" lon="2.3916">
        <ele>57.79999923706</ele>
        <time>2015-07-27T19:08:06Z</time>
      </trkpt>
      <trkpt lat="48.89713" lon="2.39129">
        <ele>57.400001525879</ele>
        <time>2015-07-27T19:08:10Z</time>
      </trkpt>
      <trkpt lat="48.89719" lon="2.39098">
        <ele>57</ele>
        <time>2015-07-27T19:08:14Z</time>
      </trkpt>
      <trkpt lat="48.89724" lon="2.39065">
        <ele>56.79999923706</ele>
        <time>2015-07-27T19:08:18Z</time>
      </trkpt>
      <trkpt lat="48.89727" lon="2.39034">
        <ele>56.599998474121</ele>
        <time>2015-07-27T19:08:22Z</time>
      </trkpt>
      <trkpt lat="48.89727" lon="2.39027">
        <ele>56.400001525879</ele>
        <time>2015-07-27T19:08:23Z</time>
      </trkpt>
      <trkpt lat="48.8973" lon="2.38989">
        <ele>55.599998474121</ele>
        <time>2015-07-27T19:08:28Z</time>
      </trkpt>
      <trkpt lat="48.8973" lon="2.38974">
        <ele>55.400001525879</ele>
        <time>2015-07-27T19:08:30Z</time>
      </trkpt>
      <trkpt lat="48.89733" lon="2.38939">
        <ele>55</ele>
        <time>2015-07-27T19:08:35Z</time>
      </trkpt>
      <trkpt lat="48.89735" lon="2.38907">
        <ele>54.79999923706</ele>
        <time>2015-07-27T19:08:40Z</time>
      </trkpt>
      <trkpt lat="48.89736" lon="2.38894">
        <ele>54.79999923706</ele>
        <time>2015-07-27T19:08:42Z</time>
      </trkpt>
      <trkpt lat="48.89736" lon="2.38871">
        <ele>54.599998474121</ele>
        <time>2015-07-27T19:08:46Z</time>
      </trkpt>
      <trkpt lat="48.89737" lon="2.38844">
        <ele>54.599998474121</ele>
        <time>2015-07-27T19:08:50Z</time>
      </trkpt>
      <trkpt lat="48.89737" lon="2.38834">
        <ele>54.599998474121</ele>
        <time>2015-07-27T19:08:52Z</time>
      </trkpt>
      <trkpt lat="48.89738" lon="2.38812">
        <ele>54.599998474121</ele>
        <time>2015-07-27T19:08:58Z</time>
      </trkpt>
      <trkpt lat="48.89737" lon="2.38806">
        <ele>54.400001525879</ele>
        <time>2015-07-27T19:08:59Z</time>
      </trkpt>
      <trkpt lat="48.89733" lon="2.38777">
        <ele>54.400001525879</ele>
        <time>2015-07-27T19:09:04Z</time>
      </trkpt>
      <trkpt lat="48.89734" lon="2.38753">
        <ele>54.400001525879</ele>
        <time>2015-07-27T19:09:08Z</time>
      </trkpt>
      <trkpt lat="48.89732" lon="2.38735">
        <ele>54.400001525879</ele>
        <time>2015-07-27T19:09:11Z</time>
      </trkpt>
      <trkpt lat="48.89732" lon="2.38705">
        <ele>53.599998474121</ele>
        <time>2015-07-27T19:09:16Z</time>
      </trkpt>
      <trkpt lat="48.89732" lon="2.38686">
        <ele>53.20000076294</ele>
        <time>2015-07-27T19:09:20Z</time>
      </trkpt>
      <trkpt lat="48.89733" lon="2.38666">
        <ele>52.79999923706</ele>
        <time>2015-07-27T19:09:25Z</time>
      </trkpt>
      <trkpt lat="48.89735" lon="2.38648">
        <ele>52.599998474121</ele>
        <time>2015-07-27T19:09:30Z</time>
      </trkpt>
      <trkpt lat="48.89735" lon="2.38636">
        <ele>52.599998474121</ele>
        <time>2015-07-27T19:09:32Z</time>
      </trkpt>
      <trkpt lat="48.89732" lon="2.38621">
        <ele>52.599998474121</ele>
        <time>2015-07-27T19:09:36Z</time>
      </trkpt>
      <trkpt lat="48.89733" lon="2.38614">
        <ele>52.599998474121</ele>
        <time>2015-07-27T19:09:37Z</time>
      </trkpt>
      <trkpt lat="48.89737" lon="2.38583">
        <ele>52.400001525879</ele>
        <time>2015-07-27T19:09:43Z</time>
      </trkpt>
      <trkpt lat="48.89738" lon="2.38578">
        <ele>52.400001525879</ele>
        <time>2015-07-27T19:09:44Z</time>
      </trkpt>
      <trkpt lat="48.89735" lon="2.3856">
        <ele>52.400001525879</ele>
        <time>2015-07-27T19:09:48Z</time>
      </trkpt>
      <trkpt lat="48.89734" lon="2.38559">
        <ele>52.400001525879</ele>
        <time>2015-07-27T19:09:50Z</time>
      </trkpt>
      <trkpt lat="48.89731" lon="2.38559">
        <ele>52.400001525879</ele>
        <time>2015-07-27T19:09:55Z</time>
      </trkpt>
      <trkpt lat="48.8973" lon="2.38558">
        <ele>52.400001525879</ele>
        <time>2015-07-27T19:09:58Z</time>
      </trkpt>
      <trkpt lat="48.89724" lon="2.38558">
        <ele>52.400001525879</ele>
        <time>2015-07-27T19:10:02Z</time>
      </trkpt>
      <trkpt lat="48.89719" lon="2.38549">
        <ele>52.400001525879</ele>
        <time>2015-07-27T19:10:06Z</time>
      </trkpt>
      <trkpt lat="48.89723" lon="2.38535">
        <ele>52.400001525879</ele>
        <time>2015-07-27T19:10:10Z</time>
      </trkpt>
      <trkpt lat="48.89725" lon="2.38528">
        <ele>52.400001525879</ele>
        <time>2015-07-27T19:10:12Z</time>
      </trkpt>
      <trkpt lat="48.89728" lon="2.38524">
        <ele>52.400001525879</ele>
        <time>2015-07-27T19:10:18Z</time>
      </trkpt>
      <trkpt lat="48.8973" lon="2.38523">
        <ele>52.400001525879</ele>
        <time>2015-07-27T19:10:26Z</time>
      </trkpt>
      <trkpt lat="48.8973" lon="2.38521">
        <ele>52.400001525879</ele>
        <time>2015-07-27T19:10:29Z</time>
      </trkpt>
      <trkpt lat="48.8972" lon="2.38508">
        <ele>52.400001525879</ele>
        <time>2015-07-27T19:10:34Z</time>
      </trkpt>
      <trkpt lat="48.89703" lon="2.38494">
        <ele>53.20000076294</ele>
        <time>2015-07-27T19:10:39Z</time>
      </trkpt>
      <trkpt lat="48.89664" lon="2.38457">
        <ele>54.79999923706</ele>
        <time>2015-07-27T19:10:51Z</time>
      </trkpt>
      <trkpt lat="48.89657" lon="2.3845">
        <ele>55.20000076294</ele>
        <time>2015-07-27T19:10:53Z</time>
      </trkpt>
      <trkpt lat="48.8965" lon="2.38444">
        <ele>55.400001525879</ele>
        <time>2015-07-27T19:10:55Z</time>
      </trkpt>
      <trkpt lat="48.89641" lon="2.38424">
        <ele>56.400001525879</ele>
        <time>2015-07-27T19:10:59Z</time>
      </trkpt>
      <trkpt lat="48.89637" lon="2.38407">
        <ele>57.20000076294</ele>
        <time>2015-07-27T19:11:03Z</time>
      </trkpt>
      <trkpt lat="48.89644" lon="2.38396">
        <ele>58</ele>
        <time>2015-07-27T19:11:07Z</time>
      </trkpt>
      <trkpt lat="48.89658" lon="2.3839">
        <ele>59.20000076294</ele>
        <time>2015-07-27T19:11:13Z</time>
      </trkpt>
      <trkpt lat="48.89677" lon="2.38378">
        <ele>59.79999923706</ele>
        <time>2015-07-27T19:11:19Z</time>
      </trkpt>
      <trkpt lat="48.89691" lon="2.38368">
        <ele>60.20000076294</ele>
        <time>2015-07-27T19:11:23Z</time>
      </trkpt>
      <trkpt lat="48.8971" lon="2.38355">
        <ele>60.400001525879</ele>
        <time>2015-07-27T19:11:28Z</time>
      </trkpt>
      <trkpt lat="48.89714" lon="2.38352">
        <ele>60.20000076294</ele>
        <time>2015-07-27T19:11:29Z</time>
      </trkpt>
      <trkpt lat="48.8973" lon="2.38339">
        <ele>59.599998474121</ele>
        <time>2015-07-27T19:11:33Z</time>
      </trkpt>
      <trkpt lat="48.89752" lon="2.38325">
        <ele>59.20000076294</ele>
        <time>2015-07-27T19:11:38Z</time>
      </trkpt>
      <trkpt lat="48.89765" lon="2.38318">
        <ele>59</ele>
        <time>2015-07-27T19:11:41Z</time>
      </trkpt>
      <trkpt lat="48.89819" lon="2.38289">
        <ele>57.20000076294</ele>
        <time>2015-07-27T19:11:55Z</time>
      </trkpt>
      <trkpt lat="48.89826" lon="2.38281">
        <ele>57</ele>
        <time>2015-07-27T19:11:59Z</time>
      </trkpt>
      <trkpt lat="48.89847" lon="2.38267">
        <ele>56</ele>
        <time>2015-07-27T19:12:05Z</time>
      </trkpt>
      <trkpt lat="48.89864" lon="2.38253">
        <ele>55.400001525879</ele>
        <time>2015-07-27T19:12:10Z</time>
      </trkpt>
      <trkpt lat="48.89875" lon="2.38236">
        <ele>54.400001525879</ele>
        <time>2015-07-27T19:12:14Z</time>
      </trkpt>
      <trkpt lat="48.89918" lon="2.38205">
        <ele>53</ele>
        <time>2015-07-27T19:12:28Z</time>
      </trkpt>
      <trkpt lat="48.89936" lon="2.38199">
        <ele>52</ele>
        <time>2015-07-27T19:12:31Z</time>
      </trkpt>
      <trkpt lat="48.89944" lon="2.38195">
        <ele>51.79999923706</ele>
        <time>2015-07-27T19:12:33Z</time>
      </trkpt>
      <trkpt lat="48.89964" lon="2.38184">
        <ele>51.20000076294</ele>
        <time>2015-07-27T19:12:38Z</time>
      </trkpt>
      <trkpt lat="48.89988" lon="2.38167">
        <ele>50.79999923706</ele>
        <time>2015-07-27T19:12:44Z</time>
      </trkpt>
      <trkpt lat="48.90008" lon="2.38152">
        <ele>50.599998474121</ele>
        <time>2015-07-27T19:12:49Z</time>
      </trkpt>
      <trkpt lat="48.90011" lon="2.38149">
        <ele>50.599998474121</ele>
        <time>2015-07-27T19:12:50Z</time>
      </trkpt>
      <trkpt lat="48.90023" lon="2.38129">
        <ele>50.599998474121</ele>
        <time>2015-07-27T19:12:55Z</time>
      </trkpt>
      <trkpt lat="48.90029" lon="2.38122">
        <ele>50.400001525879</ele>
        <time>2015-07-27T19:12:56Z</time>
      </trkpt>
      <trkpt lat="48.9004" lon="2.38108">
        <ele>50.400001525879</ele>
        <time>2015-07-27T19:12:58Z</time>
      </trkpt>
      <trkpt lat="48.90058" lon="2.38089">
        <ele>50.400001525879</ele>
        <time>2015-07-27T19:13:01Z</time>
      </trkpt>
      <trkpt lat="48.90064" lon="2.38089">
        <ele>50.400001525879</ele>
        <time>2015-07-27T19:13:02Z</time>
      </trkpt>
      <trkpt lat="48.90083" lon="2.38087">
        <ele>50.400001525879</ele>
        <time>2015-07-27T19:13:06Z</time>
      </trkpt>
      <trkpt lat="48.90092" lon="2.38085">
        <ele>50.400001525879</ele>
        <time>2015-07-27T19:13:08Z</time>
      </trkpt>
      <trkpt lat="48.90117" lon="2.38072">
        <ele>50.400001525879</ele>
        <time>2015-07-27T19:13:14Z</time>
      </trkpt>
      <trkpt lat="48.90125" lon="2.38067">
        <ele>50.400001525879</ele>
        <time>2015-07-27T19:13:16Z</time>
      </trkpt>
      <trkpt lat="48.9015" lon="2.38054">
        <ele>50.400001525879</ele>
        <time>2015-07-27T19:13:22Z</time>
      </trkpt>
      <trkpt lat="48.90167" lon="2.38044">
        <ele>50.400001525879</ele>
        <time>2015-07-27T19:13:26Z</time>
      </trkpt>
      <trkpt lat="48.90186" lon="2.38033">
        <ele>50.400001525879</ele>
        <time>2015-07-27T19:13:30Z</time>
      </trkpt>
      <trkpt lat="48.90204" lon="2.38022">
        <ele>50.400001525879</ele>
        <time>2015-07-27T19:13:35Z</time>
      </trkpt>
      <trkpt lat="48.9022" lon="2.38012">
        <ele>50.400001525879</ele>
        <time>2015-07-27T19:13:40Z</time>
      </trkpt>
      <trkpt lat="48.90238" lon="2.38002">
        <ele>50.400001525879</ele>
        <time>2015-07-27T19:13:46Z</time>
      </trkpt>
      <trkpt lat="48.90248" lon="2.37995">
        <ele>50.400001525879</ele>
        <time>2015-07-27T19:13:51Z</time>
      </trkpt>
      <trkpt lat="48.9025" lon="2.37994">
        <ele>50.400001525879</ele>
        <time>2015-07-27T19:13:52Z</time>
      </trkpt>
      <trkpt lat="48.90256" lon="2.37989">
        <ele>50.400001525879</ele>
        <time>2015-07-27T19:13:58Z</time>
      </trkpt>
      <trkpt lat="48.90262" lon="2.37985">
        <ele>50.400001525879</ele>
        <time>2015-07-27T19:14:05Z</time>
      </trkpt>
      <trkpt lat="48.90262" lon="2.37984">
        <ele>50.400001525879</ele>
        <time>2015-07-27T19:14:06Z</time>
      </trkpt>
      <trkpt lat="48.90267" lon="2.37981">
        <ele>50.400001525879</ele>
        <time>2015-07-27T19:14:10Z</time>
      </trkpt>
      <trkpt lat="48.90275" lon="2.37976">
        <ele>50.400001525879</ele>
        <time>2015-07-27T19:14:18Z</time>
      </trkpt>
      <trkpt lat="48.90282" lon="2.37972">
        <ele>50.400001525879</ele>
        <time>2015-07-27T19:14:24Z</time>
      </trkpt>
      <trkpt lat="48.90288" lon="2.3797">
        <ele>49.599998474121</ele>
        <time>2015-07-27T19:14:28Z</time>
      </trkpt>
      <trkpt lat="48.90294" lon="2.37965">
        <ele>49.20000076294</ele>
        <time>2015-07-27T19:14:32Z</time>
      </trkpt>
      <trkpt lat="48.90299" lon="2.37962">
        <ele>49.20000076294</ele>
        <time>2015-07-27T19:14:34Z</time>
      </trkpt>
      <trkpt lat="48.90319" lon="2.37952">
        <ele>48.79999923706</ele>
        <time>2015-07-27T19:14:41Z</time>
      </trkpt>
      <trkpt lat="48.90329" lon="2.37944">
        <ele>48.599998474121</ele>
        <time>2015-07-27T19:14:45Z</time>
      </trkpt>
      <trkpt lat="48.90352" lon="2.37932">
        <ele>48.400001525879</ele>
        <time>2015-07-27T19:14:55Z</time>
      </trkpt>
      <trkpt lat="48.90366" lon="2.37922">
        <ele>48.400001525879</ele>
        <time>2015-07-27T19:15:00Z</time>
      </trkpt>
      <trkpt lat="48.90381" lon="2.37915">
        <ele>48.400001525879</ele>
        <time>2015-07-27T19:15:05Z</time>
      </trkpt>
      <trkpt lat="48.90394" lon="2.37906">
        <ele>48.400001525879</ele>
        <time>2015-07-27T19:15:10Z</time>
      </trkpt>
      <trkpt lat="48.90408" lon="2.37904">
        <ele>48.400001525879</ele>
        <time>2015-07-27T19:15:16Z</time>
      </trkpt>
      <trkpt lat="48.90422" lon="2.37893">
        <ele>48.400001525879</ele>
        <time>2015-07-27T19:15:22Z</time>
      </trkpt>
      <trkpt lat="48.90438" lon="2.37883">
        <ele>48.400001525879</ele>
        <time>2015-07-27T19:15:27Z</time>
      </trkpt>
      <trkpt lat="48.90453" lon="2.37874">
        <ele>48.400001525879</ele>
        <time>2015-07-27T19:15:32Z</time>
      </trkpt>
      <trkpt lat="48.90471" lon="2.37863">
        <ele>48.400001525879</ele>
        <time>2015-07-27T19:15:37Z</time>
      </trkpt>
      <trkpt lat="48.90474" lon="2.37864">
        <ele>48.400001525879</ele>
        <time>2015-07-27T19:15:38Z</time>
      </trkpt>
      <trkpt lat="48.90478" lon="2.37864">
        <ele>48.400001525879</ele>
        <time>2015-07-27T19:15:41Z</time>
      </trkpt>
      <trkpt lat="48.90479" lon="2.37865">
        <ele>48.20000076294</ele>
        <time>2015-07-27T19:15:42Z</time>
      </trkpt>
      <trkpt lat="48.90481" lon="2.37867">
        <ele>47.20000076294</ele>
        <time>2015-07-27T19:15:49Z</time>
      </trkpt>
      <trkpt lat="48.90481" lon="2.3787">
        <ele>46.79999923706</ele>
        <time>2015-07-27T19:15:55Z</time>
      </trkpt>
      <trkpt lat="48.9048" lon="2.37874">
        <ele>46.400001525879</ele>
        <time>2015-07-27T19:16:21Z</time>
      </trkpt>
      <trkpt lat="48.9048" lon="2.37877">
        <ele>46.400001525879</ele>
        <time>2015-07-27T19:16:33Z</time>
      </trkpt>
      <trkpt lat="48.90482" lon="2.37879">
        <ele>46.400001525879</ele>
        <time>2015-07-27T19:16:35Z</time>
      </trkpt>
      <trkpt lat="48.90483" lon="2.37886">
        <ele>46.400001525879</ele>
        <time>2015-07-27T19:16:40Z</time>
      </trkpt>
      <trkpt lat="48.90483" lon="2.37885">
        <ele>46.400001525879</ele>
        <time>2015-07-27T19:16:42Z</time>
      </trkpt>
      <trkpt lat="48.90481" lon="2.37884">
        <ele>46.400001525879</ele>
        <time>2015-07-27T19:16:51Z</time>
      </trkpt>
      <trkpt lat="48.90473" lon="2.37877">
        <ele>58.400001525879</ele>
        <time>2015-07-27T19:18:25Z</time>
      </trkpt>
      <trkpt lat="48.90473" lon="2.37875">
        <ele>58.599998474121</ele>
        <time>2015-07-27T19:18:31Z</time>
      </trkpt>
      <trkpt lat="48.90473" lon="2.37885">
        <ele>60.599998474121</ele>
        <time>2015-07-27T19:18:49Z</time>
      </trkpt>
      <trkpt lat="48.90471" lon="2.37906">
        <ele>60.79999923706</ele>
        <time>2015-07-27T19:18:55Z</time>
      </trkpt>
      <trkpt lat="48.90468" lon="2.37934">
        <ele>60.79999923706</ele>
        <time>2015-07-27T19:19:01Z</time>
      </trkpt>
      <trkpt lat="48.90466" lon="2.37962">
        <ele>60.79999923706</ele>
        <time>2015-07-27T19:19:06Z</time>
      </trkpt>
      <trkpt lat="48.90466" lon="2.37991">
        <ele>61</ele>
        <time>2015-07-27T19:19:11Z</time>
      </trkpt>
      <trkpt lat="48.90463" lon="2.38021">
        <ele>61</ele>
        <time>2015-07-27T19:19:16Z</time>
      </trkpt>
      <trkpt lat="48.90463" lon="2.38046">
        <ele>61</ele>
        <time>2015-07-27T19:19:20Z</time>
      </trkpt>
      <trkpt lat="48.90462" lon="2.38075">
        <ele>61</ele>
        <time>2015-07-27T19:19:25Z</time>
      </trkpt>
      <trkpt lat="48.9046" lon="2.38107">
        <ele>61</ele>
        <time>2015-07-27T19:19:30Z</time>
      </trkpt>
      <trkpt lat="48.90458" lon="2.38136">
        <ele>61</ele>
        <time>2015-07-27T19:19:34Z</time>
      </trkpt>
      <trkpt lat="48.90456" lon="2.38144">
        <ele>61</ele>
        <time>2015-07-27T19:19:35Z</time>
      </trkpt>
      <trkpt lat="48.90455" lon="2.38172">
        <ele>61</ele>
        <time>2015-07-27T19:19:40Z</time>
      </trkpt>
      <trkpt lat="48.90456" lon="2.382">
        <ele>60.20000076294</ele>
        <time>2015-07-27T19:19:47Z</time>
      </trkpt>
      <trkpt lat="48.90459" lon="2.38206">
        <ele>59.599998474121</ele>
        <time>2015-07-27T19:19:52Z</time>
      </trkpt>
      <trkpt lat="48.90464" lon="2.38212">
        <ele>59.20000076294</ele>
        <time>2015-07-27T19:20:00Z</time>
      </trkpt>
      <trkpt lat="48.90465" lon="2.38214">
        <ele>59.20000076294</ele>
        <time>2015-07-27T19:20:01Z</time>
      </trkpt>
      <trkpt lat="48.90469" lon="2.38211">
        <ele>57.79999923706</ele>
        <time>2015-07-27T19:20:10Z</time>
      </trkpt>
      <trkpt lat="48.90479" lon="2.382">
        <ele>57.400001525879</ele>
        <time>2015-07-27T19:20:14Z</time>
      </trkpt>
      <trkpt lat="48.90495" lon="2.38183">
        <ele>57</ele>
        <time>2015-07-27T19:20:19Z</time>
      </trkpt>
      <trkpt lat="48.9051" lon="2.38166">
        <ele>56.20000076294</ele>
        <time>2015-07-27T19:20:23Z</time>
      </trkpt>
      <trkpt lat="48.90515" lon="2.38162">
        <ele>56</ele>
        <time>2015-07-27T19:20:24Z</time>
      </trkpt>
      <trkpt lat="48.90527" lon="2.38149">
        <ele>55.599998474121</ele>
        <time>2015-07-27T19:20:26Z</time>
      </trkpt>
      <trkpt lat="48.90547" lon="2.38127">
        <ele>55.20000076294</ele>
        <time>2015-07-27T19:20:32Z</time>
      </trkpt>
      <trkpt lat="48.90563" lon="2.38111">
        <ele>55</ele>
        <time>2015-07-27T19:20:36Z</time>
      </trkpt>
      <trkpt lat="48.9057" lon="2.38104">
        <ele>55</ele>
        <time>2015-07-27T19:20:38Z</time>
      </trkpt>
      <trkpt lat="48.906" lon="2.38071">
        <ele>54.79999923706</ele>
        <time>2015-07-27T19:20:47Z</time>
      </trkpt>
      <trkpt lat="48.90619" lon="2.38052">
        <ele>54.79999923706</ele>
        <time>2015-07-27T19:20:53Z</time>
      </trkpt>
      <trkpt lat="48.90633" lon="2.38036">
        <ele>54.79999923706</ele>
        <time>2015-07-27T19:20:56Z</time>
      </trkpt>
      <trkpt lat="48.90646" lon="2.38025">
        <ele>54.79999923706</ele>
        <time>2015-07-27T19:21:00Z</time>
      </trkpt>
      <trkpt lat="48.90665" lon="2.38005">
        <ele>54.79999923706</ele>
        <time>2015-07-27T19:21:05Z</time>
      </trkpt>
      <trkpt lat="48.90672" lon="2.37997">
        <ele>54.79999923706</ele>
        <time>2015-07-27T19:21:06Z</time>
      </trkpt>
      <trkpt lat="48.90685" lon="2.37982">
        <ele>54.79999923706</ele>
        <time>2015-07-27T19:21:11Z</time>
      </trkpt>
      <trkpt lat="48.90705" lon="2.37963">
        <ele>54.79999923706</ele>
        <time>2015-07-27T19:21:17Z</time>
      </trkpt>
      <trkpt lat="48.90722" lon="2.37945">
        <ele>54.599998474121</ele>
        <time>2015-07-27T19:21:22Z</time>
      </trkpt>
      <trkpt lat="48.90735" lon="2.37929">
        <ele>54.599998474121</ele>
        <time>2015-07-27T19:21:26Z</time>
      </trkpt>
      <trkpt lat="48.90752" lon="2.37911">
        <ele>54</ele>
        <time>2015-07-27T19:21:29Z</time>
      </trkpt>
      <trkpt lat="48.90776" lon="2.37889">
        <ele>53.400001525879</ele>
        <time>2015-07-27T19:21:35Z</time>
      </trkpt>
      <trkpt lat="48.90792" lon="2.37871">
        <ele>53.20000076294</ele>
        <time>2015-07-27T19:21:40Z</time>
      </trkpt>
      <trkpt lat="48.90809" lon="2.37856">
        <ele>53</ele>
        <time>2015-07-27T19:21:45Z</time>
      </trkpt>
      <trkpt lat="48.90812" lon="2.37853">
        <ele>53</ele>
        <time>2015-07-27T19:21:46Z</time>
      </trkpt>
      <trkpt lat="48.90817" lon="2.37844">
        <ele>52.79999923706</ele>
        <time>2015-07-27T19:21:48Z</time>
      </trkpt>
      <trkpt lat="48.9083" lon="2.37833">
        <ele>52.400001525879</ele>
        <time>2015-07-27T19:21:51Z</time>
      </trkpt>
      <trkpt lat="48.90853" lon="2.37822">
        <ele>51.599998474121</ele>
        <time>2015-07-27T19:21:58Z</time>
      </trkpt>
      <trkpt lat="48.90865" lon="2.37815">
        <ele>51.20000076294</ele>
        <time>2015-07-27T19:22:01Z</time>
      </trkpt>
      <trkpt lat="48.90867" lon="2.37813">
        <ele>51.20000076294</ele>
        <time>2015-07-27T19:22:02Z</time>
      </trkpt>
      <trkpt lat="48.9088" lon="2.37811">
        <ele>51</ele>
        <time>2015-07-27T19:22:08Z</time>
      </trkpt>
      <trkpt lat="48.90904" lon="2.37795">
        <ele>50.20000076294</ele>
        <time>2015-07-27T19:22:15Z</time>
      </trkpt>
      <trkpt lat="48.90918" lon="2.37793">
        <ele>49.79999923706</ele>
        <time>2015-07-27T19:22:18Z</time>
      </trkpt>
      <trkpt lat="48.90938" lon="2.37787">
        <ele>49.400001525879</ele>
        <time>2015-07-27T19:22:23Z</time>
      </trkpt>
      <trkpt lat="48.90963" lon="2.3778">
        <ele>49</ele>
        <time>2015-07-27T19:22:29Z</time>
      </trkpt>
      <trkpt lat="48.90985" lon="2.37775">
        <ele>48.79999923706</ele>
        <time>2015-07-27T19:22:34Z</time>
      </trkpt>
      <trkpt lat="48.91003" lon="2.37771">
        <ele>48.79999923706</ele>
        <time>2015-07-27T19:22:38Z</time>
      </trkpt>
      <trkpt lat="48.91025" lon="2.37765">
        <ele>48.599998474121</ele>
        <time>2015-07-27T19:22:43Z</time>
      </trkpt>
      <trkpt lat="48.91033" lon="2.37761">
        <ele>48.599998474121</ele>
        <time>2015-07-27T19:22:44Z</time>
      </trkpt>
      <trkpt lat="48.91041" lon="2.37756">
        <ele>48.599998474121</ele>
        <time>2015-07-27T19:22:46Z</time>
      </trkpt>
      <trkpt lat="48.91063" lon="2.37743">
        <ele>48.599998474121</ele>
        <time>2015-07-27T19:22:52Z</time>
      </trkpt>
      <trkpt lat="48.9108" lon="2.37733">
        <ele>48.599998474121</ele>
        <time>2015-07-27T19:22:56Z</time>
      </trkpt>
      <trkpt lat="48.9109" lon="2.37729">
        <ele>48.599998474121</ele>
        <time>2015-07-27T19:22:58Z</time>
      </trkpt>
      <trkpt lat="48.9111" lon="2.37718">
        <ele>48.599998474121</ele>
        <time>2015-07-27T19:23:02Z</time>
      </trkpt>
      <trkpt lat="48.9113" lon="2.37707">
        <ele>48.599998474121</ele>
        <time>2015-07-27T19:23:07Z</time>
      </trkpt>
      <trkpt lat="48.91134" lon="2.37706">
        <ele>48.599998474121</ele>
        <time>2015-07-27T19:23:08Z</time>
      </trkpt>
      <trkpt lat="48.91155" lon="2.37711">
        <ele>48.599998474121</ele>
        <time>2015-07-27T19:23:14Z</time>
      </trkpt>
      <trkpt lat="48.91163" lon="2.37713">
        <ele>48.599998474121</ele>
        <time>2015-07-27T19:23:16Z</time>
      </trkpt>
      <trkpt lat="48.91174" lon="2.37718">
        <ele>48.599998474121</ele>
        <time>2015-07-27T19:23:19Z</time>
      </trkpt>
      <trkpt lat="48.91185" lon="2.37725">
        <ele>48.599998474121</ele>
        <time>2015-07-27T19:23:21Z</time>
      </trkpt>
      <trkpt lat="48.91198" lon="2.37736">
        <ele>48.599998474121</ele>
        <time>2015-07-27T19:23:25Z</time>
      </trkpt>
      <trkpt lat="48.91215" lon="2.37752">
        <ele>48.599998474121</ele>
        <time>2015-07-27T19:23:30Z</time>
      </trkpt>
      <trkpt lat="48.91232" lon="2.37765">
        <ele>48.599998474121</ele>
        <time>2015-07-27T19:23:35Z</time>
      </trkpt>
      <trkpt lat="48.91249" lon="2.37779">
        <ele>48.599998474121</ele>
        <time>2015-07-27T19:23:38Z</time>
      </trkpt>
      <trkpt lat="48.91254" lon="2.37782">
        <ele>48.599998474121</ele>
        <time>2015-07-27T19:23:40Z</time>
      </trkpt>
      <trkpt lat="48.91263" lon="2.37789">
        <ele>48.599998474121</ele>
        <time>2015-07-27T19:23:41Z</time>
      </trkpt>
      <trkpt lat="48.91286" lon="2.378">
        <ele>48.599998474121</ele>
        <time>2015-07-27T19:23:46Z</time>
      </trkpt>
      <trkpt lat="48.91303" lon="2.37809">
        <ele>48.599998474121</ele>
        <time>2015-07-27T19:23:50Z</time>
      </trkpt>
      <trkpt lat="48.91322" lon="2.3782">
        <ele>48.599998474121</ele>
        <time>2015-07-27T19:23:54Z</time>
      </trkpt>
      <trkpt lat="48.91339" lon="2.37829">
        <ele>48.599998474121</ele>
        <time>2015-07-27T19:23:58Z</time>
      </trkpt>
      <trkpt lat="48.91357" lon="2.37836">
        <ele>47.79999923706</ele>
        <time>2015-07-27T19:24:01Z</time>
      </trkpt>
      <trkpt lat="48.91375" lon="2.37841">
        <ele>47.400001525879</ele>
        <time>2015-07-27T19:24:06Z</time>
      </trkpt>
      <trkpt lat="48.91388" lon="2.37843">
        <ele>47.20000076294</ele>
        <time>2015-07-27T19:24:09Z</time>
      </trkpt>
      <trkpt lat="48.91412" lon="2.37852">
        <ele>46.79999923706</ele>
        <time>2015-07-27T19:24:14Z</time>
      </trkpt>
      <trkpt lat="48.91415" lon="2.37852">
        <ele>46.79999923706</ele>
        <time>2015-07-27T19:24:15Z</time>
      </trkpt>
      <trkpt lat="48.91436" lon="2.37859">
        <ele>46.20000076294</ele>
        <time>2015-07-27T19:24:19Z</time>
      </trkpt>
      <trkpt lat="48.91454" lon="2.37863">
        <ele>45.599998474121</ele>
        <time>2015-07-27T19:24:23Z</time>
      </trkpt>
      <trkpt lat="48.91472" lon="2.37869">
        <ele>45.20000076294</ele>
        <time>2015-07-27T19:24:26Z</time>
      </trkpt>
      <trkpt lat="48.91492" lon="2.37871">
        <ele>45</ele>
        <time>2015-07-27T19:24:31Z</time>
      </trkpt>
      <trkpt lat="48.9151" lon="2.37875">
        <ele>44.79999923706</ele>
        <time>2015-07-27T19:24:35Z</time>
      </trkpt>
      <trkpt lat="48.91529" lon="2.37884">
        <ele>44.599998474121</ele>
        <time>2015-07-27T19:24:39Z</time>
      </trkpt>
      <trkpt lat="48.91539" lon="2.37887">
        <ele>44.599998474121</ele>
        <time>2015-07-27T19:24:41Z</time>
      </trkpt>
      <trkpt lat="48.91561" lon="2.37903">
        <ele>44.599998474121</ele>
        <time>2015-07-27T19:24:46Z</time>
      </trkpt>
      <trkpt lat="48.91565" lon="2.37905">
        <ele>44.599998474121</ele>
        <time>2015-07-27T19:24:47Z</time>
      </trkpt>
      <trkpt lat="48.91588" lon="2.37919">
        <ele>43.599998474121</ele>
        <time>2015-07-27T19:24:52Z</time>
      </trkpt>
      <trkpt lat="48.91607" lon="2.37931">
        <ele>43.20000076294</ele>
        <time>2015-07-27T19:24:56Z</time>
      </trkpt>
      <trkpt lat="48.91615" lon="2.37934">
        <ele>43</ele>
        <time>2015-07-27T19:24:59Z</time>
      </trkpt>
      <trkpt lat="48.91639" lon="2.37944">
        <ele>42.79999923706</ele>
        <time>2015-07-27T19:25:04Z</time>
      </trkpt>
      <trkpt lat="48.91645" lon="2.37946">
        <ele>42.79999923706</ele>
        <time>2015-07-27T19:25:05Z</time>
      </trkpt>
      <trkpt lat="48.91656" lon="2.37956">
        <ele>42.599998474121</ele>
        <time>2015-07-27T19:25:08Z</time>
      </trkpt>
      <trkpt lat="48.91668" lon="2.37965">
        <ele>42.599998474121</ele>
        <time>2015-07-27T19:25:11Z</time>
      </trkpt>
      <trkpt lat="48.91676" lon="2.3797">
        <ele>42.599998474121</ele>
        <time>2015-07-27T19:25:13Z</time>
      </trkpt>
      <trkpt lat="48.91694" lon="2.37974">
        <ele>42.400001525879</ele>
        <time>2015-07-27T19:25:20Z</time>
      </trkpt>
      <trkpt lat="48.91698" lon="2.37976">
        <ele>42.20000076294</ele>
        <time>2015-07-27T19:25:22Z</time>
      </trkpt>
      <trkpt lat="48.91707" lon="2.37983">
        <ele>41.599998474121</ele>
        <time>2015-07-27T19:25:25Z</time>
      </trkpt>
      <trkpt lat="48.91727" lon="2.37997">
        <ele>41</ele>
        <time>2015-07-27T19:25:31Z</time>
      </trkpt>
      <trkpt lat="48.91745" lon="2.38008">
        <ele>40.79999923706</ele>
        <time>2015-07-27T19:25:36Z</time>
      </trkpt>
      <trkpt lat="48.91762" lon="2.3802">
        <ele>40.599998474121</ele>
        <time>2015-07-27T19:25:41Z</time>
      </trkpt>
      <trkpt lat="48.91801" lon="2.3804">
        <ele>40.400001525879</ele>
        <time>2015-07-27T19:25:52Z</time>
      </trkpt>
      <trkpt lat="48.9182" lon="2.38048">
        <ele>40.400001525879</ele>
        <time>2015-07-27T19:25:56Z</time>
      </trkpt>
      <trkpt lat="48.9184" lon="2.38057">
        <ele>40.400001525879</ele>
        <time>2015-07-27T19:26:02Z</time>
      </trkpt>
      <trkpt lat="48.91852" lon="2.38061">
        <ele>40.400001525879</ele>
        <time>2015-07-27T19:26:05Z</time>
      </trkpt>
      <trkpt lat="48.91868" lon="2.38058">
        <ele>40.400001525879</ele>
        <time>2015-07-27T19:26:09Z</time>
      </trkpt>
      <trkpt lat="48.91893" lon="2.38046">
        <ele>40.400001525879</ele>
        <time>2015-07-27T19:26:15Z</time>
      </trkpt>
      <trkpt lat="48.91911" lon="2.38037">
        <ele>40.400001525879</ele>
        <time>2015-07-27T19:26:18Z</time>
      </trkpt>
      <trkpt lat="48.91931" lon="2.38027">
        <ele>40.400001525879</ele>
        <time>2015-07-27T19:26:22Z</time>
      </trkpt>
      <trkpt lat="48.91952" lon="2.38017">
        <ele>40.20000076294</ele>
        <time>2015-07-27T19:26:27Z</time>
      </trkpt>
      <trkpt lat="48.91968" lon="2.38011">
        <ele>39.599998474121</ele>
        <time>2015-07-27T19:26:30Z</time>
      </trkpt>
      <trkpt lat="48.91982" lon="2.38009">
        <ele>39.20000076294</ele>
        <time>2015-07-27T19:26:33Z</time>
      </trkpt>
      <trkpt lat="48.91994" lon="2.38019">
        <ele>38.79999923706</ele>
        <time>2015-07-27T19:26:37Z</time>
      </trkpt>
      <trkpt lat="48.92012" lon="2.38041">
        <ele>38.599998474121</ele>
        <time>2015-07-27T19:26:43Z</time>
      </trkpt>
      <trkpt lat="48.92029" lon="2.38059">
        <ele>38.400001525879</ele>
        <time>2015-07-27T19:26:49Z</time>
      </trkpt>
      <trkpt lat="48.92052" lon="2.38073">
        <ele>38.400001525879</ele>
        <time>2015-07-27T19:26:54Z</time>
      </trkpt>
      <trkpt lat="48.9206" lon="2.38075">
        <ele>38.400001525879</ele>
        <time>2015-07-27T19:26:56Z</time>
      </trkpt>
      <trkpt lat="48.92083" lon="2.38076">
        <ele>38.400001525879</ele>
        <time>2015-07-27T19:27:02Z</time>
      </trkpt>
      <trkpt lat="48.92103" lon="2.38073">
        <ele>38.400001525879</ele>
        <time>2015-07-27T19:27:07Z</time>
      </trkpt>
      <trkpt lat="48.92121" lon="2.3808">
        <ele>38.400001525879</ele>
        <time>2015-07-27T19:27:13Z</time>
      </trkpt>
      <trkpt lat="48.92135" lon="2.3809">
        <ele>38.400001525879</ele>
        <time>2015-07-27T19:27:18Z</time>
      </trkpt>
      <trkpt lat="48.92154" lon="2.38102">
        <ele>38.79999923706</ele>
        <time>2015-07-27T19:27:23Z</time>
      </trkpt>
      <trkpt lat="48.92171" lon="2.38113">
        <ele>39.400001525879</ele>
        <time>2015-07-27T19:27:26Z</time>
      </trkpt>
      <trkpt lat="48.9219" lon="2.38126">
        <ele>39.599998474121</ele>
        <time>2015-07-27T19:27:30Z</time>
      </trkpt>
      <trkpt lat="48.92209" lon="2.38141">
        <ele>40</ele>
        <time>2015-07-27T19:27:34Z</time>
      </trkpt>
      <trkpt lat="48.92224" lon="2.38153">
        <ele>40</ele>
        <time>2015-07-27T19:27:38Z</time>
      </trkpt>
      <trkpt lat="48.92234" lon="2.38167">
        <ele>40.20000076294</ele>
        <time>2015-07-27T19:27:42Z</time>
      </trkpt>
      <trkpt lat="48.92243" lon="2.38176">
        <ele>40.20000076294</ele>
        <time>2015-07-27T19:27:46Z</time>
      </trkpt>
      <trkpt lat="48.92258" lon="2.38173">
        <ele>40.20000076294</ele>
        <time>2015-07-27T19:27:53Z</time>
      </trkpt>
      <trkpt lat="48.92261" lon="2.38172">
        <ele>40.20000076294</ele>
        <time>2015-07-27T19:27:55Z</time>
      </trkpt>
      <trkpt lat="48.92266" lon="2.38165">
        <ele>40.20000076294</ele>
        <time>2015-07-27T19:27:59Z</time>
      </trkpt>
      <trkpt lat="48.92269" lon="2.38149">
        <ele>40.20000076294</ele>
        <time>2015-07-27T19:28:03Z</time>
      </trkpt>
      <trkpt lat="48.92283" lon="2.38132">
        <ele>40.20000076294</ele>
        <time>2015-07-27T19:28:09Z</time>
      </trkpt>
      <trkpt lat="48.92289" lon="2.38119">
        <ele>40.400001525879</ele>
        <time>2015-07-27T19:28:13Z</time>
      </trkpt>
      <trkpt lat="48.9229" lon="2.38115">
        <ele>40.400001525879</ele>
        <time>2015-07-27T19:28:14Z</time>
      </trkpt>
      <trkpt lat="48.92326" lon="2.38033">
        <ele>40.400001525879</ele>
        <time>2015-07-27T19:28:26Z</time>
      </trkpt>
      <trkpt lat="48.92341" lon="2.38035">
        <ele>40.400001525879</ele>
        <time>2015-07-27T19:28:29Z</time>
      </trkpt>
      <trkpt lat="48.92352" lon="2.38021">
        <ele>40.400001525879</ele>
        <time>2015-07-27T19:28:33Z</time>
      </trkpt>
      <trkpt lat="48.92364" lon="2.38008">
        <ele>40.400001525879</ele>
        <time>2015-07-27T19:28:37Z</time>
      </trkpt>
      <trkpt lat="48.92377" lon="2.37989">
        <ele>40.400001525879</ele>
        <time>2015-07-27T19:28:44Z</time>
      </trkpt>
      <trkpt lat="48.92385" lon="2.37976">
        <ele>40.400001525879</ele>
        <time>2015-07-27T19:28:48Z</time>
      </trkpt>
      <trkpt lat="48.92395" lon="2.37963">
        <ele>40.400001525879</ele>
        <time>2015-07-27T19:28:53Z</time>
      </trkpt>
      <trkpt lat="48.92405" lon="2.37948">
        <ele>40.400001525879</ele>
        <time>2015-07-27T19:28:58Z</time>
      </trkpt>
      <trkpt lat="48.9242" lon="2.37931">
        <ele>40.400001525879</ele>
        <time>2015-07-27T19:29:04Z</time>
      </trkpt>
      <trkpt lat="48.92433" lon="2.37917">
        <ele>40.400001525879</ele>
        <time>2015-07-27T19:29:09Z</time>
      </trkpt>
      <trkpt lat="48.92443" lon="2.37905">
        <ele>40.400001525879</ele>
        <time>2015-07-27T19:29:13Z</time>
      </trkpt>
      <trkpt lat="48.92454" lon="2.37892">
        <ele>40.400001525879</ele>
        <time>2015-07-27T19:29:17Z</time>
      </trkpt>
      <trkpt lat="48.92459" lon="2.37887">
        <ele>40.400001525879</ele>
        <time>2015-07-27T19:29:19Z</time>
      </trkpt>
      <trkpt lat="48.92466" lon="2.37879">
        <ele>40.400001525879</ele>
        <time>2015-07-27T19:29:23Z</time>
      </trkpt>
      <trkpt lat="48.92466" lon="2.3787">
        <ele>40.400001525879</ele>
        <time>2015-07-27T19:29:29Z</time>
      </trkpt>
      <trkpt lat="48.92466" lon="2.37861">
        <ele>40.400001525879</ele>
        <time>2015-07-27T19:29:35Z</time>
      </trkpt>
      <trkpt lat="48.92465" lon="2.37856">
        <ele>40.400001525879</ele>
        <time>2015-07-27T19:29:37Z</time>
      </trkpt>
      <trkpt lat="48.92472" lon="2.37848">
        <ele>40.400001525879</ele>
        <time>2015-07-27T19:29:41Z</time>
      </trkpt>
      <trkpt lat="48.92475" lon="2.37845">
        <ele>40.400001525879</ele>
        <time>2015-07-27T19:29:43Z</time>
      </trkpt>
      <trkpt lat="48.92492" lon="2.37834">
        <ele>40.400001525879</ele>
        <time>2015-07-27T19:29:50Z</time>
      </trkpt>
      <trkpt lat="48.92493" lon="2.37832">
        <ele>40.400001525879</ele>
        <time>2015-07-27T19:29:51Z</time>
      </trkpt>
      <trkpt lat="48.92498" lon="2.37822">
        <ele>40.400001525879</ele>
        <time>2015-07-27T19:29:55Z</time>
      </trkpt>
      <trkpt lat="48.92499" lon="2.3782">
        <ele>40.400001525879</ele>
        <time>2015-07-27T19:29:56Z</time>
      </trkpt>
      <trkpt lat="48.92511" lon="2.37806">
        <ele>40.400001525879</ele>
        <time>2015-07-27T19:30:01Z</time>
      </trkpt>
      <trkpt lat="48.92522" lon="2.37793">
        <ele>40.400001525879</ele>
        <time>2015-07-27T19:30:06Z</time>
      </trkpt>
      <trkpt lat="48.92529" lon="2.37792">
        <ele>40.400001525879</ele>
        <time>2015-07-27T19:30:10Z</time>
      </trkpt>
      <trkpt lat="48.92542" lon="2.37794">
        <ele>40.400001525879</ele>
        <time>2015-07-27T19:30:15Z</time>
      </trkpt>
      <trkpt lat="48.92556" lon="2.37782">
        <ele>40.400001525879</ele>
        <time>2015-07-27T19:30:19Z</time>
      </trkpt>
      <trkpt lat="48.92562" lon="2.37771">
        <ele>40.400001525879</ele>
        <time>2015-07-27T19:30:21Z</time>
      </trkpt>
      <trkpt lat="48.92577" lon="2.3775">
        <ele>40.400001525879</ele>
        <time>2015-07-27T19:30:25Z</time>
      </trkpt>
      <trkpt lat="48.9259" lon="2.37733">
        <ele>40.400001525879</ele>
        <time>2015-07-27T19:30:31Z</time>
      </trkpt>
      <trkpt lat="48.92591" lon="2.37726">
        <ele>40.400001525879</ele>
        <time>2015-07-27T19:30:34Z</time>
      </trkpt>
      <trkpt lat="48.92591" lon="2.37724">
        <ele>40.400001525879</ele>
        <time>2015-07-27T19:30:35Z</time>
      </trkpt>
      <trkpt lat="48.92591" lon="2.37729">
        <ele>40.400001525879</ele>
        <time>2015-07-27T19:30:46Z</time>
      </trkpt>
      <trkpt lat="48.92594" lon="2.37731">
        <ele>40.400001525879</ele>
        <time>2015-07-27T19:31:03Z</time>
      </trkpt>
      <trkpt lat="48.92595" lon="2.37734">
        <ele>40.400001525879</ele>
        <time>2015-07-27T19:31:04Z</time>
      </trkpt>
      <trkpt lat="48.92595" lon="2.37734">
        <ele>40.400001525879</ele>
        <time>2015-07-27T19:31:07Z</time>
      </trkpt>
      <trkpt lat="48.92595" lon="2.37734">
        <ele>40.400001525879</ele>
        <time>2015-07-27T19:31:18Z</time>
      </trkpt>
      <trkpt lat="48.92596" lon="2.37732">
        <ele>40.400001525879</ele>
        <time>2015-07-27T19:31:35Z</time>
      </trkpt>
      <trkpt lat="48.92607" lon="2.3772">
        <ele>40.400001525879</ele>
        <time>2015-07-27T19:31:41Z</time>
      </trkpt>
      <trkpt lat="48.92631" lon="2.37684">
        <ele>40.400001525879</ele>
        <time>2015-07-27T19:31:51Z</time>
      </trkpt>
      <trkpt lat="48.92648" lon="2.37663">
        <ele>40.400001525879</ele>
        <time>2015-07-27T19:31:56Z</time>
      </trkpt>
      <trkpt lat="48.92662" lon="2.37649">
        <ele>40.400001525879</ele>
        <time>2015-07-27T19:32:01Z</time>
      </trkpt>
      <trkpt lat="48.92683" lon="2.37627">
        <ele>40.400001525879</ele>
        <time>2015-07-27T19:32:06Z</time>
      </trkpt>
      <trkpt lat="48.927" lon="2.37607">
        <ele>40.400001525879</ele>
        <time>2015-07-27T19:32:11Z</time>
      </trkpt>
      <trkpt lat="48.92714" lon="2.37589">
        <ele>40.400001525879</ele>
        <time>2015-07-27T19:32:16Z</time>
      </trkpt>
      <trkpt lat="48.92726" lon="2.37573">
        <ele>40.400001525879</ele>
        <time>2015-07-27T19:32:19Z</time>
      </trkpt>
      <trkpt lat="48.92744" lon="2.37557">
        <ele>40.400001525879</ele>
        <time>2015-07-27T19:32:25Z</time>
      </trkpt>
      <trkpt lat="48.92756" lon="2.37536">
        <ele>40.400001525879</ele>
        <time>2015-07-27T19:32:31Z</time>
      </trkpt>
      <trkpt lat="48.92769" lon="2.37515">
        <ele>40.400001525879</ele>
        <time>2015-07-27T19:32:36Z</time>
      </trkpt>
      <trkpt lat="48.92771" lon="2.37495">
        <ele>40.400001525879</ele>
        <time>2015-07-27T19:32:40Z</time>
      </trkpt>
      <trkpt lat="48.92775" lon="2.3747">
        <ele>40.400001525879</ele>
        <time>2015-07-27T19:32:45Z</time>
      </trkpt>
      <trkpt lat="48.92782" lon="2.37453">
        <ele>40.400001525879</ele>
        <time>2015-07-27T19:32:48Z</time>
      </trkpt>
      <trkpt lat="48.92784" lon="2.37446">
        <ele>40.400001525879</ele>
        <time>2015-07-27T19:32:50Z</time>
      </trkpt>
      <trkpt lat="48.92786" lon="2.37433">
        <ele>40.400001525879</ele>
        <time>2015-07-27T19:32:55Z</time>
      </trkpt>
      <trkpt lat="48.92787" lon="2.37426">
        <ele>40.400001525879</ele>
        <time>2015-07-27T19:33:00Z</time>
      </trkpt>
      <trkpt lat="48.92792" lon="2.37407">
        <ele>40.400001525879</ele>
        <time>2015-07-27T19:33:04Z</time>
      </trkpt>
      <trkpt lat="48.92794" lon="2.37401">
        <ele>40.400001525879</ele>
        <time>2015-07-27T19:33:05Z</time>
      </trkpt>
      <trkpt lat="48.92801" lon="2.3737">
        <ele>40.400001525879</ele>
        <time>2015-07-27T19:33:09Z</time>
      </trkpt>
      <trkpt lat="48.92805" lon="2.37353">
        <ele>40.400001525879</ele>
        <time>2015-07-27T19:33:11Z</time>
      </trkpt>
      <trkpt lat="48.92817" lon="2.37319">
        <ele>40.400001525879</ele>
        <time>2015-07-27T19:33:15Z</time>
      </trkpt>
      <trkpt lat="48.92819" lon="2.3731">
        <ele>40.400001525879</ele>
        <time>2015-07-27T19:33:16Z</time>
      </trkpt>
      <trkpt lat="48.92829" lon="2.37273">
        <ele>40.400001525879</ele>
        <time>2015-07-27T19:33:19Z</time>
      </trkpt>
      <trkpt lat="48.92836" lon="2.37244">
        <ele>40.400001525879</ele>
        <time>2015-07-27T19:33:23Z</time>
      </trkpt>
      <trkpt lat="48.92844" lon="2.37217">
        <ele>40.20000076294</ele>
        <time>2015-07-27T19:33:25Z</time>
      </trkpt>
      <trkpt lat="48.92851" lon="2.3719">
        <ele>39.599998474121</ele>
        <time>2015-07-27T19:33:29Z</time>
      </trkpt>
      <trkpt lat="48.92854" lon="2.37181">
        <ele>39.400001525879</ele>
        <time>2015-07-27T19:33:30Z</time>
      </trkpt>
      <trkpt lat="48.92866" lon="2.37148">
        <ele>39</ele>
        <time>2015-07-27T19:33:34Z</time>
      </trkpt>
      <trkpt lat="48.92874" lon="2.37123">
        <ele>38.79999923706</ele>
        <time>2015-07-27T19:33:36Z</time>
      </trkpt>
      <trkpt lat="48.92884" lon="2.37096">
        <ele>38.79999923706</ele>
        <time>2015-07-27T19:33:40Z</time>
      </trkpt>
      <trkpt lat="48.92894" lon="2.3707">
        <ele>38.599998474121</ele>
        <time>2015-07-27T19:33:43Z</time>
      </trkpt>
      <trkpt lat="48.92903" lon="2.37044">
        <ele>38.599998474121</ele>
        <time>2015-07-27T19:33:46Z</time>
      </trkpt>
      <trkpt lat="48.92914" lon="2.37016">
        <ele>38.400001525879</ele>
        <time>2015-07-27T19:33:51Z</time>
      </trkpt>
      <trkpt lat="48.92923" lon="2.36991">
        <ele>38.400001525879</ele>
        <time>2015-07-27T19:33:55Z</time>
      </trkpt>
      <trkpt lat="48.92934" lon="2.36961">
        <ele>38.400001525879</ele>
        <time>2015-07-27T19:34:00Z</time>
      </trkpt>
      <trkpt lat="48.92938" lon="2.3695">
        <ele>38.400001525879</ele>
        <time>2015-07-27T19:34:01Z</time>
      </trkpt>
      <trkpt lat="48.92951" lon="2.36914">
        <ele>38.400001525879</ele>
        <time>2015-07-27T19:34:08Z</time>
      </trkpt>
      <trkpt lat="48.92959" lon="2.36888">
        <ele>38.400001525879</ele>
        <time>2015-07-27T19:34:11Z</time>
      </trkpt>
      <trkpt lat="48.92962" lon="2.36881">
        <ele>38.400001525879</ele>
        <time>2015-07-27T19:34:13Z</time>
      </trkpt>
      <trkpt lat="48.9297" lon="2.3686">
        <ele>38.400001525879</ele>
        <time>2015-07-27T19:34:16Z</time>
      </trkpt>
      <trkpt lat="48.92979" lon="2.36832">
        <ele>38.400001525879</ele>
        <time>2015-07-27T19:34:19Z</time>
      </trkpt>
      <trkpt lat="48.92988" lon="2.36805">
        <ele>38.400001525879</ele>
        <time>2015-07-27T19:34:24Z</time>
      </trkpt>
      <trkpt lat="48.92998" lon="2.36779">
        <ele>38.400001525879</ele>
        <time>2015-07-27T19:34:28Z</time>
      </trkpt>
      <trkpt lat="48.93007" lon="2.36754">
        <ele>37.599998474121</ele>
        <time>2015-07-27T19:34:32Z</time>
      </trkpt>
      <trkpt lat="48.9301" lon="2.36749">
        <ele>37.400001525879</ele>
        <time>2015-07-27T19:34:33Z</time>
      </trkpt>
      <trkpt lat="48.93018" lon="2.36748">
        <ele>37.20000076294</ele>
        <time>2015-07-27T19:34:36Z</time>
      </trkpt>
      <trkpt lat="48.9302" lon="2.36748">
        <ele>36.79999923706</ele>
        <time>2015-07-27T19:34:40Z</time>
      </trkpt>
      <trkpt lat="48.93021" lon="2.3673">
        <ele>36.400001525879</ele>
        <time>2015-07-27T19:34:55Z</time>
      </trkpt>
      <trkpt lat="48.9302" lon="2.36706">
        <ele>36.400001525879</ele>
        <time>2015-07-27T19:35:00Z</time>
      </trkpt>
      <trkpt lat="48.93017" lon="2.36677">
        <ele>36.20000076294</ele>
        <time>2015-07-27T19:35:05Z</time>
      </trkpt>
      <trkpt lat="48.93014" lon="2.36644">
        <ele>36.20000076294</ele>
        <time>2015-07-27T19:35:10Z</time>
      </trkpt>
      <trkpt lat="48.93011" lon="2.36611">
        <ele>36.20000076294</ele>
        <time>2015-07-27T19:35:15Z</time>
      </trkpt>
      <trkpt lat="48.93008" lon="2.36581">
        <ele>36.20000076294</ele>
        <time>2015-07-27T19:35:21Z</time>
      </trkpt>
      <trkpt lat="48.93007" lon="2.36573">
        <ele>36.20000076294</ele>
        <time>2015-07-27T19:35:23Z</time>
      </trkpt>
      <trkpt lat="48.93009" lon="2.36568">
        <ele>36.20000076294</ele>
        <time>2015-07-27T19:35:25Z</time>
      </trkpt>
      <trkpt lat="48.93015" lon="2.36565">
        <ele>36.20000076294</ele>
        <time>2015-07-27T19:35:30Z</time>
      </trkpt>
      <trkpt lat="48.93017" lon="2.36556">
        <ele>36.20000076294</ele>
        <time>2015-07-27T19:35:33Z</time>
      </trkpt>
      <trkpt lat="48.93027" lon="2.36544">
        <ele>36.20000076294</ele>
        <time>2015-07-27T19:35:38Z</time>
      </trkpt>
      <trkpt lat="48.93038" lon="2.36546">
        <ele>36.20000076294</ele>
        <time>2015-07-27T19:35:42Z</time>
      </trkpt>
      <trkpt lat="48.9305" lon="2.36534">
        <ele>36.20000076294</ele>
        <time>2015-07-27T19:35:47Z</time>
      </trkpt>
      <trkpt lat="48.93054" lon="2.36526">
        <ele>36.20000076294</ele>
        <time>2015-07-27T19:35:50Z</time>
      </trkpt>
      <trkpt lat="48.93067" lon="2.36512">
        <ele>36.20000076294</ele>
        <time>2015-07-27T19:35:54Z</time>
      </trkpt>
      <trkpt lat="48.93073" lon="2.36505">
        <ele>36.20000076294</ele>
        <time>2015-07-27T19:35:55Z</time>
      </trkpt>
      <trkpt lat="48.93093" lon="2.36482">
        <ele>36.20000076294</ele>
        <time>2015-07-27T19:36:01Z</time>
      </trkpt>
      <trkpt lat="48.93096" lon="2.36479">
        <ele>36.20000076294</ele>
        <time>2015-07-27T19:36:03Z</time>
      </trkpt>
      <trkpt lat="48.93113" lon="2.36464">
        <ele>36.20000076294</ele>
        <time>2015-07-27T19:36:07Z</time>
      </trkpt>
      <trkpt lat="48.9313" lon="2.36449">
        <ele>36.20000076294</ele>
        <time>2015-07-27T19:36:13Z</time>
      </trkpt>
      <trkpt lat="48.93144" lon="2.36438">
        <ele>36.20000076294</ele>
        <time>2015-07-27T19:36:18Z</time>
      </trkpt>
      <trkpt lat="48.93145" lon="2.36437">
        <ele>36.20000076294</ele>
        <time>2015-07-27T19:36:19Z</time>
      </trkpt>
      <trkpt lat="48.93147" lon="2.36438">
        <ele>36.20000076294</ele>
        <time>2015-07-27T19:36:21Z</time>
      </trkpt>
      <trkpt lat="48.93153" lon="2.36437">
        <ele>36.79999923706</ele>
        <time>2015-07-27T19:36:26Z</time>
      </trkpt>
      <trkpt lat="48.93153" lon="2.36437">
        <ele>37</ele>
        <time>2015-07-27T19:36:28Z</time>
      </trkpt>
      <trkpt lat="48.93152" lon="2.36432">
        <ele>37.79999923706</ele>
        <time>2015-07-27T19:36:37Z</time>
      </trkpt>
      <trkpt lat="48.93153" lon="2.36426">
        <ele>38</ele>
        <time>2015-07-27T19:36:43Z</time>
      </trkpt>
      <trkpt lat="48.93153" lon="2.36409">
        <ele>38.20000076294</ele>
        <time>2015-07-27T19:36:48Z</time>
      </trkpt>
      <trkpt lat="48.93151" lon="2.36407">
        <ele>38.20000076294</ele>
        <time>2015-07-27T19:36:49Z</time>
      </trkpt>
      <trkpt lat="48.93144" lon="2.3639">
        <ele>38.20000076294</ele>
        <time>2015-07-27T19:36:54Z</time>
      </trkpt>
      <trkpt lat="48.93133" lon="2.36376">
        <ele>38.20000076294</ele>
        <time>2015-07-27T19:36:58Z</time>
      </trkpt>
      <trkpt lat="48.93117" lon="2.36357">
        <ele>38.20000076294</ele>
        <time>2015-07-27T19:37:03Z</time>
      </trkpt>
      <trkpt lat="48.93104" lon="2.36344">
        <ele>38.20000076294</ele>
        <time>2015-07-27T19:37:06Z</time>
      </trkpt>
      <trkpt lat="48.93089" lon="2.36324">
        <ele>38.20000076294</ele>
        <time>2015-07-27T19:37:11Z</time>
      </trkpt>
      <trkpt lat="48.9308" lon="2.3631">
        <ele>38.20000076294</ele>
        <time>2015-07-27T19:37:15Z</time>
      </trkpt>
      <trkpt lat="48.93067" lon="2.36293">
        <ele>38.20000076294</ele>
        <time>2015-07-27T19:37:19Z</time>
      </trkpt>
      <trkpt lat="48.93061" lon="2.36285">
        <ele>38.20000076294</ele>
        <time>2015-07-27T19:37:21Z</time>
      </trkpt>
      <trkpt lat="48.93043" lon="2.36261">
        <ele>39.20000076294</ele>
        <time>2015-07-27T19:37:27Z</time>
      </trkpt>
      <trkpt lat="48.93028" lon="2.36239">
        <ele>39.79999923706</ele>
        <time>2015-07-27T19:37:31Z</time>
      </trkpt>
      <trkpt lat="48.93012" lon="2.36216">
        <ele>40</ele>
        <time>2015-07-27T19:37:36Z</time>
      </trkpt>
      <trkpt lat="48.93006" lon="2.36208">
        <ele>40</ele>
        <time>2015-07-27T19:37:39Z</time>
      </trkpt>
      <trkpt lat="48.92984" lon="2.36159">
        <ele>40.20000076294</ele>
        <time>2015-07-27T19:37:49Z</time>
      </trkpt>
      <trkpt lat="48.9298" lon="2.36136">
        <ele>40.20000076294</ele>
        <time>2015-07-27T19:37:53Z</time>
      </trkpt>
      <trkpt lat="48.92981" lon="2.36117">
        <ele>40.20000076294</ele>
        <time>2015-07-27T19:37:55Z</time>
      </trkpt>
      <trkpt lat="48.92981" lon="2.36103">
        <ele>40.400001525879</ele>
        <time>2015-07-27T19:37:58Z</time>
      </trkpt>
      <trkpt lat="48.92973" lon="2.3607">
        <ele>40.400001525879</ele>
        <time>2015-07-27T19:38:03Z</time>
      </trkpt>
      <trkpt lat="48.92973" lon="2.36054">
        <ele>40.400001525879</ele>
        <time>2015-07-27T19:38:05Z</time>
      </trkpt>
      <trkpt lat="48.92973" lon="2.36039">
        <ele>40.400001525879</ele>
        <time>2015-07-27T19:38:07Z</time>
      </trkpt>
      <trkpt lat="48.92974" lon="2.36002">
        <ele>40.400001525879</ele>
        <time>2015-07-27T19:38:11Z</time>
      </trkpt>
      <trkpt lat="48.92975" lon="2.35978">
        <ele>40.400001525879</ele>
        <time>2015-07-27T19:38:15Z</time>
      </trkpt>
      <trkpt lat="48.92974" lon="2.35955">
        <ele>40.400001525879</ele>
        <time>2015-07-27T19:38:18Z</time>
      </trkpt>
      <trkpt lat="48.92972" lon="2.35941">
        <ele>40.400001525879</ele>
        <time>2015-07-27T19:38:19Z</time>
      </trkpt>
      <trkpt lat="48.92972" lon="2.35905">
        <ele>40.400001525879</ele>
        <time>2015-07-27T19:38:25Z</time>
      </trkpt>
      <trkpt lat="48.92972" lon="2.35876">
        <ele>40.400001525879</ele>
        <time>2015-07-27T19:38:30Z</time>
      </trkpt>
      <trkpt lat="48.92972" lon="2.35865">
        <ele>40.400001525879</ele>
        <time>2015-07-27T19:38:31Z</time>
      </trkpt>
      <trkpt lat="48.92973" lon="2.35832">
        <ele>40.400001525879</ele>
        <time>2015-07-27T19:38:38Z</time>
      </trkpt>
      <trkpt lat="48.92971" lon="2.35805">
        <ele>40.400001525879</ele>
        <time>2015-07-27T19:38:43Z</time>
      </trkpt>
      <trkpt lat="48.92969" lon="2.35773">
        <ele>40.400001525879</ele>
        <time>2015-07-27T19:38:49Z</time>
      </trkpt>
      <trkpt lat="48.92969" lon="2.35746">
        <ele>40.400001525879</ele>
        <time>2015-07-27T19:38:54Z</time>
      </trkpt>
      <trkpt lat="48.92969" lon="2.3572">
        <ele>40.400001525879</ele>
        <time>2015-07-27T19:39:00Z</time>
      </trkpt>
      <trkpt lat="48.92969" lon="2.35698">
        <ele>40.400001525879</ele>
        <time>2015-07-27T19:39:06Z</time>
      </trkpt>
      <trkpt lat="48.92969" lon="2.35687">
        <ele>40.400001525879</ele>
        <time>2015-07-27T19:39:09Z</time>
      </trkpt>
      <trkpt lat="48.92973" lon="2.35669">
        <ele>40.400001525879</ele>
        <time>2015-07-27T19:39:15Z</time>
      </trkpt>
      <trkpt lat="48.92972" lon="2.35664">
        <ele>40.400001525879</ele>
        <time>2015-07-27T19:39:16Z</time>
      </trkpt>
      <trkpt lat="48.9296" lon="2.35646">
        <ele>40.400001525879</ele>
        <time>2015-07-27T19:39:23Z</time>
      </trkpt>
      <trkpt lat="48.92945" lon="2.35645">
        <ele>40.400001525879</ele>
        <time>2015-07-27T19:39:28Z</time>
      </trkpt>
      <trkpt lat="48.92925" lon="2.35647">
        <ele>40.400001525879</ele>
        <time>2015-07-27T19:39:33Z</time>
      </trkpt>
      <trkpt lat="48.92904" lon="2.35647">
        <ele>40.79999923706</ele>
        <time>2015-07-27T19:39:39Z</time>
      </trkpt>
      <trkpt lat="48.92886" lon="2.35645">
        <ele>41.400001525879</ele>
        <time>2015-07-27T19:39:43Z</time>
      </trkpt>
      <trkpt lat="48.92867" lon="2.35645">
        <ele>41.79999923706</ele>
        <time>2015-07-27T19:39:49Z</time>
      </trkpt>
      <trkpt lat="48.92849" lon="2.35647">
        <ele>42</ele>
        <time>2015-07-27T19:39:55Z</time>
      </trkpt>
      <trkpt lat="48.92831" lon="2.35649">
        <ele>42.20000076294</ele>
        <time>2015-07-27T19:40:00Z</time>
      </trkpt>
      <trkpt lat="48.9281" lon="2.3565">
        <ele>42.20000076294</ele>
        <time>2015-07-27T19:40:06Z</time>
      </trkpt>
      <trkpt lat="48.92791" lon="2.35654">
        <ele>42.400001525879</ele>
        <time>2015-07-27T19:40:11Z</time>
      </trkpt>
      <trkpt lat="48.92778" lon="2.35656">
        <ele>42.400001525879</ele>
        <time>2015-07-27T19:40:15Z</time>
      </trkpt>
      <trkpt lat="48.92757" lon="2.35657">
        <ele>42.400001525879</ele>
        <time>2015-07-27T19:40:21Z</time>
      </trkpt>
      <trkpt lat="48.92737" lon="2.35657">
        <ele>42.400001525879</ele>
        <time>2015-07-27T19:40:26Z</time>
      </trkpt>
      <trkpt lat="48.92716" lon="2.35657">
        <ele>42.400001525879</ele>
        <time>2015-07-27T19:40:31Z</time>
      </trkpt>
      <trkpt lat="48.92697" lon="2.35657">
        <ele>42.400001525879</ele>
        <time>2015-07-27T19:40:35Z</time>
      </trkpt>
      <trkpt lat="48.92678" lon="2.35654">
        <ele>42.400001525879</ele>
        <time>2015-07-27T19:40:40Z</time>
      </trkpt>
      <trkpt lat="48.9267" lon="2.35652">
        <ele>42.400001525879</ele>
        <time>2015-07-27T19:40:42Z</time>
      </trkpt>
      <trkpt lat="48.92643" lon="2.35644">
        <ele>42.400001525879</ele>
        <time>2015-07-27T19:40:48Z</time>
      </trkpt>
      <trkpt lat="48.92639" lon="2.35645">
        <ele>42.400001525879</ele>
        <time>2015-07-27T19:40:49Z</time>
      </trkpt>
      <trkpt lat="48.92631" lon="2.35647">
        <ele>42.400001525879</ele>
        <time>2015-07-27T19:40:51Z</time>
      </trkpt>
      <trkpt lat="48.92624" lon="2.35647">
        <ele>42.400001525879</ele>
        <time>2015-07-27T19:40:55Z</time>
      </trkpt>
      <trkpt lat="48.92623" lon="2.35647">
        <ele>42.400001525879</ele>
        <time>2015-07-27T19:40:56Z</time>
      </trkpt>
      <trkpt lat="48.92622" lon="2.35653">
        <ele>42.400001525879</ele>
        <time>2015-07-27T19:41:09Z</time>
      </trkpt>
      <trkpt lat="48.92614" lon="2.35652">
        <ele>42.400001525879</ele>
        <time>2015-07-27T19:41:27Z</time>
      </trkpt>
      <trkpt lat="48.92601" lon="2.35649">
        <ele>42.400001525879</ele>
        <time>2015-07-27T19:41:32Z</time>
      </trkpt>
      <trkpt lat="48.92588" lon="2.35648">
        <ele>42.400001525879</ele>
        <time>2015-07-27T19:41:37Z</time>
      </trkpt>
      <trkpt lat="48.92586" lon="2.35647">
        <ele>42.400001525879</ele>
        <time>2015-07-27T19:41:38Z</time>
      </trkpt>
      <trkpt lat="48.92573" lon="2.35653">
        <ele>42.400001525879</ele>
        <time>2015-07-27T19:41:42Z</time>
      </trkpt>
      <trkpt lat="48.92564" lon="2.35654">
        <ele>42.400001525879</ele>
        <time>2015-07-27T19:41:45Z</time>
      </trkpt>
      <trkpt lat="48.92544" lon="2.35655">
        <ele>42.400001525879</ele>
        <time>2015-07-27T19:41:51Z</time>
      </trkpt>
      <trkpt lat="48.92524" lon="2.35658">
        <ele>42.400001525879</ele>
        <time>2015-07-27T19:41:57Z</time>
      </trkpt>
      <trkpt lat="48.92508" lon="2.3566">
        <ele>42.400001525879</ele>
        <time>2015-07-27T19:42:02Z</time>
      </trkpt>
      <trkpt lat="48.92488" lon="2.35662">
        <ele>42.400001525879</ele>
        <time>2015-07-27T19:42:08Z</time>
      </trkpt>
      <trkpt lat="48.92468" lon="2.35664">
        <ele>42.400001525879</ele>
        <time>2015-07-27T19:42:13Z</time>
      </trkpt>
      <trkpt lat="48.92449" lon="2.35665">
        <ele>42.400001525879</ele>
        <time>2015-07-27T19:42:18Z</time>
      </trkpt>
      <trkpt lat="48.92432" lon="2.35667">
        <ele>42.400001525879</ele>
        <time>2015-07-27T19:42:22Z</time>
      </trkpt>
      <trkpt lat="48.92413" lon="2.35668">
        <ele>42.400001525879</ele>
        <time>2015-07-27T19:42:26Z</time>
      </trkpt>
      <trkpt lat="48.92393" lon="2.35668">
        <ele>42.400001525879</ele>
        <time>2015-07-27T19:42:30Z</time>
      </trkpt>
      <trkpt lat="48.92385" lon="2.35668">
        <ele>42.400001525879</ele>
        <time>2015-07-27T19:42:32Z</time>
      </trkpt>
      <trkpt lat="48.92374" lon="2.35668">
        <ele>42.400001525879</ele>
        <time>2015-07-27T19:42:35Z</time>
      </trkpt>
      <trkpt lat="48.92349" lon="2.35673">
        <ele>42.400001525879</ele>
        <time>2015-07-27T19:42:41Z</time>
      </trkpt>
      <trkpt lat="48.92345" lon="2.35673">
        <ele>42.400001525879</ele>
        <time>2015-07-27T19:42:42Z</time>
      </trkpt>
      <trkpt lat="48.92326" lon="2.35676">
        <ele>42.400001525879</ele>
        <time>2015-07-27T19:42:46Z</time>
      </trkpt>
      <trkpt lat="48.92317" lon="2.35676">
        <ele>42.400001525879</ele>
        <time>2015-07-27T19:42:49Z</time>
      </trkpt>
      <trkpt lat="48.92303" lon="2.35677">
        <ele>42.400001525879</ele>
        <time>2015-07-27T19:42:54Z</time>
      </trkpt>
      <trkpt lat="48.92286" lon="2.35678">
        <ele>42.400001525879</ele>
        <time>2015-07-27T19:42:59Z</time>
      </trkpt>
      <trkpt lat="48.92267" lon="2.3568">
        <ele>42.400001525879</ele>
        <time>2015-07-27T19:43:04Z</time>
      </trkpt>
      <trkpt lat="48.92255" lon="2.35684">
        <ele>42.400001525879</ele>
        <time>2015-07-27T19:43:08Z</time>
      </trkpt>
      <trkpt lat="48.92241" lon="2.35693">
        <ele>42.400001525879</ele>
        <time>2015-07-27T19:43:13Z</time>
      </trkpt>
      <trkpt lat="48.92223" lon="2.35699">
        <ele>42.400001525879</ele>
        <time>2015-07-27T19:43:17Z</time>
      </trkpt>
      <trkpt lat="48.92214" lon="2.357">
        <ele>42.400001525879</ele>
        <time>2015-07-27T19:43:19Z</time>
      </trkpt>
      <trkpt lat="48.92197" lon="2.35691">
        <ele>42.400001525879</ele>
        <time>2015-07-27T19:43:23Z</time>
      </trkpt>
      <trkpt lat="48.92178" lon="2.35689">
        <ele>43</ele>
        <time>2015-07-27T19:43:26Z</time>
      </trkpt>
      <trkpt lat="48.92173" lon="2.3569">
        <ele>43</ele>
        <time>2015-07-27T19:43:28Z</time>
      </trkpt>
      <trkpt lat="48.92155" lon="2.35694">
        <ele>43.599998474121</ele>
        <time>2015-07-27T19:43:31Z</time>
      </trkpt>
      <trkpt lat="48.92121" lon="2.35703">
        <ele>44.20000076294</ele>
        <time>2015-07-27T19:43:39Z</time>
      </trkpt>
      <trkpt lat="48.92116" lon="2.35705">
        <ele>44.400001525879</ele>
        <time>2015-07-27T19:43:40Z</time>
      </trkpt>
      <trkpt lat="48.92108" lon="2.35708">
        <ele>44.79999923706</ele>
        <time>2015-07-27T19:43:41Z</time>
      </trkpt>
      <trkpt lat="48.92088" lon="2.35714">
        <ele>45.599998474121</ele>
        <time>2015-07-27T19:43:46Z</time>
      </trkpt>
      <trkpt lat="48.92083" lon="2.35714">
        <ele>46</ele>
        <time>2015-07-27T19:43:48Z</time>
      </trkpt>
      <trkpt lat="48.92063" lon="2.35718">
        <ele>47</ele>
        <time>2015-07-27T19:43:53Z</time>
      </trkpt>
      <trkpt lat="48.92042" lon="2.35719">
        <ele>47.79999923706</ele>
        <time>2015-07-27T19:43:58Z</time>
      </trkpt>
      <trkpt lat="48.92021" lon="2.35719">
        <ele>48</ele>
        <time>2015-07-27T19:44:03Z</time>
      </trkpt>
      <trkpt lat="48.92" lon="2.35718">
        <ele>48.400001525879</ele>
        <time>2015-07-27T19:44:08Z</time>
      </trkpt>
      <trkpt lat="48.91978" lon="2.35719">
        <ele>48.400001525879</ele>
        <time>2015-07-27T19:44:13Z</time>
      </trkpt>
      <trkpt lat="48.91958" lon="2.3572">
        <ele>48.599998474121</ele>
        <time>2015-07-27T19:44:17Z</time>
      </trkpt>
      <trkpt lat="48.91938" lon="2.35722">
        <ele>48.599998474121</ele>
        <time>2015-07-27T19:44:21Z</time>
      </trkpt>
      <trkpt lat="48.91929" lon="2.35723">
        <ele>48.599998474121</ele>
        <time>2015-07-27T19:44:23Z</time>
      </trkpt>
      <trkpt lat="48.91917" lon="2.35722">
        <ele>48.599998474121</ele>
        <time>2015-07-27T19:44:27Z</time>
      </trkpt>
      <trkpt lat="48.91896" lon="2.35722">
        <ele>48.599998474121</ele>
        <time>2015-07-27T19:44:33Z</time>
      </trkpt>
      <trkpt lat="48.91861" lon="2.35725">
        <ele>48.599998474121</ele>
        <time>2015-07-27T19:44:42Z</time>
      </trkpt>
      <trkpt lat="48.91842" lon="2.3573">
        <ele>48.599998474121</ele>
        <time>2015-07-27T19:44:48Z</time>
      </trkpt>
      <trkpt lat="48.91824" lon="2.3573">
        <ele>48.599998474121</ele>
        <time>2015-07-27T19:44:54Z</time>
      </trkpt>
      <trkpt lat="48.91822" lon="2.35727">
        <ele>48.599998474121</ele>
        <time>2015-07-27T19:44:55Z</time>
      </trkpt>
      <trkpt lat="48.91821" lon="2.35726">
        <ele>48.599998474121</ele>
        <time>2015-07-27T19:44:58Z</time>
      </trkpt>
      <trkpt lat="48.91821" lon="2.35723">
        <ele>49.599998474121</ele>
        <time>2015-07-27T19:45:06Z</time>
      </trkpt>
      <trkpt lat="48.91818" lon="2.35723">
        <ele>50.20000076294</ele>
        <time>2015-07-27T19:45:11Z</time>
      </trkpt>
      <trkpt lat="48.91818" lon="2.35721">
        <ele>50.20000076294</ele>
        <time>2015-07-27T19:45:13Z</time>
      </trkpt>
      <trkpt lat="48.91817" lon="2.35718">
        <ele>50.20000076294</ele>
        <time>2015-07-27T19:45:15Z</time>
      </trkpt>
      <trkpt lat="48.91816" lon="2.35706">
        <ele>50.400001525879</ele>
        <time>2015-07-27T19:45:19Z</time>
      </trkpt>
      <trkpt lat="48.91818" lon="2.35687">
        <ele>50.400001525879</ele>
        <time>2015-07-27T19:45:23Z</time>
      </trkpt>
      <trkpt lat="48.91819" lon="2.35682">
        <ele>50.599998474121</ele>
        <time>2015-07-27T19:45:24Z</time>
      </trkpt>
      <trkpt lat="48.9182" lon="2.35655">
        <ele>50.599998474121</ele>
        <time>2015-07-27T19:45:29Z</time>
      </trkpt>
      <trkpt lat="48.91821" lon="2.3563">
        <ele>50.599998474121</ele>
        <time>2015-07-27T19:45:33Z</time>
      </trkpt>
      <trkpt lat="48.91821" lon="2.35602">
        <ele>51</ele>
        <time>2015-07-27T19:45:37Z</time>
      </trkpt>
      <trkpt lat="48.9182" lon="2.35573">
        <ele>51.79999923706</ele>
        <time>2015-07-27T19:45:42Z</time>
      </trkpt>
      <trkpt lat="48.91821" lon="2.35566">
        <ele>51.79999923706</ele>
        <time>2015-07-27T19:45:44Z</time>
      </trkpt>
      <trkpt lat="48.91818" lon="2.35542">
        <ele>52.79999923706</ele>
        <time>2015-07-27T19:45:48Z</time>
      </trkpt>
      <trkpt lat="48.91819" lon="2.3553">
        <ele>53.20000076294</ele>
        <time>2015-07-27T19:45:50Z</time>
      </trkpt>
      <trkpt lat="48.91818" lon="2.35519">
        <ele>53.599998474121</ele>
        <time>2015-07-27T19:45:52Z</time>
      </trkpt>
      <trkpt lat="48.91816" lon="2.3548">
        <ele>55.20000076294</ele>
        <time>2015-07-27T19:45:58Z</time>
      </trkpt>
      <trkpt lat="48.91817" lon="2.35473">
        <ele>55.400001525879</ele>
        <time>2015-07-27T19:45:59Z</time>
      </trkpt>
      <trkpt lat="48.91821" lon="2.35445">
        <ele>56.599998474121</ele>
        <time>2015-07-27T19:46:03Z</time>
      </trkpt>
      <trkpt lat="48.9182" lon="2.35439">
        <ele>56.79999923706</ele>
        <time>2015-07-27T19:46:04Z</time>
      </trkpt>
      <trkpt lat="48.91818" lon="2.35403">
        <ele>58.20000076294</ele>
        <time>2015-07-27T19:46:09Z</time>
      </trkpt>
      <trkpt lat="48.91818" lon="2.35372">
        <ele>59.400001525879</ele>
        <time>2015-07-27T19:46:13Z</time>
      </trkpt>
      <trkpt lat="48.91819" lon="2.35348">
        <ele>60</ele>
        <time>2015-07-27T19:46:16Z</time>
      </trkpt>
      <trkpt lat="48.91817" lon="2.35325">
        <ele>61</ele>
        <time>2015-07-27T19:46:19Z</time>
      </trkpt>
      <trkpt lat="48.91818" lon="2.3531">
        <ele>61.599998474121</ele>
        <time>2015-07-27T19:46:21Z</time>
      </trkpt>
      <trkpt lat="48.91817" lon="2.35295">
        <ele>62.20000076294</ele>
        <time>2015-07-27T19:46:23Z</time>
      </trkpt>
      <trkpt lat="48.91818" lon="2.35258">
        <ele>63.599998474121</ele>
        <time>2015-07-27T19:46:28Z</time>
      </trkpt>
      <trkpt lat="48.91818" lon="2.35252">
        <ele>63.79999923706</ele>
        <time>2015-07-27T19:46:29Z</time>
      </trkpt>
      <trkpt lat="48.91823" lon="2.35221">
        <ele>65.800003051758</ele>
        <time>2015-07-27T19:46:34Z</time>
      </trkpt>
      <trkpt lat="48.91822" lon="2.35204">
        <ele>67.199996948242</ele>
        <time>2015-07-27T19:46:39Z</time>
      </trkpt>
      <trkpt lat="48.91819" lon="2.35182">
        <ele>69</ele>
        <time>2015-07-27T19:46:46Z</time>
      </trkpt>
      <trkpt lat="48.9181" lon="2.3519">
        <ele>69.599998474121</ele>
        <time>2015-07-27T19:46:51Z</time>
      </trkpt>
      <trkpt lat="48.91807" lon="2.35189">
        <ele>69.599998474121</ele>
        <time>2015-07-27T19:46:53Z</time>
      </trkpt>
      <trkpt lat="48.91806" lon="2.35176">
        <ele>69.800003051758</ele>
        <time>2015-07-27T19:46:56Z</time>
      </trkpt>
      <trkpt lat="48.91808" lon="2.35143">
        <ele>70</ele>
        <time>2015-07-27T19:47:00Z</time>
      </trkpt>
      <trkpt lat="48.91812" lon="2.35114">
        <ele>70.199996948242</ele>
        <time>2015-07-27T19:47:04Z</time>
      </trkpt>
      <trkpt lat="48.91812" lon="2.35108">
        <ele>70.199996948242</ele>
        <time>2015-07-27T19:47:05Z</time>
      </trkpt>
      <trkpt lat="48.91819" lon="2.35102">
        <ele>70.199996948242</ele>
        <time>2015-07-27T19:47:09Z</time>
      </trkpt>
      <trkpt lat="48.91819" lon="2.35113">
        <ele>70</ele>
        <time>2015-07-27T19:47:11Z</time>
      </trkpt>
      <trkpt lat="48.91818" lon="2.35153">
        <ele>69.400001525879</ele>
        <time>2015-07-27T19:47:16Z</time>
      </trkpt>
      <trkpt lat="48.91821" lon="2.35185">
        <ele>69</ele>
        <time>2015-07-27T19:47:19Z</time>
      </trkpt>
      <trkpt lat="48.91821" lon="2.35194">
        <ele>69</ele>
        <time>2015-07-27T19:47:20Z</time>
      </trkpt>
      <trkpt lat="48.918" lon="2.35228">
        <ele>68.400001525879</ele>
        <time>2015-07-27T19:47:24Z</time>
      </trkpt>
      <trkpt lat="48.91786" lon="2.35235">
        <ele>68</ele>
        <time>2015-07-27T19:47:27Z</time>
      </trkpt>
      <trkpt lat="48.91754" lon="2.35244">
        <ele>67.199996948242</ele>
        <time>2015-07-27T19:47:31Z</time>
      </trkpt>
      <trkpt lat="48.91747" lon="2.35246">
        <ele>66.800003051758</ele>
        <time>2015-07-27T19:47:32Z</time>
      </trkpt>
      <trkpt lat="48.91728" lon="2.35252">
        <ele>66.400001525879</ele>
        <time>2015-07-27T19:47:34Z</time>
      </trkpt>
      <trkpt lat="48.9171" lon="2.35254">
        <ele>65.800003051758</ele>
        <time>2015-07-27T19:47:36Z</time>
      </trkpt>
      <trkpt lat="48.91693" lon="2.35256">
        <ele>65.599998474121</ele>
        <time>2015-07-27T19:47:37Z</time>
      </trkpt>
      <trkpt lat="48.91659" lon="2.35263">
        <ele>64.199996948242</ele>
        <time>2015-07-27T19:47:42Z</time>
      </trkpt>
      <trkpt lat="48.9162" lon="2.35272">
        <ele>62.79999923706</ele>
        <time>2015-07-27T19:47:47Z</time>
      </trkpt>
      <trkpt lat="48.91598" lon="2.35274">
        <ele>62</ele>
        <time>2015-07-27T19:47:50Z</time>
      </trkpt>
      <trkpt lat="48.91577" lon="2.35275">
        <ele>61.20000076294</ele>
        <time>2015-07-27T19:47:53Z</time>
      </trkpt>
      <trkpt lat="48.91559" lon="2.35274">
        <ele>60.20000076294</ele>
        <time>2015-07-27T19:47:56Z</time>
      </trkpt>
      <trkpt lat="48.91542" lon="2.35273">
        <ele>59.400001525879</ele>
        <time>2015-07-27T19:48:00Z</time>
      </trkpt>
      <trkpt lat="48.91532" lon="2.35269">
        <ele>58</ele>
        <time>2015-07-27T19:48:04Z</time>
      </trkpt>
      <trkpt lat="48.9153" lon="2.35255">
        <ele>57.400001525879</ele>
        <time>2015-07-27T19:48:07Z</time>
      </trkpt>
      <trkpt lat="48.9153" lon="2.35221">
        <ele>56.599998474121</ele>
        <time>2015-07-27T19:48:12Z</time>
      </trkpt>
      <trkpt lat="48.91532" lon="2.35188">
        <ele>56.400001525879</ele>
        <time>2015-07-27T19:48:16Z</time>
      </trkpt>
      <trkpt lat="48.91533" lon="2.35153">
        <ele>56</ele>
        <time>2015-07-27T19:48:20Z</time>
      </trkpt>
      <trkpt lat="48.91531" lon="2.35125">
        <ele>56</ele>
        <time>2015-07-27T19:48:23Z</time>
      </trkpt>
      <trkpt lat="48.91524" lon="2.35095">
        <ele>55.20000076294</ele>
        <time>2015-07-27T19:48:26Z</time>
      </trkpt>
      <trkpt lat="48.91496" lon="2.35024">
        <ele>54.20000076294</ele>
        <time>2015-07-27T19:48:34Z</time>
      </trkpt>
      <trkpt lat="48.91493" lon="2.35009">
        <ele>54</ele>
        <time>2015-07-27T19:48:36Z</time>
      </trkpt>
      <trkpt lat="48.91486" lon="2.34977">
        <ele>53.79999923706</ele>
        <time>2015-07-27T19:48:41Z</time>
      </trkpt>
      <trkpt lat="48.91489" lon="2.34969">
        <ele>53.79999923706</ele>
        <time>2015-07-27T19:48:42Z</time>
      </trkpt>
      <trkpt lat="48.91492" lon="2.34963">
        <ele>53.79999923706</ele>
        <time>2015-07-27T19:48:43Z</time>
      </trkpt>
      <trkpt lat="48.91485" lon="2.34929">
        <ele>53.599998474121</ele>
        <time>2015-07-27T19:48:48Z</time>
      </trkpt>
      <trkpt lat="48.91482" lon="2.34916">
        <ele>53.599998474121</ele>
        <time>2015-07-27T19:48:50Z</time>
      </trkpt>
      <trkpt lat="48.91473" lon="2.34874">
        <ele>53.599998474121</ele>
        <time>2015-07-27T19:48:55Z</time>
      </trkpt>
      <trkpt lat="48.91466" lon="2.34843">
        <ele>53.400001525879</ele>
        <time>2015-07-27T19:49:00Z</time>
      </trkpt>
      <trkpt lat="48.91462" lon="2.34814">
        <ele>53.400001525879</ele>
        <time>2015-07-27T19:49:04Z</time>
      </trkpt>
      <trkpt lat="48.91458" lon="2.34781">
        <ele>53</ele>
        <time>2015-07-27T19:49:09Z</time>
      </trkpt>
      <trkpt lat="48.91451" lon="2.3475">
        <ele>52.20000076294</ele>
        <time>2015-07-27T19:49:14Z</time>
      </trkpt>
      <trkpt lat="48.91445" lon="2.34719">
        <ele>52</ele>
        <time>2015-07-27T19:49:19Z</time>
      </trkpt>
      <trkpt lat="48.91438" lon="2.34691">
        <ele>51.79999923706</ele>
        <time>2015-07-27T19:49:24Z</time>
      </trkpt>
      <trkpt lat="48.9143" lon="2.34659">
        <ele>51.599998474121</ele>
        <time>2015-07-27T19:49:29Z</time>
      </trkpt>
      <trkpt lat="48.91424" lon="2.34629">
        <ele>51</ele>
        <time>2015-07-27T19:49:33Z</time>
      </trkpt>
      <trkpt lat="48.91417" lon="2.34598">
        <ele>50.400001525879</ele>
        <time>2015-07-27T19:49:38Z</time>
      </trkpt>
      <trkpt lat="48.91415" lon="2.34591">
        <ele>50.20000076294</ele>
        <time>2015-07-27T19:49:39Z</time>
      </trkpt>
      <trkpt lat="48.91407" lon="2.34557">
        <ele>49.79999923706</ele>
        <time>2015-07-27T19:49:44Z</time>
      </trkpt>
      <trkpt lat="48.91406" lon="2.3455">
        <ele>49.79999923706</ele>
        <time>2015-07-27T19:49:45Z</time>
      </trkpt>
      <trkpt lat="48.91404" lon="2.34521">
        <ele>49.599998474121</ele>
        <time>2015-07-27T19:49:49Z</time>
      </trkpt>
      <trkpt lat="48.91401" lon="2.34491">
        <ele>49.599998474121</ele>
        <time>2015-07-27T19:49:53Z</time>
      </trkpt>
      <trkpt lat="48.91403" lon="2.34462">
        <ele>49.400001525879</ele>
        <time>2015-07-27T19:49:58Z</time>
      </trkpt>
      <trkpt lat="48.91408" lon="2.34436">
        <ele>49.400001525879</ele>
        <time>2015-07-27T19:50:05Z</time>
      </trkpt>
      <trkpt lat="48.91409" lon="2.34436">
        <ele>49.400001525879</ele>
        <time>2015-07-27T19:50:06Z</time>
      </trkpt>
      <trkpt lat="48.91409" lon="2.34435">
        <ele>49.400001525879</ele>
        <time>2015-07-27T19:50:11Z</time>
      </trkpt>
      <trkpt lat="48.91407" lon="2.3443">
        <ele>49.79999923706</ele>
        <time>2015-07-27T19:50:31Z</time>
      </trkpt>
      <trkpt lat="48.91402" lon="2.34415">
        <ele>50.400001525879</ele>
        <time>2015-07-27T19:50:36Z</time>
      </trkpt>
      <trkpt lat="48.91399" lon="2.34408">
        <ele>50.599998474121</ele>
        <time>2015-07-27T19:50:38Z</time>
      </trkpt>
      <trkpt lat="48.91394" lon="2.34406">
        <ele>50.79999923706</ele>
        <time>2015-07-27T19:50:42Z</time>
      </trkpt>
      <trkpt lat="48.9139" lon="2.34406">
        <ele>50.79999923706</ele>
        <time>2015-07-27T19:50:43Z</time>
      </trkpt>
      <trkpt lat="48.91371" lon="2.34408">
        <ele>51</ele>
        <time>2015-07-27T19:50:48Z</time>
      </trkpt>
      <trkpt lat="48.91351" lon="2.3441">
        <ele>51.20000076294</ele>
        <time>2015-07-27T19:50:53Z</time>
      </trkpt>
      <trkpt lat="48.91337" lon="2.3441">
        <ele>51.20000076294</ele>
        <time>2015-07-27T19:50:56Z</time>
      </trkpt>
      <trkpt lat="48.91319" lon="2.34414">
        <ele>51.20000076294</ele>
        <time>2015-07-27T19:51:00Z</time>
      </trkpt>
      <trkpt lat="48.91301" lon="2.34417">
        <ele>51.400001525879</ele>
        <time>2015-07-27T19:51:04Z</time>
      </trkpt>
      <trkpt lat="48.91282" lon="2.3442">
        <ele>51.400001525879</ele>
        <time>2015-07-27T19:51:08Z</time>
      </trkpt>
      <trkpt lat="48.91262" lon="2.3442">
        <ele>51.400001525879</ele>
        <time>2015-07-27T19:51:12Z</time>
      </trkpt>
      <trkpt lat="48.91237" lon="2.34422">
        <ele>51.400001525879</ele>
        <time>2015-07-27T19:51:17Z</time>
      </trkpt>
      <trkpt lat="48.91218" lon="2.34421">
        <ele>51.400001525879</ele>
        <time>2015-07-27T19:51:21Z</time>
      </trkpt>
      <trkpt lat="48.91209" lon="2.3442">
        <ele>51.400001525879</ele>
        <time>2015-07-27T19:51:23Z</time>
      </trkpt>
      <trkpt lat="48.91186" lon="2.34419">
        <ele>51.400001525879</ele>
        <time>2015-07-27T19:51:28Z</time>
      </trkpt>
      <trkpt lat="48.91181" lon="2.34419">
        <ele>51.400001525879</ele>
        <time>2015-07-27T19:51:29Z</time>
      </trkpt>
      <trkpt lat="48.91157" lon="2.34419">
        <ele>51.400001525879</ele>
        <time>2015-07-27T19:51:34Z</time>
      </trkpt>
      <trkpt lat="48.91144" lon="2.34419">
        <ele>51.400001525879</ele>
        <time>2015-07-27T19:51:37Z</time>
      </trkpt>
      <trkpt lat="48.91119" lon="2.34421">
        <ele>51.400001525879</ele>
        <time>2015-07-27T19:51:42Z</time>
      </trkpt>
      <trkpt lat="48.91088" lon="2.34424">
        <ele>51.400001525879</ele>
        <time>2015-07-27T19:51:48Z</time>
      </trkpt>
      <trkpt lat="48.9108" lon="2.34425">
        <ele>51.400001525879</ele>
        <time>2015-07-27T19:51:50Z</time>
      </trkpt>
      <trkpt lat="48.91054" lon="2.34426">
        <ele>51.400001525879</ele>
        <time>2015-07-27T19:51:55Z</time>
      </trkpt>
      <trkpt lat="48.91034" lon="2.34427">
        <ele>51.400001525879</ele>
        <time>2015-07-27T19:51:59Z</time>
      </trkpt>
      <trkpt lat="48.91029" lon="2.34426">
        <ele>51.400001525879</ele>
        <time>2015-07-27T19:52:00Z</time>
      </trkpt>
      <trkpt lat="48.91002" lon="2.34426">
        <ele>51.400001525879</ele>
        <time>2015-07-27T19:52:05Z</time>
      </trkpt>
      <trkpt lat="48.90982" lon="2.34424">
        <ele>51.400001525879</ele>
        <time>2015-07-27T19:52:09Z</time>
      </trkpt>
      <trkpt lat="48.9096" lon="2.34425">
        <ele>51.400001525879</ele>
        <time>2015-07-27T19:52:13Z</time>
      </trkpt>
      <trkpt lat="48.90943" lon="2.34425">
        <ele>51.400001525879</ele>
        <time>2015-07-27T19:52:16Z</time>
      </trkpt>
      <trkpt lat="48.90914" lon="2.34421">
        <ele>51.400001525879</ele>
        <time>2015-07-27T19:52:21Z</time>
      </trkpt>
      <trkpt lat="48.90909" lon="2.34422">
        <ele>51.20000076294</ele>
        <time>2015-07-27T19:52:22Z</time>
      </trkpt>
      <trkpt lat="48.90891" lon="2.34423">
        <ele>50.599998474121</ele>
        <time>2015-07-27T19:52:25Z</time>
      </trkpt>
      <trkpt lat="48.90866" lon="2.34421">
        <ele>50.20000076294</ele>
        <time>2015-07-27T19:52:29Z</time>
      </trkpt>
      <trkpt lat="48.9086" lon="2.34421">
        <ele>50.20000076294</ele>
        <time>2015-07-27T19:52:30Z</time>
      </trkpt>
      <trkpt lat="48.90841" lon="2.34422">
        <ele>49.400001525879</ele>
        <time>2015-07-27T19:52:33Z</time>
      </trkpt>
      <trkpt lat="48.90823" lon="2.34424">
        <ele>48.79999923706</ele>
        <time>2015-07-27T19:52:36Z</time>
      </trkpt>
      <trkpt lat="48.90817" lon="2.34424">
        <ele>48.599998474121</ele>
        <time>2015-07-27T19:52:37Z</time>
      </trkpt>
      <trkpt lat="48.90789" lon="2.34422">
        <ele>48</ele>
        <time>2015-07-27T19:52:41Z</time>
      </trkpt>
      <trkpt lat="48.90784" lon="2.34421">
        <ele>48</ele>
        <time>2015-07-27T19:52:42Z</time>
      </trkpt>
      <trkpt lat="48.90744" lon="2.34419">
        <ele>46.20000076294</ele>
        <time>2015-07-27T19:52:51Z</time>
      </trkpt>
      <trkpt lat="48.90741" lon="2.34419">
        <ele>46</ele>
        <time>2015-07-27T19:52:52Z</time>
      </trkpt>
      <trkpt lat="48.90724" lon="2.34416">
        <ele>45.599998474121</ele>
        <time>2015-07-27T19:52:58Z</time>
      </trkpt>
      <trkpt lat="48.90703" lon="2.34414">
        <ele>45.400001525879</ele>
        <time>2015-07-27T19:53:04Z</time>
      </trkpt>
      <trkpt lat="48.90684" lon="2.34414">
        <ele>44.79999923706</ele>
        <time>2015-07-27T19:53:09Z</time>
      </trkpt>
      <trkpt lat="48.90668" lon="2.34417">
        <ele>44.20000076294</ele>
        <time>2015-07-27T19:53:13Z</time>
      </trkpt>
      <trkpt lat="48.90647" lon="2.34416">
        <ele>43.79999923706</ele>
        <time>2015-07-27T19:53:18Z</time>
      </trkpt>
      <trkpt lat="48.90634" lon="2.34416">
        <ele>43.599998474121</ele>
        <time>2015-07-27T19:53:21Z</time>
      </trkpt>
      <trkpt lat="48.9061" lon="2.34417">
        <ele>43.400001525879</ele>
        <time>2015-07-27T19:53:26Z</time>
      </trkpt>
      <trkpt lat="48.90591" lon="2.34417">
        <ele>43.20000076294</ele>
        <time>2015-07-27T19:53:29Z</time>
      </trkpt>
      <trkpt lat="48.90586" lon="2.34416">
        <ele>43.20000076294</ele>
        <time>2015-07-27T19:53:31Z</time>
      </trkpt>
      <trkpt lat="48.90568" lon="2.34418">
        <ele>43.20000076294</ele>
        <time>2015-07-27T19:53:36Z</time>
      </trkpt>
      <trkpt lat="48.90548" lon="2.34416">
        <ele>43</ele>
        <time>2015-07-27T19:53:43Z</time>
      </trkpt>
      <trkpt lat="48.90534" lon="2.34419">
        <ele>43.20000076294</ele>
        <time>2015-07-27T19:53:49Z</time>
      </trkpt>
      <trkpt lat="48.9052" lon="2.3442">
        <ele>44.20000076294</ele>
        <time>2015-07-27T19:53:55Z</time>
      </trkpt>
      <trkpt lat="48.90502" lon="2.34421">
        <ele>44.599998474121</ele>
        <time>2015-07-27T19:54:01Z</time>
      </trkpt>
      <trkpt lat="48.90481" lon="2.34421">
        <ele>44.79999923706</ele>
        <time>2015-07-27T19:54:07Z</time>
      </trkpt>
      <trkpt lat="48.90473" lon="2.3442">
        <ele>44.79999923706</ele>
        <time>2015-07-27T19:54:09Z</time>
      </trkpt>
      <trkpt lat="48.9046" lon="2.3442">
        <ele>45</ele>
        <time>2015-07-27T19:54:12Z</time>
      </trkpt>
      <trkpt lat="48.90438" lon="2.3442">
        <ele>45</ele>
        <time>2015-07-27T19:54:17Z</time>
      </trkpt>
      <trkpt lat="48.90416" lon="2.34418">
        <ele>45</ele>
        <time>2015-07-27T19:54:22Z</time>
      </trkpt>
      <trkpt lat="48.90396" lon="2.34417">
        <ele>45</ele>
        <time>2015-07-27T19:54:27Z</time>
      </trkpt>
      <trkpt lat="48.90393" lon="2.34416">
        <ele>45</ele>
        <time>2015-07-27T19:54:28Z</time>
      </trkpt>
      <trkpt lat="48.90385" lon="2.34406">
        <ele>45</ele>
        <time>2015-07-27T19:54:32Z</time>
      </trkpt>
      <trkpt lat="48.90378" lon="2.34393">
        <ele>45</ele>
        <time>2015-07-27T19:54:36Z</time>
      </trkpt>
      <trkpt lat="48.90366" lon="2.34374">
        <ele>45</ele>
        <time>2015-07-27T19:54:42Z</time>
      </trkpt>
      <trkpt lat="48.90353" lon="2.34355">
        <ele>45</ele>
        <time>2015-07-27T19:54:47Z</time>
      </trkpt>
      <trkpt lat="48.90336" lon="2.34334">
        <ele>45</ele>
        <time>2015-07-27T19:54:52Z</time>
      </trkpt>
      <trkpt lat="48.9032" lon="2.34314">
        <ele>45.599998474121</ele>
        <time>2015-07-27T19:54:57Z</time>
      </trkpt>
      <trkpt lat="48.90306" lon="2.34299">
        <ele>46.20000076294</ele>
        <time>2015-07-27T19:55:01Z</time>
      </trkpt>
      <trkpt lat="48.9029" lon="2.34279">
        <ele>46.599998474121</ele>
        <time>2015-07-27T19:55:07Z</time>
      </trkpt>
      <trkpt lat="48.9028" lon="2.34266">
        <ele>46.79999923706</ele>
        <time>2015-07-27T19:55:11Z</time>
      </trkpt>
      <trkpt lat="48.90265" lon="2.34252">
        <ele>47</ele>
        <time>2015-07-27T19:55:16Z</time>
      </trkpt>
      <trkpt lat="48.9025" lon="2.34232">
        <ele>47.79999923706</ele>
        <time>2015-07-27T19:55:22Z</time>
      </trkpt>
      <trkpt lat="48.90243" lon="2.34221">
        <ele>48.400001525879</ele>
        <time>2015-07-27T19:55:27Z</time>
      </trkpt>
      <trkpt lat="48.90242" lon="2.3422">
        <ele>48.400001525879</ele>
        <time>2015-07-27T19:55:28Z</time>
      </trkpt>
      <trkpt lat="48.90238" lon="2.34219">
        <ele>48.79999923706</ele>
        <time>2015-07-27T19:55:32Z</time>
      </trkpt>
      <trkpt lat="48.90235" lon="2.34223">
        <ele>48.79999923706</ele>
        <time>2015-07-27T19:55:36Z</time>
      </trkpt>
      <trkpt lat="48.90236" lon="2.3422">
        <ele>49.599998474121</ele>
        <time>2015-07-27T19:55:40Z</time>
      </trkpt>
      <trkpt lat="48.90245" lon="2.34206">
        <ele>50.400001525879</ele>
        <time>2015-07-27T19:55:48Z</time>
      </trkpt>
      <trkpt lat="48.90248" lon="2.34203">
        <ele>50.79999923706</ele>
        <time>2015-07-27T19:55:53Z</time>
      </trkpt>
      <trkpt lat="48.90248" lon="2.34202">
        <ele>50.79999923706</ele>
        <time>2015-07-27T19:55:54Z</time>
      </trkpt>
      <trkpt lat="48.90252" lon="2.34188">
        <ele>51</ele>
        <time>2015-07-27T19:55:59Z</time>
      </trkpt>
      <trkpt lat="48.90253" lon="2.34186">
        <ele>51</ele>
        <time>2015-07-27T19:56:00Z</time>
      </trkpt>
      <trkpt lat="48.90261" lon="2.34163">
        <ele>51</ele>
        <time>2015-07-27T19:56:06Z</time>
      </trkpt>
      <trkpt lat="48.90273" lon="2.34139">
        <ele>51.20000076294</ele>
        <time>2015-07-27T19:56:11Z</time>
      </trkpt>
      <trkpt lat="48.90287" lon="2.34113">
        <ele>52</ele>
        <time>2015-07-27T19:56:16Z</time>
      </trkpt>
      <trkpt lat="48.90299" lon="2.34089">
        <ele>52.400001525879</ele>
        <time>2015-07-27T19:56:21Z</time>
      </trkpt>
      <trkpt lat="48.90304" lon="2.3408">
        <ele>52.599998474121</ele>
        <time>2015-07-27T19:56:23Z</time>
      </trkpt>
      <trkpt lat="48.90314" lon="2.34051">
        <ele>52.79999923706</ele>
        <time>2015-07-27T19:56:29Z</time>
      </trkpt>
      <trkpt lat="48.9032" lon="2.34032">
        <ele>53</ele>
        <time>2015-07-27T19:56:33Z</time>
      </trkpt>
      <trkpt lat="48.90302" lon="2.34005">
        <ele>53</ele>
        <time>2015-07-27T19:56:40Z</time>
      </trkpt>
      <trkpt lat="48.90286" lon="2.33987">
        <ele>53.20000076294</ele>
        <time>2015-07-27T19:56:45Z</time>
      </trkpt>
      <trkpt lat="48.90271" lon="2.33969">
        <ele>53.20000076294</ele>
        <time>2015-07-27T19:56:49Z</time>
      </trkpt>
      <trkpt lat="48.90257" lon="2.33952">
        <ele>53.20000076294</ele>
        <time>2015-07-27T19:56:53Z</time>
      </trkpt>
      <trkpt lat="48.9024" lon="2.33929">
        <ele>53.20000076294</ele>
        <time>2015-07-27T19:56:58Z</time>
      </trkpt>
      <trkpt lat="48.90236" lon="2.33926">
        <ele>53.20000076294</ele>
        <time>2015-07-27T19:56:59Z</time>
      </trkpt>
      <trkpt lat="48.9023" lon="2.33916">
        <ele>53.20000076294</ele>
        <time>2015-07-27T19:57:01Z</time>
      </trkpt>
      <trkpt lat="48.90209" lon="2.33892">
        <ele>53.20000076294</ele>
        <time>2015-07-27T19:57:07Z</time>
      </trkpt>
      <trkpt lat="48.902" lon="2.33879">
        <ele>53.20000076294</ele>
        <time>2015-07-27T19:57:10Z</time>
      </trkpt>
      <trkpt lat="48.90192" lon="2.33868">
        <ele>53.20000076294</ele>
        <time>2015-07-27T19:57:13Z</time>
      </trkpt>
      <trkpt lat="48.90203" lon="2.3384">
        <ele>53.20000076294</ele>
        <time>2015-07-27T19:57:19Z</time>
      </trkpt>
      <trkpt lat="48.90216" lon="2.3382">
        <ele>53.20000076294</ele>
        <time>2015-07-27T19:57:23Z</time>
      </trkpt>
      <trkpt lat="48.90224" lon="2.33807">
        <ele>53.20000076294</ele>
        <time>2015-07-27T19:57:26Z</time>
      </trkpt>
      <trkpt lat="48.90231" lon="2.33793">
        <ele>53.20000076294</ele>
        <time>2015-07-27T19:57:29Z</time>
      </trkpt>
      <trkpt lat="48.90247" lon="2.33761">
        <ele>53.20000076294</ele>
        <time>2015-07-27T19:57:39Z</time>
      </trkpt>
      <trkpt lat="48.90259" lon="2.33735">
        <ele>53.20000076294</ele>
        <time>2015-07-27T19:57:45Z</time>
      </trkpt>
      <trkpt lat="48.90269" lon="2.33712">
        <ele>53.20000076294</ele>
        <time>2015-07-27T19:57:50Z</time>
      </trkpt>
      <trkpt lat="48.90284" lon="2.33685">
        <ele>53.20000076294</ele>
        <time>2015-07-27T19:57:56Z</time>
      </trkpt>
      <trkpt lat="48.90295" lon="2.33664">
        <ele>53.20000076294</ele>
        <time>2015-07-27T19:58:01Z</time>
      </trkpt>
      <trkpt lat="48.90306" lon="2.33649">
        <ele>53.20000076294</ele>
        <time>2015-07-27T19:58:05Z</time>
      </trkpt>
      <trkpt lat="48.90311" lon="2.33645">
        <ele>53.20000076294</ele>
        <time>2015-07-27T19:58:07Z</time>
      </trkpt>
      <trkpt lat="48.90317" lon="2.33648">
        <ele>53.20000076294</ele>
        <time>2015-07-27T19:58:09Z</time>
      </trkpt>
      <trkpt lat="48.90326" lon="2.33657">
        <ele>53.20000076294</ele>
        <time>2015-07-27T19:58:14Z</time>
      </trkpt>
      <trkpt lat="48.90332" lon="2.3365">
        <ele>53.20000076294</ele>
        <time>2015-07-27T19:58:17Z</time>
      </trkpt>
      <trkpt lat="48.90334" lon="2.33647">
        <ele>53.20000076294</ele>
        <time>2015-07-27T19:58:18Z</time>
      </trkpt>
      <trkpt lat="48.90342" lon="2.33633">
        <ele>53.20000076294</ele>
        <time>2015-07-27T19:58:23Z</time>
      </trkpt>
      <trkpt lat="48.90344" lon="2.33631">
        <ele>53</ele>
        <time>2015-07-27T19:58:24Z</time>
      </trkpt>
      <trkpt lat="48.90346" lon="2.3363">
        <ele>52.79999923706</ele>
        <time>2015-07-27T19:58:25Z</time>
      </trkpt>
      <trkpt lat="48.90367" lon="2.33644">
        <ele>52</ele>
        <time>2015-07-27T19:58:32Z</time>
      </trkpt>
      <trkpt lat="48.90378" lon="2.33658">
        <ele>51.599998474121</ele>
        <time>2015-07-27T19:58:36Z</time>
      </trkpt>
      <trkpt lat="48.90392" lon="2.33676">
        <ele>51.400001525879</ele>
        <time>2015-07-27T19:58:41Z</time>
      </trkpt>
      <trkpt lat="48.90405" lon="2.33697">
        <ele>51.400001525879</ele>
        <time>2015-07-27T19:58:46Z</time>
      </trkpt>
      <trkpt lat="48.9042" lon="2.3372">
        <ele>51</ele>
        <time>2015-07-27T19:58:51Z</time>
      </trkpt>
      <trkpt lat="48.90435" lon="2.33746">
        <ele>50.20000076294</ele>
        <time>2015-07-27T19:58:56Z</time>
      </trkpt>
      <trkpt lat="48.90444" lon="2.3376">
        <ele>50</ele>
        <time>2015-07-27T19:58:59Z</time>
      </trkpt>
      <trkpt lat="48.90447" lon="2.33768">
        <ele>49.79999923706</ele>
        <time>2015-07-27T19:59:01Z</time>
      </trkpt>
      <trkpt lat="48.9046" lon="2.33786">
        <ele>49.599998474121</ele>
        <time>2015-07-27T19:59:05Z</time>
      </trkpt>
      <trkpt lat="48.90464" lon="2.33792">
        <ele>49.599998474121</ele>
        <time>2015-07-27T19:59:07Z</time>
      </trkpt>
      <trkpt lat="48.90476" lon="2.33807">
        <ele>49.400001525879</ele>
        <time>2015-07-27T19:59:12Z</time>
      </trkpt>
      <trkpt lat="48.90478" lon="2.33806">
        <ele>49.400001525879</ele>
        <time>2015-07-27T19:59:13Z</time>
      </trkpt>
      <trkpt lat="48.90491" lon="2.3379">
        <ele>49.20000076294</ele>
        <time>2015-07-27T19:59:17Z</time>
      </trkpt>
      <trkpt lat="48.90508" lon="2.3377">
        <ele>49.20000076294</ele>
        <time>2015-07-27T19:59:22Z</time>
      </trkpt>
      <trkpt lat="48.90525" lon="2.33747">
        <ele>49.20000076294</ele>
        <time>2015-07-27T19:59:27Z</time>
      </trkpt>
      <trkpt lat="48.9054" lon="2.33727">
        <ele>49.20000076294</ele>
        <time>2015-07-27T19:59:32Z</time>
      </trkpt>
      <trkpt lat="48.90554" lon="2.33702">
        <ele>49.20000076294</ele>
        <time>2015-07-27T19:59:36Z</time>
      </trkpt>
      <trkpt lat="48.90564" lon="2.33688">
        <ele>49.20000076294</ele>
        <time>2015-07-27T19:59:39Z</time>
      </trkpt>
      <trkpt lat="48.90582" lon="2.33662">
        <ele>49.20000076294</ele>
        <time>2015-07-27T19:59:44Z</time>
      </trkpt>
      <trkpt lat="48.90596" lon="2.33642">
        <ele>49.20000076294</ele>
        <time>2015-07-27T19:59:48Z</time>
      </trkpt>
      <trkpt lat="48.90599" lon="2.33639">
        <ele>49.20000076294</ele>
        <time>2015-07-27T19:59:49Z</time>
      </trkpt>
      <trkpt lat="48.90617" lon="2.33614">
        <ele>49.20000076294</ele>
        <time>2015-07-27T19:59:54Z</time>
      </trkpt>
      <trkpt lat="48.90631" lon="2.33594">
        <ele>49.20000076294</ele>
        <time>2015-07-27T19:59:58Z</time>
      </trkpt>
      <trkpt lat="48.90645" lon="2.33575">
        <ele>49.20000076294</ele>
        <time>2015-07-27T20:00:02Z</time>
      </trkpt>
      <trkpt lat="48.90658" lon="2.33555">
        <ele>49.20000076294</ele>
        <time>2015-07-27T20:00:06Z</time>
      </trkpt>
      <trkpt lat="48.90672" lon="2.33534">
        <ele>49.20000076294</ele>
        <time>2015-07-27T20:00:10Z</time>
      </trkpt>
      <trkpt lat="48.90688" lon="2.33506">
        <ele>49.20000076294</ele>
        <time>2015-07-27T20:00:15Z</time>
      </trkpt>
      <trkpt lat="48.90704" lon="2.33482">
        <ele>49.20000076294</ele>
        <time>2015-07-27T20:00:20Z</time>
      </trkpt>
      <trkpt lat="48.90719" lon="2.3346">
        <ele>48.79999923706</ele>
        <time>2015-07-27T20:00:25Z</time>
      </trkpt>
      <trkpt lat="48.90723" lon="2.33453">
        <ele>48.599998474121</ele>
        <time>2015-07-27T20:00:26Z</time>
      </trkpt>
      <trkpt lat="48.90735" lon="2.33431">
        <ele>48</ele>
        <time>2015-07-27T20:00:30Z</time>
      </trkpt>
      <trkpt lat="48.90737" lon="2.33428">
        <ele>48</ele>
        <time>2015-07-27T20:00:31Z</time>
      </trkpt>
      <trkpt lat="48.90756" lon="2.33399">
        <ele>47.400001525879</ele>
        <time>2015-07-27T20:00:36Z</time>
      </trkpt>
      <trkpt lat="48.90763" lon="2.33389">
        <ele>47</ele>
        <time>2015-07-27T20:00:38Z</time>
      </trkpt>
      <trkpt lat="48.90774" lon="2.33368">
        <ele>46.20000076294</ele>
        <time>2015-07-27T20:00:42Z</time>
      </trkpt>
      <trkpt lat="48.90786" lon="2.33348">
        <ele>45.79999923706</ele>
        <time>2015-07-27T20:00:46Z</time>
      </trkpt>
      <trkpt lat="48.90801" lon="2.33329">
        <ele>45.400001525879</ele>
        <time>2015-07-27T20:00:50Z</time>
      </trkpt>
      <trkpt lat="48.90817" lon="2.3331">
        <ele>45.400001525879</ele>
        <time>2015-07-27T20:00:54Z</time>
      </trkpt>
      <trkpt lat="48.90829" lon="2.33291">
        <ele>44.599998474121</ele>
        <time>2015-07-27T20:00:58Z</time>
      </trkpt>
      <trkpt lat="48.90836" lon="2.33283">
        <ele>44</ele>
        <time>2015-07-27T20:01:01Z</time>
      </trkpt>
      <trkpt lat="48.9084" lon="2.33271">
        <ele>43.79999923706</ele>
        <time>2015-07-27T20:01:04Z</time>
      </trkpt>
      <trkpt lat="48.90838" lon="2.33259">
        <ele>43.599998474121</ele>
        <time>2015-07-27T20:01:07Z</time>
      </trkpt>
      <trkpt lat="48.90815" lon="2.3325">
        <ele>43.400001525879</ele>
        <time>2015-07-27T20:01:12Z</time>
      </trkpt>
      <trkpt lat="48.90807" lon="2.33247">
        <ele>43.20000076294</ele>
        <time>2015-07-27T20:01:14Z</time>
      </trkpt>
      <trkpt lat="48.90782" lon="2.33239">
        <ele>43.20000076294</ele>
        <time>2015-07-27T20:01:19Z</time>
      </trkpt>
      <trkpt lat="48.90777" lon="2.33237">
        <ele>43.20000076294</ele>
        <time>2015-07-27T20:01:20Z</time>
      </trkpt>
      <trkpt lat="48.90759" lon="2.33232">
        <ele>43</ele>
        <time>2015-07-27T20:01:23Z</time>
      </trkpt>
      <trkpt lat="48.90752" lon="2.33227">
        <ele>43</ele>
        <time>2015-07-27T20:01:25Z</time>
      </trkpt>
      <trkpt lat="48.90728" lon="2.33224">
        <ele>42.400001525879</ele>
        <time>2015-07-27T20:01:29Z</time>
      </trkpt>
      <trkpt lat="48.90723" lon="2.33223">
        <ele>42.20000076294</ele>
        <time>2015-07-27T20:01:30Z</time>
      </trkpt>
      <trkpt lat="48.90701" lon="2.33217">
        <ele>41.79999923706</ele>
        <time>2015-07-27T20:01:34Z</time>
      </trkpt>
      <trkpt lat="48.90666" lon="2.33199">
        <ele>41.20000076294</ele>
        <time>2015-07-27T20:01:43Z</time>
      </trkpt>
      <trkpt lat="48.90653" lon="2.33196">
        <ele>41</ele>
        <time>2015-07-27T20:01:48Z</time>
      </trkpt>
      <trkpt lat="48.90649" lon="2.33199">
        <ele>41</ele>
        <time>2015-07-27T20:01:49Z</time>
      </trkpt>
      <trkpt lat="48.90619" lon="2.33194">
        <ele>41</ele>
        <time>2015-07-27T20:01:56Z</time>
      </trkpt>
      <trkpt lat="48.9061" lon="2.33191">
        <ele>41</ele>
        <time>2015-07-27T20:01:58Z</time>
      </trkpt>
      <trkpt lat="48.90588" lon="2.33182">
        <ele>41</ele>
        <time>2015-07-27T20:02:03Z</time>
      </trkpt>
      <trkpt lat="48.90579" lon="2.33179">
        <ele>40.79999923706</ele>
        <time>2015-07-27T20:02:05Z</time>
      </trkpt>
      <trkpt lat="48.9057" lon="2.33178">
        <ele>40.79999923706</ele>
        <time>2015-07-27T20:02:07Z</time>
      </trkpt>
      <trkpt lat="48.90553" lon="2.33175">
        <ele>41</ele>
        <time>2015-07-27T20:02:10Z</time>
      </trkpt>
      <trkpt lat="48.90526" lon="2.33164">
        <ele>41.79999923706</ele>
        <time>2015-07-27T20:02:15Z</time>
      </trkpt>
      <trkpt lat="48.90505" lon="2.33157">
        <ele>42.400001525879</ele>
        <time>2015-07-27T20:02:19Z</time>
      </trkpt>
      <trkpt lat="48.90484" lon="2.3315">
        <ele>43.400001525879</ele>
        <time>2015-07-27T20:02:23Z</time>
      </trkpt>
      <trkpt lat="48.90465" lon="2.33143">
        <ele>44</ele>
        <time>2015-07-27T20:02:27Z</time>
      </trkpt>
      <trkpt lat="48.90446" lon="2.33137">
        <ele>44.400001525879</ele>
        <time>2015-07-27T20:02:31Z</time>
      </trkpt>
      <trkpt lat="48.90423" lon="2.33132">
        <ele>45.400001525879</ele>
        <time>2015-07-27T20:02:36Z</time>
      </trkpt>
      <trkpt lat="48.90405" lon="2.33128">
        <ele>46</ele>
        <time>2015-07-27T20:02:40Z</time>
      </trkpt>
      <trkpt lat="48.90381" lon="2.33122">
        <ele>47</ele>
        <time>2015-07-27T20:02:45Z</time>
      </trkpt>
      <trkpt lat="48.90363" lon="2.33117">
        <ele>48</ele>
        <time>2015-07-27T20:02:49Z</time>
      </trkpt>
      <trkpt lat="48.90342" lon="2.3311">
        <ele>49</ele>
        <time>2015-07-27T20:02:54Z</time>
      </trkpt>
      <trkpt lat="48.90333" lon="2.33107">
        <ele>49.400001525879</ele>
        <time>2015-07-27T20:02:56Z</time>
      </trkpt>
      <trkpt lat="48.90326" lon="2.33103">
        <ele>49.79999923706</ele>
        <time>2015-07-27T20:02:58Z</time>
      </trkpt>
      <trkpt lat="48.90299" lon="2.33097">
        <ele>51.20000076294</ele>
        <time>2015-07-27T20:03:03Z</time>
      </trkpt>
      <trkpt lat="48.90278" lon="2.33089">
        <ele>52.20000076294</ele>
        <time>2015-07-27T20:03:07Z</time>
      </trkpt>
      <trkpt lat="48.90256" lon="2.3308">
        <ele>53.400001525879</ele>
        <time>2015-07-27T20:03:11Z</time>
      </trkpt>
      <trkpt lat="48.90239" lon="2.33074">
        <ele>54</ele>
        <time>2015-07-27T20:03:14Z</time>
      </trkpt>
      <trkpt lat="48.90226" lon="2.33065">
        <ele>54.79999923706</ele>
        <time>2015-07-27T20:03:17Z</time>
      </trkpt>
      <trkpt lat="48.9022" lon="2.33062">
        <ele>55.400001525879</ele>
        <time>2015-07-27T20:03:19Z</time>
      </trkpt>
      <trkpt lat="48.90218" lon="2.33059">
        <ele>56.400001525879</ele>
        <time>2015-07-27T20:03:24Z</time>
      </trkpt>
      <trkpt lat="48.90213" lon="2.3306">
        <ele>57</ele>
        <time>2015-07-27T20:03:29Z</time>
      </trkpt>
      <trkpt lat="48.902" lon="2.3306">
        <ele>57.599998474121</ele>
        <time>2015-07-27T20:03:32Z</time>
      </trkpt>
      <trkpt lat="48.90182" lon="2.33056">
        <ele>58.400001525879</ele>
        <time>2015-07-27T20:03:36Z</time>
      </trkpt>
      <trkpt lat="48.90161" lon="2.33049">
        <ele>58.79999923706</ele>
        <time>2015-07-27T20:03:40Z</time>
      </trkpt>
      <trkpt lat="48.90141" lon="2.3304">
        <ele>59.20000076294</ele>
        <time>2015-07-27T20:03:45Z</time>
      </trkpt>
      <trkpt lat="48.90135" lon="2.33037">
        <ele>59.400001525879</ele>
        <time>2015-07-27T20:03:47Z</time>
      </trkpt>
      <trkpt lat="48.90112" lon="2.33028">
        <ele>59.599998474121</ele>
        <time>2015-07-27T20:03:54Z</time>
      </trkpt>
      <trkpt lat="48.901" lon="2.33021">
        <ele>59.20000076294</ele>
        <time>2015-07-27T20:03:59Z</time>
      </trkpt>
      <trkpt lat="48.90099" lon="2.33019">
        <ele>59</ele>
        <time>2015-07-27T20:04:00Z</time>
      </trkpt>
      <trkpt lat="48.901" lon="2.33016">
        <ele>58.599998474121</ele>
        <time>2015-07-27T20:04:05Z</time>
      </trkpt>
      <trkpt lat="48.901" lon="2.33002">
        <ele>54</ele>
        <time>2015-07-27T20:04:42Z</time>
      </trkpt>
      <trkpt lat="48.90099" lon="2.33">
        <ele>53.599998474121</ele>
        <time>2015-07-27T20:04:44Z</time>
      </trkpt>
      <trkpt lat="48.90093" lon="2.32989">
        <ele>52.599998474121</ele>
        <time>2015-07-27T20:04:50Z</time>
      </trkpt>
      <trkpt lat="48.90085" lon="2.32979">
        <ele>52.20000076294</ele>
        <time>2015-07-27T20:04:54Z</time>
      </trkpt>
      <trkpt lat="48.90081" lon="2.32976">
        <ele>52</ele>
        <time>2015-07-27T20:04:57Z</time>
      </trkpt>
      <trkpt lat="48.9007" lon="2.32963">
        <ele>51.79999923706</ele>
        <time>2015-07-27T20:05:02Z</time>
      </trkpt>
      <trkpt lat="48.90067" lon="2.32962">
        <ele>51.599998474121</ele>
        <time>2015-07-27T20:05:03Z</time>
      </trkpt>
      <trkpt lat="48.9005" lon="2.32964">
        <ele>51.599998474121</ele>
        <time>2015-07-27T20:05:08Z</time>
      </trkpt>
      <trkpt lat="48.90029" lon="2.32963">
        <ele>50.79999923706</ele>
        <time>2015-07-27T20:05:14Z</time>
      </trkpt>
      <trkpt lat="48.90014" lon="2.32959">
        <ele>50.20000076294</ele>
        <time>2015-07-27T20:05:19Z</time>
      </trkpt>
      <trkpt lat="48.90011" lon="2.32957">
        <ele>50</ele>
        <time>2015-07-27T20:05:20Z</time>
      </trkpt>
      <trkpt lat="48.89998" lon="2.32947">
        <ele>49.79999923706</ele>
        <time>2015-07-27T20:05:24Z</time>
      </trkpt>
      <trkpt lat="48.89993" lon="2.32947">
        <ele>49.79999923706</ele>
        <time>2015-07-27T20:05:25Z</time>
      </trkpt>
      <trkpt lat="48.89979" lon="2.32944">
        <ele>49.599998474121</ele>
        <time>2015-07-27T20:05:28Z</time>
      </trkpt>
      <trkpt lat="48.89971" lon="2.32939">
        <ele>49.599998474121</ele>
        <time>2015-07-27T20:05:30Z</time>
      </trkpt>
      <trkpt lat="48.89948" lon="2.32928">
        <ele>49.400001525879</ele>
        <time>2015-07-27T20:05:36Z</time>
      </trkpt>
      <trkpt lat="48.89939" lon="2.32925">
        <ele>49.400001525879</ele>
        <time>2015-07-27T20:05:38Z</time>
      </trkpt>
      <trkpt lat="48.89927" lon="2.32922">
        <ele>49.400001525879</ele>
        <time>2015-07-27T20:05:41Z</time>
      </trkpt>
      <trkpt lat="48.89914" lon="2.32923">
        <ele>49.400001525879</ele>
        <time>2015-07-27T20:05:46Z</time>
      </trkpt>
      <trkpt lat="48.89904" lon="2.32922">
        <ele>49.400001525879</ele>
        <time>2015-07-27T20:05:50Z</time>
      </trkpt>
      <trkpt lat="48.89886" lon="2.32916">
        <ele>49.400001525879</ele>
        <time>2015-07-27T20:05:56Z</time>
      </trkpt>
      <trkpt lat="48.89866" lon="2.32911">
        <ele>49.400001525879</ele>
        <time>2015-07-27T20:06:02Z</time>
      </trkpt>
      <trkpt lat="48.89846" lon="2.32907">
        <ele>49.400001525879</ele>
        <time>2015-07-27T20:06:07Z</time>
      </trkpt>
      <trkpt lat="48.89831" lon="2.32904">
        <ele>49.400001525879</ele>
        <time>2015-07-27T20:06:11Z</time>
      </trkpt>
      <trkpt lat="48.8981" lon="2.32897">
        <ele>49.400001525879</ele>
        <time>2015-07-27T20:06:16Z</time>
      </trkpt>
      <trkpt lat="48.89806" lon="2.32896">
        <ele>49.400001525879</ele>
        <time>2015-07-27T20:06:17Z</time>
      </trkpt>
      <trkpt lat="48.89798" lon="2.32895">
        <ele>49.79999923706</ele>
        <time>2015-07-27T20:06:20Z</time>
      </trkpt>
      <trkpt lat="48.89787" lon="2.32891">
        <ele>50.599998474121</ele>
        <time>2015-07-27T20:06:26Z</time>
      </trkpt>
      <trkpt lat="48.89785" lon="2.3289">
        <ele>50.599998474121</ele>
        <time>2015-07-27T20:06:27Z</time>
      </trkpt>
      <trkpt lat="48.89784" lon="2.32888">
        <ele>51.79999923706</ele>
        <time>2015-07-27T20:06:32Z</time>
      </trkpt>
      <trkpt lat="48.89781" lon="2.32884">
        <ele>53.20000076294</ele>
        <time>2015-07-27T20:06:46Z</time>
      </trkpt>
      <trkpt lat="48.89781" lon="2.32883">
        <ele>54.20000076294</ele>
        <time>2015-07-27T20:06:51Z</time>
      </trkpt>
      <trkpt lat="48.89783" lon="2.32881">
        <ele>55</ele>
        <time>2015-07-27T20:06:58Z</time>
      </trkpt>
      <trkpt lat="48.89783" lon="2.3288">
        <ele>55</ele>
        <time>2015-07-27T20:06:59Z</time>
      </trkpt>
      <trkpt lat="48.89783" lon="2.32876">
        <ele>55.400001525879</ele>
        <time>2015-07-27T20:07:06Z</time>
      </trkpt>
      <trkpt lat="48.89781" lon="2.32877">
        <ele>55.599998474121</ele>
        <time>2015-07-27T20:07:25Z</time>
      </trkpt>
      <trkpt lat="48.89774" lon="2.32882">
        <ele>55.599998474121</ele>
        <time>2015-07-27T20:07:30Z</time>
      </trkpt>
      <trkpt lat="48.89774" lon="2.32884">
        <ele>55.599998474121</ele>
        <time>2015-07-27T20:07:31Z</time>
      </trkpt>
      <trkpt lat="48.89772" lon="2.32888">
        <ele>55.599998474121</ele>
        <time>2015-07-27T20:07:35Z</time>
      </trkpt>
      <trkpt lat="48.89767" lon="2.32889">
        <ele>55.79999923706</ele>
        <time>2015-07-27T20:07:40Z</time>
      </trkpt>
      <trkpt lat="48.89759" lon="2.32887">
        <ele>55.79999923706</ele>
        <time>2015-07-27T20:07:46Z</time>
      </trkpt>
      <trkpt lat="48.89757" lon="2.32887">
        <ele>55.79999923706</ele>
        <time>2015-07-27T20:07:48Z</time>
      </trkpt>
      <trkpt lat="48.89755" lon="2.32886">
        <ele>55.79999923706</ele>
        <time>2015-07-27T20:07:53Z</time>
      </trkpt>
      <trkpt lat="48.89753" lon="2.32889">
        <ele>55.79999923706</ele>
        <time>2015-07-27T20:07:58Z</time>
      </trkpt>
      <trkpt lat="48.89752" lon="2.32894">
        <ele>55.79999923706</ele>
        <time>2015-07-27T20:08:02Z</time>
      </trkpt>
      <trkpt lat="48.89752" lon="2.32903">
        <ele>55.79999923706</ele>
        <time>2015-07-27T20:08:05Z</time>
      </trkpt>
      <trkpt lat="48.89753" lon="2.3291">
        <ele>55.79999923706</ele>
        <time>2015-07-27T20:08:07Z</time>
      </trkpt>
      <trkpt lat="48.89756" lon="2.32931">
        <ele>55.79999923706</ele>
        <time>2015-07-27T20:08:12Z</time>
      </trkpt>
      <trkpt lat="48.89748" lon="2.32946">
        <ele>55.79999923706</ele>
        <time>2015-07-27T20:08:18Z</time>
      </trkpt>
      <trkpt lat="48.89746" lon="2.32948">
        <ele>55.79999923706</ele>
        <time>2015-07-27T20:08:19Z</time>
      </trkpt>
      <trkpt lat="48.89735" lon="2.3296">
        <ele>55.79999923706</ele>
        <time>2015-07-27T20:08:24Z</time>
      </trkpt>
      <trkpt lat="48.89719" lon="2.32973">
        <ele>56</ele>
        <time>2015-07-27T20:08:29Z</time>
      </trkpt>
      <trkpt lat="48.89706" lon="2.32984">
        <ele>56.599998474121</ele>
        <time>2015-07-27T20:08:33Z</time>
      </trkpt>
      <trkpt lat="48.89689" lon="2.32999">
        <ele>57</ele>
        <time>2015-07-27T20:08:38Z</time>
      </trkpt>
      <trkpt lat="48.89679" lon="2.33007">
        <ele>57.20000076294</ele>
        <time>2015-07-27T20:08:41Z</time>
      </trkpt>
      <trkpt lat="48.89664" lon="2.33024">
        <ele>57.400001525879</ele>
        <time>2015-07-27T20:08:46Z</time>
      </trkpt>
      <trkpt lat="48.89648" lon="2.3304">
        <ele>57.599998474121</ele>
        <time>2015-07-27T20:08:51Z</time>
      </trkpt>
      <trkpt lat="48.89632" lon="2.33057">
        <ele>57.599998474121</ele>
        <time>2015-07-27T20:08:56Z</time>
      </trkpt>
      <trkpt lat="48.89618" lon="2.33074">
        <ele>58.400001525879</ele>
        <time>2015-07-27T20:09:00Z</time>
      </trkpt>
      <trkpt lat="48.89601" lon="2.3309">
        <ele>58.79999923706</ele>
        <time>2015-07-27T20:09:04Z</time>
      </trkpt>
      <trkpt lat="48.89585" lon="2.33104">
        <ele>59.20000076294</ele>
        <time>2015-07-27T20:09:08Z</time>
      </trkpt>
      <trkpt lat="48.89569" lon="2.3312">
        <ele>59.400001525879</ele>
        <time>2015-07-27T20:09:13Z</time>
      </trkpt>
      <trkpt lat="48.89556" lon="2.3313">
        <ele>59.599998474121</ele>
        <time>2015-07-27T20:09:17Z</time>
      </trkpt>
      <trkpt lat="48.89536" lon="2.33151">
        <ele>59.599998474121</ele>
        <time>2015-07-27T20:09:22Z</time>
      </trkpt>
      <trkpt lat="48.89532" lon="2.33156">
        <ele>59.599998474121</ele>
        <time>2015-07-27T20:09:23Z</time>
      </trkpt>
      <trkpt lat="48.89511" lon="2.33176">
        <ele>59.599998474121</ele>
        <time>2015-07-27T20:09:27Z</time>
      </trkpt>
      <trkpt lat="48.89507" lon="2.33179">
        <ele>59.599998474121</ele>
        <time>2015-07-27T20:09:28Z</time>
      </trkpt>
      <trkpt lat="48.89486" lon="2.33197">
        <ele>60</ele>
        <time>2015-07-27T20:09:32Z</time>
      </trkpt>
      <trkpt lat="48.8948" lon="2.33203">
        <ele>60.20000076294</ele>
        <time>2015-07-27T20:09:33Z</time>
      </trkpt>
      <trkpt lat="48.89463" lon="2.33219">
        <ele>60.599998474121</ele>
        <time>2015-07-27T20:09:36Z</time>
      </trkpt>
      <trkpt lat="48.89447" lon="2.33234">
        <ele>61</ele>
        <time>2015-07-27T20:09:39Z</time>
      </trkpt>
      <trkpt lat="48.89442" lon="2.33238">
        <ele>61</ele>
        <time>2015-07-27T20:09:40Z</time>
      </trkpt>
      <trkpt lat="48.89425" lon="2.33257">
        <ele>61.599998474121</ele>
        <time>2015-07-27T20:09:45Z</time>
      </trkpt>
      <trkpt lat="48.89424" lon="2.33259">
        <ele>61.79999923706</ele>
        <time>2015-07-27T20:09:46Z</time>
      </trkpt>
      <trkpt lat="48.89423" lon="2.33261">
        <ele>62.400001525879</ele>
        <time>2015-07-27T20:09:49Z</time>
      </trkpt>
      <trkpt lat="48.89421" lon="2.33262">
        <ele>63</ele>
        <time>2015-07-27T20:09:52Z</time>
      </trkpt>
      <trkpt lat="48.89415" lon="2.33259">
        <ele>64.199996948242</ele>
        <time>2015-07-27T20:09:56Z</time>
      </trkpt>
      <trkpt lat="48.89413" lon="2.33258">
        <ele>64.599998474121</ele>
        <time>2015-07-27T20:09:59Z</time>
      </trkpt>
      <trkpt lat="48.89414" lon="2.33267">
        <ele>66</ele>
        <time>2015-07-27T20:10:03Z</time>
      </trkpt>
      <trkpt lat="48.89409" lon="2.33281">
        <ele>66.800003051758</ele>
        <time>2015-07-27T20:10:08Z</time>
      </trkpt>
      <trkpt lat="48.89403" lon="2.33287">
        <ele>67.400001525879</ele>
        <time>2015-07-27T20:10:11Z</time>
      </trkpt>
      <trkpt lat="48.89387" lon="2.33293">
        <ele>69</ele>
        <time>2015-07-27T20:10:18Z</time>
      </trkpt>
      <trkpt lat="48.89372" lon="2.33299">
        <ele>70.199996948242</ele>
        <time>2015-07-27T20:10:23Z</time>
      </trkpt>
      <trkpt lat="48.89352" lon="2.33313">
        <ele>71.800003051758</ele>
        <time>2015-07-27T20:10:29Z</time>
      </trkpt>
      <trkpt lat="48.89335" lon="2.33325">
        <ele>73</ele>
        <time>2015-07-27T20:10:33Z</time>
      </trkpt>
      <trkpt lat="48.89315" lon="2.3334">
        <ele>74.599998474121</ele>
        <time>2015-07-27T20:10:39Z</time>
      </trkpt>
      <trkpt lat="48.89303" lon="2.33348">
        <ele>76.400001525879</ele>
        <time>2015-07-27T20:10:44Z</time>
      </trkpt>
      <trkpt lat="48.89298" lon="2.33352">
        <ele>76.599998474121</ele>
        <time>2015-07-27T20:10:45Z</time>
      </trkpt>
      <trkpt lat="48.89278" lon="2.33353">
        <ele>78.199996948242</ele>
        <time>2015-07-27T20:10:51Z</time>
      </trkpt>
      <trkpt lat="48.89265" lon="2.33353">
        <ele>79.199996948242</ele>
        <time>2015-07-27T20:10:55Z</time>
      </trkpt>
      <trkpt lat="48.89245" lon="2.33353">
        <ele>80</ele>
        <time>2015-07-27T20:11:00Z</time>
      </trkpt>
      <trkpt lat="48.89225" lon="2.33352">
        <ele>80.400001525879</ele>
        <time>2015-07-27T20:11:05Z</time>
      </trkpt>
      <trkpt lat="48.89221" lon="2.33351">
        <ele>80.400001525879</ele>
        <time>2015-07-27T20:11:06Z</time>
      </trkpt>
      <trkpt lat="48.89209" lon="2.33348">
        <ele>80.599998474121</ele>
        <time>2015-07-27T20:11:09Z</time>
      </trkpt>
      <trkpt lat="48.89193" lon="2.33345">
        <ele>80.800003051758</ele>
        <time>2015-07-27T20:11:13Z</time>
      </trkpt>
      <trkpt lat="48.89184" lon="2.33345">
        <ele>81</ele>
        <time>2015-07-27T20:11:15Z</time>
      </trkpt>
      <trkpt lat="48.89173" lon="2.33335">
        <ele>81.800003051758</ele>
        <time>2015-07-27T20:11:19Z</time>
      </trkpt>
      <trkpt lat="48.89172" lon="2.3333">
        <ele>82</ele>
        <time>2015-07-27T20:11:20Z</time>
      </trkpt>
      <trkpt lat="48.89162" lon="2.33304">
        <ele>82.599998474121</ele>
        <time>2015-07-27T20:11:26Z</time>
      </trkpt>
      <trkpt lat="48.8915" lon="2.33281">
        <ele>82.800003051758</ele>
        <time>2015-07-27T20:11:31Z</time>
      </trkpt>
      <trkpt lat="48.8914" lon="2.33258">
        <ele>83</ele>
        <time>2015-07-27T20:11:36Z</time>
      </trkpt>
      <trkpt lat="48.8913" lon="2.33232">
        <ele>83</ele>
        <time>2015-07-27T20:11:41Z</time>
      </trkpt>
      <trkpt lat="48.89123" lon="2.33206">
        <ele>83</ele>
        <time>2015-07-27T20:11:46Z</time>
      </trkpt>
      <trkpt lat="48.89113" lon="2.33181">
        <ele>83.199996948242</ele>
        <time>2015-07-27T20:11:51Z</time>
      </trkpt>
      <trkpt lat="48.89102" lon="2.33155">
        <ele>83.199996948242</ele>
        <time>2015-07-27T20:11:57Z</time>
      </trkpt>
      <trkpt lat="48.8909" lon="2.3313">
        <ele>83.199996948242</ele>
        <time>2015-07-27T20:12:02Z</time>
      </trkpt>
      <trkpt lat="48.89077" lon="2.33103">
        <ele>83.800003051758</ele>
        <time>2015-07-27T20:12:07Z</time>
      </trkpt>
      <trkpt lat="48.89066" lon="2.33079">
        <ele>84.400001525879</ele>
        <time>2015-07-27T20:12:11Z</time>
      </trkpt>
      <trkpt lat="48.89062" lon="2.33073">
        <ele>84.400001525879</ele>
        <time>2015-07-27T20:12:12Z</time>
      </trkpt>
      <trkpt lat="48.8906" lon="2.33067">
        <ele>84.599998474121</ele>
        <time>2015-07-27T20:12:13Z</time>
      </trkpt>
      <trkpt lat="48.8905" lon="2.33045">
        <ele>84.800003051758</ele>
        <time>2015-07-27T20:12:17Z</time>
      </trkpt>
      <trkpt lat="48.8904" lon="2.33022">
        <ele>85.400001525879</ele>
        <time>2015-07-27T20:12:21Z</time>
      </trkpt>
      <trkpt lat="48.89036" lon="2.33015">
        <ele>85.599998474121</ele>
        <time>2015-07-27T20:12:22Z</time>
      </trkpt>
      <trkpt lat="48.89023" lon="2.32986">
        <ele>86.199996948242</ele>
        <time>2015-07-27T20:12:26Z</time>
      </trkpt>
      <trkpt lat="48.8902" lon="2.32979">
        <ele>86.199996948242</ele>
        <time>2015-07-27T20:12:27Z</time>
      </trkpt>
      <trkpt lat="48.89008" lon="2.32953">
        <ele>86.599998474121</ele>
        <time>2015-07-27T20:12:31Z</time>
      </trkpt>
      <trkpt lat="48.89003" lon="2.32941">
        <ele>86.800003051758</ele>
        <time>2015-07-27T20:12:33Z</time>
      </trkpt>
      <trkpt lat="48.88997" lon="2.3293">
        <ele>86.800003051758</ele>
        <time>2015-07-27T20:12:35Z</time>
      </trkpt>
      <trkpt lat="48.88992" lon="2.3292">
        <ele>87</ele>
        <time>2015-07-27T20:12:37Z</time>
      </trkpt>
      <trkpt lat="48.88975" lon="2.32891">
        <ele>87</ele>
        <time>2015-07-27T20:12:42Z</time>
      </trkpt>
      <trkpt lat="48.88971" lon="2.32886">
        <ele>87</ele>
        <time>2015-07-27T20:12:43Z</time>
      </trkpt>
      <trkpt lat="48.88954" lon="2.32866">
        <ele>87.199996948242</ele>
        <time>2015-07-27T20:12:47Z</time>
      </trkpt>
      <trkpt lat="48.88938" lon="2.3285">
        <ele>87.199996948242</ele>
        <time>2015-07-27T20:12:51Z</time>
      </trkpt>
      <trkpt lat="48.88921" lon="2.32837">
        <ele>87.199996948242</ele>
        <time>2015-07-27T20:12:55Z</time>
      </trkpt>
      <trkpt lat="48.88902" lon="2.3282">
        <ele>86.400001525879</ele>
        <time>2015-07-27T20:13:00Z</time>
      </trkpt>
      <trkpt lat="48.88882" lon="2.32807">
        <ele>85.800003051758</ele>
        <time>2015-07-27T20:13:05Z</time>
      </trkpt>
      <trkpt lat="48.88878" lon="2.32804">
        <ele>85.599998474121</ele>
        <time>2015-07-27T20:13:06Z</time>
      </trkpt>
      <trkpt lat="48.88866" lon="2.32793">
        <ele>84.800003051758</ele>
        <time>2015-07-27T20:13:09Z</time>
      </trkpt>
      <trkpt lat="48.88863" lon="2.3279">
        <ele>84.599998474121</ele>
        <time>2015-07-27T20:13:10Z</time>
      </trkpt>
      <trkpt lat="48.88856" lon="2.32784">
        <ele>84.400001525879</ele>
        <time>2015-07-27T20:13:12Z</time>
      </trkpt>
      <trkpt lat="48.88839" lon="2.32769">
        <ele>83.800003051758</ele>
        <time>2015-07-27T20:13:17Z</time>
      </trkpt>
      <trkpt lat="48.88824" lon="2.32759">
        <ele>83.400001525879</ele>
        <time>2015-07-27T20:13:22Z</time>
      </trkpt>
      <trkpt lat="48.88822" lon="2.32759">
        <ele>83.400001525879</ele>
        <time>2015-07-27T20:13:23Z</time>
      </trkpt>
      <trkpt lat="48.88806" lon="2.32778">
        <ele>82.800003051758</ele>
        <time>2015-07-27T20:13:30Z</time>
      </trkpt>
      <trkpt lat="48.88799" lon="2.32785">
        <ele>82</ele>
        <time>2015-07-27T20:13:35Z</time>
      </trkpt>
      <trkpt lat="48.88796" lon="2.32786">
        <ele>81.599998474121</ele>
        <time>2015-07-27T20:13:39Z</time>
      </trkpt>
      <trkpt lat="48.88791" lon="2.32794">
        <ele>81.400001525879</ele>
        <time>2015-07-27T20:13:44Z</time>
      </trkpt>
      <trkpt lat="48.8879" lon="2.32795">
        <ele>81.400001525879</ele>
        <time>2015-07-27T20:13:45Z</time>
      </trkpt>
      <trkpt lat="48.88778" lon="2.32803">
        <ele>81.199996948242</ele>
        <time>2015-07-27T20:13:52Z</time>
      </trkpt>
      <trkpt lat="48.88769" lon="2.32815">
        <ele>81</ele>
        <time>2015-07-27T20:13:57Z</time>
      </trkpt>
      <trkpt lat="48.88758" lon="2.32828">
        <ele>81</ele>
        <time>2015-07-27T20:14:02Z</time>
      </trkpt>
      <trkpt lat="48.88747" lon="2.32839">
        <ele>81</ele>
        <time>2015-07-27T20:14:07Z</time>
      </trkpt>
      <trkpt lat="48.88736" lon="2.32852">
        <ele>81</ele>
        <time>2015-07-27T20:14:13Z</time>
      </trkpt>
      <trkpt lat="48.88726" lon="2.32855">
        <ele>81</ele>
        <time>2015-07-27T20:14:17Z</time>
      </trkpt>
      <trkpt lat="48.88717" lon="2.32849">
        <ele>81</ele>
        <time>2015-07-27T20:14:21Z</time>
      </trkpt>
      <trkpt lat="48.8871" lon="2.32839">
        <ele>81</ele>
        <time>2015-07-27T20:14:26Z</time>
      </trkpt>
      <trkpt lat="48.88702" lon="2.3283">
        <ele>81</ele>
        <time>2015-07-27T20:14:30Z</time>
      </trkpt>
      <trkpt lat="48.88701" lon="2.32827">
        <ele>81</ele>
        <time>2015-07-27T20:14:31Z</time>
      </trkpt>
      <trkpt lat="48.88695" lon="2.32811">
        <ele>81.599998474121</ele>
        <time>2015-07-27T20:14:36Z</time>
      </trkpt>
      <trkpt lat="48.8868" lon="2.32789">
        <ele>82.400001525879</ele>
        <time>2015-07-27T20:14:43Z</time>
      </trkpt>
      <trkpt lat="48.88673" lon="2.3278">
        <ele>83.199996948242</ele>
        <time>2015-07-27T20:14:46Z</time>
      </trkpt>
      <trkpt lat="48.88658" lon="2.32788">
        <ele>84</ele>
        <time>2015-07-27T20:14:51Z</time>
      </trkpt>
      <trkpt lat="48.88655" lon="2.3279">
        <ele>84.199996948242</ele>
        <time>2015-07-27T20:14:52Z</time>
      </trkpt>
      <trkpt lat="48.88637" lon="2.32807">
        <ele>84.599998474121</ele>
        <time>2015-07-27T20:14:58Z</time>
      </trkpt>
      <trkpt lat="48.88621" lon="2.32828">
        <ele>84.800003051758</ele>
        <time>2015-07-27T20:15:03Z</time>
      </trkpt>
      <trkpt lat="48.88615" lon="2.32836">
        <ele>85</ele>
        <time>2015-07-27T20:15:05Z</time>
      </trkpt>
      <trkpt lat="48.886" lon="2.32854">
        <ele>85</ele>
        <time>2015-07-27T20:15:09Z</time>
      </trkpt>
      <trkpt lat="48.88593" lon="2.32864">
        <ele>85.400001525879</ele>
        <time>2015-07-27T20:15:11Z</time>
      </trkpt>
      <trkpt lat="48.88579" lon="2.32888">
        <ele>86.199996948242</ele>
        <time>2015-07-27T20:15:16Z</time>
      </trkpt>
      <trkpt lat="48.88571" lon="2.329">
        <ele>86.599998474121</ele>
        <time>2015-07-27T20:15:20Z</time>
      </trkpt>
      <trkpt lat="48.88561" lon="2.3292">
        <ele>86.800003051758</ele>
        <time>2015-07-27T20:15:25Z</time>
      </trkpt>
      <trkpt lat="48.88557" lon="2.32924">
        <ele>86.800003051758</ele>
        <time>2015-07-27T20:15:26Z</time>
      </trkpt>
      <trkpt lat="48.88533" lon="2.32931">
        <ele>87</ele>
        <time>2015-07-27T20:15:32Z</time>
      </trkpt>
      <trkpt lat="48.88514" lon="2.32937">
        <ele>87.199996948242</ele>
        <time>2015-07-27T20:15:36Z</time>
      </trkpt>
      <trkpt lat="48.88494" lon="2.32943">
        <ele>87.199996948242</ele>
        <time>2015-07-27T20:15:40Z</time>
      </trkpt>
      <trkpt lat="48.88483" lon="2.32947">
        <ele>87.199996948242</ele>
        <time>2015-07-27T20:15:43Z</time>
      </trkpt>
      <trkpt lat="48.88475" lon="2.32949">
        <ele>87.199996948242</ele>
        <time>2015-07-27T20:15:47Z</time>
      </trkpt>
      <trkpt lat="48.88472" lon="2.3295">
        <ele>87.199996948242</ele>
        <time>2015-07-27T20:15:53Z</time>
      </trkpt>
      <trkpt lat="48.88467" lon="2.32954">
        <ele>88.400001525879</ele>
        <time>2015-07-27T20:16:09Z</time>
      </trkpt>
      <trkpt lat="48.88467" lon="2.32954">
        <ele>88.599998474121</ele>
        <time>2015-07-27T20:16:10Z</time>
      </trkpt>
      <trkpt lat="48.88463" lon="2.32964">
        <ele>89.599998474121</ele>
        <time>2015-07-27T20:16:14Z</time>
      </trkpt>
      <trkpt lat="48.88462" lon="2.32967">
        <ele>89.800003051758</ele>
        <time>2015-07-27T20:16:15Z</time>
      </trkpt>
      <trkpt lat="48.88462" lon="2.32979">
        <ele>90.400001525879</ele>
        <time>2015-07-27T20:16:20Z</time>
      </trkpt>
      <trkpt lat="48.88461" lon="2.32983">
        <ele>91</ele>
        <time>2015-07-27T20:16:26Z</time>
      </trkpt>
      <trkpt lat="48.88458" lon="2.32983">
        <ele>91</ele>
        <time>2015-07-27T20:16:30Z</time>
      </trkpt>
      <trkpt lat="48.88448" lon="2.32984">
        <ele>91.199996948242</ele>
        <time>2015-07-27T20:16:34Z</time>
      </trkpt>
      <trkpt lat="48.88442" lon="2.32993">
        <ele>91.199996948242</ele>
        <time>2015-07-27T20:16:37Z</time>
      </trkpt>
      <trkpt lat="48.88435" lon="2.33011">
        <ele>91.400001525879</ele>
        <time>2015-07-27T20:16:42Z</time>
      </trkpt>
      <trkpt lat="48.88431" lon="2.3303">
        <ele>91.400001525879</ele>
        <time>2015-07-27T20:16:46Z</time>
      </trkpt>
      <trkpt lat="48.88428" lon="2.33041">
        <ele>90.599998474121</ele>
        <time>2015-07-27T20:16:50Z</time>
      </trkpt>
      <trkpt lat="48.88424" lon="2.33045">
        <ele>90.199996948242</ele>
        <time>2015-07-27T20:16:55Z</time>
      </trkpt>
      <trkpt lat="48.88425" lon="2.33041">
        <ele>89.800003051758</ele>
        <time>2015-07-27T20:16:59Z</time>
      </trkpt>
      <trkpt lat="48.8843" lon="2.33046">
        <ele>89.400001525879</ele>
        <time>2015-07-27T20:17:14Z</time>
      </trkpt>
      <trkpt lat="48.88427" lon="2.33062">
        <ele>89.400001525879</ele>
        <time>2015-07-27T20:17:19Z</time>
      </trkpt>
      <trkpt lat="48.88423" lon="2.3308">
        <ele>89.400001525879</ele>
        <time>2015-07-27T20:17:23Z</time>
      </trkpt>
      <trkpt lat="48.88413" lon="2.33081">
        <ele>89.400001525879</ele>
        <time>2015-07-27T20:17:27Z</time>
      </trkpt>
      <trkpt lat="48.88403" lon="2.33075">
        <ele>89</ele>
        <time>2015-07-27T20:17:30Z</time>
      </trkpt>
      <trkpt lat="48.88397" lon="2.33072">
        <ele>88.599998474121</ele>
        <time>2015-07-27T20:17:32Z</time>
      </trkpt>
      <trkpt lat="48.88384" lon="2.33059">
        <ele>88.199996948242</ele>
        <time>2015-07-27T20:17:36Z</time>
      </trkpt>
      <trkpt lat="48.88369" lon="2.33047">
        <ele>87.800003051758</ele>
        <time>2015-07-27T20:17:40Z</time>
      </trkpt>
      <trkpt lat="48.88351" lon="2.3303">
        <ele>87.199996948242</ele>
        <time>2015-07-27T20:17:46Z</time>
      </trkpt>
      <trkpt lat="48.88348" lon="2.3303">
        <ele>87</ele>
        <time>2015-07-27T20:17:47Z</time>
      </trkpt>
      <trkpt lat="48.88338" lon="2.33032">
        <ele>86.199996948242</ele>
        <time>2015-07-27T20:17:52Z</time>
      </trkpt>
      <trkpt lat="48.88333" lon="2.33029">
        <ele>85.800003051758</ele>
        <time>2015-07-27T20:17:56Z</time>
      </trkpt>
      <trkpt lat="48.88324" lon="2.33021">
        <ele>85</ele>
        <time>2015-07-27T20:18:02Z</time>
      </trkpt>
      <trkpt lat="48.88318" lon="2.33013">
        <ele>84.400001525879</ele>
        <time>2015-07-27T20:18:06Z</time>
      </trkpt>
      <trkpt lat="48.88318" lon="2.33011">
        <ele>84.199996948242</ele>
        <time>2015-07-27T20:18:07Z</time>
      </trkpt>
      <trkpt lat="48.88305" lon="2.32991">
        <ele>83.400001525879</ele>
        <time>2015-07-27T20:18:12Z</time>
      </trkpt>
      <trkpt lat="48.88297" lon="2.32986">
        <ele>82.599998474121</ele>
        <time>2015-07-27T20:18:15Z</time>
      </trkpt>
      <trkpt lat="48.88291" lon="2.32993">
        <ele>82</ele>
        <time>2015-07-27T20:18:19Z</time>
      </trkpt>
      <trkpt lat="48.88287" lon="2.33002">
        <ele>81.800003051758</ele>
        <time>2015-07-27T20:18:21Z</time>
      </trkpt>
      <trkpt lat="48.88276" lon="2.33031">
        <ele>81.400001525879</ele>
        <time>2015-07-27T20:18:26Z</time>
      </trkpt>
      <trkpt lat="48.88267" lon="2.33058">
        <ele>81.199996948242</ele>
        <time>2015-07-27T20:18:30Z</time>
      </trkpt>
      <trkpt lat="48.88257" lon="2.33085">
        <ele>80.400001525879</ele>
        <time>2015-07-27T20:18:34Z</time>
      </trkpt>
      <trkpt lat="48.88246" lon="2.33113">
        <ele>80</ele>
        <time>2015-07-27T20:18:38Z</time>
      </trkpt>
      <trkpt lat="48.88238" lon="2.33137">
        <ele>79.599998474121</ele>
        <time>2015-07-27T20:18:41Z</time>
      </trkpt>
      <trkpt lat="48.88222" lon="2.33183">
        <ele>78.800003051758</ele>
        <time>2015-07-27T20:18:48Z</time>
      </trkpt>
      <trkpt lat="48.88209" lon="2.33181">
        <ele>78.199996948242</ele>
        <time>2015-07-27T20:18:51Z</time>
      </trkpt>
      <trkpt lat="48.88194" lon="2.33175">
        <ele>77.800003051758</ele>
        <time>2015-07-27T20:18:54Z</time>
      </trkpt>
      <trkpt lat="48.88183" lon="2.33172">
        <ele>77.199996948242</ele>
        <time>2015-07-27T20:18:56Z</time>
      </trkpt>
      <trkpt lat="48.88172" lon="2.33169">
        <ele>76.800003051758</ele>
        <time>2015-07-27T20:18:58Z</time>
      </trkpt>
      <trkpt lat="48.88154" lon="2.33161">
        <ele>76.199996948242</ele>
        <time>2015-07-27T20:19:01Z</time>
      </trkpt>
      <trkpt lat="48.88149" lon="2.33159">
        <ele>76</ele>
        <time>2015-07-27T20:19:02Z</time>
      </trkpt>
      <trkpt lat="48.88129" lon="2.33156">
        <ele>75.400001525879</ele>
        <time>2015-07-27T20:19:05Z</time>
      </trkpt>
      <trkpt lat="48.88108" lon="2.3315">
        <ele>74.599998474121</ele>
        <time>2015-07-27T20:19:08Z</time>
      </trkpt>
      <trkpt lat="48.88101" lon="2.33147">
        <ele>74.400001525879</ele>
        <time>2015-07-27T20:19:09Z</time>
      </trkpt>
      <trkpt lat="48.88069" lon="2.33142">
        <ele>73.800003051758</ele>
        <time>2015-07-27T20:19:13Z</time>
      </trkpt>
      <trkpt lat="48.88046" lon="2.3314">
        <ele>73.400001525879</ele>
        <time>2015-07-27T20:19:16Z</time>
      </trkpt>
      <trkpt lat="48.88023" lon="2.33138">
        <ele>72.400001525879</ele>
        <time>2015-07-27T20:19:20Z</time>
      </trkpt>
      <trkpt lat="48.88001" lon="2.3314">
        <ele>71.800003051758</ele>
        <time>2015-07-27T20:19:24Z</time>
      </trkpt>
      <trkpt lat="48.87982" lon="2.33139">
        <ele>71.400001525879</ele>
        <time>2015-07-27T20:19:27Z</time>
      </trkpt>
      <trkpt lat="48.87962" lon="2.3314">
        <ele>71.199996948242</ele>
        <time>2015-07-27T20:19:30Z</time>
      </trkpt>
      <trkpt lat="48.87941" lon="2.33141">
        <ele>71</ele>
        <time>2015-07-27T20:19:33Z</time>
      </trkpt>
      <trkpt lat="48.87921" lon="2.33141">
        <ele>70.199996948242</ele>
        <time>2015-07-27T20:19:36Z</time>
      </trkpt>
      <trkpt lat="48.87902" lon="2.33143">
        <ele>69.800003051758</ele>
        <time>2015-07-27T20:19:39Z</time>
      </trkpt>
      <trkpt lat="48.87895" lon="2.33144">
        <ele>69.599998474121</ele>
        <time>2015-07-27T20:19:40Z</time>
      </trkpt>
      <trkpt lat="48.87877" lon="2.33154">
        <ele>69.400001525879</ele>
        <time>2015-07-27T20:19:43Z</time>
      </trkpt>
      <trkpt lat="48.87858" lon="2.33164">
        <ele>69</ele>
        <time>2015-07-27T20:19:46Z</time>
      </trkpt>
      <trkpt lat="48.87839" lon="2.33172">
        <ele>69</ele>
        <time>2015-07-27T20:19:49Z</time>
      </trkpt>
      <trkpt lat="48.87819" lon="2.3318">
        <ele>68.800003051758</ele>
        <time>2015-07-27T20:19:52Z</time>
      </trkpt>
      <trkpt lat="48.87798" lon="2.33189">
        <ele>68.199996948242</ele>
        <time>2015-07-27T20:19:55Z</time>
      </trkpt>
      <trkpt lat="48.87785" lon="2.33195">
        <ele>67.800003051758</ele>
        <time>2015-07-27T20:19:57Z</time>
      </trkpt>
      <trkpt lat="48.87759" lon="2.33204">
        <ele>67</ele>
        <time>2015-07-27T20:20:01Z</time>
      </trkpt>
      <trkpt lat="48.87739" lon="2.33209">
        <ele>66.400001525879</ele>
        <time>2015-07-27T20:20:04Z</time>
      </trkpt>
      <trkpt lat="48.87733" lon="2.33213">
        <ele>66.199996948242</ele>
        <time>2015-07-27T20:20:05Z</time>
      </trkpt>
      <trkpt lat="48.87714" lon="2.33223">
        <ele>65.599998474121</ele>
        <time>2015-07-27T20:20:08Z</time>
      </trkpt>
      <trkpt lat="48.87702" lon="2.33226">
        <ele>65.199996948242</ele>
        <time>2015-07-27T20:20:10Z</time>
      </trkpt>
      <trkpt lat="48.87691" lon="2.3323">
        <ele>64.599998474121</ele>
        <time>2015-07-27T20:20:12Z</time>
      </trkpt>
      <trkpt lat="48.87674" lon="2.33235">
        <ele>63.79999923706</ele>
        <time>2015-07-27T20:20:16Z</time>
      </trkpt>
      <trkpt lat="48.87668" lon="2.33237">
        <ele>63</ele>
        <time>2015-07-27T20:20:18Z</time>
      </trkpt>
      <trkpt lat="48.87667" lon="2.33236">
        <ele>61.20000076294</ele>
        <time>2015-07-27T20:20:23Z</time>
      </trkpt>
      <trkpt lat="48.87667" lon="2.33235">
        <ele>60.79999923706</ele>
        <time>2015-07-27T20:20:24Z</time>
      </trkpt>
      <trkpt lat="48.87659" lon="2.33217">
        <ele>59</ele>
        <time>2015-07-27T20:20:29Z</time>
      </trkpt>
      <trkpt lat="48.87648" lon="2.33189">
        <ele>57.400001525879</ele>
        <time>2015-07-27T20:20:34Z</time>
      </trkpt>
      <trkpt lat="48.87644" lon="2.33178">
        <ele>56.599998474121</ele>
        <time>2015-07-27T20:20:36Z</time>
      </trkpt>
      <trkpt lat="48.87635" lon="2.33179">
        <ele>55.599998474121</ele>
        <time>2015-07-27T20:20:40Z</time>
      </trkpt>
      <trkpt lat="48.8763" lon="2.33183">
        <ele>55</ele>
        <time>2015-07-27T20:20:43Z</time>
      </trkpt>
      <trkpt lat="48.87631" lon="2.33182">
        <ele>54.599998474121</ele>
        <time>2015-07-27T20:20:45Z</time>
      </trkpt>
      <trkpt lat="48.87634" lon="2.33191">
        <ele>53.400001525879</ele>
        <time>2015-07-27T20:20:49Z</time>
      </trkpt>
      <trkpt lat="48.87638" lon="2.33197">
        <ele>52.400001525879</ele>
        <time>2015-07-27T20:20:56Z</time>
      </trkpt>
      <trkpt lat="48.87635" lon="2.33192">
        <ele>50.79999923706</ele>
        <time>2015-07-27T20:21:11Z</time>
      </trkpt>
      <trkpt lat="48.87634" lon="2.3319">
        <ele>50.599998474121</ele>
        <time>2015-07-27T20:21:12Z</time>
      </trkpt>
      <trkpt lat="48.8762" lon="2.33191">
        <ele>50</ele>
        <time>2015-07-27T20:21:18Z</time>
      </trkpt>
      <trkpt lat="48.87602" lon="2.33196">
        <ele>48.79999923706</ele>
        <time>2015-07-27T20:21:24Z</time>
      </trkpt>
      <trkpt lat="48.87585" lon="2.33203">
        <ele>48.20000076294</ele>
        <time>2015-07-27T20:21:28Z</time>
      </trkpt>
      <trkpt lat="48.87575" lon="2.33205">
        <ele>48</ele>
        <time>2015-07-27T20:21:30Z</time>
      </trkpt>
      <trkpt lat="48.8756" lon="2.33211">
        <ele>47.79999923706</ele>
        <time>2015-07-27T20:21:33Z</time>
      </trkpt>
      <trkpt lat="48.87534" lon="2.33223">
        <ele>47.599998474121</ele>
        <time>2015-07-27T20:21:38Z</time>
      </trkpt>
      <trkpt lat="48.87529" lon="2.33226">
        <ele>47.599998474121</ele>
        <time>2015-07-27T20:21:39Z</time>
      </trkpt>
      <trkpt lat="48.87508" lon="2.33237">
        <ele>47.400001525879</ele>
        <time>2015-07-27T20:21:43Z</time>
      </trkpt>
      <trkpt lat="48.87488" lon="2.33247">
        <ele>47.400001525879</ele>
        <time>2015-07-27T20:21:46Z</time>
      </trkpt>
      <trkpt lat="48.87466" lon="2.33257">
        <ele>47.20000076294</ele>
        <time>2015-07-27T20:21:50Z</time>
      </trkpt>
      <trkpt lat="48.8745" lon="2.33262">
        <ele>47.20000076294</ele>
        <time>2015-07-27T20:21:53Z</time>
      </trkpt>
      <trkpt lat="48.87433" lon="2.33269">
        <ele>47.20000076294</ele>
        <time>2015-07-27T20:21:57Z</time>
      </trkpt>
      <trkpt lat="48.87429" lon="2.33268">
        <ele>47.20000076294</ele>
        <time>2015-07-27T20:22:04Z</time>
      </trkpt>
      <trkpt lat="48.87428" lon="2.33272">
        <ele>47.20000076294</ele>
        <time>2015-07-27T20:22:07Z</time>
      </trkpt>
      <trkpt lat="48.87405" lon="2.33285">
        <ele>47.20000076294</ele>
        <time>2015-07-27T20:22:12Z</time>
      </trkpt>
      <trkpt lat="48.87387" lon="2.33294">
        <ele>47.20000076294</ele>
        <time>2015-07-27T20:22:15Z</time>
      </trkpt>
      <trkpt lat="48.8738" lon="2.33298">
        <ele>47.20000076294</ele>
        <time>2015-07-27T20:22:16Z</time>
      </trkpt>
      <trkpt lat="48.87356" lon="2.33306">
        <ele>47.20000076294</ele>
        <time>2015-07-27T20:22:20Z</time>
      </trkpt>
      <trkpt lat="48.87344" lon="2.3331">
        <ele>47.20000076294</ele>
        <time>2015-07-27T20:22:22Z</time>
      </trkpt>
      <trkpt lat="48.87329" lon="2.33319">
        <ele>47.20000076294</ele>
        <time>2015-07-27T20:22:25Z</time>
      </trkpt>
      <trkpt lat="48.87315" lon="2.33327">
        <ele>47.20000076294</ele>
        <time>2015-07-27T20:22:29Z</time>
      </trkpt>
      <trkpt lat="48.87312" lon="2.33328">
        <ele>47.20000076294</ele>
        <time>2015-07-27T20:22:31Z</time>
      </trkpt>
      <trkpt lat="48.87308" lon="2.3333">
        <ele>47.79999923706</ele>
        <time>2015-07-27T20:22:35Z</time>
      </trkpt>
      <trkpt lat="48.87298" lon="2.33343">
        <ele>48.400001525879</ele>
        <time>2015-07-27T20:22:41Z</time>
      </trkpt>
      <trkpt lat="48.87291" lon="2.33346">
        <ele>49</ele>
        <time>2015-07-27T20:22:43Z</time>
      </trkpt>
      <trkpt lat="48.87271" lon="2.33349">
        <ele>50.20000076294</ele>
        <time>2015-07-27T20:22:49Z</time>
      </trkpt>
      <trkpt lat="48.87256" lon="2.33354">
        <ele>50.79999923706</ele>
        <time>2015-07-27T20:22:53Z</time>
      </trkpt>
      <trkpt lat="48.87239" lon="2.33362">
        <ele>51</ele>
        <time>2015-07-27T20:22:57Z</time>
      </trkpt>
      <trkpt lat="48.87221" lon="2.3337">
        <ele>51.20000076294</ele>
        <time>2015-07-27T20:23:01Z</time>
      </trkpt>
      <trkpt lat="48.87216" lon="2.33372">
        <ele>51.20000076294</ele>
        <time>2015-07-27T20:23:02Z</time>
      </trkpt>
      <trkpt lat="48.87211" lon="2.33374">
        <ele>51.400001525879</ele>
        <time>2015-07-27T20:23:03Z</time>
      </trkpt>
      <trkpt lat="48.87186" lon="2.33382">
        <ele>51.400001525879</ele>
        <time>2015-07-27T20:23:08Z</time>
      </trkpt>
      <trkpt lat="48.87181" lon="2.33383">
        <ele>51.400001525879</ele>
        <time>2015-07-27T20:23:09Z</time>
      </trkpt>
      <trkpt lat="48.87155" lon="2.33391">
        <ele>51.599998474121</ele>
        <time>2015-07-27T20:23:14Z</time>
      </trkpt>
      <trkpt lat="48.87137" lon="2.33395">
        <ele>52.20000076294</ele>
        <time>2015-07-27T20:23:18Z</time>
      </trkpt>
      <trkpt lat="48.8712" lon="2.33401">
        <ele>52.599998474121</ele>
        <time>2015-07-27T20:23:22Z</time>
      </trkpt>
      <trkpt lat="48.871" lon="2.33409">
        <ele>53.79999923706</ele>
        <time>2015-07-27T20:23:28Z</time>
      </trkpt>
      <trkpt lat="48.87098" lon="2.3341">
        <ele>54</ele>
        <time>2015-07-27T20:23:29Z</time>
      </trkpt>
      <trkpt lat="48.87098" lon="2.33416">
        <ele>54.79999923706</ele>
        <time>2015-07-27T20:23:36Z</time>
      </trkpt>
      <trkpt lat="48.87093" lon="2.33424">
        <ele>55.20000076294</ele>
        <time>2015-07-27T20:23:40Z</time>
      </trkpt>
      <trkpt lat="48.8709" lon="2.33447">
        <ele>55.400001525879</ele>
        <time>2015-07-27T20:23:45Z</time>
      </trkpt>
      <trkpt lat="48.87092" lon="2.3345">
        <ele>55.400001525879</ele>
        <time>2015-07-27T20:23:48Z</time>
      </trkpt>
      <trkpt lat="48.87093" lon="2.3346">
        <ele>54.79999923706</ele>
        <time>2015-07-27T20:23:53Z</time>
      </trkpt>
      <trkpt lat="48.87092" lon="2.33464">
        <ele>54.599998474121</ele>
        <time>2015-07-27T20:23:54Z</time>
      </trkpt>
      <trkpt lat="48.87084" lon="2.3347">
        <ele>54.20000076294</ele>
        <time>2015-07-27T20:23:58Z</time>
      </trkpt>
      <trkpt lat="48.87068" lon="2.33473">
        <ele>54</ele>
        <time>2015-07-27T20:24:03Z</time>
      </trkpt>
      <trkpt lat="48.87048" lon="2.33475">
        <ele>53.79999923706</ele>
        <time>2015-07-27T20:24:08Z</time>
      </trkpt>
      <trkpt lat="48.87028" lon="2.33478">
        <ele>53.79999923706</ele>
        <time>2015-07-27T20:24:13Z</time>
      </trkpt>
      <trkpt lat="48.87013" lon="2.33482">
        <ele>53.79999923706</ele>
        <time>2015-07-27T20:24:17Z</time>
      </trkpt>
      <trkpt lat="48.86997" lon="2.3348">
        <ele>53.79999923706</ele>
        <time>2015-07-27T20:24:21Z</time>
      </trkpt>
      <trkpt lat="48.86984" lon="2.33481">
        <ele>53.599998474121</ele>
        <time>2015-07-27T20:24:25Z</time>
      </trkpt>
      <trkpt lat="48.8698" lon="2.3348">
        <ele>53.599998474121</ele>
        <time>2015-07-27T20:24:26Z</time>
      </trkpt>
      <trkpt lat="48.86964" lon="2.33475">
        <ele>53.20000076294</ele>
        <time>2015-07-27T20:24:30Z</time>
      </trkpt>
      <trkpt lat="48.86951" lon="2.33473">
        <ele>52.79999923706</ele>
        <time>2015-07-27T20:24:33Z</time>
      </trkpt>
      <trkpt lat="48.86947" lon="2.33474">
        <ele>52.599998474121</ele>
        <time>2015-07-27T20:24:34Z</time>
      </trkpt>
      <trkpt lat="48.86918" lon="2.33463">
        <ele>52</ele>
        <time>2015-07-27T20:24:41Z</time>
      </trkpt>
      <trkpt lat="48.86914" lon="2.33461">
        <ele>52</ele>
        <time>2015-07-27T20:24:42Z</time>
      </trkpt>
      <trkpt lat="48.86901" lon="2.33455">
        <ele>52</ele>
        <time>2015-07-27T20:24:45Z</time>
      </trkpt>
      <trkpt lat="48.86893" lon="2.33445">
        <ele>51.599998474121</ele>
        <time>2015-07-27T20:24:48Z</time>
      </trkpt>
      <trkpt lat="48.86893" lon="2.3347">
        <ele>50.79999923706</ele>
        <time>2015-07-27T20:24:53Z</time>
      </trkpt>
      <trkpt lat="48.86893" lon="2.33504">
        <ele>50</ele>
        <time>2015-07-27T20:24:57Z</time>
      </trkpt>
      <trkpt lat="48.86893" lon="2.33533">
        <ele>49.20000076294</ele>
        <time>2015-07-27T20:25:00Z</time>
      </trkpt>
      <trkpt lat="48.86894" lon="2.33559">
        <ele>48.79999923706</ele>
        <time>2015-07-27T20:25:03Z</time>
      </trkpt>
      <trkpt lat="48.86894" lon="2.33584">
        <ele>48.400001525879</ele>
        <time>2015-07-27T20:25:06Z</time>
      </trkpt>
      <trkpt lat="48.86894" lon="2.33616">
        <ele>48</ele>
        <time>2015-07-27T20:25:10Z</time>
      </trkpt>
      <trkpt lat="48.86894" lon="2.3365">
        <ele>47.79999923706</ele>
        <time>2015-07-27T20:25:15Z</time>
      </trkpt>
      <trkpt lat="48.86894" lon="2.33662">
        <ele>47.79999923706</ele>
        <time>2015-07-27T20:25:17Z</time>
      </trkpt>
      <trkpt lat="48.86894" lon="2.33678">
        <ele>47.599998474121</ele>
        <time>2015-07-27T20:25:20Z</time>
      </trkpt>
      <trkpt lat="48.86891" lon="2.33699">
        <ele>47.599998474121</ele>
        <time>2015-07-27T20:25:24Z</time>
      </trkpt>
      <trkpt lat="48.8689" lon="2.3373">
        <ele>47.400001525879</ele>
        <time>2015-07-27T20:25:29Z</time>
      </trkpt>
      <trkpt lat="48.86893" lon="2.33751">
        <ele>47.400001525879</ele>
        <time>2015-07-27T20:25:32Z</time>
      </trkpt>
      <trkpt lat="48.86893" lon="2.33765">
        <ele>47.400001525879</ele>
        <time>2015-07-27T20:25:34Z</time>
      </trkpt>
      <trkpt lat="48.86894" lon="2.33785">
        <ele>47.400001525879</ele>
        <time>2015-07-27T20:25:37Z</time>
      </trkpt>
      <trkpt lat="48.86893" lon="2.33826">
        <ele>47.400001525879</ele>
        <time>2015-07-27T20:25:42Z</time>
      </trkpt>
      <trkpt lat="48.86892" lon="2.3384">
        <ele>47.400001525879</ele>
        <time>2015-07-27T20:25:44Z</time>
      </trkpt>
      <trkpt lat="48.86892" lon="2.33862">
        <ele>47.400001525879</ele>
        <time>2015-07-27T20:25:48Z</time>
      </trkpt>
      <trkpt lat="48.86893" lon="2.33888">
        <ele>47.400001525879</ele>
        <time>2015-07-27T20:25:52Z</time>
      </trkpt>
      <trkpt lat="48.86892" lon="2.33924">
        <ele>47.400001525879</ele>
        <time>2015-07-27T20:25:57Z</time>
      </trkpt>
      <trkpt lat="48.86893" lon="2.33931">
        <ele>47.400001525879</ele>
        <time>2015-07-27T20:25:58Z</time>
      </trkpt>
      <trkpt lat="48.86903" lon="2.33968">
        <ele>47.400001525879</ele>
        <time>2015-07-27T20:26:03Z</time>
      </trkpt>
      <trkpt lat="48.86906" lon="2.33994">
        <ele>47.400001525879</ele>
        <time>2015-07-27T20:26:07Z</time>
      </trkpt>
      <trkpt lat="48.86896" lon="2.34012">
        <ele>47.400001525879</ele>
        <time>2015-07-27T20:26:11Z</time>
      </trkpt>
      <trkpt lat="48.86889" lon="2.34011">
        <ele>47.400001525879</ele>
        <time>2015-07-27T20:26:13Z</time>
      </trkpt>
      <trkpt lat="48.86871" lon="2.34002">
        <ele>47.400001525879</ele>
        <time>2015-07-27T20:26:18Z</time>
      </trkpt>
      <trkpt lat="48.86862" lon="2.33998">
        <ele>47.400001525879</ele>
        <time>2015-07-27T20:26:21Z</time>
      </trkpt>
      <trkpt lat="48.86852" lon="2.33992">
        <ele>47.400001525879</ele>
        <time>2015-07-27T20:26:24Z</time>
      </trkpt>
      <trkpt lat="48.86836" lon="2.33991">
        <ele>47.400001525879</ele>
        <time>2015-07-27T20:26:28Z</time>
      </trkpt>
      <trkpt lat="48.86823" lon="2.33986">
        <ele>47.400001525879</ele>
        <time>2015-07-27T20:26:31Z</time>
      </trkpt>
      <trkpt lat="48.86798" lon="2.33973">
        <ele>47.400001525879</ele>
        <time>2015-07-27T20:26:36Z</time>
      </trkpt>
      <trkpt lat="48.86788" lon="2.33968">
        <ele>47.400001525879</ele>
        <time>2015-07-27T20:26:38Z</time>
      </trkpt>
      <trkpt lat="48.86773" lon="2.3396">
        <ele>46.79999923706</ele>
        <time>2015-07-27T20:26:43Z</time>
      </trkpt>
      <trkpt lat="48.86771" lon="2.33959">
        <ele>46.599998474121</ele>
        <time>2015-07-27T20:26:44Z</time>
      </trkpt>
      <trkpt lat="48.86766" lon="2.33956">
        <ele>46.400001525879</ele>
        <time>2015-07-27T20:26:45Z</time>
      </trkpt>
      <trkpt lat="48.86751" lon="2.33944">
        <ele>46</ele>
        <time>2015-07-27T20:26:49Z</time>
      </trkpt>
      <trkpt lat="48.86736" lon="2.33933">
        <ele>45.79999923706</ele>
        <time>2015-07-27T20:26:53Z</time>
      </trkpt>
      <trkpt lat="48.86732" lon="2.3393">
        <ele>45.79999923706</ele>
        <time>2015-07-27T20:26:54Z</time>
      </trkpt>
      <trkpt lat="48.86715" lon="2.33918">
        <ele>45.599998474121</ele>
        <time>2015-07-27T20:26:57Z</time>
      </trkpt>
      <trkpt lat="48.86703" lon="2.3391">
        <ele>45.599998474121</ele>
        <time>2015-07-27T20:26:59Z</time>
      </trkpt>
      <trkpt lat="48.8668" lon="2.33891">
        <ele>45.599998474121</ele>
        <time>2015-07-27T20:27:03Z</time>
      </trkpt>
      <trkpt lat="48.86674" lon="2.33886">
        <ele>45.400001525879</ele>
        <time>2015-07-27T20:27:04Z</time>
      </trkpt>
      <trkpt lat="48.86649" lon="2.33875">
        <ele>45.400001525879</ele>
        <time>2015-07-27T20:27:10Z</time>
      </trkpt>
      <trkpt lat="48.86642" lon="2.33873">
        <ele>45.400001525879</ele>
        <time>2015-07-27T20:27:13Z</time>
      </trkpt>
      <trkpt lat="48.86638" lon="2.33874">
        <ele>45.400001525879</ele>
        <time>2015-07-27T20:27:15Z</time>
      </trkpt>
      <trkpt lat="48.86636" lon="2.33878">
        <ele>45.400001525879</ele>
        <time>2015-07-27T20:27:18Z</time>
      </trkpt>
      <trkpt lat="48.86634" lon="2.33875">
        <ele>45.400001525879</ele>
        <time>2015-07-27T20:27:28Z</time>
      </trkpt>
      <trkpt lat="48.86628" lon="2.33868">
        <ele>45.400001525879</ele>
        <time>2015-07-27T20:27:34Z</time>
      </trkpt>
      <trkpt lat="48.86626" lon="2.33867">
        <ele>45.400001525879</ele>
        <time>2015-07-27T20:27:35Z</time>
      </trkpt>
      <trkpt lat="48.86624" lon="2.33865">
        <ele>45.400001525879</ele>
        <time>2015-07-27T20:27:38Z</time>
      </trkpt>
      <trkpt lat="48.86621" lon="2.33866">
        <ele>45.400001525879</ele>
        <time>2015-07-27T20:27:40Z</time>
      </trkpt>
      <trkpt lat="48.86617" lon="2.33871">
        <ele>45.400001525879</ele>
        <time>2015-07-27T20:27:43Z</time>
      </trkpt>
      <trkpt lat="48.86612" lon="2.33893">
        <ele>45.400001525879</ele>
        <time>2015-07-27T20:27:50Z</time>
      </trkpt>
      <trkpt lat="48.86611" lon="2.33895">
        <ele>45.400001525879</ele>
        <time>2015-07-27T20:27:51Z</time>
      </trkpt>
      <trkpt lat="48.86609" lon="2.33903">
        <ele>45.400001525879</ele>
        <time>2015-07-27T20:27:54Z</time>
      </trkpt>
      <trkpt lat="48.86607" lon="2.33922">
        <ele>45.400001525879</ele>
        <time>2015-07-27T20:27:59Z</time>
      </trkpt>
      <trkpt lat="48.86605" lon="2.33924">
        <ele>45.400001525879</ele>
        <time>2015-07-27T20:28:00Z</time>
      </trkpt>
      <trkpt lat="48.86595" lon="2.33921">
        <ele>45.20000076294</ele>
        <time>2015-07-27T20:28:03Z</time>
      </trkpt>
      <trkpt lat="48.86574" lon="2.33908">
        <ele>44.400001525879</ele>
        <time>2015-07-27T20:28:07Z</time>
      </trkpt>
      <trkpt lat="48.86551" lon="2.3389">
        <ele>43.599998474121</ele>
        <time>2015-07-27T20:28:12Z</time>
      </trkpt>
      <trkpt lat="48.86548" lon="2.33887">
        <ele>43.400001525879</ele>
        <time>2015-07-27T20:28:13Z</time>
      </trkpt>
      <trkpt lat="48.86534" lon="2.33879">
        <ele>42.79999923706</ele>
        <time>2015-07-27T20:28:16Z</time>
      </trkpt>
      <trkpt lat="48.8651" lon="2.33875">
        <ele>42</ele>
        <time>2015-07-27T20:28:21Z</time>
      </trkpt>
      <trkpt lat="48.86499" lon="2.33874">
        <ele>41.79999923706</ele>
        <time>2015-07-27T20:28:23Z</time>
      </trkpt>
      <trkpt lat="48.86487" lon="2.33872">
        <ele>41.79999923706</ele>
        <time>2015-07-27T20:28:25Z</time>
      </trkpt>
      <trkpt lat="48.8647" lon="2.33869">
        <ele>41.599998474121</ele>
        <time>2015-07-27T20:28:28Z</time>
      </trkpt>
      <trkpt lat="48.86445" lon="2.33854">
        <ele>41.400001525879</ele>
        <time>2015-07-27T20:28:32Z</time>
      </trkpt>
      <trkpt lat="48.86439" lon="2.33852">
        <ele>41.400001525879</ele>
        <time>2015-07-27T20:28:33Z</time>
      </trkpt>
      <trkpt lat="48.86419" lon="2.33838">
        <ele>41.20000076294</ele>
        <time>2015-07-27T20:28:36Z</time>
      </trkpt>
      <trkpt lat="48.86402" lon="2.33827">
        <ele>41.20000076294</ele>
        <time>2015-07-27T20:28:39Z</time>
      </trkpt>
      <trkpt lat="48.86377" lon="2.33812">
        <ele>41.599998474121</ele>
        <time>2015-07-27T20:28:44Z</time>
      </trkpt>
      <trkpt lat="48.86373" lon="2.3381">
        <ele>41.79999923706</ele>
        <time>2015-07-27T20:28:45Z</time>
      </trkpt>
      <trkpt lat="48.86366" lon="2.33807">
        <ele>42</ele>
        <time>2015-07-27T20:28:47Z</time>
      </trkpt>
      <trkpt lat="48.86354" lon="2.33797">
        <ele>42.20000076294</ele>
        <time>2015-07-27T20:28:50Z</time>
      </trkpt>
      <trkpt lat="48.86347" lon="2.33794">
        <ele>42.400001525879</ele>
        <time>2015-07-27T20:28:52Z</time>
      </trkpt>
      <trkpt lat="48.86331" lon="2.33788">
        <ele>43.20000076294</ele>
        <time>2015-07-27T20:28:58Z</time>
      </trkpt>
      <trkpt lat="48.86328" lon="2.33787">
        <ele>43.400001525879</ele>
        <time>2015-07-27T20:28:59Z</time>
      </trkpt>
      <trkpt lat="48.86315" lon="2.3378">
        <ele>44.20000076294</ele>
        <time>2015-07-27T20:29:04Z</time>
      </trkpt>
      <trkpt lat="48.86312" lon="2.33779">
        <ele>44.20000076294</ele>
        <time>2015-07-27T20:29:05Z</time>
      </trkpt>
      <trkpt lat="48.863" lon="2.33774">
        <ele>44.79999923706</ele>
        <time>2015-07-27T20:29:09Z</time>
      </trkpt>
      <trkpt lat="48.86295" lon="2.33774">
        <ele>45.400001525879</ele>
        <time>2015-07-27T20:29:11Z</time>
      </trkpt>
      <trkpt lat="48.86277" lon="2.33764">
        <ele>46.20000076294</ele>
        <time>2015-07-27T20:29:17Z</time>
      </trkpt>
      <trkpt lat="48.86271" lon="2.3376">
        <ele>46.599998474121</ele>
        <time>2015-07-27T20:29:21Z</time>
      </trkpt>
      <trkpt lat="48.8627" lon="2.33756">
        <ele>47.599998474121</ele>
        <time>2015-07-27T20:29:26Z</time>
      </trkpt>
      <trkpt lat="48.86268" lon="2.33763">
        <ele>48.599998474121</ele>
        <time>2015-07-27T20:29:34Z</time>
      </trkpt>
      <trkpt lat="48.86263" lon="2.33788">
        <ele>49</ele>
        <time>2015-07-27T20:29:39Z</time>
      </trkpt>
      <trkpt lat="48.86256" lon="2.33818">
        <ele>49.20000076294</ele>
        <time>2015-07-27T20:29:43Z</time>
      </trkpt>
      <trkpt lat="48.86247" lon="2.33851">
        <ele>49.20000076294</ele>
        <time>2015-07-27T20:29:47Z</time>
      </trkpt>
      <trkpt lat="48.86238" lon="2.33884">
        <ele>49.400001525879</ele>
        <time>2015-07-27T20:29:51Z</time>
      </trkpt>
      <trkpt lat="48.8623" lon="2.33914">
        <ele>49.400001525879</ele>
        <time>2015-07-27T20:29:55Z</time>
      </trkpt>
      <trkpt lat="48.86223" lon="2.33933">
        <ele>49.400001525879</ele>
        <time>2015-07-27T20:29:58Z</time>
      </trkpt>
      <trkpt lat="48.86214" lon="2.33964">
        <ele>49.400001525879</ele>
        <time>2015-07-27T20:30:04Z</time>
      </trkpt>
      <trkpt lat="48.86213" lon="2.33967">
        <ele>49.400001525879</ele>
        <time>2015-07-27T20:30:05Z</time>
      </trkpt>
      <trkpt lat="48.86207" lon="2.33994">
        <ele>49.400001525879</ele>
        <time>2015-07-27T20:30:09Z</time>
      </trkpt>
      <trkpt lat="48.86199" lon="2.34029">
        <ele>49.599998474121</ele>
        <time>2015-07-27T20:30:13Z</time>
      </trkpt>
      <trkpt lat="48.86197" lon="2.34039">
        <ele>49.79999923706</ele>
        <time>2015-07-27T20:30:14Z</time>
      </trkpt>
      <trkpt lat="48.86195" lon="2.34048">
        <ele>50</ele>
        <time>2015-07-27T20:30:15Z</time>
      </trkpt>
      <trkpt lat="48.86189" lon="2.34089">
        <ele>50.599998474121</ele>
        <time>2015-07-27T20:30:20Z</time>
      </trkpt>
      <trkpt lat="48.86188" lon="2.34095">
        <ele>50.79999923706</ele>
        <time>2015-07-27T20:30:21Z</time>
      </trkpt>
      <trkpt lat="48.86186" lon="2.341">
        <ele>50.79999923706</ele>
        <time>2015-07-27T20:30:22Z</time>
      </trkpt>
      <trkpt lat="48.86181" lon="2.34111">
        <ele>51</ele>
        <time>2015-07-27T20:30:25Z</time>
      </trkpt>
      <trkpt lat="48.86177" lon="2.34116">
        <ele>51.20000076294</ele>
        <time>2015-07-27T20:30:27Z</time>
      </trkpt>
      <trkpt lat="48.86174" lon="2.34119">
        <ele>51.20000076294</ele>
        <time>2015-07-27T20:30:32Z</time>
      </trkpt>
      <trkpt lat="48.86171" lon="2.34124">
        <ele>51.400001525879</ele>
        <time>2015-07-27T20:30:36Z</time>
      </trkpt>
      <trkpt lat="48.86168" lon="2.34143">
        <ele>51.20000076294</ele>
        <time>2015-07-27T20:30:40Z</time>
      </trkpt>
      <trkpt lat="48.86161" lon="2.34174">
        <ele>50.599998474121</ele>
        <time>2015-07-27T20:30:45Z</time>
      </trkpt>
      <trkpt lat="48.86156" lon="2.34201">
        <ele>50.20000076294</ele>
        <time>2015-07-27T20:30:49Z</time>
      </trkpt>
      <trkpt lat="48.86155" lon="2.34208">
        <ele>50</ele>
        <time>2015-07-27T20:30:50Z</time>
      </trkpt>
      <trkpt lat="48.86153" lon="2.3422">
        <ele>50</ele>
        <time>2015-07-27T20:30:52Z</time>
      </trkpt>
      <trkpt lat="48.86148" lon="2.34248">
        <ele>49.79999923706</ele>
        <time>2015-07-27T20:30:57Z</time>
      </trkpt>
      <trkpt lat="48.86147" lon="2.34254">
        <ele>49.79999923706</ele>
        <time>2015-07-27T20:30:58Z</time>
      </trkpt>
      <trkpt lat="48.86145" lon="2.34267">
        <ele>49.79999923706</ele>
        <time>2015-07-27T20:31:00Z</time>
      </trkpt>
      <trkpt lat="48.8614" lon="2.34297">
        <ele>49.599998474121</ele>
        <time>2015-07-27T20:31:05Z</time>
      </trkpt>
      <trkpt lat="48.86139" lon="2.34311">
        <ele>49.599998474121</ele>
        <time>2015-07-27T20:31:07Z</time>
      </trkpt>
      <trkpt lat="48.86138" lon="2.34325">
        <ele>49.599998474121</ele>
        <time>2015-07-27T20:31:09Z</time>
      </trkpt>
      <trkpt lat="48.86133" lon="2.34363">
        <ele>49.599998474121</ele>
        <time>2015-07-27T20:31:14Z</time>
      </trkpt>
      <trkpt lat="48.8613" lon="2.34378">
        <ele>49.599998474121</ele>
        <time>2015-07-27T20:31:16Z</time>
      </trkpt>
      <trkpt lat="48.86124" lon="2.34402">
        <ele>49.599998474121</ele>
        <time>2015-07-27T20:31:20Z</time>
      </trkpt>
      <trkpt lat="48.86123" lon="2.34415">
        <ele>49.599998474121</ele>
        <time>2015-07-27T20:31:22Z</time>
      </trkpt>
      <trkpt lat="48.86123" lon="2.34421">
        <ele>49.599998474121</ele>
        <time>2015-07-27T20:31:23Z</time>
      </trkpt>
      <trkpt lat="48.86122" lon="2.34434">
        <ele>49.599998474121</ele>
        <time>2015-07-27T20:31:25Z</time>
      </trkpt>
      <trkpt lat="48.86117" lon="2.34472">
        <ele>49.599998474121</ele>
        <time>2015-07-27T20:31:30Z</time>
      </trkpt>
      <trkpt lat="48.86115" lon="2.34479">
        <ele>49.599998474121</ele>
        <time>2015-07-27T20:31:31Z</time>
      </trkpt>
      <trkpt lat="48.86112" lon="2.3449">
        <ele>49.599998474121</ele>
        <time>2015-07-27T20:31:33Z</time>
      </trkpt>
      <trkpt lat="48.86111" lon="2.34494">
        <ele>49.400001525879</ele>
        <time>2015-07-27T20:31:39Z</time>
      </trkpt>
      <trkpt lat="48.86107" lon="2.34493">
        <ele>49.400001525879</ele>
        <time>2015-07-27T20:31:54Z</time>
      </trkpt>
      <trkpt lat="48.86104" lon="2.34498">
        <ele>49.400001525879</ele>
        <time>2015-07-27T20:31:55Z</time>
      </trkpt>
      <trkpt lat="48.86096" lon="2.3454">
        <ele>49.79999923706</ele>
        <time>2015-07-27T20:32:00Z</time>
      </trkpt>
      <trkpt lat="48.86094" lon="2.34548">
        <ele>49.79999923706</ele>
        <time>2015-07-27T20:32:01Z</time>
      </trkpt>
      <trkpt lat="48.86083" lon="2.34574">
        <ele>50.400001525879</ele>
        <time>2015-07-27T20:32:05Z</time>
      </trkpt>
      <trkpt lat="48.8608" lon="2.34579">
        <ele>50.599998474121</ele>
        <time>2015-07-27T20:32:06Z</time>
      </trkpt>
      <trkpt lat="48.86076" lon="2.34585">
        <ele>50.599998474121</ele>
        <time>2015-07-27T20:32:07Z</time>
      </trkpt>
      <trkpt lat="48.86064" lon="2.34598">
        <ele>50.79999923706</ele>
        <time>2015-07-27T20:32:10Z</time>
      </trkpt>
      <trkpt lat="48.86043" lon="2.34616">
        <ele>51.20000076294</ele>
        <time>2015-07-27T20:32:15Z</time>
      </trkpt>
      <trkpt lat="48.86031" lon="2.34626">
        <ele>51.20000076294</ele>
        <time>2015-07-27T20:32:18Z</time>
      </trkpt>
      <trkpt lat="48.86009" lon="2.34644">
        <ele>51.400001525879</ele>
        <time>2015-07-27T20:32:24Z</time>
      </trkpt>
      <trkpt lat="48.86006" lon="2.34647">
        <ele>51.400001525879</ele>
        <time>2015-07-27T20:32:25Z</time>
      </trkpt>
      <trkpt lat="48.85993" lon="2.34662">
        <ele>51.400001525879</ele>
        <time>2015-07-27T20:32:29Z</time>
      </trkpt>
      <trkpt lat="48.85974" lon="2.34679">
        <ele>51.400001525879</ele>
        <time>2015-07-27T20:32:35Z</time>
      </trkpt>
      <trkpt lat="48.85959" lon="2.34691">
        <ele>51.599998474121</ele>
        <time>2015-07-27T20:32:42Z</time>
      </trkpt>
      <trkpt lat="48.85959" lon="2.34693">
        <ele>52.20000076294</ele>
        <time>2015-07-27T20:32:47Z</time>
      </trkpt>
      <trkpt lat="48.8596" lon="2.34694">
        <ele>53</ele>
        <time>2015-07-27T20:32:56Z</time>
      </trkpt>
      <trkpt lat="48.85961" lon="2.34687">
        <ele>59.79999923706</ele>
        <time>2015-07-27T20:33:59Z</time>
      </trkpt>
    </trkseg>
  </trk>
</gpx>